<?xml version="1.0" encoding="UTF-8" standalone="no" ?>
<gpx xmlns="http://www.topografix.com/GPX/1/1" xmlns:xsi="http://www.w3.org/2001/XMLSchema-instance" xsi:schemaLocation="http://www.topografix.com/GPX/1/1 http://www.topografix.com/GPX/1/1/gpx.xsd" version="1.1" creator="VisuGPX - https://www.visugpx.com">
  <metadata>
    <name>2016-11-26 Bike ride-Georges de Reneins O</name>
    <desc><![CDATA[2016-11-26 Bike ride-Georges de Reneins O]]></desc>
  </metadata>
  <wpt lat="45.92456" lon="4.73699">
    <ele>174</ele>
    <name><![CDATA[2016-11-26 10:09 (Start)]]></name>
  </wpt>
  <wpt lat="45.92458" lon="4.7371">
    <ele>174</ele>
    <name><![CDATA[2016-11-26 10:09 (End)]]></name>
    <desc><![CDATA[Created by Google My Tracks on Android  Name: 2016-11-26 10:09 Activity type: biking Description: - Total distance: 49.87 km (31.0 mi) Total time: 2:38:57 Moving time: 2:34:04 Average speed: 18.82 km/h (11.7 mi/h) Average moving speed: 19.42 km/h (12.1 mi/h) Max speed: 38.49 km/h (23.9 mi/h) Average pace: 3:11 min/km (5:08 min/mi) Average moving pace: 3:05 min/km (4:58 min/mi) Fastest pace: 1:34 min/km (2:31 min/mi) Max elevation: 247 m (810 ft) Min elevation: 157 m (515 ft) Elevation gain: 668 m (2190 ft) Max grade: 33 % Min grade: -9 % Recorded: 26/11/2016 10:09]]></desc>
  </wpt>
  <trk>
    <name><![CDATA[2016-11-26 10:09]]></name>
    <trkseg>
      <trkpt lat="45.92456" lon="4.73699">
        <ele>174</ele>
        <time>2016-11-26T09:09:55.566Z</time>
      </trkpt>
      <trkpt lat="45.92456" lon="4.73699">
        <ele>174</ele>
        <time>2016-11-26T09:10:18Z</time>
      </trkpt>
      <trkpt lat="45.92457" lon="4.73702">
        <ele>174</ele>
        <time>2016-11-26T09:12:38Z</time>
      </trkpt>
      <trkpt lat="45.92461" lon="4.7371">
        <ele>174</ele>
        <time>2016-11-26T09:12:39Z</time>
      </trkpt>
      <trkpt lat="45.92465" lon="4.73699">
        <ele>174</ele>
        <time>2016-11-26T09:12:43Z</time>
      </trkpt>
      <trkpt lat="45.92466" lon="4.73695">
        <ele>174</ele>
        <time>2016-11-26T09:12:44Z</time>
      </trkpt>
      <trkpt lat="45.92467" lon="4.73687">
        <ele>174</ele>
        <time>2016-11-26T09:12:46Z</time>
      </trkpt>
      <trkpt lat="45.92467" lon="4.73682">
        <ele>174</ele>
        <time>2016-11-26T09:12:47Z</time>
      </trkpt>
      <trkpt lat="45.92467" lon="4.73671">
        <ele>174</ele>
        <time>2016-11-26T09:12:49Z</time>
      </trkpt>
      <trkpt lat="45.92468" lon="4.73665">
        <ele>174</ele>
        <time>2016-11-26T09:12:50Z</time>
      </trkpt>
      <trkpt lat="45.92469" lon="4.73655">
        <ele>174</ele>
        <time>2016-11-26T09:12:52Z</time>
      </trkpt>
      <trkpt lat="45.92471" lon="4.7365">
        <ele>174</ele>
        <time>2016-11-26T09:12:53Z</time>
      </trkpt>
      <trkpt lat="45.92476" lon="4.73643">
        <ele>174</ele>
        <time>2016-11-26T09:12:55Z</time>
      </trkpt>
      <trkpt lat="45.9248" lon="4.73642">
        <ele>174</ele>
        <time>2016-11-26T09:12:56Z</time>
      </trkpt>
      <trkpt lat="45.92488" lon="4.73641">
        <ele>174</ele>
        <time>2016-11-26T09:12:58Z</time>
      </trkpt>
      <trkpt lat="45.92492" lon="4.73641">
        <ele>174</ele>
        <time>2016-11-26T09:12:59Z</time>
      </trkpt>
      <trkpt lat="45.92501" lon="4.73641">
        <ele>174</ele>
        <time>2016-11-26T09:13:01Z</time>
      </trkpt>
      <trkpt lat="45.92505" lon="4.73641">
        <ele>174</ele>
        <time>2016-11-26T09:13:02Z</time>
      </trkpt>
      <trkpt lat="45.9251" lon="4.73642">
        <ele>174</ele>
        <time>2016-11-26T09:13:03Z</time>
      </trkpt>
      <trkpt lat="45.92514" lon="4.73642">
        <ele>174</ele>
        <time>2016-11-26T09:13:04Z</time>
      </trkpt>
      <trkpt lat="45.92519" lon="4.73641">
        <ele>173</ele>
        <time>2016-11-26T09:13:05Z</time>
      </trkpt>
      <trkpt lat="45.92523" lon="4.73641">
        <ele>173</ele>
        <time>2016-11-26T09:13:06Z</time>
      </trkpt>
      <trkpt lat="45.92528" lon="4.73641">
        <ele>173</ele>
        <time>2016-11-26T09:13:07Z</time>
      </trkpt>
      <trkpt lat="45.92533" lon="4.7364">
        <ele>173</ele>
        <time>2016-11-26T09:13:08Z</time>
      </trkpt>
      <trkpt lat="45.92538" lon="4.73639">
        <ele>173</ele>
        <time>2016-11-26T09:13:09Z</time>
      </trkpt>
      <trkpt lat="45.92542" lon="4.73638">
        <ele>173</ele>
        <time>2016-11-26T09:13:10Z</time>
      </trkpt>
      <trkpt lat="45.92548" lon="4.73637">
        <ele>173</ele>
        <time>2016-11-26T09:13:11Z</time>
      </trkpt>
      <trkpt lat="45.92553" lon="4.73635">
        <ele>173</ele>
        <time>2016-11-26T09:13:12Z</time>
      </trkpt>
      <trkpt lat="45.92558" lon="4.73633">
        <ele>173</ele>
        <time>2016-11-26T09:13:13Z</time>
      </trkpt>
      <trkpt lat="45.92563" lon="4.73632">
        <ele>173</ele>
        <time>2016-11-26T09:13:14Z</time>
      </trkpt>
      <trkpt lat="45.92568" lon="4.7363">
        <ele>173</ele>
        <time>2016-11-26T09:13:15Z</time>
      </trkpt>
      <trkpt lat="45.92572" lon="4.73629">
        <ele>173</ele>
        <time>2016-11-26T09:13:16Z</time>
      </trkpt>
      <trkpt lat="45.92577" lon="4.73628">
        <ele>173</ele>
        <time>2016-11-26T09:13:17Z</time>
      </trkpt>
      <trkpt lat="45.92582" lon="4.73627">
        <ele>173</ele>
        <time>2016-11-26T09:13:18Z</time>
      </trkpt>
      <trkpt lat="45.92587" lon="4.73626">
        <ele>172</ele>
        <time>2016-11-26T09:13:19Z</time>
      </trkpt>
      <trkpt lat="45.92591" lon="4.73625">
        <ele>173</ele>
        <time>2016-11-26T09:13:20Z</time>
      </trkpt>
      <trkpt lat="45.92596" lon="4.73625">
        <ele>173</ele>
        <time>2016-11-26T09:13:21Z</time>
      </trkpt>
      <trkpt lat="45.92601" lon="4.73624">
        <ele>173</ele>
        <time>2016-11-26T09:13:22Z</time>
      </trkpt>
      <trkpt lat="45.92606" lon="4.73626">
        <ele>173</ele>
        <time>2016-11-26T09:13:23Z</time>
      </trkpt>
      <trkpt lat="45.92611" lon="4.73627">
        <ele>173</ele>
        <time>2016-11-26T09:13:24Z</time>
      </trkpt>
      <trkpt lat="45.92615" lon="4.73631">
        <ele>173</ele>
        <time>2016-11-26T09:13:25Z</time>
      </trkpt>
      <trkpt lat="45.92619" lon="4.73637">
        <ele>173</ele>
        <time>2016-11-26T09:13:26Z</time>
      </trkpt>
      <trkpt lat="45.92622" lon="4.73643">
        <ele>173</ele>
        <time>2016-11-26T09:13:27Z</time>
      </trkpt>
      <trkpt lat="45.92625" lon="4.73649">
        <ele>173</ele>
        <time>2016-11-26T09:13:28Z</time>
      </trkpt>
      <trkpt lat="45.92628" lon="4.73656">
        <ele>173</ele>
        <time>2016-11-26T09:13:29Z</time>
      </trkpt>
      <trkpt lat="45.92631" lon="4.73663">
        <ele>173</ele>
        <time>2016-11-26T09:13:30Z</time>
      </trkpt>
      <trkpt lat="45.92634" lon="4.7367">
        <ele>173</ele>
        <time>2016-11-26T09:13:31Z</time>
      </trkpt>
      <trkpt lat="45.92637" lon="4.73676">
        <ele>173</ele>
        <time>2016-11-26T09:13:32Z</time>
      </trkpt>
      <trkpt lat="45.92641" lon="4.73682">
        <ele>173</ele>
        <time>2016-11-26T09:13:33Z</time>
      </trkpt>
      <trkpt lat="45.92645" lon="4.73687">
        <ele>173</ele>
        <time>2016-11-26T09:13:34Z</time>
      </trkpt>
      <trkpt lat="45.9265" lon="4.73691">
        <ele>173</ele>
        <time>2016-11-26T09:13:35Z</time>
      </trkpt>
      <trkpt lat="45.92655" lon="4.73695">
        <ele>173</ele>
        <time>2016-11-26T09:13:36Z</time>
      </trkpt>
      <trkpt lat="45.9266" lon="4.73699">
        <ele>173</ele>
        <time>2016-11-26T09:13:37Z</time>
      </trkpt>
      <trkpt lat="45.92665" lon="4.73702">
        <ele>173</ele>
        <time>2016-11-26T09:13:38Z</time>
      </trkpt>
      <trkpt lat="45.92671" lon="4.73705">
        <ele>174</ele>
        <time>2016-11-26T09:13:39Z</time>
      </trkpt>
      <trkpt lat="45.92676" lon="4.73707">
        <ele>173</ele>
        <time>2016-11-26T09:13:40Z</time>
      </trkpt>
      <trkpt lat="45.92681" lon="4.7371">
        <ele>173</ele>
        <time>2016-11-26T09:13:41Z</time>
      </trkpt>
      <trkpt lat="45.92687" lon="4.73712">
        <ele>173</ele>
        <time>2016-11-26T09:13:42Z</time>
      </trkpt>
      <trkpt lat="45.92693" lon="4.73715">
        <ele>173</ele>
        <time>2016-11-26T09:13:43Z</time>
      </trkpt>
      <trkpt lat="45.92698" lon="4.73716">
        <ele>173</ele>
        <time>2016-11-26T09:13:44Z</time>
      </trkpt>
      <trkpt lat="45.92703" lon="4.73718">
        <ele>173</ele>
        <time>2016-11-26T09:13:45Z</time>
      </trkpt>
      <trkpt lat="45.92708" lon="4.73719">
        <ele>173</ele>
        <time>2016-11-26T09:13:46Z</time>
      </trkpt>
      <trkpt lat="45.92713" lon="4.7372">
        <ele>173</ele>
        <time>2016-11-26T09:13:47Z</time>
      </trkpt>
      <trkpt lat="45.92718" lon="4.73722">
        <ele>173</ele>
        <time>2016-11-26T09:13:48Z</time>
      </trkpt>
      <trkpt lat="45.92723" lon="4.73722">
        <ele>173</ele>
        <time>2016-11-26T09:13:49Z</time>
      </trkpt>
      <trkpt lat="45.92728" lon="4.73723">
        <ele>173</ele>
        <time>2016-11-26T09:13:50Z</time>
      </trkpt>
      <trkpt lat="45.92734" lon="4.73723">
        <ele>173</ele>
        <time>2016-11-26T09:13:51Z</time>
      </trkpt>
      <trkpt lat="45.92739" lon="4.73724">
        <ele>173</ele>
        <time>2016-11-26T09:13:52Z</time>
      </trkpt>
      <trkpt lat="45.92744" lon="4.73725">
        <ele>173</ele>
        <time>2016-11-26T09:13:53Z</time>
      </trkpt>
      <trkpt lat="45.92749" lon="4.73726">
        <ele>173</ele>
        <time>2016-11-26T09:13:54Z</time>
      </trkpt>
      <trkpt lat="45.92753" lon="4.73726">
        <ele>172</ele>
        <time>2016-11-26T09:13:55Z</time>
      </trkpt>
      <trkpt lat="45.92758" lon="4.73728">
        <ele>172</ele>
        <time>2016-11-26T09:13:56Z</time>
      </trkpt>
      <trkpt lat="45.92766" lon="4.7373">
        <ele>172</ele>
        <time>2016-11-26T09:13:58Z</time>
      </trkpt>
      <trkpt lat="45.9277" lon="4.73731">
        <ele>172</ele>
        <time>2016-11-26T09:13:59Z</time>
      </trkpt>
      <trkpt lat="45.92775" lon="4.73732">
        <ele>172</ele>
        <time>2016-11-26T09:14:01Z</time>
      </trkpt>
      <trkpt lat="45.92779" lon="4.73732">
        <ele>172</ele>
        <time>2016-11-26T09:14:02Z</time>
      </trkpt>
      <trkpt lat="45.92783" lon="4.73725">
        <ele>172</ele>
        <time>2016-11-26T09:14:04Z</time>
      </trkpt>
      <trkpt lat="45.92784" lon="4.73719">
        <ele>172</ele>
        <time>2016-11-26T09:14:05Z</time>
      </trkpt>
      <trkpt lat="45.92786" lon="4.73707">
        <ele>172</ele>
        <time>2016-11-26T09:14:07Z</time>
      </trkpt>
      <trkpt lat="45.92787" lon="4.73701">
        <ele>172</ele>
        <time>2016-11-26T09:14:08Z</time>
      </trkpt>
      <trkpt lat="45.92788" lon="4.73694">
        <ele>172</ele>
        <time>2016-11-26T09:14:09Z</time>
      </trkpt>
      <trkpt lat="45.9279" lon="4.73688">
        <ele>172</ele>
        <time>2016-11-26T09:14:10Z</time>
      </trkpt>
      <trkpt lat="45.92791" lon="4.73681">
        <ele>172</ele>
        <time>2016-11-26T09:14:11Z</time>
      </trkpt>
      <trkpt lat="45.92793" lon="4.73675">
        <ele>172</ele>
        <time>2016-11-26T09:14:12Z</time>
      </trkpt>
      <trkpt lat="45.92795" lon="4.73669">
        <ele>172</ele>
        <time>2016-11-26T09:14:13Z</time>
      </trkpt>
      <trkpt lat="45.92797" lon="4.73663">
        <ele>172</ele>
        <time>2016-11-26T09:14:14Z</time>
      </trkpt>
      <trkpt lat="45.92799" lon="4.73657">
        <ele>172</ele>
        <time>2016-11-26T09:14:15Z</time>
      </trkpt>
      <trkpt lat="45.92801" lon="4.7365">
        <ele>172</ele>
        <time>2016-11-26T09:14:16Z</time>
      </trkpt>
      <trkpt lat="45.92803" lon="4.73643">
        <ele>172</ele>
        <time>2016-11-26T09:14:17Z</time>
      </trkpt>
      <trkpt lat="45.92805" lon="4.73638">
        <ele>172</ele>
        <time>2016-11-26T09:14:18Z</time>
      </trkpt>
      <trkpt lat="45.9281" lon="4.73631">
        <ele>172</ele>
        <time>2016-11-26T09:14:20Z</time>
      </trkpt>
      <trkpt lat="45.92812" lon="4.73628">
        <ele>172</ele>
        <time>2016-11-26T09:14:21Z</time>
      </trkpt>
      <trkpt lat="45.92817" lon="4.7362">
        <ele>172</ele>
        <time>2016-11-26T09:14:23Z</time>
      </trkpt>
      <trkpt lat="45.92818" lon="4.73614">
        <ele>172</ele>
        <time>2016-11-26T09:14:24Z</time>
      </trkpt>
      <trkpt lat="45.92819" lon="4.73607">
        <ele>172</ele>
        <time>2016-11-26T09:14:25Z</time>
      </trkpt>
      <trkpt lat="45.92819" lon="4.736">
        <ele>171</ele>
        <time>2016-11-26T09:14:26Z</time>
      </trkpt>
      <trkpt lat="45.92819" lon="4.73592">
        <ele>171</ele>
        <time>2016-11-26T09:14:27Z</time>
      </trkpt>
      <trkpt lat="45.92819" lon="4.73585">
        <ele>171</ele>
        <time>2016-11-26T09:14:28Z</time>
      </trkpt>
      <trkpt lat="45.92819" lon="4.73577">
        <ele>171</ele>
        <time>2016-11-26T09:14:29Z</time>
      </trkpt>
      <trkpt lat="45.92819" lon="4.73569">
        <ele>171</ele>
        <time>2016-11-26T09:14:30Z</time>
      </trkpt>
      <trkpt lat="45.9282" lon="4.73562">
        <ele>171</ele>
        <time>2016-11-26T09:14:31Z</time>
      </trkpt>
      <trkpt lat="45.9282" lon="4.73554">
        <ele>171</ele>
        <time>2016-11-26T09:14:32Z</time>
      </trkpt>
      <trkpt lat="45.92821" lon="4.73547">
        <ele>171</ele>
        <time>2016-11-26T09:14:33Z</time>
      </trkpt>
      <trkpt lat="45.92822" lon="4.73539">
        <ele>172</ele>
        <time>2016-11-26T09:14:34Z</time>
      </trkpt>
      <trkpt lat="45.92822" lon="4.73532">
        <ele>172</ele>
        <time>2016-11-26T09:14:35Z</time>
      </trkpt>
      <trkpt lat="45.92823" lon="4.73524">
        <ele>172</ele>
        <time>2016-11-26T09:14:36Z</time>
      </trkpt>
      <trkpt lat="45.92824" lon="4.73516">
        <ele>172</ele>
        <time>2016-11-26T09:14:37Z</time>
      </trkpt>
      <trkpt lat="45.92825" lon="4.73508">
        <ele>172</ele>
        <time>2016-11-26T09:14:38Z</time>
      </trkpt>
      <trkpt lat="45.92826" lon="4.735">
        <ele>172</ele>
        <time>2016-11-26T09:14:39Z</time>
      </trkpt>
      <trkpt lat="45.92827" lon="4.73491">
        <ele>172</ele>
        <time>2016-11-26T09:14:40Z</time>
      </trkpt>
      <trkpt lat="45.92828" lon="4.73483">
        <ele>172</ele>
        <time>2016-11-26T09:14:41Z</time>
      </trkpt>
      <trkpt lat="45.92829" lon="4.73475">
        <ele>172</ele>
        <time>2016-11-26T09:14:42Z</time>
      </trkpt>
      <trkpt lat="45.9283" lon="4.73466">
        <ele>172</ele>
        <time>2016-11-26T09:14:43Z</time>
      </trkpt>
      <trkpt lat="45.92831" lon="4.73458">
        <ele>172</ele>
        <time>2016-11-26T09:14:44Z</time>
      </trkpt>
      <trkpt lat="45.92832" lon="4.73449">
        <ele>172</ele>
        <time>2016-11-26T09:14:45Z</time>
      </trkpt>
      <trkpt lat="45.92833" lon="4.73441">
        <ele>172</ele>
        <time>2016-11-26T09:14:46Z</time>
      </trkpt>
      <trkpt lat="45.92834" lon="4.73433">
        <ele>172</ele>
        <time>2016-11-26T09:14:47Z</time>
      </trkpt>
      <trkpt lat="45.92835" lon="4.73425">
        <ele>172</ele>
        <time>2016-11-26T09:14:48Z</time>
      </trkpt>
      <trkpt lat="45.92836" lon="4.73416">
        <ele>172</ele>
        <time>2016-11-26T09:14:49Z</time>
      </trkpt>
      <trkpt lat="45.92837" lon="4.73408">
        <ele>172</ele>
        <time>2016-11-26T09:14:50Z</time>
      </trkpt>
      <trkpt lat="45.92838" lon="4.734">
        <ele>172</ele>
        <time>2016-11-26T09:14:51Z</time>
      </trkpt>
      <trkpt lat="45.92839" lon="4.73392">
        <ele>172</ele>
        <time>2016-11-26T09:14:52Z</time>
      </trkpt>
      <trkpt lat="45.9284" lon="4.73383">
        <ele>172</ele>
        <time>2016-11-26T09:14:53Z</time>
      </trkpt>
      <trkpt lat="45.92841" lon="4.73375">
        <ele>171</ele>
        <time>2016-11-26T09:14:54Z</time>
      </trkpt>
      <trkpt lat="45.92843" lon="4.73366">
        <ele>171</ele>
        <time>2016-11-26T09:14:55Z</time>
      </trkpt>
      <trkpt lat="45.92844" lon="4.73358">
        <ele>171</ele>
        <time>2016-11-26T09:14:56Z</time>
      </trkpt>
      <trkpt lat="45.92845" lon="4.73349">
        <ele>171</ele>
        <time>2016-11-26T09:14:57Z</time>
      </trkpt>
      <trkpt lat="45.92846" lon="4.73341">
        <ele>171</ele>
        <time>2016-11-26T09:14:58Z</time>
      </trkpt>
      <trkpt lat="45.92847" lon="4.73332">
        <ele>171</ele>
        <time>2016-11-26T09:14:59Z</time>
      </trkpt>
      <trkpt lat="45.92847" lon="4.73323">
        <ele>171</ele>
        <time>2016-11-26T09:15:00Z</time>
      </trkpt>
      <trkpt lat="45.92848" lon="4.73315">
        <ele>171</ele>
        <time>2016-11-26T09:15:01Z</time>
      </trkpt>
      <trkpt lat="45.92849" lon="4.73306">
        <ele>171</ele>
        <time>2016-11-26T09:15:02Z</time>
      </trkpt>
      <trkpt lat="45.9285" lon="4.73298">
        <ele>171</ele>
        <time>2016-11-26T09:15:03Z</time>
      </trkpt>
      <trkpt lat="45.92851" lon="4.7329">
        <ele>171</ele>
        <time>2016-11-26T09:15:04Z</time>
      </trkpt>
      <trkpt lat="45.92853" lon="4.73281">
        <ele>171</ele>
        <time>2016-11-26T09:15:05Z</time>
      </trkpt>
      <trkpt lat="45.92854" lon="4.73273">
        <ele>171</ele>
        <time>2016-11-26T09:15:06Z</time>
      </trkpt>
      <trkpt lat="45.92855" lon="4.73264">
        <ele>171</ele>
        <time>2016-11-26T09:15:07Z</time>
      </trkpt>
      <trkpt lat="45.92856" lon="4.73256">
        <ele>171</ele>
        <time>2016-11-26T09:15:08Z</time>
      </trkpt>
      <trkpt lat="45.92857" lon="4.73247">
        <ele>171</ele>
        <time>2016-11-26T09:15:09Z</time>
      </trkpt>
      <trkpt lat="45.92857" lon="4.73239">
        <ele>171</ele>
        <time>2016-11-26T09:15:10Z</time>
      </trkpt>
      <trkpt lat="45.92858" lon="4.7323">
        <ele>171</ele>
        <time>2016-11-26T09:15:11Z</time>
      </trkpt>
      <trkpt lat="45.92859" lon="4.73222">
        <ele>171</ele>
        <time>2016-11-26T09:15:12Z</time>
      </trkpt>
      <trkpt lat="45.9286" lon="4.73214">
        <ele>171</ele>
        <time>2016-11-26T09:15:13Z</time>
      </trkpt>
      <trkpt lat="45.92861" lon="4.73205">
        <ele>171</ele>
        <time>2016-11-26T09:15:14Z</time>
      </trkpt>
      <trkpt lat="45.92862" lon="4.73197">
        <ele>171</ele>
        <time>2016-11-26T09:15:15Z</time>
      </trkpt>
      <trkpt lat="45.92864" lon="4.73188">
        <ele>171</ele>
        <time>2016-11-26T09:15:16Z</time>
      </trkpt>
      <trkpt lat="45.92865" lon="4.7318">
        <ele>171</ele>
        <time>2016-11-26T09:15:17Z</time>
      </trkpt>
      <trkpt lat="45.92866" lon="4.73172">
        <ele>171</ele>
        <time>2016-11-26T09:15:18Z</time>
      </trkpt>
      <trkpt lat="45.92867" lon="4.73164">
        <ele>171</ele>
        <time>2016-11-26T09:15:19Z</time>
      </trkpt>
      <trkpt lat="45.92869" lon="4.73155">
        <ele>171</ele>
        <time>2016-11-26T09:15:20Z</time>
      </trkpt>
      <trkpt lat="45.9287" lon="4.73146">
        <ele>171</ele>
        <time>2016-11-26T09:15:21Z</time>
      </trkpt>
      <trkpt lat="45.92872" lon="4.73138">
        <ele>171</ele>
        <time>2016-11-26T09:15:22Z</time>
      </trkpt>
      <trkpt lat="45.92873" lon="4.7313">
        <ele>171</ele>
        <time>2016-11-26T09:15:23Z</time>
      </trkpt>
      <trkpt lat="45.92875" lon="4.73121">
        <ele>172</ele>
        <time>2016-11-26T09:15:24Z</time>
      </trkpt>
      <trkpt lat="45.92877" lon="4.73113">
        <ele>172</ele>
        <time>2016-11-26T09:15:25Z</time>
      </trkpt>
      <trkpt lat="45.92879" lon="4.73105">
        <ele>172</ele>
        <time>2016-11-26T09:15:26Z</time>
      </trkpt>
      <trkpt lat="45.92881" lon="4.73097">
        <ele>172</ele>
        <time>2016-11-26T09:15:27Z</time>
      </trkpt>
      <trkpt lat="45.92884" lon="4.73089">
        <ele>172</ele>
        <time>2016-11-26T09:15:28Z</time>
      </trkpt>
      <trkpt lat="45.92887" lon="4.73082">
        <ele>172</ele>
        <time>2016-11-26T09:15:29Z</time>
      </trkpt>
      <trkpt lat="45.9289" lon="4.73075">
        <ele>172</ele>
        <time>2016-11-26T09:15:30Z</time>
      </trkpt>
      <trkpt lat="45.92894" lon="4.73068">
        <ele>172</ele>
        <time>2016-11-26T09:15:31Z</time>
      </trkpt>
      <trkpt lat="45.92897" lon="4.73061">
        <ele>172</ele>
        <time>2016-11-26T09:15:32Z</time>
      </trkpt>
      <trkpt lat="45.92901" lon="4.73054">
        <ele>172</ele>
        <time>2016-11-26T09:15:33Z</time>
      </trkpt>
      <trkpt lat="45.92905" lon="4.73048">
        <ele>172</ele>
        <time>2016-11-26T09:15:34Z</time>
      </trkpt>
      <trkpt lat="45.92909" lon="4.73041">
        <ele>172</ele>
        <time>2016-11-26T09:15:35Z</time>
      </trkpt>
      <trkpt lat="45.92913" lon="4.73035">
        <ele>172</ele>
        <time>2016-11-26T09:15:36Z</time>
      </trkpt>
      <trkpt lat="45.92917" lon="4.7303">
        <ele>172</ele>
        <time>2016-11-26T09:15:37Z</time>
      </trkpt>
      <trkpt lat="45.92921" lon="4.73024">
        <ele>172</ele>
        <time>2016-11-26T09:15:38Z</time>
      </trkpt>
      <trkpt lat="45.92926" lon="4.73019">
        <ele>171</ele>
        <time>2016-11-26T09:15:39Z</time>
      </trkpt>
      <trkpt lat="45.9293" lon="4.73013">
        <ele>171</ele>
        <time>2016-11-26T09:15:40Z</time>
      </trkpt>
      <trkpt lat="45.92935" lon="4.73007">
        <ele>171</ele>
        <time>2016-11-26T09:15:41Z</time>
      </trkpt>
      <trkpt lat="45.9294" lon="4.73002">
        <ele>171</ele>
        <time>2016-11-26T09:15:42Z</time>
      </trkpt>
      <trkpt lat="45.92945" lon="4.72996">
        <ele>171</ele>
        <time>2016-11-26T09:15:43Z</time>
      </trkpt>
      <trkpt lat="45.92949" lon="4.7299">
        <ele>171</ele>
        <time>2016-11-26T09:15:44Z</time>
      </trkpt>
      <trkpt lat="45.92954" lon="4.72985">
        <ele>171</ele>
        <time>2016-11-26T09:15:45Z</time>
      </trkpt>
      <trkpt lat="45.92958" lon="4.72979">
        <ele>171</ele>
        <time>2016-11-26T09:15:46Z</time>
      </trkpt>
      <trkpt lat="45.92963" lon="4.72974">
        <ele>171</ele>
        <time>2016-11-26T09:15:47Z</time>
      </trkpt>
      <trkpt lat="45.92967" lon="4.72969">
        <ele>171</ele>
        <time>2016-11-26T09:15:48Z</time>
      </trkpt>
      <trkpt lat="45.92971" lon="4.72964">
        <ele>171</ele>
        <time>2016-11-26T09:15:49Z</time>
      </trkpt>
      <trkpt lat="45.92975" lon="4.7296">
        <ele>171</ele>
        <time>2016-11-26T09:15:50Z</time>
      </trkpt>
      <trkpt lat="45.92979" lon="4.72955">
        <ele>171</ele>
        <time>2016-11-26T09:15:51Z</time>
      </trkpt>
      <trkpt lat="45.92983" lon="4.72951">
        <ele>171</ele>
        <time>2016-11-26T09:15:52Z</time>
      </trkpt>
      <trkpt lat="45.92987" lon="4.72946">
        <ele>171</ele>
        <time>2016-11-26T09:15:53Z</time>
      </trkpt>
      <trkpt lat="45.9299" lon="4.72941">
        <ele>171</ele>
        <time>2016-11-26T09:15:54Z</time>
      </trkpt>
      <trkpt lat="45.92994" lon="4.72937">
        <ele>171</ele>
        <time>2016-11-26T09:15:55Z</time>
      </trkpt>
      <trkpt lat="45.92997" lon="4.72932">
        <ele>171</ele>
        <time>2016-11-26T09:15:56Z</time>
      </trkpt>
      <trkpt lat="45.93001" lon="4.72928">
        <ele>170</ele>
        <time>2016-11-26T09:15:57Z</time>
      </trkpt>
      <trkpt lat="45.93004" lon="4.72923">
        <ele>171</ele>
        <time>2016-11-26T09:15:58Z</time>
      </trkpt>
      <trkpt lat="45.93008" lon="4.72918">
        <ele>170</ele>
        <time>2016-11-26T09:15:59Z</time>
      </trkpt>
      <trkpt lat="45.93011" lon="4.72914">
        <ele>171</ele>
        <time>2016-11-26T09:16:00Z</time>
      </trkpt>
      <trkpt lat="45.93015" lon="4.7291">
        <ele>171</ele>
        <time>2016-11-26T09:16:01Z</time>
      </trkpt>
      <trkpt lat="45.93019" lon="4.72906">
        <ele>172</ele>
        <time>2016-11-26T09:16:02Z</time>
      </trkpt>
      <trkpt lat="45.93023" lon="4.72902">
        <ele>172</ele>
        <time>2016-11-26T09:16:03Z</time>
      </trkpt>
      <trkpt lat="45.93027" lon="4.72898">
        <ele>172</ele>
        <time>2016-11-26T09:16:04Z</time>
      </trkpt>
      <trkpt lat="45.93033" lon="4.7289">
        <ele>172</ele>
        <time>2016-11-26T09:16:07Z</time>
      </trkpt>
      <trkpt lat="45.93034" lon="4.72888">
        <ele>172</ele>
        <time>2016-11-26T09:16:08Z</time>
      </trkpt>
      <trkpt lat="45.9304" lon="4.72882">
        <ele>172</ele>
        <time>2016-11-26T09:16:11Z</time>
      </trkpt>
      <trkpt lat="45.93043" lon="4.72879">
        <ele>172</ele>
        <time>2016-11-26T09:16:12Z</time>
      </trkpt>
      <trkpt lat="45.93046" lon="4.72874">
        <ele>172</ele>
        <time>2016-11-26T09:16:13Z</time>
      </trkpt>
      <trkpt lat="45.9305" lon="4.7287">
        <ele>172</ele>
        <time>2016-11-26T09:16:14Z</time>
      </trkpt>
      <trkpt lat="45.93054" lon="4.72865">
        <ele>172</ele>
        <time>2016-11-26T09:16:15Z</time>
      </trkpt>
      <trkpt lat="45.93058" lon="4.7286">
        <ele>172</ele>
        <time>2016-11-26T09:16:16Z</time>
      </trkpt>
      <trkpt lat="45.93062" lon="4.72855">
        <ele>172</ele>
        <time>2016-11-26T09:16:17Z</time>
      </trkpt>
      <trkpt lat="45.93065" lon="4.72852">
        <ele>172</ele>
        <time>2016-11-26T09:16:18Z</time>
      </trkpt>
      <trkpt lat="45.93069" lon="4.72848">
        <ele>172</ele>
        <time>2016-11-26T09:16:19Z</time>
      </trkpt>
      <trkpt lat="45.93073" lon="4.72843">
        <ele>173</ele>
        <time>2016-11-26T09:16:20Z</time>
      </trkpt>
      <trkpt lat="45.93077" lon="4.72839">
        <ele>173</ele>
        <time>2016-11-26T09:16:21Z</time>
      </trkpt>
      <trkpt lat="45.93081" lon="4.72835">
        <ele>173</ele>
        <time>2016-11-26T09:16:22Z</time>
      </trkpt>
      <trkpt lat="45.93085" lon="4.72832">
        <ele>173</ele>
        <time>2016-11-26T09:16:23Z</time>
      </trkpt>
      <trkpt lat="45.93091" lon="4.72828">
        <ele>172</ele>
        <time>2016-11-26T09:16:24Z</time>
      </trkpt>
      <trkpt lat="45.93096" lon="4.72818">
        <ele>172</ele>
        <time>2016-11-26T09:16:25Z</time>
      </trkpt>
      <trkpt lat="45.93101" lon="4.72812">
        <ele>172</ele>
        <time>2016-11-26T09:16:26Z</time>
      </trkpt>
      <trkpt lat="45.93105" lon="4.72807">
        <ele>171</ele>
        <time>2016-11-26T09:16:27Z</time>
      </trkpt>
      <trkpt lat="45.9311" lon="4.72802">
        <ele>171</ele>
        <time>2016-11-26T09:16:28Z</time>
      </trkpt>
      <trkpt lat="45.93114" lon="4.72798">
        <ele>171</ele>
        <time>2016-11-26T09:16:29Z</time>
      </trkpt>
      <trkpt lat="45.93119" lon="4.72794">
        <ele>171</ele>
        <time>2016-11-26T09:16:30Z</time>
      </trkpt>
      <trkpt lat="45.93124" lon="4.72788">
        <ele>171</ele>
        <time>2016-11-26T09:16:31Z</time>
      </trkpt>
      <trkpt lat="45.93129" lon="4.72783">
        <ele>171</ele>
        <time>2016-11-26T09:16:32Z</time>
      </trkpt>
      <trkpt lat="45.93133" lon="4.72776">
        <ele>171</ele>
        <time>2016-11-26T09:16:33Z</time>
      </trkpt>
      <trkpt lat="45.93138" lon="4.72771">
        <ele>171</ele>
        <time>2016-11-26T09:16:34Z</time>
      </trkpt>
      <trkpt lat="45.93142" lon="4.72765">
        <ele>171</ele>
        <time>2016-11-26T09:16:35Z</time>
      </trkpt>
      <trkpt lat="45.93147" lon="4.72759">
        <ele>171</ele>
        <time>2016-11-26T09:16:36Z</time>
      </trkpt>
      <trkpt lat="45.93152" lon="4.72753">
        <ele>170</ele>
        <time>2016-11-26T09:16:37Z</time>
      </trkpt>
      <trkpt lat="45.93157" lon="4.72748">
        <ele>170</ele>
        <time>2016-11-26T09:16:38Z</time>
      </trkpt>
      <trkpt lat="45.93162" lon="4.72742">
        <ele>170</ele>
        <time>2016-11-26T09:16:39Z</time>
      </trkpt>
      <trkpt lat="45.93166" lon="4.72736">
        <ele>170</ele>
        <time>2016-11-26T09:16:40Z</time>
      </trkpt>
      <trkpt lat="45.93171" lon="4.7273">
        <ele>170</ele>
        <time>2016-11-26T09:16:41Z</time>
      </trkpt>
      <trkpt lat="45.93175" lon="4.72725">
        <ele>170</ele>
        <time>2016-11-26T09:16:42Z</time>
      </trkpt>
      <trkpt lat="45.93179" lon="4.7272">
        <ele>169</ele>
        <time>2016-11-26T09:16:43Z</time>
      </trkpt>
      <trkpt lat="45.93184" lon="4.72714">
        <ele>169</ele>
        <time>2016-11-26T09:16:44Z</time>
      </trkpt>
      <trkpt lat="45.93188" lon="4.72709">
        <ele>169</ele>
        <time>2016-11-26T09:16:45Z</time>
      </trkpt>
      <trkpt lat="45.93193" lon="4.72704">
        <ele>169</ele>
        <time>2016-11-26T09:16:46Z</time>
      </trkpt>
      <trkpt lat="45.93198" lon="4.72698">
        <ele>169</ele>
        <time>2016-11-26T09:16:47Z</time>
      </trkpt>
      <trkpt lat="45.93202" lon="4.72693">
        <ele>169</ele>
        <time>2016-11-26T09:16:48Z</time>
      </trkpt>
      <trkpt lat="45.93206" lon="4.72687">
        <ele>169</ele>
        <time>2016-11-26T09:16:49Z</time>
      </trkpt>
      <trkpt lat="45.93211" lon="4.72681">
        <ele>169</ele>
        <time>2016-11-26T09:16:50Z</time>
      </trkpt>
      <trkpt lat="45.93215" lon="4.72676">
        <ele>169</ele>
        <time>2016-11-26T09:16:51Z</time>
      </trkpt>
      <trkpt lat="45.9322" lon="4.72671">
        <ele>169</ele>
        <time>2016-11-26T09:16:52Z</time>
      </trkpt>
      <trkpt lat="45.93225" lon="4.72666">
        <ele>170</ele>
        <time>2016-11-26T09:16:53Z</time>
      </trkpt>
      <trkpt lat="45.93229" lon="4.7266">
        <ele>169</ele>
        <time>2016-11-26T09:16:54Z</time>
      </trkpt>
      <trkpt lat="45.93234" lon="4.72655">
        <ele>169</ele>
        <time>2016-11-26T09:16:55Z</time>
      </trkpt>
      <trkpt lat="45.93239" lon="4.72649">
        <ele>170</ele>
        <time>2016-11-26T09:16:56Z</time>
      </trkpt>
      <trkpt lat="45.93243" lon="4.72643">
        <ele>170</ele>
        <time>2016-11-26T09:16:57Z</time>
      </trkpt>
      <trkpt lat="45.93248" lon="4.72638">
        <ele>170</ele>
        <time>2016-11-26T09:16:58Z</time>
      </trkpt>
      <trkpt lat="45.93253" lon="4.72632">
        <ele>170</ele>
        <time>2016-11-26T09:16:59Z</time>
      </trkpt>
      <trkpt lat="45.93257" lon="4.72627">
        <ele>170</ele>
        <time>2016-11-26T09:17:00Z</time>
      </trkpt>
      <trkpt lat="45.93262" lon="4.72621">
        <ele>170</ele>
        <time>2016-11-26T09:17:01Z</time>
      </trkpt>
      <trkpt lat="45.93266" lon="4.72615">
        <ele>170</ele>
        <time>2016-11-26T09:17:02Z</time>
      </trkpt>
      <trkpt lat="45.93271" lon="4.7261">
        <ele>170</ele>
        <time>2016-11-26T09:17:03Z</time>
      </trkpt>
      <trkpt lat="45.93276" lon="4.72604">
        <ele>170</ele>
        <time>2016-11-26T09:17:04Z</time>
      </trkpt>
      <trkpt lat="45.9328" lon="4.72599">
        <ele>170</ele>
        <time>2016-11-26T09:17:05Z</time>
      </trkpt>
      <trkpt lat="45.93285" lon="4.72594">
        <ele>170</ele>
        <time>2016-11-26T09:17:06Z</time>
      </trkpt>
      <trkpt lat="45.9329" lon="4.72588">
        <ele>170</ele>
        <time>2016-11-26T09:17:07Z</time>
      </trkpt>
      <trkpt lat="45.93294" lon="4.72583">
        <ele>171</ele>
        <time>2016-11-26T09:17:08Z</time>
      </trkpt>
      <trkpt lat="45.93299" lon="4.72577">
        <ele>171</ele>
        <time>2016-11-26T09:17:09Z</time>
      </trkpt>
      <trkpt lat="45.93303" lon="4.72572">
        <ele>171</ele>
        <time>2016-11-26T09:17:10Z</time>
      </trkpt>
      <trkpt lat="45.93308" lon="4.72567">
        <ele>171</ele>
        <time>2016-11-26T09:17:11Z</time>
      </trkpt>
      <trkpt lat="45.93312" lon="4.72561">
        <ele>171</ele>
        <time>2016-11-26T09:17:12Z</time>
      </trkpt>
      <trkpt lat="45.93317" lon="4.72556">
        <ele>172</ele>
        <time>2016-11-26T09:17:13Z</time>
      </trkpt>
      <trkpt lat="45.93321" lon="4.7255">
        <ele>172</ele>
        <time>2016-11-26T09:17:14Z</time>
      </trkpt>
      <trkpt lat="45.93326" lon="4.72545">
        <ele>172</ele>
        <time>2016-11-26T09:17:15Z</time>
      </trkpt>
      <trkpt lat="45.93331" lon="4.7254">
        <ele>172</ele>
        <time>2016-11-26T09:17:16Z</time>
      </trkpt>
      <trkpt lat="45.93335" lon="4.72535">
        <ele>172</ele>
        <time>2016-11-26T09:17:17Z</time>
      </trkpt>
      <trkpt lat="45.9334" lon="4.7253">
        <ele>172</ele>
        <time>2016-11-26T09:17:18Z</time>
      </trkpt>
      <trkpt lat="45.93344" lon="4.72525">
        <ele>172</ele>
        <time>2016-11-26T09:17:19Z</time>
      </trkpt>
      <trkpt lat="45.93349" lon="4.7252">
        <ele>172</ele>
        <time>2016-11-26T09:17:20Z</time>
      </trkpt>
      <trkpt lat="45.93353" lon="4.72514">
        <ele>172</ele>
        <time>2016-11-26T09:17:21Z</time>
      </trkpt>
      <trkpt lat="45.93358" lon="4.72509">
        <ele>172</ele>
        <time>2016-11-26T09:17:22Z</time>
      </trkpt>
      <trkpt lat="45.93362" lon="4.72504">
        <ele>172</ele>
        <time>2016-11-26T09:17:23Z</time>
      </trkpt>
      <trkpt lat="45.93367" lon="4.72499">
        <ele>173</ele>
        <time>2016-11-26T09:17:24Z</time>
      </trkpt>
      <trkpt lat="45.93372" lon="4.72494">
        <ele>173</ele>
        <time>2016-11-26T09:17:25Z</time>
      </trkpt>
      <trkpt lat="45.93376" lon="4.72489">
        <ele>173</ele>
        <time>2016-11-26T09:17:26Z</time>
      </trkpt>
      <trkpt lat="45.93381" lon="4.72484">
        <ele>173</ele>
        <time>2016-11-26T09:17:27Z</time>
      </trkpt>
      <trkpt lat="45.93385" lon="4.72479">
        <ele>173</ele>
        <time>2016-11-26T09:17:28Z</time>
      </trkpt>
      <trkpt lat="45.93389" lon="4.72474">
        <ele>173</ele>
        <time>2016-11-26T09:17:29Z</time>
      </trkpt>
      <trkpt lat="45.93393" lon="4.72468">
        <ele>173</ele>
        <time>2016-11-26T09:17:30Z</time>
      </trkpt>
      <trkpt lat="45.93396" lon="4.72461">
        <ele>173</ele>
        <time>2016-11-26T09:17:31Z</time>
      </trkpt>
      <trkpt lat="45.93398" lon="4.72454">
        <ele>173</ele>
        <time>2016-11-26T09:17:32Z</time>
      </trkpt>
      <trkpt lat="45.934" lon="4.72447">
        <ele>173</ele>
        <time>2016-11-26T09:17:33Z</time>
      </trkpt>
      <trkpt lat="45.93402" lon="4.7244">
        <ele>173</ele>
        <time>2016-11-26T09:17:34Z</time>
      </trkpt>
      <trkpt lat="45.93405" lon="4.72433">
        <ele>173</ele>
        <time>2016-11-26T09:17:35Z</time>
      </trkpt>
      <trkpt lat="45.93409" lon="4.72426">
        <ele>174</ele>
        <time>2016-11-26T09:17:36Z</time>
      </trkpt>
      <trkpt lat="45.93413" lon="4.72421">
        <ele>174</ele>
        <time>2016-11-26T09:17:37Z</time>
      </trkpt>
      <trkpt lat="45.93418" lon="4.72416">
        <ele>174</ele>
        <time>2016-11-26T09:17:38Z</time>
      </trkpt>
      <trkpt lat="45.93423" lon="4.72413">
        <ele>174</ele>
        <time>2016-11-26T09:17:39Z</time>
      </trkpt>
      <trkpt lat="45.93428" lon="4.7241">
        <ele>174</ele>
        <time>2016-11-26T09:17:40Z</time>
      </trkpt>
      <trkpt lat="45.93433" lon="4.72407">
        <ele>174</ele>
        <time>2016-11-26T09:17:41Z</time>
      </trkpt>
      <trkpt lat="45.93439" lon="4.72404">
        <ele>173</ele>
        <time>2016-11-26T09:17:42Z</time>
      </trkpt>
      <trkpt lat="45.93444" lon="4.72401">
        <ele>173</ele>
        <time>2016-11-26T09:17:43Z</time>
      </trkpt>
      <trkpt lat="45.9345" lon="4.72397">
        <ele>173</ele>
        <time>2016-11-26T09:17:44Z</time>
      </trkpt>
      <trkpt lat="45.93455" lon="4.72393">
        <ele>173</ele>
        <time>2016-11-26T09:17:45Z</time>
      </trkpt>
      <trkpt lat="45.9346" lon="4.72388">
        <ele>173</ele>
        <time>2016-11-26T09:17:46Z</time>
      </trkpt>
      <trkpt lat="45.93465" lon="4.72383">
        <ele>173</ele>
        <time>2016-11-26T09:17:47Z</time>
      </trkpt>
      <trkpt lat="45.93469" lon="4.72378">
        <ele>173</ele>
        <time>2016-11-26T09:17:48Z</time>
      </trkpt>
      <trkpt lat="45.93473" lon="4.72372">
        <ele>173</ele>
        <time>2016-11-26T09:17:49Z</time>
      </trkpt>
      <trkpt lat="45.93477" lon="4.72367">
        <ele>173</ele>
        <time>2016-11-26T09:17:50Z</time>
      </trkpt>
      <trkpt lat="45.93482" lon="4.72361">
        <ele>173</ele>
        <time>2016-11-26T09:17:51Z</time>
      </trkpt>
      <trkpt lat="45.93486" lon="4.72355">
        <ele>173</ele>
        <time>2016-11-26T09:17:52Z</time>
      </trkpt>
      <trkpt lat="45.9349" lon="4.72349">
        <ele>173</ele>
        <time>2016-11-26T09:17:53Z</time>
      </trkpt>
      <trkpt lat="45.93493" lon="4.72343">
        <ele>173</ele>
        <time>2016-11-26T09:17:54Z</time>
      </trkpt>
      <trkpt lat="45.93497" lon="4.72337">
        <ele>173</ele>
        <time>2016-11-26T09:17:55Z</time>
      </trkpt>
      <trkpt lat="45.93501" lon="4.72332">
        <ele>173</ele>
        <time>2016-11-26T09:17:56Z</time>
      </trkpt>
      <trkpt lat="45.93505" lon="4.72326">
        <ele>173</ele>
        <time>2016-11-26T09:17:57Z</time>
      </trkpt>
      <trkpt lat="45.93509" lon="4.7232">
        <ele>173</ele>
        <time>2016-11-26T09:17:58Z</time>
      </trkpt>
      <trkpt lat="45.93512" lon="4.72315">
        <ele>173</ele>
        <time>2016-11-26T09:17:59Z</time>
      </trkpt>
      <trkpt lat="45.93516" lon="4.72309">
        <ele>173</ele>
        <time>2016-11-26T09:18:00Z</time>
      </trkpt>
      <trkpt lat="45.93519" lon="4.72303">
        <ele>173</ele>
        <time>2016-11-26T09:18:01Z</time>
      </trkpt>
      <trkpt lat="45.93522" lon="4.72297">
        <ele>172</ele>
        <time>2016-11-26T09:18:02Z</time>
      </trkpt>
      <trkpt lat="45.93525" lon="4.72291">
        <ele>172</ele>
        <time>2016-11-26T09:18:03Z</time>
      </trkpt>
      <trkpt lat="45.93528" lon="4.72284">
        <ele>172</ele>
        <time>2016-11-26T09:18:04Z</time>
      </trkpt>
      <trkpt lat="45.9353" lon="4.72278">
        <ele>172</ele>
        <time>2016-11-26T09:18:05Z</time>
      </trkpt>
      <trkpt lat="45.93533" lon="4.72271">
        <ele>172</ele>
        <time>2016-11-26T09:18:06Z</time>
      </trkpt>
      <trkpt lat="45.93536" lon="4.72266">
        <ele>172</ele>
        <time>2016-11-26T09:18:07Z</time>
      </trkpt>
      <trkpt lat="45.93538" lon="4.7226">
        <ele>172</ele>
        <time>2016-11-26T09:18:08Z</time>
      </trkpt>
      <trkpt lat="45.93541" lon="4.72254">
        <ele>172</ele>
        <time>2016-11-26T09:18:09Z</time>
      </trkpt>
      <trkpt lat="45.93543" lon="4.72248">
        <ele>172</ele>
        <time>2016-11-26T09:18:10Z</time>
      </trkpt>
      <trkpt lat="45.93545" lon="4.72242">
        <ele>172</ele>
        <time>2016-11-26T09:18:11Z</time>
      </trkpt>
      <trkpt lat="45.93547" lon="4.72236">
        <ele>172</ele>
        <time>2016-11-26T09:18:12Z</time>
      </trkpt>
      <trkpt lat="45.9355" lon="4.72231">
        <ele>172</ele>
        <time>2016-11-26T09:18:13Z</time>
      </trkpt>
      <trkpt lat="45.93554" lon="4.72226">
        <ele>173</ele>
        <time>2016-11-26T09:18:14Z</time>
      </trkpt>
      <trkpt lat="45.93559" lon="4.72224">
        <ele>173</ele>
        <time>2016-11-26T09:18:15Z</time>
      </trkpt>
      <trkpt lat="45.93565" lon="4.72224">
        <ele>173</ele>
        <time>2016-11-26T09:18:16Z</time>
      </trkpt>
      <trkpt lat="45.93569" lon="4.72226">
        <ele>173</ele>
        <time>2016-11-26T09:18:17Z</time>
      </trkpt>
      <trkpt lat="45.93574" lon="4.7223">
        <ele>173</ele>
        <time>2016-11-26T09:18:18Z</time>
      </trkpt>
      <trkpt lat="45.93578" lon="4.72235">
        <ele>173</ele>
        <time>2016-11-26T09:18:19Z</time>
      </trkpt>
      <trkpt lat="45.93582" lon="4.72239">
        <ele>173</ele>
        <time>2016-11-26T09:18:20Z</time>
      </trkpt>
      <trkpt lat="45.93586" lon="4.72243">
        <ele>173</ele>
        <time>2016-11-26T09:18:21Z</time>
      </trkpt>
      <trkpt lat="45.93589" lon="4.72247">
        <ele>173</ele>
        <time>2016-11-26T09:18:22Z</time>
      </trkpt>
      <trkpt lat="45.93593" lon="4.72251">
        <ele>173</ele>
        <time>2016-11-26T09:18:23Z</time>
      </trkpt>
      <trkpt lat="45.93597" lon="4.72255">
        <ele>173</ele>
        <time>2016-11-26T09:18:24Z</time>
      </trkpt>
      <trkpt lat="45.93601" lon="4.72258">
        <ele>173</ele>
        <time>2016-11-26T09:18:25Z</time>
      </trkpt>
      <trkpt lat="45.93605" lon="4.72262">
        <ele>173</ele>
        <time>2016-11-26T09:18:26Z</time>
      </trkpt>
      <trkpt lat="45.9361" lon="4.72266">
        <ele>172</ele>
        <time>2016-11-26T09:18:27Z</time>
      </trkpt>
      <trkpt lat="45.93614" lon="4.7227">
        <ele>172</ele>
        <time>2016-11-26T09:18:28Z</time>
      </trkpt>
      <trkpt lat="45.93618" lon="4.72275">
        <ele>172</ele>
        <time>2016-11-26T09:18:29Z</time>
      </trkpt>
      <trkpt lat="45.93623" lon="4.72279">
        <ele>172</ele>
        <time>2016-11-26T09:18:30Z</time>
      </trkpt>
      <trkpt lat="45.93627" lon="4.72283">
        <ele>172</ele>
        <time>2016-11-26T09:18:31Z</time>
      </trkpt>
      <trkpt lat="45.93631" lon="4.72288">
        <ele>172</ele>
        <time>2016-11-26T09:18:32Z</time>
      </trkpt>
      <trkpt lat="45.93636" lon="4.72292">
        <ele>172</ele>
        <time>2016-11-26T09:18:33Z</time>
      </trkpt>
      <trkpt lat="45.9364" lon="4.72296">
        <ele>172</ele>
        <time>2016-11-26T09:18:34Z</time>
      </trkpt>
      <trkpt lat="45.93644" lon="4.723">
        <ele>172</ele>
        <time>2016-11-26T09:18:35Z</time>
      </trkpt>
      <trkpt lat="45.93649" lon="4.72305">
        <ele>172</ele>
        <time>2016-11-26T09:18:36Z</time>
      </trkpt>
      <trkpt lat="45.93653" lon="4.72309">
        <ele>172</ele>
        <time>2016-11-26T09:18:37Z</time>
      </trkpt>
      <trkpt lat="45.93658" lon="4.72313">
        <ele>172</ele>
        <time>2016-11-26T09:18:38Z</time>
      </trkpt>
      <trkpt lat="45.93662" lon="4.72318">
        <ele>172</ele>
        <time>2016-11-26T09:18:39Z</time>
      </trkpt>
      <trkpt lat="45.93667" lon="4.72322">
        <ele>171</ele>
        <time>2016-11-26T09:18:40Z</time>
      </trkpt>
      <trkpt lat="45.93672" lon="4.72326">
        <ele>171</ele>
        <time>2016-11-26T09:18:41Z</time>
      </trkpt>
      <trkpt lat="45.93676" lon="4.72331">
        <ele>171</ele>
        <time>2016-11-26T09:18:42Z</time>
      </trkpt>
      <trkpt lat="45.93681" lon="4.72335">
        <ele>171</ele>
        <time>2016-11-26T09:18:43Z</time>
      </trkpt>
      <trkpt lat="45.93686" lon="4.7234">
        <ele>171</ele>
        <time>2016-11-26T09:18:44Z</time>
      </trkpt>
      <trkpt lat="45.93691" lon="4.72344">
        <ele>171</ele>
        <time>2016-11-26T09:18:45Z</time>
      </trkpt>
      <trkpt lat="45.93695" lon="4.72347">
        <ele>171</ele>
        <time>2016-11-26T09:18:46Z</time>
      </trkpt>
      <trkpt lat="45.93703" lon="4.72353">
        <ele>171</ele>
        <time>2016-11-26T09:18:48Z</time>
      </trkpt>
      <trkpt lat="45.93707" lon="4.72356">
        <ele>171</ele>
        <time>2016-11-26T09:18:49Z</time>
      </trkpt>
      <trkpt lat="45.93712" lon="4.72356">
        <ele>172</ele>
        <time>2016-11-26T09:18:50Z</time>
      </trkpt>
      <trkpt lat="45.93717" lon="4.72355">
        <ele>172</ele>
        <time>2016-11-26T09:18:51Z</time>
      </trkpt>
      <trkpt lat="45.93721" lon="4.72351">
        <ele>172</ele>
        <time>2016-11-26T09:18:52Z</time>
      </trkpt>
      <trkpt lat="45.93725" lon="4.72347">
        <ele>172</ele>
        <time>2016-11-26T09:18:53Z</time>
      </trkpt>
      <trkpt lat="45.93728" lon="4.72342">
        <ele>172</ele>
        <time>2016-11-26T09:18:54Z</time>
      </trkpt>
      <trkpt lat="45.93732" lon="4.72335">
        <ele>172</ele>
        <time>2016-11-26T09:18:55Z</time>
      </trkpt>
      <trkpt lat="45.93735" lon="4.72329">
        <ele>172</ele>
        <time>2016-11-26T09:18:56Z</time>
      </trkpt>
      <trkpt lat="45.93739" lon="4.72322">
        <ele>172</ele>
        <time>2016-11-26T09:18:57Z</time>
      </trkpt>
      <trkpt lat="45.93743" lon="4.72315">
        <ele>172</ele>
        <time>2016-11-26T09:18:58Z</time>
      </trkpt>
      <trkpt lat="45.93747" lon="4.72309">
        <ele>172</ele>
        <time>2016-11-26T09:18:59Z</time>
      </trkpt>
      <trkpt lat="45.93751" lon="4.72302">
        <ele>172</ele>
        <time>2016-11-26T09:19:00Z</time>
      </trkpt>
      <trkpt lat="45.93754" lon="4.72296">
        <ele>172</ele>
        <time>2016-11-26T09:19:01Z</time>
      </trkpt>
      <trkpt lat="45.93758" lon="4.72289">
        <ele>172</ele>
        <time>2016-11-26T09:19:02Z</time>
      </trkpt>
      <trkpt lat="45.93761" lon="4.72283">
        <ele>172</ele>
        <time>2016-11-26T09:19:03Z</time>
      </trkpt>
      <trkpt lat="45.93765" lon="4.72276">
        <ele>172</ele>
        <time>2016-11-26T09:19:04Z</time>
      </trkpt>
      <trkpt lat="45.93768" lon="4.72269">
        <ele>172</ele>
        <time>2016-11-26T09:19:05Z</time>
      </trkpt>
      <trkpt lat="45.93772" lon="4.72262">
        <ele>172</ele>
        <time>2016-11-26T09:19:06Z</time>
      </trkpt>
      <trkpt lat="45.93775" lon="4.72256">
        <ele>172</ele>
        <time>2016-11-26T09:19:07Z</time>
      </trkpt>
      <trkpt lat="45.93778" lon="4.72249">
        <ele>172</ele>
        <time>2016-11-26T09:19:08Z</time>
      </trkpt>
      <trkpt lat="45.93782" lon="4.72243">
        <ele>172</ele>
        <time>2016-11-26T09:19:09Z</time>
      </trkpt>
      <trkpt lat="45.93785" lon="4.72236">
        <ele>172</ele>
        <time>2016-11-26T09:19:10Z</time>
      </trkpt>
      <trkpt lat="45.93789" lon="4.72231">
        <ele>172</ele>
        <time>2016-11-26T09:19:11Z</time>
      </trkpt>
      <trkpt lat="45.93793" lon="4.72225">
        <ele>172</ele>
        <time>2016-11-26T09:19:12Z</time>
      </trkpt>
      <trkpt lat="45.93797" lon="4.72219">
        <ele>172</ele>
        <time>2016-11-26T09:19:13Z</time>
      </trkpt>
      <trkpt lat="45.93801" lon="4.72213">
        <ele>172</ele>
        <time>2016-11-26T09:19:14Z</time>
      </trkpt>
      <trkpt lat="45.93805" lon="4.72207">
        <ele>172</ele>
        <time>2016-11-26T09:19:15Z</time>
      </trkpt>
      <trkpt lat="45.93808" lon="4.722">
        <ele>172</ele>
        <time>2016-11-26T09:19:16Z</time>
      </trkpt>
      <trkpt lat="45.93811" lon="4.72193">
        <ele>172</ele>
        <time>2016-11-26T09:19:17Z</time>
      </trkpt>
      <trkpt lat="45.93814" lon="4.72185">
        <ele>172</ele>
        <time>2016-11-26T09:19:18Z</time>
      </trkpt>
      <trkpt lat="45.93816" lon="4.72178">
        <ele>172</ele>
        <time>2016-11-26T09:19:19Z</time>
      </trkpt>
      <trkpt lat="45.93819" lon="4.72172">
        <ele>172</ele>
        <time>2016-11-26T09:19:20Z</time>
      </trkpt>
      <trkpt lat="45.93823" lon="4.72168">
        <ele>171</ele>
        <time>2016-11-26T09:19:21Z</time>
      </trkpt>
      <trkpt lat="45.93829" lon="4.72161">
        <ele>172</ele>
        <time>2016-11-26T09:19:23Z</time>
      </trkpt>
      <trkpt lat="45.93831" lon="4.72157">
        <ele>172</ele>
        <time>2016-11-26T09:19:24Z</time>
      </trkpt>
      <trkpt lat="45.93835" lon="4.72148">
        <ele>171</ele>
        <time>2016-11-26T09:19:27Z</time>
      </trkpt>
      <trkpt lat="45.93837" lon="4.72146">
        <ele>171</ele>
        <time>2016-11-26T09:19:28Z</time>
      </trkpt>
      <trkpt lat="45.93842" lon="4.72141">
        <ele>172</ele>
        <time>2016-11-26T09:19:31Z</time>
      </trkpt>
      <trkpt lat="45.93844" lon="4.72138">
        <ele>172</ele>
        <time>2016-11-26T09:19:32Z</time>
      </trkpt>
      <trkpt lat="45.93849" lon="4.72131">
        <ele>172</ele>
        <time>2016-11-26T09:19:34Z</time>
      </trkpt>
      <trkpt lat="45.93852" lon="4.72127">
        <ele>172</ele>
        <time>2016-11-26T09:19:35Z</time>
      </trkpt>
      <trkpt lat="45.93858" lon="4.72118">
        <ele>172</ele>
        <time>2016-11-26T09:19:37Z</time>
      </trkpt>
      <trkpt lat="45.93861" lon="4.72113">
        <ele>172</ele>
        <time>2016-11-26T09:19:38Z</time>
      </trkpt>
      <trkpt lat="45.93866" lon="4.72104">
        <ele>172</ele>
        <time>2016-11-26T09:19:40Z</time>
      </trkpt>
      <trkpt lat="45.93869" lon="4.721">
        <ele>172</ele>
        <time>2016-11-26T09:19:41Z</time>
      </trkpt>
      <trkpt lat="45.93874" lon="4.72093">
        <ele>172</ele>
        <time>2016-11-26T09:19:43Z</time>
      </trkpt>
      <trkpt lat="45.93877" lon="4.72089">
        <ele>172</ele>
        <time>2016-11-26T09:19:44Z</time>
      </trkpt>
      <trkpt lat="45.93883" lon="4.72081">
        <ele>172</ele>
        <time>2016-11-26T09:19:46Z</time>
      </trkpt>
      <trkpt lat="45.93886" lon="4.72077">
        <ele>172</ele>
        <time>2016-11-26T09:19:47Z</time>
      </trkpt>
      <trkpt lat="45.93892" lon="4.72069">
        <ele>172</ele>
        <time>2016-11-26T09:19:49Z</time>
      </trkpt>
      <trkpt lat="45.93895" lon="4.72065">
        <ele>172</ele>
        <time>2016-11-26T09:19:50Z</time>
      </trkpt>
      <trkpt lat="45.93902" lon="4.72058">
        <ele>172</ele>
        <time>2016-11-26T09:19:52Z</time>
      </trkpt>
      <trkpt lat="45.93906" lon="4.72055">
        <ele>172</ele>
        <time>2016-11-26T09:19:53Z</time>
      </trkpt>
      <trkpt lat="45.9391" lon="4.72051">
        <ele>172</ele>
        <time>2016-11-26T09:19:54Z</time>
      </trkpt>
      <trkpt lat="45.93914" lon="4.72047">
        <ele>172</ele>
        <time>2016-11-26T09:19:55Z</time>
      </trkpt>
      <trkpt lat="45.93919" lon="4.72044">
        <ele>172</ele>
        <time>2016-11-26T09:19:56Z</time>
      </trkpt>
      <trkpt lat="45.93923" lon="4.7204">
        <ele>172</ele>
        <time>2016-11-26T09:19:57Z</time>
      </trkpt>
      <trkpt lat="45.93927" lon="4.72036">
        <ele>172</ele>
        <time>2016-11-26T09:19:58Z</time>
      </trkpt>
      <trkpt lat="45.93931" lon="4.7203">
        <ele>172</ele>
        <time>2016-11-26T09:19:59Z</time>
      </trkpt>
      <trkpt lat="45.93935" lon="4.72025">
        <ele>172</ele>
        <time>2016-11-26T09:20:00Z</time>
      </trkpt>
      <trkpt lat="45.93939" lon="4.7202">
        <ele>172</ele>
        <time>2016-11-26T09:20:01Z</time>
      </trkpt>
      <trkpt lat="45.93943" lon="4.72015">
        <ele>172</ele>
        <time>2016-11-26T09:20:02Z</time>
      </trkpt>
      <trkpt lat="45.93947" lon="4.72011">
        <ele>172</ele>
        <time>2016-11-26T09:20:03Z</time>
      </trkpt>
      <trkpt lat="45.93951" lon="4.72006">
        <ele>172</ele>
        <time>2016-11-26T09:20:04Z</time>
      </trkpt>
      <trkpt lat="45.93955" lon="4.72002">
        <ele>172</ele>
        <time>2016-11-26T09:20:05Z</time>
      </trkpt>
      <trkpt lat="45.93959" lon="4.71998">
        <ele>173</ele>
        <time>2016-11-26T09:20:06Z</time>
      </trkpt>
      <trkpt lat="45.93964" lon="4.71994">
        <ele>173</ele>
        <time>2016-11-26T09:20:07Z</time>
      </trkpt>
      <trkpt lat="45.93968" lon="4.7199">
        <ele>173</ele>
        <time>2016-11-26T09:20:08Z</time>
      </trkpt>
      <trkpt lat="45.93972" lon="4.71986">
        <ele>173</ele>
        <time>2016-11-26T09:20:09Z</time>
      </trkpt>
      <trkpt lat="45.93976" lon="4.71981">
        <ele>173</ele>
        <time>2016-11-26T09:20:10Z</time>
      </trkpt>
      <trkpt lat="45.93979" lon="4.71975">
        <ele>173</ele>
        <time>2016-11-26T09:20:11Z</time>
      </trkpt>
      <trkpt lat="45.93983" lon="4.7197">
        <ele>173</ele>
        <time>2016-11-26T09:20:12Z</time>
      </trkpt>
      <trkpt lat="45.93987" lon="4.71966">
        <ele>173</ele>
        <time>2016-11-26T09:20:13Z</time>
      </trkpt>
      <trkpt lat="45.93991" lon="4.71964">
        <ele>173</ele>
        <time>2016-11-26T09:20:14Z</time>
      </trkpt>
      <trkpt lat="45.93996" lon="4.71965">
        <ele>173</ele>
        <time>2016-11-26T09:20:15Z</time>
      </trkpt>
      <trkpt lat="45.94" lon="4.71968">
        <ele>174</ele>
        <time>2016-11-26T09:20:16Z</time>
      </trkpt>
      <trkpt lat="45.94004" lon="4.71972">
        <ele>174</ele>
        <time>2016-11-26T09:20:17Z</time>
      </trkpt>
      <trkpt lat="45.94008" lon="4.71977">
        <ele>174</ele>
        <time>2016-11-26T09:20:18Z</time>
      </trkpt>
      <trkpt lat="45.94011" lon="4.71983">
        <ele>174</ele>
        <time>2016-11-26T09:20:19Z</time>
      </trkpt>
      <trkpt lat="45.94015" lon="4.71989">
        <ele>174</ele>
        <time>2016-11-26T09:20:20Z</time>
      </trkpt>
      <trkpt lat="45.94018" lon="4.71995">
        <ele>174</ele>
        <time>2016-11-26T09:20:21Z</time>
      </trkpt>
      <trkpt lat="45.94022" lon="4.72001">
        <ele>173</ele>
        <time>2016-11-26T09:20:22Z</time>
      </trkpt>
      <trkpt lat="45.94025" lon="4.72007">
        <ele>173</ele>
        <time>2016-11-26T09:20:23Z</time>
      </trkpt>
      <trkpt lat="45.94029" lon="4.72013">
        <ele>173</ele>
        <time>2016-11-26T09:20:24Z</time>
      </trkpt>
      <trkpt lat="45.94032" lon="4.72018">
        <ele>173</ele>
        <time>2016-11-26T09:20:25Z</time>
      </trkpt>
      <trkpt lat="45.94036" lon="4.72024">
        <ele>173</ele>
        <time>2016-11-26T09:20:26Z</time>
      </trkpt>
      <trkpt lat="45.94039" lon="4.72028">
        <ele>173</ele>
        <time>2016-11-26T09:20:27Z</time>
      </trkpt>
      <trkpt lat="45.94043" lon="4.72033">
        <ele>173</ele>
        <time>2016-11-26T09:20:28Z</time>
      </trkpt>
      <trkpt lat="45.94047" lon="4.72037">
        <ele>173</ele>
        <time>2016-11-26T09:20:29Z</time>
      </trkpt>
      <trkpt lat="45.94052" lon="4.72037">
        <ele>173</ele>
        <time>2016-11-26T09:20:30Z</time>
      </trkpt>
      <trkpt lat="45.94057" lon="4.72035">
        <ele>173</ele>
        <time>2016-11-26T09:20:31Z</time>
      </trkpt>
      <trkpt lat="45.94061" lon="4.72031">
        <ele>174</ele>
        <time>2016-11-26T09:20:32Z</time>
      </trkpt>
      <trkpt lat="45.94065" lon="4.72027">
        <ele>174</ele>
        <time>2016-11-26T09:20:33Z</time>
      </trkpt>
      <trkpt lat="45.94069" lon="4.72022">
        <ele>174</ele>
        <time>2016-11-26T09:20:34Z</time>
      </trkpt>
      <trkpt lat="45.94073" lon="4.72017">
        <ele>174</ele>
        <time>2016-11-26T09:20:35Z</time>
      </trkpt>
      <trkpt lat="45.94078" lon="4.72012">
        <ele>174</ele>
        <time>2016-11-26T09:20:36Z</time>
      </trkpt>
      <trkpt lat="45.94082" lon="4.72007">
        <ele>175</ele>
        <time>2016-11-26T09:20:37Z</time>
      </trkpt>
      <trkpt lat="45.94085" lon="4.72002">
        <ele>175</ele>
        <time>2016-11-26T09:20:38Z</time>
      </trkpt>
      <trkpt lat="45.94089" lon="4.71997">
        <ele>175</ele>
        <time>2016-11-26T09:20:39Z</time>
      </trkpt>
      <trkpt lat="45.94093" lon="4.71991">
        <ele>175</ele>
        <time>2016-11-26T09:20:40Z</time>
      </trkpt>
      <trkpt lat="45.94097" lon="4.71986">
        <ele>174</ele>
        <time>2016-11-26T09:20:41Z</time>
      </trkpt>
      <trkpt lat="45.94101" lon="4.71981">
        <ele>174</ele>
        <time>2016-11-26T09:20:42Z</time>
      </trkpt>
      <trkpt lat="45.94105" lon="4.71977">
        <ele>174</ele>
        <time>2016-11-26T09:20:43Z</time>
      </trkpt>
      <trkpt lat="45.94109" lon="4.71972">
        <ele>174</ele>
        <time>2016-11-26T09:20:44Z</time>
      </trkpt>
      <trkpt lat="45.94113" lon="4.71968">
        <ele>174</ele>
        <time>2016-11-26T09:20:45Z</time>
      </trkpt>
      <trkpt lat="45.94118" lon="4.71966">
        <ele>174</ele>
        <time>2016-11-26T09:20:46Z</time>
      </trkpt>
      <trkpt lat="45.94123" lon="4.71965">
        <ele>174</ele>
        <time>2016-11-26T09:20:47Z</time>
      </trkpt>
      <trkpt lat="45.94129" lon="4.71966">
        <ele>174</ele>
        <time>2016-11-26T09:20:48Z</time>
      </trkpt>
      <trkpt lat="45.94133" lon="4.71968">
        <ele>174</ele>
        <time>2016-11-26T09:20:49Z</time>
      </trkpt>
      <trkpt lat="45.94138" lon="4.71972">
        <ele>174</ele>
        <time>2016-11-26T09:20:50Z</time>
      </trkpt>
      <trkpt lat="45.94141" lon="4.71976">
        <ele>174</ele>
        <time>2016-11-26T09:20:51Z</time>
      </trkpt>
      <trkpt lat="45.94144" lon="4.71981">
        <ele>174</ele>
        <time>2016-11-26T09:20:52Z</time>
      </trkpt>
      <trkpt lat="45.94147" lon="4.71987">
        <ele>173</ele>
        <time>2016-11-26T09:20:53Z</time>
      </trkpt>
      <trkpt lat="45.94152" lon="4.71997">
        <ele>173</ele>
        <time>2016-11-26T09:20:55Z</time>
      </trkpt>
      <trkpt lat="45.94154" lon="4.72002">
        <ele>173</ele>
        <time>2016-11-26T09:20:56Z</time>
      </trkpt>
      <trkpt lat="45.94159" lon="4.72012">
        <ele>173</ele>
        <time>2016-11-26T09:20:58Z</time>
      </trkpt>
      <trkpt lat="45.94161" lon="4.72016">
        <ele>173</ele>
        <time>2016-11-26T09:20:59Z</time>
      </trkpt>
      <trkpt lat="45.94165" lon="4.72026">
        <ele>173</ele>
        <time>2016-11-26T09:21:01Z</time>
      </trkpt>
      <trkpt lat="45.94167" lon="4.72031">
        <ele>173</ele>
        <time>2016-11-26T09:21:02Z</time>
      </trkpt>
      <trkpt lat="45.94172" lon="4.7204">
        <ele>173</ele>
        <time>2016-11-26T09:21:04Z</time>
      </trkpt>
      <trkpt lat="45.94174" lon="4.72044">
        <ele>173</ele>
        <time>2016-11-26T09:21:05Z</time>
      </trkpt>
      <trkpt lat="45.94178" lon="4.72053">
        <ele>173</ele>
        <time>2016-11-26T09:21:07Z</time>
      </trkpt>
      <trkpt lat="45.9418" lon="4.72058">
        <ele>173</ele>
        <time>2016-11-26T09:21:08Z</time>
      </trkpt>
      <trkpt lat="45.94185" lon="4.72068">
        <ele>173</ele>
        <time>2016-11-26T09:21:10Z</time>
      </trkpt>
      <trkpt lat="45.94187" lon="4.72072">
        <ele>173</ele>
        <time>2016-11-26T09:21:11Z</time>
      </trkpt>
      <trkpt lat="45.9419" lon="4.72078">
        <ele>173</ele>
        <time>2016-11-26T09:21:12Z</time>
      </trkpt>
      <trkpt lat="45.94193" lon="4.72083">
        <ele>173</ele>
        <time>2016-11-26T09:21:13Z</time>
      </trkpt>
      <trkpt lat="45.94195" lon="4.72089">
        <ele>172</ele>
        <time>2016-11-26T09:21:14Z</time>
      </trkpt>
      <trkpt lat="45.94198" lon="4.72095">
        <ele>172</ele>
        <time>2016-11-26T09:21:15Z</time>
      </trkpt>
      <trkpt lat="45.94201" lon="4.72101">
        <ele>173</ele>
        <time>2016-11-26T09:21:16Z</time>
      </trkpt>
      <trkpt lat="45.94204" lon="4.72108">
        <ele>173</ele>
        <time>2016-11-26T09:21:17Z</time>
      </trkpt>
      <trkpt lat="45.94207" lon="4.72115">
        <ele>173</ele>
        <time>2016-11-26T09:21:18Z</time>
      </trkpt>
      <trkpt lat="45.9421" lon="4.72123">
        <ele>173</ele>
        <time>2016-11-26T09:21:19Z</time>
      </trkpt>
      <trkpt lat="45.94213" lon="4.72131">
        <ele>173</ele>
        <time>2016-11-26T09:21:20Z</time>
      </trkpt>
      <trkpt lat="45.94216" lon="4.72139">
        <ele>173</ele>
        <time>2016-11-26T09:21:21Z</time>
      </trkpt>
      <trkpt lat="45.9422" lon="4.72148">
        <ele>173</ele>
        <time>2016-11-26T09:21:22Z</time>
      </trkpt>
      <trkpt lat="45.94224" lon="4.72157">
        <ele>173</ele>
        <time>2016-11-26T09:21:23Z</time>
      </trkpt>
      <trkpt lat="45.94228" lon="4.72166">
        <ele>173</ele>
        <time>2016-11-26T09:21:24Z</time>
      </trkpt>
      <trkpt lat="45.94232" lon="4.72175">
        <ele>172</ele>
        <time>2016-11-26T09:21:25Z</time>
      </trkpt>
      <trkpt lat="45.94236" lon="4.72185">
        <ele>172</ele>
        <time>2016-11-26T09:21:26Z</time>
      </trkpt>
      <trkpt lat="45.94241" lon="4.72195">
        <ele>172</ele>
        <time>2016-11-26T09:21:27Z</time>
      </trkpt>
      <trkpt lat="45.94245" lon="4.72204">
        <ele>172</ele>
        <time>2016-11-26T09:21:28Z</time>
      </trkpt>
      <trkpt lat="45.94249" lon="4.72214">
        <ele>171</ele>
        <time>2016-11-26T09:21:29Z</time>
      </trkpt>
      <trkpt lat="45.94254" lon="4.72224">
        <ele>172</ele>
        <time>2016-11-26T09:21:30Z</time>
      </trkpt>
      <trkpt lat="45.94257" lon="4.72232">
        <ele>171</ele>
        <time>2016-11-26T09:21:31Z</time>
      </trkpt>
      <trkpt lat="45.94261" lon="4.72241">
        <ele>171</ele>
        <time>2016-11-26T09:21:32Z</time>
      </trkpt>
      <trkpt lat="45.94265" lon="4.72249">
        <ele>171</ele>
        <time>2016-11-26T09:21:33Z</time>
      </trkpt>
      <trkpt lat="45.94268" lon="4.72257">
        <ele>171</ele>
        <time>2016-11-26T09:21:34Z</time>
      </trkpt>
      <trkpt lat="45.94272" lon="4.72265">
        <ele>171</ele>
        <time>2016-11-26T09:21:35Z</time>
      </trkpt>
      <trkpt lat="45.94275" lon="4.72272">
        <ele>171</ele>
        <time>2016-11-26T09:21:36Z</time>
      </trkpt>
      <trkpt lat="45.94278" lon="4.72279">
        <ele>171</ele>
        <time>2016-11-26T09:21:37Z</time>
      </trkpt>
      <trkpt lat="45.94281" lon="4.72287">
        <ele>171</ele>
        <time>2016-11-26T09:21:38Z</time>
      </trkpt>
      <trkpt lat="45.94285" lon="4.72294">
        <ele>171</ele>
        <time>2016-11-26T09:21:39Z</time>
      </trkpt>
      <trkpt lat="45.94288" lon="4.72302">
        <ele>171</ele>
        <time>2016-11-26T09:21:40Z</time>
      </trkpt>
      <trkpt lat="45.94291" lon="4.72309">
        <ele>171</ele>
        <time>2016-11-26T09:21:41Z</time>
      </trkpt>
      <trkpt lat="45.94294" lon="4.72316">
        <ele>171</ele>
        <time>2016-11-26T09:21:42Z</time>
      </trkpt>
      <trkpt lat="45.94297" lon="4.72323">
        <ele>171</ele>
        <time>2016-11-26T09:21:43Z</time>
      </trkpt>
      <trkpt lat="45.943" lon="4.7233">
        <ele>171</ele>
        <time>2016-11-26T09:21:44Z</time>
      </trkpt>
      <trkpt lat="45.94303" lon="4.72337">
        <ele>172</ele>
        <time>2016-11-26T09:21:45Z</time>
      </trkpt>
      <trkpt lat="45.94306" lon="4.72344">
        <ele>172</ele>
        <time>2016-11-26T09:21:46Z</time>
      </trkpt>
      <trkpt lat="45.9431" lon="4.72351">
        <ele>172</ele>
        <time>2016-11-26T09:21:47Z</time>
      </trkpt>
      <trkpt lat="45.94313" lon="4.72358">
        <ele>172</ele>
        <time>2016-11-26T09:21:48Z</time>
      </trkpt>
      <trkpt lat="45.94316" lon="4.72365">
        <ele>172</ele>
        <time>2016-11-26T09:21:49Z</time>
      </trkpt>
      <trkpt lat="45.94319" lon="4.72372">
        <ele>172</ele>
        <time>2016-11-26T09:21:50Z</time>
      </trkpt>
      <trkpt lat="45.94322" lon="4.72378">
        <ele>172</ele>
        <time>2016-11-26T09:21:51Z</time>
      </trkpt>
      <trkpt lat="45.94325" lon="4.72385">
        <ele>172</ele>
        <time>2016-11-26T09:21:52Z</time>
      </trkpt>
      <trkpt lat="45.94328" lon="4.72392">
        <ele>172</ele>
        <time>2016-11-26T09:21:53Z</time>
      </trkpt>
      <trkpt lat="45.94331" lon="4.72399">
        <ele>172</ele>
        <time>2016-11-26T09:21:54Z</time>
      </trkpt>
      <trkpt lat="45.94334" lon="4.72406">
        <ele>173</ele>
        <time>2016-11-26T09:21:55Z</time>
      </trkpt>
      <trkpt lat="45.94336" lon="4.72412">
        <ele>173</ele>
        <time>2016-11-26T09:21:56Z</time>
      </trkpt>
      <trkpt lat="45.9434" lon="4.72419">
        <ele>173</ele>
        <time>2016-11-26T09:21:57Z</time>
      </trkpt>
      <trkpt lat="45.94342" lon="4.72426">
        <ele>173</ele>
        <time>2016-11-26T09:21:58Z</time>
      </trkpt>
      <trkpt lat="45.94345" lon="4.72433">
        <ele>173</ele>
        <time>2016-11-26T09:21:59Z</time>
      </trkpt>
      <trkpt lat="45.94348" lon="4.7244">
        <ele>173</ele>
        <time>2016-11-26T09:22:00Z</time>
      </trkpt>
      <trkpt lat="45.94351" lon="4.72446">
        <ele>173</ele>
        <time>2016-11-26T09:22:01Z</time>
      </trkpt>
      <trkpt lat="45.94354" lon="4.72453">
        <ele>173</ele>
        <time>2016-11-26T09:22:02Z</time>
      </trkpt>
      <trkpt lat="45.94358" lon="4.72459">
        <ele>173</ele>
        <time>2016-11-26T09:22:03Z</time>
      </trkpt>
      <trkpt lat="45.94361" lon="4.72467">
        <ele>173</ele>
        <time>2016-11-26T09:22:04Z</time>
      </trkpt>
      <trkpt lat="45.94364" lon="4.72473">
        <ele>173</ele>
        <time>2016-11-26T09:22:05Z</time>
      </trkpt>
      <trkpt lat="45.94367" lon="4.7248">
        <ele>173</ele>
        <time>2016-11-26T09:22:06Z</time>
      </trkpt>
      <trkpt lat="45.9437" lon="4.72486">
        <ele>173</ele>
        <time>2016-11-26T09:22:07Z</time>
      </trkpt>
      <trkpt lat="45.94372" lon="4.72493">
        <ele>173</ele>
        <time>2016-11-26T09:22:08Z</time>
      </trkpt>
      <trkpt lat="45.94375" lon="4.72501">
        <ele>173</ele>
        <time>2016-11-26T09:22:09Z</time>
      </trkpt>
      <trkpt lat="45.94377" lon="4.72508">
        <ele>174</ele>
        <time>2016-11-26T09:22:10Z</time>
      </trkpt>
      <trkpt lat="45.94379" lon="4.72515">
        <ele>174</ele>
        <time>2016-11-26T09:22:11Z</time>
      </trkpt>
      <trkpt lat="45.94382" lon="4.72523">
        <ele>174</ele>
        <time>2016-11-26T09:22:12Z</time>
      </trkpt>
      <trkpt lat="45.94384" lon="4.7253">
        <ele>174</ele>
        <time>2016-11-26T09:22:13Z</time>
      </trkpt>
      <trkpt lat="45.94386" lon="4.72538">
        <ele>174</ele>
        <time>2016-11-26T09:22:14Z</time>
      </trkpt>
      <trkpt lat="45.94388" lon="4.72546">
        <ele>173</ele>
        <time>2016-11-26T09:22:15Z</time>
      </trkpt>
      <trkpt lat="45.94389" lon="4.72553">
        <ele>173</ele>
        <time>2016-11-26T09:22:16Z</time>
      </trkpt>
      <trkpt lat="45.9439" lon="4.72561">
        <ele>173</ele>
        <time>2016-11-26T09:22:17Z</time>
      </trkpt>
      <trkpt lat="45.94392" lon="4.72568">
        <ele>173</ele>
        <time>2016-11-26T09:22:18Z</time>
      </trkpt>
      <trkpt lat="45.94393" lon="4.72576">
        <ele>173</ele>
        <time>2016-11-26T09:22:19Z</time>
      </trkpt>
      <trkpt lat="45.94395" lon="4.72584">
        <ele>173</ele>
        <time>2016-11-26T09:22:20Z</time>
      </trkpt>
      <trkpt lat="45.94396" lon="4.72591">
        <ele>173</ele>
        <time>2016-11-26T09:22:21Z</time>
      </trkpt>
      <trkpt lat="45.94397" lon="4.72599">
        <ele>173</ele>
        <time>2016-11-26T09:22:22Z</time>
      </trkpt>
      <trkpt lat="45.94398" lon="4.72607">
        <ele>173</ele>
        <time>2016-11-26T09:22:23Z</time>
      </trkpt>
      <trkpt lat="45.94399" lon="4.72614">
        <ele>173</ele>
        <time>2016-11-26T09:22:24Z</time>
      </trkpt>
      <trkpt lat="45.944" lon="4.72622">
        <ele>173</ele>
        <time>2016-11-26T09:22:25Z</time>
      </trkpt>
      <trkpt lat="45.94401" lon="4.72629">
        <ele>174</ele>
        <time>2016-11-26T09:22:26Z</time>
      </trkpt>
      <trkpt lat="45.94402" lon="4.72636">
        <ele>174</ele>
        <time>2016-11-26T09:22:27Z</time>
      </trkpt>
      <trkpt lat="45.94403" lon="4.72644">
        <ele>174</ele>
        <time>2016-11-26T09:22:28Z</time>
      </trkpt>
      <trkpt lat="45.94404" lon="4.72651">
        <ele>174</ele>
        <time>2016-11-26T09:22:29Z</time>
      </trkpt>
      <trkpt lat="45.94405" lon="4.72659">
        <ele>174</ele>
        <time>2016-11-26T09:22:30Z</time>
      </trkpt>
      <trkpt lat="45.94406" lon="4.72666">
        <ele>174</ele>
        <time>2016-11-26T09:22:31Z</time>
      </trkpt>
      <trkpt lat="45.94406" lon="4.72674">
        <ele>173</ele>
        <time>2016-11-26T09:22:32Z</time>
      </trkpt>
      <trkpt lat="45.94407" lon="4.72681">
        <ele>173</ele>
        <time>2016-11-26T09:22:33Z</time>
      </trkpt>
      <trkpt lat="45.94408" lon="4.72689">
        <ele>173</ele>
        <time>2016-11-26T09:22:34Z</time>
      </trkpt>
      <trkpt lat="45.94409" lon="4.72696">
        <ele>173</ele>
        <time>2016-11-26T09:22:35Z</time>
      </trkpt>
      <trkpt lat="45.9441" lon="4.72704">
        <ele>172</ele>
        <time>2016-11-26T09:22:36Z</time>
      </trkpt>
      <trkpt lat="45.94411" lon="4.72712">
        <ele>172</ele>
        <time>2016-11-26T09:22:37Z</time>
      </trkpt>
      <trkpt lat="45.94412" lon="4.7272">
        <ele>172</ele>
        <time>2016-11-26T09:22:38Z</time>
      </trkpt>
      <trkpt lat="45.94413" lon="4.72728">
        <ele>172</ele>
        <time>2016-11-26T09:22:39Z</time>
      </trkpt>
      <trkpt lat="45.94415" lon="4.72736">
        <ele>171</ele>
        <time>2016-11-26T09:22:40Z</time>
      </trkpt>
      <trkpt lat="45.94416" lon="4.72744">
        <ele>171</ele>
        <time>2016-11-26T09:22:41Z</time>
      </trkpt>
      <trkpt lat="45.94417" lon="4.72752">
        <ele>171</ele>
        <time>2016-11-26T09:22:42Z</time>
      </trkpt>
      <trkpt lat="45.94418" lon="4.7276">
        <ele>170</ele>
        <time>2016-11-26T09:22:43Z</time>
      </trkpt>
      <trkpt lat="45.94419" lon="4.72767">
        <ele>169</ele>
        <time>2016-11-26T09:22:44Z</time>
      </trkpt>
      <trkpt lat="45.9442" lon="4.72775">
        <ele>169</ele>
        <time>2016-11-26T09:22:45Z</time>
      </trkpt>
      <trkpt lat="45.94421" lon="4.72782">
        <ele>168</ele>
        <time>2016-11-26T09:22:46Z</time>
      </trkpt>
      <trkpt lat="45.94422" lon="4.72789">
        <ele>168</ele>
        <time>2016-11-26T09:22:47Z</time>
      </trkpt>
      <trkpt lat="45.94423" lon="4.72795">
        <ele>168</ele>
        <time>2016-11-26T09:22:48Z</time>
      </trkpt>
      <trkpt lat="45.94425" lon="4.72802">
        <ele>167</ele>
        <time>2016-11-26T09:22:49Z</time>
      </trkpt>
      <trkpt lat="45.94426" lon="4.72809">
        <ele>167</ele>
        <time>2016-11-26T09:22:50Z</time>
      </trkpt>
      <trkpt lat="45.94427" lon="4.72816">
        <ele>167</ele>
        <time>2016-11-26T09:22:51Z</time>
      </trkpt>
      <trkpt lat="45.94427" lon="4.72823">
        <ele>167</ele>
        <time>2016-11-26T09:22:52Z</time>
      </trkpt>
      <trkpt lat="45.94428" lon="4.7283">
        <ele>166</ele>
        <time>2016-11-26T09:22:53Z</time>
      </trkpt>
      <trkpt lat="45.94428" lon="4.72837">
        <ele>166</ele>
        <time>2016-11-26T09:22:54Z</time>
      </trkpt>
      <trkpt lat="45.94429" lon="4.72844">
        <ele>166</ele>
        <time>2016-11-26T09:22:55Z</time>
      </trkpt>
      <trkpt lat="45.9443" lon="4.72851">
        <ele>166</ele>
        <time>2016-11-26T09:22:56Z</time>
      </trkpt>
      <trkpt lat="45.9443" lon="4.72858">
        <ele>166</ele>
        <time>2016-11-26T09:22:57Z</time>
      </trkpt>
      <trkpt lat="45.94431" lon="4.72865">
        <ele>166</ele>
        <time>2016-11-26T09:22:58Z</time>
      </trkpt>
      <trkpt lat="45.94432" lon="4.72871">
        <ele>166</ele>
        <time>2016-11-26T09:22:59Z</time>
      </trkpt>
      <trkpt lat="45.94434" lon="4.72884">
        <ele>166</ele>
        <time>2016-11-26T09:23:01Z</time>
      </trkpt>
      <trkpt lat="45.94435" lon="4.7289">
        <ele>166</ele>
        <time>2016-11-26T09:23:02Z</time>
      </trkpt>
      <trkpt lat="45.94436" lon="4.72896">
        <ele>166</ele>
        <time>2016-11-26T09:23:03Z</time>
      </trkpt>
      <trkpt lat="45.94437" lon="4.72902">
        <ele>166</ele>
        <time>2016-11-26T09:23:04Z</time>
      </trkpt>
      <trkpt lat="45.94438" lon="4.72909">
        <ele>166</ele>
        <time>2016-11-26T09:23:05Z</time>
      </trkpt>
      <trkpt lat="45.94439" lon="4.72916">
        <ele>166</ele>
        <time>2016-11-26T09:23:06Z</time>
      </trkpt>
      <trkpt lat="45.9444" lon="4.72923">
        <ele>167</ele>
        <time>2016-11-26T09:23:07Z</time>
      </trkpt>
      <trkpt lat="45.94441" lon="4.7293">
        <ele>167</ele>
        <time>2016-11-26T09:23:08Z</time>
      </trkpt>
      <trkpt lat="45.94442" lon="4.72937">
        <ele>167</ele>
        <time>2016-11-26T09:23:09Z</time>
      </trkpt>
      <trkpt lat="45.94443" lon="4.72945">
        <ele>167</ele>
        <time>2016-11-26T09:23:10Z</time>
      </trkpt>
      <trkpt lat="45.94444" lon="4.72953">
        <ele>167</ele>
        <time>2016-11-26T09:23:11Z</time>
      </trkpt>
      <trkpt lat="45.94445" lon="4.72962">
        <ele>167</ele>
        <time>2016-11-26T09:23:12Z</time>
      </trkpt>
      <trkpt lat="45.94446" lon="4.7297">
        <ele>167</ele>
        <time>2016-11-26T09:23:13Z</time>
      </trkpt>
      <trkpt lat="45.94447" lon="4.72979">
        <ele>167</ele>
        <time>2016-11-26T09:23:14Z</time>
      </trkpt>
      <trkpt lat="45.94448" lon="4.72988">
        <ele>167</ele>
        <time>2016-11-26T09:23:15Z</time>
      </trkpt>
      <trkpt lat="45.94449" lon="4.72997">
        <ele>167</ele>
        <time>2016-11-26T09:23:16Z</time>
      </trkpt>
      <trkpt lat="45.94451" lon="4.73007">
        <ele>169</ele>
        <time>2016-11-26T09:23:17Z</time>
      </trkpt>
      <trkpt lat="45.94452" lon="4.73017">
        <ele>169</ele>
        <time>2016-11-26T09:23:18Z</time>
      </trkpt>
      <trkpt lat="45.94453" lon="4.73027">
        <ele>169</ele>
        <time>2016-11-26T09:23:19Z</time>
      </trkpt>
      <trkpt lat="45.94455" lon="4.73037">
        <ele>169</ele>
        <time>2016-11-26T09:23:20Z</time>
      </trkpt>
      <trkpt lat="45.94456" lon="4.73047">
        <ele>170</ele>
        <time>2016-11-26T09:23:21Z</time>
      </trkpt>
      <trkpt lat="45.94457" lon="4.73057">
        <ele>170</ele>
        <time>2016-11-26T09:23:22Z</time>
      </trkpt>
      <trkpt lat="45.94459" lon="4.73068">
        <ele>170</ele>
        <time>2016-11-26T09:23:23Z</time>
      </trkpt>
      <trkpt lat="45.9446" lon="4.73078">
        <ele>170</ele>
        <time>2016-11-26T09:23:24Z</time>
      </trkpt>
      <trkpt lat="45.94461" lon="4.73088">
        <ele>171</ele>
        <time>2016-11-26T09:23:25Z</time>
      </trkpt>
      <trkpt lat="45.94462" lon="4.73097">
        <ele>171</ele>
        <time>2016-11-26T09:23:26Z</time>
      </trkpt>
      <trkpt lat="45.94463" lon="4.73107">
        <ele>172</ele>
        <time>2016-11-26T09:23:27Z</time>
      </trkpt>
      <trkpt lat="45.94464" lon="4.73115">
        <ele>172</ele>
        <time>2016-11-26T09:23:28Z</time>
      </trkpt>
      <trkpt lat="45.94465" lon="4.73124">
        <ele>172</ele>
        <time>2016-11-26T09:23:29Z</time>
      </trkpt>
      <trkpt lat="45.94467" lon="4.73132">
        <ele>172</ele>
        <time>2016-11-26T09:23:30Z</time>
      </trkpt>
      <trkpt lat="45.94468" lon="4.73139">
        <ele>172</ele>
        <time>2016-11-26T09:23:31Z</time>
      </trkpt>
      <trkpt lat="45.94469" lon="4.73147">
        <ele>172</ele>
        <time>2016-11-26T09:23:32Z</time>
      </trkpt>
      <trkpt lat="45.9447" lon="4.73154">
        <ele>172</ele>
        <time>2016-11-26T09:23:33Z</time>
      </trkpt>
      <trkpt lat="45.94471" lon="4.73162">
        <ele>172</ele>
        <time>2016-11-26T09:23:34Z</time>
      </trkpt>
      <trkpt lat="45.94471" lon="4.73169">
        <ele>174</ele>
        <time>2016-11-26T09:23:35Z</time>
      </trkpt>
      <trkpt lat="45.94472" lon="4.73177">
        <ele>174</ele>
        <time>2016-11-26T09:23:36Z</time>
      </trkpt>
      <trkpt lat="45.94473" lon="4.73185">
        <ele>174</ele>
        <time>2016-11-26T09:23:37Z</time>
      </trkpt>
      <trkpt lat="45.94474" lon="4.73193">
        <ele>174</ele>
        <time>2016-11-26T09:23:38Z</time>
      </trkpt>
      <trkpt lat="45.94475" lon="4.732">
        <ele>174</ele>
        <time>2016-11-26T09:23:39Z</time>
      </trkpt>
      <trkpt lat="45.94476" lon="4.73208">
        <ele>175</ele>
        <time>2016-11-26T09:23:40Z</time>
      </trkpt>
      <trkpt lat="45.94477" lon="4.73215">
        <ele>175</ele>
        <time>2016-11-26T09:23:41Z</time>
      </trkpt>
      <trkpt lat="45.94479" lon="4.73222">
        <ele>175</ele>
        <time>2016-11-26T09:23:42Z</time>
      </trkpt>
      <trkpt lat="45.9448" lon="4.73229">
        <ele>175</ele>
        <time>2016-11-26T09:23:43Z</time>
      </trkpt>
      <trkpt lat="45.94481" lon="4.73235">
        <ele>175</ele>
        <time>2016-11-26T09:23:44Z</time>
      </trkpt>
      <trkpt lat="45.94482" lon="4.73241">
        <ele>175</ele>
        <time>2016-11-26T09:23:45Z</time>
      </trkpt>
      <trkpt lat="45.94482" lon="4.73248">
        <ele>175</ele>
        <time>2016-11-26T09:23:46Z</time>
      </trkpt>
      <trkpt lat="45.94483" lon="4.73255">
        <ele>176</ele>
        <time>2016-11-26T09:23:47Z</time>
      </trkpt>
      <trkpt lat="45.94483" lon="4.73262">
        <ele>177</ele>
        <time>2016-11-26T09:23:48Z</time>
      </trkpt>
      <trkpt lat="45.94485" lon="4.73268">
        <ele>177</ele>
        <time>2016-11-26T09:23:49Z</time>
      </trkpt>
      <trkpt lat="45.94486" lon="4.73275">
        <ele>177</ele>
        <time>2016-11-26T09:23:50Z</time>
      </trkpt>
      <trkpt lat="45.94487" lon="4.73282">
        <ele>177</ele>
        <time>2016-11-26T09:23:51Z</time>
      </trkpt>
      <trkpt lat="45.94487" lon="4.73289">
        <ele>177</ele>
        <time>2016-11-26T09:23:52Z</time>
      </trkpt>
      <trkpt lat="45.94489" lon="4.73296">
        <ele>177</ele>
        <time>2016-11-26T09:23:53Z</time>
      </trkpt>
      <trkpt lat="45.9449" lon="4.73302">
        <ele>177</ele>
        <time>2016-11-26T09:23:54Z</time>
      </trkpt>
      <trkpt lat="45.9449" lon="4.73309">
        <ele>177</ele>
        <time>2016-11-26T09:23:55Z</time>
      </trkpt>
      <trkpt lat="45.94491" lon="4.73316">
        <ele>177</ele>
        <time>2016-11-26T09:23:56Z</time>
      </trkpt>
      <trkpt lat="45.94493" lon="4.73328">
        <ele>177</ele>
        <time>2016-11-26T09:23:58Z</time>
      </trkpt>
      <trkpt lat="45.94493" lon="4.73334">
        <ele>178</ele>
        <time>2016-11-26T09:23:59Z</time>
      </trkpt>
      <trkpt lat="45.94495" lon="4.73346">
        <ele>178</ele>
        <time>2016-11-26T09:24:01Z</time>
      </trkpt>
      <trkpt lat="45.94495" lon="4.73352">
        <ele>178</ele>
        <time>2016-11-26T09:24:02Z</time>
      </trkpt>
      <trkpt lat="45.94496" lon="4.73365">
        <ele>179</ele>
        <time>2016-11-26T09:24:04Z</time>
      </trkpt>
      <trkpt lat="45.94497" lon="4.73371">
        <ele>179</ele>
        <time>2016-11-26T09:24:05Z</time>
      </trkpt>
      <trkpt lat="45.94498" lon="4.73384">
        <ele>179</ele>
        <time>2016-11-26T09:24:07Z</time>
      </trkpt>
      <trkpt lat="45.94499" lon="4.7339">
        <ele>179</ele>
        <time>2016-11-26T09:24:08Z</time>
      </trkpt>
      <trkpt lat="45.945" lon="4.73403">
        <ele>180</ele>
        <time>2016-11-26T09:24:10Z</time>
      </trkpt>
      <trkpt lat="45.945" lon="4.73409">
        <ele>180</ele>
        <time>2016-11-26T09:24:11Z</time>
      </trkpt>
      <trkpt lat="45.945" lon="4.73422">
        <ele>180</ele>
        <time>2016-11-26T09:24:13Z</time>
      </trkpt>
      <trkpt lat="45.945" lon="4.73428">
        <ele>180</ele>
        <time>2016-11-26T09:24:14Z</time>
      </trkpt>
      <trkpt lat="45.94501" lon="4.73439">
        <ele>181</ele>
        <time>2016-11-26T09:24:16Z</time>
      </trkpt>
      <trkpt lat="45.94501" lon="4.73445">
        <ele>181</ele>
        <time>2016-11-26T09:24:17Z</time>
      </trkpt>
      <trkpt lat="45.945" lon="4.73456">
        <ele>181</ele>
        <time>2016-11-26T09:24:19Z</time>
      </trkpt>
      <trkpt lat="45.945" lon="4.73461">
        <ele>181</ele>
        <time>2016-11-26T09:24:20Z</time>
      </trkpt>
      <trkpt lat="45.94501" lon="4.73473">
        <ele>182</ele>
        <time>2016-11-26T09:24:22Z</time>
      </trkpt>
      <trkpt lat="45.94502" lon="4.73479">
        <ele>182</ele>
        <time>2016-11-26T09:24:23Z</time>
      </trkpt>
      <trkpt lat="45.94502" lon="4.73492">
        <ele>182</ele>
        <time>2016-11-26T09:24:25Z</time>
      </trkpt>
      <trkpt lat="45.94502" lon="4.73498">
        <ele>183</ele>
        <time>2016-11-26T09:24:26Z</time>
      </trkpt>
      <trkpt lat="45.94501" lon="4.73511">
        <ele>183</ele>
        <time>2016-11-26T09:24:28Z</time>
      </trkpt>
      <trkpt lat="45.94501" lon="4.73516">
        <ele>183</ele>
        <time>2016-11-26T09:24:29Z</time>
      </trkpt>
      <trkpt lat="45.94501" lon="4.73528">
        <ele>183</ele>
        <time>2016-11-26T09:24:31Z</time>
      </trkpt>
      <trkpt lat="45.94501" lon="4.73533">
        <ele>183</ele>
        <time>2016-11-26T09:24:32Z</time>
      </trkpt>
      <trkpt lat="45.945" lon="4.73544">
        <ele>185</ele>
        <time>2016-11-26T09:24:34Z</time>
      </trkpt>
      <trkpt lat="45.945" lon="4.7355">
        <ele>185</ele>
        <time>2016-11-26T09:24:35Z</time>
      </trkpt>
      <trkpt lat="45.94499" lon="4.73561">
        <ele>185</ele>
        <time>2016-11-26T09:24:37Z</time>
      </trkpt>
      <trkpt lat="45.94498" lon="4.73566">
        <ele>185</ele>
        <time>2016-11-26T09:24:38Z</time>
      </trkpt>
      <trkpt lat="45.94497" lon="4.73577">
        <ele>185</ele>
        <time>2016-11-26T09:24:40Z</time>
      </trkpt>
      <trkpt lat="45.94497" lon="4.73583">
        <ele>185</ele>
        <time>2016-11-26T09:24:41Z</time>
      </trkpt>
      <trkpt lat="45.94498" lon="4.73595">
        <ele>185</ele>
        <time>2016-11-26T09:24:43Z</time>
      </trkpt>
      <trkpt lat="45.94498" lon="4.73601">
        <ele>185</ele>
        <time>2016-11-26T09:24:44Z</time>
      </trkpt>
      <trkpt lat="45.94497" lon="4.73613">
        <ele>186</ele>
        <time>2016-11-26T09:24:46Z</time>
      </trkpt>
      <trkpt lat="45.94496" lon="4.7362">
        <ele>186</ele>
        <time>2016-11-26T09:24:47Z</time>
      </trkpt>
      <trkpt lat="45.94495" lon="4.73632">
        <ele>186</ele>
        <time>2016-11-26T09:24:49Z</time>
      </trkpt>
      <trkpt lat="45.94494" lon="4.73638">
        <ele>186</ele>
        <time>2016-11-26T09:24:50Z</time>
      </trkpt>
      <trkpt lat="45.94493" lon="4.73644">
        <ele>186</ele>
        <time>2016-11-26T09:24:51Z</time>
      </trkpt>
      <trkpt lat="45.94492" lon="4.7365">
        <ele>185</ele>
        <time>2016-11-26T09:24:52Z</time>
      </trkpt>
      <trkpt lat="45.94489" lon="4.73662">
        <ele>185</ele>
        <time>2016-11-26T09:24:54Z</time>
      </trkpt>
      <trkpt lat="45.94488" lon="4.73669">
        <ele>185</ele>
        <time>2016-11-26T09:24:55Z</time>
      </trkpt>
      <trkpt lat="45.94487" lon="4.73681">
        <ele>186</ele>
        <time>2016-11-26T09:24:57Z</time>
      </trkpt>
      <trkpt lat="45.94486" lon="4.73688">
        <ele>186</ele>
        <time>2016-11-26T09:24:58Z</time>
      </trkpt>
      <trkpt lat="45.94485" lon="4.737">
        <ele>186</ele>
        <time>2016-11-26T09:25:00Z</time>
      </trkpt>
      <trkpt lat="45.94485" lon="4.73707">
        <ele>186</ele>
        <time>2016-11-26T09:25:01Z</time>
      </trkpt>
      <trkpt lat="45.94484" lon="4.73714">
        <ele>186</ele>
        <time>2016-11-26T09:25:02Z</time>
      </trkpt>
      <trkpt lat="45.94483" lon="4.7372">
        <ele>186</ele>
        <time>2016-11-26T09:25:03Z</time>
      </trkpt>
      <trkpt lat="45.94482" lon="4.73726">
        <ele>186</ele>
        <time>2016-11-26T09:25:04Z</time>
      </trkpt>
      <trkpt lat="45.94481" lon="4.73733">
        <ele>186</ele>
        <time>2016-11-26T09:25:05Z</time>
      </trkpt>
      <trkpt lat="45.94481" lon="4.73739">
        <ele>186</ele>
        <time>2016-11-26T09:25:06Z</time>
      </trkpt>
      <trkpt lat="45.94479" lon="4.73746">
        <ele>186</ele>
        <time>2016-11-26T09:25:07Z</time>
      </trkpt>
      <trkpt lat="45.94477" lon="4.73758">
        <ele>186</ele>
        <time>2016-11-26T09:25:09Z</time>
      </trkpt>
      <trkpt lat="45.94477" lon="4.73764">
        <ele>186</ele>
        <time>2016-11-26T09:25:10Z</time>
      </trkpt>
      <trkpt lat="45.94482" lon="4.73775">
        <ele>186</ele>
        <time>2016-11-26T09:25:12Z</time>
      </trkpt>
      <trkpt lat="45.94486" lon="4.73779">
        <ele>186</ele>
        <time>2016-11-26T09:25:13Z</time>
      </trkpt>
      <trkpt lat="45.9449" lon="4.73782">
        <ele>186</ele>
        <time>2016-11-26T09:25:14Z</time>
      </trkpt>
      <trkpt lat="45.94494" lon="4.73786">
        <ele>186</ele>
        <time>2016-11-26T09:25:15Z</time>
      </trkpt>
      <trkpt lat="45.94498" lon="4.73789">
        <ele>186</ele>
        <time>2016-11-26T09:25:16Z</time>
      </trkpt>
      <trkpt lat="45.94502" lon="4.73793">
        <ele>186</ele>
        <time>2016-11-26T09:25:17Z</time>
      </trkpt>
      <trkpt lat="45.94506" lon="4.73796">
        <ele>186</ele>
        <time>2016-11-26T09:25:18Z</time>
      </trkpt>
      <trkpt lat="45.9451" lon="4.738">
        <ele>186</ele>
        <time>2016-11-26T09:25:19Z</time>
      </trkpt>
      <trkpt lat="45.94514" lon="4.73804">
        <ele>186</ele>
        <time>2016-11-26T09:25:20Z</time>
      </trkpt>
      <trkpt lat="45.94518" lon="4.73808">
        <ele>186</ele>
        <time>2016-11-26T09:25:21Z</time>
      </trkpt>
      <trkpt lat="45.94522" lon="4.73811">
        <ele>186</ele>
        <time>2016-11-26T09:25:22Z</time>
      </trkpt>
      <trkpt lat="45.94526" lon="4.73815">
        <ele>186</ele>
        <time>2016-11-26T09:25:23Z</time>
      </trkpt>
      <trkpt lat="45.9453" lon="4.73818">
        <ele>186</ele>
        <time>2016-11-26T09:25:24Z</time>
      </trkpt>
      <trkpt lat="45.94534" lon="4.73822">
        <ele>186</ele>
        <time>2016-11-26T09:25:25Z</time>
      </trkpt>
      <trkpt lat="45.94541" lon="4.73829">
        <ele>186</ele>
        <time>2016-11-26T09:25:27Z</time>
      </trkpt>
      <trkpt lat="45.94545" lon="4.73833">
        <ele>186</ele>
        <time>2016-11-26T09:25:28Z</time>
      </trkpt>
      <trkpt lat="45.94548" lon="4.73836">
        <ele>186</ele>
        <time>2016-11-26T09:25:29Z</time>
      </trkpt>
      <trkpt lat="45.94552" lon="4.7384">
        <ele>186</ele>
        <time>2016-11-26T09:25:30Z</time>
      </trkpt>
      <trkpt lat="45.94556" lon="4.73844">
        <ele>186</ele>
        <time>2016-11-26T09:25:31Z</time>
      </trkpt>
      <trkpt lat="45.9456" lon="4.73848">
        <ele>186</ele>
        <time>2016-11-26T09:25:32Z</time>
      </trkpt>
      <trkpt lat="45.94564" lon="4.73852">
        <ele>186</ele>
        <time>2016-11-26T09:25:33Z</time>
      </trkpt>
      <trkpt lat="45.94568" lon="4.73857">
        <ele>186</ele>
        <time>2016-11-26T09:25:34Z</time>
      </trkpt>
      <trkpt lat="45.94572" lon="4.73861">
        <ele>186</ele>
        <time>2016-11-26T09:25:35Z</time>
      </trkpt>
      <trkpt lat="45.94576" lon="4.73865">
        <ele>186</ele>
        <time>2016-11-26T09:25:36Z</time>
      </trkpt>
      <trkpt lat="45.94583" lon="4.73872">
        <ele>186</ele>
        <time>2016-11-26T09:25:38Z</time>
      </trkpt>
      <trkpt lat="45.94587" lon="4.73876">
        <ele>187</ele>
        <time>2016-11-26T09:25:39Z</time>
      </trkpt>
      <trkpt lat="45.9459" lon="4.7388">
        <ele>187</ele>
        <time>2016-11-26T09:25:40Z</time>
      </trkpt>
      <trkpt lat="45.94594" lon="4.73884">
        <ele>187</ele>
        <time>2016-11-26T09:25:41Z</time>
      </trkpt>
      <trkpt lat="45.94597" lon="4.73889">
        <ele>187</ele>
        <time>2016-11-26T09:25:42Z</time>
      </trkpt>
      <trkpt lat="45.94601" lon="4.73892">
        <ele>187</ele>
        <time>2016-11-26T09:25:43Z</time>
      </trkpt>
      <trkpt lat="45.94605" lon="4.73896">
        <ele>187</ele>
        <time>2016-11-26T09:25:44Z</time>
      </trkpt>
      <trkpt lat="45.94608" lon="4.73901">
        <ele>187</ele>
        <time>2016-11-26T09:25:45Z</time>
      </trkpt>
      <trkpt lat="45.94615" lon="4.73909">
        <ele>187</ele>
        <time>2016-11-26T09:25:47Z</time>
      </trkpt>
      <trkpt lat="45.94618" lon="4.73913">
        <ele>187</ele>
        <time>2016-11-26T09:25:48Z</time>
      </trkpt>
      <trkpt lat="45.94622" lon="4.73918">
        <ele>187</ele>
        <time>2016-11-26T09:25:49Z</time>
      </trkpt>
      <trkpt lat="45.94625" lon="4.73922">
        <ele>187</ele>
        <time>2016-11-26T09:25:50Z</time>
      </trkpt>
      <trkpt lat="45.94632" lon="4.73931">
        <ele>187</ele>
        <time>2016-11-26T09:25:52Z</time>
      </trkpt>
      <trkpt lat="45.94635" lon="4.73935">
        <ele>187</ele>
        <time>2016-11-26T09:25:53Z</time>
      </trkpt>
      <trkpt lat="45.94642" lon="4.73944">
        <ele>187</ele>
        <time>2016-11-26T09:25:55Z</time>
      </trkpt>
      <trkpt lat="45.94645" lon="4.73949">
        <ele>187</ele>
        <time>2016-11-26T09:25:56Z</time>
      </trkpt>
      <trkpt lat="45.94651" lon="4.73957">
        <ele>187</ele>
        <time>2016-11-26T09:25:58Z</time>
      </trkpt>
      <trkpt lat="45.94655" lon="4.73962">
        <ele>187</ele>
        <time>2016-11-26T09:25:59Z</time>
      </trkpt>
      <trkpt lat="45.94658" lon="4.73966">
        <ele>187</ele>
        <time>2016-11-26T09:26:00Z</time>
      </trkpt>
      <trkpt lat="45.94661" lon="4.73971">
        <ele>187</ele>
        <time>2016-11-26T09:26:01Z</time>
      </trkpt>
      <trkpt lat="45.94665" lon="4.73975">
        <ele>187</ele>
        <time>2016-11-26T09:26:02Z</time>
      </trkpt>
      <trkpt lat="45.94668" lon="4.7398">
        <ele>187</ele>
        <time>2016-11-26T09:26:03Z</time>
      </trkpt>
      <trkpt lat="45.94674" lon="4.73988">
        <ele>187</ele>
        <time>2016-11-26T09:26:05Z</time>
      </trkpt>
      <trkpt lat="45.94678" lon="4.73992">
        <ele>187</ele>
        <time>2016-11-26T09:26:06Z</time>
      </trkpt>
      <trkpt lat="45.94681" lon="4.73997">
        <ele>187</ele>
        <time>2016-11-26T09:26:07Z</time>
      </trkpt>
      <trkpt lat="45.94684" lon="4.74001">
        <ele>187</ele>
        <time>2016-11-26T09:26:08Z</time>
      </trkpt>
      <trkpt lat="45.94688" lon="4.74006">
        <ele>187</ele>
        <time>2016-11-26T09:26:09Z</time>
      </trkpt>
      <trkpt lat="45.94692" lon="4.74011">
        <ele>187</ele>
        <time>2016-11-26T09:26:10Z</time>
      </trkpt>
      <trkpt lat="45.94695" lon="4.74015">
        <ele>187</ele>
        <time>2016-11-26T09:26:11Z</time>
      </trkpt>
      <trkpt lat="45.94698" lon="4.7402">
        <ele>187</ele>
        <time>2016-11-26T09:26:12Z</time>
      </trkpt>
      <trkpt lat="45.94705" lon="4.74029">
        <ele>187</ele>
        <time>2016-11-26T09:26:14Z</time>
      </trkpt>
      <trkpt lat="45.94708" lon="4.74033">
        <ele>187</ele>
        <time>2016-11-26T09:26:15Z</time>
      </trkpt>
      <trkpt lat="45.94714" lon="4.74042">
        <ele>187</ele>
        <time>2016-11-26T09:26:17Z</time>
      </trkpt>
      <trkpt lat="45.94717" lon="4.74046">
        <ele>187</ele>
        <time>2016-11-26T09:26:18Z</time>
      </trkpt>
      <trkpt lat="45.94721" lon="4.74051">
        <ele>187</ele>
        <time>2016-11-26T09:26:19Z</time>
      </trkpt>
      <trkpt lat="45.94724" lon="4.74055">
        <ele>188</ele>
        <time>2016-11-26T09:26:20Z</time>
      </trkpt>
      <trkpt lat="45.94727" lon="4.7406">
        <ele>188</ele>
        <time>2016-11-26T09:26:21Z</time>
      </trkpt>
      <trkpt lat="45.94731" lon="4.74064">
        <ele>188</ele>
        <time>2016-11-26T09:26:22Z</time>
      </trkpt>
      <trkpt lat="45.94735" lon="4.74068">
        <ele>188</ele>
        <time>2016-11-26T09:26:23Z</time>
      </trkpt>
      <trkpt lat="45.94738" lon="4.74073">
        <ele>188</ele>
        <time>2016-11-26T09:26:24Z</time>
      </trkpt>
      <trkpt lat="45.94742" lon="4.74078">
        <ele>188</ele>
        <time>2016-11-26T09:26:25Z</time>
      </trkpt>
      <trkpt lat="45.94746" lon="4.74083">
        <ele>189</ele>
        <time>2016-11-26T09:26:26Z</time>
      </trkpt>
      <trkpt lat="45.94749" lon="4.74088">
        <ele>189</ele>
        <time>2016-11-26T09:26:27Z</time>
      </trkpt>
      <trkpt lat="45.94752" lon="4.74092">
        <ele>189</ele>
        <time>2016-11-26T09:26:28Z</time>
      </trkpt>
      <trkpt lat="45.94756" lon="4.74097">
        <ele>189</ele>
        <time>2016-11-26T09:26:29Z</time>
      </trkpt>
      <trkpt lat="45.94759" lon="4.74102">
        <ele>189</ele>
        <time>2016-11-26T09:26:30Z</time>
      </trkpt>
      <trkpt lat="45.94763" lon="4.74107">
        <ele>189</ele>
        <time>2016-11-26T09:26:31Z</time>
      </trkpt>
      <trkpt lat="45.94766" lon="4.74111">
        <ele>189</ele>
        <time>2016-11-26T09:26:32Z</time>
      </trkpt>
      <trkpt lat="45.9477" lon="4.74116">
        <ele>189</ele>
        <time>2016-11-26T09:26:33Z</time>
      </trkpt>
      <trkpt lat="45.94774" lon="4.74121">
        <ele>189</ele>
        <time>2016-11-26T09:26:34Z</time>
      </trkpt>
      <trkpt lat="45.94778" lon="4.74127">
        <ele>189</ele>
        <time>2016-11-26T09:26:35Z</time>
      </trkpt>
      <trkpt lat="45.94782" lon="4.74133">
        <ele>189</ele>
        <time>2016-11-26T09:26:36Z</time>
      </trkpt>
      <trkpt lat="45.94786" lon="4.74138">
        <ele>189</ele>
        <time>2016-11-26T09:26:37Z</time>
      </trkpt>
      <trkpt lat="45.94789" lon="4.74144">
        <ele>189</ele>
        <time>2016-11-26T09:26:38Z</time>
      </trkpt>
      <trkpt lat="45.94793" lon="4.74149">
        <ele>189</ele>
        <time>2016-11-26T09:26:39Z</time>
      </trkpt>
      <trkpt lat="45.94796" lon="4.74154">
        <ele>189</ele>
        <time>2016-11-26T09:26:40Z</time>
      </trkpt>
      <trkpt lat="45.94799" lon="4.7416">
        <ele>189</ele>
        <time>2016-11-26T09:26:41Z</time>
      </trkpt>
      <trkpt lat="45.94803" lon="4.74166">
        <ele>189</ele>
        <time>2016-11-26T09:26:42Z</time>
      </trkpt>
      <trkpt lat="45.94806" lon="4.74172">
        <ele>189</ele>
        <time>2016-11-26T09:26:43Z</time>
      </trkpt>
      <trkpt lat="45.94809" lon="4.74177">
        <ele>189</ele>
        <time>2016-11-26T09:26:44Z</time>
      </trkpt>
      <trkpt lat="45.94812" lon="4.74183">
        <ele>189</ele>
        <time>2016-11-26T09:26:45Z</time>
      </trkpt>
      <trkpt lat="45.94815" lon="4.74189">
        <ele>189</ele>
        <time>2016-11-26T09:26:46Z</time>
      </trkpt>
      <trkpt lat="45.94818" lon="4.74194">
        <ele>189</ele>
        <time>2016-11-26T09:26:47Z</time>
      </trkpt>
      <trkpt lat="45.94821" lon="4.742">
        <ele>189</ele>
        <time>2016-11-26T09:26:48Z</time>
      </trkpt>
      <trkpt lat="45.94824" lon="4.74205">
        <ele>189</ele>
        <time>2016-11-26T09:26:49Z</time>
      </trkpt>
      <trkpt lat="45.94827" lon="4.74211">
        <ele>188</ele>
        <time>2016-11-26T09:26:50Z</time>
      </trkpt>
      <trkpt lat="45.9483" lon="4.74217">
        <ele>188</ele>
        <time>2016-11-26T09:26:51Z</time>
      </trkpt>
      <trkpt lat="45.94833" lon="4.74223">
        <ele>189</ele>
        <time>2016-11-26T09:26:52Z</time>
      </trkpt>
      <trkpt lat="45.94836" lon="4.74229">
        <ele>190</ele>
        <time>2016-11-26T09:26:53Z</time>
      </trkpt>
      <trkpt lat="45.94839" lon="4.74235">
        <ele>190</ele>
        <time>2016-11-26T09:26:54Z</time>
      </trkpt>
      <trkpt lat="45.94842" lon="4.7424">
        <ele>190</ele>
        <time>2016-11-26T09:26:55Z</time>
      </trkpt>
      <trkpt lat="45.94845" lon="4.74246">
        <ele>190</ele>
        <time>2016-11-26T09:26:56Z</time>
      </trkpt>
      <trkpt lat="45.94848" lon="4.74251">
        <ele>190</ele>
        <time>2016-11-26T09:26:57Z</time>
      </trkpt>
      <trkpt lat="45.94851" lon="4.74257">
        <ele>190</ele>
        <time>2016-11-26T09:26:58Z</time>
      </trkpt>
      <trkpt lat="45.94854" lon="4.74262">
        <ele>190</ele>
        <time>2016-11-26T09:26:59Z</time>
      </trkpt>
      <trkpt lat="45.94857" lon="4.74268">
        <ele>190</ele>
        <time>2016-11-26T09:27:00Z</time>
      </trkpt>
      <trkpt lat="45.9486" lon="4.74274">
        <ele>190</ele>
        <time>2016-11-26T09:27:01Z</time>
      </trkpt>
      <trkpt lat="45.94863" lon="4.7428">
        <ele>191</ele>
        <time>2016-11-26T09:27:02Z</time>
      </trkpt>
      <trkpt lat="45.94866" lon="4.74286">
        <ele>191</ele>
        <time>2016-11-26T09:27:03Z</time>
      </trkpt>
      <trkpt lat="45.94869" lon="4.74293">
        <ele>191</ele>
        <time>2016-11-26T09:27:04Z</time>
      </trkpt>
      <trkpt lat="45.94872" lon="4.743">
        <ele>191</ele>
        <time>2016-11-26T09:27:05Z</time>
      </trkpt>
      <trkpt lat="45.94875" lon="4.74307">
        <ele>191</ele>
        <time>2016-11-26T09:27:06Z</time>
      </trkpt>
      <trkpt lat="45.94878" lon="4.74314">
        <ele>191</ele>
        <time>2016-11-26T09:27:07Z</time>
      </trkpt>
      <trkpt lat="45.94882" lon="4.7432">
        <ele>191</ele>
        <time>2016-11-26T09:27:08Z</time>
      </trkpt>
      <trkpt lat="45.94886" lon="4.74326">
        <ele>191</ele>
        <time>2016-11-26T09:27:09Z</time>
      </trkpt>
      <trkpt lat="45.94889" lon="4.74332">
        <ele>191</ele>
        <time>2016-11-26T09:27:10Z</time>
      </trkpt>
      <trkpt lat="45.94893" lon="4.74338">
        <ele>191</ele>
        <time>2016-11-26T09:27:11Z</time>
      </trkpt>
      <trkpt lat="45.94896" lon="4.74344">
        <ele>191</ele>
        <time>2016-11-26T09:27:12Z</time>
      </trkpt>
      <trkpt lat="45.94899" lon="4.74349">
        <ele>191</ele>
        <time>2016-11-26T09:27:13Z</time>
      </trkpt>
      <trkpt lat="45.94902" lon="4.74355">
        <ele>191</ele>
        <time>2016-11-26T09:27:14Z</time>
      </trkpt>
      <trkpt lat="45.94904" lon="4.7436">
        <ele>191</ele>
        <time>2016-11-26T09:27:15Z</time>
      </trkpt>
      <trkpt lat="45.94907" lon="4.74366">
        <ele>191</ele>
        <time>2016-11-26T09:27:16Z</time>
      </trkpt>
      <trkpt lat="45.9491" lon="4.74371">
        <ele>191</ele>
        <time>2016-11-26T09:27:17Z</time>
      </trkpt>
      <trkpt lat="45.94913" lon="4.74377">
        <ele>191</ele>
        <time>2016-11-26T09:27:18Z</time>
      </trkpt>
      <trkpt lat="45.94916" lon="4.74382">
        <ele>191</ele>
        <time>2016-11-26T09:27:19Z</time>
      </trkpt>
      <trkpt lat="45.94919" lon="4.74388">
        <ele>192</ele>
        <time>2016-11-26T09:27:20Z</time>
      </trkpt>
      <trkpt lat="45.94921" lon="4.74393">
        <ele>192</ele>
        <time>2016-11-26T09:27:21Z</time>
      </trkpt>
      <trkpt lat="45.94924" lon="4.74399">
        <ele>192</ele>
        <time>2016-11-26T09:27:22Z</time>
      </trkpt>
      <trkpt lat="45.94927" lon="4.74405">
        <ele>192</ele>
        <time>2016-11-26T09:27:23Z</time>
      </trkpt>
      <trkpt lat="45.9493" lon="4.74411">
        <ele>192</ele>
        <time>2016-11-26T09:27:24Z</time>
      </trkpt>
      <trkpt lat="45.94933" lon="4.74416">
        <ele>192</ele>
        <time>2016-11-26T09:27:25Z</time>
      </trkpt>
      <trkpt lat="45.94935" lon="4.74422">
        <ele>192</ele>
        <time>2016-11-26T09:27:26Z</time>
      </trkpt>
      <trkpt lat="45.94938" lon="4.74427">
        <ele>192</ele>
        <time>2016-11-26T09:27:27Z</time>
      </trkpt>
      <trkpt lat="45.94941" lon="4.74433">
        <ele>192</ele>
        <time>2016-11-26T09:27:28Z</time>
      </trkpt>
      <trkpt lat="45.94945" lon="4.74439">
        <ele>192</ele>
        <time>2016-11-26T09:27:29Z</time>
      </trkpt>
      <trkpt lat="45.94948" lon="4.74445">
        <ele>192</ele>
        <time>2016-11-26T09:27:30Z</time>
      </trkpt>
      <trkpt lat="45.94951" lon="4.7445">
        <ele>192</ele>
        <time>2016-11-26T09:27:31Z</time>
      </trkpt>
      <trkpt lat="45.94953" lon="4.74456">
        <ele>192</ele>
        <time>2016-11-26T09:27:32Z</time>
      </trkpt>
      <trkpt lat="45.94956" lon="4.74462">
        <ele>193</ele>
        <time>2016-11-26T09:27:33Z</time>
      </trkpt>
      <trkpt lat="45.94959" lon="4.74467">
        <ele>193</ele>
        <time>2016-11-26T09:27:34Z</time>
      </trkpt>
      <trkpt lat="45.94962" lon="4.74473">
        <ele>193</ele>
        <time>2016-11-26T09:27:35Z</time>
      </trkpt>
      <trkpt lat="45.94965" lon="4.74479">
        <ele>193</ele>
        <time>2016-11-26T09:27:36Z</time>
      </trkpt>
      <trkpt lat="45.94968" lon="4.74485">
        <ele>193</ele>
        <time>2016-11-26T09:27:37Z</time>
      </trkpt>
      <trkpt lat="45.94971" lon="4.74491">
        <ele>193</ele>
        <time>2016-11-26T09:27:38Z</time>
      </trkpt>
      <trkpt lat="45.94974" lon="4.74497">
        <ele>193</ele>
        <time>2016-11-26T09:27:39Z</time>
      </trkpt>
      <trkpt lat="45.94977" lon="4.74504">
        <ele>193</ele>
        <time>2016-11-26T09:27:40Z</time>
      </trkpt>
      <trkpt lat="45.94981" lon="4.7451">
        <ele>193</ele>
        <time>2016-11-26T09:27:41Z</time>
      </trkpt>
      <trkpt lat="45.94985" lon="4.74517">
        <ele>193</ele>
        <time>2016-11-26T09:27:42Z</time>
      </trkpt>
      <trkpt lat="45.94988" lon="4.74524">
        <ele>193</ele>
        <time>2016-11-26T09:27:43Z</time>
      </trkpt>
      <trkpt lat="45.94992" lon="4.74531">
        <ele>193</ele>
        <time>2016-11-26T09:27:44Z</time>
      </trkpt>
      <trkpt lat="45.94995" lon="4.74537">
        <ele>193</ele>
        <time>2016-11-26T09:27:45Z</time>
      </trkpt>
      <trkpt lat="45.94998" lon="4.74544">
        <ele>193</ele>
        <time>2016-11-26T09:27:46Z</time>
      </trkpt>
      <trkpt lat="45.95002" lon="4.7455">
        <ele>194</ele>
        <time>2016-11-26T09:27:47Z</time>
      </trkpt>
      <trkpt lat="45.95005" lon="4.74556">
        <ele>194</ele>
        <time>2016-11-26T09:27:48Z</time>
      </trkpt>
      <trkpt lat="45.95008" lon="4.74562">
        <ele>194</ele>
        <time>2016-11-26T09:27:49Z</time>
      </trkpt>
      <trkpt lat="45.95011" lon="4.74568">
        <ele>194</ele>
        <time>2016-11-26T09:27:50Z</time>
      </trkpt>
      <trkpt lat="45.95014" lon="4.74574">
        <ele>194</ele>
        <time>2016-11-26T09:27:51Z</time>
      </trkpt>
      <trkpt lat="45.95017" lon="4.7458">
        <ele>194</ele>
        <time>2016-11-26T09:27:52Z</time>
      </trkpt>
      <trkpt lat="45.9502" lon="4.74585">
        <ele>194</ele>
        <time>2016-11-26T09:27:53Z</time>
      </trkpt>
      <trkpt lat="45.95024" lon="4.74591">
        <ele>194</ele>
        <time>2016-11-26T09:27:54Z</time>
      </trkpt>
      <trkpt lat="45.95027" lon="4.74597">
        <ele>194</ele>
        <time>2016-11-26T09:27:55Z</time>
      </trkpt>
      <trkpt lat="45.9503" lon="4.74603">
        <ele>194</ele>
        <time>2016-11-26T09:27:56Z</time>
      </trkpt>
      <trkpt lat="45.95033" lon="4.74608">
        <ele>194</ele>
        <time>2016-11-26T09:27:57Z</time>
      </trkpt>
      <trkpt lat="45.95037" lon="4.74614">
        <ele>194</ele>
        <time>2016-11-26T09:27:58Z</time>
      </trkpt>
      <trkpt lat="45.9504" lon="4.7462">
        <ele>194</ele>
        <time>2016-11-26T09:27:59Z</time>
      </trkpt>
      <trkpt lat="45.95043" lon="4.74627">
        <ele>194</ele>
        <time>2016-11-26T09:28:00Z</time>
      </trkpt>
      <trkpt lat="45.95047" lon="4.74633">
        <ele>194</ele>
        <time>2016-11-26T09:28:01Z</time>
      </trkpt>
      <trkpt lat="45.9505" lon="4.74639">
        <ele>194</ele>
        <time>2016-11-26T09:28:02Z</time>
      </trkpt>
      <trkpt lat="45.95054" lon="4.74646">
        <ele>194</ele>
        <time>2016-11-26T09:28:03Z</time>
      </trkpt>
      <trkpt lat="45.95057" lon="4.74652">
        <ele>194</ele>
        <time>2016-11-26T09:28:04Z</time>
      </trkpt>
      <trkpt lat="45.95061" lon="4.74657">
        <ele>194</ele>
        <time>2016-11-26T09:28:05Z</time>
      </trkpt>
      <trkpt lat="45.95064" lon="4.74663">
        <ele>195</ele>
        <time>2016-11-26T09:28:06Z</time>
      </trkpt>
      <trkpt lat="45.95068" lon="4.74669">
        <ele>194</ele>
        <time>2016-11-26T09:28:07Z</time>
      </trkpt>
      <trkpt lat="45.95071" lon="4.74675">
        <ele>194</ele>
        <time>2016-11-26T09:28:08Z</time>
      </trkpt>
      <trkpt lat="45.95074" lon="4.74681">
        <ele>194</ele>
        <time>2016-11-26T09:28:09Z</time>
      </trkpt>
      <trkpt lat="45.95078" lon="4.74686">
        <ele>194</ele>
        <time>2016-11-26T09:28:10Z</time>
      </trkpt>
      <trkpt lat="45.95081" lon="4.74693">
        <ele>194</ele>
        <time>2016-11-26T09:28:11Z</time>
      </trkpt>
      <trkpt lat="45.95085" lon="4.74699">
        <ele>194</ele>
        <time>2016-11-26T09:28:12Z</time>
      </trkpt>
      <trkpt lat="45.95088" lon="4.74705">
        <ele>194</ele>
        <time>2016-11-26T09:28:13Z</time>
      </trkpt>
      <trkpt lat="45.95092" lon="4.74711">
        <ele>194</ele>
        <time>2016-11-26T09:28:14Z</time>
      </trkpt>
      <trkpt lat="45.95095" lon="4.74717">
        <ele>194</ele>
        <time>2016-11-26T09:28:15Z</time>
      </trkpt>
      <trkpt lat="45.95098" lon="4.74723">
        <ele>194</ele>
        <time>2016-11-26T09:28:16Z</time>
      </trkpt>
      <trkpt lat="45.95101" lon="4.74728">
        <ele>194</ele>
        <time>2016-11-26T09:28:17Z</time>
      </trkpt>
      <trkpt lat="45.95105" lon="4.74734">
        <ele>194</ele>
        <time>2016-11-26T09:28:18Z</time>
      </trkpt>
      <trkpt lat="45.95108" lon="4.7474">
        <ele>194</ele>
        <time>2016-11-26T09:28:19Z</time>
      </trkpt>
      <trkpt lat="45.95112" lon="4.74746">
        <ele>194</ele>
        <time>2016-11-26T09:28:20Z</time>
      </trkpt>
      <trkpt lat="45.95115" lon="4.74752">
        <ele>194</ele>
        <time>2016-11-26T09:28:21Z</time>
      </trkpt>
      <trkpt lat="45.95119" lon="4.74757">
        <ele>194</ele>
        <time>2016-11-26T09:28:22Z</time>
      </trkpt>
      <trkpt lat="45.95122" lon="4.74763">
        <ele>194</ele>
        <time>2016-11-26T09:28:23Z</time>
      </trkpt>
      <trkpt lat="45.95126" lon="4.74768">
        <ele>194</ele>
        <time>2016-11-26T09:28:24Z</time>
      </trkpt>
      <trkpt lat="45.95129" lon="4.74774">
        <ele>194</ele>
        <time>2016-11-26T09:28:25Z</time>
      </trkpt>
      <trkpt lat="45.95133" lon="4.74779">
        <ele>194</ele>
        <time>2016-11-26T09:28:26Z</time>
      </trkpt>
      <trkpt lat="45.95136" lon="4.74784">
        <ele>194</ele>
        <time>2016-11-26T09:28:27Z</time>
      </trkpt>
      <trkpt lat="45.95139" lon="4.74789">
        <ele>194</ele>
        <time>2016-11-26T09:28:28Z</time>
      </trkpt>
      <trkpt lat="45.95143" lon="4.74795">
        <ele>194</ele>
        <time>2016-11-26T09:28:29Z</time>
      </trkpt>
      <trkpt lat="45.95146" lon="4.74801">
        <ele>194</ele>
        <time>2016-11-26T09:28:30Z</time>
      </trkpt>
      <trkpt lat="45.95149" lon="4.74806">
        <ele>194</ele>
        <time>2016-11-26T09:28:31Z</time>
      </trkpt>
      <trkpt lat="45.95153" lon="4.74812">
        <ele>194</ele>
        <time>2016-11-26T09:28:32Z</time>
      </trkpt>
      <trkpt lat="45.95156" lon="4.74817">
        <ele>194</ele>
        <time>2016-11-26T09:28:33Z</time>
      </trkpt>
      <trkpt lat="45.9516" lon="4.74823">
        <ele>194</ele>
        <time>2016-11-26T09:28:34Z</time>
      </trkpt>
      <trkpt lat="45.95163" lon="4.74829">
        <ele>194</ele>
        <time>2016-11-26T09:28:35Z</time>
      </trkpt>
      <trkpt lat="45.95167" lon="4.74834">
        <ele>194</ele>
        <time>2016-11-26T09:28:36Z</time>
      </trkpt>
      <trkpt lat="45.9517" lon="4.74839">
        <ele>194</ele>
        <time>2016-11-26T09:28:37Z</time>
      </trkpt>
      <trkpt lat="45.95174" lon="4.74845">
        <ele>194</ele>
        <time>2016-11-26T09:28:38Z</time>
      </trkpt>
      <trkpt lat="45.95177" lon="4.7485">
        <ele>194</ele>
        <time>2016-11-26T09:28:39Z</time>
      </trkpt>
      <trkpt lat="45.9518" lon="4.74855">
        <ele>194</ele>
        <time>2016-11-26T09:28:40Z</time>
      </trkpt>
      <trkpt lat="45.95184" lon="4.74861">
        <ele>194</ele>
        <time>2016-11-26T09:28:41Z</time>
      </trkpt>
      <trkpt lat="45.95187" lon="4.74867">
        <ele>194</ele>
        <time>2016-11-26T09:28:42Z</time>
      </trkpt>
      <trkpt lat="45.9519" lon="4.74873">
        <ele>194</ele>
        <time>2016-11-26T09:28:43Z</time>
      </trkpt>
      <trkpt lat="45.95193" lon="4.74878">
        <ele>194</ele>
        <time>2016-11-26T09:28:44Z</time>
      </trkpt>
      <trkpt lat="45.95197" lon="4.74884">
        <ele>194</ele>
        <time>2016-11-26T09:28:45Z</time>
      </trkpt>
      <trkpt lat="45.95201" lon="4.7489">
        <ele>194</ele>
        <time>2016-11-26T09:28:46Z</time>
      </trkpt>
      <trkpt lat="45.95205" lon="4.74896">
        <ele>194</ele>
        <time>2016-11-26T09:28:47Z</time>
      </trkpt>
      <trkpt lat="45.95208" lon="4.74901">
        <ele>194</ele>
        <time>2016-11-26T09:28:48Z</time>
      </trkpt>
      <trkpt lat="45.95212" lon="4.74907">
        <ele>193</ele>
        <time>2016-11-26T09:28:49Z</time>
      </trkpt>
      <trkpt lat="45.95215" lon="4.74912">
        <ele>193</ele>
        <time>2016-11-26T09:28:50Z</time>
      </trkpt>
      <trkpt lat="45.95219" lon="4.74918">
        <ele>192</ele>
        <time>2016-11-26T09:28:51Z</time>
      </trkpt>
      <trkpt lat="45.95222" lon="4.74923">
        <ele>192</ele>
        <time>2016-11-26T09:28:52Z</time>
      </trkpt>
      <trkpt lat="45.95226" lon="4.74929">
        <ele>192</ele>
        <time>2016-11-26T09:28:53Z</time>
      </trkpt>
      <trkpt lat="45.9523" lon="4.74935">
        <ele>192</ele>
        <time>2016-11-26T09:28:54Z</time>
      </trkpt>
      <trkpt lat="45.95233" lon="4.74941">
        <ele>192</ele>
        <time>2016-11-26T09:28:55Z</time>
      </trkpt>
      <trkpt lat="45.95237" lon="4.74946">
        <ele>192</ele>
        <time>2016-11-26T09:28:56Z</time>
      </trkpt>
      <trkpt lat="45.95241" lon="4.74952">
        <ele>192</ele>
        <time>2016-11-26T09:28:57Z</time>
      </trkpt>
      <trkpt lat="45.95244" lon="4.74957">
        <ele>192</ele>
        <time>2016-11-26T09:28:58Z</time>
      </trkpt>
      <trkpt lat="45.95248" lon="4.74963">
        <ele>191</ele>
        <time>2016-11-26T09:28:59Z</time>
      </trkpt>
      <trkpt lat="45.95251" lon="4.74969">
        <ele>192</ele>
        <time>2016-11-26T09:29:00Z</time>
      </trkpt>
      <trkpt lat="45.95255" lon="4.74975">
        <ele>192</ele>
        <time>2016-11-26T09:29:01Z</time>
      </trkpt>
      <trkpt lat="45.95259" lon="4.74981">
        <ele>192</ele>
        <time>2016-11-26T09:29:02Z</time>
      </trkpt>
      <trkpt lat="45.95263" lon="4.74987">
        <ele>192</ele>
        <time>2016-11-26T09:29:03Z</time>
      </trkpt>
      <trkpt lat="45.95267" lon="4.74993">
        <ele>192</ele>
        <time>2016-11-26T09:29:04Z</time>
      </trkpt>
      <trkpt lat="45.9527" lon="4.74999">
        <ele>192</ele>
        <time>2016-11-26T09:29:05Z</time>
      </trkpt>
      <trkpt lat="45.95274" lon="4.75005">
        <ele>191</ele>
        <time>2016-11-26T09:29:06Z</time>
      </trkpt>
      <trkpt lat="45.95278" lon="4.75011">
        <ele>191</ele>
        <time>2016-11-26T09:29:07Z</time>
      </trkpt>
      <trkpt lat="45.95281" lon="4.75017">
        <ele>191</ele>
        <time>2016-11-26T09:29:08Z</time>
      </trkpt>
      <trkpt lat="45.95285" lon="4.75023">
        <ele>191</ele>
        <time>2016-11-26T09:29:09Z</time>
      </trkpt>
      <trkpt lat="45.95289" lon="4.75029">
        <ele>191</ele>
        <time>2016-11-26T09:29:10Z</time>
      </trkpt>
      <trkpt lat="45.95293" lon="4.75035">
        <ele>191</ele>
        <time>2016-11-26T09:29:11Z</time>
      </trkpt>
      <trkpt lat="45.95297" lon="4.75041">
        <ele>191</ele>
        <time>2016-11-26T09:29:12Z</time>
      </trkpt>
      <trkpt lat="45.95301" lon="4.75047">
        <ele>191</ele>
        <time>2016-11-26T09:29:13Z</time>
      </trkpt>
      <trkpt lat="45.95305" lon="4.75053">
        <ele>191</ele>
        <time>2016-11-26T09:29:14Z</time>
      </trkpt>
      <trkpt lat="45.95309" lon="4.75059">
        <ele>192</ele>
        <time>2016-11-26T09:29:15Z</time>
      </trkpt>
      <trkpt lat="45.95312" lon="4.75065">
        <ele>192</ele>
        <time>2016-11-26T09:29:16Z</time>
      </trkpt>
      <trkpt lat="45.95316" lon="4.75071">
        <ele>192</ele>
        <time>2016-11-26T09:29:17Z</time>
      </trkpt>
      <trkpt lat="45.9532" lon="4.75077">
        <ele>192</ele>
        <time>2016-11-26T09:29:18Z</time>
      </trkpt>
      <trkpt lat="45.95324" lon="4.75084">
        <ele>191</ele>
        <time>2016-11-26T09:29:19Z</time>
      </trkpt>
      <trkpt lat="45.95328" lon="4.7509">
        <ele>192</ele>
        <time>2016-11-26T09:29:20Z</time>
      </trkpt>
      <trkpt lat="45.95332" lon="4.75096">
        <ele>191</ele>
        <time>2016-11-26T09:29:21Z</time>
      </trkpt>
      <trkpt lat="45.95336" lon="4.75102">
        <ele>192</ele>
        <time>2016-11-26T09:29:22Z</time>
      </trkpt>
      <trkpt lat="45.95339" lon="4.75108">
        <ele>192</ele>
        <time>2016-11-26T09:29:23Z</time>
      </trkpt>
      <trkpt lat="45.95343" lon="4.75114">
        <ele>192</ele>
        <time>2016-11-26T09:29:24Z</time>
      </trkpt>
      <trkpt lat="45.95347" lon="4.7512">
        <ele>191</ele>
        <time>2016-11-26T09:29:25Z</time>
      </trkpt>
      <trkpt lat="45.95351" lon="4.75126">
        <ele>191</ele>
        <time>2016-11-26T09:29:26Z</time>
      </trkpt>
      <trkpt lat="45.95355" lon="4.75132">
        <ele>191</ele>
        <time>2016-11-26T09:29:27Z</time>
      </trkpt>
      <trkpt lat="45.95359" lon="4.75139">
        <ele>191</ele>
        <time>2016-11-26T09:29:28Z</time>
      </trkpt>
      <trkpt lat="45.95363" lon="4.75145">
        <ele>191</ele>
        <time>2016-11-26T09:29:29Z</time>
      </trkpt>
      <trkpt lat="45.95367" lon="4.75152">
        <ele>191</ele>
        <time>2016-11-26T09:29:30Z</time>
      </trkpt>
      <trkpt lat="45.95371" lon="4.75158">
        <ele>191</ele>
        <time>2016-11-26T09:29:31Z</time>
      </trkpt>
      <trkpt lat="45.95375" lon="4.75165">
        <ele>191</ele>
        <time>2016-11-26T09:29:32Z</time>
      </trkpt>
      <trkpt lat="45.95379" lon="4.75171">
        <ele>189</ele>
        <time>2016-11-26T09:29:33Z</time>
      </trkpt>
      <trkpt lat="45.95383" lon="4.75178">
        <ele>189</ele>
        <time>2016-11-26T09:29:34Z</time>
      </trkpt>
      <trkpt lat="45.95387" lon="4.75185">
        <ele>189</ele>
        <time>2016-11-26T09:29:35Z</time>
      </trkpt>
      <trkpt lat="45.95391" lon="4.75191">
        <ele>189</ele>
        <time>2016-11-26T09:29:36Z</time>
      </trkpt>
      <trkpt lat="45.95395" lon="4.75198">
        <ele>189</ele>
        <time>2016-11-26T09:29:37Z</time>
      </trkpt>
      <trkpt lat="45.95399" lon="4.75205">
        <ele>189</ele>
        <time>2016-11-26T09:29:38Z</time>
      </trkpt>
      <trkpt lat="45.95403" lon="4.75212">
        <ele>189</ele>
        <time>2016-11-26T09:29:39Z</time>
      </trkpt>
      <trkpt lat="45.95406" lon="4.75218">
        <ele>189</ele>
        <time>2016-11-26T09:29:40Z</time>
      </trkpt>
      <trkpt lat="45.9541" lon="4.75225">
        <ele>189</ele>
        <time>2016-11-26T09:29:41Z</time>
      </trkpt>
      <trkpt lat="45.95414" lon="4.75232">
        <ele>189</ele>
        <time>2016-11-26T09:29:42Z</time>
      </trkpt>
      <trkpt lat="45.95418" lon="4.75239">
        <ele>190</ele>
        <time>2016-11-26T09:29:43Z</time>
      </trkpt>
      <trkpt lat="45.95422" lon="4.75245">
        <ele>190</ele>
        <time>2016-11-26T09:29:44Z</time>
      </trkpt>
      <trkpt lat="45.95425" lon="4.75251">
        <ele>189</ele>
        <time>2016-11-26T09:29:45Z</time>
      </trkpt>
      <trkpt lat="45.95429" lon="4.75257">
        <ele>189</ele>
        <time>2016-11-26T09:29:46Z</time>
      </trkpt>
      <trkpt lat="45.95433" lon="4.75264">
        <ele>189</ele>
        <time>2016-11-26T09:29:47Z</time>
      </trkpt>
      <trkpt lat="45.95437" lon="4.75271">
        <ele>189</ele>
        <time>2016-11-26T09:29:48Z</time>
      </trkpt>
      <trkpt lat="45.95441" lon="4.75278">
        <ele>188</ele>
        <time>2016-11-26T09:29:49Z</time>
      </trkpt>
      <trkpt lat="45.95445" lon="4.75286">
        <ele>188</ele>
        <time>2016-11-26T09:29:50Z</time>
      </trkpt>
      <trkpt lat="45.95449" lon="4.75293">
        <ele>188</ele>
        <time>2016-11-26T09:29:51Z</time>
      </trkpt>
      <trkpt lat="45.95453" lon="4.753">
        <ele>188</ele>
        <time>2016-11-26T09:29:52Z</time>
      </trkpt>
      <trkpt lat="45.95457" lon="4.75307">
        <ele>188</ele>
        <time>2016-11-26T09:29:53Z</time>
      </trkpt>
      <trkpt lat="45.95461" lon="4.75315">
        <ele>188</ele>
        <time>2016-11-26T09:29:54Z</time>
      </trkpt>
      <trkpt lat="45.95464" lon="4.75322">
        <ele>188</ele>
        <time>2016-11-26T09:29:55Z</time>
      </trkpt>
      <trkpt lat="45.95468" lon="4.75329">
        <ele>188</ele>
        <time>2016-11-26T09:29:56Z</time>
      </trkpt>
      <trkpt lat="45.95472" lon="4.75337">
        <ele>186</ele>
        <time>2016-11-26T09:29:57Z</time>
      </trkpt>
      <trkpt lat="45.95476" lon="4.75344">
        <ele>186</ele>
        <time>2016-11-26T09:29:58Z</time>
      </trkpt>
      <trkpt lat="45.9548" lon="4.75351">
        <ele>186</ele>
        <time>2016-11-26T09:29:59Z</time>
      </trkpt>
      <trkpt lat="45.95484" lon="4.75359">
        <ele>186</ele>
        <time>2016-11-26T09:30:00Z</time>
      </trkpt>
      <trkpt lat="45.95488" lon="4.75367">
        <ele>186</ele>
        <time>2016-11-26T09:30:01Z</time>
      </trkpt>
      <trkpt lat="45.95491" lon="4.75375">
        <ele>185</ele>
        <time>2016-11-26T09:30:02Z</time>
      </trkpt>
      <trkpt lat="45.95494" lon="4.75383">
        <ele>185</ele>
        <time>2016-11-26T09:30:03Z</time>
      </trkpt>
      <trkpt lat="45.95498" lon="4.75391">
        <ele>185</ele>
        <time>2016-11-26T09:30:04Z</time>
      </trkpt>
      <trkpt lat="45.955" lon="4.75399">
        <ele>187</ele>
        <time>2016-11-26T09:30:05Z</time>
      </trkpt>
      <trkpt lat="45.95503" lon="4.75408">
        <ele>186</ele>
        <time>2016-11-26T09:30:06Z</time>
      </trkpt>
      <trkpt lat="45.95505" lon="4.75416">
        <ele>186</ele>
        <time>2016-11-26T09:30:07Z</time>
      </trkpt>
      <trkpt lat="45.95507" lon="4.75424">
        <ele>186</ele>
        <time>2016-11-26T09:30:08Z</time>
      </trkpt>
      <trkpt lat="45.95509" lon="4.75431">
        <ele>186</ele>
        <time>2016-11-26T09:30:09Z</time>
      </trkpt>
      <trkpt lat="45.9551" lon="4.75438">
        <ele>186</ele>
        <time>2016-11-26T09:30:10Z</time>
      </trkpt>
      <trkpt lat="45.9551" lon="4.75448">
        <ele>187</ele>
        <time>2016-11-26T09:30:12Z</time>
      </trkpt>
      <trkpt lat="45.9551" lon="4.75452">
        <ele>187</ele>
        <time>2016-11-26T09:30:13Z</time>
      </trkpt>
      <trkpt lat="45.9551" lon="4.75454">
        <ele>187</ele>
        <time>2016-11-26T09:30:14Z</time>
      </trkpt>
      <trkpt lat="45.9551" lon="4.75458">
        <ele>187</ele>
        <time>2016-11-26T09:30:18Z</time>
      </trkpt>
      <trkpt lat="45.95509" lon="4.7546">
        <ele>186</ele>
        <time>2016-11-26T09:30:19Z</time>
      </trkpt>
      <trkpt lat="45.95507" lon="4.75471">
        <ele>186</ele>
        <time>2016-11-26T09:30:22Z</time>
      </trkpt>
      <trkpt lat="45.95507" lon="4.75476">
        <ele>186</ele>
        <time>2016-11-26T09:30:23Z</time>
      </trkpt>
      <trkpt lat="45.95508" lon="4.75486">
        <ele>186</ele>
        <time>2016-11-26T09:30:25Z</time>
      </trkpt>
      <trkpt lat="45.9551" lon="4.7549">
        <ele>185</ele>
        <time>2016-11-26T09:30:26Z</time>
      </trkpt>
      <trkpt lat="45.95515" lon="4.75497">
        <ele>186</ele>
        <time>2016-11-26T09:30:28Z</time>
      </trkpt>
      <trkpt lat="45.95518" lon="4.75499">
        <ele>186</ele>
        <time>2016-11-26T09:30:29Z</time>
      </trkpt>
      <trkpt lat="45.95524" lon="4.75503">
        <ele>185</ele>
        <time>2016-11-26T09:30:31Z</time>
      </trkpt>
      <trkpt lat="45.95527" lon="4.75504">
        <ele>185</ele>
        <time>2016-11-26T09:30:32Z</time>
      </trkpt>
      <trkpt lat="45.95532" lon="4.75508">
        <ele>185</ele>
        <time>2016-11-26T09:30:34Z</time>
      </trkpt>
      <trkpt lat="45.95535" lon="4.75511">
        <ele>186</ele>
        <time>2016-11-26T09:30:35Z</time>
      </trkpt>
      <trkpt lat="45.95541" lon="4.75518">
        <ele>186</ele>
        <time>2016-11-26T09:30:37Z</time>
      </trkpt>
      <trkpt lat="45.95545" lon="4.75522">
        <ele>186</ele>
        <time>2016-11-26T09:30:38Z</time>
      </trkpt>
      <trkpt lat="45.95549" lon="4.75527">
        <ele>186</ele>
        <time>2016-11-26T09:30:39Z</time>
      </trkpt>
      <trkpt lat="45.95554" lon="4.75531">
        <ele>186</ele>
        <time>2016-11-26T09:30:40Z</time>
      </trkpt>
      <trkpt lat="45.95559" lon="4.75535">
        <ele>186</ele>
        <time>2016-11-26T09:30:41Z</time>
      </trkpt>
      <trkpt lat="45.95564" lon="4.75539">
        <ele>186</ele>
        <time>2016-11-26T09:30:42Z</time>
      </trkpt>
      <trkpt lat="45.95569" lon="4.75544">
        <ele>186</ele>
        <time>2016-11-26T09:30:43Z</time>
      </trkpt>
      <trkpt lat="45.95573" lon="4.75549">
        <ele>186</ele>
        <time>2016-11-26T09:30:44Z</time>
      </trkpt>
      <trkpt lat="45.95577" lon="4.75555">
        <ele>186</ele>
        <time>2016-11-26T09:30:45Z</time>
      </trkpt>
      <trkpt lat="45.95581" lon="4.7556">
        <ele>186</ele>
        <time>2016-11-26T09:30:46Z</time>
      </trkpt>
      <trkpt lat="45.95585" lon="4.75566">
        <ele>188</ele>
        <time>2016-11-26T09:30:47Z</time>
      </trkpt>
      <trkpt lat="45.95589" lon="4.75571">
        <ele>187</ele>
        <time>2016-11-26T09:30:48Z</time>
      </trkpt>
      <trkpt lat="45.95592" lon="4.75576">
        <ele>187</ele>
        <time>2016-11-26T09:30:49Z</time>
      </trkpt>
      <trkpt lat="45.95594" lon="4.75581">
        <ele>187</ele>
        <time>2016-11-26T09:30:50Z</time>
      </trkpt>
      <trkpt lat="45.95597" lon="4.75587">
        <ele>187</ele>
        <time>2016-11-26T09:30:51Z</time>
      </trkpt>
      <trkpt lat="45.95599" lon="4.75593">
        <ele>187</ele>
        <time>2016-11-26T09:30:52Z</time>
      </trkpt>
      <trkpt lat="45.95602" lon="4.75599">
        <ele>187</ele>
        <time>2016-11-26T09:30:53Z</time>
      </trkpt>
      <trkpt lat="45.95604" lon="4.75606">
        <ele>187</ele>
        <time>2016-11-26T09:30:54Z</time>
      </trkpt>
      <trkpt lat="45.95607" lon="4.75613">
        <ele>188</ele>
        <time>2016-11-26T09:30:55Z</time>
      </trkpt>
      <trkpt lat="45.95609" lon="4.7562">
        <ele>188</ele>
        <time>2016-11-26T09:30:56Z</time>
      </trkpt>
      <trkpt lat="45.95611" lon="4.75628">
        <ele>188</ele>
        <time>2016-11-26T09:30:57Z</time>
      </trkpt>
      <trkpt lat="45.95613" lon="4.75635">
        <ele>188</ele>
        <time>2016-11-26T09:30:58Z</time>
      </trkpt>
      <trkpt lat="45.95615" lon="4.75643">
        <ele>188</ele>
        <time>2016-11-26T09:30:59Z</time>
      </trkpt>
      <trkpt lat="45.95617" lon="4.75651">
        <ele>188</ele>
        <time>2016-11-26T09:31:00Z</time>
      </trkpt>
      <trkpt lat="45.95618" lon="4.75659">
        <ele>188</ele>
        <time>2016-11-26T09:31:01Z</time>
      </trkpt>
      <trkpt lat="45.9562" lon="4.75667">
        <ele>188</ele>
        <time>2016-11-26T09:31:02Z</time>
      </trkpt>
      <trkpt lat="45.95621" lon="4.75674">
        <ele>187</ele>
        <time>2016-11-26T09:31:03Z</time>
      </trkpt>
      <trkpt lat="45.95622" lon="4.75682">
        <ele>187</ele>
        <time>2016-11-26T09:31:04Z</time>
      </trkpt>
      <trkpt lat="45.95623" lon="4.7569">
        <ele>187</ele>
        <time>2016-11-26T09:31:05Z</time>
      </trkpt>
      <trkpt lat="45.95625" lon="4.75698">
        <ele>187</ele>
        <time>2016-11-26T09:31:06Z</time>
      </trkpt>
      <trkpt lat="45.95626" lon="4.75706">
        <ele>187</ele>
        <time>2016-11-26T09:31:07Z</time>
      </trkpt>
      <trkpt lat="45.95627" lon="4.75714">
        <ele>187</ele>
        <time>2016-11-26T09:31:08Z</time>
      </trkpt>
      <trkpt lat="45.95628" lon="4.75721">
        <ele>187</ele>
        <time>2016-11-26T09:31:09Z</time>
      </trkpt>
      <trkpt lat="45.95629" lon="4.75729">
        <ele>187</ele>
        <time>2016-11-26T09:31:10Z</time>
      </trkpt>
      <trkpt lat="45.9563" lon="4.75737">
        <ele>187</ele>
        <time>2016-11-26T09:31:11Z</time>
      </trkpt>
      <trkpt lat="45.95631" lon="4.75745">
        <ele>187</ele>
        <time>2016-11-26T09:31:12Z</time>
      </trkpt>
      <trkpt lat="45.95632" lon="4.75753">
        <ele>186</ele>
        <time>2016-11-26T09:31:13Z</time>
      </trkpt>
      <trkpt lat="45.95633" lon="4.75761">
        <ele>186</ele>
        <time>2016-11-26T09:31:14Z</time>
      </trkpt>
      <trkpt lat="45.95634" lon="4.75769">
        <ele>186</ele>
        <time>2016-11-26T09:31:15Z</time>
      </trkpt>
      <trkpt lat="45.95635" lon="4.75778">
        <ele>185</ele>
        <time>2016-11-26T09:31:16Z</time>
      </trkpt>
      <trkpt lat="45.95636" lon="4.75786">
        <ele>185</ele>
        <time>2016-11-26T09:31:17Z</time>
      </trkpt>
      <trkpt lat="45.95638" lon="4.75794">
        <ele>185</ele>
        <time>2016-11-26T09:31:18Z</time>
      </trkpt>
      <trkpt lat="45.95639" lon="4.75803">
        <ele>185</ele>
        <time>2016-11-26T09:31:19Z</time>
      </trkpt>
      <trkpt lat="45.95641" lon="4.75811">
        <ele>185</ele>
        <time>2016-11-26T09:31:20Z</time>
      </trkpt>
      <trkpt lat="45.95643" lon="4.75819">
        <ele>185</ele>
        <time>2016-11-26T09:31:21Z</time>
      </trkpt>
      <trkpt lat="45.95645" lon="4.75828">
        <ele>185</ele>
        <time>2016-11-26T09:31:22Z</time>
      </trkpt>
      <trkpt lat="45.95647" lon="4.75837">
        <ele>185</ele>
        <time>2016-11-26T09:31:23Z</time>
      </trkpt>
      <trkpt lat="45.95649" lon="4.75845">
        <ele>185</ele>
        <time>2016-11-26T09:31:24Z</time>
      </trkpt>
      <trkpt lat="45.95652" lon="4.75854">
        <ele>184</ele>
        <time>2016-11-26T09:31:25Z</time>
      </trkpt>
      <trkpt lat="45.95654" lon="4.75862">
        <ele>184</ele>
        <time>2016-11-26T09:31:26Z</time>
      </trkpt>
      <trkpt lat="45.95656" lon="4.75871">
        <ele>184</ele>
        <time>2016-11-26T09:31:27Z</time>
      </trkpt>
      <trkpt lat="45.95659" lon="4.75879">
        <ele>184</ele>
        <time>2016-11-26T09:31:28Z</time>
      </trkpt>
      <trkpt lat="45.95662" lon="4.75888">
        <ele>184</ele>
        <time>2016-11-26T09:31:29Z</time>
      </trkpt>
      <trkpt lat="45.95665" lon="4.75896">
        <ele>184</ele>
        <time>2016-11-26T09:31:30Z</time>
      </trkpt>
      <trkpt lat="45.95668" lon="4.75903">
        <ele>185</ele>
        <time>2016-11-26T09:31:31Z</time>
      </trkpt>
      <trkpt lat="45.95671" lon="4.75911">
        <ele>185</ele>
        <time>2016-11-26T09:31:32Z</time>
      </trkpt>
      <trkpt lat="45.95674" lon="4.75918">
        <ele>184</ele>
        <time>2016-11-26T09:31:33Z</time>
      </trkpt>
      <trkpt lat="45.95677" lon="4.75925">
        <ele>185</ele>
        <time>2016-11-26T09:31:34Z</time>
      </trkpt>
      <trkpt lat="45.9568" lon="4.75932">
        <ele>185</ele>
        <time>2016-11-26T09:31:35Z</time>
      </trkpt>
      <trkpt lat="45.95683" lon="4.7594">
        <ele>185</ele>
        <time>2016-11-26T09:31:36Z</time>
      </trkpt>
      <trkpt lat="45.95686" lon="4.75947">
        <ele>185</ele>
        <time>2016-11-26T09:31:37Z</time>
      </trkpt>
      <trkpt lat="45.95689" lon="4.75953">
        <ele>185</ele>
        <time>2016-11-26T09:31:38Z</time>
      </trkpt>
      <trkpt lat="45.95692" lon="4.7596">
        <ele>185</ele>
        <time>2016-11-26T09:31:39Z</time>
      </trkpt>
      <trkpt lat="45.95695" lon="4.75966">
        <ele>185</ele>
        <time>2016-11-26T09:31:40Z</time>
      </trkpt>
      <trkpt lat="45.95699" lon="4.75973">
        <ele>185</ele>
        <time>2016-11-26T09:31:41Z</time>
      </trkpt>
      <trkpt lat="45.95702" lon="4.75979">
        <ele>185</ele>
        <time>2016-11-26T09:31:42Z</time>
      </trkpt>
      <trkpt lat="45.95704" lon="4.75986">
        <ele>185</ele>
        <time>2016-11-26T09:31:43Z</time>
      </trkpt>
      <trkpt lat="45.95707" lon="4.75993">
        <ele>185</ele>
        <time>2016-11-26T09:31:44Z</time>
      </trkpt>
      <trkpt lat="45.9571" lon="4.75999">
        <ele>185</ele>
        <time>2016-11-26T09:31:45Z</time>
      </trkpt>
      <trkpt lat="45.95714" lon="4.76006">
        <ele>184</ele>
        <time>2016-11-26T09:31:46Z</time>
      </trkpt>
      <trkpt lat="45.95717" lon="4.76012">
        <ele>184</ele>
        <time>2016-11-26T09:31:47Z</time>
      </trkpt>
      <trkpt lat="45.95719" lon="4.76018">
        <ele>184</ele>
        <time>2016-11-26T09:31:48Z</time>
      </trkpt>
      <trkpt lat="45.95722" lon="4.76025">
        <ele>184</ele>
        <time>2016-11-26T09:31:49Z</time>
      </trkpt>
      <trkpt lat="45.95725" lon="4.76031">
        <ele>184</ele>
        <time>2016-11-26T09:31:50Z</time>
      </trkpt>
      <trkpt lat="45.95728" lon="4.76037">
        <ele>184</ele>
        <time>2016-11-26T09:31:51Z</time>
      </trkpt>
      <trkpt lat="45.95731" lon="4.76044">
        <ele>184</ele>
        <time>2016-11-26T09:31:52Z</time>
      </trkpt>
      <trkpt lat="45.95734" lon="4.7605">
        <ele>184</ele>
        <time>2016-11-26T09:31:53Z</time>
      </trkpt>
      <trkpt lat="45.95737" lon="4.76056">
        <ele>184</ele>
        <time>2016-11-26T09:31:54Z</time>
      </trkpt>
      <trkpt lat="45.9574" lon="4.76063">
        <ele>184</ele>
        <time>2016-11-26T09:31:55Z</time>
      </trkpt>
      <trkpt lat="45.95742" lon="4.7607">
        <ele>185</ele>
        <time>2016-11-26T09:31:56Z</time>
      </trkpt>
      <trkpt lat="45.95745" lon="4.76078">
        <ele>185</ele>
        <time>2016-11-26T09:31:57Z</time>
      </trkpt>
      <trkpt lat="45.95747" lon="4.76085">
        <ele>185</ele>
        <time>2016-11-26T09:31:58Z</time>
      </trkpt>
      <trkpt lat="45.95749" lon="4.76092">
        <ele>185</ele>
        <time>2016-11-26T09:31:59Z</time>
      </trkpt>
      <trkpt lat="45.95752" lon="4.76099">
        <ele>186</ele>
        <time>2016-11-26T09:32:00Z</time>
      </trkpt>
      <trkpt lat="45.95754" lon="4.76107">
        <ele>186</ele>
        <time>2016-11-26T09:32:01Z</time>
      </trkpt>
      <trkpt lat="45.95756" lon="4.76114">
        <ele>186</ele>
        <time>2016-11-26T09:32:02Z</time>
      </trkpt>
      <trkpt lat="45.95757" lon="4.76121">
        <ele>186</ele>
        <time>2016-11-26T09:32:03Z</time>
      </trkpt>
      <trkpt lat="45.95758" lon="4.76128">
        <ele>186</ele>
        <time>2016-11-26T09:32:04Z</time>
      </trkpt>
      <trkpt lat="45.95759" lon="4.76136">
        <ele>186</ele>
        <time>2016-11-26T09:32:05Z</time>
      </trkpt>
      <trkpt lat="45.9576" lon="4.76143">
        <ele>186</ele>
        <time>2016-11-26T09:32:06Z</time>
      </trkpt>
      <trkpt lat="45.9576" lon="4.76151">
        <ele>186</ele>
        <time>2016-11-26T09:32:07Z</time>
      </trkpt>
      <trkpt lat="45.95761" lon="4.76158">
        <ele>186</ele>
        <time>2016-11-26T09:32:08Z</time>
      </trkpt>
      <trkpt lat="45.95761" lon="4.76165">
        <ele>186</ele>
        <time>2016-11-26T09:32:09Z</time>
      </trkpt>
      <trkpt lat="45.95762" lon="4.76173">
        <ele>185</ele>
        <time>2016-11-26T09:32:10Z</time>
      </trkpt>
      <trkpt lat="45.95762" lon="4.7618">
        <ele>186</ele>
        <time>2016-11-26T09:32:11Z</time>
      </trkpt>
      <trkpt lat="45.95763" lon="4.76187">
        <ele>186</ele>
        <time>2016-11-26T09:32:12Z</time>
      </trkpt>
      <trkpt lat="45.95763" lon="4.76194">
        <ele>186</ele>
        <time>2016-11-26T09:32:13Z</time>
      </trkpt>
      <trkpt lat="45.95764" lon="4.76202">
        <ele>186</ele>
        <time>2016-11-26T09:32:14Z</time>
      </trkpt>
      <trkpt lat="45.95764" lon="4.76209">
        <ele>186</ele>
        <time>2016-11-26T09:32:15Z</time>
      </trkpt>
      <trkpt lat="45.95764" lon="4.76216">
        <ele>186</ele>
        <time>2016-11-26T09:32:16Z</time>
      </trkpt>
      <trkpt lat="45.95765" lon="4.76223">
        <ele>186</ele>
        <time>2016-11-26T09:32:17Z</time>
      </trkpt>
      <trkpt lat="45.95765" lon="4.7623">
        <ele>186</ele>
        <time>2016-11-26T09:32:18Z</time>
      </trkpt>
      <trkpt lat="45.95765" lon="4.76237">
        <ele>186</ele>
        <time>2016-11-26T09:32:19Z</time>
      </trkpt>
      <trkpt lat="45.95765" lon="4.76245">
        <ele>185</ele>
        <time>2016-11-26T09:32:20Z</time>
      </trkpt>
      <trkpt lat="45.95766" lon="4.76252">
        <ele>185</ele>
        <time>2016-11-26T09:32:21Z</time>
      </trkpt>
      <trkpt lat="45.95766" lon="4.7626">
        <ele>185</ele>
        <time>2016-11-26T09:32:22Z</time>
      </trkpt>
      <trkpt lat="45.95767" lon="4.76268">
        <ele>185</ele>
        <time>2016-11-26T09:32:23Z</time>
      </trkpt>
      <trkpt lat="45.95767" lon="4.76275">
        <ele>186</ele>
        <time>2016-11-26T09:32:24Z</time>
      </trkpt>
      <trkpt lat="45.95767" lon="4.76283">
        <ele>186</ele>
        <time>2016-11-26T09:32:25Z</time>
      </trkpt>
      <trkpt lat="45.95768" lon="4.76291">
        <ele>186</ele>
        <time>2016-11-26T09:32:26Z</time>
      </trkpt>
      <trkpt lat="45.95768" lon="4.76298">
        <ele>186</ele>
        <time>2016-11-26T09:32:27Z</time>
      </trkpt>
      <trkpt lat="45.95769" lon="4.76306">
        <ele>186</ele>
        <time>2016-11-26T09:32:28Z</time>
      </trkpt>
      <trkpt lat="45.9577" lon="4.76314">
        <ele>185</ele>
        <time>2016-11-26T09:32:29Z</time>
      </trkpt>
      <trkpt lat="45.9577" lon="4.76322">
        <ele>185</ele>
        <time>2016-11-26T09:32:30Z</time>
      </trkpt>
      <trkpt lat="45.9577" lon="4.76329">
        <ele>185</ele>
        <time>2016-11-26T09:32:31Z</time>
      </trkpt>
      <trkpt lat="45.95771" lon="4.76337">
        <ele>186</ele>
        <time>2016-11-26T09:32:32Z</time>
      </trkpt>
      <trkpt lat="45.95771" lon="4.76345">
        <ele>186</ele>
        <time>2016-11-26T09:32:33Z</time>
      </trkpt>
      <trkpt lat="45.95772" lon="4.76352">
        <ele>186</ele>
        <time>2016-11-26T09:32:34Z</time>
      </trkpt>
      <trkpt lat="45.95772" lon="4.7636">
        <ele>186</ele>
        <time>2016-11-26T09:32:35Z</time>
      </trkpt>
      <trkpt lat="45.95772" lon="4.76368">
        <ele>186</ele>
        <time>2016-11-26T09:32:36Z</time>
      </trkpt>
      <trkpt lat="45.95773" lon="4.76375">
        <ele>186</ele>
        <time>2016-11-26T09:32:37Z</time>
      </trkpt>
      <trkpt lat="45.95773" lon="4.76383">
        <ele>186</ele>
        <time>2016-11-26T09:32:38Z</time>
      </trkpt>
      <trkpt lat="45.95774" lon="4.7639">
        <ele>186</ele>
        <time>2016-11-26T09:32:39Z</time>
      </trkpt>
      <trkpt lat="45.95774" lon="4.76398">
        <ele>186</ele>
        <time>2016-11-26T09:32:40Z</time>
      </trkpt>
      <trkpt lat="45.95775" lon="4.76406">
        <ele>186</ele>
        <time>2016-11-26T09:32:41Z</time>
      </trkpt>
      <trkpt lat="45.95776" lon="4.76413">
        <ele>186</ele>
        <time>2016-11-26T09:32:42Z</time>
      </trkpt>
      <trkpt lat="45.95777" lon="4.76421">
        <ele>186</ele>
        <time>2016-11-26T09:32:43Z</time>
      </trkpt>
      <trkpt lat="45.95777" lon="4.76429">
        <ele>186</ele>
        <time>2016-11-26T09:32:44Z</time>
      </trkpt>
      <trkpt lat="45.95778" lon="4.76436">
        <ele>186</ele>
        <time>2016-11-26T09:32:45Z</time>
      </trkpt>
      <trkpt lat="45.95779" lon="4.76444">
        <ele>186</ele>
        <time>2016-11-26T09:32:46Z</time>
      </trkpt>
      <trkpt lat="45.9578" lon="4.76451">
        <ele>186</ele>
        <time>2016-11-26T09:32:47Z</time>
      </trkpt>
      <trkpt lat="45.95782" lon="4.76459">
        <ele>186</ele>
        <time>2016-11-26T09:32:48Z</time>
      </trkpt>
      <trkpt lat="45.95783" lon="4.76466">
        <ele>186</ele>
        <time>2016-11-26T09:32:49Z</time>
      </trkpt>
      <trkpt lat="45.95783" lon="4.76474">
        <ele>186</ele>
        <time>2016-11-26T09:32:50Z</time>
      </trkpt>
      <trkpt lat="45.95784" lon="4.76482">
        <ele>186</ele>
        <time>2016-11-26T09:32:51Z</time>
      </trkpt>
      <trkpt lat="45.95785" lon="4.76489">
        <ele>186</ele>
        <time>2016-11-26T09:32:52Z</time>
      </trkpt>
      <trkpt lat="45.95787" lon="4.76496">
        <ele>186</ele>
        <time>2016-11-26T09:32:53Z</time>
      </trkpt>
      <trkpt lat="45.95787" lon="4.76503">
        <ele>187</ele>
        <time>2016-11-26T09:32:54Z</time>
      </trkpt>
      <trkpt lat="45.95789" lon="4.7651">
        <ele>187</ele>
        <time>2016-11-26T09:32:55Z</time>
      </trkpt>
      <trkpt lat="45.9579" lon="4.76517">
        <ele>187</ele>
        <time>2016-11-26T09:32:56Z</time>
      </trkpt>
      <trkpt lat="45.95791" lon="4.76525">
        <ele>187</ele>
        <time>2016-11-26T09:32:57Z</time>
      </trkpt>
      <trkpt lat="45.95792" lon="4.76532">
        <ele>187</ele>
        <time>2016-11-26T09:32:58Z</time>
      </trkpt>
      <trkpt lat="45.95793" lon="4.76539">
        <ele>187</ele>
        <time>2016-11-26T09:32:59Z</time>
      </trkpt>
      <trkpt lat="45.95794" lon="4.76546">
        <ele>187</ele>
        <time>2016-11-26T09:33:00Z</time>
      </trkpt>
      <trkpt lat="45.95795" lon="4.76554">
        <ele>187</ele>
        <time>2016-11-26T09:33:01Z</time>
      </trkpt>
      <trkpt lat="45.95796" lon="4.76561">
        <ele>187</ele>
        <time>2016-11-26T09:33:02Z</time>
      </trkpt>
      <trkpt lat="45.95797" lon="4.76569">
        <ele>187</ele>
        <time>2016-11-26T09:33:03Z</time>
      </trkpt>
      <trkpt lat="45.95799" lon="4.76577">
        <ele>187</ele>
        <time>2016-11-26T09:33:04Z</time>
      </trkpt>
      <trkpt lat="45.958" lon="4.76585">
        <ele>187</ele>
        <time>2016-11-26T09:33:05Z</time>
      </trkpt>
      <trkpt lat="45.95801" lon="4.76593">
        <ele>187</ele>
        <time>2016-11-26T09:33:06Z</time>
      </trkpt>
      <trkpt lat="45.95802" lon="4.76601">
        <ele>187</ele>
        <time>2016-11-26T09:33:07Z</time>
      </trkpt>
      <trkpt lat="45.95804" lon="4.76608">
        <ele>188</ele>
        <time>2016-11-26T09:33:08Z</time>
      </trkpt>
      <trkpt lat="45.95805" lon="4.76615">
        <ele>188</ele>
        <time>2016-11-26T09:33:09Z</time>
      </trkpt>
      <trkpt lat="45.95806" lon="4.76623">
        <ele>188</ele>
        <time>2016-11-26T09:33:10Z</time>
      </trkpt>
      <trkpt lat="45.95806" lon="4.7663">
        <ele>188</ele>
        <time>2016-11-26T09:33:11Z</time>
      </trkpt>
      <trkpt lat="45.95807" lon="4.76637">
        <ele>188</ele>
        <time>2016-11-26T09:33:12Z</time>
      </trkpt>
      <trkpt lat="45.95808" lon="4.76645">
        <ele>188</ele>
        <time>2016-11-26T09:33:13Z</time>
      </trkpt>
      <trkpt lat="45.9581" lon="4.76652">
        <ele>188</ele>
        <time>2016-11-26T09:33:14Z</time>
      </trkpt>
      <trkpt lat="45.95811" lon="4.76659">
        <ele>188</ele>
        <time>2016-11-26T09:33:15Z</time>
      </trkpt>
      <trkpt lat="45.95812" lon="4.76666">
        <ele>188</ele>
        <time>2016-11-26T09:33:16Z</time>
      </trkpt>
      <trkpt lat="45.95813" lon="4.76673">
        <ele>189</ele>
        <time>2016-11-26T09:33:17Z</time>
      </trkpt>
      <trkpt lat="45.95814" lon="4.76681">
        <ele>189</ele>
        <time>2016-11-26T09:33:18Z</time>
      </trkpt>
      <trkpt lat="45.95815" lon="4.76687">
        <ele>189</ele>
        <time>2016-11-26T09:33:19Z</time>
      </trkpt>
      <trkpt lat="45.95816" lon="4.76694">
        <ele>189</ele>
        <time>2016-11-26T09:33:20Z</time>
      </trkpt>
      <trkpt lat="45.95817" lon="4.76701">
        <ele>189</ele>
        <time>2016-11-26T09:33:21Z</time>
      </trkpt>
      <trkpt lat="45.95817" lon="4.76708">
        <ele>189</ele>
        <time>2016-11-26T09:33:22Z</time>
      </trkpt>
      <trkpt lat="45.95818" lon="4.76715">
        <ele>189</ele>
        <time>2016-11-26T09:33:23Z</time>
      </trkpt>
      <trkpt lat="45.95819" lon="4.76723">
        <ele>189</ele>
        <time>2016-11-26T09:33:24Z</time>
      </trkpt>
      <trkpt lat="45.9582" lon="4.7673">
        <ele>190</ele>
        <time>2016-11-26T09:33:25Z</time>
      </trkpt>
      <trkpt lat="45.95821" lon="4.76737">
        <ele>190</ele>
        <time>2016-11-26T09:33:26Z</time>
      </trkpt>
      <trkpt lat="45.95822" lon="4.76744">
        <ele>190</ele>
        <time>2016-11-26T09:33:27Z</time>
      </trkpt>
      <trkpt lat="45.95823" lon="4.76751">
        <ele>191</ele>
        <time>2016-11-26T09:33:28Z</time>
      </trkpt>
      <trkpt lat="45.95824" lon="4.76758">
        <ele>191</ele>
        <time>2016-11-26T09:33:29Z</time>
      </trkpt>
      <trkpt lat="45.95826" lon="4.76765">
        <ele>190</ele>
        <time>2016-11-26T09:33:30Z</time>
      </trkpt>
      <trkpt lat="45.95827" lon="4.76771">
        <ele>190</ele>
        <time>2016-11-26T09:33:31Z</time>
      </trkpt>
      <trkpt lat="45.95828" lon="4.76778">
        <ele>190</ele>
        <time>2016-11-26T09:33:32Z</time>
      </trkpt>
      <trkpt lat="45.95829" lon="4.76785">
        <ele>190</ele>
        <time>2016-11-26T09:33:33Z</time>
      </trkpt>
      <trkpt lat="45.9583" lon="4.76791">
        <ele>190</ele>
        <time>2016-11-26T09:33:34Z</time>
      </trkpt>
      <trkpt lat="45.9583" lon="4.76799">
        <ele>190</ele>
        <time>2016-11-26T09:33:35Z</time>
      </trkpt>
      <trkpt lat="45.9583" lon="4.76806">
        <ele>190</ele>
        <time>2016-11-26T09:33:36Z</time>
      </trkpt>
      <trkpt lat="45.95829" lon="4.76814">
        <ele>190</ele>
        <time>2016-11-26T09:33:37Z</time>
      </trkpt>
      <trkpt lat="45.95829" lon="4.76821">
        <ele>190</ele>
        <time>2016-11-26T09:33:38Z</time>
      </trkpt>
      <trkpt lat="45.95828" lon="4.76829">
        <ele>190</ele>
        <time>2016-11-26T09:33:39Z</time>
      </trkpt>
      <trkpt lat="45.95827" lon="4.76836">
        <ele>190</ele>
        <time>2016-11-26T09:33:40Z</time>
      </trkpt>
      <trkpt lat="45.95826" lon="4.76844">
        <ele>190</ele>
        <time>2016-11-26T09:33:41Z</time>
      </trkpt>
      <trkpt lat="45.95825" lon="4.76851">
        <ele>190</ele>
        <time>2016-11-26T09:33:42Z</time>
      </trkpt>
      <trkpt lat="45.95824" lon="4.76859">
        <ele>189</ele>
        <time>2016-11-26T09:33:43Z</time>
      </trkpt>
      <trkpt lat="45.95822" lon="4.76866">
        <ele>189</ele>
        <time>2016-11-26T09:33:44Z</time>
      </trkpt>
      <trkpt lat="45.95821" lon="4.76874">
        <ele>189</ele>
        <time>2016-11-26T09:33:45Z</time>
      </trkpt>
      <trkpt lat="45.95819" lon="4.76881">
        <ele>189</ele>
        <time>2016-11-26T09:33:46Z</time>
      </trkpt>
      <trkpt lat="45.95817" lon="4.76889">
        <ele>189</ele>
        <time>2016-11-26T09:33:47Z</time>
      </trkpt>
      <trkpt lat="45.95816" lon="4.76896">
        <ele>189</ele>
        <time>2016-11-26T09:33:48Z</time>
      </trkpt>
      <trkpt lat="45.95814" lon="4.76904">
        <ele>189</ele>
        <time>2016-11-26T09:33:49Z</time>
      </trkpt>
      <trkpt lat="45.95813" lon="4.76912">
        <ele>189</ele>
        <time>2016-11-26T09:33:50Z</time>
      </trkpt>
      <trkpt lat="45.95812" lon="4.76919">
        <ele>189</ele>
        <time>2016-11-26T09:33:51Z</time>
      </trkpt>
      <trkpt lat="45.9581" lon="4.76927">
        <ele>189</ele>
        <time>2016-11-26T09:33:52Z</time>
      </trkpt>
      <trkpt lat="45.95808" lon="4.76934">
        <ele>189</ele>
        <time>2016-11-26T09:33:53Z</time>
      </trkpt>
      <trkpt lat="45.95807" lon="4.76942">
        <ele>189</ele>
        <time>2016-11-26T09:33:54Z</time>
      </trkpt>
      <trkpt lat="45.95805" lon="4.7695">
        <ele>189</ele>
        <time>2016-11-26T09:33:55Z</time>
      </trkpt>
      <trkpt lat="45.95804" lon="4.76957">
        <ele>189</ele>
        <time>2016-11-26T09:33:56Z</time>
      </trkpt>
      <trkpt lat="45.95802" lon="4.76965">
        <ele>189</ele>
        <time>2016-11-26T09:33:57Z</time>
      </trkpt>
      <trkpt lat="45.95801" lon="4.76972">
        <ele>189</ele>
        <time>2016-11-26T09:33:58Z</time>
      </trkpt>
      <trkpt lat="45.958" lon="4.7698">
        <ele>189</ele>
        <time>2016-11-26T09:33:59Z</time>
      </trkpt>
      <trkpt lat="45.958" lon="4.76987">
        <ele>189</ele>
        <time>2016-11-26T09:34:00Z</time>
      </trkpt>
      <trkpt lat="45.958" lon="4.76995">
        <ele>189</ele>
        <time>2016-11-26T09:34:01Z</time>
      </trkpt>
      <trkpt lat="45.95801" lon="4.77003">
        <ele>190</ele>
        <time>2016-11-26T09:34:02Z</time>
      </trkpt>
      <trkpt lat="45.95802" lon="4.77011">
        <ele>190</ele>
        <time>2016-11-26T09:34:03Z</time>
      </trkpt>
      <trkpt lat="45.95804" lon="4.77019">
        <ele>190</ele>
        <time>2016-11-26T09:34:04Z</time>
      </trkpt>
      <trkpt lat="45.95806" lon="4.77026">
        <ele>190</ele>
        <time>2016-11-26T09:34:05Z</time>
      </trkpt>
      <trkpt lat="45.95809" lon="4.77033">
        <ele>190</ele>
        <time>2016-11-26T09:34:06Z</time>
      </trkpt>
      <trkpt lat="45.95811" lon="4.7704">
        <ele>190</ele>
        <time>2016-11-26T09:34:07Z</time>
      </trkpt>
      <trkpt lat="45.95814" lon="4.77047">
        <ele>190</ele>
        <time>2016-11-26T09:34:08Z</time>
      </trkpt>
      <trkpt lat="45.95818" lon="4.77054">
        <ele>190</ele>
        <time>2016-11-26T09:34:09Z</time>
      </trkpt>
      <trkpt lat="45.95821" lon="4.77061">
        <ele>190</ele>
        <time>2016-11-26T09:34:10Z</time>
      </trkpt>
      <trkpt lat="45.95824" lon="4.77068">
        <ele>191</ele>
        <time>2016-11-26T09:34:11Z</time>
      </trkpt>
      <trkpt lat="45.95826" lon="4.77075">
        <ele>191</ele>
        <time>2016-11-26T09:34:12Z</time>
      </trkpt>
      <trkpt lat="45.95829" lon="4.77082">
        <ele>192</ele>
        <time>2016-11-26T09:34:13Z</time>
      </trkpt>
      <trkpt lat="45.95832" lon="4.77089">
        <ele>191</ele>
        <time>2016-11-26T09:34:14Z</time>
      </trkpt>
      <trkpt lat="45.95834" lon="4.77096">
        <ele>193</ele>
        <time>2016-11-26T09:34:15Z</time>
      </trkpt>
      <trkpt lat="45.95837" lon="4.77103">
        <ele>193</ele>
        <time>2016-11-26T09:34:16Z</time>
      </trkpt>
      <trkpt lat="45.95839" lon="4.7711">
        <ele>193</ele>
        <time>2016-11-26T09:34:17Z</time>
      </trkpt>
      <trkpt lat="45.95841" lon="4.77116">
        <ele>193</ele>
        <time>2016-11-26T09:34:18Z</time>
      </trkpt>
      <trkpt lat="45.95843" lon="4.77123">
        <ele>193</ele>
        <time>2016-11-26T09:34:19Z</time>
      </trkpt>
      <trkpt lat="45.95845" lon="4.7713">
        <ele>193</ele>
        <time>2016-11-26T09:34:20Z</time>
      </trkpt>
      <trkpt lat="45.95847" lon="4.77137">
        <ele>193</ele>
        <time>2016-11-26T09:34:21Z</time>
      </trkpt>
      <trkpt lat="45.95849" lon="4.77144">
        <ele>192</ele>
        <time>2016-11-26T09:34:22Z</time>
      </trkpt>
      <trkpt lat="45.95851" lon="4.77151">
        <ele>192</ele>
        <time>2016-11-26T09:34:23Z</time>
      </trkpt>
      <trkpt lat="45.95853" lon="4.77158">
        <ele>192</ele>
        <time>2016-11-26T09:34:24Z</time>
      </trkpt>
      <trkpt lat="45.95855" lon="4.77165">
        <ele>192</ele>
        <time>2016-11-26T09:34:25Z</time>
      </trkpt>
      <trkpt lat="45.95857" lon="4.77172">
        <ele>192</ele>
        <time>2016-11-26T09:34:26Z</time>
      </trkpt>
      <trkpt lat="45.95859" lon="4.77179">
        <ele>192</ele>
        <time>2016-11-26T09:34:27Z</time>
      </trkpt>
      <trkpt lat="45.95861" lon="4.77186">
        <ele>192</ele>
        <time>2016-11-26T09:34:28Z</time>
      </trkpt>
      <trkpt lat="45.95862" lon="4.77193">
        <ele>192</ele>
        <time>2016-11-26T09:34:29Z</time>
      </trkpt>
      <trkpt lat="45.95864" lon="4.772">
        <ele>193</ele>
        <time>2016-11-26T09:34:30Z</time>
      </trkpt>
      <trkpt lat="45.95866" lon="4.77207">
        <ele>193</ele>
        <time>2016-11-26T09:34:31Z</time>
      </trkpt>
      <trkpt lat="45.95868" lon="4.77214">
        <ele>193</ele>
        <time>2016-11-26T09:34:32Z</time>
      </trkpt>
      <trkpt lat="45.9587" lon="4.77221">
        <ele>193</ele>
        <time>2016-11-26T09:34:33Z</time>
      </trkpt>
      <trkpt lat="45.95871" lon="4.77228">
        <ele>193</ele>
        <time>2016-11-26T09:34:34Z</time>
      </trkpt>
      <trkpt lat="45.95873" lon="4.77235">
        <ele>193</ele>
        <time>2016-11-26T09:34:35Z</time>
      </trkpt>
      <trkpt lat="45.95875" lon="4.77242">
        <ele>193</ele>
        <time>2016-11-26T09:34:36Z</time>
      </trkpt>
      <trkpt lat="45.95876" lon="4.77249">
        <ele>193</ele>
        <time>2016-11-26T09:34:37Z</time>
      </trkpt>
      <trkpt lat="45.95877" lon="4.77256">
        <ele>193</ele>
        <time>2016-11-26T09:34:38Z</time>
      </trkpt>
      <trkpt lat="45.95879" lon="4.77263">
        <ele>193</ele>
        <time>2016-11-26T09:34:39Z</time>
      </trkpt>
      <trkpt lat="45.9588" lon="4.7727">
        <ele>193</ele>
        <time>2016-11-26T09:34:40Z</time>
      </trkpt>
      <trkpt lat="45.95882" lon="4.77277">
        <ele>193</ele>
        <time>2016-11-26T09:34:41Z</time>
      </trkpt>
      <trkpt lat="45.95884" lon="4.77284">
        <ele>193</ele>
        <time>2016-11-26T09:34:42Z</time>
      </trkpt>
      <trkpt lat="45.95885" lon="4.77291">
        <ele>193</ele>
        <time>2016-11-26T09:34:43Z</time>
      </trkpt>
      <trkpt lat="45.95886" lon="4.77298">
        <ele>193</ele>
        <time>2016-11-26T09:34:44Z</time>
      </trkpt>
      <trkpt lat="45.95888" lon="4.77304">
        <ele>193</ele>
        <time>2016-11-26T09:34:45Z</time>
      </trkpt>
      <trkpt lat="45.9589" lon="4.77311">
        <ele>193</ele>
        <time>2016-11-26T09:34:46Z</time>
      </trkpt>
      <trkpt lat="45.95892" lon="4.77318">
        <ele>193</ele>
        <time>2016-11-26T09:34:47Z</time>
      </trkpt>
      <trkpt lat="45.95893" lon="4.77325">
        <ele>193</ele>
        <time>2016-11-26T09:34:48Z</time>
      </trkpt>
      <trkpt lat="45.95896" lon="4.77331">
        <ele>193</ele>
        <time>2016-11-26T09:34:49Z</time>
      </trkpt>
      <trkpt lat="45.95898" lon="4.77338">
        <ele>193</ele>
        <time>2016-11-26T09:34:50Z</time>
      </trkpt>
      <trkpt lat="45.959" lon="4.77344">
        <ele>193</ele>
        <time>2016-11-26T09:34:51Z</time>
      </trkpt>
      <trkpt lat="45.95902" lon="4.77351">
        <ele>193</ele>
        <time>2016-11-26T09:34:52Z</time>
      </trkpt>
      <trkpt lat="45.95904" lon="4.77357">
        <ele>193</ele>
        <time>2016-11-26T09:34:53Z</time>
      </trkpt>
      <trkpt lat="45.95906" lon="4.77364">
        <ele>193</ele>
        <time>2016-11-26T09:34:54Z</time>
      </trkpt>
      <trkpt lat="45.95909" lon="4.7737">
        <ele>193</ele>
        <time>2016-11-26T09:34:55Z</time>
      </trkpt>
      <trkpt lat="45.95911" lon="4.77376">
        <ele>193</ele>
        <time>2016-11-26T09:34:56Z</time>
      </trkpt>
      <trkpt lat="45.95913" lon="4.77383">
        <ele>193</ele>
        <time>2016-11-26T09:34:57Z</time>
      </trkpt>
      <trkpt lat="45.95916" lon="4.7739">
        <ele>193</ele>
        <time>2016-11-26T09:34:58Z</time>
      </trkpt>
      <trkpt lat="45.95918" lon="4.77396">
        <ele>196</ele>
        <time>2016-11-26T09:34:59Z</time>
      </trkpt>
      <trkpt lat="45.95919" lon="4.77402">
        <ele>195</ele>
        <time>2016-11-26T09:35:00Z</time>
      </trkpt>
      <trkpt lat="45.95921" lon="4.77408">
        <ele>195</ele>
        <time>2016-11-26T09:35:01Z</time>
      </trkpt>
      <trkpt lat="45.95924" lon="4.77414">
        <ele>195</ele>
        <time>2016-11-26T09:35:02Z</time>
      </trkpt>
      <trkpt lat="45.95926" lon="4.7742">
        <ele>195</ele>
        <time>2016-11-26T09:35:03Z</time>
      </trkpt>
      <trkpt lat="45.95928" lon="4.77426">
        <ele>195</ele>
        <time>2016-11-26T09:35:04Z</time>
      </trkpt>
      <trkpt lat="45.9593" lon="4.77432">
        <ele>195</ele>
        <time>2016-11-26T09:35:05Z</time>
      </trkpt>
      <trkpt lat="45.95933" lon="4.77438">
        <ele>195</ele>
        <time>2016-11-26T09:35:06Z</time>
      </trkpt>
      <trkpt lat="45.95935" lon="4.77444">
        <ele>195</ele>
        <time>2016-11-26T09:35:07Z</time>
      </trkpt>
      <trkpt lat="45.95937" lon="4.7745">
        <ele>195</ele>
        <time>2016-11-26T09:35:08Z</time>
      </trkpt>
      <trkpt lat="45.9594" lon="4.77457">
        <ele>195</ele>
        <time>2016-11-26T09:35:09Z</time>
      </trkpt>
      <trkpt lat="45.95942" lon="4.77463">
        <ele>195</ele>
        <time>2016-11-26T09:35:10Z</time>
      </trkpt>
      <trkpt lat="45.95944" lon="4.77469">
        <ele>195</ele>
        <time>2016-11-26T09:35:11Z</time>
      </trkpt>
      <trkpt lat="45.95946" lon="4.77475">
        <ele>195</ele>
        <time>2016-11-26T09:35:12Z</time>
      </trkpt>
      <trkpt lat="45.95948" lon="4.77481">
        <ele>195</ele>
        <time>2016-11-26T09:35:13Z</time>
      </trkpt>
      <trkpt lat="45.9595" lon="4.77487">
        <ele>195</ele>
        <time>2016-11-26T09:35:14Z</time>
      </trkpt>
      <trkpt lat="45.95954" lon="4.77497">
        <ele>196</ele>
        <time>2016-11-26T09:35:16Z</time>
      </trkpt>
      <trkpt lat="45.95956" lon="4.77503">
        <ele>195</ele>
        <time>2016-11-26T09:35:17Z</time>
      </trkpt>
      <trkpt lat="45.95961" lon="4.77513">
        <ele>195</ele>
        <time>2016-11-26T09:35:19Z</time>
      </trkpt>
      <trkpt lat="45.95963" lon="4.77519">
        <ele>195</ele>
        <time>2016-11-26T09:35:20Z</time>
      </trkpt>
      <trkpt lat="45.95965" lon="4.77524">
        <ele>195</ele>
        <time>2016-11-26T09:35:21Z</time>
      </trkpt>
      <trkpt lat="45.95968" lon="4.77529">
        <ele>195</ele>
        <time>2016-11-26T09:35:22Z</time>
      </trkpt>
      <trkpt lat="45.95973" lon="4.77539">
        <ele>195</ele>
        <time>2016-11-26T09:35:24Z</time>
      </trkpt>
      <trkpt lat="45.95975" lon="4.77544">
        <ele>195</ele>
        <time>2016-11-26T09:35:25Z</time>
      </trkpt>
      <trkpt lat="45.95979" lon="4.77554">
        <ele>195</ele>
        <time>2016-11-26T09:35:27Z</time>
      </trkpt>
      <trkpt lat="45.95981" lon="4.7756">
        <ele>196</ele>
        <time>2016-11-26T09:35:28Z</time>
      </trkpt>
      <trkpt lat="45.95983" lon="4.77566">
        <ele>196</ele>
        <time>2016-11-26T09:35:29Z</time>
      </trkpt>
      <trkpt lat="45.95986" lon="4.77572">
        <ele>196</ele>
        <time>2016-11-26T09:35:30Z</time>
      </trkpt>
      <trkpt lat="45.95989" lon="4.77579">
        <ele>196</ele>
        <time>2016-11-26T09:35:31Z</time>
      </trkpt>
      <trkpt lat="45.95992" lon="4.77585">
        <ele>196</ele>
        <time>2016-11-26T09:35:32Z</time>
      </trkpt>
      <trkpt lat="45.95994" lon="4.77591">
        <ele>196</ele>
        <time>2016-11-26T09:35:33Z</time>
      </trkpt>
      <trkpt lat="45.95997" lon="4.77597">
        <ele>196</ele>
        <time>2016-11-26T09:35:34Z</time>
      </trkpt>
      <trkpt lat="45.96001" lon="4.77602">
        <ele>198</ele>
        <time>2016-11-26T09:35:35Z</time>
      </trkpt>
      <trkpt lat="45.96004" lon="4.77606">
        <ele>198</ele>
        <time>2016-11-26T09:35:36Z</time>
      </trkpt>
      <trkpt lat="45.96008" lon="4.7761">
        <ele>199</ele>
        <time>2016-11-26T09:35:37Z</time>
      </trkpt>
      <trkpt lat="45.96012" lon="4.77614">
        <ele>199</ele>
        <time>2016-11-26T09:35:38Z</time>
      </trkpt>
      <trkpt lat="45.96016" lon="4.77618">
        <ele>199</ele>
        <time>2016-11-26T09:35:39Z</time>
      </trkpt>
      <trkpt lat="45.9602" lon="4.77623">
        <ele>199</ele>
        <time>2016-11-26T09:35:40Z</time>
      </trkpt>
      <trkpt lat="45.96023" lon="4.77628">
        <ele>199</ele>
        <time>2016-11-26T09:35:41Z</time>
      </trkpt>
      <trkpt lat="45.96027" lon="4.77633">
        <ele>199</ele>
        <time>2016-11-26T09:35:42Z</time>
      </trkpt>
      <trkpt lat="45.96031" lon="4.77637">
        <ele>199</ele>
        <time>2016-11-26T09:35:43Z</time>
      </trkpt>
      <trkpt lat="45.96034" lon="4.7764">
        <ele>199</ele>
        <time>2016-11-26T09:35:44Z</time>
      </trkpt>
      <trkpt lat="45.96038" lon="4.77644">
        <ele>199</ele>
        <time>2016-11-26T09:35:45Z</time>
      </trkpt>
      <trkpt lat="45.96042" lon="4.77648">
        <ele>199</ele>
        <time>2016-11-26T09:35:46Z</time>
      </trkpt>
      <trkpt lat="45.96048" lon="4.77657">
        <ele>199</ele>
        <time>2016-11-26T09:35:48Z</time>
      </trkpt>
      <trkpt lat="45.96051" lon="4.77662">
        <ele>200</ele>
        <time>2016-11-26T09:35:49Z</time>
      </trkpt>
      <trkpt lat="45.96054" lon="4.77667">
        <ele>197</ele>
        <time>2016-11-26T09:35:50Z</time>
      </trkpt>
      <trkpt lat="45.96058" lon="4.77672">
        <ele>198</ele>
        <time>2016-11-26T09:35:51Z</time>
      </trkpt>
      <trkpt lat="45.96061" lon="4.77678">
        <ele>198</ele>
        <time>2016-11-26T09:35:52Z</time>
      </trkpt>
      <trkpt lat="45.96064" lon="4.77682">
        <ele>198</ele>
        <time>2016-11-26T09:35:53Z</time>
      </trkpt>
      <trkpt lat="45.96068" lon="4.77687">
        <ele>198</ele>
        <time>2016-11-26T09:35:54Z</time>
      </trkpt>
      <trkpt lat="45.96072" lon="4.77692">
        <ele>197</ele>
        <time>2016-11-26T09:35:55Z</time>
      </trkpt>
      <trkpt lat="45.96075" lon="4.77696">
        <ele>197</ele>
        <time>2016-11-26T09:35:56Z</time>
      </trkpt>
      <trkpt lat="45.96078" lon="4.77702">
        <ele>197</ele>
        <time>2016-11-26T09:35:57Z</time>
      </trkpt>
      <trkpt lat="45.96081" lon="4.77707">
        <ele>197</ele>
        <time>2016-11-26T09:35:58Z</time>
      </trkpt>
      <trkpt lat="45.96085" lon="4.77713">
        <ele>199</ele>
        <time>2016-11-26T09:35:59Z</time>
      </trkpt>
      <trkpt lat="45.96088" lon="4.77718">
        <ele>199</ele>
        <time>2016-11-26T09:36:00Z</time>
      </trkpt>
      <trkpt lat="45.96091" lon="4.77723">
        <ele>199</ele>
        <time>2016-11-26T09:36:01Z</time>
      </trkpt>
      <trkpt lat="45.96094" lon="4.77728">
        <ele>199</ele>
        <time>2016-11-26T09:36:02Z</time>
      </trkpt>
      <trkpt lat="45.96098" lon="4.77733">
        <ele>198</ele>
        <time>2016-11-26T09:36:03Z</time>
      </trkpt>
      <trkpt lat="45.96101" lon="4.77739">
        <ele>198</ele>
        <time>2016-11-26T09:36:04Z</time>
      </trkpt>
      <trkpt lat="45.96104" lon="4.77744">
        <ele>198</ele>
        <time>2016-11-26T09:36:05Z</time>
      </trkpt>
      <trkpt lat="45.96107" lon="4.77749">
        <ele>199</ele>
        <time>2016-11-26T09:36:06Z</time>
      </trkpt>
      <trkpt lat="45.9611" lon="4.77754">
        <ele>197</ele>
        <time>2016-11-26T09:36:07Z</time>
      </trkpt>
      <trkpt lat="45.96113" lon="4.77759">
        <ele>197</ele>
        <time>2016-11-26T09:36:08Z</time>
      </trkpt>
      <trkpt lat="45.96116" lon="4.77764">
        <ele>197</ele>
        <time>2016-11-26T09:36:09Z</time>
      </trkpt>
      <trkpt lat="45.96119" lon="4.77769">
        <ele>197</ele>
        <time>2016-11-26T09:36:10Z</time>
      </trkpt>
      <trkpt lat="45.96122" lon="4.77773">
        <ele>197</ele>
        <time>2016-11-26T09:36:11Z</time>
      </trkpt>
      <trkpt lat="45.96125" lon="4.77778">
        <ele>197</ele>
        <time>2016-11-26T09:36:12Z</time>
      </trkpt>
      <trkpt lat="45.96128" lon="4.77783">
        <ele>198</ele>
        <time>2016-11-26T09:36:13Z</time>
      </trkpt>
      <trkpt lat="45.96131" lon="4.77788">
        <ele>198</ele>
        <time>2016-11-26T09:36:14Z</time>
      </trkpt>
      <trkpt lat="45.96134" lon="4.77793">
        <ele>198</ele>
        <time>2016-11-26T09:36:15Z</time>
      </trkpt>
      <trkpt lat="45.96138" lon="4.77798">
        <ele>198</ele>
        <time>2016-11-26T09:36:16Z</time>
      </trkpt>
      <trkpt lat="45.96141" lon="4.77803">
        <ele>198</ele>
        <time>2016-11-26T09:36:17Z</time>
      </trkpt>
      <trkpt lat="45.96144" lon="4.77808">
        <ele>198</ele>
        <time>2016-11-26T09:36:18Z</time>
      </trkpt>
      <trkpt lat="45.96147" lon="4.77812">
        <ele>198</ele>
        <time>2016-11-26T09:36:19Z</time>
      </trkpt>
      <trkpt lat="45.96154" lon="4.77821">
        <ele>198</ele>
        <time>2016-11-26T09:36:21Z</time>
      </trkpt>
      <trkpt lat="45.96157" lon="4.77827">
        <ele>198</ele>
        <time>2016-11-26T09:36:22Z</time>
      </trkpt>
      <trkpt lat="45.9616" lon="4.77832">
        <ele>199</ele>
        <time>2016-11-26T09:36:23Z</time>
      </trkpt>
      <trkpt lat="45.96163" lon="4.77838">
        <ele>198</ele>
        <time>2016-11-26T09:36:24Z</time>
      </trkpt>
      <trkpt lat="45.96166" lon="4.77845">
        <ele>197</ele>
        <time>2016-11-26T09:36:25Z</time>
      </trkpt>
      <trkpt lat="45.9617" lon="4.77852">
        <ele>201</ele>
        <time>2016-11-26T09:36:26Z</time>
      </trkpt>
      <trkpt lat="45.96173" lon="4.77859">
        <ele>201</ele>
        <time>2016-11-26T09:36:27Z</time>
      </trkpt>
      <trkpt lat="45.96177" lon="4.77865">
        <ele>201</ele>
        <time>2016-11-26T09:36:28Z</time>
      </trkpt>
      <trkpt lat="45.9618" lon="4.77871">
        <ele>201</ele>
        <time>2016-11-26T09:36:29Z</time>
      </trkpt>
      <trkpt lat="45.96183" lon="4.77877">
        <ele>201</ele>
        <time>2016-11-26T09:36:30Z</time>
      </trkpt>
      <trkpt lat="45.96187" lon="4.77883">
        <ele>201</ele>
        <time>2016-11-26T09:36:31Z</time>
      </trkpt>
      <trkpt lat="45.9619" lon="4.77888">
        <ele>201</ele>
        <time>2016-11-26T09:36:32Z</time>
      </trkpt>
      <trkpt lat="45.96194" lon="4.77893">
        <ele>201</ele>
        <time>2016-11-26T09:36:33Z</time>
      </trkpt>
      <trkpt lat="45.96197" lon="4.77897">
        <ele>201</ele>
        <time>2016-11-26T09:36:34Z</time>
      </trkpt>
      <trkpt lat="45.96199" lon="4.77903">
        <ele>201</ele>
        <time>2016-11-26T09:36:35Z</time>
      </trkpt>
      <trkpt lat="45.96202" lon="4.77908">
        <ele>202</ele>
        <time>2016-11-26T09:36:36Z</time>
      </trkpt>
      <trkpt lat="45.96206" lon="4.77913">
        <ele>202</ele>
        <time>2016-11-26T09:36:37Z</time>
      </trkpt>
      <trkpt lat="45.96209" lon="4.77918">
        <ele>199</ele>
        <time>2016-11-26T09:36:38Z</time>
      </trkpt>
      <trkpt lat="45.96212" lon="4.77924">
        <ele>199</ele>
        <time>2016-11-26T09:36:39Z</time>
      </trkpt>
      <trkpt lat="45.96216" lon="4.77929">
        <ele>200</ele>
        <time>2016-11-26T09:36:40Z</time>
      </trkpt>
      <trkpt lat="45.96219" lon="4.77934">
        <ele>200</ele>
        <time>2016-11-26T09:36:41Z</time>
      </trkpt>
      <trkpt lat="45.96222" lon="4.77939">
        <ele>200</ele>
        <time>2016-11-26T09:36:42Z</time>
      </trkpt>
      <trkpt lat="45.96225" lon="4.77945">
        <ele>200</ele>
        <time>2016-11-26T09:36:43Z</time>
      </trkpt>
      <trkpt lat="45.96229" lon="4.7795">
        <ele>199</ele>
        <time>2016-11-26T09:36:44Z</time>
      </trkpt>
      <trkpt lat="45.96233" lon="4.77954">
        <ele>199</ele>
        <time>2016-11-26T09:36:45Z</time>
      </trkpt>
      <trkpt lat="45.96236" lon="4.77958">
        <ele>199</ele>
        <time>2016-11-26T09:36:46Z</time>
      </trkpt>
      <trkpt lat="45.96241" lon="4.77962">
        <ele>199</ele>
        <time>2016-11-26T09:36:47Z</time>
      </trkpt>
      <trkpt lat="45.96245" lon="4.77966">
        <ele>199</ele>
        <time>2016-11-26T09:36:48Z</time>
      </trkpt>
      <trkpt lat="45.96249" lon="4.7797">
        <ele>198</ele>
        <time>2016-11-26T09:36:49Z</time>
      </trkpt>
      <trkpt lat="45.96253" lon="4.77974">
        <ele>203</ele>
        <time>2016-11-26T09:36:50Z</time>
      </trkpt>
      <trkpt lat="45.96257" lon="4.77979">
        <ele>202</ele>
        <time>2016-11-26T09:36:51Z</time>
      </trkpt>
      <trkpt lat="45.96261" lon="4.77982">
        <ele>202</ele>
        <time>2016-11-26T09:36:52Z</time>
      </trkpt>
      <trkpt lat="45.96266" lon="4.77986">
        <ele>202</ele>
        <time>2016-11-26T09:36:53Z</time>
      </trkpt>
      <trkpt lat="45.9627" lon="4.77989">
        <ele>202</ele>
        <time>2016-11-26T09:36:54Z</time>
      </trkpt>
      <trkpt lat="45.96274" lon="4.77994">
        <ele>202</ele>
        <time>2016-11-26T09:36:55Z</time>
      </trkpt>
      <trkpt lat="45.96279" lon="4.77998">
        <ele>203</ele>
        <time>2016-11-26T09:36:56Z</time>
      </trkpt>
      <trkpt lat="45.96283" lon="4.78002">
        <ele>198</ele>
        <time>2016-11-26T09:36:57Z</time>
      </trkpt>
      <trkpt lat="45.96289" lon="4.78006">
        <ele>199</ele>
        <time>2016-11-26T09:36:58Z</time>
      </trkpt>
      <trkpt lat="45.96293" lon="4.7801">
        <ele>199</ele>
        <time>2016-11-26T09:36:59Z</time>
      </trkpt>
      <trkpt lat="45.96298" lon="4.78015">
        <ele>199</ele>
        <time>2016-11-26T09:37:00Z</time>
      </trkpt>
      <trkpt lat="45.96302" lon="4.7802">
        <ele>199</ele>
        <time>2016-11-26T09:37:01Z</time>
      </trkpt>
      <trkpt lat="45.96306" lon="4.78024">
        <ele>200</ele>
        <time>2016-11-26T09:37:02Z</time>
      </trkpt>
      <trkpt lat="45.9631" lon="4.78029">
        <ele>200</ele>
        <time>2016-11-26T09:37:03Z</time>
      </trkpt>
      <trkpt lat="45.96315" lon="4.78034">
        <ele>199</ele>
        <time>2016-11-26T09:37:04Z</time>
      </trkpt>
      <trkpt lat="45.96318" lon="4.78039">
        <ele>199</ele>
        <time>2016-11-26T09:37:05Z</time>
      </trkpt>
      <trkpt lat="45.96323" lon="4.78044">
        <ele>199</ele>
        <time>2016-11-26T09:37:06Z</time>
      </trkpt>
      <trkpt lat="45.96327" lon="4.78049">
        <ele>199</ele>
        <time>2016-11-26T09:37:07Z</time>
      </trkpt>
      <trkpt lat="45.96331" lon="4.78054">
        <ele>199</ele>
        <time>2016-11-26T09:37:08Z</time>
      </trkpt>
      <trkpt lat="45.96335" lon="4.78059">
        <ele>202</ele>
        <time>2016-11-26T09:37:09Z</time>
      </trkpt>
      <trkpt lat="45.96339" lon="4.78064">
        <ele>201</ele>
        <time>2016-11-26T09:37:10Z</time>
      </trkpt>
      <trkpt lat="45.96343" lon="4.78069">
        <ele>201</ele>
        <time>2016-11-26T09:37:11Z</time>
      </trkpt>
      <trkpt lat="45.96347" lon="4.78074">
        <ele>201</ele>
        <time>2016-11-26T09:37:12Z</time>
      </trkpt>
      <trkpt lat="45.96351" lon="4.78079">
        <ele>201</ele>
        <time>2016-11-26T09:37:13Z</time>
      </trkpt>
      <trkpt lat="45.96356" lon="4.78084">
        <ele>199</ele>
        <time>2016-11-26T09:37:14Z</time>
      </trkpt>
      <trkpt lat="45.9636" lon="4.78089">
        <ele>199</ele>
        <time>2016-11-26T09:37:15Z</time>
      </trkpt>
      <trkpt lat="45.96364" lon="4.78094">
        <ele>199</ele>
        <time>2016-11-26T09:37:16Z</time>
      </trkpt>
      <trkpt lat="45.96368" lon="4.78098">
        <ele>199</ele>
        <time>2016-11-26T09:37:17Z</time>
      </trkpt>
      <trkpt lat="45.96372" lon="4.78101">
        <ele>199</ele>
        <time>2016-11-26T09:37:18Z</time>
      </trkpt>
      <trkpt lat="45.96376" lon="4.78104">
        <ele>199</ele>
        <time>2016-11-26T09:37:19Z</time>
      </trkpt>
      <trkpt lat="45.96379" lon="4.78108">
        <ele>200</ele>
        <time>2016-11-26T09:37:20Z</time>
      </trkpt>
      <trkpt lat="45.96383" lon="4.78112">
        <ele>200</ele>
        <time>2016-11-26T09:37:21Z</time>
      </trkpt>
      <trkpt lat="45.96387" lon="4.78115">
        <ele>200</ele>
        <time>2016-11-26T09:37:22Z</time>
      </trkpt>
      <trkpt lat="45.96391" lon="4.78119">
        <ele>200</ele>
        <time>2016-11-26T09:37:23Z</time>
      </trkpt>
      <trkpt lat="45.96395" lon="4.78122">
        <ele>200</ele>
        <time>2016-11-26T09:37:24Z</time>
      </trkpt>
      <trkpt lat="45.96402" lon="4.78128">
        <ele>199</ele>
        <time>2016-11-26T09:37:26Z</time>
      </trkpt>
      <trkpt lat="45.96406" lon="4.78131">
        <ele>199</ele>
        <time>2016-11-26T09:37:27Z</time>
      </trkpt>
      <trkpt lat="45.9641" lon="4.78135">
        <ele>199</ele>
        <time>2016-11-26T09:37:28Z</time>
      </trkpt>
      <trkpt lat="45.96414" lon="4.78139">
        <ele>199</ele>
        <time>2016-11-26T09:37:29Z</time>
      </trkpt>
      <trkpt lat="45.96419" lon="4.78143">
        <ele>202</ele>
        <time>2016-11-26T09:37:30Z</time>
      </trkpt>
      <trkpt lat="45.96423" lon="4.78148">
        <ele>202</ele>
        <time>2016-11-26T09:37:31Z</time>
      </trkpt>
      <trkpt lat="45.96427" lon="4.78152">
        <ele>202</ele>
        <time>2016-11-26T09:37:32Z</time>
      </trkpt>
      <trkpt lat="45.96431" lon="4.78156">
        <ele>202</ele>
        <time>2016-11-26T09:37:33Z</time>
      </trkpt>
      <trkpt lat="45.96436" lon="4.7816">
        <ele>202</ele>
        <time>2016-11-26T09:37:34Z</time>
      </trkpt>
      <trkpt lat="45.96441" lon="4.78164">
        <ele>203</ele>
        <time>2016-11-26T09:37:35Z</time>
      </trkpt>
      <trkpt lat="45.96445" lon="4.78168">
        <ele>199</ele>
        <time>2016-11-26T09:37:36Z</time>
      </trkpt>
      <trkpt lat="45.9645" lon="4.78173">
        <ele>199</ele>
        <time>2016-11-26T09:37:37Z</time>
      </trkpt>
      <trkpt lat="45.96454" lon="4.78177">
        <ele>200</ele>
        <time>2016-11-26T09:37:38Z</time>
      </trkpt>
      <trkpt lat="45.96458" lon="4.78181">
        <ele>200</ele>
        <time>2016-11-26T09:37:39Z</time>
      </trkpt>
      <trkpt lat="45.96463" lon="4.78184">
        <ele>200</ele>
        <time>2016-11-26T09:37:40Z</time>
      </trkpt>
      <trkpt lat="45.96467" lon="4.78187">
        <ele>200</ele>
        <time>2016-11-26T09:37:41Z</time>
      </trkpt>
      <trkpt lat="45.96472" lon="4.78189">
        <ele>200</ele>
        <time>2016-11-26T09:37:42Z</time>
      </trkpt>
      <trkpt lat="45.96476" lon="4.78191">
        <ele>200</ele>
        <time>2016-11-26T09:37:43Z</time>
      </trkpt>
      <trkpt lat="45.96484" lon="4.78196">
        <ele>200</ele>
        <time>2016-11-26T09:37:45Z</time>
      </trkpt>
      <trkpt lat="45.96488" lon="4.78199">
        <ele>200</ele>
        <time>2016-11-26T09:37:46Z</time>
      </trkpt>
      <trkpt lat="45.96492" lon="4.78203">
        <ele>200</ele>
        <time>2016-11-26T09:37:47Z</time>
      </trkpt>
      <trkpt lat="45.96497" lon="4.78207">
        <ele>200</ele>
        <time>2016-11-26T09:37:48Z</time>
      </trkpt>
      <trkpt lat="45.96501" lon="4.78211">
        <ele>205</ele>
        <time>2016-11-26T09:37:49Z</time>
      </trkpt>
      <trkpt lat="45.96505" lon="4.78216">
        <ele>204</ele>
        <time>2016-11-26T09:37:50Z</time>
      </trkpt>
      <trkpt lat="45.9651" lon="4.78221">
        <ele>204</ele>
        <time>2016-11-26T09:37:51Z</time>
      </trkpt>
      <trkpt lat="45.96514" lon="4.78227">
        <ele>204</ele>
        <time>2016-11-26T09:37:52Z</time>
      </trkpt>
      <trkpt lat="45.96517" lon="4.78232">
        <ele>203</ele>
        <time>2016-11-26T09:37:53Z</time>
      </trkpt>
      <trkpt lat="45.96521" lon="4.78237">
        <ele>203</ele>
        <time>2016-11-26T09:37:54Z</time>
      </trkpt>
      <trkpt lat="45.96524" lon="4.78243">
        <ele>203</ele>
        <time>2016-11-26T09:37:55Z</time>
      </trkpt>
      <trkpt lat="45.96527" lon="4.78248">
        <ele>204</ele>
        <time>2016-11-26T09:37:56Z</time>
      </trkpt>
      <trkpt lat="45.96529" lon="4.78253">
        <ele>200</ele>
        <time>2016-11-26T09:37:57Z</time>
      </trkpt>
      <trkpt lat="45.96532" lon="4.78258">
        <ele>200</ele>
        <time>2016-11-26T09:37:58Z</time>
      </trkpt>
      <trkpt lat="45.96536" lon="4.78263">
        <ele>200</ele>
        <time>2016-11-26T09:37:59Z</time>
      </trkpt>
      <trkpt lat="45.96539" lon="4.78268">
        <ele>200</ele>
        <time>2016-11-26T09:38:00Z</time>
      </trkpt>
      <trkpt lat="45.96545" lon="4.78277">
        <ele>200</ele>
        <time>2016-11-26T09:38:02Z</time>
      </trkpt>
      <trkpt lat="45.96548" lon="4.78282">
        <ele>200</ele>
        <time>2016-11-26T09:38:03Z</time>
      </trkpt>
      <trkpt lat="45.96551" lon="4.78286">
        <ele>200</ele>
        <time>2016-11-26T09:38:04Z</time>
      </trkpt>
      <trkpt lat="45.96554" lon="4.78291">
        <ele>200</ele>
        <time>2016-11-26T09:38:05Z</time>
      </trkpt>
      <trkpt lat="45.96558" lon="4.78295">
        <ele>200</ele>
        <time>2016-11-26T09:38:06Z</time>
      </trkpt>
      <trkpt lat="45.96562" lon="4.78299">
        <ele>200</ele>
        <time>2016-11-26T09:38:07Z</time>
      </trkpt>
      <trkpt lat="45.96566" lon="4.78303">
        <ele>200</ele>
        <time>2016-11-26T09:38:08Z</time>
      </trkpt>
      <trkpt lat="45.9657" lon="4.78306">
        <ele>200</ele>
        <time>2016-11-26T09:38:09Z</time>
      </trkpt>
      <trkpt lat="45.96574" lon="4.7831">
        <ele>199</ele>
        <time>2016-11-26T09:38:10Z</time>
      </trkpt>
      <trkpt lat="45.96578" lon="4.78314">
        <ele>199</ele>
        <time>2016-11-26T09:38:11Z</time>
      </trkpt>
      <trkpt lat="45.96582" lon="4.78318">
        <ele>199</ele>
        <time>2016-11-26T09:38:12Z</time>
      </trkpt>
      <trkpt lat="45.96585" lon="4.78323">
        <ele>201</ele>
        <time>2016-11-26T09:38:13Z</time>
      </trkpt>
      <trkpt lat="45.96589" lon="4.78327">
        <ele>201</ele>
        <time>2016-11-26T09:38:14Z</time>
      </trkpt>
      <trkpt lat="45.96593" lon="4.78331">
        <ele>201</ele>
        <time>2016-11-26T09:38:15Z</time>
      </trkpt>
      <trkpt lat="45.96598" lon="4.78336">
        <ele>199</ele>
        <time>2016-11-26T09:38:16Z</time>
      </trkpt>
      <trkpt lat="45.96602" lon="4.7834">
        <ele>200</ele>
        <time>2016-11-26T09:38:17Z</time>
      </trkpt>
      <trkpt lat="45.96606" lon="4.78344">
        <ele>200</ele>
        <time>2016-11-26T09:38:18Z</time>
      </trkpt>
      <trkpt lat="45.9661" lon="4.78348">
        <ele>200</ele>
        <time>2016-11-26T09:38:19Z</time>
      </trkpt>
      <trkpt lat="45.96614" lon="4.78351">
        <ele>200</ele>
        <time>2016-11-26T09:38:20Z</time>
      </trkpt>
      <trkpt lat="45.96617" lon="4.78355">
        <ele>201</ele>
        <time>2016-11-26T09:38:21Z</time>
      </trkpt>
      <trkpt lat="45.96625" lon="4.78363">
        <ele>201</ele>
        <time>2016-11-26T09:38:23Z</time>
      </trkpt>
      <trkpt lat="45.96628" lon="4.78366">
        <ele>201</ele>
        <time>2016-11-26T09:38:24Z</time>
      </trkpt>
      <trkpt lat="45.96632" lon="4.7837">
        <ele>201</ele>
        <time>2016-11-26T09:38:25Z</time>
      </trkpt>
      <trkpt lat="45.96636" lon="4.78373">
        <ele>201</ele>
        <time>2016-11-26T09:38:26Z</time>
      </trkpt>
      <trkpt lat="45.96644" lon="4.78379">
        <ele>201</ele>
        <time>2016-11-26T09:38:28Z</time>
      </trkpt>
      <trkpt lat="45.96648" lon="4.78381">
        <ele>201</ele>
        <time>2016-11-26T09:38:29Z</time>
      </trkpt>
      <trkpt lat="45.96652" lon="4.78384">
        <ele>201</ele>
        <time>2016-11-26T09:38:30Z</time>
      </trkpt>
      <trkpt lat="45.96656" lon="4.78388">
        <ele>201</ele>
        <time>2016-11-26T09:38:31Z</time>
      </trkpt>
      <trkpt lat="45.96663" lon="4.78396">
        <ele>201</ele>
        <time>2016-11-26T09:38:33Z</time>
      </trkpt>
      <trkpt lat="45.96667" lon="4.784">
        <ele>201</ele>
        <time>2016-11-26T09:38:34Z</time>
      </trkpt>
      <trkpt lat="45.96674" lon="4.78408">
        <ele>203</ele>
        <time>2016-11-26T09:38:36Z</time>
      </trkpt>
      <trkpt lat="45.96677" lon="4.78412">
        <ele>203</ele>
        <time>2016-11-26T09:38:37Z</time>
      </trkpt>
      <trkpt lat="45.96684" lon="4.78419">
        <ele>202</ele>
        <time>2016-11-26T09:38:39Z</time>
      </trkpt>
      <trkpt lat="45.96688" lon="4.78423">
        <ele>202</ele>
        <time>2016-11-26T09:38:40Z</time>
      </trkpt>
      <trkpt lat="45.96695" lon="4.7843">
        <ele>202</ele>
        <time>2016-11-26T09:38:42Z</time>
      </trkpt>
      <trkpt lat="45.96698" lon="4.78434">
        <ele>203</ele>
        <time>2016-11-26T09:38:43Z</time>
      </trkpt>
      <trkpt lat="45.96702" lon="4.78437">
        <ele>203</ele>
        <time>2016-11-26T09:38:44Z</time>
      </trkpt>
      <trkpt lat="45.96706" lon="4.78442">
        <ele>203</ele>
        <time>2016-11-26T09:38:45Z</time>
      </trkpt>
      <trkpt lat="45.96709" lon="4.78446">
        <ele>203</ele>
        <time>2016-11-26T09:38:46Z</time>
      </trkpt>
      <trkpt lat="45.96714" lon="4.7845">
        <ele>203</ele>
        <time>2016-11-26T09:38:47Z</time>
      </trkpt>
      <trkpt lat="45.96718" lon="4.78455">
        <ele>203</ele>
        <time>2016-11-26T09:38:48Z</time>
      </trkpt>
      <trkpt lat="45.96722" lon="4.78459">
        <ele>203</ele>
        <time>2016-11-26T09:38:49Z</time>
      </trkpt>
      <trkpt lat="45.96727" lon="4.78464">
        <ele>203</ele>
        <time>2016-11-26T09:38:50Z</time>
      </trkpt>
      <trkpt lat="45.96731" lon="4.78468">
        <ele>203</ele>
        <time>2016-11-26T09:38:51Z</time>
      </trkpt>
      <trkpt lat="45.96735" lon="4.78472">
        <ele>203</ele>
        <time>2016-11-26T09:38:52Z</time>
      </trkpt>
      <trkpt lat="45.9674" lon="4.78475">
        <ele>203</ele>
        <time>2016-11-26T09:38:53Z</time>
      </trkpt>
      <trkpt lat="45.96744" lon="4.78479">
        <ele>203</ele>
        <time>2016-11-26T09:38:54Z</time>
      </trkpt>
      <trkpt lat="45.96748" lon="4.78483">
        <ele>203</ele>
        <time>2016-11-26T09:38:55Z</time>
      </trkpt>
      <trkpt lat="45.96753" lon="4.78487">
        <ele>204</ele>
        <time>2016-11-26T09:38:56Z</time>
      </trkpt>
      <trkpt lat="45.96757" lon="4.7849">
        <ele>204</ele>
        <time>2016-11-26T09:38:57Z</time>
      </trkpt>
      <trkpt lat="45.96761" lon="4.78495">
        <ele>204</ele>
        <time>2016-11-26T09:38:58Z</time>
      </trkpt>
      <trkpt lat="45.96764" lon="4.78499">
        <ele>204</ele>
        <time>2016-11-26T09:38:59Z</time>
      </trkpt>
      <trkpt lat="45.96767" lon="4.78504">
        <ele>203</ele>
        <time>2016-11-26T09:39:00Z</time>
      </trkpt>
      <trkpt lat="45.9677" lon="4.78509">
        <ele>203</ele>
        <time>2016-11-26T09:39:01Z</time>
      </trkpt>
      <trkpt lat="45.96776" lon="4.78517">
        <ele>203</ele>
        <time>2016-11-26T09:39:03Z</time>
      </trkpt>
      <trkpt lat="45.96779" lon="4.78521">
        <ele>203</ele>
        <time>2016-11-26T09:39:04Z</time>
      </trkpt>
      <trkpt lat="45.96786" lon="4.7853">
        <ele>203</ele>
        <time>2016-11-26T09:39:06Z</time>
      </trkpt>
      <trkpt lat="45.96788" lon="4.78535">
        <ele>203</ele>
        <time>2016-11-26T09:39:07Z</time>
      </trkpt>
      <trkpt lat="45.96792" lon="4.7854">
        <ele>203</ele>
        <time>2016-11-26T09:39:08Z</time>
      </trkpt>
      <trkpt lat="45.96795" lon="4.78545">
        <ele>203</ele>
        <time>2016-11-26T09:39:09Z</time>
      </trkpt>
      <trkpt lat="45.96798" lon="4.7855">
        <ele>203</ele>
        <time>2016-11-26T09:39:10Z</time>
      </trkpt>
      <trkpt lat="45.96801" lon="4.78555">
        <ele>203</ele>
        <time>2016-11-26T09:39:11Z</time>
      </trkpt>
      <trkpt lat="45.96804" lon="4.7856">
        <ele>203</ele>
        <time>2016-11-26T09:39:12Z</time>
      </trkpt>
      <trkpt lat="45.96807" lon="4.78564">
        <ele>203</ele>
        <time>2016-11-26T09:39:13Z</time>
      </trkpt>
      <trkpt lat="45.96813" lon="4.78571">
        <ele>203</ele>
        <time>2016-11-26T09:39:15Z</time>
      </trkpt>
      <trkpt lat="45.96817" lon="4.78572">
        <ele>203</ele>
        <time>2016-11-26T09:39:16Z</time>
      </trkpt>
      <trkpt lat="45.96823" lon="4.78572">
        <ele>203</ele>
        <time>2016-11-26T09:39:18Z</time>
      </trkpt>
      <trkpt lat="45.96826" lon="4.78571">
        <ele>203</ele>
        <time>2016-11-26T09:39:19Z</time>
      </trkpt>
      <trkpt lat="45.96833" lon="4.78566">
        <ele>203</ele>
        <time>2016-11-26T09:39:22Z</time>
      </trkpt>
      <trkpt lat="45.96835" lon="4.78564">
        <ele>205</ele>
        <time>2016-11-26T09:39:23Z</time>
      </trkpt>
      <trkpt lat="45.9684" lon="4.78555">
        <ele>206</ele>
        <time>2016-11-26T09:39:26Z</time>
      </trkpt>
      <trkpt lat="45.96841" lon="4.78553">
        <ele>206</ele>
        <time>2016-11-26T09:39:27Z</time>
      </trkpt>
      <trkpt lat="45.96847" lon="4.78547">
        <ele>206</ele>
        <time>2016-11-26T09:39:30Z</time>
      </trkpt>
      <trkpt lat="45.96848" lon="4.78544">
        <ele>206</ele>
        <time>2016-11-26T09:39:31Z</time>
      </trkpt>
      <trkpt lat="45.96854" lon="4.78536">
        <ele>207</ele>
        <time>2016-11-26T09:39:35Z</time>
      </trkpt>
      <trkpt lat="45.96856" lon="4.78534">
        <ele>207</ele>
        <time>2016-11-26T09:39:36Z</time>
      </trkpt>
      <trkpt lat="45.96861" lon="4.78527">
        <ele>207</ele>
        <time>2016-11-26T09:39:39Z</time>
      </trkpt>
      <trkpt lat="45.96863" lon="4.78525">
        <ele>207</ele>
        <time>2016-11-26T09:39:40Z</time>
      </trkpt>
      <trkpt lat="45.96869" lon="4.78519">
        <ele>208</ele>
        <time>2016-11-26T09:39:43Z</time>
      </trkpt>
      <trkpt lat="45.96871" lon="4.78517">
        <ele>208</ele>
        <time>2016-11-26T09:39:44Z</time>
      </trkpt>
      <trkpt lat="45.96878" lon="4.78514">
        <ele>208</ele>
        <time>2016-11-26T09:39:47Z</time>
      </trkpt>
      <trkpt lat="45.9688" lon="4.78512">
        <ele>208</ele>
        <time>2016-11-26T09:39:48Z</time>
      </trkpt>
      <trkpt lat="45.96885" lon="4.78505">
        <ele>209</ele>
        <time>2016-11-26T09:39:52Z</time>
      </trkpt>
      <trkpt lat="45.96887" lon="4.78503">
        <ele>209</ele>
        <time>2016-11-26T09:39:53Z</time>
      </trkpt>
      <trkpt lat="45.96893" lon="4.78495">
        <ele>213</ele>
        <time>2016-11-26T09:39:57Z</time>
      </trkpt>
      <trkpt lat="45.96894" lon="4.78493">
        <ele>213</ele>
        <time>2016-11-26T09:39:58Z</time>
      </trkpt>
      <trkpt lat="45.969" lon="4.78485">
        <ele>213</ele>
        <time>2016-11-26T09:40:02Z</time>
      </trkpt>
      <trkpt lat="45.96901" lon="4.78483">
        <ele>213</ele>
        <time>2016-11-26T09:40:03Z</time>
      </trkpt>
      <trkpt lat="45.96907" lon="4.78474">
        <ele>214</ele>
        <time>2016-11-26T09:40:07Z</time>
      </trkpt>
      <trkpt lat="45.96907" lon="4.78471">
        <ele>214</ele>
        <time>2016-11-26T09:40:08Z</time>
      </trkpt>
      <trkpt lat="45.96914" lon="4.78463">
        <ele>214</ele>
        <time>2016-11-26T09:40:12Z</time>
      </trkpt>
      <trkpt lat="45.96916" lon="4.78462">
        <ele>214</ele>
        <time>2016-11-26T09:40:13Z</time>
      </trkpt>
      <trkpt lat="45.96922" lon="4.78456">
        <ele>221</ele>
        <time>2016-11-26T09:40:17Z</time>
      </trkpt>
      <trkpt lat="45.96923" lon="4.78454">
        <ele>221</ele>
        <time>2016-11-26T09:40:18Z</time>
      </trkpt>
      <trkpt lat="45.96928" lon="4.78445">
        <ele>221</ele>
        <time>2016-11-26T09:40:22Z</time>
      </trkpt>
      <trkpt lat="45.96929" lon="4.78443">
        <ele>221</ele>
        <time>2016-11-26T09:40:23Z</time>
      </trkpt>
      <trkpt lat="45.96936" lon="4.78437">
        <ele>222</ele>
        <time>2016-11-26T09:40:27Z</time>
      </trkpt>
      <trkpt lat="45.96938" lon="4.78436">
        <ele>222</ele>
        <time>2016-11-26T09:40:28Z</time>
      </trkpt>
      <trkpt lat="45.96946" lon="4.78433">
        <ele>222</ele>
        <time>2016-11-26T09:40:33Z</time>
      </trkpt>
      <trkpt lat="45.96947" lon="4.78432">
        <ele>222</ele>
        <time>2016-11-26T09:40:34Z</time>
      </trkpt>
      <trkpt lat="45.96954" lon="4.7843">
        <ele>222</ele>
        <time>2016-11-26T09:40:38Z</time>
      </trkpt>
      <trkpt lat="45.96956" lon="4.78429">
        <ele>222</ele>
        <time>2016-11-26T09:40:39Z</time>
      </trkpt>
      <trkpt lat="45.96963" lon="4.78428">
        <ele>223</ele>
        <time>2016-11-26T09:40:43Z</time>
      </trkpt>
      <trkpt lat="45.96965" lon="4.78428">
        <ele>223</ele>
        <time>2016-11-26T09:40:44Z</time>
      </trkpt>
      <trkpt lat="45.96973" lon="4.78429">
        <ele>224</ele>
        <time>2016-11-26T09:40:49Z</time>
      </trkpt>
      <trkpt lat="45.96975" lon="4.78429">
        <ele>224</ele>
        <time>2016-11-26T09:40:50Z</time>
      </trkpt>
      <trkpt lat="45.96984" lon="4.78427">
        <ele>224</ele>
        <time>2016-11-26T09:40:56Z</time>
      </trkpt>
      <trkpt lat="45.96985" lon="4.78426">
        <ele>225</ele>
        <time>2016-11-26T09:40:57Z</time>
      </trkpt>
      <trkpt lat="45.96993" lon="4.78423">
        <ele>226</ele>
        <time>2016-11-26T09:41:03Z</time>
      </trkpt>
      <trkpt lat="45.96995" lon="4.78422">
        <ele>226</ele>
        <time>2016-11-26T09:41:04Z</time>
      </trkpt>
      <trkpt lat="45.97003" lon="4.7842">
        <ele>227</ele>
        <time>2016-11-26T09:41:09Z</time>
      </trkpt>
      <trkpt lat="45.97004" lon="4.7842">
        <ele>227</ele>
        <time>2016-11-26T09:41:10Z</time>
      </trkpt>
      <trkpt lat="45.97012" lon="4.78416">
        <ele>228</ele>
        <time>2016-11-26T09:41:15Z</time>
      </trkpt>
      <trkpt lat="45.97013" lon="4.78415">
        <ele>228</ele>
        <time>2016-11-26T09:41:16Z</time>
      </trkpt>
      <trkpt lat="45.9702" lon="4.78408">
        <ele>228</ele>
        <time>2016-11-26T09:41:21Z</time>
      </trkpt>
      <trkpt lat="45.97021" lon="4.78407">
        <ele>228</ele>
        <time>2016-11-26T09:41:22Z</time>
      </trkpt>
      <trkpt lat="45.97028" lon="4.78401">
        <ele>229</ele>
        <time>2016-11-26T09:41:27Z</time>
      </trkpt>
      <trkpt lat="45.9703" lon="4.78399">
        <ele>229</ele>
        <time>2016-11-26T09:41:28Z</time>
      </trkpt>
      <trkpt lat="45.97037" lon="4.78392">
        <ele>229</ele>
        <time>2016-11-26T09:41:33Z</time>
      </trkpt>
      <trkpt lat="45.97038" lon="4.78391">
        <ele>229</ele>
        <time>2016-11-26T09:41:34Z</time>
      </trkpt>
      <trkpt lat="45.97045" lon="4.78385">
        <ele>229</ele>
        <time>2016-11-26T09:41:38Z</time>
      </trkpt>
      <trkpt lat="45.97047" lon="4.78383">
        <ele>229</ele>
        <time>2016-11-26T09:41:39Z</time>
      </trkpt>
      <trkpt lat="45.97054" lon="4.78377">
        <ele>229</ele>
        <time>2016-11-26T09:41:43Z</time>
      </trkpt>
      <trkpt lat="45.97055" lon="4.78375">
        <ele>229</ele>
        <time>2016-11-26T09:41:44Z</time>
      </trkpt>
      <trkpt lat="45.97061" lon="4.7837">
        <ele>230</ele>
        <time>2016-11-26T09:41:47Z</time>
      </trkpt>
      <trkpt lat="45.97063" lon="4.78368">
        <ele>230</ele>
        <time>2016-11-26T09:41:48Z</time>
      </trkpt>
      <trkpt lat="45.9707" lon="4.78363">
        <ele>230</ele>
        <time>2016-11-26T09:41:51Z</time>
      </trkpt>
      <trkpt lat="45.97072" lon="4.78361">
        <ele>230</ele>
        <time>2016-11-26T09:41:52Z</time>
      </trkpt>
      <trkpt lat="45.97079" lon="4.78357">
        <ele>230</ele>
        <time>2016-11-26T09:41:55Z</time>
      </trkpt>
      <trkpt lat="45.97081" lon="4.78355">
        <ele>230</ele>
        <time>2016-11-26T09:41:56Z</time>
      </trkpt>
      <trkpt lat="45.97088" lon="4.78348">
        <ele>231</ele>
        <time>2016-11-26T09:41:59Z</time>
      </trkpt>
      <trkpt lat="45.9709" lon="4.78346">
        <ele>231</ele>
        <time>2016-11-26T09:42:00Z</time>
      </trkpt>
      <trkpt lat="45.97098" lon="4.78341">
        <ele>231</ele>
        <time>2016-11-26T09:42:03Z</time>
      </trkpt>
      <trkpt lat="45.971" lon="4.78339">
        <ele>231</ele>
        <time>2016-11-26T09:42:04Z</time>
      </trkpt>
      <trkpt lat="45.97108" lon="4.78333">
        <ele>231</ele>
        <time>2016-11-26T09:42:07Z</time>
      </trkpt>
      <trkpt lat="45.9711" lon="4.78331">
        <ele>231</ele>
        <time>2016-11-26T09:42:08Z</time>
      </trkpt>
      <trkpt lat="45.97116" lon="4.78328">
        <ele>231</ele>
        <time>2016-11-26T09:42:10Z</time>
      </trkpt>
      <trkpt lat="45.97119" lon="4.78326">
        <ele>231</ele>
        <time>2016-11-26T09:42:11Z</time>
      </trkpt>
      <trkpt lat="45.97124" lon="4.78322">
        <ele>231</ele>
        <time>2016-11-26T09:42:13Z</time>
      </trkpt>
      <trkpt lat="45.97127" lon="4.78319">
        <ele>230</ele>
        <time>2016-11-26T09:42:14Z</time>
      </trkpt>
      <trkpt lat="45.97132" lon="4.78315">
        <ele>230</ele>
        <time>2016-11-26T09:42:16Z</time>
      </trkpt>
      <trkpt lat="45.97135" lon="4.78313">
        <ele>230</ele>
        <time>2016-11-26T09:42:17Z</time>
      </trkpt>
      <trkpt lat="45.97143" lon="4.78307">
        <ele>230</ele>
        <time>2016-11-26T09:42:20Z</time>
      </trkpt>
      <trkpt lat="45.97145" lon="4.78305">
        <ele>230</ele>
        <time>2016-11-26T09:42:21Z</time>
      </trkpt>
      <trkpt lat="45.97153" lon="4.78299">
        <ele>230</ele>
        <time>2016-11-26T09:42:24Z</time>
      </trkpt>
      <trkpt lat="45.97156" lon="4.78297">
        <ele>230</ele>
        <time>2016-11-26T09:42:25Z</time>
      </trkpt>
      <trkpt lat="45.97161" lon="4.78292">
        <ele>230</ele>
        <time>2016-11-26T09:42:27Z</time>
      </trkpt>
      <trkpt lat="45.97164" lon="4.7829">
        <ele>230</ele>
        <time>2016-11-26T09:42:28Z</time>
      </trkpt>
      <trkpt lat="45.9717" lon="4.78286">
        <ele>230</ele>
        <time>2016-11-26T09:42:30Z</time>
      </trkpt>
      <trkpt lat="45.97173" lon="4.78284">
        <ele>230</ele>
        <time>2016-11-26T09:42:31Z</time>
      </trkpt>
      <trkpt lat="45.97178" lon="4.78279">
        <ele>230</ele>
        <time>2016-11-26T09:42:33Z</time>
      </trkpt>
      <trkpt lat="45.97181" lon="4.78277">
        <ele>230</ele>
        <time>2016-11-26T09:42:34Z</time>
      </trkpt>
      <trkpt lat="45.97187" lon="4.78272">
        <ele>230</ele>
        <time>2016-11-26T09:42:36Z</time>
      </trkpt>
      <trkpt lat="45.9719" lon="4.7827">
        <ele>230</ele>
        <time>2016-11-26T09:42:37Z</time>
      </trkpt>
      <trkpt lat="45.97196" lon="4.78265">
        <ele>230</ele>
        <time>2016-11-26T09:42:39Z</time>
      </trkpt>
      <trkpt lat="45.97199" lon="4.78263">
        <ele>230</ele>
        <time>2016-11-26T09:42:40Z</time>
      </trkpt>
      <trkpt lat="45.97205" lon="4.78258">
        <ele>230</ele>
        <time>2016-11-26T09:42:42Z</time>
      </trkpt>
      <trkpt lat="45.97208" lon="4.78256">
        <ele>230</ele>
        <time>2016-11-26T09:42:43Z</time>
      </trkpt>
      <trkpt lat="45.97214" lon="4.78252">
        <ele>231</ele>
        <time>2016-11-26T09:42:45Z</time>
      </trkpt>
      <trkpt lat="45.97217" lon="4.78249">
        <ele>231</ele>
        <time>2016-11-26T09:42:46Z</time>
      </trkpt>
      <trkpt lat="45.97223" lon="4.78246">
        <ele>231</ele>
        <time>2016-11-26T09:42:48Z</time>
      </trkpt>
      <trkpt lat="45.97226" lon="4.78245">
        <ele>231</ele>
        <time>2016-11-26T09:42:49Z</time>
      </trkpt>
      <trkpt lat="45.97233" lon="4.78248">
        <ele>231</ele>
        <time>2016-11-26T09:42:51Z</time>
      </trkpt>
      <trkpt lat="45.97235" lon="4.78251">
        <ele>231</ele>
        <time>2016-11-26T09:42:52Z</time>
      </trkpt>
      <trkpt lat="45.9724" lon="4.78258">
        <ele>231</ele>
        <time>2016-11-26T09:42:54Z</time>
      </trkpt>
      <trkpt lat="45.97242" lon="4.78262">
        <ele>231</ele>
        <time>2016-11-26T09:42:55Z</time>
      </trkpt>
      <trkpt lat="45.97247" lon="4.7827">
        <ele>231</ele>
        <time>2016-11-26T09:42:57Z</time>
      </trkpt>
      <trkpt lat="45.97249" lon="4.78274">
        <ele>231</ele>
        <time>2016-11-26T09:42:58Z</time>
      </trkpt>
      <trkpt lat="45.97254" lon="4.78281">
        <ele>232</ele>
        <time>2016-11-26T09:43:00Z</time>
      </trkpt>
      <trkpt lat="45.97257" lon="4.78285">
        <ele>232</ele>
        <time>2016-11-26T09:43:01Z</time>
      </trkpt>
      <trkpt lat="45.97262" lon="4.78293">
        <ele>232</ele>
        <time>2016-11-26T09:43:03Z</time>
      </trkpt>
      <trkpt lat="45.97265" lon="4.78297">
        <ele>232</ele>
        <time>2016-11-26T09:43:04Z</time>
      </trkpt>
      <trkpt lat="45.9727" lon="4.78305">
        <ele>232</ele>
        <time>2016-11-26T09:43:06Z</time>
      </trkpt>
      <trkpt lat="45.97273" lon="4.78309">
        <ele>232</ele>
        <time>2016-11-26T09:43:07Z</time>
      </trkpt>
      <trkpt lat="45.97278" lon="4.78317">
        <ele>232</ele>
        <time>2016-11-26T09:43:09Z</time>
      </trkpt>
      <trkpt lat="45.9728" lon="4.78321">
        <ele>232</ele>
        <time>2016-11-26T09:43:10Z</time>
      </trkpt>
      <trkpt lat="45.97286" lon="4.78329">
        <ele>232</ele>
        <time>2016-11-26T09:43:12Z</time>
      </trkpt>
      <trkpt lat="45.97289" lon="4.78333">
        <ele>232</ele>
        <time>2016-11-26T09:43:13Z</time>
      </trkpt>
      <trkpt lat="45.97295" lon="4.78341">
        <ele>232</ele>
        <time>2016-11-26T09:43:15Z</time>
      </trkpt>
      <trkpt lat="45.97299" lon="4.78345">
        <ele>232</ele>
        <time>2016-11-26T09:43:16Z</time>
      </trkpt>
      <trkpt lat="45.97305" lon="4.78353">
        <ele>232</ele>
        <time>2016-11-26T09:43:18Z</time>
      </trkpt>
      <trkpt lat="45.97308" lon="4.78357">
        <ele>232</ele>
        <time>2016-11-26T09:43:19Z</time>
      </trkpt>
      <trkpt lat="45.97315" lon="4.78365">
        <ele>232</ele>
        <time>2016-11-26T09:43:21Z</time>
      </trkpt>
      <trkpt lat="45.97318" lon="4.78369">
        <ele>232</ele>
        <time>2016-11-26T09:43:22Z</time>
      </trkpt>
      <trkpt lat="45.97325" lon="4.78376">
        <ele>232</ele>
        <time>2016-11-26T09:43:24Z</time>
      </trkpt>
      <trkpt lat="45.97328" lon="4.7838">
        <ele>232</ele>
        <time>2016-11-26T09:43:25Z</time>
      </trkpt>
      <trkpt lat="45.97335" lon="4.78388">
        <ele>233</ele>
        <time>2016-11-26T09:43:27Z</time>
      </trkpt>
      <trkpt lat="45.97338" lon="4.78392">
        <ele>232</ele>
        <time>2016-11-26T09:43:28Z</time>
      </trkpt>
      <trkpt lat="45.97344" lon="4.78399">
        <ele>232</ele>
        <time>2016-11-26T09:43:30Z</time>
      </trkpt>
      <trkpt lat="45.97348" lon="4.78402">
        <ele>232</ele>
        <time>2016-11-26T09:43:31Z</time>
      </trkpt>
      <trkpt lat="45.97356" lon="4.78403">
        <ele>233</ele>
        <time>2016-11-26T09:43:33Z</time>
      </trkpt>
      <trkpt lat="45.97359" lon="4.78401">
        <ele>233</ele>
        <time>2016-11-26T09:43:34Z</time>
      </trkpt>
      <trkpt lat="45.97366" lon="4.78394">
        <ele>233</ele>
        <time>2016-11-26T09:43:36Z</time>
      </trkpt>
      <trkpt lat="45.97368" lon="4.7839">
        <ele>233</ele>
        <time>2016-11-26T09:43:37Z</time>
      </trkpt>
      <trkpt lat="45.97374" lon="4.78383">
        <ele>233</ele>
        <time>2016-11-26T09:43:39Z</time>
      </trkpt>
      <trkpt lat="45.97377" lon="4.78379">
        <ele>233</ele>
        <time>2016-11-26T09:43:40Z</time>
      </trkpt>
      <trkpt lat="45.97383" lon="4.78372">
        <ele>233</ele>
        <time>2016-11-26T09:43:42Z</time>
      </trkpt>
      <trkpt lat="45.97386" lon="4.78369">
        <ele>233</ele>
        <time>2016-11-26T09:43:43Z</time>
      </trkpt>
      <trkpt lat="45.97392" lon="4.78362">
        <ele>233</ele>
        <time>2016-11-26T09:43:45Z</time>
      </trkpt>
      <trkpt lat="45.97396" lon="4.78358">
        <ele>233</ele>
        <time>2016-11-26T09:43:46Z</time>
      </trkpt>
      <trkpt lat="45.97402" lon="4.78351">
        <ele>233</ele>
        <time>2016-11-26T09:43:48Z</time>
      </trkpt>
      <trkpt lat="45.97404" lon="4.78348">
        <ele>233</ele>
        <time>2016-11-26T09:43:49Z</time>
      </trkpt>
      <trkpt lat="45.9741" lon="4.78341">
        <ele>233</ele>
        <time>2016-11-26T09:43:51Z</time>
      </trkpt>
      <trkpt lat="45.97413" lon="4.78338">
        <ele>233</ele>
        <time>2016-11-26T09:43:52Z</time>
      </trkpt>
      <trkpt lat="45.97419" lon="4.78332">
        <ele>233</ele>
        <time>2016-11-26T09:43:54Z</time>
      </trkpt>
      <trkpt lat="45.97422" lon="4.78328">
        <ele>233</ele>
        <time>2016-11-26T09:43:55Z</time>
      </trkpt>
      <trkpt lat="45.97427" lon="4.78322">
        <ele>234</ele>
        <time>2016-11-26T09:43:57Z</time>
      </trkpt>
      <trkpt lat="45.9743" lon="4.78319">
        <ele>234</ele>
        <time>2016-11-26T09:43:58Z</time>
      </trkpt>
      <trkpt lat="45.97436" lon="4.78313">
        <ele>234</ele>
        <time>2016-11-26T09:44:00Z</time>
      </trkpt>
      <trkpt lat="45.97439" lon="4.78309">
        <ele>234</ele>
        <time>2016-11-26T09:44:01Z</time>
      </trkpt>
      <trkpt lat="45.97445" lon="4.78303">
        <ele>234</ele>
        <time>2016-11-26T09:44:03Z</time>
      </trkpt>
      <trkpt lat="45.97448" lon="4.783">
        <ele>234</ele>
        <time>2016-11-26T09:44:04Z</time>
      </trkpt>
      <trkpt lat="45.97454" lon="4.78293">
        <ele>234</ele>
        <time>2016-11-26T09:44:06Z</time>
      </trkpt>
      <trkpt lat="45.97457" lon="4.7829">
        <ele>234</ele>
        <time>2016-11-26T09:44:07Z</time>
      </trkpt>
      <trkpt lat="45.97463" lon="4.78283">
        <ele>234</ele>
        <time>2016-11-26T09:44:09Z</time>
      </trkpt>
      <trkpt lat="45.97466" lon="4.7828">
        <ele>234</ele>
        <time>2016-11-26T09:44:10Z</time>
      </trkpt>
      <trkpt lat="45.97472" lon="4.78272">
        <ele>235</ele>
        <time>2016-11-26T09:44:12Z</time>
      </trkpt>
      <trkpt lat="45.97475" lon="4.78268">
        <ele>235</ele>
        <time>2016-11-26T09:44:13Z</time>
      </trkpt>
      <trkpt lat="45.9748" lon="4.78261">
        <ele>235</ele>
        <time>2016-11-26T09:44:15Z</time>
      </trkpt>
      <trkpt lat="45.97483" lon="4.78257">
        <ele>235</ele>
        <time>2016-11-26T09:44:16Z</time>
      </trkpt>
      <trkpt lat="45.97489" lon="4.7825">
        <ele>235</ele>
        <time>2016-11-26T09:44:18Z</time>
      </trkpt>
      <trkpt lat="45.97492" lon="4.78247">
        <ele>236</ele>
        <time>2016-11-26T09:44:19Z</time>
      </trkpt>
      <trkpt lat="45.97498" lon="4.78241">
        <ele>236</ele>
        <time>2016-11-26T09:44:21Z</time>
      </trkpt>
      <trkpt lat="45.97501" lon="4.78238">
        <ele>237</ele>
        <time>2016-11-26T09:44:22Z</time>
      </trkpt>
      <trkpt lat="45.97506" lon="4.78232">
        <ele>237</ele>
        <time>2016-11-26T09:44:24Z</time>
      </trkpt>
      <trkpt lat="45.97509" lon="4.78229">
        <ele>237</ele>
        <time>2016-11-26T09:44:25Z</time>
      </trkpt>
      <trkpt lat="45.97515" lon="4.78223">
        <ele>238</ele>
        <time>2016-11-26T09:44:27Z</time>
      </trkpt>
      <trkpt lat="45.97517" lon="4.7822">
        <ele>238</ele>
        <time>2016-11-26T09:44:28Z</time>
      </trkpt>
      <trkpt lat="45.97524" lon="4.78214">
        <ele>238</ele>
        <time>2016-11-26T09:44:30Z</time>
      </trkpt>
      <trkpt lat="45.97526" lon="4.78211">
        <ele>238</ele>
        <time>2016-11-26T09:44:31Z</time>
      </trkpt>
      <trkpt lat="45.97531" lon="4.78205">
        <ele>238</ele>
        <time>2016-11-26T09:44:33Z</time>
      </trkpt>
      <trkpt lat="45.97533" lon="4.78203">
        <ele>238</ele>
        <time>2016-11-26T09:44:34Z</time>
      </trkpt>
      <trkpt lat="45.9754" lon="4.78195">
        <ele>239</ele>
        <time>2016-11-26T09:44:37Z</time>
      </trkpt>
      <trkpt lat="45.97543" lon="4.78192">
        <ele>239</ele>
        <time>2016-11-26T09:44:38Z</time>
      </trkpt>
      <trkpt lat="45.97548" lon="4.78187">
        <ele>239</ele>
        <time>2016-11-26T09:44:40Z</time>
      </trkpt>
      <trkpt lat="45.9755" lon="4.78184">
        <ele>239</ele>
        <time>2016-11-26T09:44:41Z</time>
      </trkpt>
      <trkpt lat="45.97556" lon="4.78175">
        <ele>240</ele>
        <time>2016-11-26T09:44:44Z</time>
      </trkpt>
      <trkpt lat="45.97559" lon="4.78173">
        <ele>240</ele>
        <time>2016-11-26T09:44:45Z</time>
      </trkpt>
      <trkpt lat="45.97566" lon="4.78165">
        <ele>242</ele>
        <time>2016-11-26T09:44:48Z</time>
      </trkpt>
      <trkpt lat="45.97568" lon="4.78162">
        <ele>242</ele>
        <time>2016-11-26T09:44:49Z</time>
      </trkpt>
      <trkpt lat="45.97574" lon="4.78154">
        <ele>242</ele>
        <time>2016-11-26T09:44:52Z</time>
      </trkpt>
      <trkpt lat="45.97576" lon="4.78151">
        <ele>242</ele>
        <time>2016-11-26T09:44:53Z</time>
      </trkpt>
      <trkpt lat="45.97582" lon="4.78143">
        <ele>242</ele>
        <time>2016-11-26T09:44:56Z</time>
      </trkpt>
      <trkpt lat="45.97584" lon="4.78141">
        <ele>244</ele>
        <time>2016-11-26T09:44:57Z</time>
      </trkpt>
      <trkpt lat="45.97591" lon="4.78135">
        <ele>245</ele>
        <time>2016-11-26T09:45:00Z</time>
      </trkpt>
      <trkpt lat="45.97593" lon="4.78133">
        <ele>245</ele>
        <time>2016-11-26T09:45:01Z</time>
      </trkpt>
      <trkpt lat="45.97599" lon="4.78124">
        <ele>245</ele>
        <time>2016-11-26T09:45:04Z</time>
      </trkpt>
      <trkpt lat="45.97601" lon="4.78121">
        <ele>245</ele>
        <time>2016-11-26T09:45:05Z</time>
      </trkpt>
      <trkpt lat="45.97607" lon="4.78114">
        <ele>246</ele>
        <time>2016-11-26T09:45:08Z</time>
      </trkpt>
      <trkpt lat="45.97609" lon="4.78112">
        <ele>246</ele>
        <time>2016-11-26T09:45:09Z</time>
      </trkpt>
      <trkpt lat="45.97616" lon="4.78105">
        <ele>246</ele>
        <time>2016-11-26T09:45:12Z</time>
      </trkpt>
      <trkpt lat="45.97618" lon="4.78102">
        <ele>246</ele>
        <time>2016-11-26T09:45:13Z</time>
      </trkpt>
      <trkpt lat="45.97625" lon="4.78095">
        <ele>246</ele>
        <time>2016-11-26T09:45:16Z</time>
      </trkpt>
      <trkpt lat="45.97628" lon="4.78092">
        <ele>246</ele>
        <time>2016-11-26T09:45:17Z</time>
      </trkpt>
      <trkpt lat="45.97633" lon="4.78087">
        <ele>247</ele>
        <time>2016-11-26T09:45:19Z</time>
      </trkpt>
      <trkpt lat="45.97636" lon="4.78084">
        <ele>247</ele>
        <time>2016-11-26T09:45:20Z</time>
      </trkpt>
      <trkpt lat="45.97641" lon="4.78079">
        <ele>247</ele>
        <time>2016-11-26T09:45:22Z</time>
      </trkpt>
      <trkpt lat="45.97644" lon="4.78076">
        <ele>247</ele>
        <time>2016-11-26T09:45:23Z</time>
      </trkpt>
      <trkpt lat="45.9765" lon="4.78071">
        <ele>247</ele>
        <time>2016-11-26T09:45:25Z</time>
      </trkpt>
      <trkpt lat="45.97653" lon="4.78069">
        <ele>247</ele>
        <time>2016-11-26T09:45:26Z</time>
      </trkpt>
      <trkpt lat="45.97659" lon="4.78065">
        <ele>247</ele>
        <time>2016-11-26T09:45:28Z</time>
      </trkpt>
      <trkpt lat="45.97662" lon="4.78063">
        <ele>247</ele>
        <time>2016-11-26T09:45:29Z</time>
      </trkpt>
      <trkpt lat="45.97669" lon="4.78059">
        <ele>248</ele>
        <time>2016-11-26T09:45:31Z</time>
      </trkpt>
      <trkpt lat="45.97672" lon="4.78058">
        <ele>248</ele>
        <time>2016-11-26T09:45:32Z</time>
      </trkpt>
      <trkpt lat="45.97679" lon="4.78054">
        <ele>247</ele>
        <time>2016-11-26T09:45:34Z</time>
      </trkpt>
      <trkpt lat="45.97682" lon="4.78053">
        <ele>247</ele>
        <time>2016-11-26T09:45:35Z</time>
      </trkpt>
      <trkpt lat="45.9769" lon="4.7805">
        <ele>247</ele>
        <time>2016-11-26T09:45:37Z</time>
      </trkpt>
      <trkpt lat="45.97694" lon="4.78048">
        <ele>247</ele>
        <time>2016-11-26T09:45:38Z</time>
      </trkpt>
      <trkpt lat="45.97702" lon="4.78045">
        <ele>247</ele>
        <time>2016-11-26T09:45:40Z</time>
      </trkpt>
      <trkpt lat="45.97706" lon="4.78043">
        <ele>247</ele>
        <time>2016-11-26T09:45:41Z</time>
      </trkpt>
      <trkpt lat="45.97713" lon="4.7804">
        <ele>247</ele>
        <time>2016-11-26T09:45:43Z</time>
      </trkpt>
      <trkpt lat="45.97716" lon="4.78039">
        <ele>247</ele>
        <time>2016-11-26T09:45:44Z</time>
      </trkpt>
      <trkpt lat="45.97723" lon="4.78036">
        <ele>247</ele>
        <time>2016-11-26T09:45:46Z</time>
      </trkpt>
      <trkpt lat="45.97727" lon="4.78034">
        <ele>247</ele>
        <time>2016-11-26T09:45:47Z</time>
      </trkpt>
      <trkpt lat="45.97734" lon="4.78032">
        <ele>247</ele>
        <time>2016-11-26T09:45:49Z</time>
      </trkpt>
      <trkpt lat="45.97738" lon="4.78031">
        <ele>247</ele>
        <time>2016-11-26T09:45:50Z</time>
      </trkpt>
      <trkpt lat="45.97746" lon="4.78028">
        <ele>247</ele>
        <time>2016-11-26T09:45:52Z</time>
      </trkpt>
      <trkpt lat="45.9775" lon="4.78026">
        <ele>247</ele>
        <time>2016-11-26T09:45:53Z</time>
      </trkpt>
      <trkpt lat="45.97757" lon="4.78022">
        <ele>246</ele>
        <time>2016-11-26T09:45:55Z</time>
      </trkpt>
      <trkpt lat="45.97761" lon="4.78021">
        <ele>246</ele>
        <time>2016-11-26T09:45:56Z</time>
      </trkpt>
      <trkpt lat="45.97769" lon="4.78017">
        <ele>246</ele>
        <time>2016-11-26T09:45:58Z</time>
      </trkpt>
      <trkpt lat="45.97773" lon="4.78015">
        <ele>246</ele>
        <time>2016-11-26T09:45:59Z</time>
      </trkpt>
      <trkpt lat="45.97777" lon="4.78014">
        <ele>246</ele>
        <time>2016-11-26T09:46:00Z</time>
      </trkpt>
      <trkpt lat="45.97782" lon="4.78012">
        <ele>246</ele>
        <time>2016-11-26T09:46:01Z</time>
      </trkpt>
      <trkpt lat="45.97786" lon="4.7801">
        <ele>246</ele>
        <time>2016-11-26T09:46:02Z</time>
      </trkpt>
      <trkpt lat="45.97791" lon="4.78008">
        <ele>246</ele>
        <time>2016-11-26T09:46:03Z</time>
      </trkpt>
      <trkpt lat="45.97799" lon="4.78005">
        <ele>246</ele>
        <time>2016-11-26T09:46:05Z</time>
      </trkpt>
      <trkpt lat="45.97803" lon="4.78003">
        <ele>246</ele>
        <time>2016-11-26T09:46:06Z</time>
      </trkpt>
      <trkpt lat="45.97811" lon="4.77999">
        <ele>246</ele>
        <time>2016-11-26T09:46:08Z</time>
      </trkpt>
      <trkpt lat="45.97815" lon="4.77998">
        <ele>246</ele>
        <time>2016-11-26T09:46:09Z</time>
      </trkpt>
      <trkpt lat="45.97823" lon="4.77995">
        <ele>246</ele>
        <time>2016-11-26T09:46:11Z</time>
      </trkpt>
      <trkpt lat="45.97826" lon="4.77993">
        <ele>246</ele>
        <time>2016-11-26T09:46:12Z</time>
      </trkpt>
      <trkpt lat="45.97834" lon="4.7799">
        <ele>246</ele>
        <time>2016-11-26T09:46:14Z</time>
      </trkpt>
      <trkpt lat="45.97838" lon="4.77989">
        <ele>246</ele>
        <time>2016-11-26T09:46:15Z</time>
      </trkpt>
      <trkpt lat="45.97846" lon="4.77985">
        <ele>246</ele>
        <time>2016-11-26T09:46:17Z</time>
      </trkpt>
      <trkpt lat="45.97851" lon="4.77983">
        <ele>246</ele>
        <time>2016-11-26T09:46:18Z</time>
      </trkpt>
      <trkpt lat="45.97855" lon="4.77982">
        <ele>246</ele>
        <time>2016-11-26T09:46:19Z</time>
      </trkpt>
      <trkpt lat="45.97859" lon="4.7798">
        <ele>246</ele>
        <time>2016-11-26T09:46:20Z</time>
      </trkpt>
      <trkpt lat="45.97864" lon="4.77978">
        <ele>246</ele>
        <time>2016-11-26T09:46:21Z</time>
      </trkpt>
      <trkpt lat="45.97869" lon="4.77976">
        <ele>246</ele>
        <time>2016-11-26T09:46:22Z</time>
      </trkpt>
      <trkpt lat="45.97874" lon="4.77974">
        <ele>246</ele>
        <time>2016-11-26T09:46:23Z</time>
      </trkpt>
      <trkpt lat="45.97879" lon="4.77972">
        <ele>246</ele>
        <time>2016-11-26T09:46:24Z</time>
      </trkpt>
      <trkpt lat="45.97884" lon="4.77971">
        <ele>246</ele>
        <time>2016-11-26T09:46:25Z</time>
      </trkpt>
      <trkpt lat="45.97888" lon="4.77969">
        <ele>246</ele>
        <time>2016-11-26T09:46:26Z</time>
      </trkpt>
      <trkpt lat="45.97893" lon="4.77968">
        <ele>246</ele>
        <time>2016-11-26T09:46:27Z</time>
      </trkpt>
      <trkpt lat="45.97898" lon="4.77966">
        <ele>246</ele>
        <time>2016-11-26T09:46:28Z</time>
      </trkpt>
      <trkpt lat="45.97903" lon="4.77965">
        <ele>246</ele>
        <time>2016-11-26T09:46:29Z</time>
      </trkpt>
      <trkpt lat="45.97907" lon="4.77964">
        <ele>246</ele>
        <time>2016-11-26T09:46:30Z</time>
      </trkpt>
      <trkpt lat="45.97912" lon="4.77963">
        <ele>246</ele>
        <time>2016-11-26T09:46:31Z</time>
      </trkpt>
      <trkpt lat="45.97916" lon="4.77962">
        <ele>246</ele>
        <time>2016-11-26T09:46:32Z</time>
      </trkpt>
      <trkpt lat="45.97925" lon="4.7796">
        <ele>246</ele>
        <time>2016-11-26T09:46:34Z</time>
      </trkpt>
      <trkpt lat="45.97929" lon="4.77959">
        <ele>246</ele>
        <time>2016-11-26T09:46:35Z</time>
      </trkpt>
      <trkpt lat="45.97938" lon="4.77958">
        <ele>246</ele>
        <time>2016-11-26T09:46:37Z</time>
      </trkpt>
      <trkpt lat="45.97943" lon="4.77957">
        <ele>246</ele>
        <time>2016-11-26T09:46:38Z</time>
      </trkpt>
      <trkpt lat="45.97947" lon="4.77956">
        <ele>246</ele>
        <time>2016-11-26T09:46:39Z</time>
      </trkpt>
      <trkpt lat="45.97952" lon="4.77955">
        <ele>246</ele>
        <time>2016-11-26T09:46:40Z</time>
      </trkpt>
      <trkpt lat="45.97957" lon="4.77955">
        <ele>246</ele>
        <time>2016-11-26T09:46:41Z</time>
      </trkpt>
      <trkpt lat="45.97961" lon="4.77954">
        <ele>246</ele>
        <time>2016-11-26T09:46:42Z</time>
      </trkpt>
      <trkpt lat="45.97966" lon="4.77953">
        <ele>246</ele>
        <time>2016-11-26T09:46:43Z</time>
      </trkpt>
      <trkpt lat="45.97971" lon="4.77953">
        <ele>246</ele>
        <time>2016-11-26T09:46:44Z</time>
      </trkpt>
      <trkpt lat="45.97976" lon="4.77952">
        <ele>246</ele>
        <time>2016-11-26T09:46:45Z</time>
      </trkpt>
      <trkpt lat="45.97981" lon="4.77951">
        <ele>246</ele>
        <time>2016-11-26T09:46:46Z</time>
      </trkpt>
      <trkpt lat="45.97986" lon="4.77951">
        <ele>246</ele>
        <time>2016-11-26T09:46:47Z</time>
      </trkpt>
      <trkpt lat="45.97992" lon="4.7795">
        <ele>246</ele>
        <time>2016-11-26T09:46:48Z</time>
      </trkpt>
      <trkpt lat="45.97997" lon="4.7795">
        <ele>246</ele>
        <time>2016-11-26T09:46:49Z</time>
      </trkpt>
      <trkpt lat="45.98002" lon="4.77949">
        <ele>247</ele>
        <time>2016-11-26T09:46:50Z</time>
      </trkpt>
      <trkpt lat="45.98007" lon="4.77948">
        <ele>247</ele>
        <time>2016-11-26T09:46:51Z</time>
      </trkpt>
      <trkpt lat="45.98012" lon="4.77948">
        <ele>247</ele>
        <time>2016-11-26T09:46:52Z</time>
      </trkpt>
      <trkpt lat="45.98016" lon="4.77947">
        <ele>247</ele>
        <time>2016-11-26T09:46:53Z</time>
      </trkpt>
      <trkpt lat="45.98021" lon="4.77947">
        <ele>247</ele>
        <time>2016-11-26T09:46:54Z</time>
      </trkpt>
      <trkpt lat="45.98025" lon="4.77946">
        <ele>247</ele>
        <time>2016-11-26T09:46:55Z</time>
      </trkpt>
      <trkpt lat="45.9803" lon="4.77945">
        <ele>247</ele>
        <time>2016-11-26T09:46:56Z</time>
      </trkpt>
      <trkpt lat="45.98035" lon="4.77945">
        <ele>247</ele>
        <time>2016-11-26T09:46:57Z</time>
      </trkpt>
      <trkpt lat="45.9804" lon="4.77944">
        <ele>247</ele>
        <time>2016-11-26T09:46:58Z</time>
      </trkpt>
      <trkpt lat="45.98046" lon="4.77943">
        <ele>247</ele>
        <time>2016-11-26T09:46:59Z</time>
      </trkpt>
      <trkpt lat="45.98051" lon="4.77942">
        <ele>247</ele>
        <time>2016-11-26T09:47:00Z</time>
      </trkpt>
      <trkpt lat="45.98056" lon="4.77942">
        <ele>247</ele>
        <time>2016-11-26T09:47:01Z</time>
      </trkpt>
      <trkpt lat="45.98061" lon="4.77941">
        <ele>247</ele>
        <time>2016-11-26T09:47:02Z</time>
      </trkpt>
      <trkpt lat="45.98066" lon="4.7794">
        <ele>247</ele>
        <time>2016-11-26T09:47:03Z</time>
      </trkpt>
      <trkpt lat="45.98071" lon="4.7794">
        <ele>247</ele>
        <time>2016-11-26T09:47:04Z</time>
      </trkpt>
      <trkpt lat="45.98075" lon="4.77939">
        <ele>247</ele>
        <time>2016-11-26T09:47:05Z</time>
      </trkpt>
      <trkpt lat="45.9808" lon="4.77938">
        <ele>247</ele>
        <time>2016-11-26T09:47:06Z</time>
      </trkpt>
      <trkpt lat="45.98085" lon="4.77937">
        <ele>246</ele>
        <time>2016-11-26T09:47:07Z</time>
      </trkpt>
      <trkpt lat="45.98089" lon="4.77937">
        <ele>246</ele>
        <time>2016-11-26T09:47:08Z</time>
      </trkpt>
      <trkpt lat="45.98094" lon="4.77936">
        <ele>246</ele>
        <time>2016-11-26T09:47:09Z</time>
      </trkpt>
      <trkpt lat="45.98099" lon="4.77935">
        <ele>246</ele>
        <time>2016-11-26T09:47:10Z</time>
      </trkpt>
      <trkpt lat="45.98103" lon="4.77935">
        <ele>246</ele>
        <time>2016-11-26T09:47:11Z</time>
      </trkpt>
      <trkpt lat="45.98108" lon="4.77934">
        <ele>246</ele>
        <time>2016-11-26T09:47:12Z</time>
      </trkpt>
      <trkpt lat="45.98113" lon="4.77933">
        <ele>246</ele>
        <time>2016-11-26T09:47:13Z</time>
      </trkpt>
      <trkpt lat="45.98118" lon="4.77932">
        <ele>246</ele>
        <time>2016-11-26T09:47:14Z</time>
      </trkpt>
      <trkpt lat="45.98123" lon="4.77932">
        <ele>246</ele>
        <time>2016-11-26T09:47:15Z</time>
      </trkpt>
      <trkpt lat="45.98129" lon="4.77931">
        <ele>246</ele>
        <time>2016-11-26T09:47:16Z</time>
      </trkpt>
      <trkpt lat="45.98134" lon="4.7793">
        <ele>246</ele>
        <time>2016-11-26T09:47:17Z</time>
      </trkpt>
      <trkpt lat="45.98139" lon="4.77929">
        <ele>246</ele>
        <time>2016-11-26T09:47:18Z</time>
      </trkpt>
      <trkpt lat="45.98144" lon="4.77928">
        <ele>246</ele>
        <time>2016-11-26T09:47:19Z</time>
      </trkpt>
      <trkpt lat="45.98149" lon="4.77926">
        <ele>246</ele>
        <time>2016-11-26T09:47:20Z</time>
      </trkpt>
      <trkpt lat="45.98155" lon="4.77924">
        <ele>245</ele>
        <time>2016-11-26T09:47:21Z</time>
      </trkpt>
      <trkpt lat="45.9816" lon="4.77922">
        <ele>245</ele>
        <time>2016-11-26T09:47:22Z</time>
      </trkpt>
      <trkpt lat="45.98165" lon="4.77921">
        <ele>245</ele>
        <time>2016-11-26T09:47:23Z</time>
      </trkpt>
      <trkpt lat="45.98171" lon="4.77919">
        <ele>245</ele>
        <time>2016-11-26T09:47:24Z</time>
      </trkpt>
      <trkpt lat="45.98176" lon="4.77918">
        <ele>245</ele>
        <time>2016-11-26T09:47:25Z</time>
      </trkpt>
      <trkpt lat="45.98181" lon="4.77916">
        <ele>245</ele>
        <time>2016-11-26T09:47:26Z</time>
      </trkpt>
      <trkpt lat="45.98186" lon="4.77914">
        <ele>245</ele>
        <time>2016-11-26T09:47:27Z</time>
      </trkpt>
      <trkpt lat="45.98192" lon="4.77913">
        <ele>245</ele>
        <time>2016-11-26T09:47:28Z</time>
      </trkpt>
      <trkpt lat="45.98197" lon="4.77911">
        <ele>244</ele>
        <time>2016-11-26T09:47:29Z</time>
      </trkpt>
      <trkpt lat="45.98202" lon="4.77909">
        <ele>244</ele>
        <time>2016-11-26T09:47:30Z</time>
      </trkpt>
      <trkpt lat="45.98207" lon="4.77907">
        <ele>244</ele>
        <time>2016-11-26T09:47:31Z</time>
      </trkpt>
      <trkpt lat="45.98212" lon="4.77906">
        <ele>244</ele>
        <time>2016-11-26T09:47:32Z</time>
      </trkpt>
      <trkpt lat="45.98217" lon="4.77904">
        <ele>244</ele>
        <time>2016-11-26T09:47:33Z</time>
      </trkpt>
      <trkpt lat="45.98222" lon="4.77903">
        <ele>244</ele>
        <time>2016-11-26T09:47:34Z</time>
      </trkpt>
      <trkpt lat="45.98227" lon="4.77901">
        <ele>244</ele>
        <time>2016-11-26T09:47:35Z</time>
      </trkpt>
      <trkpt lat="45.98232" lon="4.779">
        <ele>244</ele>
        <time>2016-11-26T09:47:36Z</time>
      </trkpt>
      <trkpt lat="45.98237" lon="4.77898">
        <ele>244</ele>
        <time>2016-11-26T09:47:37Z</time>
      </trkpt>
      <trkpt lat="45.98242" lon="4.77897">
        <ele>244</ele>
        <time>2016-11-26T09:47:38Z</time>
      </trkpt>
      <trkpt lat="45.98246" lon="4.77895">
        <ele>244</ele>
        <time>2016-11-26T09:47:39Z</time>
      </trkpt>
      <trkpt lat="45.98251" lon="4.77893">
        <ele>244</ele>
        <time>2016-11-26T09:47:40Z</time>
      </trkpt>
      <trkpt lat="45.98256" lon="4.77892">
        <ele>244</ele>
        <time>2016-11-26T09:47:41Z</time>
      </trkpt>
      <trkpt lat="45.9826" lon="4.7789">
        <ele>244</ele>
        <time>2016-11-26T09:47:42Z</time>
      </trkpt>
      <trkpt lat="45.98265" lon="4.77889">
        <ele>244</ele>
        <time>2016-11-26T09:47:43Z</time>
      </trkpt>
      <trkpt lat="45.98269" lon="4.77887">
        <ele>244</ele>
        <time>2016-11-26T09:47:44Z</time>
      </trkpt>
      <trkpt lat="45.98274" lon="4.77885">
        <ele>244</ele>
        <time>2016-11-26T09:47:45Z</time>
      </trkpt>
      <trkpt lat="45.98279" lon="4.77883">
        <ele>244</ele>
        <time>2016-11-26T09:47:46Z</time>
      </trkpt>
      <trkpt lat="45.98283" lon="4.77881">
        <ele>244</ele>
        <time>2016-11-26T09:47:47Z</time>
      </trkpt>
      <trkpt lat="45.98288" lon="4.77879">
        <ele>244</ele>
        <time>2016-11-26T09:47:48Z</time>
      </trkpt>
      <trkpt lat="45.98293" lon="4.77877">
        <ele>244</ele>
        <time>2016-11-26T09:47:49Z</time>
      </trkpt>
      <trkpt lat="45.98299" lon="4.77875">
        <ele>243</ele>
        <time>2016-11-26T09:47:50Z</time>
      </trkpt>
      <trkpt lat="45.98304" lon="4.77873">
        <ele>243</ele>
        <time>2016-11-26T09:47:51Z</time>
      </trkpt>
      <trkpt lat="45.98309" lon="4.7787">
        <ele>243</ele>
        <time>2016-11-26T09:47:52Z</time>
      </trkpt>
      <trkpt lat="45.98314" lon="4.77868">
        <ele>243</ele>
        <time>2016-11-26T09:47:53Z</time>
      </trkpt>
      <trkpt lat="45.98319" lon="4.77866">
        <ele>243</ele>
        <time>2016-11-26T09:47:54Z</time>
      </trkpt>
      <trkpt lat="45.98324" lon="4.77863">
        <ele>243</ele>
        <time>2016-11-26T09:47:55Z</time>
      </trkpt>
      <trkpt lat="45.98329" lon="4.77861">
        <ele>243</ele>
        <time>2016-11-26T09:47:56Z</time>
      </trkpt>
      <trkpt lat="45.98334" lon="4.77859">
        <ele>242</ele>
        <time>2016-11-26T09:47:57Z</time>
      </trkpt>
      <trkpt lat="45.98338" lon="4.77857">
        <ele>242</ele>
        <time>2016-11-26T09:47:58Z</time>
      </trkpt>
      <trkpt lat="45.98343" lon="4.77855">
        <ele>242</ele>
        <time>2016-11-26T09:47:59Z</time>
      </trkpt>
      <trkpt lat="45.98348" lon="4.77853">
        <ele>242</ele>
        <time>2016-11-26T09:48:00Z</time>
      </trkpt>
      <trkpt lat="45.98352" lon="4.77851">
        <ele>242</ele>
        <time>2016-11-26T09:48:01Z</time>
      </trkpt>
      <trkpt lat="45.98357" lon="4.77849">
        <ele>242</ele>
        <time>2016-11-26T09:48:02Z</time>
      </trkpt>
      <trkpt lat="45.98361" lon="4.77847">
        <ele>242</ele>
        <time>2016-11-26T09:48:03Z</time>
      </trkpt>
      <trkpt lat="45.98366" lon="4.77845">
        <ele>242</ele>
        <time>2016-11-26T09:48:04Z</time>
      </trkpt>
      <trkpt lat="45.9837" lon="4.77843">
        <ele>242</ele>
        <time>2016-11-26T09:48:05Z</time>
      </trkpt>
      <trkpt lat="45.98375" lon="4.77841">
        <ele>242</ele>
        <time>2016-11-26T09:48:06Z</time>
      </trkpt>
      <trkpt lat="45.98379" lon="4.77839">
        <ele>242</ele>
        <time>2016-11-26T09:48:07Z</time>
      </trkpt>
      <trkpt lat="45.98384" lon="4.77836">
        <ele>242</ele>
        <time>2016-11-26T09:48:08Z</time>
      </trkpt>
      <trkpt lat="45.98389" lon="4.77834">
        <ele>242</ele>
        <time>2016-11-26T09:48:09Z</time>
      </trkpt>
      <trkpt lat="45.98394" lon="4.77832">
        <ele>241</ele>
        <time>2016-11-26T09:48:10Z</time>
      </trkpt>
      <trkpt lat="45.98399" lon="4.7783">
        <ele>241</ele>
        <time>2016-11-26T09:48:11Z</time>
      </trkpt>
      <trkpt lat="45.98404" lon="4.77828">
        <ele>241</ele>
        <time>2016-11-26T09:48:12Z</time>
      </trkpt>
      <trkpt lat="45.98409" lon="4.77826">
        <ele>241</ele>
        <time>2016-11-26T09:48:13Z</time>
      </trkpt>
      <trkpt lat="45.98414" lon="4.77823">
        <ele>241</ele>
        <time>2016-11-26T09:48:14Z</time>
      </trkpt>
      <trkpt lat="45.9842" lon="4.77821">
        <ele>240</ele>
        <time>2016-11-26T09:48:15Z</time>
      </trkpt>
      <trkpt lat="45.98425" lon="4.77819">
        <ele>240</ele>
        <time>2016-11-26T09:48:16Z</time>
      </trkpt>
      <trkpt lat="45.9843" lon="4.77817">
        <ele>240</ele>
        <time>2016-11-26T09:48:17Z</time>
      </trkpt>
      <trkpt lat="45.98435" lon="4.77815">
        <ele>239</ele>
        <time>2016-11-26T09:48:18Z</time>
      </trkpt>
      <trkpt lat="45.9844" lon="4.77812">
        <ele>239</ele>
        <time>2016-11-26T09:48:19Z</time>
      </trkpt>
      <trkpt lat="45.98445" lon="4.7781">
        <ele>239</ele>
        <time>2016-11-26T09:48:20Z</time>
      </trkpt>
      <trkpt lat="45.9845" lon="4.77807">
        <ele>239</ele>
        <time>2016-11-26T09:48:21Z</time>
      </trkpt>
      <trkpt lat="45.98455" lon="4.77805">
        <ele>239</ele>
        <time>2016-11-26T09:48:22Z</time>
      </trkpt>
      <trkpt lat="45.9846" lon="4.77803">
        <ele>239</ele>
        <time>2016-11-26T09:48:23Z</time>
      </trkpt>
      <trkpt lat="45.98465" lon="4.77801">
        <ele>238</ele>
        <time>2016-11-26T09:48:24Z</time>
      </trkpt>
      <trkpt lat="45.9847" lon="4.77799">
        <ele>238</ele>
        <time>2016-11-26T09:48:25Z</time>
      </trkpt>
      <trkpt lat="45.98475" lon="4.77797">
        <ele>238</ele>
        <time>2016-11-26T09:48:26Z</time>
      </trkpt>
      <trkpt lat="45.98481" lon="4.77795">
        <ele>238</ele>
        <time>2016-11-26T09:48:27Z</time>
      </trkpt>
      <trkpt lat="45.98486" lon="4.77793">
        <ele>238</ele>
        <time>2016-11-26T09:48:28Z</time>
      </trkpt>
      <trkpt lat="45.9849" lon="4.77791">
        <ele>238</ele>
        <time>2016-11-26T09:48:29Z</time>
      </trkpt>
      <trkpt lat="45.98496" lon="4.77789">
        <ele>238</ele>
        <time>2016-11-26T09:48:30Z</time>
      </trkpt>
      <trkpt lat="45.985" lon="4.77787">
        <ele>236</ele>
        <time>2016-11-26T09:48:31Z</time>
      </trkpt>
      <trkpt lat="45.98505" lon="4.77785">
        <ele>236</ele>
        <time>2016-11-26T09:48:32Z</time>
      </trkpt>
      <trkpt lat="45.98512" lon="4.77781">
        <ele>236</ele>
        <time>2016-11-26T09:48:34Z</time>
      </trkpt>
      <trkpt lat="45.98516" lon="4.77778">
        <ele>236</ele>
        <time>2016-11-26T09:48:35Z</time>
      </trkpt>
      <trkpt lat="45.9852" lon="4.77776">
        <ele>236</ele>
        <time>2016-11-26T09:48:37Z</time>
      </trkpt>
      <trkpt lat="45.98521" lon="4.77776">
        <ele>236</ele>
        <time>2016-11-26T09:48:38Z</time>
      </trkpt>
      <trkpt lat="45.98522" lon="4.77776">
        <ele>236</ele>
        <time>2016-11-26T09:49:04Z</time>
      </trkpt>
      <trkpt lat="45.98523" lon="4.77775">
        <ele>236</ele>
        <time>2016-11-26T09:49:05Z</time>
      </trkpt>
      <trkpt lat="45.98531" lon="4.77772">
        <ele>236</ele>
        <time>2016-11-26T09:49:09Z</time>
      </trkpt>
      <trkpt lat="45.98533" lon="4.77772">
        <ele>236</ele>
        <time>2016-11-26T09:49:10Z</time>
      </trkpt>
      <trkpt lat="45.98538" lon="4.77767">
        <ele>235</ele>
        <time>2016-11-26T09:49:12Z</time>
      </trkpt>
      <trkpt lat="45.98541" lon="4.77764">
        <ele>235</ele>
        <time>2016-11-26T09:49:13Z</time>
      </trkpt>
      <trkpt lat="45.98548" lon="4.77759">
        <ele>235</ele>
        <time>2016-11-26T09:49:15Z</time>
      </trkpt>
      <trkpt lat="45.98552" lon="4.77756">
        <ele>235</ele>
        <time>2016-11-26T09:49:16Z</time>
      </trkpt>
      <trkpt lat="45.98559" lon="4.77751">
        <ele>235</ele>
        <time>2016-11-26T09:49:18Z</time>
      </trkpt>
      <trkpt lat="45.98564" lon="4.77749">
        <ele>233</ele>
        <time>2016-11-26T09:49:19Z</time>
      </trkpt>
      <trkpt lat="45.98568" lon="4.77747">
        <ele>233</ele>
        <time>2016-11-26T09:49:20Z</time>
      </trkpt>
      <trkpt lat="45.98573" lon="4.77745">
        <ele>233</ele>
        <time>2016-11-26T09:49:21Z</time>
      </trkpt>
      <trkpt lat="45.98578" lon="4.77742">
        <ele>233</ele>
        <time>2016-11-26T09:49:22Z</time>
      </trkpt>
      <trkpt lat="45.98584" lon="4.77739">
        <ele>232</ele>
        <time>2016-11-26T09:49:23Z</time>
      </trkpt>
      <trkpt lat="45.9859" lon="4.77736">
        <ele>232</ele>
        <time>2016-11-26T09:49:24Z</time>
      </trkpt>
      <trkpt lat="45.98596" lon="4.77732">
        <ele>232</ele>
        <time>2016-11-26T09:49:25Z</time>
      </trkpt>
      <trkpt lat="45.98602" lon="4.77729">
        <ele>231</ele>
        <time>2016-11-26T09:49:26Z</time>
      </trkpt>
      <trkpt lat="45.98607" lon="4.77725">
        <ele>231</ele>
        <time>2016-11-26T09:49:27Z</time>
      </trkpt>
      <trkpt lat="45.98614" lon="4.7772">
        <ele>231</ele>
        <time>2016-11-26T09:49:28Z</time>
      </trkpt>
      <trkpt lat="45.98621" lon="4.77715">
        <ele>231</ele>
        <time>2016-11-26T09:49:29Z</time>
      </trkpt>
      <trkpt lat="45.98628" lon="4.77709">
        <ele>230</ele>
        <time>2016-11-26T09:49:30Z</time>
      </trkpt>
      <trkpt lat="45.98635" lon="4.77703">
        <ele>230</ele>
        <time>2016-11-26T09:49:31Z</time>
      </trkpt>
      <trkpt lat="45.98642" lon="4.77697">
        <ele>230</ele>
        <time>2016-11-26T09:49:32Z</time>
      </trkpt>
      <trkpt lat="45.98649" lon="4.7769">
        <ele>230</ele>
        <time>2016-11-26T09:49:33Z</time>
      </trkpt>
      <trkpt lat="45.98656" lon="4.77683">
        <ele>229</ele>
        <time>2016-11-26T09:49:34Z</time>
      </trkpt>
      <trkpt lat="45.98663" lon="4.77676">
        <ele>229</ele>
        <time>2016-11-26T09:49:35Z</time>
      </trkpt>
      <trkpt lat="45.9867" lon="4.77667">
        <ele>228</ele>
        <time>2016-11-26T09:49:36Z</time>
      </trkpt>
      <trkpt lat="45.98677" lon="4.77659">
        <ele>226</ele>
        <time>2016-11-26T09:49:37Z</time>
      </trkpt>
      <trkpt lat="45.98684" lon="4.77651">
        <ele>225</ele>
        <time>2016-11-26T09:49:38Z</time>
      </trkpt>
      <trkpt lat="45.98692" lon="4.77642">
        <ele>224</ele>
        <time>2016-11-26T09:49:39Z</time>
      </trkpt>
      <trkpt lat="45.98699" lon="4.77634">
        <ele>224</ele>
        <time>2016-11-26T09:49:40Z</time>
      </trkpt>
      <trkpt lat="45.98707" lon="4.77626">
        <ele>224</ele>
        <time>2016-11-26T09:49:41Z</time>
      </trkpt>
      <trkpt lat="45.98715" lon="4.77618">
        <ele>223</ele>
        <time>2016-11-26T09:49:42Z</time>
      </trkpt>
      <trkpt lat="45.98723" lon="4.7761">
        <ele>223</ele>
        <time>2016-11-26T09:49:43Z</time>
      </trkpt>
      <trkpt lat="45.98731" lon="4.77602">
        <ele>222</ele>
        <time>2016-11-26T09:49:44Z</time>
      </trkpt>
      <trkpt lat="45.98739" lon="4.77594">
        <ele>222</ele>
        <time>2016-11-26T09:49:45Z</time>
      </trkpt>
      <trkpt lat="45.98748" lon="4.77585">
        <ele>220</ele>
        <time>2016-11-26T09:49:46Z</time>
      </trkpt>
      <trkpt lat="45.98756" lon="4.77578">
        <ele>219</ele>
        <time>2016-11-26T09:49:47Z</time>
      </trkpt>
      <trkpt lat="45.98764" lon="4.7757">
        <ele>219</ele>
        <time>2016-11-26T09:49:48Z</time>
      </trkpt>
      <trkpt lat="45.98773" lon="4.77563">
        <ele>218</ele>
        <time>2016-11-26T09:49:49Z</time>
      </trkpt>
      <trkpt lat="45.98781" lon="4.77556">
        <ele>218</ele>
        <time>2016-11-26T09:49:50Z</time>
      </trkpt>
      <trkpt lat="45.98788" lon="4.77549">
        <ele>217</ele>
        <time>2016-11-26T09:49:51Z</time>
      </trkpt>
      <trkpt lat="45.98795" lon="4.77542">
        <ele>217</ele>
        <time>2016-11-26T09:49:52Z</time>
      </trkpt>
      <trkpt lat="45.98802" lon="4.77534">
        <ele>217</ele>
        <time>2016-11-26T09:49:53Z</time>
      </trkpt>
      <trkpt lat="45.98808" lon="4.77525">
        <ele>217</ele>
        <time>2016-11-26T09:49:54Z</time>
      </trkpt>
      <trkpt lat="45.98813" lon="4.77515">
        <ele>216</ele>
        <time>2016-11-26T09:49:55Z</time>
      </trkpt>
      <trkpt lat="45.98817" lon="4.77504">
        <ele>216</ele>
        <time>2016-11-26T09:49:56Z</time>
      </trkpt>
      <trkpt lat="45.98822" lon="4.77494">
        <ele>214</ele>
        <time>2016-11-26T09:49:57Z</time>
      </trkpt>
      <trkpt lat="45.98826" lon="4.77484">
        <ele>213</ele>
        <time>2016-11-26T09:49:58Z</time>
      </trkpt>
      <trkpt lat="45.9883" lon="4.77475">
        <ele>213</ele>
        <time>2016-11-26T09:49:59Z</time>
      </trkpt>
      <trkpt lat="45.98835" lon="4.77467">
        <ele>210</ele>
        <time>2016-11-26T09:50:00Z</time>
      </trkpt>
      <trkpt lat="45.98841" lon="4.77461">
        <ele>210</ele>
        <time>2016-11-26T09:50:01Z</time>
      </trkpt>
      <trkpt lat="45.98848" lon="4.77457">
        <ele>209</ele>
        <time>2016-11-26T09:50:02Z</time>
      </trkpt>
      <trkpt lat="45.98855" lon="4.77454">
        <ele>209</ele>
        <time>2016-11-26T09:50:03Z</time>
      </trkpt>
      <trkpt lat="45.98862" lon="4.77451">
        <ele>209</ele>
        <time>2016-11-26T09:50:04Z</time>
      </trkpt>
      <trkpt lat="45.9887" lon="4.77448">
        <ele>209</ele>
        <time>2016-11-26T09:50:05Z</time>
      </trkpt>
      <trkpt lat="45.98878" lon="4.77444">
        <ele>208</ele>
        <time>2016-11-26T09:50:06Z</time>
      </trkpt>
      <trkpt lat="45.98886" lon="4.7744">
        <ele>208</ele>
        <time>2016-11-26T09:50:07Z</time>
      </trkpt>
      <trkpt lat="45.98895" lon="4.77436">
        <ele>208</ele>
        <time>2016-11-26T09:50:08Z</time>
      </trkpt>
      <trkpt lat="45.98903" lon="4.77432">
        <ele>207</ele>
        <time>2016-11-26T09:50:09Z</time>
      </trkpt>
      <trkpt lat="45.98911" lon="4.77428">
        <ele>206</ele>
        <time>2016-11-26T09:50:10Z</time>
      </trkpt>
      <trkpt lat="45.98919" lon="4.77424">
        <ele>205</ele>
        <time>2016-11-26T09:50:11Z</time>
      </trkpt>
      <trkpt lat="45.98928" lon="4.77421">
        <ele>205</ele>
        <time>2016-11-26T09:50:12Z</time>
      </trkpt>
      <trkpt lat="45.98936" lon="4.77417">
        <ele>205</ele>
        <time>2016-11-26T09:50:13Z</time>
      </trkpt>
      <trkpt lat="45.98944" lon="4.77414">
        <ele>203</ele>
        <time>2016-11-26T09:50:14Z</time>
      </trkpt>
      <trkpt lat="45.98952" lon="4.7741">
        <ele>203</ele>
        <time>2016-11-26T09:50:15Z</time>
      </trkpt>
      <trkpt lat="45.98959" lon="4.77408">
        <ele>202</ele>
        <time>2016-11-26T09:50:16Z</time>
      </trkpt>
      <trkpt lat="45.98964" lon="4.77405">
        <ele>202</ele>
        <time>2016-11-26T09:50:17Z</time>
      </trkpt>
      <trkpt lat="45.98969" lon="4.77402">
        <ele>202</ele>
        <time>2016-11-26T09:50:18Z</time>
      </trkpt>
      <trkpt lat="45.98973" lon="4.774">
        <ele>202</ele>
        <time>2016-11-26T09:50:19Z</time>
      </trkpt>
      <trkpt lat="45.98981" lon="4.77395">
        <ele>202</ele>
        <time>2016-11-26T09:50:21Z</time>
      </trkpt>
      <trkpt lat="45.98986" lon="4.77393">
        <ele>202</ele>
        <time>2016-11-26T09:50:22Z</time>
      </trkpt>
      <trkpt lat="45.9899" lon="4.77392">
        <ele>202</ele>
        <time>2016-11-26T09:50:23Z</time>
      </trkpt>
      <trkpt lat="45.98995" lon="4.7739">
        <ele>202</ele>
        <time>2016-11-26T09:50:24Z</time>
      </trkpt>
      <trkpt lat="45.99001" lon="4.77387">
        <ele>201</ele>
        <time>2016-11-26T09:50:25Z</time>
      </trkpt>
      <trkpt lat="45.99006" lon="4.77384">
        <ele>201</ele>
        <time>2016-11-26T09:50:26Z</time>
      </trkpt>
      <trkpt lat="45.99011" lon="4.77382">
        <ele>201</ele>
        <time>2016-11-26T09:50:27Z</time>
      </trkpt>
      <trkpt lat="45.99017" lon="4.77379">
        <ele>201</ele>
        <time>2016-11-26T09:50:28Z</time>
      </trkpt>
      <trkpt lat="45.99022" lon="4.77376">
        <ele>201</ele>
        <time>2016-11-26T09:50:29Z</time>
      </trkpt>
      <trkpt lat="45.99028" lon="4.77374">
        <ele>200</ele>
        <time>2016-11-26T09:50:30Z</time>
      </trkpt>
      <trkpt lat="45.99034" lon="4.77372">
        <ele>200</ele>
        <time>2016-11-26T09:50:31Z</time>
      </trkpt>
      <trkpt lat="45.9904" lon="4.7737">
        <ele>200</ele>
        <time>2016-11-26T09:50:32Z</time>
      </trkpt>
      <trkpt lat="45.99046" lon="4.77367">
        <ele>200</ele>
        <time>2016-11-26T09:50:33Z</time>
      </trkpt>
      <trkpt lat="45.99051" lon="4.77365">
        <ele>200</ele>
        <time>2016-11-26T09:50:34Z</time>
      </trkpt>
      <trkpt lat="45.99057" lon="4.77365">
        <ele>200</ele>
        <time>2016-11-26T09:50:35Z</time>
      </trkpt>
      <trkpt lat="45.99062" lon="4.77364">
        <ele>200</ele>
        <time>2016-11-26T09:50:36Z</time>
      </trkpt>
      <trkpt lat="45.99067" lon="4.77363">
        <ele>200</ele>
        <time>2016-11-26T09:50:37Z</time>
      </trkpt>
      <trkpt lat="45.99071" lon="4.77362">
        <ele>200</ele>
        <time>2016-11-26T09:50:38Z</time>
      </trkpt>
      <trkpt lat="45.99076" lon="4.77362">
        <ele>200</ele>
        <time>2016-11-26T09:50:39Z</time>
      </trkpt>
      <trkpt lat="45.9908" lon="4.77362">
        <ele>200</ele>
        <time>2016-11-26T09:50:40Z</time>
      </trkpt>
      <trkpt lat="45.99089" lon="4.77361">
        <ele>201</ele>
        <time>2016-11-26T09:50:42Z</time>
      </trkpt>
      <trkpt lat="45.99093" lon="4.7736">
        <ele>201</ele>
        <time>2016-11-26T09:50:43Z</time>
      </trkpt>
      <trkpt lat="45.99102" lon="4.77357">
        <ele>201</ele>
        <time>2016-11-26T09:50:45Z</time>
      </trkpt>
      <trkpt lat="45.99106" lon="4.77357">
        <ele>201</ele>
        <time>2016-11-26T09:50:46Z</time>
      </trkpt>
      <trkpt lat="45.9911" lon="4.77356">
        <ele>201</ele>
        <time>2016-11-26T09:50:47Z</time>
      </trkpt>
      <trkpt lat="45.99115" lon="4.77355">
        <ele>201</ele>
        <time>2016-11-26T09:50:48Z</time>
      </trkpt>
      <trkpt lat="45.9912" lon="4.77354">
        <ele>201</ele>
        <time>2016-11-26T09:50:49Z</time>
      </trkpt>
      <trkpt lat="45.99125" lon="4.77353">
        <ele>201</ele>
        <time>2016-11-26T09:50:50Z</time>
      </trkpt>
      <trkpt lat="45.9913" lon="4.77352">
        <ele>201</ele>
        <time>2016-11-26T09:50:51Z</time>
      </trkpt>
      <trkpt lat="45.99134" lon="4.7735">
        <ele>201</ele>
        <time>2016-11-26T09:50:52Z</time>
      </trkpt>
      <trkpt lat="45.99142" lon="4.77349">
        <ele>201</ele>
        <time>2016-11-26T09:50:54Z</time>
      </trkpt>
      <trkpt lat="45.99146" lon="4.77349">
        <ele>201</ele>
        <time>2016-11-26T09:50:55Z</time>
      </trkpt>
      <trkpt lat="45.99151" lon="4.77344">
        <ele>201</ele>
        <time>2016-11-26T09:50:57Z</time>
      </trkpt>
      <trkpt lat="45.99153" lon="4.7734">
        <ele>201</ele>
        <time>2016-11-26T09:50:58Z</time>
      </trkpt>
      <trkpt lat="45.99155" lon="4.77329">
        <ele>201</ele>
        <time>2016-11-26T09:51:00Z</time>
      </trkpt>
      <trkpt lat="45.99155" lon="4.77323">
        <ele>201</ele>
        <time>2016-11-26T09:51:01Z</time>
      </trkpt>
      <trkpt lat="45.99156" lon="4.77316">
        <ele>200</ele>
        <time>2016-11-26T09:51:02Z</time>
      </trkpt>
      <trkpt lat="45.99156" lon="4.7731">
        <ele>200</ele>
        <time>2016-11-26T09:51:03Z</time>
      </trkpt>
      <trkpt lat="45.99157" lon="4.77303">
        <ele>200</ele>
        <time>2016-11-26T09:51:04Z</time>
      </trkpt>
      <trkpt lat="45.99157" lon="4.77296">
        <ele>200</ele>
        <time>2016-11-26T09:51:05Z</time>
      </trkpt>
      <trkpt lat="45.99157" lon="4.77289">
        <ele>200</ele>
        <time>2016-11-26T09:51:06Z</time>
      </trkpt>
      <trkpt lat="45.99157" lon="4.77282">
        <ele>200</ele>
        <time>2016-11-26T09:51:07Z</time>
      </trkpt>
      <trkpt lat="45.99158" lon="4.77275">
        <ele>200</ele>
        <time>2016-11-26T09:51:08Z</time>
      </trkpt>
      <trkpt lat="45.99159" lon="4.77268">
        <ele>200</ele>
        <time>2016-11-26T09:51:09Z</time>
      </trkpt>
      <trkpt lat="45.99159" lon="4.77261">
        <ele>200</ele>
        <time>2016-11-26T09:51:10Z</time>
      </trkpt>
      <trkpt lat="45.9916" lon="4.77255">
        <ele>200</ele>
        <time>2016-11-26T09:51:11Z</time>
      </trkpt>
      <trkpt lat="45.9916" lon="4.77248">
        <ele>200</ele>
        <time>2016-11-26T09:51:12Z</time>
      </trkpt>
      <trkpt lat="45.9916" lon="4.77241">
        <ele>200</ele>
        <time>2016-11-26T09:51:13Z</time>
      </trkpt>
      <trkpt lat="45.9916" lon="4.77234">
        <ele>200</ele>
        <time>2016-11-26T09:51:14Z</time>
      </trkpt>
      <trkpt lat="45.9916" lon="4.77226">
        <ele>200</ele>
        <time>2016-11-26T09:51:15Z</time>
      </trkpt>
      <trkpt lat="45.9916" lon="4.77217">
        <ele>200</ele>
        <time>2016-11-26T09:51:16Z</time>
      </trkpt>
      <trkpt lat="45.99159" lon="4.77209">
        <ele>200</ele>
        <time>2016-11-26T09:51:17Z</time>
      </trkpt>
      <trkpt lat="45.99158" lon="4.77201">
        <ele>200</ele>
        <time>2016-11-26T09:51:18Z</time>
      </trkpt>
      <trkpt lat="45.99157" lon="4.77192">
        <ele>200</ele>
        <time>2016-11-26T09:51:19Z</time>
      </trkpt>
      <trkpt lat="45.99155" lon="4.77184">
        <ele>200</ele>
        <time>2016-11-26T09:51:20Z</time>
      </trkpt>
      <trkpt lat="45.99153" lon="4.77176">
        <ele>200</ele>
        <time>2016-11-26T09:51:21Z</time>
      </trkpt>
      <trkpt lat="45.9915" lon="4.77168">
        <ele>200</ele>
        <time>2016-11-26T09:51:22Z</time>
      </trkpt>
      <trkpt lat="45.99148" lon="4.7716">
        <ele>201</ele>
        <time>2016-11-26T09:51:23Z</time>
      </trkpt>
      <trkpt lat="45.99145" lon="4.77152">
        <ele>201</ele>
        <time>2016-11-26T09:51:24Z</time>
      </trkpt>
      <trkpt lat="45.99143" lon="4.77144">
        <ele>201</ele>
        <time>2016-11-26T09:51:25Z</time>
      </trkpt>
      <trkpt lat="45.99141" lon="4.77136">
        <ele>201</ele>
        <time>2016-11-26T09:51:26Z</time>
      </trkpt>
      <trkpt lat="45.99139" lon="4.77129">
        <ele>201</ele>
        <time>2016-11-26T09:51:27Z</time>
      </trkpt>
      <trkpt lat="45.99136" lon="4.77121">
        <ele>201</ele>
        <time>2016-11-26T09:51:28Z</time>
      </trkpt>
      <trkpt lat="45.99134" lon="4.77113">
        <ele>201</ele>
        <time>2016-11-26T09:51:29Z</time>
      </trkpt>
      <trkpt lat="45.99132" lon="4.77105">
        <ele>201</ele>
        <time>2016-11-26T09:51:30Z</time>
      </trkpt>
      <trkpt lat="45.9913" lon="4.77097">
        <ele>201</ele>
        <time>2016-11-26T09:51:31Z</time>
      </trkpt>
      <trkpt lat="45.99128" lon="4.77089">
        <ele>201</ele>
        <time>2016-11-26T09:51:32Z</time>
      </trkpt>
      <trkpt lat="45.99126" lon="4.77081">
        <ele>202</ele>
        <time>2016-11-26T09:51:33Z</time>
      </trkpt>
      <trkpt lat="45.99123" lon="4.77074">
        <ele>202</ele>
        <time>2016-11-26T09:51:34Z</time>
      </trkpt>
      <trkpt lat="45.99121" lon="4.77066">
        <ele>202</ele>
        <time>2016-11-26T09:51:35Z</time>
      </trkpt>
      <trkpt lat="45.99119" lon="4.77058">
        <ele>202</ele>
        <time>2016-11-26T09:51:36Z</time>
      </trkpt>
      <trkpt lat="45.99116" lon="4.77051">
        <ele>202</ele>
        <time>2016-11-26T09:51:37Z</time>
      </trkpt>
      <trkpt lat="45.99113" lon="4.77043">
        <ele>202</ele>
        <time>2016-11-26T09:51:38Z</time>
      </trkpt>
      <trkpt lat="45.9911" lon="4.77035">
        <ele>202</ele>
        <time>2016-11-26T09:51:39Z</time>
      </trkpt>
      <trkpt lat="45.99107" lon="4.77028">
        <ele>202</ele>
        <time>2016-11-26T09:51:40Z</time>
      </trkpt>
      <trkpt lat="45.99104" lon="4.7702">
        <ele>202</ele>
        <time>2016-11-26T09:51:41Z</time>
      </trkpt>
      <trkpt lat="45.99101" lon="4.77012">
        <ele>201</ele>
        <time>2016-11-26T09:51:42Z</time>
      </trkpt>
      <trkpt lat="45.99098" lon="4.77004">
        <ele>201</ele>
        <time>2016-11-26T09:51:43Z</time>
      </trkpt>
      <trkpt lat="45.99094" lon="4.76996">
        <ele>201</ele>
        <time>2016-11-26T09:51:44Z</time>
      </trkpt>
      <trkpt lat="45.99091" lon="4.76989">
        <ele>201</ele>
        <time>2016-11-26T09:51:45Z</time>
      </trkpt>
      <trkpt lat="45.99087" lon="4.76981">
        <ele>202</ele>
        <time>2016-11-26T09:51:46Z</time>
      </trkpt>
      <trkpt lat="45.99083" lon="4.76974">
        <ele>198</ele>
        <time>2016-11-26T09:51:47Z</time>
      </trkpt>
      <trkpt lat="45.99079" lon="4.76966">
        <ele>198</ele>
        <time>2016-11-26T09:51:48Z</time>
      </trkpt>
      <trkpt lat="45.99076" lon="4.76959">
        <ele>198</ele>
        <time>2016-11-26T09:51:49Z</time>
      </trkpt>
      <trkpt lat="45.99072" lon="4.76951">
        <ele>198</ele>
        <time>2016-11-26T09:51:50Z</time>
      </trkpt>
      <trkpt lat="45.99069" lon="4.76944">
        <ele>198</ele>
        <time>2016-11-26T09:51:51Z</time>
      </trkpt>
      <trkpt lat="45.99065" lon="4.76936">
        <ele>198</ele>
        <time>2016-11-26T09:51:52Z</time>
      </trkpt>
      <trkpt lat="45.99061" lon="4.76929">
        <ele>198</ele>
        <time>2016-11-26T09:51:53Z</time>
      </trkpt>
      <trkpt lat="45.99057" lon="4.76921">
        <ele>198</ele>
        <time>2016-11-26T09:51:54Z</time>
      </trkpt>
      <trkpt lat="45.99053" lon="4.76914">
        <ele>199</ele>
        <time>2016-11-26T09:51:55Z</time>
      </trkpt>
      <trkpt lat="45.99049" lon="4.76906">
        <ele>199</ele>
        <time>2016-11-26T09:51:56Z</time>
      </trkpt>
      <trkpt lat="45.99045" lon="4.76898">
        <ele>199</ele>
        <time>2016-11-26T09:51:57Z</time>
      </trkpt>
      <trkpt lat="45.99041" lon="4.7689">
        <ele>199</ele>
        <time>2016-11-26T09:51:58Z</time>
      </trkpt>
      <trkpt lat="45.99037" lon="4.76882">
        <ele>199</ele>
        <time>2016-11-26T09:51:59Z</time>
      </trkpt>
      <trkpt lat="45.99033" lon="4.76875">
        <ele>199</ele>
        <time>2016-11-26T09:52:00Z</time>
      </trkpt>
      <trkpt lat="45.99029" lon="4.76867">
        <ele>199</ele>
        <time>2016-11-26T09:52:01Z</time>
      </trkpt>
      <trkpt lat="45.99026" lon="4.7686">
        <ele>199</ele>
        <time>2016-11-26T09:52:02Z</time>
      </trkpt>
      <trkpt lat="45.99022" lon="4.76852">
        <ele>199</ele>
        <time>2016-11-26T09:52:03Z</time>
      </trkpt>
      <trkpt lat="45.99018" lon="4.76845">
        <ele>199</ele>
        <time>2016-11-26T09:52:04Z</time>
      </trkpt>
      <trkpt lat="45.99015" lon="4.76837">
        <ele>199</ele>
        <time>2016-11-26T09:52:05Z</time>
      </trkpt>
      <trkpt lat="45.99012" lon="4.76829">
        <ele>200</ele>
        <time>2016-11-26T09:52:06Z</time>
      </trkpt>
      <trkpt lat="45.99009" lon="4.76822">
        <ele>200</ele>
        <time>2016-11-26T09:52:07Z</time>
      </trkpt>
      <trkpt lat="45.99005" lon="4.76815">
        <ele>200</ele>
        <time>2016-11-26T09:52:08Z</time>
      </trkpt>
      <trkpt lat="45.99002" lon="4.76807">
        <ele>201</ele>
        <time>2016-11-26T09:52:09Z</time>
      </trkpt>
      <trkpt lat="45.98999" lon="4.768">
        <ele>197</ele>
        <time>2016-11-26T09:52:10Z</time>
      </trkpt>
      <trkpt lat="45.98996" lon="4.76792">
        <ele>197</ele>
        <time>2016-11-26T09:52:11Z</time>
      </trkpt>
      <trkpt lat="45.98993" lon="4.76784">
        <ele>197</ele>
        <time>2016-11-26T09:52:12Z</time>
      </trkpt>
      <trkpt lat="45.9899" lon="4.76777">
        <ele>197</ele>
        <time>2016-11-26T09:52:13Z</time>
      </trkpt>
      <trkpt lat="45.98987" lon="4.76769">
        <ele>197</ele>
        <time>2016-11-26T09:52:14Z</time>
      </trkpt>
      <trkpt lat="45.98984" lon="4.76762">
        <ele>197</ele>
        <time>2016-11-26T09:52:15Z</time>
      </trkpt>
      <trkpt lat="45.98979" lon="4.76756">
        <ele>197</ele>
        <time>2016-11-26T09:52:16Z</time>
      </trkpt>
      <trkpt lat="45.98975" lon="4.7675">
        <ele>197</ele>
        <time>2016-11-26T09:52:17Z</time>
      </trkpt>
      <trkpt lat="45.9897" lon="4.76745">
        <ele>198</ele>
        <time>2016-11-26T09:52:18Z</time>
      </trkpt>
      <trkpt lat="45.98965" lon="4.7674">
        <ele>198</ele>
        <time>2016-11-26T09:52:19Z</time>
      </trkpt>
      <trkpt lat="45.98961" lon="4.76735">
        <ele>198</ele>
        <time>2016-11-26T09:52:20Z</time>
      </trkpt>
      <trkpt lat="45.98956" lon="4.76729">
        <ele>198</ele>
        <time>2016-11-26T09:52:21Z</time>
      </trkpt>
      <trkpt lat="45.9895" lon="4.76724">
        <ele>198</ele>
        <time>2016-11-26T09:52:22Z</time>
      </trkpt>
      <trkpt lat="45.98945" lon="4.76719">
        <ele>198</ele>
        <time>2016-11-26T09:52:23Z</time>
      </trkpt>
      <trkpt lat="45.98939" lon="4.76713">
        <ele>198</ele>
        <time>2016-11-26T09:52:24Z</time>
      </trkpt>
      <trkpt lat="45.98934" lon="4.76707">
        <ele>198</ele>
        <time>2016-11-26T09:52:25Z</time>
      </trkpt>
      <trkpt lat="45.98929" lon="4.76702">
        <ele>198</ele>
        <time>2016-11-26T09:52:26Z</time>
      </trkpt>
      <trkpt lat="45.98924" lon="4.76697">
        <ele>198</ele>
        <time>2016-11-26T09:52:27Z</time>
      </trkpt>
      <trkpt lat="45.98918" lon="4.76692">
        <ele>198</ele>
        <time>2016-11-26T09:52:28Z</time>
      </trkpt>
      <trkpt lat="45.98913" lon="4.76687">
        <ele>195</ele>
        <time>2016-11-26T09:52:29Z</time>
      </trkpt>
      <trkpt lat="45.98908" lon="4.76682">
        <ele>195</ele>
        <time>2016-11-26T09:52:30Z</time>
      </trkpt>
      <trkpt lat="45.98903" lon="4.76677">
        <ele>195</ele>
        <time>2016-11-26T09:52:31Z</time>
      </trkpt>
      <trkpt lat="45.98898" lon="4.76672">
        <ele>195</ele>
        <time>2016-11-26T09:52:32Z</time>
      </trkpt>
      <trkpt lat="45.98893" lon="4.76666">
        <ele>196</ele>
        <time>2016-11-26T09:52:33Z</time>
      </trkpt>
      <trkpt lat="45.98888" lon="4.76661">
        <ele>196</ele>
        <time>2016-11-26T09:52:34Z</time>
      </trkpt>
      <trkpt lat="45.98883" lon="4.76656">
        <ele>196</ele>
        <time>2016-11-26T09:52:35Z</time>
      </trkpt>
      <trkpt lat="45.98877" lon="4.76652">
        <ele>196</ele>
        <time>2016-11-26T09:52:36Z</time>
      </trkpt>
      <trkpt lat="45.98872" lon="4.76646">
        <ele>196</ele>
        <time>2016-11-26T09:52:37Z</time>
      </trkpt>
      <trkpt lat="45.98867" lon="4.76641">
        <ele>196</ele>
        <time>2016-11-26T09:52:38Z</time>
      </trkpt>
      <trkpt lat="45.98861" lon="4.76635">
        <ele>196</ele>
        <time>2016-11-26T09:52:39Z</time>
      </trkpt>
      <trkpt lat="45.98855" lon="4.76629">
        <ele>196</ele>
        <time>2016-11-26T09:52:40Z</time>
      </trkpt>
      <trkpt lat="45.9885" lon="4.76623">
        <ele>196</ele>
        <time>2016-11-26T09:52:41Z</time>
      </trkpt>
      <trkpt lat="45.98845" lon="4.76617">
        <ele>196</ele>
        <time>2016-11-26T09:52:42Z</time>
      </trkpt>
      <trkpt lat="45.98839" lon="4.7661">
        <ele>196</ele>
        <time>2016-11-26T09:52:43Z</time>
      </trkpt>
      <trkpt lat="45.98833" lon="4.76604">
        <ele>193</ele>
        <time>2016-11-26T09:52:44Z</time>
      </trkpt>
      <trkpt lat="45.98828" lon="4.76599">
        <ele>193</ele>
        <time>2016-11-26T09:52:45Z</time>
      </trkpt>
      <trkpt lat="45.98822" lon="4.76593">
        <ele>193</ele>
        <time>2016-11-26T09:52:46Z</time>
      </trkpt>
      <trkpt lat="45.98816" lon="4.76586">
        <ele>193</ele>
        <time>2016-11-26T09:52:47Z</time>
      </trkpt>
      <trkpt lat="45.9881" lon="4.7658">
        <ele>193</ele>
        <time>2016-11-26T09:52:48Z</time>
      </trkpt>
      <trkpt lat="45.98804" lon="4.76573">
        <ele>192</ele>
        <time>2016-11-26T09:52:49Z</time>
      </trkpt>
      <trkpt lat="45.98797" lon="4.76567">
        <ele>192</ele>
        <time>2016-11-26T09:52:50Z</time>
      </trkpt>
      <trkpt lat="45.98791" lon="4.7656">
        <ele>192</ele>
        <time>2016-11-26T09:52:51Z</time>
      </trkpt>
      <trkpt lat="45.98785" lon="4.76553">
        <ele>191</ele>
        <time>2016-11-26T09:52:52Z</time>
      </trkpt>
      <trkpt lat="45.98778" lon="4.76547">
        <ele>191</ele>
        <time>2016-11-26T09:52:53Z</time>
      </trkpt>
      <trkpt lat="45.98771" lon="4.7654">
        <ele>191</ele>
        <time>2016-11-26T09:52:54Z</time>
      </trkpt>
      <trkpt lat="45.98765" lon="4.76533">
        <ele>191</ele>
        <time>2016-11-26T09:52:55Z</time>
      </trkpt>
      <trkpt lat="45.98758" lon="4.76526">
        <ele>190</ele>
        <time>2016-11-26T09:52:56Z</time>
      </trkpt>
      <trkpt lat="45.98752" lon="4.7652">
        <ele>190</ele>
        <time>2016-11-26T09:52:57Z</time>
      </trkpt>
      <trkpt lat="45.98745" lon="4.76512">
        <ele>188</ele>
        <time>2016-11-26T09:52:58Z</time>
      </trkpt>
      <trkpt lat="45.98739" lon="4.76506">
        <ele>188</ele>
        <time>2016-11-26T09:52:59Z</time>
      </trkpt>
      <trkpt lat="45.98732" lon="4.76499">
        <ele>188</ele>
        <time>2016-11-26T09:53:00Z</time>
      </trkpt>
      <trkpt lat="45.98725" lon="4.76492">
        <ele>188</ele>
        <time>2016-11-26T09:53:01Z</time>
      </trkpt>
      <trkpt lat="45.98719" lon="4.76486">
        <ele>187</ele>
        <time>2016-11-26T09:53:02Z</time>
      </trkpt>
      <trkpt lat="45.98713" lon="4.76479">
        <ele>187</ele>
        <time>2016-11-26T09:53:03Z</time>
      </trkpt>
      <trkpt lat="45.98706" lon="4.76473">
        <ele>187</ele>
        <time>2016-11-26T09:53:04Z</time>
      </trkpt>
      <trkpt lat="45.987" lon="4.76468">
        <ele>187</ele>
        <time>2016-11-26T09:53:05Z</time>
      </trkpt>
      <trkpt lat="45.98694" lon="4.76462">
        <ele>187</ele>
        <time>2016-11-26T09:53:06Z</time>
      </trkpt>
      <trkpt lat="45.98688" lon="4.76456">
        <ele>187</ele>
        <time>2016-11-26T09:53:07Z</time>
      </trkpt>
      <trkpt lat="45.98682" lon="4.76452">
        <ele>187</ele>
        <time>2016-11-26T09:53:08Z</time>
      </trkpt>
      <trkpt lat="45.98676" lon="4.76447">
        <ele>187</ele>
        <time>2016-11-26T09:53:09Z</time>
      </trkpt>
      <trkpt lat="45.98671" lon="4.76442">
        <ele>187</ele>
        <time>2016-11-26T09:53:10Z</time>
      </trkpt>
      <trkpt lat="45.98666" lon="4.76438">
        <ele>188</ele>
        <time>2016-11-26T09:53:11Z</time>
      </trkpt>
      <trkpt lat="45.98661" lon="4.76435">
        <ele>188</ele>
        <time>2016-11-26T09:53:12Z</time>
      </trkpt>
      <trkpt lat="45.98657" lon="4.76432">
        <ele>188</ele>
        <time>2016-11-26T09:53:13Z</time>
      </trkpt>
      <trkpt lat="45.98652" lon="4.76429">
        <ele>188</ele>
        <time>2016-11-26T09:53:14Z</time>
      </trkpt>
      <trkpt lat="45.98648" lon="4.76426">
        <ele>188</ele>
        <time>2016-11-26T09:53:15Z</time>
      </trkpt>
      <trkpt lat="45.98644" lon="4.76422">
        <ele>188</ele>
        <time>2016-11-26T09:53:16Z</time>
      </trkpt>
      <trkpt lat="45.9864" lon="4.76418">
        <ele>188</ele>
        <time>2016-11-26T09:53:17Z</time>
      </trkpt>
      <trkpt lat="45.98635" lon="4.76415">
        <ele>188</ele>
        <time>2016-11-26T09:53:18Z</time>
      </trkpt>
      <trkpt lat="45.98632" lon="4.7641">
        <ele>188</ele>
        <time>2016-11-26T09:53:19Z</time>
      </trkpt>
      <trkpt lat="45.98629" lon="4.76404">
        <ele>188</ele>
        <time>2016-11-26T09:53:20Z</time>
      </trkpt>
      <trkpt lat="45.98626" lon="4.76398">
        <ele>188</ele>
        <time>2016-11-26T09:53:21Z</time>
      </trkpt>
      <trkpt lat="45.98624" lon="4.76392">
        <ele>188</ele>
        <time>2016-11-26T09:53:22Z</time>
      </trkpt>
      <trkpt lat="45.98622" lon="4.76385">
        <ele>188</ele>
        <time>2016-11-26T09:53:23Z</time>
      </trkpt>
      <trkpt lat="45.98621" lon="4.76377">
        <ele>188</ele>
        <time>2016-11-26T09:53:24Z</time>
      </trkpt>
      <trkpt lat="45.98619" lon="4.76369">
        <ele>188</ele>
        <time>2016-11-26T09:53:25Z</time>
      </trkpt>
      <trkpt lat="45.98618" lon="4.76362">
        <ele>188</ele>
        <time>2016-11-26T09:53:26Z</time>
      </trkpt>
      <trkpt lat="45.98617" lon="4.76354">
        <ele>188</ele>
        <time>2016-11-26T09:53:27Z</time>
      </trkpt>
      <trkpt lat="45.98615" lon="4.76346">
        <ele>188</ele>
        <time>2016-11-26T09:53:28Z</time>
      </trkpt>
      <trkpt lat="45.98613" lon="4.76339">
        <ele>188</ele>
        <time>2016-11-26T09:53:29Z</time>
      </trkpt>
      <trkpt lat="45.9861" lon="4.76328">
        <ele>187</ele>
        <time>2016-11-26T09:53:31Z</time>
      </trkpt>
      <trkpt lat="45.98609" lon="4.76323">
        <ele>187</ele>
        <time>2016-11-26T09:53:32Z</time>
      </trkpt>
      <trkpt lat="45.98607" lon="4.76313">
        <ele>187</ele>
        <time>2016-11-26T09:53:35Z</time>
      </trkpt>
      <trkpt lat="45.98606" lon="4.7631">
        <ele>187</ele>
        <time>2016-11-26T09:53:36Z</time>
      </trkpt>
      <trkpt lat="45.98606" lon="4.763">
        <ele>187</ele>
        <time>2016-11-26T09:53:38Z</time>
      </trkpt>
      <trkpt lat="45.98606" lon="4.76295">
        <ele>187</ele>
        <time>2016-11-26T09:53:39Z</time>
      </trkpt>
      <trkpt lat="45.98606" lon="4.76283">
        <ele>187</ele>
        <time>2016-11-26T09:53:41Z</time>
      </trkpt>
      <trkpt lat="45.98606" lon="4.76276">
        <ele>187</ele>
        <time>2016-11-26T09:53:42Z</time>
      </trkpt>
      <trkpt lat="45.98607" lon="4.76264">
        <ele>187</ele>
        <time>2016-11-26T09:53:44Z</time>
      </trkpt>
      <trkpt lat="45.98607" lon="4.76258">
        <ele>187</ele>
        <time>2016-11-26T09:53:45Z</time>
      </trkpt>
      <trkpt lat="45.98608" lon="4.76246">
        <ele>187</ele>
        <time>2016-11-26T09:53:49Z</time>
      </trkpt>
      <trkpt lat="45.98608" lon="4.76243">
        <ele>187</ele>
        <time>2016-11-26T09:53:50Z</time>
      </trkpt>
      <trkpt lat="45.98609" lon="4.76231">
        <ele>187</ele>
        <time>2016-11-26T09:53:53Z</time>
      </trkpt>
      <trkpt lat="45.9861" lon="4.76227">
        <ele>187</ele>
        <time>2016-11-26T09:53:54Z</time>
      </trkpt>
      <trkpt lat="45.98615" lon="4.7622">
        <ele>186</ele>
        <time>2016-11-26T09:53:56Z</time>
      </trkpt>
      <trkpt lat="45.98619" lon="4.7622">
        <ele>186</ele>
        <time>2016-11-26T09:53:57Z</time>
      </trkpt>
      <trkpt lat="45.98627" lon="4.76223">
        <ele>186</ele>
        <time>2016-11-26T09:53:59Z</time>
      </trkpt>
      <trkpt lat="45.98631" lon="4.76225">
        <ele>186</ele>
        <time>2016-11-26T09:54:00Z</time>
      </trkpt>
      <trkpt lat="45.98636" lon="4.76228">
        <ele>186</ele>
        <time>2016-11-26T09:54:01Z</time>
      </trkpt>
      <trkpt lat="45.9864" lon="4.76229">
        <ele>185</ele>
        <time>2016-11-26T09:54:02Z</time>
      </trkpt>
      <trkpt lat="45.98645" lon="4.76229">
        <ele>185</ele>
        <time>2016-11-26T09:54:03Z</time>
      </trkpt>
      <trkpt lat="45.9865" lon="4.7623">
        <ele>185</ele>
        <time>2016-11-26T09:54:04Z</time>
      </trkpt>
      <trkpt lat="45.98655" lon="4.7623">
        <ele>185</ele>
        <time>2016-11-26T09:54:05Z</time>
      </trkpt>
      <trkpt lat="45.98661" lon="4.7623">
        <ele>185</ele>
        <time>2016-11-26T09:54:06Z</time>
      </trkpt>
      <trkpt lat="45.98666" lon="4.76231">
        <ele>185</ele>
        <time>2016-11-26T09:54:07Z</time>
      </trkpt>
      <trkpt lat="45.98672" lon="4.76231">
        <ele>184</ele>
        <time>2016-11-26T09:54:08Z</time>
      </trkpt>
      <trkpt lat="45.98678" lon="4.76232">
        <ele>184</ele>
        <time>2016-11-26T09:54:09Z</time>
      </trkpt>
      <trkpt lat="45.98683" lon="4.76232">
        <ele>184</ele>
        <time>2016-11-26T09:54:10Z</time>
      </trkpt>
      <trkpt lat="45.98687" lon="4.76232">
        <ele>184</ele>
        <time>2016-11-26T09:54:11Z</time>
      </trkpt>
      <trkpt lat="45.98693" lon="4.76231">
        <ele>184</ele>
        <time>2016-11-26T09:54:12Z</time>
      </trkpt>
      <trkpt lat="45.98698" lon="4.76228">
        <ele>184</ele>
        <time>2016-11-26T09:54:13Z</time>
      </trkpt>
      <trkpt lat="45.98701" lon="4.76224">
        <ele>184</ele>
        <time>2016-11-26T09:54:14Z</time>
      </trkpt>
      <trkpt lat="45.98704" lon="4.76219">
        <ele>184</ele>
        <time>2016-11-26T09:54:15Z</time>
      </trkpt>
      <trkpt lat="45.98707" lon="4.76214">
        <ele>184</ele>
        <time>2016-11-26T09:54:16Z</time>
      </trkpt>
      <trkpt lat="45.98709" lon="4.76207">
        <ele>184</ele>
        <time>2016-11-26T09:54:17Z</time>
      </trkpt>
      <trkpt lat="45.9871" lon="4.762">
        <ele>184</ele>
        <time>2016-11-26T09:54:18Z</time>
      </trkpt>
      <trkpt lat="45.98711" lon="4.76191">
        <ele>184</ele>
        <time>2016-11-26T09:54:19Z</time>
      </trkpt>
      <trkpt lat="45.98712" lon="4.76182">
        <ele>184</ele>
        <time>2016-11-26T09:54:20Z</time>
      </trkpt>
      <trkpt lat="45.98714" lon="4.76174">
        <ele>184</ele>
        <time>2016-11-26T09:54:21Z</time>
      </trkpt>
      <trkpt lat="45.98716" lon="4.76164">
        <ele>184</ele>
        <time>2016-11-26T09:54:22Z</time>
      </trkpt>
      <trkpt lat="45.98719" lon="4.76155">
        <ele>183</ele>
        <time>2016-11-26T09:54:23Z</time>
      </trkpt>
      <trkpt lat="45.9872" lon="4.76147">
        <ele>183</ele>
        <time>2016-11-26T09:54:24Z</time>
      </trkpt>
      <trkpt lat="45.98721" lon="4.76138">
        <ele>183</ele>
        <time>2016-11-26T09:54:25Z</time>
      </trkpt>
      <trkpt lat="45.98721" lon="4.7613">
        <ele>183</ele>
        <time>2016-11-26T09:54:26Z</time>
      </trkpt>
      <trkpt lat="45.98722" lon="4.76122">
        <ele>183</ele>
        <time>2016-11-26T09:54:27Z</time>
      </trkpt>
      <trkpt lat="45.98723" lon="4.76113">
        <ele>183</ele>
        <time>2016-11-26T09:54:28Z</time>
      </trkpt>
      <trkpt lat="45.98724" lon="4.76105">
        <ele>183</ele>
        <time>2016-11-26T09:54:29Z</time>
      </trkpt>
      <trkpt lat="45.98724" lon="4.76096">
        <ele>183</ele>
        <time>2016-11-26T09:54:30Z</time>
      </trkpt>
      <trkpt lat="45.98725" lon="4.76088">
        <ele>183</ele>
        <time>2016-11-26T09:54:31Z</time>
      </trkpt>
      <trkpt lat="45.98725" lon="4.76081">
        <ele>182</ele>
        <time>2016-11-26T09:54:32Z</time>
      </trkpt>
      <trkpt lat="45.98725" lon="4.76073">
        <ele>182</ele>
        <time>2016-11-26T09:54:33Z</time>
      </trkpt>
      <trkpt lat="45.98726" lon="4.76065">
        <ele>182</ele>
        <time>2016-11-26T09:54:34Z</time>
      </trkpt>
      <trkpt lat="45.98726" lon="4.76057">
        <ele>182</ele>
        <time>2016-11-26T09:54:35Z</time>
      </trkpt>
      <trkpt lat="45.98727" lon="4.76049">
        <ele>182</ele>
        <time>2016-11-26T09:54:36Z</time>
      </trkpt>
      <trkpt lat="45.98728" lon="4.76041">
        <ele>182</ele>
        <time>2016-11-26T09:54:37Z</time>
      </trkpt>
      <trkpt lat="45.98728" lon="4.76032">
        <ele>182</ele>
        <time>2016-11-26T09:54:38Z</time>
      </trkpt>
      <trkpt lat="45.98728" lon="4.76023">
        <ele>182</ele>
        <time>2016-11-26T09:54:39Z</time>
      </trkpt>
      <trkpt lat="45.98729" lon="4.76014">
        <ele>181</ele>
        <time>2016-11-26T09:54:40Z</time>
      </trkpt>
      <trkpt lat="45.9873" lon="4.76005">
        <ele>181</ele>
        <time>2016-11-26T09:54:41Z</time>
      </trkpt>
      <trkpt lat="45.9873" lon="4.75996">
        <ele>181</ele>
        <time>2016-11-26T09:54:42Z</time>
      </trkpt>
      <trkpt lat="45.98731" lon="4.75987">
        <ele>181</ele>
        <time>2016-11-26T09:54:43Z</time>
      </trkpt>
      <trkpt lat="45.98732" lon="4.75978">
        <ele>181</ele>
        <time>2016-11-26T09:54:44Z</time>
      </trkpt>
      <trkpt lat="45.98732" lon="4.75969">
        <ele>181</ele>
        <time>2016-11-26T09:54:45Z</time>
      </trkpt>
      <trkpt lat="45.98733" lon="4.75959">
        <ele>181</ele>
        <time>2016-11-26T09:54:46Z</time>
      </trkpt>
      <trkpt lat="45.98734" lon="4.7595">
        <ele>180</ele>
        <time>2016-11-26T09:54:47Z</time>
      </trkpt>
      <trkpt lat="45.98735" lon="4.7594">
        <ele>180</ele>
        <time>2016-11-26T09:54:48Z</time>
      </trkpt>
      <trkpt lat="45.98737" lon="4.7593">
        <ele>180</ele>
        <time>2016-11-26T09:54:49Z</time>
      </trkpt>
      <trkpt lat="45.98738" lon="4.7592">
        <ele>180</ele>
        <time>2016-11-26T09:54:50Z</time>
      </trkpt>
      <trkpt lat="45.9874" lon="4.75911">
        <ele>180</ele>
        <time>2016-11-26T09:54:51Z</time>
      </trkpt>
      <trkpt lat="45.98742" lon="4.75901">
        <ele>179</ele>
        <time>2016-11-26T09:54:52Z</time>
      </trkpt>
      <trkpt lat="45.98744" lon="4.75892">
        <ele>179</ele>
        <time>2016-11-26T09:54:53Z</time>
      </trkpt>
      <trkpt lat="45.98745" lon="4.75883">
        <ele>179</ele>
        <time>2016-11-26T09:54:54Z</time>
      </trkpt>
      <trkpt lat="45.98747" lon="4.75873">
        <ele>179</ele>
        <time>2016-11-26T09:54:55Z</time>
      </trkpt>
      <trkpt lat="45.98748" lon="4.75863">
        <ele>179</ele>
        <time>2016-11-26T09:54:56Z</time>
      </trkpt>
      <trkpt lat="45.9875" lon="4.75854">
        <ele>179</ele>
        <time>2016-11-26T09:54:57Z</time>
      </trkpt>
      <trkpt lat="45.98752" lon="4.75845">
        <ele>179</ele>
        <time>2016-11-26T09:54:58Z</time>
      </trkpt>
      <trkpt lat="45.98754" lon="4.75836">
        <ele>178</ele>
        <time>2016-11-26T09:54:59Z</time>
      </trkpt>
      <trkpt lat="45.98755" lon="4.75827">
        <ele>178</ele>
        <time>2016-11-26T09:55:00Z</time>
      </trkpt>
      <trkpt lat="45.98757" lon="4.75818">
        <ele>179</ele>
        <time>2016-11-26T09:55:01Z</time>
      </trkpt>
      <trkpt lat="45.98759" lon="4.75809">
        <ele>179</ele>
        <time>2016-11-26T09:55:02Z</time>
      </trkpt>
      <trkpt lat="45.9876" lon="4.758">
        <ele>179</ele>
        <time>2016-11-26T09:55:03Z</time>
      </trkpt>
      <trkpt lat="45.98761" lon="4.75791">
        <ele>179</ele>
        <time>2016-11-26T09:55:04Z</time>
      </trkpt>
      <trkpt lat="45.98762" lon="4.75782">
        <ele>179</ele>
        <time>2016-11-26T09:55:05Z</time>
      </trkpt>
      <trkpt lat="45.98763" lon="4.75773">
        <ele>179</ele>
        <time>2016-11-26T09:55:06Z</time>
      </trkpt>
      <trkpt lat="45.98765" lon="4.75764">
        <ele>179</ele>
        <time>2016-11-26T09:55:07Z</time>
      </trkpt>
      <trkpt lat="45.98767" lon="4.75756">
        <ele>179</ele>
        <time>2016-11-26T09:55:08Z</time>
      </trkpt>
      <trkpt lat="45.98769" lon="4.75749">
        <ele>178</ele>
        <time>2016-11-26T09:55:09Z</time>
      </trkpt>
      <trkpt lat="45.9877" lon="4.75743">
        <ele>178</ele>
        <time>2016-11-26T09:55:10Z</time>
      </trkpt>
      <trkpt lat="45.98772" lon="4.75737">
        <ele>178</ele>
        <time>2016-11-26T09:55:11Z</time>
      </trkpt>
      <trkpt lat="45.98775" lon="4.75732">
        <ele>178</ele>
        <time>2016-11-26T09:55:12Z</time>
      </trkpt>
      <trkpt lat="45.9878" lon="4.75728">
        <ele>178</ele>
        <time>2016-11-26T09:55:13Z</time>
      </trkpt>
      <trkpt lat="45.98785" lon="4.75726">
        <ele>178</ele>
        <time>2016-11-26T09:55:14Z</time>
      </trkpt>
      <trkpt lat="45.98791" lon="4.75725">
        <ele>178</ele>
        <time>2016-11-26T09:55:15Z</time>
      </trkpt>
      <trkpt lat="45.98797" lon="4.75725">
        <ele>179</ele>
        <time>2016-11-26T09:55:16Z</time>
      </trkpt>
      <trkpt lat="45.98804" lon="4.75724">
        <ele>179</ele>
        <time>2016-11-26T09:55:17Z</time>
      </trkpt>
      <trkpt lat="45.9881" lon="4.75723">
        <ele>179</ele>
        <time>2016-11-26T09:55:18Z</time>
      </trkpt>
      <trkpt lat="45.98817" lon="4.75723">
        <ele>179</ele>
        <time>2016-11-26T09:55:19Z</time>
      </trkpt>
      <trkpt lat="45.98823" lon="4.75722">
        <ele>179</ele>
        <time>2016-11-26T09:55:20Z</time>
      </trkpt>
      <trkpt lat="45.98829" lon="4.75721">
        <ele>179</ele>
        <time>2016-11-26T09:55:21Z</time>
      </trkpt>
      <trkpt lat="45.98835" lon="4.7572">
        <ele>180</ele>
        <time>2016-11-26T09:55:22Z</time>
      </trkpt>
      <trkpt lat="45.98841" lon="4.75719">
        <ele>180</ele>
        <time>2016-11-26T09:55:23Z</time>
      </trkpt>
      <trkpt lat="45.98847" lon="4.75718">
        <ele>180</ele>
        <time>2016-11-26T09:55:24Z</time>
      </trkpt>
      <trkpt lat="45.98853" lon="4.75717">
        <ele>180</ele>
        <time>2016-11-26T09:55:25Z</time>
      </trkpt>
      <trkpt lat="45.98858" lon="4.75716">
        <ele>180</ele>
        <time>2016-11-26T09:55:26Z</time>
      </trkpt>
      <trkpt lat="45.98864" lon="4.75715">
        <ele>180</ele>
        <time>2016-11-26T09:55:27Z</time>
      </trkpt>
      <trkpt lat="45.98869" lon="4.75714">
        <ele>180</ele>
        <time>2016-11-26T09:55:28Z</time>
      </trkpt>
      <trkpt lat="45.98875" lon="4.75712">
        <ele>180</ele>
        <time>2016-11-26T09:55:29Z</time>
      </trkpt>
      <trkpt lat="45.9888" lon="4.7571">
        <ele>180</ele>
        <time>2016-11-26T09:55:30Z</time>
      </trkpt>
      <trkpt lat="45.98886" lon="4.75708">
        <ele>180</ele>
        <time>2016-11-26T09:55:31Z</time>
      </trkpt>
      <trkpt lat="45.98892" lon="4.75706">
        <ele>180</ele>
        <time>2016-11-26T09:55:32Z</time>
      </trkpt>
      <trkpt lat="45.98898" lon="4.75703">
        <ele>180</ele>
        <time>2016-11-26T09:55:33Z</time>
      </trkpt>
      <trkpt lat="45.98904" lon="4.757">
        <ele>180</ele>
        <time>2016-11-26T09:55:34Z</time>
      </trkpt>
      <trkpt lat="45.9891" lon="4.75698">
        <ele>180</ele>
        <time>2016-11-26T09:55:35Z</time>
      </trkpt>
      <trkpt lat="45.98917" lon="4.75694">
        <ele>179</ele>
        <time>2016-11-26T09:55:36Z</time>
      </trkpt>
      <trkpt lat="45.98923" lon="4.75691">
        <ele>181</ele>
        <time>2016-11-26T09:55:37Z</time>
      </trkpt>
      <trkpt lat="45.98929" lon="4.75688">
        <ele>181</ele>
        <time>2016-11-26T09:55:38Z</time>
      </trkpt>
      <trkpt lat="45.98935" lon="4.75685">
        <ele>181</ele>
        <time>2016-11-26T09:55:39Z</time>
      </trkpt>
      <trkpt lat="45.9894" lon="4.75681">
        <ele>181</ele>
        <time>2016-11-26T09:55:40Z</time>
      </trkpt>
      <trkpt lat="45.98946" lon="4.75676">
        <ele>181</ele>
        <time>2016-11-26T09:55:41Z</time>
      </trkpt>
      <trkpt lat="45.98952" lon="4.75674">
        <ele>181</ele>
        <time>2016-11-26T09:55:42Z</time>
      </trkpt>
      <trkpt lat="45.98957" lon="4.75672">
        <ele>181</ele>
        <time>2016-11-26T09:55:43Z</time>
      </trkpt>
      <trkpt lat="45.98963" lon="4.7567">
        <ele>181</ele>
        <time>2016-11-26T09:55:44Z</time>
      </trkpt>
      <trkpt lat="45.98967" lon="4.75669">
        <ele>181</ele>
        <time>2016-11-26T09:55:45Z</time>
      </trkpt>
      <trkpt lat="45.98973" lon="4.75667">
        <ele>181</ele>
        <time>2016-11-26T09:55:46Z</time>
      </trkpt>
      <trkpt lat="45.98978" lon="4.75666">
        <ele>178</ele>
        <time>2016-11-26T09:55:47Z</time>
      </trkpt>
      <trkpt lat="45.98984" lon="4.75665">
        <ele>178</ele>
        <time>2016-11-26T09:55:48Z</time>
      </trkpt>
      <trkpt lat="45.9899" lon="4.75664">
        <ele>178</ele>
        <time>2016-11-26T09:55:49Z</time>
      </trkpt>
      <trkpt lat="45.98996" lon="4.75664">
        <ele>179</ele>
        <time>2016-11-26T09:55:50Z</time>
      </trkpt>
      <trkpt lat="45.99003" lon="4.75663">
        <ele>179</ele>
        <time>2016-11-26T09:55:51Z</time>
      </trkpt>
      <trkpt lat="45.99009" lon="4.75663">
        <ele>179</ele>
        <time>2016-11-26T09:55:52Z</time>
      </trkpt>
      <trkpt lat="45.99015" lon="4.75662">
        <ele>178</ele>
        <time>2016-11-26T09:55:53Z</time>
      </trkpt>
      <trkpt lat="45.99021" lon="4.75661">
        <ele>178</ele>
        <time>2016-11-26T09:55:54Z</time>
      </trkpt>
      <trkpt lat="45.99027" lon="4.75661">
        <ele>178</ele>
        <time>2016-11-26T09:55:55Z</time>
      </trkpt>
      <trkpt lat="45.99033" lon="4.75661">
        <ele>178</ele>
        <time>2016-11-26T09:55:56Z</time>
      </trkpt>
      <trkpt lat="45.99038" lon="4.75662">
        <ele>178</ele>
        <time>2016-11-26T09:55:57Z</time>
      </trkpt>
      <trkpt lat="45.99043" lon="4.75662">
        <ele>178</ele>
        <time>2016-11-26T09:55:58Z</time>
      </trkpt>
      <trkpt lat="45.99048" lon="4.75662">
        <ele>178</ele>
        <time>2016-11-26T09:55:59Z</time>
      </trkpt>
      <trkpt lat="45.99052" lon="4.75663">
        <ele>178</ele>
        <time>2016-11-26T09:56:00Z</time>
      </trkpt>
      <trkpt lat="45.99057" lon="4.75663">
        <ele>178</ele>
        <time>2016-11-26T09:56:01Z</time>
      </trkpt>
      <trkpt lat="45.99061" lon="4.75663">
        <ele>178</ele>
        <time>2016-11-26T09:56:02Z</time>
      </trkpt>
      <trkpt lat="45.99069" lon="4.75664">
        <ele>179</ele>
        <time>2016-11-26T09:56:04Z</time>
      </trkpt>
      <trkpt lat="45.99074" lon="4.75664">
        <ele>179</ele>
        <time>2016-11-26T09:56:05Z</time>
      </trkpt>
      <trkpt lat="45.99079" lon="4.75664">
        <ele>179</ele>
        <time>2016-11-26T09:56:06Z</time>
      </trkpt>
      <trkpt lat="45.99084" lon="4.75664">
        <ele>180</ele>
        <time>2016-11-26T09:56:07Z</time>
      </trkpt>
      <trkpt lat="45.99089" lon="4.75663">
        <ele>179</ele>
        <time>2016-11-26T09:56:08Z</time>
      </trkpt>
      <trkpt lat="45.99093" lon="4.75662">
        <ele>179</ele>
        <time>2016-11-26T09:56:09Z</time>
      </trkpt>
      <trkpt lat="45.99098" lon="4.75659">
        <ele>179</ele>
        <time>2016-11-26T09:56:10Z</time>
      </trkpt>
      <trkpt lat="45.99102" lon="4.75656">
        <ele>178</ele>
        <time>2016-11-26T09:56:11Z</time>
      </trkpt>
      <trkpt lat="45.99108" lon="4.75653">
        <ele>178</ele>
        <time>2016-11-26T09:56:12Z</time>
      </trkpt>
      <trkpt lat="45.99113" lon="4.75649">
        <ele>178</ele>
        <time>2016-11-26T09:56:13Z</time>
      </trkpt>
      <trkpt lat="45.99118" lon="4.75646">
        <ele>178</ele>
        <time>2016-11-26T09:56:14Z</time>
      </trkpt>
      <trkpt lat="45.99124" lon="4.75643">
        <ele>178</ele>
        <time>2016-11-26T09:56:15Z</time>
      </trkpt>
      <trkpt lat="45.9913" lon="4.75642">
        <ele>178</ele>
        <time>2016-11-26T09:56:16Z</time>
      </trkpt>
      <trkpt lat="45.99135" lon="4.75639">
        <ele>178</ele>
        <time>2016-11-26T09:56:17Z</time>
      </trkpt>
      <trkpt lat="45.9914" lon="4.75635">
        <ele>177</ele>
        <time>2016-11-26T09:56:18Z</time>
      </trkpt>
      <trkpt lat="45.99145" lon="4.7563">
        <ele>177</ele>
        <time>2016-11-26T09:56:19Z</time>
      </trkpt>
      <trkpt lat="45.9915" lon="4.75626">
        <ele>177</ele>
        <time>2016-11-26T09:56:20Z</time>
      </trkpt>
      <trkpt lat="45.99155" lon="4.75622">
        <ele>177</ele>
        <time>2016-11-26T09:56:21Z</time>
      </trkpt>
      <trkpt lat="45.9916" lon="4.75618">
        <ele>177</ele>
        <time>2016-11-26T09:56:22Z</time>
      </trkpt>
      <trkpt lat="45.99166" lon="4.75614">
        <ele>177</ele>
        <time>2016-11-26T09:56:23Z</time>
      </trkpt>
      <trkpt lat="45.99171" lon="4.7561">
        <ele>178</ele>
        <time>2016-11-26T09:56:24Z</time>
      </trkpt>
      <trkpt lat="45.99177" lon="4.75607">
        <ele>178</ele>
        <time>2016-11-26T09:56:25Z</time>
      </trkpt>
      <trkpt lat="45.99183" lon="4.75603">
        <ele>178</ele>
        <time>2016-11-26T09:56:26Z</time>
      </trkpt>
      <trkpt lat="45.99189" lon="4.75599">
        <ele>178</ele>
        <time>2016-11-26T09:56:27Z</time>
      </trkpt>
      <trkpt lat="45.99195" lon="4.75595">
        <ele>178</ele>
        <time>2016-11-26T09:56:28Z</time>
      </trkpt>
      <trkpt lat="45.992" lon="4.75591">
        <ele>178</ele>
        <time>2016-11-26T09:56:29Z</time>
      </trkpt>
      <trkpt lat="45.99205" lon="4.75587">
        <ele>178</ele>
        <time>2016-11-26T09:56:30Z</time>
      </trkpt>
      <trkpt lat="45.9921" lon="4.75584">
        <ele>178</ele>
        <time>2016-11-26T09:56:31Z</time>
      </trkpt>
      <trkpt lat="45.99215" lon="4.7558">
        <ele>175</ele>
        <time>2016-11-26T09:56:32Z</time>
      </trkpt>
      <trkpt lat="45.99221" lon="4.75577">
        <ele>175</ele>
        <time>2016-11-26T09:56:33Z</time>
      </trkpt>
      <trkpt lat="45.99226" lon="4.75573">
        <ele>175</ele>
        <time>2016-11-26T09:56:34Z</time>
      </trkpt>
      <trkpt lat="45.99232" lon="4.75569">
        <ele>175</ele>
        <time>2016-11-26T09:56:35Z</time>
      </trkpt>
      <trkpt lat="45.99237" lon="4.75565">
        <ele>175</ele>
        <time>2016-11-26T09:56:36Z</time>
      </trkpt>
      <trkpt lat="45.99243" lon="4.75562">
        <ele>175</ele>
        <time>2016-11-26T09:56:37Z</time>
      </trkpt>
      <trkpt lat="45.99248" lon="4.75559">
        <ele>175</ele>
        <time>2016-11-26T09:56:38Z</time>
      </trkpt>
      <trkpt lat="45.99254" lon="4.75555">
        <ele>177</ele>
        <time>2016-11-26T09:56:39Z</time>
      </trkpt>
      <trkpt lat="45.99259" lon="4.75551">
        <ele>177</ele>
        <time>2016-11-26T09:56:40Z</time>
      </trkpt>
      <trkpt lat="45.99265" lon="4.75547">
        <ele>177</ele>
        <time>2016-11-26T09:56:41Z</time>
      </trkpt>
      <trkpt lat="45.9927" lon="4.75543">
        <ele>177</ele>
        <time>2016-11-26T09:56:42Z</time>
      </trkpt>
      <trkpt lat="45.99275" lon="4.7554">
        <ele>177</ele>
        <time>2016-11-26T09:56:43Z</time>
      </trkpt>
      <trkpt lat="45.99281" lon="4.75536">
        <ele>177</ele>
        <time>2016-11-26T09:56:44Z</time>
      </trkpt>
      <trkpt lat="45.99286" lon="4.75531">
        <ele>177</ele>
        <time>2016-11-26T09:56:45Z</time>
      </trkpt>
      <trkpt lat="45.9929" lon="4.75526">
        <ele>177</ele>
        <time>2016-11-26T09:56:46Z</time>
      </trkpt>
      <trkpt lat="45.99295" lon="4.75521">
        <ele>177</ele>
        <time>2016-11-26T09:56:47Z</time>
      </trkpt>
      <trkpt lat="45.993" lon="4.75516">
        <ele>177</ele>
        <time>2016-11-26T09:56:48Z</time>
      </trkpt>
      <trkpt lat="45.99304" lon="4.75511">
        <ele>177</ele>
        <time>2016-11-26T09:56:49Z</time>
      </trkpt>
      <trkpt lat="45.99309" lon="4.75505">
        <ele>177</ele>
        <time>2016-11-26T09:56:50Z</time>
      </trkpt>
      <trkpt lat="45.99312" lon="4.755">
        <ele>175</ele>
        <time>2016-11-26T09:56:51Z</time>
      </trkpt>
      <trkpt lat="45.99316" lon="4.75495">
        <ele>175</ele>
        <time>2016-11-26T09:56:52Z</time>
      </trkpt>
      <trkpt lat="45.99319" lon="4.75489">
        <ele>175</ele>
        <time>2016-11-26T09:56:53Z</time>
      </trkpt>
      <trkpt lat="45.99323" lon="4.75483">
        <ele>175</ele>
        <time>2016-11-26T09:56:54Z</time>
      </trkpt>
      <trkpt lat="45.99326" lon="4.75477">
        <ele>175</ele>
        <time>2016-11-26T09:56:55Z</time>
      </trkpt>
      <trkpt lat="45.99328" lon="4.75471">
        <ele>174</ele>
        <time>2016-11-26T09:56:56Z</time>
      </trkpt>
      <trkpt lat="45.99331" lon="4.75465">
        <ele>174</ele>
        <time>2016-11-26T09:56:57Z</time>
      </trkpt>
      <trkpt lat="45.99335" lon="4.75459">
        <ele>177</ele>
        <time>2016-11-26T09:56:58Z</time>
      </trkpt>
      <trkpt lat="45.99338" lon="4.75453">
        <ele>177</ele>
        <time>2016-11-26T09:56:59Z</time>
      </trkpt>
      <trkpt lat="45.99343" lon="4.75447">
        <ele>176</ele>
        <time>2016-11-26T09:57:00Z</time>
      </trkpt>
      <trkpt lat="45.99348" lon="4.75441">
        <ele>176</ele>
        <time>2016-11-26T09:57:01Z</time>
      </trkpt>
      <trkpt lat="45.99352" lon="4.75436">
        <ele>176</ele>
        <time>2016-11-26T09:57:02Z</time>
      </trkpt>
      <trkpt lat="45.99356" lon="4.7543">
        <ele>176</ele>
        <time>2016-11-26T09:57:03Z</time>
      </trkpt>
      <trkpt lat="45.99359" lon="4.75423">
        <ele>176</ele>
        <time>2016-11-26T09:57:04Z</time>
      </trkpt>
      <trkpt lat="45.99361" lon="4.75415">
        <ele>173</ele>
        <time>2016-11-26T09:57:05Z</time>
      </trkpt>
      <trkpt lat="45.99362" lon="4.75408">
        <ele>173</ele>
        <time>2016-11-26T09:57:06Z</time>
      </trkpt>
      <trkpt lat="45.99362" lon="4.754">
        <ele>173</ele>
        <time>2016-11-26T09:57:07Z</time>
      </trkpt>
      <trkpt lat="45.99363" lon="4.75393">
        <ele>173</ele>
        <time>2016-11-26T09:57:08Z</time>
      </trkpt>
      <trkpt lat="45.99363" lon="4.75385">
        <ele>172</ele>
        <time>2016-11-26T09:57:09Z</time>
      </trkpt>
      <trkpt lat="45.99365" lon="4.75378">
        <ele>172</ele>
        <time>2016-11-26T09:57:10Z</time>
      </trkpt>
      <trkpt lat="45.99367" lon="4.75371">
        <ele>172</ele>
        <time>2016-11-26T09:57:11Z</time>
      </trkpt>
      <trkpt lat="45.9937" lon="4.75365">
        <ele>172</ele>
        <time>2016-11-26T09:57:12Z</time>
      </trkpt>
      <trkpt lat="45.99373" lon="4.75359">
        <ele>172</ele>
        <time>2016-11-26T09:57:13Z</time>
      </trkpt>
      <trkpt lat="45.99378" lon="4.75353">
        <ele>172</ele>
        <time>2016-11-26T09:57:14Z</time>
      </trkpt>
      <trkpt lat="45.99383" lon="4.75348">
        <ele>172</ele>
        <time>2016-11-26T09:57:15Z</time>
      </trkpt>
      <trkpt lat="45.99388" lon="4.75343">
        <ele>171</ele>
        <time>2016-11-26T09:57:16Z</time>
      </trkpt>
      <trkpt lat="45.99393" lon="4.75337">
        <ele>171</ele>
        <time>2016-11-26T09:57:17Z</time>
      </trkpt>
      <trkpt lat="45.99398" lon="4.75333">
        <ele>170</ele>
        <time>2016-11-26T09:57:18Z</time>
      </trkpt>
      <trkpt lat="45.99403" lon="4.7533">
        <ele>170</ele>
        <time>2016-11-26T09:57:19Z</time>
      </trkpt>
      <trkpt lat="45.99408" lon="4.75327">
        <ele>170</ele>
        <time>2016-11-26T09:57:20Z</time>
      </trkpt>
      <trkpt lat="45.99413" lon="4.75324">
        <ele>170</ele>
        <time>2016-11-26T09:57:21Z</time>
      </trkpt>
      <trkpt lat="45.99419" lon="4.75321">
        <ele>170</ele>
        <time>2016-11-26T09:57:22Z</time>
      </trkpt>
      <trkpt lat="45.99424" lon="4.7532">
        <ele>170</ele>
        <time>2016-11-26T09:57:23Z</time>
      </trkpt>
      <trkpt lat="45.9943" lon="4.75318">
        <ele>171</ele>
        <time>2016-11-26T09:57:24Z</time>
      </trkpt>
      <trkpt lat="45.99436" lon="4.75317">
        <ele>171</ele>
        <time>2016-11-26T09:57:25Z</time>
      </trkpt>
      <trkpt lat="45.99441" lon="4.75316">
        <ele>171</ele>
        <time>2016-11-26T09:57:26Z</time>
      </trkpt>
      <trkpt lat="45.99446" lon="4.75315">
        <ele>171</ele>
        <time>2016-11-26T09:57:27Z</time>
      </trkpt>
      <trkpt lat="45.99451" lon="4.75315">
        <ele>171</ele>
        <time>2016-11-26T09:57:28Z</time>
      </trkpt>
      <trkpt lat="45.99456" lon="4.75314">
        <ele>171</ele>
        <time>2016-11-26T09:57:29Z</time>
      </trkpt>
      <trkpt lat="45.99461" lon="4.75314">
        <ele>171</ele>
        <time>2016-11-26T09:57:30Z</time>
      </trkpt>
      <trkpt lat="45.99466" lon="4.75313">
        <ele>171</ele>
        <time>2016-11-26T09:57:31Z</time>
      </trkpt>
      <trkpt lat="45.99471" lon="4.75313">
        <ele>171</ele>
        <time>2016-11-26T09:57:32Z</time>
      </trkpt>
      <trkpt lat="45.99476" lon="4.75312">
        <ele>171</ele>
        <time>2016-11-26T09:57:33Z</time>
      </trkpt>
      <trkpt lat="45.99481" lon="4.75311">
        <ele>171</ele>
        <time>2016-11-26T09:57:34Z</time>
      </trkpt>
      <trkpt lat="45.99486" lon="4.75311">
        <ele>171</ele>
        <time>2016-11-26T09:57:35Z</time>
      </trkpt>
      <trkpt lat="45.99491" lon="4.7531">
        <ele>171</ele>
        <time>2016-11-26T09:57:36Z</time>
      </trkpt>
      <trkpt lat="45.99496" lon="4.75309">
        <ele>171</ele>
        <time>2016-11-26T09:57:37Z</time>
      </trkpt>
      <trkpt lat="45.995" lon="4.75309">
        <ele>172</ele>
        <time>2016-11-26T09:57:38Z</time>
      </trkpt>
      <trkpt lat="45.99505" lon="4.75308">
        <ele>172</ele>
        <time>2016-11-26T09:57:39Z</time>
      </trkpt>
      <trkpt lat="45.9951" lon="4.75308">
        <ele>172</ele>
        <time>2016-11-26T09:57:40Z</time>
      </trkpt>
      <trkpt lat="45.99515" lon="4.75307">
        <ele>172</ele>
        <time>2016-11-26T09:57:41Z</time>
      </trkpt>
      <trkpt lat="45.9952" lon="4.75306">
        <ele>172</ele>
        <time>2016-11-26T09:57:42Z</time>
      </trkpt>
      <trkpt lat="45.99525" lon="4.75306">
        <ele>172</ele>
        <time>2016-11-26T09:57:43Z</time>
      </trkpt>
      <trkpt lat="45.99533" lon="4.75306">
        <ele>172</ele>
        <time>2016-11-26T09:57:45Z</time>
      </trkpt>
      <trkpt lat="45.99538" lon="4.75306">
        <ele>172</ele>
        <time>2016-11-26T09:57:46Z</time>
      </trkpt>
      <trkpt lat="45.99543" lon="4.75307">
        <ele>172</ele>
        <time>2016-11-26T09:57:47Z</time>
      </trkpt>
      <trkpt lat="45.99547" lon="4.75309">
        <ele>172</ele>
        <time>2016-11-26T09:57:48Z</time>
      </trkpt>
      <trkpt lat="45.99551" lon="4.75312">
        <ele>172</ele>
        <time>2016-11-26T09:57:49Z</time>
      </trkpt>
      <trkpt lat="45.99555" lon="4.75316">
        <ele>172</ele>
        <time>2016-11-26T09:57:50Z</time>
      </trkpt>
      <trkpt lat="45.99559" lon="4.7532">
        <ele>172</ele>
        <time>2016-11-26T09:57:51Z</time>
      </trkpt>
      <trkpt lat="45.99563" lon="4.75323">
        <ele>172</ele>
        <time>2016-11-26T09:57:52Z</time>
      </trkpt>
      <trkpt lat="45.99568" lon="4.75325">
        <ele>172</ele>
        <time>2016-11-26T09:57:53Z</time>
      </trkpt>
      <trkpt lat="45.99573" lon="4.75325">
        <ele>173</ele>
        <time>2016-11-26T09:57:54Z</time>
      </trkpt>
      <trkpt lat="45.99577" lon="4.75324">
        <ele>173</ele>
        <time>2016-11-26T09:57:55Z</time>
      </trkpt>
      <trkpt lat="45.99582" lon="4.75322">
        <ele>173</ele>
        <time>2016-11-26T09:57:56Z</time>
      </trkpt>
      <trkpt lat="45.99586" lon="4.75319">
        <ele>173</ele>
        <time>2016-11-26T09:57:57Z</time>
      </trkpt>
      <trkpt lat="45.9959" lon="4.75315">
        <ele>174</ele>
        <time>2016-11-26T09:57:58Z</time>
      </trkpt>
      <trkpt lat="45.99593" lon="4.7531">
        <ele>174</ele>
        <time>2016-11-26T09:57:59Z</time>
      </trkpt>
      <trkpt lat="45.99596" lon="4.75304">
        <ele>174</ele>
        <time>2016-11-26T09:58:00Z</time>
      </trkpt>
      <trkpt lat="45.99599" lon="4.75298">
        <ele>174</ele>
        <time>2016-11-26T09:58:01Z</time>
      </trkpt>
      <trkpt lat="45.99603" lon="4.75292">
        <ele>174</ele>
        <time>2016-11-26T09:58:02Z</time>
      </trkpt>
      <trkpt lat="45.99607" lon="4.75287">
        <ele>174</ele>
        <time>2016-11-26T09:58:03Z</time>
      </trkpt>
      <trkpt lat="45.99611" lon="4.75283">
        <ele>174</ele>
        <time>2016-11-26T09:58:04Z</time>
      </trkpt>
      <trkpt lat="45.99617" lon="4.7528">
        <ele>174</ele>
        <time>2016-11-26T09:58:05Z</time>
      </trkpt>
      <trkpt lat="45.99623" lon="4.75278">
        <ele>174</ele>
        <time>2016-11-26T09:58:06Z</time>
      </trkpt>
      <trkpt lat="45.99629" lon="4.75277">
        <ele>174</ele>
        <time>2016-11-26T09:58:07Z</time>
      </trkpt>
      <trkpt lat="45.99636" lon="4.75277">
        <ele>174</ele>
        <time>2016-11-26T09:58:08Z</time>
      </trkpt>
      <trkpt lat="45.99643" lon="4.75277">
        <ele>174</ele>
        <time>2016-11-26T09:58:09Z</time>
      </trkpt>
      <trkpt lat="45.9965" lon="4.75276">
        <ele>174</ele>
        <time>2016-11-26T09:58:10Z</time>
      </trkpt>
      <trkpt lat="45.99657" lon="4.75275">
        <ele>174</ele>
        <time>2016-11-26T09:58:11Z</time>
      </trkpt>
      <trkpt lat="45.99665" lon="4.75273">
        <ele>174</ele>
        <time>2016-11-26T09:58:12Z</time>
      </trkpt>
      <trkpt lat="45.99671" lon="4.75271">
        <ele>175</ele>
        <time>2016-11-26T09:58:13Z</time>
      </trkpt>
      <trkpt lat="45.99678" lon="4.75268">
        <ele>175</ele>
        <time>2016-11-26T09:58:14Z</time>
      </trkpt>
      <trkpt lat="45.99685" lon="4.75264">
        <ele>175</ele>
        <time>2016-11-26T09:58:15Z</time>
      </trkpt>
      <trkpt lat="45.99691" lon="4.75261">
        <ele>176</ele>
        <time>2016-11-26T09:58:16Z</time>
      </trkpt>
      <trkpt lat="45.99697" lon="4.75258">
        <ele>176</ele>
        <time>2016-11-26T09:58:17Z</time>
      </trkpt>
      <trkpt lat="45.99703" lon="4.75255">
        <ele>176</ele>
        <time>2016-11-26T09:58:18Z</time>
      </trkpt>
      <trkpt lat="45.99709" lon="4.75252">
        <ele>176</ele>
        <time>2016-11-26T09:58:19Z</time>
      </trkpt>
      <trkpt lat="45.99715" lon="4.7525">
        <ele>174</ele>
        <time>2016-11-26T09:58:20Z</time>
      </trkpt>
      <trkpt lat="45.99721" lon="4.75247">
        <ele>174</ele>
        <time>2016-11-26T09:58:21Z</time>
      </trkpt>
      <trkpt lat="45.99726" lon="4.75245">
        <ele>175</ele>
        <time>2016-11-26T09:58:22Z</time>
      </trkpt>
      <trkpt lat="45.99731" lon="4.75242">
        <ele>175</ele>
        <time>2016-11-26T09:58:23Z</time>
      </trkpt>
      <trkpt lat="45.99736" lon="4.75239">
        <ele>175</ele>
        <time>2016-11-26T09:58:24Z</time>
      </trkpt>
      <trkpt lat="45.99742" lon="4.75236">
        <ele>175</ele>
        <time>2016-11-26T09:58:25Z</time>
      </trkpt>
      <trkpt lat="45.99747" lon="4.75233">
        <ele>175</ele>
        <time>2016-11-26T09:58:26Z</time>
      </trkpt>
      <trkpt lat="45.99752" lon="4.75231">
        <ele>175</ele>
        <time>2016-11-26T09:58:27Z</time>
      </trkpt>
      <trkpt lat="45.99758" lon="4.75229">
        <ele>175</ele>
        <time>2016-11-26T09:58:28Z</time>
      </trkpt>
      <trkpt lat="45.99763" lon="4.75227">
        <ele>175</ele>
        <time>2016-11-26T09:58:29Z</time>
      </trkpt>
      <trkpt lat="45.99768" lon="4.75224">
        <ele>175</ele>
        <time>2016-11-26T09:58:30Z</time>
      </trkpt>
      <trkpt lat="45.99774" lon="4.75222">
        <ele>175</ele>
        <time>2016-11-26T09:58:31Z</time>
      </trkpt>
      <trkpt lat="45.99779" lon="4.75219">
        <ele>175</ele>
        <time>2016-11-26T09:58:32Z</time>
      </trkpt>
      <trkpt lat="45.99785" lon="4.75217">
        <ele>174</ele>
        <time>2016-11-26T09:58:33Z</time>
      </trkpt>
      <trkpt lat="45.9979" lon="4.75214">
        <ele>174</ele>
        <time>2016-11-26T09:58:34Z</time>
      </trkpt>
      <trkpt lat="45.99796" lon="4.75212">
        <ele>174</ele>
        <time>2016-11-26T09:58:35Z</time>
      </trkpt>
      <trkpt lat="45.99802" lon="4.75209">
        <ele>174</ele>
        <time>2016-11-26T09:58:36Z</time>
      </trkpt>
      <trkpt lat="45.99807" lon="4.75207">
        <ele>174</ele>
        <time>2016-11-26T09:58:37Z</time>
      </trkpt>
      <trkpt lat="45.99812" lon="4.75205">
        <ele>174</ele>
        <time>2016-11-26T09:58:38Z</time>
      </trkpt>
      <trkpt lat="45.99818" lon="4.75202">
        <ele>174</ele>
        <time>2016-11-26T09:58:39Z</time>
      </trkpt>
      <trkpt lat="45.99823" lon="4.75199">
        <ele>174</ele>
        <time>2016-11-26T09:58:40Z</time>
      </trkpt>
      <trkpt lat="45.99828" lon="4.75197">
        <ele>174</ele>
        <time>2016-11-26T09:58:41Z</time>
      </trkpt>
      <trkpt lat="45.99834" lon="4.75194">
        <ele>174</ele>
        <time>2016-11-26T09:58:42Z</time>
      </trkpt>
      <trkpt lat="45.99839" lon="4.75191">
        <ele>174</ele>
        <time>2016-11-26T09:58:43Z</time>
      </trkpt>
      <trkpt lat="45.99844" lon="4.75189">
        <ele>174</ele>
        <time>2016-11-26T09:58:44Z</time>
      </trkpt>
      <trkpt lat="45.9985" lon="4.75187">
        <ele>174</ele>
        <time>2016-11-26T09:58:45Z</time>
      </trkpt>
      <trkpt lat="45.99856" lon="4.75184">
        <ele>174</ele>
        <time>2016-11-26T09:58:46Z</time>
      </trkpt>
      <trkpt lat="45.99861" lon="4.75182">
        <ele>174</ele>
        <time>2016-11-26T09:58:47Z</time>
      </trkpt>
      <trkpt lat="45.99866" lon="4.7518">
        <ele>174</ele>
        <time>2016-11-26T09:58:48Z</time>
      </trkpt>
      <trkpt lat="45.99871" lon="4.75177">
        <ele>174</ele>
        <time>2016-11-26T09:58:49Z</time>
      </trkpt>
      <trkpt lat="45.99876" lon="4.75175">
        <ele>174</ele>
        <time>2016-11-26T09:58:50Z</time>
      </trkpt>
      <trkpt lat="45.9988" lon="4.75172">
        <ele>174</ele>
        <time>2016-11-26T09:58:51Z</time>
      </trkpt>
      <trkpt lat="45.99885" lon="4.7517">
        <ele>174</ele>
        <time>2016-11-26T09:58:52Z</time>
      </trkpt>
      <trkpt lat="45.99889" lon="4.75168">
        <ele>174</ele>
        <time>2016-11-26T09:58:53Z</time>
      </trkpt>
      <trkpt lat="45.99894" lon="4.75166">
        <ele>172</ele>
        <time>2016-11-26T09:58:54Z</time>
      </trkpt>
      <trkpt lat="45.99899" lon="4.75163">
        <ele>172</ele>
        <time>2016-11-26T09:58:55Z</time>
      </trkpt>
      <trkpt lat="45.99904" lon="4.75161">
        <ele>173</ele>
        <time>2016-11-26T09:58:56Z</time>
      </trkpt>
      <trkpt lat="45.99909" lon="4.75158">
        <ele>173</ele>
        <time>2016-11-26T09:58:57Z</time>
      </trkpt>
      <trkpt lat="45.99915" lon="4.75156">
        <ele>173</ele>
        <time>2016-11-26T09:58:58Z</time>
      </trkpt>
      <trkpt lat="45.9992" lon="4.75153">
        <ele>173</ele>
        <time>2016-11-26T09:58:59Z</time>
      </trkpt>
      <trkpt lat="45.99925" lon="4.75151">
        <ele>173</ele>
        <time>2016-11-26T09:59:00Z</time>
      </trkpt>
      <trkpt lat="45.9993" lon="4.75149">
        <ele>173</ele>
        <time>2016-11-26T09:59:01Z</time>
      </trkpt>
      <trkpt lat="45.99936" lon="4.75146">
        <ele>173</ele>
        <time>2016-11-26T09:59:02Z</time>
      </trkpt>
      <trkpt lat="45.99941" lon="4.75144">
        <ele>173</ele>
        <time>2016-11-26T09:59:03Z</time>
      </trkpt>
      <trkpt lat="45.99947" lon="4.75142">
        <ele>173</ele>
        <time>2016-11-26T09:59:04Z</time>
      </trkpt>
      <trkpt lat="45.99952" lon="4.75139">
        <ele>173</ele>
        <time>2016-11-26T09:59:05Z</time>
      </trkpt>
      <trkpt lat="45.99958" lon="4.75137">
        <ele>173</ele>
        <time>2016-11-26T09:59:06Z</time>
      </trkpt>
      <trkpt lat="45.99963" lon="4.75135">
        <ele>173</ele>
        <time>2016-11-26T09:59:07Z</time>
      </trkpt>
      <trkpt lat="45.99969" lon="4.75132">
        <ele>173</ele>
        <time>2016-11-26T09:59:08Z</time>
      </trkpt>
      <trkpt lat="45.99974" lon="4.7513">
        <ele>173</ele>
        <time>2016-11-26T09:59:09Z</time>
      </trkpt>
      <trkpt lat="45.99979" lon="4.75128">
        <ele>173</ele>
        <time>2016-11-26T09:59:10Z</time>
      </trkpt>
      <trkpt lat="45.99985" lon="4.75126">
        <ele>173</ele>
        <time>2016-11-26T09:59:11Z</time>
      </trkpt>
      <trkpt lat="45.9999" lon="4.75124">
        <ele>173</ele>
        <time>2016-11-26T09:59:12Z</time>
      </trkpt>
      <trkpt lat="45.99995" lon="4.75122">
        <ele>173</ele>
        <time>2016-11-26T09:59:13Z</time>
      </trkpt>
      <trkpt lat="46.00001" lon="4.75121">
        <ele>174</ele>
        <time>2016-11-26T09:59:14Z</time>
      </trkpt>
      <trkpt lat="46.00006" lon="4.7512">
        <ele>174</ele>
        <time>2016-11-26T09:59:15Z</time>
      </trkpt>
      <trkpt lat="46.00011" lon="4.75119">
        <ele>174</ele>
        <time>2016-11-26T09:59:16Z</time>
      </trkpt>
      <trkpt lat="46.00017" lon="4.75118">
        <ele>174</ele>
        <time>2016-11-26T09:59:17Z</time>
      </trkpt>
      <trkpt lat="46.00022" lon="4.75116">
        <ele>174</ele>
        <time>2016-11-26T09:59:18Z</time>
      </trkpt>
      <trkpt lat="46.00027" lon="4.75114">
        <ele>174</ele>
        <time>2016-11-26T09:59:19Z</time>
      </trkpt>
      <trkpt lat="46.00033" lon="4.75113">
        <ele>174</ele>
        <time>2016-11-26T09:59:20Z</time>
      </trkpt>
      <trkpt lat="46.00038" lon="4.75112">
        <ele>174</ele>
        <time>2016-11-26T09:59:21Z</time>
      </trkpt>
      <trkpt lat="46.00044" lon="4.75111">
        <ele>174</ele>
        <time>2016-11-26T09:59:22Z</time>
      </trkpt>
      <trkpt lat="46.0005" lon="4.75111">
        <ele>174</ele>
        <time>2016-11-26T09:59:23Z</time>
      </trkpt>
      <trkpt lat="46.00055" lon="4.75111">
        <ele>174</ele>
        <time>2016-11-26T09:59:24Z</time>
      </trkpt>
      <trkpt lat="46.00061" lon="4.7511">
        <ele>174</ele>
        <time>2016-11-26T09:59:25Z</time>
      </trkpt>
      <trkpt lat="46.00068" lon="4.75111">
        <ele>174</ele>
        <time>2016-11-26T09:59:26Z</time>
      </trkpt>
      <trkpt lat="46.00074" lon="4.75111">
        <ele>174</ele>
        <time>2016-11-26T09:59:27Z</time>
      </trkpt>
      <trkpt lat="46.0008" lon="4.75111">
        <ele>174</ele>
        <time>2016-11-26T09:59:28Z</time>
      </trkpt>
      <trkpt lat="46.00085" lon="4.75112">
        <ele>175</ele>
        <time>2016-11-26T09:59:29Z</time>
      </trkpt>
      <trkpt lat="46.0009" lon="4.75113">
        <ele>175</ele>
        <time>2016-11-26T09:59:30Z</time>
      </trkpt>
      <trkpt lat="46.00095" lon="4.75112">
        <ele>175</ele>
        <time>2016-11-26T09:59:31Z</time>
      </trkpt>
      <trkpt lat="46.00099" lon="4.75112">
        <ele>175</ele>
        <time>2016-11-26T09:59:32Z</time>
      </trkpt>
      <trkpt lat="46.00108" lon="4.75113">
        <ele>175</ele>
        <time>2016-11-26T09:59:34Z</time>
      </trkpt>
      <trkpt lat="46.00112" lon="4.75112">
        <ele>175</ele>
        <time>2016-11-26T09:59:35Z</time>
      </trkpt>
      <trkpt lat="46.00119" lon="4.75112">
        <ele>175</ele>
        <time>2016-11-26T09:59:37Z</time>
      </trkpt>
      <trkpt lat="46.00123" lon="4.75113">
        <ele>175</ele>
        <time>2016-11-26T09:59:38Z</time>
      </trkpt>
      <trkpt lat="46.00131" lon="4.75113">
        <ele>175</ele>
        <time>2016-11-26T09:59:40Z</time>
      </trkpt>
      <trkpt lat="46.00134" lon="4.75113">
        <ele>175</ele>
        <time>2016-11-26T09:59:41Z</time>
      </trkpt>
      <trkpt lat="46.00141" lon="4.75112">
        <ele>175</ele>
        <time>2016-11-26T09:59:43Z</time>
      </trkpt>
      <trkpt lat="46.00144" lon="4.75112">
        <ele>175</ele>
        <time>2016-11-26T09:59:44Z</time>
      </trkpt>
      <trkpt lat="46.00151" lon="4.75111">
        <ele>175</ele>
        <time>2016-11-26T09:59:46Z</time>
      </trkpt>
      <trkpt lat="46.00155" lon="4.75111">
        <ele>175</ele>
        <time>2016-11-26T09:59:47Z</time>
      </trkpt>
      <trkpt lat="46.00163" lon="4.75111">
        <ele>175</ele>
        <time>2016-11-26T09:59:49Z</time>
      </trkpt>
      <trkpt lat="46.00169" lon="4.75111">
        <ele>176</ele>
        <time>2016-11-26T09:59:50Z</time>
      </trkpt>
      <trkpt lat="46.00174" lon="4.75112">
        <ele>176</ele>
        <time>2016-11-26T09:59:51Z</time>
      </trkpt>
      <trkpt lat="46.00179" lon="4.75113">
        <ele>176</ele>
        <time>2016-11-26T09:59:52Z</time>
      </trkpt>
      <trkpt lat="46.00184" lon="4.75113">
        <ele>176</ele>
        <time>2016-11-26T09:59:53Z</time>
      </trkpt>
      <trkpt lat="46.00189" lon="4.75113">
        <ele>176</ele>
        <time>2016-11-26T09:59:54Z</time>
      </trkpt>
      <trkpt lat="46.00193" lon="4.75112">
        <ele>176</ele>
        <time>2016-11-26T09:59:55Z</time>
      </trkpt>
      <trkpt lat="46.00198" lon="4.7511">
        <ele>176</ele>
        <time>2016-11-26T09:59:56Z</time>
      </trkpt>
      <trkpt lat="46.00205" lon="4.75112">
        <ele>176</ele>
        <time>2016-11-26T09:59:58Z</time>
      </trkpt>
      <trkpt lat="46.00207" lon="4.75117">
        <ele>176</ele>
        <time>2016-11-26T09:59:59Z</time>
      </trkpt>
      <trkpt lat="46.00207" lon="4.75128">
        <ele>176</ele>
        <time>2016-11-26T10:00:01Z</time>
      </trkpt>
      <trkpt lat="46.00207" lon="4.75133">
        <ele>176</ele>
        <time>2016-11-26T10:00:02Z</time>
      </trkpt>
      <trkpt lat="46.00207" lon="4.75144">
        <ele>177</ele>
        <time>2016-11-26T10:00:04Z</time>
      </trkpt>
      <trkpt lat="46.00207" lon="4.7515">
        <ele>177</ele>
        <time>2016-11-26T10:00:05Z</time>
      </trkpt>
      <trkpt lat="46.00208" lon="4.75161">
        <ele>177</ele>
        <time>2016-11-26T10:00:07Z</time>
      </trkpt>
      <trkpt lat="46.00208" lon="4.75167">
        <ele>179</ele>
        <time>2016-11-26T10:00:08Z</time>
      </trkpt>
      <trkpt lat="46.00209" lon="4.75179">
        <ele>179</ele>
        <time>2016-11-26T10:00:10Z</time>
      </trkpt>
      <trkpt lat="46.00209" lon="4.75185">
        <ele>179</ele>
        <time>2016-11-26T10:00:11Z</time>
      </trkpt>
      <trkpt lat="46.0021" lon="4.75195">
        <ele>179</ele>
        <time>2016-11-26T10:00:13Z</time>
      </trkpt>
      <trkpt lat="46.0021" lon="4.752">
        <ele>179</ele>
        <time>2016-11-26T10:00:14Z</time>
      </trkpt>
      <trkpt lat="46.0021" lon="4.75213">
        <ele>180</ele>
        <time>2016-11-26T10:00:17Z</time>
      </trkpt>
      <trkpt lat="46.0021" lon="4.75217">
        <ele>180</ele>
        <time>2016-11-26T10:00:18Z</time>
      </trkpt>
      <trkpt lat="46.00211" lon="4.75226">
        <ele>180</ele>
        <time>2016-11-26T10:00:20Z</time>
      </trkpt>
      <trkpt lat="46.00211" lon="4.75231">
        <ele>180</ele>
        <time>2016-11-26T10:00:21Z</time>
      </trkpt>
      <trkpt lat="46.00212" lon="4.7524">
        <ele>180</ele>
        <time>2016-11-26T10:00:23Z</time>
      </trkpt>
      <trkpt lat="46.00213" lon="4.75244">
        <ele>180</ele>
        <time>2016-11-26T10:00:24Z</time>
      </trkpt>
      <trkpt lat="46.00214" lon="4.75256">
        <ele>184</ele>
        <time>2016-11-26T10:00:27Z</time>
      </trkpt>
      <trkpt lat="46.00215" lon="4.7526">
        <ele>184</ele>
        <time>2016-11-26T10:00:28Z</time>
      </trkpt>
      <trkpt lat="46.00214" lon="4.75271">
        <ele>184</ele>
        <time>2016-11-26T10:00:31Z</time>
      </trkpt>
      <trkpt lat="46.00214" lon="4.75275">
        <ele>184</ele>
        <time>2016-11-26T10:00:32Z</time>
      </trkpt>
      <trkpt lat="46.00214" lon="4.75285">
        <ele>185</ele>
        <time>2016-11-26T10:00:35Z</time>
      </trkpt>
      <trkpt lat="46.00214" lon="4.75289">
        <ele>185</ele>
        <time>2016-11-26T10:00:36Z</time>
      </trkpt>
      <trkpt lat="46.00214" lon="4.753">
        <ele>185</ele>
        <time>2016-11-26T10:00:39Z</time>
      </trkpt>
      <trkpt lat="46.00215" lon="4.75303">
        <ele>185</ele>
        <time>2016-11-26T10:00:40Z</time>
      </trkpt>
      <trkpt lat="46.00215" lon="4.75314">
        <ele>186</ele>
        <time>2016-11-26T10:00:43Z</time>
      </trkpt>
      <trkpt lat="46.00215" lon="4.75318">
        <ele>186</ele>
        <time>2016-11-26T10:00:44Z</time>
      </trkpt>
      <trkpt lat="46.00215" lon="4.7533">
        <ele>186</ele>
        <time>2016-11-26T10:00:47Z</time>
      </trkpt>
      <trkpt lat="46.00215" lon="4.75334">
        <ele>190</ele>
        <time>2016-11-26T10:00:48Z</time>
      </trkpt>
      <trkpt lat="46.00215" lon="4.75345">
        <ele>190</ele>
        <time>2016-11-26T10:00:51Z</time>
      </trkpt>
      <trkpt lat="46.00215" lon="4.75349">
        <ele>190</ele>
        <time>2016-11-26T10:00:52Z</time>
      </trkpt>
      <trkpt lat="46.00215" lon="4.75361">
        <ele>191</ele>
        <time>2016-11-26T10:00:55Z</time>
      </trkpt>
      <trkpt lat="46.00215" lon="4.75365">
        <ele>191</ele>
        <time>2016-11-26T10:00:56Z</time>
      </trkpt>
      <trkpt lat="46.00215" lon="4.75377">
        <ele>191</ele>
        <time>2016-11-26T10:00:59Z</time>
      </trkpt>
      <trkpt lat="46.00215" lon="4.75381">
        <ele>192</ele>
        <time>2016-11-26T10:01:00Z</time>
      </trkpt>
      <trkpt lat="46.00214" lon="4.75392">
        <ele>192</ele>
        <time>2016-11-26T10:01:03Z</time>
      </trkpt>
      <trkpt lat="46.00214" lon="4.75396">
        <ele>192</ele>
        <time>2016-11-26T10:01:04Z</time>
      </trkpt>
      <trkpt lat="46.00215" lon="4.75407">
        <ele>192</ele>
        <time>2016-11-26T10:01:07Z</time>
      </trkpt>
      <trkpt lat="46.00216" lon="4.75411">
        <ele>192</ele>
        <time>2016-11-26T10:01:08Z</time>
      </trkpt>
      <trkpt lat="46.00216" lon="4.75422">
        <ele>196</ele>
        <time>2016-11-26T10:01:11Z</time>
      </trkpt>
      <trkpt lat="46.00216" lon="4.75426">
        <ele>196</ele>
        <time>2016-11-26T10:01:12Z</time>
      </trkpt>
      <trkpt lat="46.00215" lon="4.75437">
        <ele>197</ele>
        <time>2016-11-26T10:01:15Z</time>
      </trkpt>
      <trkpt lat="46.00215" lon="4.75441">
        <ele>197</ele>
        <time>2016-11-26T10:01:16Z</time>
      </trkpt>
      <trkpt lat="46.00215" lon="4.75453">
        <ele>197</ele>
        <time>2016-11-26T10:01:19Z</time>
      </trkpt>
      <trkpt lat="46.00215" lon="4.75457">
        <ele>197</ele>
        <time>2016-11-26T10:01:20Z</time>
      </trkpt>
      <trkpt lat="46.00214" lon="4.7547">
        <ele>198</ele>
        <time>2016-11-26T10:01:23Z</time>
      </trkpt>
      <trkpt lat="46.00213" lon="4.75474">
        <ele>198</ele>
        <time>2016-11-26T10:01:24Z</time>
      </trkpt>
      <trkpt lat="46.00214" lon="4.75486">
        <ele>198</ele>
        <time>2016-11-26T10:01:27Z</time>
      </trkpt>
      <trkpt lat="46.00214" lon="4.75489">
        <ele>198</ele>
        <time>2016-11-26T10:01:28Z</time>
      </trkpt>
      <trkpt lat="46.00214" lon="4.75501">
        <ele>204</ele>
        <time>2016-11-26T10:01:31Z</time>
      </trkpt>
      <trkpt lat="46.00215" lon="4.75504">
        <ele>204</ele>
        <time>2016-11-26T10:01:32Z</time>
      </trkpt>
      <trkpt lat="46.00216" lon="4.75515">
        <ele>204</ele>
        <time>2016-11-26T10:01:35Z</time>
      </trkpt>
      <trkpt lat="46.00217" lon="4.75519">
        <ele>204</ele>
        <time>2016-11-26T10:01:36Z</time>
      </trkpt>
      <trkpt lat="46.00218" lon="4.7553">
        <ele>205</ele>
        <time>2016-11-26T10:01:39Z</time>
      </trkpt>
      <trkpt lat="46.00218" lon="4.75533">
        <ele>205</ele>
        <time>2016-11-26T10:01:40Z</time>
      </trkpt>
      <trkpt lat="46.00221" lon="4.75543">
        <ele>205</ele>
        <time>2016-11-26T10:01:43Z</time>
      </trkpt>
      <trkpt lat="46.00222" lon="4.75546">
        <ele>206</ele>
        <time>2016-11-26T10:01:44Z</time>
      </trkpt>
      <trkpt lat="46.00224" lon="4.75555">
        <ele>206</ele>
        <time>2016-11-26T10:01:47Z</time>
      </trkpt>
      <trkpt lat="46.00226" lon="4.75558">
        <ele>206</ele>
        <time>2016-11-26T10:01:48Z</time>
      </trkpt>
      <trkpt lat="46.0023" lon="4.75568">
        <ele>206</ele>
        <time>2016-11-26T10:01:51Z</time>
      </trkpt>
      <trkpt lat="46.00231" lon="4.7557">
        <ele>206</ele>
        <time>2016-11-26T10:01:52Z</time>
      </trkpt>
      <trkpt lat="46.00236" lon="4.7558">
        <ele>205</ele>
        <time>2016-11-26T10:01:55Z</time>
      </trkpt>
      <trkpt lat="46.00237" lon="4.75583">
        <ele>205</ele>
        <time>2016-11-26T10:01:56Z</time>
      </trkpt>
      <trkpt lat="46.00244" lon="4.75591">
        <ele>208</ele>
        <time>2016-11-26T10:01:59Z</time>
      </trkpt>
      <trkpt lat="46.00246" lon="4.75594">
        <ele>208</ele>
        <time>2016-11-26T10:02:00Z</time>
      </trkpt>
      <trkpt lat="46.00251" lon="4.75602">
        <ele>205</ele>
        <time>2016-11-26T10:02:03Z</time>
      </trkpt>
      <trkpt lat="46.00252" lon="4.75604">
        <ele>205</ele>
        <time>2016-11-26T10:02:04Z</time>
      </trkpt>
      <trkpt lat="46.00256" lon="4.75612">
        <ele>206</ele>
        <time>2016-11-26T10:02:07Z</time>
      </trkpt>
      <trkpt lat="46.00258" lon="4.75615">
        <ele>206</ele>
        <time>2016-11-26T10:02:08Z</time>
      </trkpt>
      <trkpt lat="46.00264" lon="4.75623">
        <ele>206</ele>
        <time>2016-11-26T10:02:11Z</time>
      </trkpt>
      <trkpt lat="46.00266" lon="4.75625">
        <ele>206</ele>
        <time>2016-11-26T10:02:12Z</time>
      </trkpt>
      <trkpt lat="46.00272" lon="4.75635">
        <ele>207</ele>
        <time>2016-11-26T10:02:15Z</time>
      </trkpt>
      <trkpt lat="46.00273" lon="4.75639">
        <ele>207</ele>
        <time>2016-11-26T10:02:16Z</time>
      </trkpt>
      <trkpt lat="46.00278" lon="4.75645">
        <ele>207</ele>
        <time>2016-11-26T10:02:18Z</time>
      </trkpt>
      <trkpt lat="46.0028" lon="4.75649">
        <ele>207</ele>
        <time>2016-11-26T10:02:19Z</time>
      </trkpt>
      <trkpt lat="46.00285" lon="4.75658">
        <ele>207</ele>
        <time>2016-11-26T10:02:22Z</time>
      </trkpt>
      <trkpt lat="46.00287" lon="4.75661">
        <ele>207</ele>
        <time>2016-11-26T10:02:23Z</time>
      </trkpt>
      <trkpt lat="46.00294" lon="4.75668">
        <ele>208</ele>
        <time>2016-11-26T10:02:26Z</time>
      </trkpt>
      <trkpt lat="46.00295" lon="4.75671">
        <ele>208</ele>
        <time>2016-11-26T10:02:27Z</time>
      </trkpt>
      <trkpt lat="46.003" lon="4.75681">
        <ele>208</ele>
        <time>2016-11-26T10:02:30Z</time>
      </trkpt>
      <trkpt lat="46.00302" lon="4.75683">
        <ele>208</ele>
        <time>2016-11-26T10:02:31Z</time>
      </trkpt>
      <trkpt lat="46.00306" lon="4.75692">
        <ele>208</ele>
        <time>2016-11-26T10:02:34Z</time>
      </trkpt>
      <trkpt lat="46.00307" lon="4.75695">
        <ele>208</ele>
        <time>2016-11-26T10:02:35Z</time>
      </trkpt>
      <trkpt lat="46.00312" lon="4.75704">
        <ele>208</ele>
        <time>2016-11-26T10:02:38Z</time>
      </trkpt>
      <trkpt lat="46.00315" lon="4.75707">
        <ele>208</ele>
        <time>2016-11-26T10:02:39Z</time>
      </trkpt>
      <trkpt lat="46.00321" lon="4.75715">
        <ele>208</ele>
        <time>2016-11-26T10:02:42Z</time>
      </trkpt>
      <trkpt lat="46.00323" lon="4.75718">
        <ele>208</ele>
        <time>2016-11-26T10:02:43Z</time>
      </trkpt>
      <trkpt lat="46.0033" lon="4.75725">
        <ele>208</ele>
        <time>2016-11-26T10:02:46Z</time>
      </trkpt>
      <trkpt lat="46.00331" lon="4.75729">
        <ele>208</ele>
        <time>2016-11-26T10:02:47Z</time>
      </trkpt>
      <trkpt lat="46.00337" lon="4.75737">
        <ele>209</ele>
        <time>2016-11-26T10:02:50Z</time>
      </trkpt>
      <trkpt lat="46.00339" lon="4.75741">
        <ele>209</ele>
        <time>2016-11-26T10:02:51Z</time>
      </trkpt>
      <trkpt lat="46.00345" lon="4.75749">
        <ele>209</ele>
        <time>2016-11-26T10:02:54Z</time>
      </trkpt>
      <trkpt lat="46.00347" lon="4.75753">
        <ele>210</ele>
        <time>2016-11-26T10:02:55Z</time>
      </trkpt>
      <trkpt lat="46.00352" lon="4.75763">
        <ele>211</ele>
        <time>2016-11-26T10:02:58Z</time>
      </trkpt>
      <trkpt lat="46.00354" lon="4.75766">
        <ele>212</ele>
        <time>2016-11-26T10:02:59Z</time>
      </trkpt>
      <trkpt lat="46.00359" lon="4.75775">
        <ele>212</ele>
        <time>2016-11-26T10:03:02Z</time>
      </trkpt>
      <trkpt lat="46.00361" lon="4.75778">
        <ele>212</ele>
        <time>2016-11-26T10:03:03Z</time>
      </trkpt>
      <trkpt lat="46.00367" lon="4.75786">
        <ele>213</ele>
        <time>2016-11-26T10:03:06Z</time>
      </trkpt>
      <trkpt lat="46.00369" lon="4.75789">
        <ele>213</ele>
        <time>2016-11-26T10:03:07Z</time>
      </trkpt>
      <trkpt lat="46.00374" lon="4.75797">
        <ele>213</ele>
        <time>2016-11-26T10:03:10Z</time>
      </trkpt>
      <trkpt lat="46.00375" lon="4.75799">
        <ele>213</ele>
        <time>2016-11-26T10:03:11Z</time>
      </trkpt>
      <trkpt lat="46.00379" lon="4.75808">
        <ele>213</ele>
        <time>2016-11-26T10:03:14Z</time>
      </trkpt>
      <trkpt lat="46.00381" lon="4.7581">
        <ele>213</ele>
        <time>2016-11-26T10:03:15Z</time>
      </trkpt>
      <trkpt lat="46.00387" lon="4.75817">
        <ele>213</ele>
        <time>2016-11-26T10:03:18Z</time>
      </trkpt>
      <trkpt lat="46.00389" lon="4.7582">
        <ele>213</ele>
        <time>2016-11-26T10:03:19Z</time>
      </trkpt>
      <trkpt lat="46.00394" lon="4.75829">
        <ele>213</ele>
        <time>2016-11-26T10:03:22Z</time>
      </trkpt>
      <trkpt lat="46.00396" lon="4.75832">
        <ele>213</ele>
        <time>2016-11-26T10:03:23Z</time>
      </trkpt>
      <trkpt lat="46.00399" lon="4.75842">
        <ele>214</ele>
        <time>2016-11-26T10:03:26Z</time>
      </trkpt>
      <trkpt lat="46.00401" lon="4.75843">
        <ele>214</ele>
        <time>2016-11-26T10:03:27Z</time>
      </trkpt>
      <trkpt lat="46.00406" lon="4.75852">
        <ele>215</ele>
        <time>2016-11-26T10:03:30Z</time>
      </trkpt>
      <trkpt lat="46.00408" lon="4.75855">
        <ele>215</ele>
        <time>2016-11-26T10:03:31Z</time>
      </trkpt>
      <trkpt lat="46.00412" lon="4.75864">
        <ele>215</ele>
        <time>2016-11-26T10:03:34Z</time>
      </trkpt>
      <trkpt lat="46.00414" lon="4.75867">
        <ele>215</ele>
        <time>2016-11-26T10:03:35Z</time>
      </trkpt>
      <trkpt lat="46.00418" lon="4.75877">
        <ele>217</ele>
        <time>2016-11-26T10:03:38Z</time>
      </trkpt>
      <trkpt lat="46.0042" lon="4.75879">
        <ele>217</ele>
        <time>2016-11-26T10:03:39Z</time>
      </trkpt>
      <trkpt lat="46.00425" lon="4.75887">
        <ele>217</ele>
        <time>2016-11-26T10:03:42Z</time>
      </trkpt>
      <trkpt lat="46.00427" lon="4.7589">
        <ele>217</ele>
        <time>2016-11-26T10:03:43Z</time>
      </trkpt>
      <trkpt lat="46.0043" lon="4.75898">
        <ele>217</ele>
        <time>2016-11-26T10:03:46Z</time>
      </trkpt>
      <trkpt lat="46.00432" lon="4.75901">
        <ele>217</ele>
        <time>2016-11-26T10:03:47Z</time>
      </trkpt>
      <trkpt lat="46.00436" lon="4.7591">
        <ele>217</ele>
        <time>2016-11-26T10:03:50Z</time>
      </trkpt>
      <trkpt lat="46.00438" lon="4.75914">
        <ele>217</ele>
        <time>2016-11-26T10:03:51Z</time>
      </trkpt>
      <trkpt lat="46.00442" lon="4.75922">
        <ele>218</ele>
        <time>2016-11-26T10:03:54Z</time>
      </trkpt>
      <trkpt lat="46.00444" lon="4.75925">
        <ele>218</ele>
        <time>2016-11-26T10:03:55Z</time>
      </trkpt>
      <trkpt lat="46.00447" lon="4.75934">
        <ele>218</ele>
        <time>2016-11-26T10:03:58Z</time>
      </trkpt>
      <trkpt lat="46.00447" lon="4.75937">
        <ele>218</ele>
        <time>2016-11-26T10:03:59Z</time>
      </trkpt>
      <trkpt lat="46.00447" lon="4.7595">
        <ele>219</ele>
        <time>2016-11-26T10:04:03Z</time>
      </trkpt>
      <trkpt lat="46.00447" lon="4.75954">
        <ele>219</ele>
        <time>2016-11-26T10:04:04Z</time>
      </trkpt>
      <trkpt lat="46.00443" lon="4.75964">
        <ele>219</ele>
        <time>2016-11-26T10:04:07Z</time>
      </trkpt>
      <trkpt lat="46.00442" lon="4.75967">
        <ele>219</ele>
        <time>2016-11-26T10:04:08Z</time>
      </trkpt>
      <trkpt lat="46.00437" lon="4.75974">
        <ele>219</ele>
        <time>2016-11-26T10:04:11Z</time>
      </trkpt>
      <trkpt lat="46.00435" lon="4.75976">
        <ele>219</ele>
        <time>2016-11-26T10:04:12Z</time>
      </trkpt>
      <trkpt lat="46.00429" lon="4.75982">
        <ele>220</ele>
        <time>2016-11-26T10:04:15Z</time>
      </trkpt>
      <trkpt lat="46.00426" lon="4.75984">
        <ele>220</ele>
        <time>2016-11-26T10:04:16Z</time>
      </trkpt>
      <trkpt lat="46.0042" lon="4.7599">
        <ele>220</ele>
        <time>2016-11-26T10:04:19Z</time>
      </trkpt>
      <trkpt lat="46.00418" lon="4.75992">
        <ele>220</ele>
        <time>2016-11-26T10:04:20Z</time>
      </trkpt>
      <trkpt lat="46.00411" lon="4.75999">
        <ele>221</ele>
        <time>2016-11-26T10:04:24Z</time>
      </trkpt>
      <trkpt lat="46.00409" lon="4.76">
        <ele>222</ele>
        <time>2016-11-26T10:04:25Z</time>
      </trkpt>
      <trkpt lat="46.00401" lon="4.76007">
        <ele>223</ele>
        <time>2016-11-26T10:04:28Z</time>
      </trkpt>
      <trkpt lat="46.00399" lon="4.76009">
        <ele>223</ele>
        <time>2016-11-26T10:04:29Z</time>
      </trkpt>
      <trkpt lat="46.00393" lon="4.76018">
        <ele>224</ele>
        <time>2016-11-26T10:04:33Z</time>
      </trkpt>
      <trkpt lat="46.00391" lon="4.76021">
        <ele>224</ele>
        <time>2016-11-26T10:04:34Z</time>
      </trkpt>
      <trkpt lat="46.00384" lon="4.76028">
        <ele>225</ele>
        <time>2016-11-26T10:04:38Z</time>
      </trkpt>
      <trkpt lat="46.00381" lon="4.76029">
        <ele>225</ele>
        <time>2016-11-26T10:04:39Z</time>
      </trkpt>
      <trkpt lat="46.00375" lon="4.76037">
        <ele>225</ele>
        <time>2016-11-26T10:04:42Z</time>
      </trkpt>
      <trkpt lat="46.00374" lon="4.7604">
        <ele>225</ele>
        <time>2016-11-26T10:04:43Z</time>
      </trkpt>
      <trkpt lat="46.00372" lon="4.7605">
        <ele>225</ele>
        <time>2016-11-26T10:04:46Z</time>
      </trkpt>
      <trkpt lat="46.00372" lon="4.76053">
        <ele>226</ele>
        <time>2016-11-26T10:04:47Z</time>
      </trkpt>
      <trkpt lat="46.00375" lon="4.76064">
        <ele>226</ele>
        <time>2016-11-26T10:04:51Z</time>
      </trkpt>
      <trkpt lat="46.00376" lon="4.76066">
        <ele>226</ele>
        <time>2016-11-26T10:04:52Z</time>
      </trkpt>
      <trkpt lat="46.00385" lon="4.76069">
        <ele>226</ele>
        <time>2016-11-26T10:04:56Z</time>
      </trkpt>
      <trkpt lat="46.00387" lon="4.76069">
        <ele>226</ele>
        <time>2016-11-26T10:04:57Z</time>
      </trkpt>
      <trkpt lat="46.00395" lon="4.76072">
        <ele>226</ele>
        <time>2016-11-26T10:05:01Z</time>
      </trkpt>
      <trkpt lat="46.00397" lon="4.76073">
        <ele>226</ele>
        <time>2016-11-26T10:05:02Z</time>
      </trkpt>
      <trkpt lat="46.00405" lon="4.76078">
        <ele>226</ele>
        <time>2016-11-26T10:05:05Z</time>
      </trkpt>
      <trkpt lat="46.00407" lon="4.76079">
        <ele>226</ele>
        <time>2016-11-26T10:05:06Z</time>
      </trkpt>
      <trkpt lat="46.00414" lon="4.76079">
        <ele>226</ele>
        <time>2016-11-26T10:05:09Z</time>
      </trkpt>
      <trkpt lat="46.00416" lon="4.76079">
        <ele>226</ele>
        <time>2016-11-26T10:05:10Z</time>
      </trkpt>
      <trkpt lat="46.00424" lon="4.76082">
        <ele>225</ele>
        <time>2016-11-26T10:05:13Z</time>
      </trkpt>
      <trkpt lat="46.00426" lon="4.76083">
        <ele>225</ele>
        <time>2016-11-26T10:05:14Z</time>
      </trkpt>
      <trkpt lat="46.00434" lon="4.76084">
        <ele>227</ele>
        <time>2016-11-26T10:05:17Z</time>
      </trkpt>
      <trkpt lat="46.00436" lon="4.76085">
        <ele>227</ele>
        <time>2016-11-26T10:05:18Z</time>
      </trkpt>
      <trkpt lat="46.00443" lon="4.76088">
        <ele>227</ele>
        <time>2016-11-26T10:05:21Z</time>
      </trkpt>
      <trkpt lat="46.00445" lon="4.7609">
        <ele>227</ele>
        <time>2016-11-26T10:05:22Z</time>
      </trkpt>
      <trkpt lat="46.00452" lon="4.76094">
        <ele>227</ele>
        <time>2016-11-26T10:05:25Z</time>
      </trkpt>
      <trkpt lat="46.00454" lon="4.76095">
        <ele>227</ele>
        <time>2016-11-26T10:05:26Z</time>
      </trkpt>
      <trkpt lat="46.0046" lon="4.76101">
        <ele>227</ele>
        <time>2016-11-26T10:05:29Z</time>
      </trkpt>
      <trkpt lat="46.00463" lon="4.76104">
        <ele>227</ele>
        <time>2016-11-26T10:05:30Z</time>
      </trkpt>
      <trkpt lat="46.00471" lon="4.76111">
        <ele>227</ele>
        <time>2016-11-26T10:05:33Z</time>
      </trkpt>
      <trkpt lat="46.00472" lon="4.76113">
        <ele>227</ele>
        <time>2016-11-26T10:05:34Z</time>
      </trkpt>
      <trkpt lat="46.00477" lon="4.76119">
        <ele>227</ele>
        <time>2016-11-26T10:05:36Z</time>
      </trkpt>
      <trkpt lat="46.00479" lon="4.76122">
        <ele>227</ele>
        <time>2016-11-26T10:05:37Z</time>
      </trkpt>
      <trkpt lat="46.00486" lon="4.76128">
        <ele>228</ele>
        <time>2016-11-26T10:05:40Z</time>
      </trkpt>
      <trkpt lat="46.00488" lon="4.76131">
        <ele>228</ele>
        <time>2016-11-26T10:05:41Z</time>
      </trkpt>
      <trkpt lat="46.00495" lon="4.76137">
        <ele>228</ele>
        <time>2016-11-26T10:05:44Z</time>
      </trkpt>
      <trkpt lat="46.00498" lon="4.76139">
        <ele>228</ele>
        <time>2016-11-26T10:05:45Z</time>
      </trkpt>
      <trkpt lat="46.00505" lon="4.76147">
        <ele>228</ele>
        <time>2016-11-26T10:05:48Z</time>
      </trkpt>
      <trkpt lat="46.00507" lon="4.76149">
        <ele>228</ele>
        <time>2016-11-26T10:05:49Z</time>
      </trkpt>
      <trkpt lat="46.00514" lon="4.76157">
        <ele>228</ele>
        <time>2016-11-26T10:05:52Z</time>
      </trkpt>
      <trkpt lat="46.00516" lon="4.76159">
        <ele>228</ele>
        <time>2016-11-26T10:05:53Z</time>
      </trkpt>
      <trkpt lat="46.00523" lon="4.76165">
        <ele>228</ele>
        <time>2016-11-26T10:05:56Z</time>
      </trkpt>
      <trkpt lat="46.00525" lon="4.76167">
        <ele>228</ele>
        <time>2016-11-26T10:05:57Z</time>
      </trkpt>
      <trkpt lat="46.00533" lon="4.76171">
        <ele>230</ele>
        <time>2016-11-26T10:06:00Z</time>
      </trkpt>
      <trkpt lat="46.00536" lon="4.76173">
        <ele>230</ele>
        <time>2016-11-26T10:06:01Z</time>
      </trkpt>
      <trkpt lat="46.00542" lon="4.76178">
        <ele>230</ele>
        <time>2016-11-26T10:06:03Z</time>
      </trkpt>
      <trkpt lat="46.00545" lon="4.7618">
        <ele>230</ele>
        <time>2016-11-26T10:06:04Z</time>
      </trkpt>
      <trkpt lat="46.00552" lon="4.76183">
        <ele>230</ele>
        <time>2016-11-26T10:06:07Z</time>
      </trkpt>
      <trkpt lat="46.00555" lon="4.76184">
        <ele>230</ele>
        <time>2016-11-26T10:06:08Z</time>
      </trkpt>
      <trkpt lat="46.00563" lon="4.76187">
        <ele>230</ele>
        <time>2016-11-26T10:06:11Z</time>
      </trkpt>
      <trkpt lat="46.00566" lon="4.76189">
        <ele>231</ele>
        <time>2016-11-26T10:06:12Z</time>
      </trkpt>
      <trkpt lat="46.00573" lon="4.76194">
        <ele>231</ele>
        <time>2016-11-26T10:06:15Z</time>
      </trkpt>
      <trkpt lat="46.00576" lon="4.76195">
        <ele>231</ele>
        <time>2016-11-26T10:06:16Z</time>
      </trkpt>
      <trkpt lat="46.00584" lon="4.76196">
        <ele>230</ele>
        <time>2016-11-26T10:06:19Z</time>
      </trkpt>
      <trkpt lat="46.00587" lon="4.76197">
        <ele>230</ele>
        <time>2016-11-26T10:06:20Z</time>
      </trkpt>
      <trkpt lat="46.00595" lon="4.76199">
        <ele>230</ele>
        <time>2016-11-26T10:06:23Z</time>
      </trkpt>
      <trkpt lat="46.00598" lon="4.762">
        <ele>230</ele>
        <time>2016-11-26T10:06:24Z</time>
      </trkpt>
      <trkpt lat="46.00606" lon="4.76203">
        <ele>230</ele>
        <time>2016-11-26T10:06:27Z</time>
      </trkpt>
      <trkpt lat="46.00608" lon="4.76204">
        <ele>230</ele>
        <time>2016-11-26T10:06:28Z</time>
      </trkpt>
      <trkpt lat="46.00617" lon="4.76208">
        <ele>230</ele>
        <time>2016-11-26T10:06:31Z</time>
      </trkpt>
      <trkpt lat="46.00619" lon="4.76209">
        <ele>230</ele>
        <time>2016-11-26T10:06:32Z</time>
      </trkpt>
      <trkpt lat="46.00627" lon="4.76215">
        <ele>230</ele>
        <time>2016-11-26T10:06:38Z</time>
      </trkpt>
      <trkpt lat="46.00628" lon="4.76216">
        <ele>230</ele>
        <time>2016-11-26T10:06:39Z</time>
      </trkpt>
      <trkpt lat="46.00632" lon="4.76207">
        <ele>230</ele>
        <time>2016-11-26T10:06:43Z</time>
      </trkpt>
      <trkpt lat="46.00631" lon="4.76203">
        <ele>230</ele>
        <time>2016-11-26T10:06:44Z</time>
      </trkpt>
      <trkpt lat="46.00629" lon="4.76194">
        <ele>230</ele>
        <time>2016-11-26T10:06:46Z</time>
      </trkpt>
      <trkpt lat="46.00629" lon="4.76189">
        <ele>230</ele>
        <time>2016-11-26T10:06:47Z</time>
      </trkpt>
      <trkpt lat="46.00629" lon="4.76178">
        <ele>230</ele>
        <time>2016-11-26T10:06:49Z</time>
      </trkpt>
      <trkpt lat="46.00632" lon="4.76173">
        <ele>230</ele>
        <time>2016-11-26T10:06:50Z</time>
      </trkpt>
      <trkpt lat="46.00635" lon="4.76168">
        <ele>230</ele>
        <time>2016-11-26T10:06:51Z</time>
      </trkpt>
      <trkpt lat="46.00639" lon="4.76162">
        <ele>228</ele>
        <time>2016-11-26T10:06:52Z</time>
      </trkpt>
      <trkpt lat="46.00643" lon="4.76157">
        <ele>228</ele>
        <time>2016-11-26T10:06:53Z</time>
      </trkpt>
      <trkpt lat="46.00649" lon="4.7615">
        <ele>228</ele>
        <time>2016-11-26T10:06:54Z</time>
      </trkpt>
      <trkpt lat="46.00654" lon="4.76145">
        <ele>228</ele>
        <time>2016-11-26T10:06:55Z</time>
      </trkpt>
      <trkpt lat="46.0066" lon="4.76139">
        <ele>228</ele>
        <time>2016-11-26T10:06:56Z</time>
      </trkpt>
      <trkpt lat="46.00668" lon="4.76133">
        <ele>226</ele>
        <time>2016-11-26T10:06:57Z</time>
      </trkpt>
      <trkpt lat="46.00676" lon="4.76128">
        <ele>226</ele>
        <time>2016-11-26T10:06:58Z</time>
      </trkpt>
      <trkpt lat="46.00685" lon="4.76125">
        <ele>225</ele>
        <time>2016-11-26T10:06:59Z</time>
      </trkpt>
      <trkpt lat="46.00694" lon="4.76124">
        <ele>225</ele>
        <time>2016-11-26T10:07:00Z</time>
      </trkpt>
      <trkpt lat="46.00704" lon="4.76122">
        <ele>225</ele>
        <time>2016-11-26T10:07:01Z</time>
      </trkpt>
      <trkpt lat="46.00714" lon="4.76121">
        <ele>224</ele>
        <time>2016-11-26T10:07:02Z</time>
      </trkpt>
      <trkpt lat="46.00724" lon="4.7612">
        <ele>224</ele>
        <time>2016-11-26T10:07:03Z</time>
      </trkpt>
      <trkpt lat="46.00735" lon="4.7612">
        <ele>223</ele>
        <time>2016-11-26T10:07:04Z</time>
      </trkpt>
      <trkpt lat="46.00744" lon="4.76119">
        <ele>223</ele>
        <time>2016-11-26T10:07:05Z</time>
      </trkpt>
      <trkpt lat="46.00754" lon="4.76118">
        <ele>219</ele>
        <time>2016-11-26T10:07:06Z</time>
      </trkpt>
      <trkpt lat="46.00765" lon="4.76117">
        <ele>219</ele>
        <time>2016-11-26T10:07:07Z</time>
      </trkpt>
      <trkpt lat="46.00775" lon="4.76116">
        <ele>219</ele>
        <time>2016-11-26T10:07:08Z</time>
      </trkpt>
      <trkpt lat="46.00785" lon="4.76114">
        <ele>219</ele>
        <time>2016-11-26T10:07:09Z</time>
      </trkpt>
      <trkpt lat="46.00795" lon="4.76113">
        <ele>219</ele>
        <time>2016-11-26T10:07:10Z</time>
      </trkpt>
      <trkpt lat="46.00805" lon="4.76112">
        <ele>218</ele>
        <time>2016-11-26T10:07:11Z</time>
      </trkpt>
      <trkpt lat="46.00815" lon="4.76111">
        <ele>218</ele>
        <time>2016-11-26T10:07:12Z</time>
      </trkpt>
      <trkpt lat="46.00825" lon="4.76109">
        <ele>218</ele>
        <time>2016-11-26T10:07:13Z</time>
      </trkpt>
      <trkpt lat="46.00835" lon="4.76108">
        <ele>216</ele>
        <time>2016-11-26T10:07:14Z</time>
      </trkpt>
      <trkpt lat="46.00844" lon="4.76106">
        <ele>216</ele>
        <time>2016-11-26T10:07:15Z</time>
      </trkpt>
      <trkpt lat="46.00854" lon="4.76104">
        <ele>215</ele>
        <time>2016-11-26T10:07:16Z</time>
      </trkpt>
      <trkpt lat="46.00863" lon="4.76102">
        <ele>215</ele>
        <time>2016-11-26T10:07:17Z</time>
      </trkpt>
      <trkpt lat="46.00873" lon="4.76099">
        <ele>215</ele>
        <time>2016-11-26T10:07:18Z</time>
      </trkpt>
      <trkpt lat="46.00882" lon="4.76097">
        <ele>215</ele>
        <time>2016-11-26T10:07:19Z</time>
      </trkpt>
      <trkpt lat="46.00891" lon="4.76094">
        <ele>215</ele>
        <time>2016-11-26T10:07:20Z</time>
      </trkpt>
      <trkpt lat="46.009" lon="4.76092">
        <ele>214</ele>
        <time>2016-11-26T10:07:21Z</time>
      </trkpt>
      <trkpt lat="46.00909" lon="4.7609">
        <ele>214</ele>
        <time>2016-11-26T10:07:22Z</time>
      </trkpt>
      <trkpt lat="46.00918" lon="4.76089">
        <ele>213</ele>
        <time>2016-11-26T10:07:23Z</time>
      </trkpt>
      <trkpt lat="46.00926" lon="4.76087">
        <ele>213</ele>
        <time>2016-11-26T10:07:24Z</time>
      </trkpt>
      <trkpt lat="46.00935" lon="4.76085">
        <ele>213</ele>
        <time>2016-11-26T10:07:25Z</time>
      </trkpt>
      <trkpt lat="46.00943" lon="4.76083">
        <ele>212</ele>
        <time>2016-11-26T10:07:26Z</time>
      </trkpt>
      <trkpt lat="46.00952" lon="4.76081">
        <ele>212</ele>
        <time>2016-11-26T10:07:27Z</time>
      </trkpt>
      <trkpt lat="46.0096" lon="4.76079">
        <ele>212</ele>
        <time>2016-11-26T10:07:28Z</time>
      </trkpt>
      <trkpt lat="46.00968" lon="4.76077">
        <ele>212</ele>
        <time>2016-11-26T10:07:29Z</time>
      </trkpt>
      <trkpt lat="46.00976" lon="4.76075">
        <ele>212</ele>
        <time>2016-11-26T10:07:30Z</time>
      </trkpt>
      <trkpt lat="46.00983" lon="4.76073">
        <ele>212</ele>
        <time>2016-11-26T10:07:31Z</time>
      </trkpt>
      <trkpt lat="46.00991" lon="4.76072">
        <ele>212</ele>
        <time>2016-11-26T10:07:32Z</time>
      </trkpt>
      <trkpt lat="46.00998" lon="4.76071">
        <ele>212</ele>
        <time>2016-11-26T10:07:33Z</time>
      </trkpt>
      <trkpt lat="46.01006" lon="4.7607">
        <ele>211</ele>
        <time>2016-11-26T10:07:34Z</time>
      </trkpt>
      <trkpt lat="46.01013" lon="4.76069">
        <ele>211</ele>
        <time>2016-11-26T10:07:35Z</time>
      </trkpt>
      <trkpt lat="46.01021" lon="4.76069">
        <ele>210</ele>
        <time>2016-11-26T10:07:36Z</time>
      </trkpt>
      <trkpt lat="46.01028" lon="4.76068">
        <ele>210</ele>
        <time>2016-11-26T10:07:37Z</time>
      </trkpt>
      <trkpt lat="46.01036" lon="4.76067">
        <ele>210</ele>
        <time>2016-11-26T10:07:38Z</time>
      </trkpt>
      <trkpt lat="46.01043" lon="4.76066">
        <ele>210</ele>
        <time>2016-11-26T10:07:39Z</time>
      </trkpt>
      <trkpt lat="46.01051" lon="4.76066">
        <ele>210</ele>
        <time>2016-11-26T10:07:40Z</time>
      </trkpt>
      <trkpt lat="46.01059" lon="4.76066">
        <ele>209</ele>
        <time>2016-11-26T10:07:41Z</time>
      </trkpt>
      <trkpt lat="46.01067" lon="4.76065">
        <ele>209</ele>
        <time>2016-11-26T10:07:42Z</time>
      </trkpt>
      <trkpt lat="46.01074" lon="4.76064">
        <ele>209</ele>
        <time>2016-11-26T10:07:43Z</time>
      </trkpt>
      <trkpt lat="46.01082" lon="4.76063">
        <ele>209</ele>
        <time>2016-11-26T10:07:44Z</time>
      </trkpt>
      <trkpt lat="46.0109" lon="4.76061">
        <ele>208</ele>
        <time>2016-11-26T10:07:45Z</time>
      </trkpt>
      <trkpt lat="46.01097" lon="4.7606">
        <ele>208</ele>
        <time>2016-11-26T10:07:46Z</time>
      </trkpt>
      <trkpt lat="46.01105" lon="4.76058">
        <ele>208</ele>
        <time>2016-11-26T10:07:47Z</time>
      </trkpt>
      <trkpt lat="46.01113" lon="4.76056">
        <ele>208</ele>
        <time>2016-11-26T10:07:48Z</time>
      </trkpt>
      <trkpt lat="46.01121" lon="4.76055">
        <ele>208</ele>
        <time>2016-11-26T10:07:49Z</time>
      </trkpt>
      <trkpt lat="46.01128" lon="4.76054">
        <ele>208</ele>
        <time>2016-11-26T10:07:50Z</time>
      </trkpt>
      <trkpt lat="46.01135" lon="4.76053">
        <ele>208</ele>
        <time>2016-11-26T10:07:51Z</time>
      </trkpt>
      <trkpt lat="46.01142" lon="4.76052">
        <ele>208</ele>
        <time>2016-11-26T10:07:52Z</time>
      </trkpt>
      <trkpt lat="46.01149" lon="4.76051">
        <ele>208</ele>
        <time>2016-11-26T10:07:53Z</time>
      </trkpt>
      <trkpt lat="46.01156" lon="4.7605">
        <ele>208</ele>
        <time>2016-11-26T10:07:54Z</time>
      </trkpt>
      <trkpt lat="46.01163" lon="4.7605">
        <ele>208</ele>
        <time>2016-11-26T10:07:55Z</time>
      </trkpt>
      <trkpt lat="46.0117" lon="4.76052">
        <ele>207</ele>
        <time>2016-11-26T10:07:56Z</time>
      </trkpt>
      <trkpt lat="46.01176" lon="4.76054">
        <ele>207</ele>
        <time>2016-11-26T10:07:57Z</time>
      </trkpt>
      <trkpt lat="46.01183" lon="4.76058">
        <ele>207</ele>
        <time>2016-11-26T10:07:58Z</time>
      </trkpt>
      <trkpt lat="46.01189" lon="4.7606">
        <ele>206</ele>
        <time>2016-11-26T10:07:59Z</time>
      </trkpt>
      <trkpt lat="46.01196" lon="4.76063">
        <ele>206</ele>
        <time>2016-11-26T10:08:00Z</time>
      </trkpt>
      <trkpt lat="46.01201" lon="4.76065">
        <ele>206</ele>
        <time>2016-11-26T10:08:01Z</time>
      </trkpt>
      <trkpt lat="46.01207" lon="4.76069">
        <ele>206</ele>
        <time>2016-11-26T10:08:02Z</time>
      </trkpt>
      <trkpt lat="46.01213" lon="4.76072">
        <ele>206</ele>
        <time>2016-11-26T10:08:03Z</time>
      </trkpt>
      <trkpt lat="46.0122" lon="4.76073">
        <ele>206</ele>
        <time>2016-11-26T10:08:04Z</time>
      </trkpt>
      <trkpt lat="46.01226" lon="4.76074">
        <ele>205</ele>
        <time>2016-11-26T10:08:05Z</time>
      </trkpt>
      <trkpt lat="46.01233" lon="4.76075">
        <ele>205</ele>
        <time>2016-11-26T10:08:06Z</time>
      </trkpt>
      <trkpt lat="46.0124" lon="4.76075">
        <ele>205</ele>
        <time>2016-11-26T10:08:07Z</time>
      </trkpt>
      <trkpt lat="46.01247" lon="4.76075">
        <ele>205</ele>
        <time>2016-11-26T10:08:08Z</time>
      </trkpt>
      <trkpt lat="46.01254" lon="4.76075">
        <ele>204</ele>
        <time>2016-11-26T10:08:09Z</time>
      </trkpt>
      <trkpt lat="46.01261" lon="4.76074">
        <ele>204</ele>
        <time>2016-11-26T10:08:10Z</time>
      </trkpt>
      <trkpt lat="46.01268" lon="4.76073">
        <ele>204</ele>
        <time>2016-11-26T10:08:11Z</time>
      </trkpt>
      <trkpt lat="46.01276" lon="4.76072">
        <ele>204</ele>
        <time>2016-11-26T10:08:12Z</time>
      </trkpt>
      <trkpt lat="46.01283" lon="4.7607">
        <ele>204</ele>
        <time>2016-11-26T10:08:13Z</time>
      </trkpt>
      <trkpt lat="46.01291" lon="4.76068">
        <ele>204</ele>
        <time>2016-11-26T10:08:14Z</time>
      </trkpt>
      <trkpt lat="46.01298" lon="4.76064">
        <ele>203</ele>
        <time>2016-11-26T10:08:15Z</time>
      </trkpt>
      <trkpt lat="46.01305" lon="4.76062">
        <ele>203</ele>
        <time>2016-11-26T10:08:16Z</time>
      </trkpt>
      <trkpt lat="46.01312" lon="4.7606">
        <ele>203</ele>
        <time>2016-11-26T10:08:17Z</time>
      </trkpt>
      <trkpt lat="46.01318" lon="4.76059">
        <ele>203</ele>
        <time>2016-11-26T10:08:18Z</time>
      </trkpt>
      <trkpt lat="46.01325" lon="4.76057">
        <ele>203</ele>
        <time>2016-11-26T10:08:19Z</time>
      </trkpt>
      <trkpt lat="46.01331" lon="4.76056">
        <ele>203</ele>
        <time>2016-11-26T10:08:20Z</time>
      </trkpt>
      <trkpt lat="46.01337" lon="4.76054">
        <ele>203</ele>
        <time>2016-11-26T10:08:21Z</time>
      </trkpt>
      <trkpt lat="46.01344" lon="4.76052">
        <ele>203</ele>
        <time>2016-11-26T10:08:22Z</time>
      </trkpt>
      <trkpt lat="46.0135" lon="4.76051">
        <ele>203</ele>
        <time>2016-11-26T10:08:23Z</time>
      </trkpt>
      <trkpt lat="46.01356" lon="4.76048">
        <ele>203</ele>
        <time>2016-11-26T10:08:24Z</time>
      </trkpt>
      <trkpt lat="46.01362" lon="4.76046">
        <ele>203</ele>
        <time>2016-11-26T10:08:25Z</time>
      </trkpt>
      <trkpt lat="46.01367" lon="4.76045">
        <ele>203</ele>
        <time>2016-11-26T10:08:26Z</time>
      </trkpt>
      <trkpt lat="46.01373" lon="4.76043">
        <ele>203</ele>
        <time>2016-11-26T10:08:27Z</time>
      </trkpt>
      <trkpt lat="46.01379" lon="4.76042">
        <ele>203</ele>
        <time>2016-11-26T10:08:28Z</time>
      </trkpt>
      <trkpt lat="46.01384" lon="4.76041">
        <ele>203</ele>
        <time>2016-11-26T10:08:29Z</time>
      </trkpt>
      <trkpt lat="46.0139" lon="4.7604">
        <ele>203</ele>
        <time>2016-11-26T10:08:30Z</time>
      </trkpt>
      <trkpt lat="46.01395" lon="4.76041">
        <ele>203</ele>
        <time>2016-11-26T10:08:31Z</time>
      </trkpt>
      <trkpt lat="46.014" lon="4.76043">
        <ele>203</ele>
        <time>2016-11-26T10:08:32Z</time>
      </trkpt>
      <trkpt lat="46.01406" lon="4.76045">
        <ele>203</ele>
        <time>2016-11-26T10:08:33Z</time>
      </trkpt>
      <trkpt lat="46.01412" lon="4.76047">
        <ele>203</ele>
        <time>2016-11-26T10:08:34Z</time>
      </trkpt>
      <trkpt lat="46.01418" lon="4.76051">
        <ele>204</ele>
        <time>2016-11-26T10:08:35Z</time>
      </trkpt>
      <trkpt lat="46.01424" lon="4.76055">
        <ele>203</ele>
        <time>2016-11-26T10:08:36Z</time>
      </trkpt>
      <trkpt lat="46.01429" lon="4.76059">
        <ele>203</ele>
        <time>2016-11-26T10:08:37Z</time>
      </trkpt>
      <trkpt lat="46.01435" lon="4.76062">
        <ele>203</ele>
        <time>2016-11-26T10:08:38Z</time>
      </trkpt>
      <trkpt lat="46.0144" lon="4.76066">
        <ele>203</ele>
        <time>2016-11-26T10:08:39Z</time>
      </trkpt>
      <trkpt lat="46.01446" lon="4.76069">
        <ele>203</ele>
        <time>2016-11-26T10:08:40Z</time>
      </trkpt>
      <trkpt lat="46.01452" lon="4.7607">
        <ele>203</ele>
        <time>2016-11-26T10:08:41Z</time>
      </trkpt>
      <trkpt lat="46.01458" lon="4.76072">
        <ele>203</ele>
        <time>2016-11-26T10:08:42Z</time>
      </trkpt>
      <trkpt lat="46.01463" lon="4.76074">
        <ele>203</ele>
        <time>2016-11-26T10:08:43Z</time>
      </trkpt>
      <trkpt lat="46.01469" lon="4.76075">
        <ele>203</ele>
        <time>2016-11-26T10:08:44Z</time>
      </trkpt>
      <trkpt lat="46.01474" lon="4.76077">
        <ele>203</ele>
        <time>2016-11-26T10:08:45Z</time>
      </trkpt>
      <trkpt lat="46.0148" lon="4.76079">
        <ele>203</ele>
        <time>2016-11-26T10:08:46Z</time>
      </trkpt>
      <trkpt lat="46.01486" lon="4.7608">
        <ele>203</ele>
        <time>2016-11-26T10:08:47Z</time>
      </trkpt>
      <trkpt lat="46.01492" lon="4.76082">
        <ele>203</ele>
        <time>2016-11-26T10:08:48Z</time>
      </trkpt>
      <trkpt lat="46.01498" lon="4.76083">
        <ele>203</ele>
        <time>2016-11-26T10:08:49Z</time>
      </trkpt>
      <trkpt lat="46.01503" lon="4.76085">
        <ele>203</ele>
        <time>2016-11-26T10:08:50Z</time>
      </trkpt>
      <trkpt lat="46.01509" lon="4.76087">
        <ele>203</ele>
        <time>2016-11-26T10:08:51Z</time>
      </trkpt>
      <trkpt lat="46.01515" lon="4.76088">
        <ele>203</ele>
        <time>2016-11-26T10:08:52Z</time>
      </trkpt>
      <trkpt lat="46.0152" lon="4.7609">
        <ele>203</ele>
        <time>2016-11-26T10:08:53Z</time>
      </trkpt>
      <trkpt lat="46.01526" lon="4.76091">
        <ele>202</ele>
        <time>2016-11-26T10:08:54Z</time>
      </trkpt>
      <trkpt lat="46.01531" lon="4.76092">
        <ele>202</ele>
        <time>2016-11-26T10:08:55Z</time>
      </trkpt>
      <trkpt lat="46.01537" lon="4.76094">
        <ele>202</ele>
        <time>2016-11-26T10:08:56Z</time>
      </trkpt>
      <trkpt lat="46.01543" lon="4.76096">
        <ele>202</ele>
        <time>2016-11-26T10:08:57Z</time>
      </trkpt>
      <trkpt lat="46.01549" lon="4.76099">
        <ele>202</ele>
        <time>2016-11-26T10:08:58Z</time>
      </trkpt>
      <trkpt lat="46.01555" lon="4.76102">
        <ele>202</ele>
        <time>2016-11-26T10:08:59Z</time>
      </trkpt>
      <trkpt lat="46.01561" lon="4.76104">
        <ele>202</ele>
        <time>2016-11-26T10:09:00Z</time>
      </trkpt>
      <trkpt lat="46.01568" lon="4.76106">
        <ele>202</ele>
        <time>2016-11-26T10:09:01Z</time>
      </trkpt>
      <trkpt lat="46.01574" lon="4.76108">
        <ele>202</ele>
        <time>2016-11-26T10:09:02Z</time>
      </trkpt>
      <trkpt lat="46.0158" lon="4.76109">
        <ele>202</ele>
        <time>2016-11-26T10:09:03Z</time>
      </trkpt>
      <trkpt lat="46.01586" lon="4.7611">
        <ele>200</ele>
        <time>2016-11-26T10:09:04Z</time>
      </trkpt>
      <trkpt lat="46.01592" lon="4.76112">
        <ele>200</ele>
        <time>2016-11-26T10:09:05Z</time>
      </trkpt>
      <trkpt lat="46.01598" lon="4.76113">
        <ele>200</ele>
        <time>2016-11-26T10:09:06Z</time>
      </trkpt>
      <trkpt lat="46.01604" lon="4.76113">
        <ele>200</ele>
        <time>2016-11-26T10:09:07Z</time>
      </trkpt>
      <trkpt lat="46.01611" lon="4.76115">
        <ele>200</ele>
        <time>2016-11-26T10:09:08Z</time>
      </trkpt>
      <trkpt lat="46.01617" lon="4.76116">
        <ele>200</ele>
        <time>2016-11-26T10:09:09Z</time>
      </trkpt>
      <trkpt lat="46.01623" lon="4.76117">
        <ele>200</ele>
        <time>2016-11-26T10:09:10Z</time>
      </trkpt>
      <trkpt lat="46.01629" lon="4.76118">
        <ele>199</ele>
        <time>2016-11-26T10:09:11Z</time>
      </trkpt>
      <trkpt lat="46.01635" lon="4.76119">
        <ele>199</ele>
        <time>2016-11-26T10:09:12Z</time>
      </trkpt>
      <trkpt lat="46.01641" lon="4.7612">
        <ele>199</ele>
        <time>2016-11-26T10:09:13Z</time>
      </trkpt>
      <trkpt lat="46.01648" lon="4.76121">
        <ele>199</ele>
        <time>2016-11-26T10:09:14Z</time>
      </trkpt>
      <trkpt lat="46.01654" lon="4.76122">
        <ele>199</ele>
        <time>2016-11-26T10:09:15Z</time>
      </trkpt>
      <trkpt lat="46.0166" lon="4.76122">
        <ele>199</ele>
        <time>2016-11-26T10:09:16Z</time>
      </trkpt>
      <trkpt lat="46.01666" lon="4.76123">
        <ele>199</ele>
        <time>2016-11-26T10:09:17Z</time>
      </trkpt>
      <trkpt lat="46.01672" lon="4.76123">
        <ele>198</ele>
        <time>2016-11-26T10:09:18Z</time>
      </trkpt>
      <trkpt lat="46.01678" lon="4.76124">
        <ele>198</ele>
        <time>2016-11-26T10:09:19Z</time>
      </trkpt>
      <trkpt lat="46.01684" lon="4.76125">
        <ele>198</ele>
        <time>2016-11-26T10:09:20Z</time>
      </trkpt>
      <trkpt lat="46.01689" lon="4.76126">
        <ele>198</ele>
        <time>2016-11-26T10:09:21Z</time>
      </trkpt>
      <trkpt lat="46.01695" lon="4.76127">
        <ele>198</ele>
        <time>2016-11-26T10:09:22Z</time>
      </trkpt>
      <trkpt lat="46.01701" lon="4.76128">
        <ele>198</ele>
        <time>2016-11-26T10:09:23Z</time>
      </trkpt>
      <trkpt lat="46.01707" lon="4.76128">
        <ele>197</ele>
        <time>2016-11-26T10:09:24Z</time>
      </trkpt>
      <trkpt lat="46.01712" lon="4.76129">
        <ele>197</ele>
        <time>2016-11-26T10:09:25Z</time>
      </trkpt>
      <trkpt lat="46.01718" lon="4.76129">
        <ele>197</ele>
        <time>2016-11-26T10:09:26Z</time>
      </trkpt>
      <trkpt lat="46.01724" lon="4.7613">
        <ele>197</ele>
        <time>2016-11-26T10:09:27Z</time>
      </trkpt>
      <trkpt lat="46.01729" lon="4.7613">
        <ele>197</ele>
        <time>2016-11-26T10:09:28Z</time>
      </trkpt>
      <trkpt lat="46.01735" lon="4.7613">
        <ele>197</ele>
        <time>2016-11-26T10:09:29Z</time>
      </trkpt>
      <trkpt lat="46.0174" lon="4.76131">
        <ele>197</ele>
        <time>2016-11-26T10:09:30Z</time>
      </trkpt>
      <trkpt lat="46.01746" lon="4.76131">
        <ele>197</ele>
        <time>2016-11-26T10:09:31Z</time>
      </trkpt>
      <trkpt lat="46.01752" lon="4.76132">
        <ele>198</ele>
        <time>2016-11-26T10:09:32Z</time>
      </trkpt>
      <trkpt lat="46.01758" lon="4.76133">
        <ele>198</ele>
        <time>2016-11-26T10:09:33Z</time>
      </trkpt>
      <trkpt lat="46.01764" lon="4.76134">
        <ele>198</ele>
        <time>2016-11-26T10:09:34Z</time>
      </trkpt>
      <trkpt lat="46.01771" lon="4.76134">
        <ele>198</ele>
        <time>2016-11-26T10:09:35Z</time>
      </trkpt>
      <trkpt lat="46.01777" lon="4.76135">
        <ele>198</ele>
        <time>2016-11-26T10:09:36Z</time>
      </trkpt>
      <trkpt lat="46.01784" lon="4.76135">
        <ele>198</ele>
        <time>2016-11-26T10:09:37Z</time>
      </trkpt>
      <trkpt lat="46.0179" lon="4.76136">
        <ele>198</ele>
        <time>2016-11-26T10:09:38Z</time>
      </trkpt>
      <trkpt lat="46.01797" lon="4.76135">
        <ele>198</ele>
        <time>2016-11-26T10:09:39Z</time>
      </trkpt>
      <trkpt lat="46.01802" lon="4.76135">
        <ele>198</ele>
        <time>2016-11-26T10:09:40Z</time>
      </trkpt>
      <trkpt lat="46.01808" lon="4.76135">
        <ele>198</ele>
        <time>2016-11-26T10:09:41Z</time>
      </trkpt>
      <trkpt lat="46.01814" lon="4.76135">
        <ele>198</ele>
        <time>2016-11-26T10:09:42Z</time>
      </trkpt>
      <trkpt lat="46.01819" lon="4.76136">
        <ele>198</ele>
        <time>2016-11-26T10:09:43Z</time>
      </trkpt>
      <trkpt lat="46.01825" lon="4.76137">
        <ele>198</ele>
        <time>2016-11-26T10:09:44Z</time>
      </trkpt>
      <trkpt lat="46.0183" lon="4.76137">
        <ele>198</ele>
        <time>2016-11-26T10:09:45Z</time>
      </trkpt>
      <trkpt lat="46.01835" lon="4.76138">
        <ele>199</ele>
        <time>2016-11-26T10:09:46Z</time>
      </trkpt>
      <trkpt lat="46.0184" lon="4.76139">
        <ele>199</ele>
        <time>2016-11-26T10:09:47Z</time>
      </trkpt>
      <trkpt lat="46.01845" lon="4.76139">
        <ele>199</ele>
        <time>2016-11-26T10:09:48Z</time>
      </trkpt>
      <trkpt lat="46.0185" lon="4.76139">
        <ele>199</ele>
        <time>2016-11-26T10:09:49Z</time>
      </trkpt>
      <trkpt lat="46.01855" lon="4.76139">
        <ele>199</ele>
        <time>2016-11-26T10:09:50Z</time>
      </trkpt>
      <trkpt lat="46.01859" lon="4.76139">
        <ele>199</ele>
        <time>2016-11-26T10:09:51Z</time>
      </trkpt>
      <trkpt lat="46.01864" lon="4.76138">
        <ele>199</ele>
        <time>2016-11-26T10:09:52Z</time>
      </trkpt>
      <trkpt lat="46.01868" lon="4.76138">
        <ele>199</ele>
        <time>2016-11-26T10:09:53Z</time>
      </trkpt>
      <trkpt lat="46.01873" lon="4.76138">
        <ele>199</ele>
        <time>2016-11-26T10:09:54Z</time>
      </trkpt>
      <trkpt lat="46.01878" lon="4.76139">
        <ele>199</ele>
        <time>2016-11-26T10:09:55Z</time>
      </trkpt>
      <trkpt lat="46.01883" lon="4.76138">
        <ele>199</ele>
        <time>2016-11-26T10:09:56Z</time>
      </trkpt>
      <trkpt lat="46.01888" lon="4.76138">
        <ele>199</ele>
        <time>2016-11-26T10:09:57Z</time>
      </trkpt>
      <trkpt lat="46.01893" lon="4.76137">
        <ele>199</ele>
        <time>2016-11-26T10:09:58Z</time>
      </trkpt>
      <trkpt lat="46.01899" lon="4.76136">
        <ele>199</ele>
        <time>2016-11-26T10:09:59Z</time>
      </trkpt>
      <trkpt lat="46.01906" lon="4.76135">
        <ele>199</ele>
        <time>2016-11-26T10:10:00Z</time>
      </trkpt>
      <trkpt lat="46.01912" lon="4.76133">
        <ele>199</ele>
        <time>2016-11-26T10:10:01Z</time>
      </trkpt>
      <trkpt lat="46.01917" lon="4.76131">
        <ele>199</ele>
        <time>2016-11-26T10:10:02Z</time>
      </trkpt>
      <trkpt lat="46.01922" lon="4.76131">
        <ele>199</ele>
        <time>2016-11-26T10:10:03Z</time>
      </trkpt>
      <trkpt lat="46.01927" lon="4.76129">
        <ele>199</ele>
        <time>2016-11-26T10:10:04Z</time>
      </trkpt>
      <trkpt lat="46.01932" lon="4.76127">
        <ele>199</ele>
        <time>2016-11-26T10:10:05Z</time>
      </trkpt>
      <trkpt lat="46.01936" lon="4.76124">
        <ele>198</ele>
        <time>2016-11-26T10:10:06Z</time>
      </trkpt>
      <trkpt lat="46.01941" lon="4.76122">
        <ele>198</ele>
        <time>2016-11-26T10:10:07Z</time>
      </trkpt>
      <trkpt lat="46.01946" lon="4.76121">
        <ele>198</ele>
        <time>2016-11-26T10:10:08Z</time>
      </trkpt>
      <trkpt lat="46.0195" lon="4.7612">
        <ele>198</ele>
        <time>2016-11-26T10:10:09Z</time>
      </trkpt>
      <trkpt lat="46.01955" lon="4.76117">
        <ele>198</ele>
        <time>2016-11-26T10:10:10Z</time>
      </trkpt>
      <trkpt lat="46.0196" lon="4.76116">
        <ele>198</ele>
        <time>2016-11-26T10:10:11Z</time>
      </trkpt>
      <trkpt lat="46.01968" lon="4.76112">
        <ele>198</ele>
        <time>2016-11-26T10:10:13Z</time>
      </trkpt>
      <trkpt lat="46.01971" lon="4.76111">
        <ele>198</ele>
        <time>2016-11-26T10:10:14Z</time>
      </trkpt>
      <trkpt lat="46.01976" lon="4.76108">
        <ele>198</ele>
        <time>2016-11-26T10:10:16Z</time>
      </trkpt>
      <trkpt lat="46.01979" lon="4.76107">
        <ele>198</ele>
        <time>2016-11-26T10:10:17Z</time>
      </trkpt>
      <trkpt lat="46.01983" lon="4.76106">
        <ele>198</ele>
        <time>2016-11-26T10:10:18Z</time>
      </trkpt>
      <trkpt lat="46.01988" lon="4.76105">
        <ele>198</ele>
        <time>2016-11-26T10:10:19Z</time>
      </trkpt>
      <trkpt lat="46.01993" lon="4.76105">
        <ele>198</ele>
        <time>2016-11-26T10:10:20Z</time>
      </trkpt>
      <trkpt lat="46.01998" lon="4.76106">
        <ele>198</ele>
        <time>2016-11-26T10:10:21Z</time>
      </trkpt>
      <trkpt lat="46.02004" lon="4.76106">
        <ele>197</ele>
        <time>2016-11-26T10:10:22Z</time>
      </trkpt>
      <trkpt lat="46.02009" lon="4.76104">
        <ele>197</ele>
        <time>2016-11-26T10:10:23Z</time>
      </trkpt>
      <trkpt lat="46.02015" lon="4.76102">
        <ele>197</ele>
        <time>2016-11-26T10:10:24Z</time>
      </trkpt>
      <trkpt lat="46.02021" lon="4.76099">
        <ele>197</ele>
        <time>2016-11-26T10:10:25Z</time>
      </trkpt>
      <trkpt lat="46.02027" lon="4.76098">
        <ele>197</ele>
        <time>2016-11-26T10:10:26Z</time>
      </trkpt>
      <trkpt lat="46.02034" lon="4.76095">
        <ele>197</ele>
        <time>2016-11-26T10:10:27Z</time>
      </trkpt>
      <trkpt lat="46.02041" lon="4.76093">
        <ele>197</ele>
        <time>2016-11-26T10:10:28Z</time>
      </trkpt>
      <trkpt lat="46.02047" lon="4.76091">
        <ele>197</ele>
        <time>2016-11-26T10:10:29Z</time>
      </trkpt>
      <trkpt lat="46.02054" lon="4.76089">
        <ele>197</ele>
        <time>2016-11-26T10:10:30Z</time>
      </trkpt>
      <trkpt lat="46.0206" lon="4.76087">
        <ele>197</ele>
        <time>2016-11-26T10:10:31Z</time>
      </trkpt>
      <trkpt lat="46.02067" lon="4.76084">
        <ele>197</ele>
        <time>2016-11-26T10:10:32Z</time>
      </trkpt>
      <trkpt lat="46.02074" lon="4.76083">
        <ele>196</ele>
        <time>2016-11-26T10:10:33Z</time>
      </trkpt>
      <trkpt lat="46.02081" lon="4.7608">
        <ele>196</ele>
        <time>2016-11-26T10:10:34Z</time>
      </trkpt>
      <trkpt lat="46.02088" lon="4.76078">
        <ele>195</ele>
        <time>2016-11-26T10:10:35Z</time>
      </trkpt>
      <trkpt lat="46.02095" lon="4.76074">
        <ele>195</ele>
        <time>2016-11-26T10:10:36Z</time>
      </trkpt>
      <trkpt lat="46.02101" lon="4.76073">
        <ele>195</ele>
        <time>2016-11-26T10:10:37Z</time>
      </trkpt>
      <trkpt lat="46.02108" lon="4.76069">
        <ele>194</ele>
        <time>2016-11-26T10:10:38Z</time>
      </trkpt>
      <trkpt lat="46.02114" lon="4.76064">
        <ele>194</ele>
        <time>2016-11-26T10:10:39Z</time>
      </trkpt>
      <trkpt lat="46.0212" lon="4.76058">
        <ele>194</ele>
        <time>2016-11-26T10:10:40Z</time>
      </trkpt>
      <trkpt lat="46.02126" lon="4.76053">
        <ele>194</ele>
        <time>2016-11-26T10:10:41Z</time>
      </trkpt>
      <trkpt lat="46.02132" lon="4.76047">
        <ele>194</ele>
        <time>2016-11-26T10:10:42Z</time>
      </trkpt>
      <trkpt lat="46.02137" lon="4.76042">
        <ele>193</ele>
        <time>2016-11-26T10:10:43Z</time>
      </trkpt>
      <trkpt lat="46.02143" lon="4.76037">
        <ele>193</ele>
        <time>2016-11-26T10:10:44Z</time>
      </trkpt>
      <trkpt lat="46.02148" lon="4.76032">
        <ele>193</ele>
        <time>2016-11-26T10:10:45Z</time>
      </trkpt>
      <trkpt lat="46.02154" lon="4.76028">
        <ele>193</ele>
        <time>2016-11-26T10:10:46Z</time>
      </trkpt>
      <trkpt lat="46.02159" lon="4.76022">
        <ele>193</ele>
        <time>2016-11-26T10:10:47Z</time>
      </trkpt>
      <trkpt lat="46.02164" lon="4.76017">
        <ele>193</ele>
        <time>2016-11-26T10:10:48Z</time>
      </trkpt>
      <trkpt lat="46.02169" lon="4.76013">
        <ele>193</ele>
        <time>2016-11-26T10:10:49Z</time>
      </trkpt>
      <trkpt lat="46.02174" lon="4.76008">
        <ele>193</ele>
        <time>2016-11-26T10:10:50Z</time>
      </trkpt>
      <trkpt lat="46.0218" lon="4.76003">
        <ele>193</ele>
        <time>2016-11-26T10:10:51Z</time>
      </trkpt>
      <trkpt lat="46.02185" lon="4.75998">
        <ele>192</ele>
        <time>2016-11-26T10:10:52Z</time>
      </trkpt>
      <trkpt lat="46.02189" lon="4.75993">
        <ele>192</ele>
        <time>2016-11-26T10:10:53Z</time>
      </trkpt>
      <trkpt lat="46.02195" lon="4.75988">
        <ele>192</ele>
        <time>2016-11-26T10:10:54Z</time>
      </trkpt>
      <trkpt lat="46.022" lon="4.75983">
        <ele>192</ele>
        <time>2016-11-26T10:10:55Z</time>
      </trkpt>
      <trkpt lat="46.02205" lon="4.75978">
        <ele>192</ele>
        <time>2016-11-26T10:10:56Z</time>
      </trkpt>
      <trkpt lat="46.0221" lon="4.75973">
        <ele>193</ele>
        <time>2016-11-26T10:10:57Z</time>
      </trkpt>
      <trkpt lat="46.02216" lon="4.75968">
        <ele>193</ele>
        <time>2016-11-26T10:10:58Z</time>
      </trkpt>
      <trkpt lat="46.02222" lon="4.75963">
        <ele>193</ele>
        <time>2016-11-26T10:10:59Z</time>
      </trkpt>
      <trkpt lat="46.02228" lon="4.75958">
        <ele>193</ele>
        <time>2016-11-26T10:11:00Z</time>
      </trkpt>
      <trkpt lat="46.02234" lon="4.75954">
        <ele>193</ele>
        <time>2016-11-26T10:11:01Z</time>
      </trkpt>
      <trkpt lat="46.02239" lon="4.7595">
        <ele>193</ele>
        <time>2016-11-26T10:11:02Z</time>
      </trkpt>
      <trkpt lat="46.02244" lon="4.75945">
        <ele>193</ele>
        <time>2016-11-26T10:11:03Z</time>
      </trkpt>
      <trkpt lat="46.02248" lon="4.7594">
        <ele>193</ele>
        <time>2016-11-26T10:11:04Z</time>
      </trkpt>
      <trkpt lat="46.02253" lon="4.75936">
        <ele>193</ele>
        <time>2016-11-26T10:11:05Z</time>
      </trkpt>
      <trkpt lat="46.02258" lon="4.75932">
        <ele>193</ele>
        <time>2016-11-26T10:11:06Z</time>
      </trkpt>
      <trkpt lat="46.02263" lon="4.75928">
        <ele>193</ele>
        <time>2016-11-26T10:11:07Z</time>
      </trkpt>
      <trkpt lat="46.02268" lon="4.75924">
        <ele>193</ele>
        <time>2016-11-26T10:11:08Z</time>
      </trkpt>
      <trkpt lat="46.02273" lon="4.75919">
        <ele>193</ele>
        <time>2016-11-26T10:11:09Z</time>
      </trkpt>
      <trkpt lat="46.02278" lon="4.75915">
        <ele>193</ele>
        <time>2016-11-26T10:11:10Z</time>
      </trkpt>
      <trkpt lat="46.02283" lon="4.7591">
        <ele>193</ele>
        <time>2016-11-26T10:11:11Z</time>
      </trkpt>
      <trkpt lat="46.02288" lon="4.75906">
        <ele>193</ele>
        <time>2016-11-26T10:11:12Z</time>
      </trkpt>
      <trkpt lat="46.02293" lon="4.75901">
        <ele>193</ele>
        <time>2016-11-26T10:11:13Z</time>
      </trkpt>
      <trkpt lat="46.02298" lon="4.75897">
        <ele>193</ele>
        <time>2016-11-26T10:11:14Z</time>
      </trkpt>
      <trkpt lat="46.02303" lon="4.75892">
        <ele>193</ele>
        <time>2016-11-26T10:11:15Z</time>
      </trkpt>
      <trkpt lat="46.02308" lon="4.75888">
        <ele>193</ele>
        <time>2016-11-26T10:11:16Z</time>
      </trkpt>
      <trkpt lat="46.02313" lon="4.75884">
        <ele>193</ele>
        <time>2016-11-26T10:11:17Z</time>
      </trkpt>
      <trkpt lat="46.02318" lon="4.75879">
        <ele>193</ele>
        <time>2016-11-26T10:11:18Z</time>
      </trkpt>
      <trkpt lat="46.02323" lon="4.75874">
        <ele>193</ele>
        <time>2016-11-26T10:11:19Z</time>
      </trkpt>
      <trkpt lat="46.02328" lon="4.75869">
        <ele>193</ele>
        <time>2016-11-26T10:11:20Z</time>
      </trkpt>
      <trkpt lat="46.02333" lon="4.75864">
        <ele>193</ele>
        <time>2016-11-26T10:11:21Z</time>
      </trkpt>
      <trkpt lat="46.02339" lon="4.75859">
        <ele>193</ele>
        <time>2016-11-26T10:11:22Z</time>
      </trkpt>
      <trkpt lat="46.02343" lon="4.75855">
        <ele>193</ele>
        <time>2016-11-26T10:11:23Z</time>
      </trkpt>
      <trkpt lat="46.02348" lon="4.75851">
        <ele>193</ele>
        <time>2016-11-26T10:11:24Z</time>
      </trkpt>
      <trkpt lat="46.02352" lon="4.75847">
        <ele>193</ele>
        <time>2016-11-26T10:11:25Z</time>
      </trkpt>
      <trkpt lat="46.02357" lon="4.75844">
        <ele>193</ele>
        <time>2016-11-26T10:11:26Z</time>
      </trkpt>
      <trkpt lat="46.02361" lon="4.7584">
        <ele>193</ele>
        <time>2016-11-26T10:11:27Z</time>
      </trkpt>
      <trkpt lat="46.02366" lon="4.75837">
        <ele>193</ele>
        <time>2016-11-26T10:11:28Z</time>
      </trkpt>
      <trkpt lat="46.0237" lon="4.75833">
        <ele>192</ele>
        <time>2016-11-26T10:11:29Z</time>
      </trkpt>
      <trkpt lat="46.02374" lon="4.75829">
        <ele>192</ele>
        <time>2016-11-26T10:11:30Z</time>
      </trkpt>
      <trkpt lat="46.02379" lon="4.75826">
        <ele>192</ele>
        <time>2016-11-26T10:11:31Z</time>
      </trkpt>
      <trkpt lat="46.02383" lon="4.75823">
        <ele>192</ele>
        <time>2016-11-26T10:11:32Z</time>
      </trkpt>
      <trkpt lat="46.02387" lon="4.7582">
        <ele>192</ele>
        <time>2016-11-26T10:11:33Z</time>
      </trkpt>
      <trkpt lat="46.02391" lon="4.75817">
        <ele>192</ele>
        <time>2016-11-26T10:11:34Z</time>
      </trkpt>
      <trkpt lat="46.02395" lon="4.75813">
        <ele>192</ele>
        <time>2016-11-26T10:11:35Z</time>
      </trkpt>
      <trkpt lat="46.024" lon="4.7581">
        <ele>192</ele>
        <time>2016-11-26T10:11:36Z</time>
      </trkpt>
      <trkpt lat="46.02404" lon="4.75807">
        <ele>192</ele>
        <time>2016-11-26T10:11:37Z</time>
      </trkpt>
      <trkpt lat="46.02409" lon="4.75804">
        <ele>192</ele>
        <time>2016-11-26T10:11:38Z</time>
      </trkpt>
      <trkpt lat="46.02414" lon="4.758">
        <ele>192</ele>
        <time>2016-11-26T10:11:39Z</time>
      </trkpt>
      <trkpt lat="46.0242" lon="4.75797">
        <ele>192</ele>
        <time>2016-11-26T10:11:40Z</time>
      </trkpt>
      <trkpt lat="46.02425" lon="4.75794">
        <ele>192</ele>
        <time>2016-11-26T10:11:41Z</time>
      </trkpt>
      <trkpt lat="46.02431" lon="4.7579">
        <ele>191</ele>
        <time>2016-11-26T10:11:42Z</time>
      </trkpt>
      <trkpt lat="46.02437" lon="4.75786">
        <ele>191</ele>
        <time>2016-11-26T10:11:43Z</time>
      </trkpt>
      <trkpt lat="46.02442" lon="4.75783">
        <ele>191</ele>
        <time>2016-11-26T10:11:44Z</time>
      </trkpt>
      <trkpt lat="46.02447" lon="4.75781">
        <ele>191</ele>
        <time>2016-11-26T10:11:45Z</time>
      </trkpt>
      <trkpt lat="46.02453" lon="4.75778">
        <ele>191</ele>
        <time>2016-11-26T10:11:46Z</time>
      </trkpt>
      <trkpt lat="46.02459" lon="4.75775">
        <ele>191</ele>
        <time>2016-11-26T10:11:47Z</time>
      </trkpt>
      <trkpt lat="46.02465" lon="4.75773">
        <ele>191</ele>
        <time>2016-11-26T10:11:48Z</time>
      </trkpt>
      <trkpt lat="46.02471" lon="4.7577">
        <ele>191</ele>
        <time>2016-11-26T10:11:49Z</time>
      </trkpt>
      <trkpt lat="46.02477" lon="4.75767">
        <ele>191</ele>
        <time>2016-11-26T10:11:50Z</time>
      </trkpt>
      <trkpt lat="46.02483" lon="4.75765">
        <ele>191</ele>
        <time>2016-11-26T10:11:51Z</time>
      </trkpt>
      <trkpt lat="46.0249" lon="4.75763">
        <ele>190</ele>
        <time>2016-11-26T10:11:52Z</time>
      </trkpt>
      <trkpt lat="46.02496" lon="4.7576">
        <ele>190</ele>
        <time>2016-11-26T10:11:53Z</time>
      </trkpt>
      <trkpt lat="46.02503" lon="4.75757">
        <ele>189</ele>
        <time>2016-11-26T10:11:54Z</time>
      </trkpt>
      <trkpt lat="46.02511" lon="4.75754">
        <ele>188</ele>
        <time>2016-11-26T10:11:55Z</time>
      </trkpt>
      <trkpt lat="46.02519" lon="4.75751">
        <ele>188</ele>
        <time>2016-11-26T10:11:56Z</time>
      </trkpt>
      <trkpt lat="46.02527" lon="4.75749">
        <ele>187</ele>
        <time>2016-11-26T10:11:57Z</time>
      </trkpt>
      <trkpt lat="46.02535" lon="4.75747">
        <ele>187</ele>
        <time>2016-11-26T10:11:58Z</time>
      </trkpt>
      <trkpt lat="46.02544" lon="4.75745">
        <ele>186</ele>
        <time>2016-11-26T10:11:59Z</time>
      </trkpt>
      <trkpt lat="46.02552" lon="4.75744">
        <ele>186</ele>
        <time>2016-11-26T10:12:00Z</time>
      </trkpt>
      <trkpt lat="46.02561" lon="4.75744">
        <ele>185</ele>
        <time>2016-11-26T10:12:01Z</time>
      </trkpt>
      <trkpt lat="46.02571" lon="4.75744">
        <ele>185</ele>
        <time>2016-11-26T10:12:02Z</time>
      </trkpt>
      <trkpt lat="46.0258" lon="4.75745">
        <ele>184</ele>
        <time>2016-11-26T10:12:03Z</time>
      </trkpt>
      <trkpt lat="46.02589" lon="4.75745">
        <ele>183</ele>
        <time>2016-11-26T10:12:04Z</time>
      </trkpt>
      <trkpt lat="46.02599" lon="4.75745">
        <ele>183</ele>
        <time>2016-11-26T10:12:05Z</time>
      </trkpt>
      <trkpt lat="46.02609" lon="4.75745">
        <ele>182</ele>
        <time>2016-11-26T10:12:06Z</time>
      </trkpt>
      <trkpt lat="46.02619" lon="4.75746">
        <ele>182</ele>
        <time>2016-11-26T10:12:07Z</time>
      </trkpt>
      <trkpt lat="46.02629" lon="4.75747">
        <ele>182</ele>
        <time>2016-11-26T10:12:08Z</time>
      </trkpt>
      <trkpt lat="46.02639" lon="4.75747">
        <ele>182</ele>
        <time>2016-11-26T10:12:09Z</time>
      </trkpt>
      <trkpt lat="46.0265" lon="4.75748">
        <ele>182</ele>
        <time>2016-11-26T10:12:10Z</time>
      </trkpt>
      <trkpt lat="46.0266" lon="4.75747">
        <ele>181</ele>
        <time>2016-11-26T10:12:11Z</time>
      </trkpt>
      <trkpt lat="46.0267" lon="4.75746">
        <ele>181</ele>
        <time>2016-11-26T10:12:12Z</time>
      </trkpt>
      <trkpt lat="46.02681" lon="4.75745">
        <ele>181</ele>
        <time>2016-11-26T10:12:13Z</time>
      </trkpt>
      <trkpt lat="46.02691" lon="4.75742">
        <ele>182</ele>
        <time>2016-11-26T10:12:14Z</time>
      </trkpt>
      <trkpt lat="46.027" lon="4.75738">
        <ele>182</ele>
        <time>2016-11-26T10:12:15Z</time>
      </trkpt>
      <trkpt lat="46.02709" lon="4.75734">
        <ele>182</ele>
        <time>2016-11-26T10:12:16Z</time>
      </trkpt>
      <trkpt lat="46.02718" lon="4.7573">
        <ele>182</ele>
        <time>2016-11-26T10:12:17Z</time>
      </trkpt>
      <trkpt lat="46.02726" lon="4.75726">
        <ele>182</ele>
        <time>2016-11-26T10:12:18Z</time>
      </trkpt>
      <trkpt lat="46.02734" lon="4.75722">
        <ele>182</ele>
        <time>2016-11-26T10:12:19Z</time>
      </trkpt>
      <trkpt lat="46.02743" lon="4.75719">
        <ele>182</ele>
        <time>2016-11-26T10:12:20Z</time>
      </trkpt>
      <trkpt lat="46.02751" lon="4.75717">
        <ele>183</ele>
        <time>2016-11-26T10:12:21Z</time>
      </trkpt>
      <trkpt lat="46.0276" lon="4.75716">
        <ele>183</ele>
        <time>2016-11-26T10:12:22Z</time>
      </trkpt>
      <trkpt lat="46.02768" lon="4.75716">
        <ele>183</ele>
        <time>2016-11-26T10:12:23Z</time>
      </trkpt>
      <trkpt lat="46.02775" lon="4.75717">
        <ele>183</ele>
        <time>2016-11-26T10:12:24Z</time>
      </trkpt>
      <trkpt lat="46.02782" lon="4.75717">
        <ele>183</ele>
        <time>2016-11-26T10:12:25Z</time>
      </trkpt>
      <trkpt lat="46.02789" lon="4.75718">
        <ele>183</ele>
        <time>2016-11-26T10:12:26Z</time>
      </trkpt>
      <trkpt lat="46.02794" lon="4.7572">
        <ele>183</ele>
        <time>2016-11-26T10:12:27Z</time>
      </trkpt>
      <trkpt lat="46.028" lon="4.75721">
        <ele>183</ele>
        <time>2016-11-26T10:12:28Z</time>
      </trkpt>
      <trkpt lat="46.02806" lon="4.75721">
        <ele>183</ele>
        <time>2016-11-26T10:12:29Z</time>
      </trkpt>
      <trkpt lat="46.02812" lon="4.75723">
        <ele>184</ele>
        <time>2016-11-26T10:12:30Z</time>
      </trkpt>
      <trkpt lat="46.02817" lon="4.75724">
        <ele>184</ele>
        <time>2016-11-26T10:12:31Z</time>
      </trkpt>
      <trkpt lat="46.02823" lon="4.75726">
        <ele>184</ele>
        <time>2016-11-26T10:12:32Z</time>
      </trkpt>
      <trkpt lat="46.02829" lon="4.75727">
        <ele>184</ele>
        <time>2016-11-26T10:12:33Z</time>
      </trkpt>
      <trkpt lat="46.02834" lon="4.75728">
        <ele>184</ele>
        <time>2016-11-26T10:12:34Z</time>
      </trkpt>
      <trkpt lat="46.0284" lon="4.75728">
        <ele>184</ele>
        <time>2016-11-26T10:12:35Z</time>
      </trkpt>
      <trkpt lat="46.02846" lon="4.75729">
        <ele>184</ele>
        <time>2016-11-26T10:12:36Z</time>
      </trkpt>
      <trkpt lat="46.02852" lon="4.75729">
        <ele>184</ele>
        <time>2016-11-26T10:12:37Z</time>
      </trkpt>
      <trkpt lat="46.02858" lon="4.7573">
        <ele>184</ele>
        <time>2016-11-26T10:12:38Z</time>
      </trkpt>
      <trkpt lat="46.02863" lon="4.75731">
        <ele>184</ele>
        <time>2016-11-26T10:12:39Z</time>
      </trkpt>
      <trkpt lat="46.02869" lon="4.75731">
        <ele>184</ele>
        <time>2016-11-26T10:12:40Z</time>
      </trkpt>
      <trkpt lat="46.02873" lon="4.75731">
        <ele>183</ele>
        <time>2016-11-26T10:12:41Z</time>
      </trkpt>
      <trkpt lat="46.02878" lon="4.75731">
        <ele>183</ele>
        <time>2016-11-26T10:12:42Z</time>
      </trkpt>
      <trkpt lat="46.02883" lon="4.75731">
        <ele>183</ele>
        <time>2016-11-26T10:12:43Z</time>
      </trkpt>
      <trkpt lat="46.02888" lon="4.7573">
        <ele>183</ele>
        <time>2016-11-26T10:12:44Z</time>
      </trkpt>
      <trkpt lat="46.02893" lon="4.7573">
        <ele>183</ele>
        <time>2016-11-26T10:12:45Z</time>
      </trkpt>
      <trkpt lat="46.02902" lon="4.7573">
        <ele>183</ele>
        <time>2016-11-26T10:12:47Z</time>
      </trkpt>
      <trkpt lat="46.02907" lon="4.7573">
        <ele>183</ele>
        <time>2016-11-26T10:12:48Z</time>
      </trkpt>
      <trkpt lat="46.02912" lon="4.75729">
        <ele>183</ele>
        <time>2016-11-26T10:12:49Z</time>
      </trkpt>
      <trkpt lat="46.02917" lon="4.75728">
        <ele>183</ele>
        <time>2016-11-26T10:12:50Z</time>
      </trkpt>
      <trkpt lat="46.02922" lon="4.75726">
        <ele>183</ele>
        <time>2016-11-26T10:12:51Z</time>
      </trkpt>
      <trkpt lat="46.02927" lon="4.75725">
        <ele>183</ele>
        <time>2016-11-26T10:12:52Z</time>
      </trkpt>
      <trkpt lat="46.02933" lon="4.75724">
        <ele>183</ele>
        <time>2016-11-26T10:12:53Z</time>
      </trkpt>
      <trkpt lat="46.02938" lon="4.75723">
        <ele>183</ele>
        <time>2016-11-26T10:12:54Z</time>
      </trkpt>
      <trkpt lat="46.02943" lon="4.75722">
        <ele>183</ele>
        <time>2016-11-26T10:12:55Z</time>
      </trkpt>
      <trkpt lat="46.02949" lon="4.7572">
        <ele>183</ele>
        <time>2016-11-26T10:12:56Z</time>
      </trkpt>
      <trkpt lat="46.02954" lon="4.75719">
        <ele>183</ele>
        <time>2016-11-26T10:12:57Z</time>
      </trkpt>
      <trkpt lat="46.02958" lon="4.75718">
        <ele>183</ele>
        <time>2016-11-26T10:12:58Z</time>
      </trkpt>
      <trkpt lat="46.02963" lon="4.75717">
        <ele>183</ele>
        <time>2016-11-26T10:12:59Z</time>
      </trkpt>
      <trkpt lat="46.02967" lon="4.75716">
        <ele>183</ele>
        <time>2016-11-26T10:13:00Z</time>
      </trkpt>
      <trkpt lat="46.02976" lon="4.75714">
        <ele>183</ele>
        <time>2016-11-26T10:13:02Z</time>
      </trkpt>
      <trkpt lat="46.02981" lon="4.75713">
        <ele>183</ele>
        <time>2016-11-26T10:13:03Z</time>
      </trkpt>
      <trkpt lat="46.02985" lon="4.75711">
        <ele>183</ele>
        <time>2016-11-26T10:13:04Z</time>
      </trkpt>
      <trkpt lat="46.0299" lon="4.75709">
        <ele>183</ele>
        <time>2016-11-26T10:13:05Z</time>
      </trkpt>
      <trkpt lat="46.02994" lon="4.75708">
        <ele>183</ele>
        <time>2016-11-26T10:13:06Z</time>
      </trkpt>
      <trkpt lat="46.02999" lon="4.75706">
        <ele>183</ele>
        <time>2016-11-26T10:13:07Z</time>
      </trkpt>
      <trkpt lat="46.03003" lon="4.75704">
        <ele>184</ele>
        <time>2016-11-26T10:13:08Z</time>
      </trkpt>
      <trkpt lat="46.03008" lon="4.75702">
        <ele>184</ele>
        <time>2016-11-26T10:13:09Z</time>
      </trkpt>
      <trkpt lat="46.03012" lon="4.75701">
        <ele>183</ele>
        <time>2016-11-26T10:13:10Z</time>
      </trkpt>
      <trkpt lat="46.03017" lon="4.75699">
        <ele>183</ele>
        <time>2016-11-26T10:13:11Z</time>
      </trkpt>
      <trkpt lat="46.03021" lon="4.75698">
        <ele>184</ele>
        <time>2016-11-26T10:13:12Z</time>
      </trkpt>
      <trkpt lat="46.03026" lon="4.75697">
        <ele>184</ele>
        <time>2016-11-26T10:13:13Z</time>
      </trkpt>
      <trkpt lat="46.0303" lon="4.75696">
        <ele>184</ele>
        <time>2016-11-26T10:13:14Z</time>
      </trkpt>
      <trkpt lat="46.03035" lon="4.75694">
        <ele>184</ele>
        <time>2016-11-26T10:13:15Z</time>
      </trkpt>
      <trkpt lat="46.03043" lon="4.75691">
        <ele>184</ele>
        <time>2016-11-26T10:13:17Z</time>
      </trkpt>
      <trkpt lat="46.03048" lon="4.7569">
        <ele>184</ele>
        <time>2016-11-26T10:13:18Z</time>
      </trkpt>
      <trkpt lat="46.03053" lon="4.75689">
        <ele>184</ele>
        <time>2016-11-26T10:13:19Z</time>
      </trkpt>
      <trkpt lat="46.03058" lon="4.75688">
        <ele>184</ele>
        <time>2016-11-26T10:13:20Z</time>
      </trkpt>
      <trkpt lat="46.03062" lon="4.75687">
        <ele>184</ele>
        <time>2016-11-26T10:13:21Z</time>
      </trkpt>
      <trkpt lat="46.03067" lon="4.75686">
        <ele>184</ele>
        <time>2016-11-26T10:13:22Z</time>
      </trkpt>
      <trkpt lat="46.03076" lon="4.75685">
        <ele>184</ele>
        <time>2016-11-26T10:13:24Z</time>
      </trkpt>
      <trkpt lat="46.0308" lon="4.75685">
        <ele>184</ele>
        <time>2016-11-26T10:13:25Z</time>
      </trkpt>
      <trkpt lat="46.03084" lon="4.75685">
        <ele>185</ele>
        <time>2016-11-26T10:13:26Z</time>
      </trkpt>
      <trkpt lat="46.03089" lon="4.75684">
        <ele>185</ele>
        <time>2016-11-26T10:13:27Z</time>
      </trkpt>
      <trkpt lat="46.03094" lon="4.75683">
        <ele>185</ele>
        <time>2016-11-26T10:13:28Z</time>
      </trkpt>
      <trkpt lat="46.03099" lon="4.75682">
        <ele>186</ele>
        <time>2016-11-26T10:13:29Z</time>
      </trkpt>
      <trkpt lat="46.03104" lon="4.75682">
        <ele>186</ele>
        <time>2016-11-26T10:13:30Z</time>
      </trkpt>
      <trkpt lat="46.03108" lon="4.75681">
        <ele>186</ele>
        <time>2016-11-26T10:13:31Z</time>
      </trkpt>
      <trkpt lat="46.03113" lon="4.7568">
        <ele>186</ele>
        <time>2016-11-26T10:13:32Z</time>
      </trkpt>
      <trkpt lat="46.03118" lon="4.75679">
        <ele>186</ele>
        <time>2016-11-26T10:13:33Z</time>
      </trkpt>
      <trkpt lat="46.03123" lon="4.75677">
        <ele>186</ele>
        <time>2016-11-26T10:13:34Z</time>
      </trkpt>
      <trkpt lat="46.03128" lon="4.75676">
        <ele>187</ele>
        <time>2016-11-26T10:13:35Z</time>
      </trkpt>
      <trkpt lat="46.03132" lon="4.75676">
        <ele>187</ele>
        <time>2016-11-26T10:13:36Z</time>
      </trkpt>
      <trkpt lat="46.03138" lon="4.75676">
        <ele>187</ele>
        <time>2016-11-26T10:13:37Z</time>
      </trkpt>
      <trkpt lat="46.03143" lon="4.75676">
        <ele>187</ele>
        <time>2016-11-26T10:13:38Z</time>
      </trkpt>
      <trkpt lat="46.03148" lon="4.75675">
        <ele>187</ele>
        <time>2016-11-26T10:13:39Z</time>
      </trkpt>
      <trkpt lat="46.03153" lon="4.75674">
        <ele>187</ele>
        <time>2016-11-26T10:13:40Z</time>
      </trkpt>
      <trkpt lat="46.03157" lon="4.75674">
        <ele>188</ele>
        <time>2016-11-26T10:13:41Z</time>
      </trkpt>
      <trkpt lat="46.03162" lon="4.75674">
        <ele>188</ele>
        <time>2016-11-26T10:13:42Z</time>
      </trkpt>
      <trkpt lat="46.03168" lon="4.75674">
        <ele>189</ele>
        <time>2016-11-26T10:13:43Z</time>
      </trkpt>
      <trkpt lat="46.03172" lon="4.75674">
        <ele>190</ele>
        <time>2016-11-26T10:13:44Z</time>
      </trkpt>
      <trkpt lat="46.03177" lon="4.75674">
        <ele>190</ele>
        <time>2016-11-26T10:13:45Z</time>
      </trkpt>
      <trkpt lat="46.03181" lon="4.75674">
        <ele>191</ele>
        <time>2016-11-26T10:13:46Z</time>
      </trkpt>
      <trkpt lat="46.03186" lon="4.75674">
        <ele>191</ele>
        <time>2016-11-26T10:13:47Z</time>
      </trkpt>
      <trkpt lat="46.03191" lon="4.75672">
        <ele>191</ele>
        <time>2016-11-26T10:13:48Z</time>
      </trkpt>
      <trkpt lat="46.03195" lon="4.75672">
        <ele>192</ele>
        <time>2016-11-26T10:13:49Z</time>
      </trkpt>
      <trkpt lat="46.03204" lon="4.75671">
        <ele>192</ele>
        <time>2016-11-26T10:13:51Z</time>
      </trkpt>
      <trkpt lat="46.03208" lon="4.75671">
        <ele>193</ele>
        <time>2016-11-26T10:13:52Z</time>
      </trkpt>
      <trkpt lat="46.03217" lon="4.75672">
        <ele>193</ele>
        <time>2016-11-26T10:13:54Z</time>
      </trkpt>
      <trkpt lat="46.03221" lon="4.75671">
        <ele>194</ele>
        <time>2016-11-26T10:13:55Z</time>
      </trkpt>
      <trkpt lat="46.03225" lon="4.7567">
        <ele>194</ele>
        <time>2016-11-26T10:13:56Z</time>
      </trkpt>
      <trkpt lat="46.0323" lon="4.75669">
        <ele>194</ele>
        <time>2016-11-26T10:13:57Z</time>
      </trkpt>
      <trkpt lat="46.03234" lon="4.75669">
        <ele>194</ele>
        <time>2016-11-26T10:13:58Z</time>
      </trkpt>
      <trkpt lat="46.03239" lon="4.75668">
        <ele>194</ele>
        <time>2016-11-26T10:13:59Z</time>
      </trkpt>
      <trkpt lat="46.03244" lon="4.75667">
        <ele>195</ele>
        <time>2016-11-26T10:14:00Z</time>
      </trkpt>
      <trkpt lat="46.03249" lon="4.75666">
        <ele>195</ele>
        <time>2016-11-26T10:14:01Z</time>
      </trkpt>
      <trkpt lat="46.03254" lon="4.75666">
        <ele>194</ele>
        <time>2016-11-26T10:14:02Z</time>
      </trkpt>
      <trkpt lat="46.03258" lon="4.75665">
        <ele>193</ele>
        <time>2016-11-26T10:14:03Z</time>
      </trkpt>
      <trkpt lat="46.03267" lon="4.75663">
        <ele>192</ele>
        <time>2016-11-26T10:14:05Z</time>
      </trkpt>
      <trkpt lat="46.03271" lon="4.75661">
        <ele>192</ele>
        <time>2016-11-26T10:14:06Z</time>
      </trkpt>
      <trkpt lat="46.03276" lon="4.75659">
        <ele>191</ele>
        <time>2016-11-26T10:14:07Z</time>
      </trkpt>
      <trkpt lat="46.0328" lon="4.75656">
        <ele>191</ele>
        <time>2016-11-26T10:14:08Z</time>
      </trkpt>
      <trkpt lat="46.03287" lon="4.7565">
        <ele>190</ele>
        <time>2016-11-26T10:14:10Z</time>
      </trkpt>
      <trkpt lat="46.03291" lon="4.75647">
        <ele>190</ele>
        <time>2016-11-26T10:14:11Z</time>
      </trkpt>
      <trkpt lat="46.03296" lon="4.75645">
        <ele>190</ele>
        <time>2016-11-26T10:14:12Z</time>
      </trkpt>
      <trkpt lat="46.03301" lon="4.75643">
        <ele>189</ele>
        <time>2016-11-26T10:14:13Z</time>
      </trkpt>
      <trkpt lat="46.03306" lon="4.75644">
        <ele>189</ele>
        <time>2016-11-26T10:14:14Z</time>
      </trkpt>
      <trkpt lat="46.03311" lon="4.75644">
        <ele>189</ele>
        <time>2016-11-26T10:14:15Z</time>
      </trkpt>
      <trkpt lat="46.03316" lon="4.75646">
        <ele>189</ele>
        <time>2016-11-26T10:14:16Z</time>
      </trkpt>
      <trkpt lat="46.03321" lon="4.75646">
        <ele>189</ele>
        <time>2016-11-26T10:14:17Z</time>
      </trkpt>
      <trkpt lat="46.03326" lon="4.75646">
        <ele>189</ele>
        <time>2016-11-26T10:14:18Z</time>
      </trkpt>
      <trkpt lat="46.03331" lon="4.75647">
        <ele>189</ele>
        <time>2016-11-26T10:14:19Z</time>
      </trkpt>
      <trkpt lat="46.03336" lon="4.75646">
        <ele>188</ele>
        <time>2016-11-26T10:14:20Z</time>
      </trkpt>
      <trkpt lat="46.03341" lon="4.75646">
        <ele>188</ele>
        <time>2016-11-26T10:14:21Z</time>
      </trkpt>
      <trkpt lat="46.03346" lon="4.75645">
        <ele>188</ele>
        <time>2016-11-26T10:14:22Z</time>
      </trkpt>
      <trkpt lat="46.03351" lon="4.75644">
        <ele>188</ele>
        <time>2016-11-26T10:14:23Z</time>
      </trkpt>
      <trkpt lat="46.03356" lon="4.75643">
        <ele>188</ele>
        <time>2016-11-26T10:14:24Z</time>
      </trkpt>
      <trkpt lat="46.03361" lon="4.75642">
        <ele>188</ele>
        <time>2016-11-26T10:14:25Z</time>
      </trkpt>
      <trkpt lat="46.03367" lon="4.75641">
        <ele>188</ele>
        <time>2016-11-26T10:14:26Z</time>
      </trkpt>
      <trkpt lat="46.03372" lon="4.7564">
        <ele>188</ele>
        <time>2016-11-26T10:14:27Z</time>
      </trkpt>
      <trkpt lat="46.03377" lon="4.75639">
        <ele>188</ele>
        <time>2016-11-26T10:14:28Z</time>
      </trkpt>
      <trkpt lat="46.03384" lon="4.75638">
        <ele>188</ele>
        <time>2016-11-26T10:14:29Z</time>
      </trkpt>
      <trkpt lat="46.03389" lon="4.75637">
        <ele>188</ele>
        <time>2016-11-26T10:14:30Z</time>
      </trkpt>
      <trkpt lat="46.03394" lon="4.75636">
        <ele>188</ele>
        <time>2016-11-26T10:14:31Z</time>
      </trkpt>
      <trkpt lat="46.03399" lon="4.75636">
        <ele>188</ele>
        <time>2016-11-26T10:14:32Z</time>
      </trkpt>
      <trkpt lat="46.03404" lon="4.75635">
        <ele>188</ele>
        <time>2016-11-26T10:14:33Z</time>
      </trkpt>
      <trkpt lat="46.03409" lon="4.75635">
        <ele>188</ele>
        <time>2016-11-26T10:14:34Z</time>
      </trkpt>
      <trkpt lat="46.03414" lon="4.75634">
        <ele>188</ele>
        <time>2016-11-26T10:14:35Z</time>
      </trkpt>
      <trkpt lat="46.0342" lon="4.75633">
        <ele>188</ele>
        <time>2016-11-26T10:14:36Z</time>
      </trkpt>
      <trkpt lat="46.03424" lon="4.75632">
        <ele>188</ele>
        <time>2016-11-26T10:14:37Z</time>
      </trkpt>
      <trkpt lat="46.03429" lon="4.75632">
        <ele>188</ele>
        <time>2016-11-26T10:14:38Z</time>
      </trkpt>
      <trkpt lat="46.03434" lon="4.75633">
        <ele>188</ele>
        <time>2016-11-26T10:14:39Z</time>
      </trkpt>
      <trkpt lat="46.03437" lon="4.75637">
        <ele>188</ele>
        <time>2016-11-26T10:14:40Z</time>
      </trkpt>
      <trkpt lat="46.0344" lon="4.75642">
        <ele>188</ele>
        <time>2016-11-26T10:14:41Z</time>
      </trkpt>
      <trkpt lat="46.03443" lon="4.75647">
        <ele>188</ele>
        <time>2016-11-26T10:14:42Z</time>
      </trkpt>
      <trkpt lat="46.03446" lon="4.75653">
        <ele>188</ele>
        <time>2016-11-26T10:14:43Z</time>
      </trkpt>
      <trkpt lat="46.03449" lon="4.75658">
        <ele>188</ele>
        <time>2016-11-26T10:14:44Z</time>
      </trkpt>
      <trkpt lat="46.03451" lon="4.75664">
        <ele>188</ele>
        <time>2016-11-26T10:14:45Z</time>
      </trkpt>
      <trkpt lat="46.03454" lon="4.75669">
        <ele>189</ele>
        <time>2016-11-26T10:14:46Z</time>
      </trkpt>
      <trkpt lat="46.03456" lon="4.75675">
        <ele>189</ele>
        <time>2016-11-26T10:14:47Z</time>
      </trkpt>
      <trkpt lat="46.03459" lon="4.7568">
        <ele>189</ele>
        <time>2016-11-26T10:14:48Z</time>
      </trkpt>
      <trkpt lat="46.03461" lon="4.75686">
        <ele>189</ele>
        <time>2016-11-26T10:14:49Z</time>
      </trkpt>
      <trkpt lat="46.03464" lon="4.75692">
        <ele>189</ele>
        <time>2016-11-26T10:14:50Z</time>
      </trkpt>
      <trkpt lat="46.03466" lon="4.75698">
        <ele>189</ele>
        <time>2016-11-26T10:14:51Z</time>
      </trkpt>
      <trkpt lat="46.03468" lon="4.75704">
        <ele>189</ele>
        <time>2016-11-26T10:14:52Z</time>
      </trkpt>
      <trkpt lat="46.0347" lon="4.7571">
        <ele>189</ele>
        <time>2016-11-26T10:14:53Z</time>
      </trkpt>
      <trkpt lat="46.03473" lon="4.75716">
        <ele>189</ele>
        <time>2016-11-26T10:14:54Z</time>
      </trkpt>
      <trkpt lat="46.03475" lon="4.75722">
        <ele>189</ele>
        <time>2016-11-26T10:14:55Z</time>
      </trkpt>
      <trkpt lat="46.03478" lon="4.75728">
        <ele>189</ele>
        <time>2016-11-26T10:14:56Z</time>
      </trkpt>
      <trkpt lat="46.0348" lon="4.75734">
        <ele>189</ele>
        <time>2016-11-26T10:14:57Z</time>
      </trkpt>
      <trkpt lat="46.03482" lon="4.75739">
        <ele>189</ele>
        <time>2016-11-26T10:14:58Z</time>
      </trkpt>
      <trkpt lat="46.03485" lon="4.75745">
        <ele>189</ele>
        <time>2016-11-26T10:14:59Z</time>
      </trkpt>
      <trkpt lat="46.03488" lon="4.7575">
        <ele>189</ele>
        <time>2016-11-26T10:15:00Z</time>
      </trkpt>
      <trkpt lat="46.0349" lon="4.75756">
        <ele>189</ele>
        <time>2016-11-26T10:15:01Z</time>
      </trkpt>
      <trkpt lat="46.03495" lon="4.75766">
        <ele>189</ele>
        <time>2016-11-26T10:15:03Z</time>
      </trkpt>
      <trkpt lat="46.03497" lon="4.75772">
        <ele>189</ele>
        <time>2016-11-26T10:15:04Z</time>
      </trkpt>
      <trkpt lat="46.03499" lon="4.75779">
        <ele>190</ele>
        <time>2016-11-26T10:15:05Z</time>
      </trkpt>
      <trkpt lat="46.03502" lon="4.75785">
        <ele>189</ele>
        <time>2016-11-26T10:15:06Z</time>
      </trkpt>
      <trkpt lat="46.03504" lon="4.75791">
        <ele>189</ele>
        <time>2016-11-26T10:15:07Z</time>
      </trkpt>
      <trkpt lat="46.03507" lon="4.75797">
        <ele>189</ele>
        <time>2016-11-26T10:15:08Z</time>
      </trkpt>
      <trkpt lat="46.03509" lon="4.75804">
        <ele>189</ele>
        <time>2016-11-26T10:15:09Z</time>
      </trkpt>
      <trkpt lat="46.03512" lon="4.7581">
        <ele>189</ele>
        <time>2016-11-26T10:15:10Z</time>
      </trkpt>
      <trkpt lat="46.03515" lon="4.75816">
        <ele>190</ele>
        <time>2016-11-26T10:15:11Z</time>
      </trkpt>
      <trkpt lat="46.03517" lon="4.75821">
        <ele>190</ele>
        <time>2016-11-26T10:15:12Z</time>
      </trkpt>
      <trkpt lat="46.0352" lon="4.75827">
        <ele>190</ele>
        <time>2016-11-26T10:15:13Z</time>
      </trkpt>
      <trkpt lat="46.03522" lon="4.75833">
        <ele>190</ele>
        <time>2016-11-26T10:15:14Z</time>
      </trkpt>
      <trkpt lat="46.03525" lon="4.75839">
        <ele>190</ele>
        <time>2016-11-26T10:15:15Z</time>
      </trkpt>
      <trkpt lat="46.03527" lon="4.75844">
        <ele>190</ele>
        <time>2016-11-26T10:15:16Z</time>
      </trkpt>
      <trkpt lat="46.0353" lon="4.7585">
        <ele>190</ele>
        <time>2016-11-26T10:15:17Z</time>
      </trkpt>
      <trkpt lat="46.03533" lon="4.75856">
        <ele>190</ele>
        <time>2016-11-26T10:15:18Z</time>
      </trkpt>
      <trkpt lat="46.03536" lon="4.75861">
        <ele>190</ele>
        <time>2016-11-26T10:15:19Z</time>
      </trkpt>
      <trkpt lat="46.03539" lon="4.75867">
        <ele>190</ele>
        <time>2016-11-26T10:15:20Z</time>
      </trkpt>
      <trkpt lat="46.03541" lon="4.75873">
        <ele>190</ele>
        <time>2016-11-26T10:15:21Z</time>
      </trkpt>
      <trkpt lat="46.03544" lon="4.75879">
        <ele>189</ele>
        <time>2016-11-26T10:15:22Z</time>
      </trkpt>
      <trkpt lat="46.03546" lon="4.75884">
        <ele>189</ele>
        <time>2016-11-26T10:15:23Z</time>
      </trkpt>
      <trkpt lat="46.03549" lon="4.7589">
        <ele>189</ele>
        <time>2016-11-26T10:15:24Z</time>
      </trkpt>
      <trkpt lat="46.03551" lon="4.75895">
        <ele>189</ele>
        <time>2016-11-26T10:15:25Z</time>
      </trkpt>
      <trkpt lat="46.03554" lon="4.75901">
        <ele>189</ele>
        <time>2016-11-26T10:15:26Z</time>
      </trkpt>
      <trkpt lat="46.03557" lon="4.75907">
        <ele>189</ele>
        <time>2016-11-26T10:15:27Z</time>
      </trkpt>
      <trkpt lat="46.0356" lon="4.75913">
        <ele>189</ele>
        <time>2016-11-26T10:15:28Z</time>
      </trkpt>
      <trkpt lat="46.03562" lon="4.7592">
        <ele>190</ele>
        <time>2016-11-26T10:15:29Z</time>
      </trkpt>
      <trkpt lat="46.03565" lon="4.75926">
        <ele>190</ele>
        <time>2016-11-26T10:15:30Z</time>
      </trkpt>
      <trkpt lat="46.03568" lon="4.75932">
        <ele>190</ele>
        <time>2016-11-26T10:15:31Z</time>
      </trkpt>
      <trkpt lat="46.03571" lon="4.75938">
        <ele>190</ele>
        <time>2016-11-26T10:15:32Z</time>
      </trkpt>
      <trkpt lat="46.03574" lon="4.75944">
        <ele>190</ele>
        <time>2016-11-26T10:15:33Z</time>
      </trkpt>
      <trkpt lat="46.03577" lon="4.7595">
        <ele>190</ele>
        <time>2016-11-26T10:15:34Z</time>
      </trkpt>
      <trkpt lat="46.0358" lon="4.75957">
        <ele>190</ele>
        <time>2016-11-26T10:15:35Z</time>
      </trkpt>
      <trkpt lat="46.03583" lon="4.75963">
        <ele>190</ele>
        <time>2016-11-26T10:15:36Z</time>
      </trkpt>
      <trkpt lat="46.03585" lon="4.75969">
        <ele>190</ele>
        <time>2016-11-26T10:15:37Z</time>
      </trkpt>
      <trkpt lat="46.03588" lon="4.75975">
        <ele>190</ele>
        <time>2016-11-26T10:15:38Z</time>
      </trkpt>
      <trkpt lat="46.0359" lon="4.75981">
        <ele>190</ele>
        <time>2016-11-26T10:15:39Z</time>
      </trkpt>
      <trkpt lat="46.03593" lon="4.75988">
        <ele>190</ele>
        <time>2016-11-26T10:15:40Z</time>
      </trkpt>
      <trkpt lat="46.03596" lon="4.75994">
        <ele>190</ele>
        <time>2016-11-26T10:15:41Z</time>
      </trkpt>
      <trkpt lat="46.03599" lon="4.76">
        <ele>190</ele>
        <time>2016-11-26T10:15:42Z</time>
      </trkpt>
      <trkpt lat="46.03602" lon="4.76007">
        <ele>191</ele>
        <time>2016-11-26T10:15:43Z</time>
      </trkpt>
      <trkpt lat="46.03604" lon="4.76013">
        <ele>191</ele>
        <time>2016-11-26T10:15:44Z</time>
      </trkpt>
      <trkpt lat="46.03606" lon="4.7602">
        <ele>191</ele>
        <time>2016-11-26T10:15:45Z</time>
      </trkpt>
      <trkpt lat="46.03608" lon="4.76027">
        <ele>191</ele>
        <time>2016-11-26T10:15:46Z</time>
      </trkpt>
      <trkpt lat="46.0361" lon="4.76035">
        <ele>191</ele>
        <time>2016-11-26T10:15:47Z</time>
      </trkpt>
      <trkpt lat="46.03612" lon="4.76042">
        <ele>191</ele>
        <time>2016-11-26T10:15:48Z</time>
      </trkpt>
      <trkpt lat="46.03614" lon="4.76049">
        <ele>191</ele>
        <time>2016-11-26T10:15:49Z</time>
      </trkpt>
      <trkpt lat="46.03615" lon="4.76056">
        <ele>191</ele>
        <time>2016-11-26T10:15:50Z</time>
      </trkpt>
      <trkpt lat="46.03617" lon="4.76063">
        <ele>191</ele>
        <time>2016-11-26T10:15:51Z</time>
      </trkpt>
      <trkpt lat="46.03619" lon="4.7607">
        <ele>191</ele>
        <time>2016-11-26T10:15:52Z</time>
      </trkpt>
      <trkpt lat="46.0362" lon="4.76076">
        <ele>191</ele>
        <time>2016-11-26T10:15:53Z</time>
      </trkpt>
      <trkpt lat="46.03621" lon="4.76083">
        <ele>191</ele>
        <time>2016-11-26T10:15:54Z</time>
      </trkpt>
      <trkpt lat="46.03622" lon="4.7609">
        <ele>192</ele>
        <time>2016-11-26T10:15:55Z</time>
      </trkpt>
      <trkpt lat="46.03623" lon="4.76097">
        <ele>192</ele>
        <time>2016-11-26T10:15:56Z</time>
      </trkpt>
      <trkpt lat="46.03624" lon="4.76103">
        <ele>192</ele>
        <time>2016-11-26T10:15:57Z</time>
      </trkpt>
      <trkpt lat="46.03624" lon="4.76111">
        <ele>192</ele>
        <time>2016-11-26T10:15:58Z</time>
      </trkpt>
      <trkpt lat="46.03625" lon="4.76117">
        <ele>192</ele>
        <time>2016-11-26T10:15:59Z</time>
      </trkpt>
      <trkpt lat="46.03626" lon="4.76124">
        <ele>192</ele>
        <time>2016-11-26T10:16:00Z</time>
      </trkpt>
      <trkpt lat="46.03626" lon="4.76131">
        <ele>192</ele>
        <time>2016-11-26T10:16:01Z</time>
      </trkpt>
      <trkpt lat="46.03627" lon="4.76137">
        <ele>192</ele>
        <time>2016-11-26T10:16:02Z</time>
      </trkpt>
      <trkpt lat="46.03628" lon="4.76144">
        <ele>192</ele>
        <time>2016-11-26T10:16:03Z</time>
      </trkpt>
      <trkpt lat="46.03627" lon="4.76151">
        <ele>192</ele>
        <time>2016-11-26T10:16:04Z</time>
      </trkpt>
      <trkpt lat="46.03627" lon="4.76158">
        <ele>192</ele>
        <time>2016-11-26T10:16:05Z</time>
      </trkpt>
      <trkpt lat="46.03626" lon="4.76165">
        <ele>192</ele>
        <time>2016-11-26T10:16:06Z</time>
      </trkpt>
      <trkpt lat="46.03625" lon="4.76172">
        <ele>192</ele>
        <time>2016-11-26T10:16:07Z</time>
      </trkpt>
      <trkpt lat="46.03625" lon="4.76179">
        <ele>193</ele>
        <time>2016-11-26T10:16:08Z</time>
      </trkpt>
      <trkpt lat="46.03624" lon="4.76186">
        <ele>193</ele>
        <time>2016-11-26T10:16:09Z</time>
      </trkpt>
      <trkpt lat="46.03623" lon="4.76193">
        <ele>193</ele>
        <time>2016-11-26T10:16:10Z</time>
      </trkpt>
      <trkpt lat="46.03623" lon="4.762">
        <ele>193</ele>
        <time>2016-11-26T10:16:11Z</time>
      </trkpt>
      <trkpt lat="46.03622" lon="4.76207">
        <ele>193</ele>
        <time>2016-11-26T10:16:12Z</time>
      </trkpt>
      <trkpt lat="46.03621" lon="4.76213">
        <ele>193</ele>
        <time>2016-11-26T10:16:13Z</time>
      </trkpt>
      <trkpt lat="46.03621" lon="4.7622">
        <ele>193</ele>
        <time>2016-11-26T10:16:14Z</time>
      </trkpt>
      <trkpt lat="46.0362" lon="4.76226">
        <ele>193</ele>
        <time>2016-11-26T10:16:15Z</time>
      </trkpt>
      <trkpt lat="46.03619" lon="4.76233">
        <ele>193</ele>
        <time>2016-11-26T10:16:16Z</time>
      </trkpt>
      <trkpt lat="46.03618" lon="4.76241">
        <ele>193</ele>
        <time>2016-11-26T10:16:17Z</time>
      </trkpt>
      <trkpt lat="46.03617" lon="4.76248">
        <ele>193</ele>
        <time>2016-11-26T10:16:18Z</time>
      </trkpt>
      <trkpt lat="46.03615" lon="4.76255">
        <ele>194</ele>
        <time>2016-11-26T10:16:19Z</time>
      </trkpt>
      <trkpt lat="46.03614" lon="4.76262">
        <ele>194</ele>
        <time>2016-11-26T10:16:20Z</time>
      </trkpt>
      <trkpt lat="46.03613" lon="4.76269">
        <ele>194</ele>
        <time>2016-11-26T10:16:21Z</time>
      </trkpt>
      <trkpt lat="46.03613" lon="4.76276">
        <ele>194</ele>
        <time>2016-11-26T10:16:22Z</time>
      </trkpt>
      <trkpt lat="46.03612" lon="4.76283">
        <ele>194</ele>
        <time>2016-11-26T10:16:23Z</time>
      </trkpt>
      <trkpt lat="46.03612" lon="4.7629">
        <ele>194</ele>
        <time>2016-11-26T10:16:24Z</time>
      </trkpt>
      <trkpt lat="46.03611" lon="4.76297">
        <ele>195</ele>
        <time>2016-11-26T10:16:25Z</time>
      </trkpt>
      <trkpt lat="46.0361" lon="4.76304">
        <ele>195</ele>
        <time>2016-11-26T10:16:26Z</time>
      </trkpt>
      <trkpt lat="46.0361" lon="4.76311">
        <ele>195</ele>
        <time>2016-11-26T10:16:27Z</time>
      </trkpt>
      <trkpt lat="46.03609" lon="4.76318">
        <ele>195</ele>
        <time>2016-11-26T10:16:28Z</time>
      </trkpt>
      <trkpt lat="46.03608" lon="4.76324">
        <ele>195</ele>
        <time>2016-11-26T10:16:29Z</time>
      </trkpt>
      <trkpt lat="46.03607" lon="4.76331">
        <ele>195</ele>
        <time>2016-11-26T10:16:30Z</time>
      </trkpt>
      <trkpt lat="46.03606" lon="4.76337">
        <ele>196</ele>
        <time>2016-11-26T10:16:31Z</time>
      </trkpt>
      <trkpt lat="46.03605" lon="4.76344">
        <ele>196</ele>
        <time>2016-11-26T10:16:32Z</time>
      </trkpt>
      <trkpt lat="46.03602" lon="4.76356">
        <ele>196</ele>
        <time>2016-11-26T10:16:34Z</time>
      </trkpt>
      <trkpt lat="46.03601" lon="4.76363">
        <ele>196</ele>
        <time>2016-11-26T10:16:35Z</time>
      </trkpt>
      <trkpt lat="46.036" lon="4.76375">
        <ele>197</ele>
        <time>2016-11-26T10:16:37Z</time>
      </trkpt>
      <trkpt lat="46.03599" lon="4.76382">
        <ele>197</ele>
        <time>2016-11-26T10:16:38Z</time>
      </trkpt>
      <trkpt lat="46.03599" lon="4.76388">
        <ele>197</ele>
        <time>2016-11-26T10:16:39Z</time>
      </trkpt>
      <trkpt lat="46.03598" lon="4.76395">
        <ele>197</ele>
        <time>2016-11-26T10:16:40Z</time>
      </trkpt>
      <trkpt lat="46.03597" lon="4.76402">
        <ele>198</ele>
        <time>2016-11-26T10:16:41Z</time>
      </trkpt>
      <trkpt lat="46.03597" lon="4.76409">
        <ele>198</ele>
        <time>2016-11-26T10:16:42Z</time>
      </trkpt>
      <trkpt lat="46.03596" lon="4.76416">
        <ele>198</ele>
        <time>2016-11-26T10:16:43Z</time>
      </trkpt>
      <trkpt lat="46.03595" lon="4.76423">
        <ele>199</ele>
        <time>2016-11-26T10:16:44Z</time>
      </trkpt>
      <trkpt lat="46.03594" lon="4.7643">
        <ele>199</ele>
        <time>2016-11-26T10:16:45Z</time>
      </trkpt>
      <trkpt lat="46.03594" lon="4.76436">
        <ele>199</ele>
        <time>2016-11-26T10:16:46Z</time>
      </trkpt>
      <trkpt lat="46.03593" lon="4.76448">
        <ele>199</ele>
        <time>2016-11-26T10:16:48Z</time>
      </trkpt>
      <trkpt lat="46.03593" lon="4.76453">
        <ele>199</ele>
        <time>2016-11-26T10:16:49Z</time>
      </trkpt>
      <trkpt lat="46.03595" lon="4.76464">
        <ele>199</ele>
        <time>2016-11-26T10:16:51Z</time>
      </trkpt>
      <trkpt lat="46.03598" lon="4.76469">
        <ele>199</ele>
        <time>2016-11-26T10:16:52Z</time>
      </trkpt>
      <trkpt lat="46.03603" lon="4.76479">
        <ele>199</ele>
        <time>2016-11-26T10:16:54Z</time>
      </trkpt>
      <trkpt lat="46.03607" lon="4.76482">
        <ele>199</ele>
        <time>2016-11-26T10:16:55Z</time>
      </trkpt>
      <trkpt lat="46.03613" lon="4.76491">
        <ele>199</ele>
        <time>2016-11-26T10:16:57Z</time>
      </trkpt>
      <trkpt lat="46.03617" lon="4.76495">
        <ele>199</ele>
        <time>2016-11-26T10:16:58Z</time>
      </trkpt>
      <trkpt lat="46.03619" lon="4.765">
        <ele>200</ele>
        <time>2016-11-26T10:16:59Z</time>
      </trkpt>
      <trkpt lat="46.03621" lon="4.76506">
        <ele>200</ele>
        <time>2016-11-26T10:17:00Z</time>
      </trkpt>
      <trkpt lat="46.03624" lon="4.76512">
        <ele>200</ele>
        <time>2016-11-26T10:17:01Z</time>
      </trkpt>
      <trkpt lat="46.03626" lon="4.76518">
        <ele>200</ele>
        <time>2016-11-26T10:17:02Z</time>
      </trkpt>
      <trkpt lat="46.0363" lon="4.76529">
        <ele>200</ele>
        <time>2016-11-26T10:17:04Z</time>
      </trkpt>
      <trkpt lat="46.03632" lon="4.76534">
        <ele>200</ele>
        <time>2016-11-26T10:17:05Z</time>
      </trkpt>
      <trkpt lat="46.03633" lon="4.76541">
        <ele>200</ele>
        <time>2016-11-26T10:17:06Z</time>
      </trkpt>
      <trkpt lat="46.03634" lon="4.76547">
        <ele>200</ele>
        <time>2016-11-26T10:17:07Z</time>
      </trkpt>
      <trkpt lat="46.03639" lon="4.76558">
        <ele>201</ele>
        <time>2016-11-26T10:17:09Z</time>
      </trkpt>
      <trkpt lat="46.03641" lon="4.76563">
        <ele>201</ele>
        <time>2016-11-26T10:17:10Z</time>
      </trkpt>
      <trkpt lat="46.03646" lon="4.76573">
        <ele>201</ele>
        <time>2016-11-26T10:17:12Z</time>
      </trkpt>
      <trkpt lat="46.03649" lon="4.76578">
        <ele>201</ele>
        <time>2016-11-26T10:17:13Z</time>
      </trkpt>
      <trkpt lat="46.03656" lon="4.76586">
        <ele>202</ele>
        <time>2016-11-26T10:17:15Z</time>
      </trkpt>
      <trkpt lat="46.0366" lon="4.76589">
        <ele>202</ele>
        <time>2016-11-26T10:17:16Z</time>
      </trkpt>
      <trkpt lat="46.03667" lon="4.76597">
        <ele>202</ele>
        <time>2016-11-26T10:17:18Z</time>
      </trkpt>
      <trkpt lat="46.03669" lon="4.76601">
        <ele>203</ele>
        <time>2016-11-26T10:17:19Z</time>
      </trkpt>
      <trkpt lat="46.03673" lon="4.76612">
        <ele>203</ele>
        <time>2016-11-26T10:17:21Z</time>
      </trkpt>
      <trkpt lat="46.03674" lon="4.76617">
        <ele>203</ele>
        <time>2016-11-26T10:17:22Z</time>
      </trkpt>
      <trkpt lat="46.03676" lon="4.76628">
        <ele>203</ele>
        <time>2016-11-26T10:17:24Z</time>
      </trkpt>
      <trkpt lat="46.03676" lon="4.76634">
        <ele>203</ele>
        <time>2016-11-26T10:17:25Z</time>
      </trkpt>
      <trkpt lat="46.03678" lon="4.76645">
        <ele>204</ele>
        <time>2016-11-26T10:17:27Z</time>
      </trkpt>
      <trkpt lat="46.03679" lon="4.7665">
        <ele>204</ele>
        <time>2016-11-26T10:17:28Z</time>
      </trkpt>
      <trkpt lat="46.03683" lon="4.76661">
        <ele>204</ele>
        <time>2016-11-26T10:17:30Z</time>
      </trkpt>
      <trkpt lat="46.03686" lon="4.76666">
        <ele>204</ele>
        <time>2016-11-26T10:17:31Z</time>
      </trkpt>
      <trkpt lat="46.03689" lon="4.7667">
        <ele>205</ele>
        <time>2016-11-26T10:17:32Z</time>
      </trkpt>
      <trkpt lat="46.03693" lon="4.76674">
        <ele>205</ele>
        <time>2016-11-26T10:17:33Z</time>
      </trkpt>
      <trkpt lat="46.03697" lon="4.76678">
        <ele>205</ele>
        <time>2016-11-26T10:17:34Z</time>
      </trkpt>
      <trkpt lat="46.03701" lon="4.76681">
        <ele>205</ele>
        <time>2016-11-26T10:17:35Z</time>
      </trkpt>
      <trkpt lat="46.03708" lon="4.76687">
        <ele>205</ele>
        <time>2016-11-26T10:17:37Z</time>
      </trkpt>
      <trkpt lat="46.03712" lon="4.7669">
        <ele>205</ele>
        <time>2016-11-26T10:17:38Z</time>
      </trkpt>
      <trkpt lat="46.03719" lon="4.76696">
        <ele>205</ele>
        <time>2016-11-26T10:17:40Z</time>
      </trkpt>
      <trkpt lat="46.03723" lon="4.76698">
        <ele>205</ele>
        <time>2016-11-26T10:17:41Z</time>
      </trkpt>
      <trkpt lat="46.03731" lon="4.76701">
        <ele>205</ele>
        <time>2016-11-26T10:17:43Z</time>
      </trkpt>
      <trkpt lat="46.03735" lon="4.76702">
        <ele>205</ele>
        <time>2016-11-26T10:17:44Z</time>
      </trkpt>
      <trkpt lat="46.03743" lon="4.76703">
        <ele>205</ele>
        <time>2016-11-26T10:17:46Z</time>
      </trkpt>
      <trkpt lat="46.03747" lon="4.76704">
        <ele>205</ele>
        <time>2016-11-26T10:17:47Z</time>
      </trkpt>
      <trkpt lat="46.03753" lon="4.76707">
        <ele>205</ele>
        <time>2016-11-26T10:17:49Z</time>
      </trkpt>
      <trkpt lat="46.03757" lon="4.76709">
        <ele>205</ele>
        <time>2016-11-26T10:17:50Z</time>
      </trkpt>
      <trkpt lat="46.03765" lon="4.76712">
        <ele>205</ele>
        <time>2016-11-26T10:17:52Z</time>
      </trkpt>
      <trkpt lat="46.03769" lon="4.76713">
        <ele>205</ele>
        <time>2016-11-26T10:17:53Z</time>
      </trkpt>
      <trkpt lat="46.03774" lon="4.76713">
        <ele>205</ele>
        <time>2016-11-26T10:17:54Z</time>
      </trkpt>
      <trkpt lat="46.03779" lon="4.76714">
        <ele>205</ele>
        <time>2016-11-26T10:17:55Z</time>
      </trkpt>
      <trkpt lat="46.03783" lon="4.76713">
        <ele>205</ele>
        <time>2016-11-26T10:17:56Z</time>
      </trkpt>
      <trkpt lat="46.03788" lon="4.76713">
        <ele>205</ele>
        <time>2016-11-26T10:17:57Z</time>
      </trkpt>
      <trkpt lat="46.03793" lon="4.76712">
        <ele>205</ele>
        <time>2016-11-26T10:17:58Z</time>
      </trkpt>
      <trkpt lat="46.03797" lon="4.76712">
        <ele>205</ele>
        <time>2016-11-26T10:17:59Z</time>
      </trkpt>
      <trkpt lat="46.03806" lon="4.76712">
        <ele>205</ele>
        <time>2016-11-26T10:18:01Z</time>
      </trkpt>
      <trkpt lat="46.0381" lon="4.76712">
        <ele>205</ele>
        <time>2016-11-26T10:18:02Z</time>
      </trkpt>
      <trkpt lat="46.03818" lon="4.76711">
        <ele>205</ele>
        <time>2016-11-26T10:18:04Z</time>
      </trkpt>
      <trkpt lat="46.03822" lon="4.76711">
        <ele>205</ele>
        <time>2016-11-26T10:18:05Z</time>
      </trkpt>
      <trkpt lat="46.03827" lon="4.7671">
        <ele>205</ele>
        <time>2016-11-26T10:18:06Z</time>
      </trkpt>
      <trkpt lat="46.03832" lon="4.7671">
        <ele>205</ele>
        <time>2016-11-26T10:18:07Z</time>
      </trkpt>
      <trkpt lat="46.03836" lon="4.7671">
        <ele>205</ele>
        <time>2016-11-26T10:18:08Z</time>
      </trkpt>
      <trkpt lat="46.03841" lon="4.76709">
        <ele>205</ele>
        <time>2016-11-26T10:18:09Z</time>
      </trkpt>
      <trkpt lat="46.03845" lon="4.76708">
        <ele>205</ele>
        <time>2016-11-26T10:18:10Z</time>
      </trkpt>
      <trkpt lat="46.0385" lon="4.76707">
        <ele>205</ele>
        <time>2016-11-26T10:18:11Z</time>
      </trkpt>
      <trkpt lat="46.03854" lon="4.76706">
        <ele>205</ele>
        <time>2016-11-26T10:18:12Z</time>
      </trkpt>
      <trkpt lat="46.03859" lon="4.76704">
        <ele>205</ele>
        <time>2016-11-26T10:18:13Z</time>
      </trkpt>
      <trkpt lat="46.03864" lon="4.76703">
        <ele>205</ele>
        <time>2016-11-26T10:18:14Z</time>
      </trkpt>
      <trkpt lat="46.03868" lon="4.76701">
        <ele>205</ele>
        <time>2016-11-26T10:18:15Z</time>
      </trkpt>
      <trkpt lat="46.03873" lon="4.76699">
        <ele>205</ele>
        <time>2016-11-26T10:18:16Z</time>
      </trkpt>
      <trkpt lat="46.03878" lon="4.76698">
        <ele>205</ele>
        <time>2016-11-26T10:18:17Z</time>
      </trkpt>
      <trkpt lat="46.03882" lon="4.76697">
        <ele>205</ele>
        <time>2016-11-26T10:18:18Z</time>
      </trkpt>
      <trkpt lat="46.03887" lon="4.76696">
        <ele>205</ele>
        <time>2016-11-26T10:18:19Z</time>
      </trkpt>
      <trkpt lat="46.03895" lon="4.76693">
        <ele>205</ele>
        <time>2016-11-26T10:18:21Z</time>
      </trkpt>
      <trkpt lat="46.039" lon="4.76692">
        <ele>205</ele>
        <time>2016-11-26T10:18:22Z</time>
      </trkpt>
      <trkpt lat="46.03905" lon="4.7669">
        <ele>205</ele>
        <time>2016-11-26T10:18:23Z</time>
      </trkpt>
      <trkpt lat="46.03909" lon="4.76689">
        <ele>205</ele>
        <time>2016-11-26T10:18:24Z</time>
      </trkpt>
      <trkpt lat="46.03915" lon="4.76688">
        <ele>205</ele>
        <time>2016-11-26T10:18:25Z</time>
      </trkpt>
      <trkpt lat="46.03921" lon="4.76688">
        <ele>204</ele>
        <time>2016-11-26T10:18:26Z</time>
      </trkpt>
      <trkpt lat="46.03926" lon="4.76686">
        <ele>204</ele>
        <time>2016-11-26T10:18:27Z</time>
      </trkpt>
      <trkpt lat="46.03931" lon="4.76685">
        <ele>204</ele>
        <time>2016-11-26T10:18:28Z</time>
      </trkpt>
      <trkpt lat="46.03936" lon="4.76684">
        <ele>204</ele>
        <time>2016-11-26T10:18:29Z</time>
      </trkpt>
      <trkpt lat="46.03941" lon="4.76683">
        <ele>204</ele>
        <time>2016-11-26T10:18:30Z</time>
      </trkpt>
      <trkpt lat="46.03946" lon="4.76682">
        <ele>204</ele>
        <time>2016-11-26T10:18:31Z</time>
      </trkpt>
      <trkpt lat="46.03951" lon="4.7668">
        <ele>204</ele>
        <time>2016-11-26T10:18:32Z</time>
      </trkpt>
      <trkpt lat="46.03956" lon="4.76679">
        <ele>204</ele>
        <time>2016-11-26T10:18:33Z</time>
      </trkpt>
      <trkpt lat="46.0396" lon="4.76677">
        <ele>203</ele>
        <time>2016-11-26T10:18:34Z</time>
      </trkpt>
      <trkpt lat="46.03966" lon="4.76676">
        <ele>203</ele>
        <time>2016-11-26T10:18:35Z</time>
      </trkpt>
      <trkpt lat="46.03971" lon="4.76674">
        <ele>203</ele>
        <time>2016-11-26T10:18:36Z</time>
      </trkpt>
      <trkpt lat="46.03976" lon="4.76673">
        <ele>203</ele>
        <time>2016-11-26T10:18:37Z</time>
      </trkpt>
      <trkpt lat="46.03982" lon="4.76671">
        <ele>203</ele>
        <time>2016-11-26T10:18:38Z</time>
      </trkpt>
      <trkpt lat="46.03987" lon="4.7667">
        <ele>203</ele>
        <time>2016-11-26T10:18:39Z</time>
      </trkpt>
      <trkpt lat="46.03992" lon="4.76669">
        <ele>202</ele>
        <time>2016-11-26T10:18:40Z</time>
      </trkpt>
      <trkpt lat="46.03998" lon="4.76669">
        <ele>202</ele>
        <time>2016-11-26T10:18:41Z</time>
      </trkpt>
      <trkpt lat="46.04003" lon="4.76668">
        <ele>202</ele>
        <time>2016-11-26T10:18:42Z</time>
      </trkpt>
      <trkpt lat="46.04009" lon="4.76667">
        <ele>202</ele>
        <time>2016-11-26T10:18:43Z</time>
      </trkpt>
      <trkpt lat="46.04014" lon="4.76666">
        <ele>202</ele>
        <time>2016-11-26T10:18:44Z</time>
      </trkpt>
      <trkpt lat="46.0402" lon="4.76665">
        <ele>201</ele>
        <time>2016-11-26T10:18:45Z</time>
      </trkpt>
      <trkpt lat="46.04027" lon="4.76665">
        <ele>201</ele>
        <time>2016-11-26T10:18:46Z</time>
      </trkpt>
      <trkpt lat="46.04033" lon="4.76664">
        <ele>201</ele>
        <time>2016-11-26T10:18:47Z</time>
      </trkpt>
      <trkpt lat="46.04039" lon="4.76662">
        <ele>201</ele>
        <time>2016-11-26T10:18:48Z</time>
      </trkpt>
      <trkpt lat="46.04046" lon="4.76661">
        <ele>201</ele>
        <time>2016-11-26T10:18:49Z</time>
      </trkpt>
      <trkpt lat="46.04052" lon="4.7666">
        <ele>201</ele>
        <time>2016-11-26T10:18:50Z</time>
      </trkpt>
      <trkpt lat="46.04058" lon="4.76658">
        <ele>201</ele>
        <time>2016-11-26T10:18:51Z</time>
      </trkpt>
      <trkpt lat="46.04064" lon="4.76656">
        <ele>201</ele>
        <time>2016-11-26T10:18:52Z</time>
      </trkpt>
      <trkpt lat="46.0407" lon="4.76655">
        <ele>201</ele>
        <time>2016-11-26T10:18:53Z</time>
      </trkpt>
      <trkpt lat="46.04076" lon="4.76655">
        <ele>201</ele>
        <time>2016-11-26T10:18:54Z</time>
      </trkpt>
      <trkpt lat="46.04082" lon="4.76654">
        <ele>201</ele>
        <time>2016-11-26T10:18:55Z</time>
      </trkpt>
      <trkpt lat="46.04088" lon="4.76654">
        <ele>201</ele>
        <time>2016-11-26T10:18:56Z</time>
      </trkpt>
      <trkpt lat="46.04095" lon="4.76653">
        <ele>201</ele>
        <time>2016-11-26T10:18:57Z</time>
      </trkpt>
      <trkpt lat="46.04101" lon="4.76652">
        <ele>201</ele>
        <time>2016-11-26T10:18:58Z</time>
      </trkpt>
      <trkpt lat="46.04108" lon="4.76651">
        <ele>200</ele>
        <time>2016-11-26T10:18:59Z</time>
      </trkpt>
      <trkpt lat="46.04114" lon="4.76649">
        <ele>200</ele>
        <time>2016-11-26T10:19:00Z</time>
      </trkpt>
      <trkpt lat="46.04121" lon="4.76647">
        <ele>200</ele>
        <time>2016-11-26T10:19:01Z</time>
      </trkpt>
      <trkpt lat="46.04127" lon="4.76645">
        <ele>200</ele>
        <time>2016-11-26T10:19:02Z</time>
      </trkpt>
      <trkpt lat="46.04134" lon="4.76643">
        <ele>200</ele>
        <time>2016-11-26T10:19:03Z</time>
      </trkpt>
      <trkpt lat="46.0414" lon="4.7664">
        <ele>200</ele>
        <time>2016-11-26T10:19:04Z</time>
      </trkpt>
      <trkpt lat="46.04146" lon="4.76636">
        <ele>200</ele>
        <time>2016-11-26T10:19:05Z</time>
      </trkpt>
      <trkpt lat="46.04151" lon="4.76632">
        <ele>200</ele>
        <time>2016-11-26T10:19:06Z</time>
      </trkpt>
      <trkpt lat="46.04156" lon="4.76627">
        <ele>200</ele>
        <time>2016-11-26T10:19:07Z</time>
      </trkpt>
      <trkpt lat="46.04163" lon="4.76623">
        <ele>199</ele>
        <time>2016-11-26T10:19:08Z</time>
      </trkpt>
      <trkpt lat="46.04168" lon="4.76618">
        <ele>198</ele>
        <time>2016-11-26T10:19:09Z</time>
      </trkpt>
      <trkpt lat="46.04174" lon="4.76613">
        <ele>198</ele>
        <time>2016-11-26T10:19:10Z</time>
      </trkpt>
      <trkpt lat="46.04179" lon="4.76608">
        <ele>198</ele>
        <time>2016-11-26T10:19:11Z</time>
      </trkpt>
      <trkpt lat="46.04185" lon="4.76604">
        <ele>198</ele>
        <time>2016-11-26T10:19:12Z</time>
      </trkpt>
      <trkpt lat="46.04192" lon="4.766">
        <ele>198</ele>
        <time>2016-11-26T10:19:13Z</time>
      </trkpt>
      <trkpt lat="46.04198" lon="4.76596">
        <ele>198</ele>
        <time>2016-11-26T10:19:14Z</time>
      </trkpt>
      <trkpt lat="46.04205" lon="4.76593">
        <ele>198</ele>
        <time>2016-11-26T10:19:15Z</time>
      </trkpt>
      <trkpt lat="46.04211" lon="4.76591">
        <ele>198</ele>
        <time>2016-11-26T10:19:16Z</time>
      </trkpt>
      <trkpt lat="46.04218" lon="4.76589">
        <ele>198</ele>
        <time>2016-11-26T10:19:17Z</time>
      </trkpt>
      <trkpt lat="46.04225" lon="4.76589">
        <ele>198</ele>
        <time>2016-11-26T10:19:18Z</time>
      </trkpt>
      <trkpt lat="46.04232" lon="4.76588">
        <ele>198</ele>
        <time>2016-11-26T10:19:19Z</time>
      </trkpt>
      <trkpt lat="46.04239" lon="4.76587">
        <ele>197</ele>
        <time>2016-11-26T10:19:20Z</time>
      </trkpt>
      <trkpt lat="46.04245" lon="4.76587">
        <ele>197</ele>
        <time>2016-11-26T10:19:21Z</time>
      </trkpt>
      <trkpt lat="46.04252" lon="4.76587">
        <ele>197</ele>
        <time>2016-11-26T10:19:22Z</time>
      </trkpt>
      <trkpt lat="46.04259" lon="4.76586">
        <ele>197</ele>
        <time>2016-11-26T10:19:23Z</time>
      </trkpt>
      <trkpt lat="46.04267" lon="4.76586">
        <ele>197</ele>
        <time>2016-11-26T10:19:24Z</time>
      </trkpt>
      <trkpt lat="46.04274" lon="4.76585">
        <ele>198</ele>
        <time>2016-11-26T10:19:25Z</time>
      </trkpt>
      <trkpt lat="46.04281" lon="4.76584">
        <ele>198</ele>
        <time>2016-11-26T10:19:26Z</time>
      </trkpt>
      <trkpt lat="46.04289" lon="4.76584">
        <ele>198</ele>
        <time>2016-11-26T10:19:27Z</time>
      </trkpt>
      <trkpt lat="46.04296" lon="4.76583">
        <ele>197</ele>
        <time>2016-11-26T10:19:28Z</time>
      </trkpt>
      <trkpt lat="46.04304" lon="4.76582">
        <ele>197</ele>
        <time>2016-11-26T10:19:29Z</time>
      </trkpt>
      <trkpt lat="46.04312" lon="4.76582">
        <ele>197</ele>
        <time>2016-11-26T10:19:30Z</time>
      </trkpt>
      <trkpt lat="46.04319" lon="4.76581">
        <ele>198</ele>
        <time>2016-11-26T10:19:31Z</time>
      </trkpt>
      <trkpt lat="46.04325" lon="4.7658">
        <ele>198</ele>
        <time>2016-11-26T10:19:32Z</time>
      </trkpt>
      <trkpt lat="46.04332" lon="4.7658">
        <ele>199</ele>
        <time>2016-11-26T10:19:33Z</time>
      </trkpt>
      <trkpt lat="46.04339" lon="4.76579">
        <ele>198</ele>
        <time>2016-11-26T10:19:34Z</time>
      </trkpt>
      <trkpt lat="46.04345" lon="4.76579">
        <ele>198</ele>
        <time>2016-11-26T10:19:35Z</time>
      </trkpt>
      <trkpt lat="46.04352" lon="4.76578">
        <ele>198</ele>
        <time>2016-11-26T10:19:36Z</time>
      </trkpt>
      <trkpt lat="46.04359" lon="4.76577">
        <ele>198</ele>
        <time>2016-11-26T10:19:37Z</time>
      </trkpt>
      <trkpt lat="46.04366" lon="4.76576">
        <ele>197</ele>
        <time>2016-11-26T10:19:38Z</time>
      </trkpt>
      <trkpt lat="46.04373" lon="4.76575">
        <ele>197</ele>
        <time>2016-11-26T10:19:39Z</time>
      </trkpt>
      <trkpt lat="46.0438" lon="4.76575">
        <ele>197</ele>
        <time>2016-11-26T10:19:40Z</time>
      </trkpt>
      <trkpt lat="46.04387" lon="4.76573">
        <ele>197</ele>
        <time>2016-11-26T10:19:41Z</time>
      </trkpt>
      <trkpt lat="46.04394" lon="4.76571">
        <ele>197</ele>
        <time>2016-11-26T10:19:42Z</time>
      </trkpt>
      <trkpt lat="46.04401" lon="4.7657">
        <ele>198</ele>
        <time>2016-11-26T10:19:43Z</time>
      </trkpt>
      <trkpt lat="46.04408" lon="4.76568">
        <ele>198</ele>
        <time>2016-11-26T10:19:44Z</time>
      </trkpt>
      <trkpt lat="46.04415" lon="4.76568">
        <ele>198</ele>
        <time>2016-11-26T10:19:45Z</time>
      </trkpt>
      <trkpt lat="46.04422" lon="4.76567">
        <ele>196</ele>
        <time>2016-11-26T10:19:46Z</time>
      </trkpt>
      <trkpt lat="46.04429" lon="4.76566">
        <ele>196</ele>
        <time>2016-11-26T10:19:47Z</time>
      </trkpt>
      <trkpt lat="46.04435" lon="4.76566">
        <ele>195</ele>
        <time>2016-11-26T10:19:48Z</time>
      </trkpt>
      <trkpt lat="46.04441" lon="4.76565">
        <ele>195</ele>
        <time>2016-11-26T10:19:49Z</time>
      </trkpt>
      <trkpt lat="46.04447" lon="4.76565">
        <ele>195</ele>
        <time>2016-11-26T10:19:50Z</time>
      </trkpt>
      <trkpt lat="46.04453" lon="4.76565">
        <ele>194</ele>
        <time>2016-11-26T10:19:51Z</time>
      </trkpt>
      <trkpt lat="46.0446" lon="4.76565">
        <ele>194</ele>
        <time>2016-11-26T10:19:52Z</time>
      </trkpt>
      <trkpt lat="46.04466" lon="4.76566">
        <ele>193</ele>
        <time>2016-11-26T10:19:53Z</time>
      </trkpt>
      <trkpt lat="46.04472" lon="4.76566">
        <ele>193</ele>
        <time>2016-11-26T10:19:54Z</time>
      </trkpt>
      <trkpt lat="46.04477" lon="4.76567">
        <ele>193</ele>
        <time>2016-11-26T10:19:55Z</time>
      </trkpt>
      <trkpt lat="46.04482" lon="4.76567">
        <ele>193</ele>
        <time>2016-11-26T10:19:56Z</time>
      </trkpt>
      <trkpt lat="46.04487" lon="4.76566">
        <ele>193</ele>
        <time>2016-11-26T10:19:57Z</time>
      </trkpt>
      <trkpt lat="46.04491" lon="4.76566">
        <ele>192</ele>
        <time>2016-11-26T10:19:58Z</time>
      </trkpt>
      <trkpt lat="46.04499" lon="4.76565">
        <ele>192</ele>
        <time>2016-11-26T10:20:00Z</time>
      </trkpt>
      <trkpt lat="46.04503" lon="4.76565">
        <ele>190</ele>
        <time>2016-11-26T10:20:01Z</time>
      </trkpt>
      <trkpt lat="46.04511" lon="4.76565">
        <ele>189</ele>
        <time>2016-11-26T10:20:04Z</time>
      </trkpt>
      <trkpt lat="46.04512" lon="4.76564">
        <ele>189</ele>
        <time>2016-11-26T10:20:05Z</time>
      </trkpt>
      <trkpt lat="46.0452" lon="4.76564">
        <ele>189</ele>
        <time>2016-11-26T10:20:09Z</time>
      </trkpt>
      <trkpt lat="46.04526" lon="4.76564">
        <ele>189</ele>
        <time>2016-11-26T10:20:10Z</time>
      </trkpt>
      <trkpt lat="46.04533" lon="4.76563">
        <ele>188</ele>
        <time>2016-11-26T10:20:12Z</time>
      </trkpt>
      <trkpt lat="46.04536" lon="4.76563">
        <ele>188</ele>
        <time>2016-11-26T10:20:13Z</time>
      </trkpt>
      <trkpt lat="46.04545" lon="4.76561">
        <ele>188</ele>
        <time>2016-11-26T10:20:15Z</time>
      </trkpt>
      <trkpt lat="46.04549" lon="4.76559">
        <ele>188</ele>
        <time>2016-11-26T10:20:16Z</time>
      </trkpt>
      <trkpt lat="46.04554" lon="4.76557">
        <ele>188</ele>
        <time>2016-11-26T10:20:17Z</time>
      </trkpt>
      <trkpt lat="46.04559" lon="4.76554">
        <ele>188</ele>
        <time>2016-11-26T10:20:18Z</time>
      </trkpt>
      <trkpt lat="46.04563" lon="4.76551">
        <ele>187</ele>
        <time>2016-11-26T10:20:19Z</time>
      </trkpt>
      <trkpt lat="46.04568" lon="4.76548">
        <ele>187</ele>
        <time>2016-11-26T10:20:20Z</time>
      </trkpt>
      <trkpt lat="46.04574" lon="4.76545">
        <ele>187</ele>
        <time>2016-11-26T10:20:21Z</time>
      </trkpt>
      <trkpt lat="46.04579" lon="4.76543">
        <ele>187</ele>
        <time>2016-11-26T10:20:22Z</time>
      </trkpt>
      <trkpt lat="46.04585" lon="4.76541">
        <ele>186</ele>
        <time>2016-11-26T10:20:23Z</time>
      </trkpt>
      <trkpt lat="46.04591" lon="4.76539">
        <ele>186</ele>
        <time>2016-11-26T10:20:24Z</time>
      </trkpt>
      <trkpt lat="46.04597" lon="4.76536">
        <ele>186</ele>
        <time>2016-11-26T10:20:25Z</time>
      </trkpt>
      <trkpt lat="46.04603" lon="4.76534">
        <ele>186</ele>
        <time>2016-11-26T10:20:26Z</time>
      </trkpt>
      <trkpt lat="46.04609" lon="4.76531">
        <ele>186</ele>
        <time>2016-11-26T10:20:27Z</time>
      </trkpt>
      <trkpt lat="46.04615" lon="4.76528">
        <ele>186</ele>
        <time>2016-11-26T10:20:28Z</time>
      </trkpt>
      <trkpt lat="46.04621" lon="4.76525">
        <ele>186</ele>
        <time>2016-11-26T10:20:29Z</time>
      </trkpt>
      <trkpt lat="46.04626" lon="4.76522">
        <ele>186</ele>
        <time>2016-11-26T10:20:30Z</time>
      </trkpt>
      <trkpt lat="46.04631" lon="4.76519">
        <ele>186</ele>
        <time>2016-11-26T10:20:31Z</time>
      </trkpt>
      <trkpt lat="46.04636" lon="4.76517">
        <ele>186</ele>
        <time>2016-11-26T10:20:32Z</time>
      </trkpt>
      <trkpt lat="46.04641" lon="4.76514">
        <ele>186</ele>
        <time>2016-11-26T10:20:33Z</time>
      </trkpt>
      <trkpt lat="46.04645" lon="4.76512">
        <ele>186</ele>
        <time>2016-11-26T10:20:34Z</time>
      </trkpt>
      <trkpt lat="46.04653" lon="4.76508">
        <ele>186</ele>
        <time>2016-11-26T10:20:36Z</time>
      </trkpt>
      <trkpt lat="46.04656" lon="4.76508">
        <ele>186</ele>
        <time>2016-11-26T10:20:37Z</time>
      </trkpt>
      <trkpt lat="46.04665" lon="4.76505">
        <ele>186</ele>
        <time>2016-11-26T10:20:40Z</time>
      </trkpt>
      <trkpt lat="46.04667" lon="4.76503">
        <ele>186</ele>
        <time>2016-11-26T10:20:41Z</time>
      </trkpt>
      <trkpt lat="46.04667" lon="4.76492">
        <ele>187</ele>
        <time>2016-11-26T10:20:46Z</time>
      </trkpt>
      <trkpt lat="46.04667" lon="4.76491">
        <ele>187</ele>
        <time>2016-11-26T10:20:47Z</time>
      </trkpt>
      <trkpt lat="46.04668" lon="4.7649">
        <ele>187</ele>
        <time>2016-11-26T10:20:56Z</time>
      </trkpt>
      <trkpt lat="46.04669" lon="4.76489">
        <ele>187</ele>
        <time>2016-11-26T10:20:57Z</time>
      </trkpt>
      <trkpt lat="46.04677" lon="4.76487">
        <ele>187</ele>
        <time>2016-11-26T10:21:03Z</time>
      </trkpt>
      <trkpt lat="46.04679" lon="4.76489">
        <ele>187</ele>
        <time>2016-11-26T10:21:04Z</time>
      </trkpt>
      <trkpt lat="46.04685" lon="4.76495">
        <ele>187</ele>
        <time>2016-11-26T10:21:07Z</time>
      </trkpt>
      <trkpt lat="46.04687" lon="4.76497">
        <ele>188</ele>
        <time>2016-11-26T10:21:08Z</time>
      </trkpt>
      <trkpt lat="46.04694" lon="4.765">
        <ele>188</ele>
        <time>2016-11-26T10:21:11Z</time>
      </trkpt>
      <trkpt lat="46.04696" lon="4.76499">
        <ele>188</ele>
        <time>2016-11-26T10:21:12Z</time>
      </trkpt>
      <trkpt lat="46.04702" lon="4.76493">
        <ele>188</ele>
        <time>2016-11-26T10:21:15Z</time>
      </trkpt>
      <trkpt lat="46.04705" lon="4.76492">
        <ele>189</ele>
        <time>2016-11-26T10:21:16Z</time>
      </trkpt>
      <trkpt lat="46.04713" lon="4.7649">
        <ele>189</ele>
        <time>2016-11-26T10:21:18Z</time>
      </trkpt>
      <trkpt lat="46.04716" lon="4.76489">
        <ele>189</ele>
        <time>2016-11-26T10:21:19Z</time>
      </trkpt>
      <trkpt lat="46.04724" lon="4.76485">
        <ele>189</ele>
        <time>2016-11-26T10:21:21Z</time>
      </trkpt>
      <trkpt lat="46.04728" lon="4.76483">
        <ele>189</ele>
        <time>2016-11-26T10:21:22Z</time>
      </trkpt>
      <trkpt lat="46.04735" lon="4.76479">
        <ele>190</ele>
        <time>2016-11-26T10:21:24Z</time>
      </trkpt>
      <trkpt lat="46.04739" lon="4.76478">
        <ele>190</ele>
        <time>2016-11-26T10:21:25Z</time>
      </trkpt>
      <trkpt lat="46.04745" lon="4.76474">
        <ele>190</ele>
        <time>2016-11-26T10:21:27Z</time>
      </trkpt>
      <trkpt lat="46.04749" lon="4.76472">
        <ele>190</ele>
        <time>2016-11-26T10:21:28Z</time>
      </trkpt>
      <trkpt lat="46.04755" lon="4.76469">
        <ele>192</ele>
        <time>2016-11-26T10:21:30Z</time>
      </trkpt>
      <trkpt lat="46.04758" lon="4.76468">
        <ele>192</ele>
        <time>2016-11-26T10:21:31Z</time>
      </trkpt>
      <trkpt lat="46.04764" lon="4.76464">
        <ele>192</ele>
        <time>2016-11-26T10:21:33Z</time>
      </trkpt>
      <trkpt lat="46.04767" lon="4.76463">
        <ele>192</ele>
        <time>2016-11-26T10:21:34Z</time>
      </trkpt>
      <trkpt lat="46.04774" lon="4.76458">
        <ele>192</ele>
        <time>2016-11-26T10:21:36Z</time>
      </trkpt>
      <trkpt lat="46.04777" lon="4.76455">
        <ele>192</ele>
        <time>2016-11-26T10:21:37Z</time>
      </trkpt>
      <trkpt lat="46.04783" lon="4.7645">
        <ele>192</ele>
        <time>2016-11-26T10:21:39Z</time>
      </trkpt>
      <trkpt lat="46.04786" lon="4.76449">
        <ele>192</ele>
        <time>2016-11-26T10:21:40Z</time>
      </trkpt>
      <trkpt lat="46.04792" lon="4.76445">
        <ele>192</ele>
        <time>2016-11-26T10:21:42Z</time>
      </trkpt>
      <trkpt lat="46.04794" lon="4.76444">
        <ele>193</ele>
        <time>2016-11-26T10:21:43Z</time>
      </trkpt>
      <trkpt lat="46.04801" lon="4.76442">
        <ele>193</ele>
        <time>2016-11-26T10:21:45Z</time>
      </trkpt>
      <trkpt lat="46.04805" lon="4.76441">
        <ele>193</ele>
        <time>2016-11-26T10:21:46Z</time>
      </trkpt>
      <trkpt lat="46.0481" lon="4.76438">
        <ele>193</ele>
        <time>2016-11-26T10:21:48Z</time>
      </trkpt>
      <trkpt lat="46.04813" lon="4.76437">
        <ele>193</ele>
        <time>2016-11-26T10:21:49Z</time>
      </trkpt>
      <trkpt lat="46.0482" lon="4.76436">
        <ele>193</ele>
        <time>2016-11-26T10:21:51Z</time>
      </trkpt>
      <trkpt lat="46.04823" lon="4.76437">
        <ele>193</ele>
        <time>2016-11-26T10:21:52Z</time>
      </trkpt>
      <trkpt lat="46.0483" lon="4.76438">
        <ele>193</ele>
        <time>2016-11-26T10:21:54Z</time>
      </trkpt>
      <trkpt lat="46.04834" lon="4.76439">
        <ele>194</ele>
        <time>2016-11-26T10:21:55Z</time>
      </trkpt>
      <trkpt lat="46.04842" lon="4.76441">
        <ele>194</ele>
        <time>2016-11-26T10:21:57Z</time>
      </trkpt>
      <trkpt lat="46.04846" lon="4.76442">
        <ele>194</ele>
        <time>2016-11-26T10:21:58Z</time>
      </trkpt>
      <trkpt lat="46.04853" lon="4.76443">
        <ele>193</ele>
        <time>2016-11-26T10:22:00Z</time>
      </trkpt>
      <trkpt lat="46.04856" lon="4.76444">
        <ele>193</ele>
        <time>2016-11-26T10:22:01Z</time>
      </trkpt>
      <trkpt lat="46.04862" lon="4.76445">
        <ele>193</ele>
        <time>2016-11-26T10:22:03Z</time>
      </trkpt>
      <trkpt lat="46.04866" lon="4.76446">
        <ele>193</ele>
        <time>2016-11-26T10:22:04Z</time>
      </trkpt>
      <trkpt lat="46.04873" lon="4.76447">
        <ele>193</ele>
        <time>2016-11-26T10:22:06Z</time>
      </trkpt>
      <trkpt lat="46.04877" lon="4.76447">
        <ele>193</ele>
        <time>2016-11-26T10:22:07Z</time>
      </trkpt>
      <trkpt lat="46.04885" lon="4.76448">
        <ele>193</ele>
        <time>2016-11-26T10:22:09Z</time>
      </trkpt>
      <trkpt lat="46.04889" lon="4.76447">
        <ele>193</ele>
        <time>2016-11-26T10:22:10Z</time>
      </trkpt>
      <trkpt lat="46.04898" lon="4.76446">
        <ele>193</ele>
        <time>2016-11-26T10:22:12Z</time>
      </trkpt>
      <trkpt lat="46.04902" lon="4.76445">
        <ele>193</ele>
        <time>2016-11-26T10:22:13Z</time>
      </trkpt>
      <trkpt lat="46.04911" lon="4.76443">
        <ele>193</ele>
        <time>2016-11-26T10:22:15Z</time>
      </trkpt>
      <trkpt lat="46.04916" lon="4.76441">
        <ele>193</ele>
        <time>2016-11-26T10:22:16Z</time>
      </trkpt>
      <trkpt lat="46.0492" lon="4.76438">
        <ele>191</ele>
        <time>2016-11-26T10:22:17Z</time>
      </trkpt>
      <trkpt lat="46.04925" lon="4.76435">
        <ele>191</ele>
        <time>2016-11-26T10:22:18Z</time>
      </trkpt>
      <trkpt lat="46.0493" lon="4.76433">
        <ele>191</ele>
        <time>2016-11-26T10:22:19Z</time>
      </trkpt>
      <trkpt lat="46.04935" lon="4.76431">
        <ele>191</ele>
        <time>2016-11-26T10:22:20Z</time>
      </trkpt>
      <trkpt lat="46.0494" lon="4.76429">
        <ele>191</ele>
        <time>2016-11-26T10:22:21Z</time>
      </trkpt>
      <trkpt lat="46.04944" lon="4.76428">
        <ele>191</ele>
        <time>2016-11-26T10:22:22Z</time>
      </trkpt>
      <trkpt lat="46.04949" lon="4.7643">
        <ele>191</ele>
        <time>2016-11-26T10:22:23Z</time>
      </trkpt>
      <trkpt lat="46.04953" lon="4.76433">
        <ele>191</ele>
        <time>2016-11-26T10:22:24Z</time>
      </trkpt>
      <trkpt lat="46.04956" lon="4.76438">
        <ele>191</ele>
        <time>2016-11-26T10:22:25Z</time>
      </trkpt>
      <trkpt lat="46.04959" lon="4.76443">
        <ele>191</ele>
        <time>2016-11-26T10:22:26Z</time>
      </trkpt>
      <trkpt lat="46.04962" lon="4.76449">
        <ele>191</ele>
        <time>2016-11-26T10:22:27Z</time>
      </trkpt>
      <trkpt lat="46.04965" lon="4.76455">
        <ele>191</ele>
        <time>2016-11-26T10:22:28Z</time>
      </trkpt>
      <trkpt lat="46.04967" lon="4.7646">
        <ele>191</ele>
        <time>2016-11-26T10:22:29Z</time>
      </trkpt>
      <trkpt lat="46.04969" lon="4.76466">
        <ele>191</ele>
        <time>2016-11-26T10:22:30Z</time>
      </trkpt>
      <trkpt lat="46.04971" lon="4.76472">
        <ele>191</ele>
        <time>2016-11-26T10:22:31Z</time>
      </trkpt>
      <trkpt lat="46.04974" lon="4.76477">
        <ele>191</ele>
        <time>2016-11-26T10:22:32Z</time>
      </trkpt>
      <trkpt lat="46.04975" lon="4.76483">
        <ele>191</ele>
        <time>2016-11-26T10:22:33Z</time>
      </trkpt>
      <trkpt lat="46.04977" lon="4.7649">
        <ele>191</ele>
        <time>2016-11-26T10:22:34Z</time>
      </trkpt>
      <trkpt lat="46.04979" lon="4.76496">
        <ele>191</ele>
        <time>2016-11-26T10:22:35Z</time>
      </trkpt>
      <trkpt lat="46.04981" lon="4.76502">
        <ele>191</ele>
        <time>2016-11-26T10:22:36Z</time>
      </trkpt>
      <trkpt lat="46.04983" lon="4.76509">
        <ele>191</ele>
        <time>2016-11-26T10:22:37Z</time>
      </trkpt>
      <trkpt lat="46.04985" lon="4.76514">
        <ele>191</ele>
        <time>2016-11-26T10:22:38Z</time>
      </trkpt>
      <trkpt lat="46.04988" lon="4.76525">
        <ele>191</ele>
        <time>2016-11-26T10:22:40Z</time>
      </trkpt>
      <trkpt lat="46.0499" lon="4.76529">
        <ele>191</ele>
        <time>2016-11-26T10:22:41Z</time>
      </trkpt>
      <trkpt lat="46.04996" lon="4.76537">
        <ele>191</ele>
        <time>2016-11-26T10:22:44Z</time>
      </trkpt>
      <trkpt lat="46.04996" lon="4.76539">
        <ele>191</ele>
        <time>2016-11-26T10:22:45Z</time>
      </trkpt>
      <trkpt lat="46.05001" lon="4.76547">
        <ele>190</ele>
        <time>2016-11-26T10:22:48Z</time>
      </trkpt>
      <trkpt lat="46.05002" lon="4.7655">
        <ele>190</ele>
        <time>2016-11-26T10:22:49Z</time>
      </trkpt>
      <trkpt lat="46.05004" lon="4.7656">
        <ele>191</ele>
        <time>2016-11-26T10:22:51Z</time>
      </trkpt>
      <trkpt lat="46.05006" lon="4.76565">
        <ele>191</ele>
        <time>2016-11-26T10:22:52Z</time>
      </trkpt>
      <trkpt lat="46.0501" lon="4.7657">
        <ele>191</ele>
        <time>2016-11-26T10:22:53Z</time>
      </trkpt>
      <trkpt lat="46.05014" lon="4.76572">
        <ele>191</ele>
        <time>2016-11-26T10:22:54Z</time>
      </trkpt>
      <trkpt lat="46.05019" lon="4.76574">
        <ele>191</ele>
        <time>2016-11-26T10:22:55Z</time>
      </trkpt>
      <trkpt lat="46.05024" lon="4.76576">
        <ele>190</ele>
        <time>2016-11-26T10:22:56Z</time>
      </trkpt>
      <trkpt lat="46.05028" lon="4.76578">
        <ele>190</ele>
        <time>2016-11-26T10:22:57Z</time>
      </trkpt>
      <trkpt lat="46.05033" lon="4.76581">
        <ele>190</ele>
        <time>2016-11-26T10:22:58Z</time>
      </trkpt>
      <trkpt lat="46.05037" lon="4.76584">
        <ele>192</ele>
        <time>2016-11-26T10:22:59Z</time>
      </trkpt>
      <trkpt lat="46.05042" lon="4.76588">
        <ele>191</ele>
        <time>2016-11-26T10:23:00Z</time>
      </trkpt>
      <trkpt lat="46.05046" lon="4.76591">
        <ele>191</ele>
        <time>2016-11-26T10:23:01Z</time>
      </trkpt>
      <trkpt lat="46.05051" lon="4.76594">
        <ele>191</ele>
        <time>2016-11-26T10:23:02Z</time>
      </trkpt>
      <trkpt lat="46.05055" lon="4.76598">
        <ele>191</ele>
        <time>2016-11-26T10:23:03Z</time>
      </trkpt>
      <trkpt lat="46.05059" lon="4.76601">
        <ele>191</ele>
        <time>2016-11-26T10:23:04Z</time>
      </trkpt>
      <trkpt lat="46.05064" lon="4.76604">
        <ele>191</ele>
        <time>2016-11-26T10:23:05Z</time>
      </trkpt>
      <trkpt lat="46.05068" lon="4.76608">
        <ele>191</ele>
        <time>2016-11-26T10:23:06Z</time>
      </trkpt>
      <trkpt lat="46.05071" lon="4.76619">
        <ele>192</ele>
        <time>2016-11-26T10:23:08Z</time>
      </trkpt>
      <trkpt lat="46.05073" lon="4.76625">
        <ele>192</ele>
        <time>2016-11-26T10:23:09Z</time>
      </trkpt>
      <trkpt lat="46.05074" lon="4.76632">
        <ele>192</ele>
        <time>2016-11-26T10:23:10Z</time>
      </trkpt>
      <trkpt lat="46.05075" lon="4.76638">
        <ele>192</ele>
        <time>2016-11-26T10:23:11Z</time>
      </trkpt>
      <trkpt lat="46.05076" lon="4.76645">
        <ele>192</ele>
        <time>2016-11-26T10:23:12Z</time>
      </trkpt>
      <trkpt lat="46.05077" lon="4.76651">
        <ele>192</ele>
        <time>2016-11-26T10:23:13Z</time>
      </trkpt>
      <trkpt lat="46.05078" lon="4.76658">
        <ele>193</ele>
        <time>2016-11-26T10:23:14Z</time>
      </trkpt>
      <trkpt lat="46.05078" lon="4.76665">
        <ele>193</ele>
        <time>2016-11-26T10:23:15Z</time>
      </trkpt>
      <trkpt lat="46.05079" lon="4.76671">
        <ele>193</ele>
        <time>2016-11-26T10:23:16Z</time>
      </trkpt>
      <trkpt lat="46.0508" lon="4.76678">
        <ele>193</ele>
        <time>2016-11-26T10:23:17Z</time>
      </trkpt>
      <trkpt lat="46.0508" lon="4.76686">
        <ele>193</ele>
        <time>2016-11-26T10:23:18Z</time>
      </trkpt>
      <trkpt lat="46.05082" lon="4.76693">
        <ele>193</ele>
        <time>2016-11-26T10:23:19Z</time>
      </trkpt>
      <trkpt lat="46.05083" lon="4.767">
        <ele>193</ele>
        <time>2016-11-26T10:23:20Z</time>
      </trkpt>
      <trkpt lat="46.05085" lon="4.76706">
        <ele>193</ele>
        <time>2016-11-26T10:23:21Z</time>
      </trkpt>
      <trkpt lat="46.05087" lon="4.76713">
        <ele>193</ele>
        <time>2016-11-26T10:23:22Z</time>
      </trkpt>
      <trkpt lat="46.05088" lon="4.76719">
        <ele>193</ele>
        <time>2016-11-26T10:23:23Z</time>
      </trkpt>
      <trkpt lat="46.0509" lon="4.76726">
        <ele>193</ele>
        <time>2016-11-26T10:23:24Z</time>
      </trkpt>
      <trkpt lat="46.05091" lon="4.76732">
        <ele>193</ele>
        <time>2016-11-26T10:23:25Z</time>
      </trkpt>
      <trkpt lat="46.05092" lon="4.76739">
        <ele>193</ele>
        <time>2016-11-26T10:23:26Z</time>
      </trkpt>
      <trkpt lat="46.05092" lon="4.76746">
        <ele>194</ele>
        <time>2016-11-26T10:23:27Z</time>
      </trkpt>
      <trkpt lat="46.05094" lon="4.76753">
        <ele>194</ele>
        <time>2016-11-26T10:23:28Z</time>
      </trkpt>
      <trkpt lat="46.05095" lon="4.7676">
        <ele>194</ele>
        <time>2016-11-26T10:23:29Z</time>
      </trkpt>
      <trkpt lat="46.05097" lon="4.76767">
        <ele>194</ele>
        <time>2016-11-26T10:23:30Z</time>
      </trkpt>
      <trkpt lat="46.05098" lon="4.76773">
        <ele>194</ele>
        <time>2016-11-26T10:23:31Z</time>
      </trkpt>
      <trkpt lat="46.051" lon="4.76779">
        <ele>194</ele>
        <time>2016-11-26T10:23:32Z</time>
      </trkpt>
      <trkpt lat="46.05102" lon="4.76785">
        <ele>194</ele>
        <time>2016-11-26T10:23:33Z</time>
      </trkpt>
      <trkpt lat="46.05103" lon="4.76791">
        <ele>194</ele>
        <time>2016-11-26T10:23:34Z</time>
      </trkpt>
      <trkpt lat="46.05104" lon="4.76798">
        <ele>194</ele>
        <time>2016-11-26T10:23:35Z</time>
      </trkpt>
      <trkpt lat="46.05106" lon="4.76805">
        <ele>194</ele>
        <time>2016-11-26T10:23:36Z</time>
      </trkpt>
      <trkpt lat="46.05107" lon="4.76812">
        <ele>194</ele>
        <time>2016-11-26T10:23:37Z</time>
      </trkpt>
      <trkpt lat="46.05109" lon="4.76818">
        <ele>194</ele>
        <time>2016-11-26T10:23:38Z</time>
      </trkpt>
      <trkpt lat="46.05113" lon="4.76825">
        <ele>194</ele>
        <time>2016-11-26T10:23:39Z</time>
      </trkpt>
      <trkpt lat="46.05116" lon="4.76831">
        <ele>194</ele>
        <time>2016-11-26T10:23:40Z</time>
      </trkpt>
      <trkpt lat="46.05119" lon="4.76837">
        <ele>195</ele>
        <time>2016-11-26T10:23:41Z</time>
      </trkpt>
      <trkpt lat="46.05122" lon="4.76844">
        <ele>195</ele>
        <time>2016-11-26T10:23:42Z</time>
      </trkpt>
      <trkpt lat="46.05124" lon="4.7685">
        <ele>195</ele>
        <time>2016-11-26T10:23:43Z</time>
      </trkpt>
      <trkpt lat="46.05127" lon="4.76855">
        <ele>195</ele>
        <time>2016-11-26T10:23:44Z</time>
      </trkpt>
      <trkpt lat="46.0513" lon="4.76861">
        <ele>195</ele>
        <time>2016-11-26T10:23:45Z</time>
      </trkpt>
      <trkpt lat="46.05133" lon="4.76867">
        <ele>195</ele>
        <time>2016-11-26T10:23:46Z</time>
      </trkpt>
      <trkpt lat="46.05136" lon="4.76873">
        <ele>195</ele>
        <time>2016-11-26T10:23:47Z</time>
      </trkpt>
      <trkpt lat="46.05138" lon="4.76879">
        <ele>195</ele>
        <time>2016-11-26T10:23:48Z</time>
      </trkpt>
      <trkpt lat="46.05141" lon="4.76885">
        <ele>195</ele>
        <time>2016-11-26T10:23:49Z</time>
      </trkpt>
      <trkpt lat="46.05143" lon="4.76891">
        <ele>195</ele>
        <time>2016-11-26T10:23:50Z</time>
      </trkpt>
      <trkpt lat="46.05146" lon="4.76896">
        <ele>195</ele>
        <time>2016-11-26T10:23:51Z</time>
      </trkpt>
      <trkpt lat="46.05148" lon="4.76901">
        <ele>195</ele>
        <time>2016-11-26T10:23:52Z</time>
      </trkpt>
      <trkpt lat="46.05151" lon="4.76907">
        <ele>195</ele>
        <time>2016-11-26T10:23:53Z</time>
      </trkpt>
      <trkpt lat="46.05154" lon="4.76912">
        <ele>195</ele>
        <time>2016-11-26T10:23:54Z</time>
      </trkpt>
      <trkpt lat="46.05156" lon="4.76918">
        <ele>196</ele>
        <time>2016-11-26T10:23:55Z</time>
      </trkpt>
      <trkpt lat="46.0516" lon="4.76928">
        <ele>196</ele>
        <time>2016-11-26T10:23:57Z</time>
      </trkpt>
      <trkpt lat="46.05163" lon="4.76932">
        <ele>196</ele>
        <time>2016-11-26T10:23:58Z</time>
      </trkpt>
      <trkpt lat="46.05169" lon="4.7694">
        <ele>197</ele>
        <time>2016-11-26T10:24:00Z</time>
      </trkpt>
      <trkpt lat="46.05171" lon="4.76945">
        <ele>197</ele>
        <time>2016-11-26T10:24:01Z</time>
      </trkpt>
      <trkpt lat="46.05176" lon="4.76955">
        <ele>197</ele>
        <time>2016-11-26T10:24:03Z</time>
      </trkpt>
      <trkpt lat="46.05178" lon="4.7696">
        <ele>198</ele>
        <time>2016-11-26T10:24:04Z</time>
      </trkpt>
      <trkpt lat="46.05181" lon="4.76972">
        <ele>198</ele>
        <time>2016-11-26T10:24:06Z</time>
      </trkpt>
      <trkpt lat="46.05183" lon="4.76977">
        <ele>198</ele>
        <time>2016-11-26T10:24:07Z</time>
      </trkpt>
      <trkpt lat="46.05185" lon="4.76983">
        <ele>198</ele>
        <time>2016-11-26T10:24:08Z</time>
      </trkpt>
      <trkpt lat="46.05186" lon="4.76989">
        <ele>198</ele>
        <time>2016-11-26T10:24:09Z</time>
      </trkpt>
      <trkpt lat="46.05188" lon="4.76996">
        <ele>198</ele>
        <time>2016-11-26T10:24:10Z</time>
      </trkpt>
      <trkpt lat="46.0519" lon="4.77001">
        <ele>199</ele>
        <time>2016-11-26T10:24:11Z</time>
      </trkpt>
      <trkpt lat="46.05194" lon="4.77012">
        <ele>200</ele>
        <time>2016-11-26T10:24:13Z</time>
      </trkpt>
      <trkpt lat="46.05196" lon="4.77017">
        <ele>200</ele>
        <time>2016-11-26T10:24:14Z</time>
      </trkpt>
      <trkpt lat="46.05201" lon="4.77027">
        <ele>200</ele>
        <time>2016-11-26T10:24:16Z</time>
      </trkpt>
      <trkpt lat="46.05202" lon="4.77033">
        <ele>200</ele>
        <time>2016-11-26T10:24:17Z</time>
      </trkpt>
      <trkpt lat="46.05206" lon="4.77044">
        <ele>200</ele>
        <time>2016-11-26T10:24:19Z</time>
      </trkpt>
      <trkpt lat="46.05207" lon="4.77048">
        <ele>201</ele>
        <time>2016-11-26T10:24:20Z</time>
      </trkpt>
      <trkpt lat="46.05211" lon="4.77057">
        <ele>201</ele>
        <time>2016-11-26T10:24:22Z</time>
      </trkpt>
      <trkpt lat="46.05212" lon="4.77062">
        <ele>201</ele>
        <time>2016-11-26T10:24:23Z</time>
      </trkpt>
      <trkpt lat="46.05216" lon="4.77071">
        <ele>201</ele>
        <time>2016-11-26T10:24:25Z</time>
      </trkpt>
      <trkpt lat="46.05218" lon="4.77076">
        <ele>201</ele>
        <time>2016-11-26T10:24:26Z</time>
      </trkpt>
      <trkpt lat="46.05221" lon="4.77085">
        <ele>203</ele>
        <time>2016-11-26T10:24:28Z</time>
      </trkpt>
      <trkpt lat="46.05224" lon="4.77088">
        <ele>203</ele>
        <time>2016-11-26T10:24:29Z</time>
      </trkpt>
      <trkpt lat="46.05227" lon="4.77097">
        <ele>203</ele>
        <time>2016-11-26T10:24:31Z</time>
      </trkpt>
      <trkpt lat="46.05229" lon="4.77102">
        <ele>203</ele>
        <time>2016-11-26T10:24:32Z</time>
      </trkpt>
      <trkpt lat="46.05234" lon="4.77109">
        <ele>203</ele>
        <time>2016-11-26T10:24:34Z</time>
      </trkpt>
      <trkpt lat="46.05236" lon="4.77112">
        <ele>203</ele>
        <time>2016-11-26T10:24:35Z</time>
      </trkpt>
      <trkpt lat="46.05242" lon="4.77118">
        <ele>204</ele>
        <time>2016-11-26T10:24:37Z</time>
      </trkpt>
      <trkpt lat="46.05245" lon="4.77121">
        <ele>204</ele>
        <time>2016-11-26T10:24:38Z</time>
      </trkpt>
      <trkpt lat="46.05251" lon="4.77127">
        <ele>204</ele>
        <time>2016-11-26T10:24:40Z</time>
      </trkpt>
      <trkpt lat="46.05254" lon="4.7713">
        <ele>204</ele>
        <time>2016-11-26T10:24:41Z</time>
      </trkpt>
      <trkpt lat="46.0526" lon="4.77138">
        <ele>204</ele>
        <time>2016-11-26T10:24:43Z</time>
      </trkpt>
      <trkpt lat="46.05262" lon="4.77141">
        <ele>204</ele>
        <time>2016-11-26T10:24:44Z</time>
      </trkpt>
      <trkpt lat="46.05269" lon="4.77147">
        <ele>204</ele>
        <time>2016-11-26T10:24:46Z</time>
      </trkpt>
      <trkpt lat="46.05272" lon="4.7715">
        <ele>204</ele>
        <time>2016-11-26T10:24:47Z</time>
      </trkpt>
      <trkpt lat="46.05279" lon="4.77155">
        <ele>204</ele>
        <time>2016-11-26T10:24:49Z</time>
      </trkpt>
      <trkpt lat="46.05282" lon="4.77159">
        <ele>204</ele>
        <time>2016-11-26T10:24:50Z</time>
      </trkpt>
      <trkpt lat="46.05287" lon="4.77167">
        <ele>204</ele>
        <time>2016-11-26T10:24:52Z</time>
      </trkpt>
      <trkpt lat="46.0529" lon="4.77171">
        <ele>206</ele>
        <time>2016-11-26T10:24:53Z</time>
      </trkpt>
      <trkpt lat="46.05296" lon="4.77178">
        <ele>205</ele>
        <time>2016-11-26T10:24:55Z</time>
      </trkpt>
      <trkpt lat="46.053" lon="4.77182">
        <ele>205</ele>
        <time>2016-11-26T10:24:56Z</time>
      </trkpt>
      <trkpt lat="46.05307" lon="4.77188">
        <ele>205</ele>
        <time>2016-11-26T10:24:58Z</time>
      </trkpt>
      <trkpt lat="46.0531" lon="4.77191">
        <ele>205</ele>
        <time>2016-11-26T10:24:59Z</time>
      </trkpt>
      <trkpt lat="46.05317" lon="4.77196">
        <ele>205</ele>
        <time>2016-11-26T10:25:01Z</time>
      </trkpt>
      <trkpt lat="46.05321" lon="4.77199">
        <ele>205</ele>
        <time>2016-11-26T10:25:02Z</time>
      </trkpt>
      <trkpt lat="46.05328" lon="4.77205">
        <ele>205</ele>
        <time>2016-11-26T10:25:04Z</time>
      </trkpt>
      <trkpt lat="46.05332" lon="4.77208">
        <ele>205</ele>
        <time>2016-11-26T10:25:05Z</time>
      </trkpt>
      <trkpt lat="46.05339" lon="4.77213">
        <ele>203</ele>
        <time>2016-11-26T10:25:07Z</time>
      </trkpt>
      <trkpt lat="46.05343" lon="4.77215">
        <ele>203</ele>
        <time>2016-11-26T10:25:08Z</time>
      </trkpt>
      <trkpt lat="46.05347" lon="4.77218">
        <ele>203</ele>
        <time>2016-11-26T10:25:09Z</time>
      </trkpt>
      <trkpt lat="46.05351" lon="4.77222">
        <ele>203</ele>
        <time>2016-11-26T10:25:10Z</time>
      </trkpt>
      <trkpt lat="46.05356" lon="4.77225">
        <ele>203</ele>
        <time>2016-11-26T10:25:11Z</time>
      </trkpt>
      <trkpt lat="46.0536" lon="4.77228">
        <ele>203</ele>
        <time>2016-11-26T10:25:12Z</time>
      </trkpt>
      <trkpt lat="46.05365" lon="4.7723">
        <ele>203</ele>
        <time>2016-11-26T10:25:13Z</time>
      </trkpt>
      <trkpt lat="46.05369" lon="4.77233">
        <ele>203</ele>
        <time>2016-11-26T10:25:14Z</time>
      </trkpt>
      <trkpt lat="46.05373" lon="4.77236">
        <ele>203</ele>
        <time>2016-11-26T10:25:15Z</time>
      </trkpt>
      <trkpt lat="46.05378" lon="4.77239">
        <ele>203</ele>
        <time>2016-11-26T10:25:16Z</time>
      </trkpt>
      <trkpt lat="46.05382" lon="4.77241">
        <ele>203</ele>
        <time>2016-11-26T10:25:17Z</time>
      </trkpt>
      <trkpt lat="46.05386" lon="4.77244">
        <ele>202</ele>
        <time>2016-11-26T10:25:18Z</time>
      </trkpt>
      <trkpt lat="46.05391" lon="4.77246">
        <ele>202</ele>
        <time>2016-11-26T10:25:19Z</time>
      </trkpt>
      <trkpt lat="46.05395" lon="4.77249">
        <ele>202</ele>
        <time>2016-11-26T10:25:20Z</time>
      </trkpt>
      <trkpt lat="46.054" lon="4.77251">
        <ele>203</ele>
        <time>2016-11-26T10:25:21Z</time>
      </trkpt>
      <trkpt lat="46.05405" lon="4.77253">
        <ele>202</ele>
        <time>2016-11-26T10:25:22Z</time>
      </trkpt>
      <trkpt lat="46.0541" lon="4.77255">
        <ele>202</ele>
        <time>2016-11-26T10:25:23Z</time>
      </trkpt>
      <trkpt lat="46.05416" lon="4.77257">
        <ele>202</ele>
        <time>2016-11-26T10:25:24Z</time>
      </trkpt>
      <trkpt lat="46.05421" lon="4.77259">
        <ele>201</ele>
        <time>2016-11-26T10:25:25Z</time>
      </trkpt>
      <trkpt lat="46.05427" lon="4.77262">
        <ele>201</ele>
        <time>2016-11-26T10:25:26Z</time>
      </trkpt>
      <trkpt lat="46.05432" lon="4.77266">
        <ele>201</ele>
        <time>2016-11-26T10:25:27Z</time>
      </trkpt>
      <trkpt lat="46.05437" lon="4.77269">
        <ele>201</ele>
        <time>2016-11-26T10:25:28Z</time>
      </trkpt>
      <trkpt lat="46.05443" lon="4.77271">
        <ele>201</ele>
        <time>2016-11-26T10:25:29Z</time>
      </trkpt>
      <trkpt lat="46.05448" lon="4.77274">
        <ele>201</ele>
        <time>2016-11-26T10:25:30Z</time>
      </trkpt>
      <trkpt lat="46.05453" lon="4.77276">
        <ele>201</ele>
        <time>2016-11-26T10:25:31Z</time>
      </trkpt>
      <trkpt lat="46.05458" lon="4.77278">
        <ele>201</ele>
        <time>2016-11-26T10:25:32Z</time>
      </trkpt>
      <trkpt lat="46.05464" lon="4.77281">
        <ele>201</ele>
        <time>2016-11-26T10:25:33Z</time>
      </trkpt>
      <trkpt lat="46.05469" lon="4.77283">
        <ele>201</ele>
        <time>2016-11-26T10:25:34Z</time>
      </trkpt>
      <trkpt lat="46.05474" lon="4.77286">
        <ele>201</ele>
        <time>2016-11-26T10:25:35Z</time>
      </trkpt>
      <trkpt lat="46.05479" lon="4.77288">
        <ele>201</ele>
        <time>2016-11-26T10:25:36Z</time>
      </trkpt>
      <trkpt lat="46.05483" lon="4.77291">
        <ele>201</ele>
        <time>2016-11-26T10:25:37Z</time>
      </trkpt>
      <trkpt lat="46.05488" lon="4.77294">
        <ele>201</ele>
        <time>2016-11-26T10:25:38Z</time>
      </trkpt>
      <trkpt lat="46.05493" lon="4.77297">
        <ele>201</ele>
        <time>2016-11-26T10:25:39Z</time>
      </trkpt>
      <trkpt lat="46.05498" lon="4.77299">
        <ele>201</ele>
        <time>2016-11-26T10:25:40Z</time>
      </trkpt>
      <trkpt lat="46.05502" lon="4.77302">
        <ele>200</ele>
        <time>2016-11-26T10:25:41Z</time>
      </trkpt>
      <trkpt lat="46.05507" lon="4.77304">
        <ele>200</ele>
        <time>2016-11-26T10:25:42Z</time>
      </trkpt>
      <trkpt lat="46.05512" lon="4.77307">
        <ele>200</ele>
        <time>2016-11-26T10:25:43Z</time>
      </trkpt>
      <trkpt lat="46.05516" lon="4.77309">
        <ele>200</ele>
        <time>2016-11-26T10:25:44Z</time>
      </trkpt>
      <trkpt lat="46.05521" lon="4.77312">
        <ele>200</ele>
        <time>2016-11-26T10:25:45Z</time>
      </trkpt>
      <trkpt lat="46.05525" lon="4.77314">
        <ele>200</ele>
        <time>2016-11-26T10:25:46Z</time>
      </trkpt>
      <trkpt lat="46.0553" lon="4.77316">
        <ele>200</ele>
        <time>2016-11-26T10:25:47Z</time>
      </trkpt>
      <trkpt lat="46.05535" lon="4.77319">
        <ele>200</ele>
        <time>2016-11-26T10:25:48Z</time>
      </trkpt>
      <trkpt lat="46.05539" lon="4.77322">
        <ele>200</ele>
        <time>2016-11-26T10:25:49Z</time>
      </trkpt>
      <trkpt lat="46.05544" lon="4.77325">
        <ele>200</ele>
        <time>2016-11-26T10:25:50Z</time>
      </trkpt>
      <trkpt lat="46.05548" lon="4.77328">
        <ele>200</ele>
        <time>2016-11-26T10:25:51Z</time>
      </trkpt>
      <trkpt lat="46.05553" lon="4.77332">
        <ele>200</ele>
        <time>2016-11-26T10:25:52Z</time>
      </trkpt>
      <trkpt lat="46.05558" lon="4.77335">
        <ele>201</ele>
        <time>2016-11-26T10:25:53Z</time>
      </trkpt>
      <trkpt lat="46.05562" lon="4.77338">
        <ele>201</ele>
        <time>2016-11-26T10:25:54Z</time>
      </trkpt>
      <trkpt lat="46.05567" lon="4.77342">
        <ele>201</ele>
        <time>2016-11-26T10:25:55Z</time>
      </trkpt>
      <trkpt lat="46.05572" lon="4.77345">
        <ele>201</ele>
        <time>2016-11-26T10:25:56Z</time>
      </trkpt>
      <trkpt lat="46.05577" lon="4.77348">
        <ele>201</ele>
        <time>2016-11-26T10:25:57Z</time>
      </trkpt>
      <trkpt lat="46.05582" lon="4.7735">
        <ele>201</ele>
        <time>2016-11-26T10:25:58Z</time>
      </trkpt>
      <trkpt lat="46.05586" lon="4.77354">
        <ele>202</ele>
        <time>2016-11-26T10:25:59Z</time>
      </trkpt>
      <trkpt lat="46.05591" lon="4.77357">
        <ele>202</ele>
        <time>2016-11-26T10:26:00Z</time>
      </trkpt>
      <trkpt lat="46.05596" lon="4.7736">
        <ele>202</ele>
        <time>2016-11-26T10:26:01Z</time>
      </trkpt>
      <trkpt lat="46.05601" lon="4.77363">
        <ele>202</ele>
        <time>2016-11-26T10:26:02Z</time>
      </trkpt>
      <trkpt lat="46.05606" lon="4.77366">
        <ele>202</ele>
        <time>2016-11-26T10:26:03Z</time>
      </trkpt>
      <trkpt lat="46.0561" lon="4.77369">
        <ele>202</ele>
        <time>2016-11-26T10:26:04Z</time>
      </trkpt>
      <trkpt lat="46.05617" lon="4.77374">
        <ele>203</ele>
        <time>2016-11-26T10:26:06Z</time>
      </trkpt>
      <trkpt lat="46.05621" lon="4.77376">
        <ele>203</ele>
        <time>2016-11-26T10:26:07Z</time>
      </trkpt>
      <trkpt lat="46.05629" lon="4.77382">
        <ele>203</ele>
        <time>2016-11-26T10:26:09Z</time>
      </trkpt>
      <trkpt lat="46.05633" lon="4.77385">
        <ele>203</ele>
        <time>2016-11-26T10:26:10Z</time>
      </trkpt>
      <trkpt lat="46.05637" lon="4.77388">
        <ele>203</ele>
        <time>2016-11-26T10:26:11Z</time>
      </trkpt>
      <trkpt lat="46.05641" lon="4.77391">
        <ele>203</ele>
        <time>2016-11-26T10:26:12Z</time>
      </trkpt>
      <trkpt lat="46.05649" lon="4.77397">
        <ele>204</ele>
        <time>2016-11-26T10:26:14Z</time>
      </trkpt>
      <trkpt lat="46.05653" lon="4.77401">
        <ele>204</ele>
        <time>2016-11-26T10:26:15Z</time>
      </trkpt>
      <trkpt lat="46.0566" lon="4.77407">
        <ele>204</ele>
        <time>2016-11-26T10:26:17Z</time>
      </trkpt>
      <trkpt lat="46.05663" lon="4.7741">
        <ele>204</ele>
        <time>2016-11-26T10:26:18Z</time>
      </trkpt>
      <trkpt lat="46.0567" lon="4.77416">
        <ele>205</ele>
        <time>2016-11-26T10:26:20Z</time>
      </trkpt>
      <trkpt lat="46.05673" lon="4.77419">
        <ele>205</ele>
        <time>2016-11-26T10:26:21Z</time>
      </trkpt>
      <trkpt lat="46.05679" lon="4.77427">
        <ele>206</ele>
        <time>2016-11-26T10:26:23Z</time>
      </trkpt>
      <trkpt lat="46.05681" lon="4.77432">
        <ele>206</ele>
        <time>2016-11-26T10:26:24Z</time>
      </trkpt>
      <trkpt lat="46.05688" lon="4.77439">
        <ele>206</ele>
        <time>2016-11-26T10:26:26Z</time>
      </trkpt>
      <trkpt lat="46.05691" lon="4.77442">
        <ele>206</ele>
        <time>2016-11-26T10:26:27Z</time>
      </trkpt>
      <trkpt lat="46.05698" lon="4.77447">
        <ele>207</ele>
        <time>2016-11-26T10:26:29Z</time>
      </trkpt>
      <trkpt lat="46.05702" lon="4.7745">
        <ele>207</ele>
        <time>2016-11-26T10:26:30Z</time>
      </trkpt>
      <trkpt lat="46.05709" lon="4.77454">
        <ele>207</ele>
        <time>2016-11-26T10:26:32Z</time>
      </trkpt>
      <trkpt lat="46.05713" lon="4.77457">
        <ele>207</ele>
        <time>2016-11-26T10:26:33Z</time>
      </trkpt>
      <trkpt lat="46.0572" lon="4.77461">
        <ele>207</ele>
        <time>2016-11-26T10:26:35Z</time>
      </trkpt>
      <trkpt lat="46.05723" lon="4.77464">
        <ele>207</ele>
        <time>2016-11-26T10:26:36Z</time>
      </trkpt>
      <trkpt lat="46.05729" lon="4.77471">
        <ele>207</ele>
        <time>2016-11-26T10:26:38Z</time>
      </trkpt>
      <trkpt lat="46.05732" lon="4.77474">
        <ele>207</ele>
        <time>2016-11-26T10:26:39Z</time>
      </trkpt>
      <trkpt lat="46.05738" lon="4.77482">
        <ele>207</ele>
        <time>2016-11-26T10:26:41Z</time>
      </trkpt>
      <trkpt lat="46.05741" lon="4.77485">
        <ele>207</ele>
        <time>2016-11-26T10:26:42Z</time>
      </trkpt>
      <trkpt lat="46.05746" lon="4.77492">
        <ele>208</ele>
        <time>2016-11-26T10:26:44Z</time>
      </trkpt>
      <trkpt lat="46.05748" lon="4.77496">
        <ele>208</ele>
        <time>2016-11-26T10:26:45Z</time>
      </trkpt>
      <trkpt lat="46.05753" lon="4.77503">
        <ele>208</ele>
        <time>2016-11-26T10:26:47Z</time>
      </trkpt>
      <trkpt lat="46.05755" lon="4.77507">
        <ele>208</ele>
        <time>2016-11-26T10:26:48Z</time>
      </trkpt>
      <trkpt lat="46.0576" lon="4.77514">
        <ele>208</ele>
        <time>2016-11-26T10:26:50Z</time>
      </trkpt>
      <trkpt lat="46.05762" lon="4.77518">
        <ele>208</ele>
        <time>2016-11-26T10:26:51Z</time>
      </trkpt>
      <trkpt lat="46.05767" lon="4.77525">
        <ele>208</ele>
        <time>2016-11-26T10:26:53Z</time>
      </trkpt>
      <trkpt lat="46.0577" lon="4.7753">
        <ele>208</ele>
        <time>2016-11-26T10:26:54Z</time>
      </trkpt>
      <trkpt lat="46.05775" lon="4.77539">
        <ele>208</ele>
        <time>2016-11-26T10:26:56Z</time>
      </trkpt>
      <trkpt lat="46.05778" lon="4.77544">
        <ele>208</ele>
        <time>2016-11-26T10:26:57Z</time>
      </trkpt>
      <trkpt lat="46.0578" lon="4.77548">
        <ele>208</ele>
        <time>2016-11-26T10:26:58Z</time>
      </trkpt>
      <trkpt lat="46.05784" lon="4.77553">
        <ele>208</ele>
        <time>2016-11-26T10:26:59Z</time>
      </trkpt>
      <trkpt lat="46.05787" lon="4.77558">
        <ele>208</ele>
        <time>2016-11-26T10:27:00Z</time>
      </trkpt>
      <trkpt lat="46.0579" lon="4.77563">
        <ele>208</ele>
        <time>2016-11-26T10:27:01Z</time>
      </trkpt>
      <trkpt lat="46.05794" lon="4.77568">
        <ele>208</ele>
        <time>2016-11-26T10:27:02Z</time>
      </trkpt>
      <trkpt lat="46.05798" lon="4.77572">
        <ele>208</ele>
        <time>2016-11-26T10:27:03Z</time>
      </trkpt>
      <trkpt lat="46.05802" lon="4.77577">
        <ele>208</ele>
        <time>2016-11-26T10:27:04Z</time>
      </trkpt>
      <trkpt lat="46.05805" lon="4.77581">
        <ele>208</ele>
        <time>2016-11-26T10:27:05Z</time>
      </trkpt>
      <trkpt lat="46.05809" lon="4.77585">
        <ele>208</ele>
        <time>2016-11-26T10:27:06Z</time>
      </trkpt>
      <trkpt lat="46.05813" lon="4.7759">
        <ele>208</ele>
        <time>2016-11-26T10:27:07Z</time>
      </trkpt>
      <trkpt lat="46.05817" lon="4.77594">
        <ele>208</ele>
        <time>2016-11-26T10:27:08Z</time>
      </trkpt>
      <trkpt lat="46.05822" lon="4.77599">
        <ele>208</ele>
        <time>2016-11-26T10:27:09Z</time>
      </trkpt>
      <trkpt lat="46.05826" lon="4.77603">
        <ele>208</ele>
        <time>2016-11-26T10:27:10Z</time>
      </trkpt>
      <trkpt lat="46.0583" lon="4.77608">
        <ele>208</ele>
        <time>2016-11-26T10:27:11Z</time>
      </trkpt>
      <trkpt lat="46.05834" lon="4.77612">
        <ele>208</ele>
        <time>2016-11-26T10:27:12Z</time>
      </trkpt>
      <trkpt lat="46.05837" lon="4.77616">
        <ele>208</ele>
        <time>2016-11-26T10:27:13Z</time>
      </trkpt>
      <trkpt lat="46.05841" lon="4.77621">
        <ele>208</ele>
        <time>2016-11-26T10:27:14Z</time>
      </trkpt>
      <trkpt lat="46.05845" lon="4.77625">
        <ele>208</ele>
        <time>2016-11-26T10:27:15Z</time>
      </trkpt>
      <trkpt lat="46.05849" lon="4.77629">
        <ele>208</ele>
        <time>2016-11-26T10:27:16Z</time>
      </trkpt>
      <trkpt lat="46.05853" lon="4.77634">
        <ele>208</ele>
        <time>2016-11-26T10:27:17Z</time>
      </trkpt>
      <trkpt lat="46.05857" lon="4.77638">
        <ele>208</ele>
        <time>2016-11-26T10:27:18Z</time>
      </trkpt>
      <trkpt lat="46.05861" lon="4.77643">
        <ele>208</ele>
        <time>2016-11-26T10:27:19Z</time>
      </trkpt>
      <trkpt lat="46.05866" lon="4.77649">
        <ele>208</ele>
        <time>2016-11-26T10:27:20Z</time>
      </trkpt>
      <trkpt lat="46.0587" lon="4.77654">
        <ele>208</ele>
        <time>2016-11-26T10:27:21Z</time>
      </trkpt>
      <trkpt lat="46.05874" lon="4.7766">
        <ele>208</ele>
        <time>2016-11-26T10:27:22Z</time>
      </trkpt>
      <trkpt lat="46.05878" lon="4.77665">
        <ele>208</ele>
        <time>2016-11-26T10:27:23Z</time>
      </trkpt>
      <trkpt lat="46.05881" lon="4.77672">
        <ele>208</ele>
        <time>2016-11-26T10:27:24Z</time>
      </trkpt>
      <trkpt lat="46.05883" lon="4.77677">
        <ele>208</ele>
        <time>2016-11-26T10:27:25Z</time>
      </trkpt>
      <trkpt lat="46.05887" lon="4.77689">
        <ele>208</ele>
        <time>2016-11-26T10:27:27Z</time>
      </trkpt>
      <trkpt lat="46.05888" lon="4.77695">
        <ele>208</ele>
        <time>2016-11-26T10:27:28Z</time>
      </trkpt>
      <trkpt lat="46.0589" lon="4.77702">
        <ele>208</ele>
        <time>2016-11-26T10:27:29Z</time>
      </trkpt>
      <trkpt lat="46.05891" lon="4.7771">
        <ele>208</ele>
        <time>2016-11-26T10:27:30Z</time>
      </trkpt>
      <trkpt lat="46.05891" lon="4.77717">
        <ele>208</ele>
        <time>2016-11-26T10:27:31Z</time>
      </trkpt>
      <trkpt lat="46.05892" lon="4.77725">
        <ele>209</ele>
        <time>2016-11-26T10:27:32Z</time>
      </trkpt>
      <trkpt lat="46.05893" lon="4.77733">
        <ele>209</ele>
        <time>2016-11-26T10:27:33Z</time>
      </trkpt>
      <trkpt lat="46.05894" lon="4.7774">
        <ele>209</ele>
        <time>2016-11-26T10:27:34Z</time>
      </trkpt>
      <trkpt lat="46.05896" lon="4.77747">
        <ele>209</ele>
        <time>2016-11-26T10:27:35Z</time>
      </trkpt>
      <trkpt lat="46.05897" lon="4.77754">
        <ele>209</ele>
        <time>2016-11-26T10:27:36Z</time>
      </trkpt>
      <trkpt lat="46.059" lon="4.77765">
        <ele>209</ele>
        <time>2016-11-26T10:27:38Z</time>
      </trkpt>
      <trkpt lat="46.05902" lon="4.7777">
        <ele>210</ele>
        <time>2016-11-26T10:27:39Z</time>
      </trkpt>
      <trkpt lat="46.05906" lon="4.7778">
        <ele>210</ele>
        <time>2016-11-26T10:27:41Z</time>
      </trkpt>
      <trkpt lat="46.05909" lon="4.77784">
        <ele>210</ele>
        <time>2016-11-26T10:27:42Z</time>
      </trkpt>
      <trkpt lat="46.05914" lon="4.77794">
        <ele>210</ele>
        <time>2016-11-26T10:27:44Z</time>
      </trkpt>
      <trkpt lat="46.05916" lon="4.77799">
        <ele>210</ele>
        <time>2016-11-26T10:27:45Z</time>
      </trkpt>
      <trkpt lat="46.05919" lon="4.77804">
        <ele>210</ele>
        <time>2016-11-26T10:27:46Z</time>
      </trkpt>
      <trkpt lat="46.05922" lon="4.7781">
        <ele>210</ele>
        <time>2016-11-26T10:27:47Z</time>
      </trkpt>
      <trkpt lat="46.05925" lon="4.77814">
        <ele>210</ele>
        <time>2016-11-26T10:27:48Z</time>
      </trkpt>
      <trkpt lat="46.05929" lon="4.7782">
        <ele>210</ele>
        <time>2016-11-26T10:27:49Z</time>
      </trkpt>
      <trkpt lat="46.05932" lon="4.77825">
        <ele>210</ele>
        <time>2016-11-26T10:27:50Z</time>
      </trkpt>
      <trkpt lat="46.05935" lon="4.77829">
        <ele>210</ele>
        <time>2016-11-26T10:27:51Z</time>
      </trkpt>
      <trkpt lat="46.05941" lon="4.77839">
        <ele>211</ele>
        <time>2016-11-26T10:27:53Z</time>
      </trkpt>
      <trkpt lat="46.05944" lon="4.77844">
        <ele>211</ele>
        <time>2016-11-26T10:27:54Z</time>
      </trkpt>
      <trkpt lat="46.05947" lon="4.77848">
        <ele>211</ele>
        <time>2016-11-26T10:27:55Z</time>
      </trkpt>
      <trkpt lat="46.05951" lon="4.77853">
        <ele>211</ele>
        <time>2016-11-26T10:27:56Z</time>
      </trkpt>
      <trkpt lat="46.05956" lon="4.77863">
        <ele>211</ele>
        <time>2016-11-26T10:27:58Z</time>
      </trkpt>
      <trkpt lat="46.05958" lon="4.77868">
        <ele>211</ele>
        <time>2016-11-26T10:27:59Z</time>
      </trkpt>
      <trkpt lat="46.05962" lon="4.77876">
        <ele>211</ele>
        <time>2016-11-26T10:28:01Z</time>
      </trkpt>
      <trkpt lat="46.05964" lon="4.7788">
        <ele>211</ele>
        <time>2016-11-26T10:28:02Z</time>
      </trkpt>
      <trkpt lat="46.05969" lon="4.77889">
        <ele>211</ele>
        <time>2016-11-26T10:28:04Z</time>
      </trkpt>
      <trkpt lat="46.05972" lon="4.77894">
        <ele>211</ele>
        <time>2016-11-26T10:28:05Z</time>
      </trkpt>
      <trkpt lat="46.05975" lon="4.77899">
        <ele>211</ele>
        <time>2016-11-26T10:28:06Z</time>
      </trkpt>
      <trkpt lat="46.05978" lon="4.77905">
        <ele>211</ele>
        <time>2016-11-26T10:28:07Z</time>
      </trkpt>
      <trkpt lat="46.05981" lon="4.77911">
        <ele>211</ele>
        <time>2016-11-26T10:28:08Z</time>
      </trkpt>
      <trkpt lat="46.05984" lon="4.77917">
        <ele>212</ele>
        <time>2016-11-26T10:28:09Z</time>
      </trkpt>
      <trkpt lat="46.05986" lon="4.77923">
        <ele>212</ele>
        <time>2016-11-26T10:28:10Z</time>
      </trkpt>
      <trkpt lat="46.05989" lon="4.77929">
        <ele>212</ele>
        <time>2016-11-26T10:28:11Z</time>
      </trkpt>
      <trkpt lat="46.05992" lon="4.77935">
        <ele>212</ele>
        <time>2016-11-26T10:28:12Z</time>
      </trkpt>
      <trkpt lat="46.05995" lon="4.77942">
        <ele>212</ele>
        <time>2016-11-26T10:28:13Z</time>
      </trkpt>
      <trkpt lat="46.05997" lon="4.77948">
        <ele>212</ele>
        <time>2016-11-26T10:28:14Z</time>
      </trkpt>
      <trkpt lat="46.06001" lon="4.77954">
        <ele>211</ele>
        <time>2016-11-26T10:28:15Z</time>
      </trkpt>
      <trkpt lat="46.06004" lon="4.77966">
        <ele>211</ele>
        <time>2016-11-26T10:28:17Z</time>
      </trkpt>
      <trkpt lat="46.06008" lon="4.77969">
        <ele>211</ele>
        <time>2016-11-26T10:28:18Z</time>
      </trkpt>
      <trkpt lat="46.06013" lon="4.77973">
        <ele>211</ele>
        <time>2016-11-26T10:28:19Z</time>
      </trkpt>
      <trkpt lat="46.06018" lon="4.77978">
        <ele>211</ele>
        <time>2016-11-26T10:28:20Z</time>
      </trkpt>
      <trkpt lat="46.06022" lon="4.77982">
        <ele>211</ele>
        <time>2016-11-26T10:28:21Z</time>
      </trkpt>
      <trkpt lat="46.06026" lon="4.77988">
        <ele>211</ele>
        <time>2016-11-26T10:28:22Z</time>
      </trkpt>
      <trkpt lat="46.0603" lon="4.77994">
        <ele>211</ele>
        <time>2016-11-26T10:28:23Z</time>
      </trkpt>
      <trkpt lat="46.06034" lon="4.78">
        <ele>211</ele>
        <time>2016-11-26T10:28:24Z</time>
      </trkpt>
      <trkpt lat="46.06039" lon="4.78006">
        <ele>211</ele>
        <time>2016-11-26T10:28:25Z</time>
      </trkpt>
      <trkpt lat="46.06044" lon="4.78013">
        <ele>211</ele>
        <time>2016-11-26T10:28:26Z</time>
      </trkpt>
      <trkpt lat="46.06049" lon="4.78019">
        <ele>211</ele>
        <time>2016-11-26T10:28:27Z</time>
      </trkpt>
      <trkpt lat="46.06054" lon="4.78025">
        <ele>211</ele>
        <time>2016-11-26T10:28:28Z</time>
      </trkpt>
      <trkpt lat="46.06059" lon="4.78029">
        <ele>211</ele>
        <time>2016-11-26T10:28:29Z</time>
      </trkpt>
      <trkpt lat="46.06064" lon="4.78034">
        <ele>211</ele>
        <time>2016-11-26T10:28:30Z</time>
      </trkpt>
      <trkpt lat="46.06069" lon="4.78038">
        <ele>211</ele>
        <time>2016-11-26T10:28:31Z</time>
      </trkpt>
      <trkpt lat="46.06074" lon="4.78041">
        <ele>211</ele>
        <time>2016-11-26T10:28:32Z</time>
      </trkpt>
      <trkpt lat="46.06079" lon="4.78044">
        <ele>211</ele>
        <time>2016-11-26T10:28:33Z</time>
      </trkpt>
      <trkpt lat="46.06084" lon="4.78048">
        <ele>210</ele>
        <time>2016-11-26T10:28:34Z</time>
      </trkpt>
      <trkpt lat="46.06088" lon="4.78051">
        <ele>210</ele>
        <time>2016-11-26T10:28:35Z</time>
      </trkpt>
      <trkpt lat="46.06092" lon="4.78056">
        <ele>210</ele>
        <time>2016-11-26T10:28:36Z</time>
      </trkpt>
      <trkpt lat="46.06096" lon="4.7806">
        <ele>210</ele>
        <time>2016-11-26T10:28:37Z</time>
      </trkpt>
      <trkpt lat="46.06101" lon="4.78065">
        <ele>210</ele>
        <time>2016-11-26T10:28:38Z</time>
      </trkpt>
      <trkpt lat="46.06105" lon="4.78069">
        <ele>210</ele>
        <time>2016-11-26T10:28:39Z</time>
      </trkpt>
      <trkpt lat="46.06108" lon="4.78074">
        <ele>210</ele>
        <time>2016-11-26T10:28:40Z</time>
      </trkpt>
      <trkpt lat="46.06112" lon="4.78079">
        <ele>210</ele>
        <time>2016-11-26T10:28:41Z</time>
      </trkpt>
      <trkpt lat="46.06116" lon="4.78083">
        <ele>210</ele>
        <time>2016-11-26T10:28:42Z</time>
      </trkpt>
      <trkpt lat="46.0612" lon="4.78088">
        <ele>209</ele>
        <time>2016-11-26T10:28:43Z</time>
      </trkpt>
      <trkpt lat="46.06125" lon="4.78094">
        <ele>209</ele>
        <time>2016-11-26T10:28:44Z</time>
      </trkpt>
      <trkpt lat="46.0613" lon="4.781">
        <ele>209</ele>
        <time>2016-11-26T10:28:45Z</time>
      </trkpt>
      <trkpt lat="46.06135" lon="4.78106">
        <ele>209</ele>
        <time>2016-11-26T10:28:46Z</time>
      </trkpt>
      <trkpt lat="46.06141" lon="4.78113">
        <ele>208</ele>
        <time>2016-11-26T10:28:47Z</time>
      </trkpt>
      <trkpt lat="46.06147" lon="4.78118">
        <ele>208</ele>
        <time>2016-11-26T10:28:48Z</time>
      </trkpt>
      <trkpt lat="46.06153" lon="4.78123">
        <ele>208</ele>
        <time>2016-11-26T10:28:49Z</time>
      </trkpt>
      <trkpt lat="46.0616" lon="4.78128">
        <ele>208</ele>
        <time>2016-11-26T10:28:50Z</time>
      </trkpt>
      <trkpt lat="46.06166" lon="4.78132">
        <ele>208</ele>
        <time>2016-11-26T10:28:51Z</time>
      </trkpt>
      <trkpt lat="46.06173" lon="4.78137">
        <ele>206</ele>
        <time>2016-11-26T10:28:52Z</time>
      </trkpt>
      <trkpt lat="46.0618" lon="4.78142">
        <ele>206</ele>
        <time>2016-11-26T10:28:53Z</time>
      </trkpt>
      <trkpt lat="46.06187" lon="4.78146">
        <ele>206</ele>
        <time>2016-11-26T10:28:54Z</time>
      </trkpt>
      <trkpt lat="46.06194" lon="4.7815">
        <ele>205</ele>
        <time>2016-11-26T10:28:55Z</time>
      </trkpt>
      <trkpt lat="46.06201" lon="4.78155">
        <ele>205</ele>
        <time>2016-11-26T10:28:56Z</time>
      </trkpt>
      <trkpt lat="46.06208" lon="4.78161">
        <ele>205</ele>
        <time>2016-11-26T10:28:57Z</time>
      </trkpt>
      <trkpt lat="46.06215" lon="4.78166">
        <ele>205</ele>
        <time>2016-11-26T10:28:58Z</time>
      </trkpt>
      <trkpt lat="46.06222" lon="4.78171">
        <ele>206</ele>
        <time>2016-11-26T10:28:59Z</time>
      </trkpt>
      <trkpt lat="46.06228" lon="4.78175">
        <ele>206</ele>
        <time>2016-11-26T10:29:00Z</time>
      </trkpt>
      <trkpt lat="46.06234" lon="4.78179">
        <ele>206</ele>
        <time>2016-11-26T10:29:01Z</time>
      </trkpt>
      <trkpt lat="46.06241" lon="4.78183">
        <ele>206</ele>
        <time>2016-11-26T10:29:02Z</time>
      </trkpt>
      <trkpt lat="46.06247" lon="4.78187">
        <ele>206</ele>
        <time>2016-11-26T10:29:03Z</time>
      </trkpt>
      <trkpt lat="46.06253" lon="4.78192">
        <ele>205</ele>
        <time>2016-11-26T10:29:04Z</time>
      </trkpt>
      <trkpt lat="46.06258" lon="4.78196">
        <ele>205</ele>
        <time>2016-11-26T10:29:05Z</time>
      </trkpt>
      <trkpt lat="46.06264" lon="4.782">
        <ele>205</ele>
        <time>2016-11-26T10:29:06Z</time>
      </trkpt>
      <trkpt lat="46.06269" lon="4.78203">
        <ele>205</ele>
        <time>2016-11-26T10:29:07Z</time>
      </trkpt>
      <trkpt lat="46.06275" lon="4.78206">
        <ele>205</ele>
        <time>2016-11-26T10:29:08Z</time>
      </trkpt>
      <trkpt lat="46.0628" lon="4.7821">
        <ele>205</ele>
        <time>2016-11-26T10:29:09Z</time>
      </trkpt>
      <trkpt lat="46.06285" lon="4.78215">
        <ele>205</ele>
        <time>2016-11-26T10:29:10Z</time>
      </trkpt>
      <trkpt lat="46.0629" lon="4.78219">
        <ele>206</ele>
        <time>2016-11-26T10:29:11Z</time>
      </trkpt>
      <trkpt lat="46.06295" lon="4.78223">
        <ele>206</ele>
        <time>2016-11-26T10:29:12Z</time>
      </trkpt>
      <trkpt lat="46.063" lon="4.78227">
        <ele>206</ele>
        <time>2016-11-26T10:29:13Z</time>
      </trkpt>
      <trkpt lat="46.06305" lon="4.78231">
        <ele>206</ele>
        <time>2016-11-26T10:29:14Z</time>
      </trkpt>
      <trkpt lat="46.06311" lon="4.78234">
        <ele>206</ele>
        <time>2016-11-26T10:29:15Z</time>
      </trkpt>
      <trkpt lat="46.06316" lon="4.78237">
        <ele>206</ele>
        <time>2016-11-26T10:29:16Z</time>
      </trkpt>
      <trkpt lat="46.06322" lon="4.78239">
        <ele>206</ele>
        <time>2016-11-26T10:29:17Z</time>
      </trkpt>
      <trkpt lat="46.06327" lon="4.78241">
        <ele>206</ele>
        <time>2016-11-26T10:29:18Z</time>
      </trkpt>
      <trkpt lat="46.06332" lon="4.78242">
        <ele>206</ele>
        <time>2016-11-26T10:29:19Z</time>
      </trkpt>
      <trkpt lat="46.06336" lon="4.78243">
        <ele>206</ele>
        <time>2016-11-26T10:29:20Z</time>
      </trkpt>
      <trkpt lat="46.06345" lon="4.78242">
        <ele>205</ele>
        <time>2016-11-26T10:29:22Z</time>
      </trkpt>
      <trkpt lat="46.06348" lon="4.7824">
        <ele>205</ele>
        <time>2016-11-26T10:29:23Z</time>
      </trkpt>
      <trkpt lat="46.06352" lon="4.78237">
        <ele>205</ele>
        <time>2016-11-26T10:29:24Z</time>
      </trkpt>
      <trkpt lat="46.06356" lon="4.78233">
        <ele>205</ele>
        <time>2016-11-26T10:29:25Z</time>
      </trkpt>
      <trkpt lat="46.0636" lon="4.78229">
        <ele>205</ele>
        <time>2016-11-26T10:29:26Z</time>
      </trkpt>
      <trkpt lat="46.06365" lon="4.78224">
        <ele>205</ele>
        <time>2016-11-26T10:29:27Z</time>
      </trkpt>
      <trkpt lat="46.06369" lon="4.78219">
        <ele>204</ele>
        <time>2016-11-26T10:29:28Z</time>
      </trkpt>
      <trkpt lat="46.06374" lon="4.78213">
        <ele>204</ele>
        <time>2016-11-26T10:29:29Z</time>
      </trkpt>
      <trkpt lat="46.06378" lon="4.78207">
        <ele>204</ele>
        <time>2016-11-26T10:29:30Z</time>
      </trkpt>
      <trkpt lat="46.06382" lon="4.782">
        <ele>204</ele>
        <time>2016-11-26T10:29:31Z</time>
      </trkpt>
      <trkpt lat="46.06385" lon="4.78193">
        <ele>204</ele>
        <time>2016-11-26T10:29:32Z</time>
      </trkpt>
      <trkpt lat="46.06386" lon="4.78185">
        <ele>204</ele>
        <time>2016-11-26T10:29:33Z</time>
      </trkpt>
      <trkpt lat="46.06387" lon="4.78177">
        <ele>204</ele>
        <time>2016-11-26T10:29:34Z</time>
      </trkpt>
      <trkpt lat="46.06387" lon="4.78168">
        <ele>204</ele>
        <time>2016-11-26T10:29:35Z</time>
      </trkpt>
      <trkpt lat="46.06387" lon="4.78159">
        <ele>201</ele>
        <time>2016-11-26T10:29:36Z</time>
      </trkpt>
      <trkpt lat="46.06388" lon="4.7815">
        <ele>201</ele>
        <time>2016-11-26T10:29:37Z</time>
      </trkpt>
      <trkpt lat="46.06388" lon="4.7814">
        <ele>201</ele>
        <time>2016-11-26T10:29:38Z</time>
      </trkpt>
      <trkpt lat="46.06389" lon="4.78131">
        <ele>201</ele>
        <time>2016-11-26T10:29:39Z</time>
      </trkpt>
      <trkpt lat="46.06389" lon="4.78122">
        <ele>200</ele>
        <time>2016-11-26T10:29:40Z</time>
      </trkpt>
      <trkpt lat="46.0639" lon="4.78113">
        <ele>200</ele>
        <time>2016-11-26T10:29:41Z</time>
      </trkpt>
      <trkpt lat="46.06391" lon="4.78104">
        <ele>200</ele>
        <time>2016-11-26T10:29:42Z</time>
      </trkpt>
      <trkpt lat="46.06393" lon="4.78096">
        <ele>200</ele>
        <time>2016-11-26T10:29:43Z</time>
      </trkpt>
      <trkpt lat="46.06396" lon="4.78088">
        <ele>200</ele>
        <time>2016-11-26T10:29:44Z</time>
      </trkpt>
      <trkpt lat="46.06398" lon="4.78081">
        <ele>198</ele>
        <time>2016-11-26T10:29:45Z</time>
      </trkpt>
      <trkpt lat="46.06401" lon="4.78073">
        <ele>198</ele>
        <time>2016-11-26T10:29:46Z</time>
      </trkpt>
      <trkpt lat="46.06405" lon="4.78065">
        <ele>198</ele>
        <time>2016-11-26T10:29:47Z</time>
      </trkpt>
      <trkpt lat="46.06409" lon="4.78058">
        <ele>198</ele>
        <time>2016-11-26T10:29:48Z</time>
      </trkpt>
      <trkpt lat="46.06414" lon="4.78051">
        <ele>197</ele>
        <time>2016-11-26T10:29:49Z</time>
      </trkpt>
      <trkpt lat="46.06419" lon="4.78045">
        <ele>198</ele>
        <time>2016-11-26T10:29:50Z</time>
      </trkpt>
      <trkpt lat="46.06424" lon="4.78038">
        <ele>198</ele>
        <time>2016-11-26T10:29:51Z</time>
      </trkpt>
      <trkpt lat="46.0643" lon="4.78032">
        <ele>198</ele>
        <time>2016-11-26T10:29:52Z</time>
      </trkpt>
      <trkpt lat="46.06435" lon="4.78024">
        <ele>198</ele>
        <time>2016-11-26T10:29:53Z</time>
      </trkpt>
      <trkpt lat="46.06439" lon="4.78015">
        <ele>197</ele>
        <time>2016-11-26T10:29:54Z</time>
      </trkpt>
      <trkpt lat="46.06443" lon="4.78006">
        <ele>197</ele>
        <time>2016-11-26T10:29:55Z</time>
      </trkpt>
      <trkpt lat="46.06445" lon="4.77996">
        <ele>195</ele>
        <time>2016-11-26T10:29:56Z</time>
      </trkpt>
      <trkpt lat="46.06447" lon="4.77985">
        <ele>195</ele>
        <time>2016-11-26T10:29:57Z</time>
      </trkpt>
      <trkpt lat="46.06449" lon="4.77974">
        <ele>195</ele>
        <time>2016-11-26T10:29:58Z</time>
      </trkpt>
      <trkpt lat="46.06451" lon="4.77964">
        <ele>195</ele>
        <time>2016-11-26T10:29:59Z</time>
      </trkpt>
      <trkpt lat="46.06453" lon="4.77952">
        <ele>195</ele>
        <time>2016-11-26T10:30:00Z</time>
      </trkpt>
      <trkpt lat="46.06456" lon="4.77941">
        <ele>195</ele>
        <time>2016-11-26T10:30:01Z</time>
      </trkpt>
      <trkpt lat="46.0646" lon="4.7793">
        <ele>195</ele>
        <time>2016-11-26T10:30:02Z</time>
      </trkpt>
      <trkpt lat="46.06463" lon="4.7792">
        <ele>194</ele>
        <time>2016-11-26T10:30:03Z</time>
      </trkpt>
      <trkpt lat="46.06466" lon="4.77909">
        <ele>193</ele>
        <time>2016-11-26T10:30:04Z</time>
      </trkpt>
      <trkpt lat="46.0647" lon="4.77898">
        <ele>193</ele>
        <time>2016-11-26T10:30:05Z</time>
      </trkpt>
      <trkpt lat="46.06474" lon="4.77888">
        <ele>193</ele>
        <time>2016-11-26T10:30:06Z</time>
      </trkpt>
      <trkpt lat="46.06477" lon="4.77877">
        <ele>193</ele>
        <time>2016-11-26T10:30:07Z</time>
      </trkpt>
      <trkpt lat="46.06481" lon="4.77865">
        <ele>192</ele>
        <time>2016-11-26T10:30:08Z</time>
      </trkpt>
      <trkpt lat="46.06485" lon="4.77854">
        <ele>192</ele>
        <time>2016-11-26T10:30:09Z</time>
      </trkpt>
      <trkpt lat="46.06489" lon="4.77843">
        <ele>192</ele>
        <time>2016-11-26T10:30:10Z</time>
      </trkpt>
      <trkpt lat="46.06493" lon="4.77832">
        <ele>192</ele>
        <time>2016-11-26T10:30:11Z</time>
      </trkpt>
      <trkpt lat="46.06497" lon="4.77821">
        <ele>192</ele>
        <time>2016-11-26T10:30:12Z</time>
      </trkpt>
      <trkpt lat="46.06502" lon="4.77811">
        <ele>192</ele>
        <time>2016-11-26T10:30:13Z</time>
      </trkpt>
      <trkpt lat="46.06507" lon="4.77801">
        <ele>192</ele>
        <time>2016-11-26T10:30:14Z</time>
      </trkpt>
      <trkpt lat="46.06512" lon="4.77791">
        <ele>192</ele>
        <time>2016-11-26T10:30:15Z</time>
      </trkpt>
      <trkpt lat="46.06518" lon="4.77781">
        <ele>192</ele>
        <time>2016-11-26T10:30:16Z</time>
      </trkpt>
      <trkpt lat="46.06523" lon="4.77772">
        <ele>192</ele>
        <time>2016-11-26T10:30:17Z</time>
      </trkpt>
      <trkpt lat="46.06528" lon="4.77762">
        <ele>192</ele>
        <time>2016-11-26T10:30:18Z</time>
      </trkpt>
      <trkpt lat="46.06533" lon="4.77752">
        <ele>191</ele>
        <time>2016-11-26T10:30:19Z</time>
      </trkpt>
      <trkpt lat="46.06538" lon="4.77743">
        <ele>190</ele>
        <time>2016-11-26T10:30:20Z</time>
      </trkpt>
      <trkpt lat="46.06542" lon="4.77733">
        <ele>190</ele>
        <time>2016-11-26T10:30:21Z</time>
      </trkpt>
      <trkpt lat="46.06547" lon="4.77724">
        <ele>189</ele>
        <time>2016-11-26T10:30:22Z</time>
      </trkpt>
      <trkpt lat="46.06553" lon="4.77716">
        <ele>189</ele>
        <time>2016-11-26T10:30:23Z</time>
      </trkpt>
      <trkpt lat="46.06559" lon="4.77709">
        <ele>189</ele>
        <time>2016-11-26T10:30:24Z</time>
      </trkpt>
      <trkpt lat="46.06565" lon="4.77704">
        <ele>189</ele>
        <time>2016-11-26T10:30:25Z</time>
      </trkpt>
      <trkpt lat="46.06572" lon="4.77699">
        <ele>188</ele>
        <time>2016-11-26T10:30:26Z</time>
      </trkpt>
      <trkpt lat="46.06579" lon="4.77695">
        <ele>188</ele>
        <time>2016-11-26T10:30:27Z</time>
      </trkpt>
      <trkpt lat="46.06586" lon="4.77691">
        <ele>187</ele>
        <time>2016-11-26T10:30:28Z</time>
      </trkpt>
      <trkpt lat="46.06593" lon="4.77687">
        <ele>187</ele>
        <time>2016-11-26T10:30:29Z</time>
      </trkpt>
      <trkpt lat="46.06601" lon="4.77684">
        <ele>187</ele>
        <time>2016-11-26T10:30:30Z</time>
      </trkpt>
      <trkpt lat="46.06608" lon="4.77679">
        <ele>187</ele>
        <time>2016-11-26T10:30:31Z</time>
      </trkpt>
      <trkpt lat="46.06615" lon="4.77672">
        <ele>187</ele>
        <time>2016-11-26T10:30:32Z</time>
      </trkpt>
      <trkpt lat="46.0662" lon="4.77664">
        <ele>185</ele>
        <time>2016-11-26T10:30:33Z</time>
      </trkpt>
      <trkpt lat="46.06624" lon="4.77655">
        <ele>185</ele>
        <time>2016-11-26T10:30:34Z</time>
      </trkpt>
      <trkpt lat="46.06627" lon="4.77645">
        <ele>185</ele>
        <time>2016-11-26T10:30:35Z</time>
      </trkpt>
      <trkpt lat="46.06629" lon="4.77635">
        <ele>185</ele>
        <time>2016-11-26T10:30:36Z</time>
      </trkpt>
      <trkpt lat="46.06631" lon="4.77624">
        <ele>185</ele>
        <time>2016-11-26T10:30:37Z</time>
      </trkpt>
      <trkpt lat="46.06632" lon="4.77612">
        <ele>185</ele>
        <time>2016-11-26T10:30:38Z</time>
      </trkpt>
      <trkpt lat="46.06633" lon="4.77601">
        <ele>185</ele>
        <time>2016-11-26T10:30:39Z</time>
      </trkpt>
      <trkpt lat="46.06633" lon="4.77589">
        <ele>184</ele>
        <time>2016-11-26T10:30:40Z</time>
      </trkpt>
      <trkpt lat="46.06633" lon="4.77577">
        <ele>183</ele>
        <time>2016-11-26T10:30:41Z</time>
      </trkpt>
      <trkpt lat="46.06632" lon="4.77564">
        <ele>183</ele>
        <time>2016-11-26T10:30:42Z</time>
      </trkpt>
      <trkpt lat="46.06631" lon="4.77552">
        <ele>183</ele>
        <time>2016-11-26T10:30:43Z</time>
      </trkpt>
      <trkpt lat="46.06629" lon="4.7754">
        <ele>183</ele>
        <time>2016-11-26T10:30:44Z</time>
      </trkpt>
      <trkpt lat="46.06625" lon="4.77528">
        <ele>183</ele>
        <time>2016-11-26T10:30:45Z</time>
      </trkpt>
      <trkpt lat="46.06621" lon="4.77517">
        <ele>183</ele>
        <time>2016-11-26T10:30:46Z</time>
      </trkpt>
      <trkpt lat="46.06616" lon="4.77506">
        <ele>183</ele>
        <time>2016-11-26T10:30:47Z</time>
      </trkpt>
      <trkpt lat="46.06611" lon="4.77496">
        <ele>181</ele>
        <time>2016-11-26T10:30:48Z</time>
      </trkpt>
      <trkpt lat="46.06606" lon="4.77485">
        <ele>181</ele>
        <time>2016-11-26T10:30:49Z</time>
      </trkpt>
      <trkpt lat="46.06601" lon="4.77475">
        <ele>181</ele>
        <time>2016-11-26T10:30:50Z</time>
      </trkpt>
      <trkpt lat="46.06598" lon="4.77464">
        <ele>180</ele>
        <time>2016-11-26T10:30:51Z</time>
      </trkpt>
      <trkpt lat="46.06596" lon="4.77451">
        <ele>180</ele>
        <time>2016-11-26T10:30:52Z</time>
      </trkpt>
      <trkpt lat="46.06598" lon="4.7744">
        <ele>180</ele>
        <time>2016-11-26T10:30:53Z</time>
      </trkpt>
      <trkpt lat="46.06602" lon="4.7743">
        <ele>179</ele>
        <time>2016-11-26T10:30:54Z</time>
      </trkpt>
      <trkpt lat="46.06607" lon="4.7742">
        <ele>179</ele>
        <time>2016-11-26T10:30:55Z</time>
      </trkpt>
      <trkpt lat="46.06612" lon="4.7741">
        <ele>177</ele>
        <time>2016-11-26T10:30:56Z</time>
      </trkpt>
      <trkpt lat="46.06616" lon="4.774">
        <ele>177</ele>
        <time>2016-11-26T10:30:57Z</time>
      </trkpt>
      <trkpt lat="46.0662" lon="4.7739">
        <ele>177</ele>
        <time>2016-11-26T10:30:58Z</time>
      </trkpt>
      <trkpt lat="46.06624" lon="4.7738">
        <ele>176</ele>
        <time>2016-11-26T10:30:59Z</time>
      </trkpt>
      <trkpt lat="46.06628" lon="4.7737">
        <ele>176</ele>
        <time>2016-11-26T10:31:00Z</time>
      </trkpt>
      <trkpt lat="46.06631" lon="4.77361">
        <ele>176</ele>
        <time>2016-11-26T10:31:01Z</time>
      </trkpt>
      <trkpt lat="46.06635" lon="4.77351">
        <ele>176</ele>
        <time>2016-11-26T10:31:02Z</time>
      </trkpt>
      <trkpt lat="46.06639" lon="4.77342">
        <ele>176</ele>
        <time>2016-11-26T10:31:03Z</time>
      </trkpt>
      <trkpt lat="46.06643" lon="4.77333">
        <ele>174</ele>
        <time>2016-11-26T10:31:04Z</time>
      </trkpt>
      <trkpt lat="46.06646" lon="4.77325">
        <ele>174</ele>
        <time>2016-11-26T10:31:05Z</time>
      </trkpt>
      <trkpt lat="46.0665" lon="4.77316">
        <ele>174</ele>
        <time>2016-11-26T10:31:06Z</time>
      </trkpt>
      <trkpt lat="46.06654" lon="4.77308">
        <ele>174</ele>
        <time>2016-11-26T10:31:07Z</time>
      </trkpt>
      <trkpt lat="46.06657" lon="4.773">
        <ele>174</ele>
        <time>2016-11-26T10:31:08Z</time>
      </trkpt>
      <trkpt lat="46.0666" lon="4.77292">
        <ele>174</ele>
        <time>2016-11-26T10:31:09Z</time>
      </trkpt>
      <trkpt lat="46.06663" lon="4.77284">
        <ele>174</ele>
        <time>2016-11-26T10:31:10Z</time>
      </trkpt>
      <trkpt lat="46.06667" lon="4.77276">
        <ele>174</ele>
        <time>2016-11-26T10:31:11Z</time>
      </trkpt>
      <trkpt lat="46.0667" lon="4.77268">
        <ele>173</ele>
        <time>2016-11-26T10:31:12Z</time>
      </trkpt>
      <trkpt lat="46.06673" lon="4.77261">
        <ele>173</ele>
        <time>2016-11-26T10:31:13Z</time>
      </trkpt>
      <trkpt lat="46.06676" lon="4.77253">
        <ele>173</ele>
        <time>2016-11-26T10:31:14Z</time>
      </trkpt>
      <trkpt lat="46.06678" lon="4.77246">
        <ele>173</ele>
        <time>2016-11-26T10:31:15Z</time>
      </trkpt>
      <trkpt lat="46.06681" lon="4.77238">
        <ele>172</ele>
        <time>2016-11-26T10:31:16Z</time>
      </trkpt>
      <trkpt lat="46.06684" lon="4.77231">
        <ele>172</ele>
        <time>2016-11-26T10:31:17Z</time>
      </trkpt>
      <trkpt lat="46.06686" lon="4.77224">
        <ele>172</ele>
        <time>2016-11-26T10:31:18Z</time>
      </trkpt>
      <trkpt lat="46.06688" lon="4.77217">
        <ele>172</ele>
        <time>2016-11-26T10:31:19Z</time>
      </trkpt>
      <trkpt lat="46.06691" lon="4.77211">
        <ele>172</ele>
        <time>2016-11-26T10:31:20Z</time>
      </trkpt>
      <trkpt lat="46.06695" lon="4.77206">
        <ele>172</ele>
        <time>2016-11-26T10:31:21Z</time>
      </trkpt>
      <trkpt lat="46.06699" lon="4.77203">
        <ele>172</ele>
        <time>2016-11-26T10:31:22Z</time>
      </trkpt>
      <trkpt lat="46.06704" lon="4.77201">
        <ele>172</ele>
        <time>2016-11-26T10:31:23Z</time>
      </trkpt>
      <trkpt lat="46.06709" lon="4.77199">
        <ele>172</ele>
        <time>2016-11-26T10:31:24Z</time>
      </trkpt>
      <trkpt lat="46.06714" lon="4.77197">
        <ele>172</ele>
        <time>2016-11-26T10:31:25Z</time>
      </trkpt>
      <trkpt lat="46.0672" lon="4.77195">
        <ele>172</ele>
        <time>2016-11-26T10:31:26Z</time>
      </trkpt>
      <trkpt lat="46.06726" lon="4.77192">
        <ele>172</ele>
        <time>2016-11-26T10:31:27Z</time>
      </trkpt>
      <trkpt lat="46.06731" lon="4.77189">
        <ele>172</ele>
        <time>2016-11-26T10:31:28Z</time>
      </trkpt>
      <trkpt lat="46.06737" lon="4.77186">
        <ele>172</ele>
        <time>2016-11-26T10:31:29Z</time>
      </trkpt>
      <trkpt lat="46.06743" lon="4.77181">
        <ele>172</ele>
        <time>2016-11-26T10:31:30Z</time>
      </trkpt>
      <trkpt lat="46.06748" lon="4.77177">
        <ele>172</ele>
        <time>2016-11-26T10:31:31Z</time>
      </trkpt>
      <trkpt lat="46.06754" lon="4.77172">
        <ele>172</ele>
        <time>2016-11-26T10:31:32Z</time>
      </trkpt>
      <trkpt lat="46.06759" lon="4.77167">
        <ele>172</ele>
        <time>2016-11-26T10:31:33Z</time>
      </trkpt>
      <trkpt lat="46.06763" lon="4.77162">
        <ele>172</ele>
        <time>2016-11-26T10:31:34Z</time>
      </trkpt>
      <trkpt lat="46.06768" lon="4.77157">
        <ele>172</ele>
        <time>2016-11-26T10:31:35Z</time>
      </trkpt>
      <trkpt lat="46.06773" lon="4.77152">
        <ele>172</ele>
        <time>2016-11-26T10:31:36Z</time>
      </trkpt>
      <trkpt lat="46.06777" lon="4.77147">
        <ele>172</ele>
        <time>2016-11-26T10:31:37Z</time>
      </trkpt>
      <trkpt lat="46.06781" lon="4.77141">
        <ele>172</ele>
        <time>2016-11-26T10:31:38Z</time>
      </trkpt>
      <trkpt lat="46.06786" lon="4.77136">
        <ele>172</ele>
        <time>2016-11-26T10:31:39Z</time>
      </trkpt>
      <trkpt lat="46.0679" lon="4.77131">
        <ele>172</ele>
        <time>2016-11-26T10:31:40Z</time>
      </trkpt>
      <trkpt lat="46.06795" lon="4.77126">
        <ele>172</ele>
        <time>2016-11-26T10:31:41Z</time>
      </trkpt>
      <trkpt lat="46.068" lon="4.77121">
        <ele>172</ele>
        <time>2016-11-26T10:31:42Z</time>
      </trkpt>
      <trkpt lat="46.06805" lon="4.77117">
        <ele>172</ele>
        <time>2016-11-26T10:31:43Z</time>
      </trkpt>
      <trkpt lat="46.0681" lon="4.77112">
        <ele>172</ele>
        <time>2016-11-26T10:31:44Z</time>
      </trkpt>
      <trkpt lat="46.06816" lon="4.77108">
        <ele>172</ele>
        <time>2016-11-26T10:31:45Z</time>
      </trkpt>
      <trkpt lat="46.06821" lon="4.77104">
        <ele>173</ele>
        <time>2016-11-26T10:31:46Z</time>
      </trkpt>
      <trkpt lat="46.06827" lon="4.771">
        <ele>173</ele>
        <time>2016-11-26T10:31:47Z</time>
      </trkpt>
      <trkpt lat="46.06832" lon="4.77097">
        <ele>173</ele>
        <time>2016-11-26T10:31:48Z</time>
      </trkpt>
      <trkpt lat="46.06838" lon="4.77093">
        <ele>173</ele>
        <time>2016-11-26T10:31:49Z</time>
      </trkpt>
      <trkpt lat="46.06843" lon="4.7709">
        <ele>173</ele>
        <time>2016-11-26T10:31:50Z</time>
      </trkpt>
      <trkpt lat="46.06849" lon="4.77087">
        <ele>173</ele>
        <time>2016-11-26T10:31:51Z</time>
      </trkpt>
      <trkpt lat="46.06855" lon="4.77084">
        <ele>173</ele>
        <time>2016-11-26T10:31:52Z</time>
      </trkpt>
      <trkpt lat="46.06861" lon="4.77083">
        <ele>173</ele>
        <time>2016-11-26T10:31:53Z</time>
      </trkpt>
      <trkpt lat="46.06867" lon="4.77081">
        <ele>173</ele>
        <time>2016-11-26T10:31:54Z</time>
      </trkpt>
      <trkpt lat="46.06874" lon="4.7708">
        <ele>173</ele>
        <time>2016-11-26T10:31:55Z</time>
      </trkpt>
      <trkpt lat="46.0688" lon="4.77079">
        <ele>173</ele>
        <time>2016-11-26T10:31:56Z</time>
      </trkpt>
      <trkpt lat="46.06886" lon="4.77078">
        <ele>173</ele>
        <time>2016-11-26T10:31:57Z</time>
      </trkpt>
      <trkpt lat="46.06892" lon="4.77078">
        <ele>173</ele>
        <time>2016-11-26T10:31:58Z</time>
      </trkpt>
      <trkpt lat="46.06899" lon="4.77077">
        <ele>173</ele>
        <time>2016-11-26T10:31:59Z</time>
      </trkpt>
      <trkpt lat="46.06905" lon="4.77077">
        <ele>173</ele>
        <time>2016-11-26T10:32:00Z</time>
      </trkpt>
      <trkpt lat="46.06911" lon="4.77077">
        <ele>173</ele>
        <time>2016-11-26T10:32:01Z</time>
      </trkpt>
      <trkpt lat="46.06917" lon="4.77077">
        <ele>173</ele>
        <time>2016-11-26T10:32:02Z</time>
      </trkpt>
      <trkpt lat="46.06923" lon="4.77077">
        <ele>173</ele>
        <time>2016-11-26T10:32:03Z</time>
      </trkpt>
      <trkpt lat="46.06928" lon="4.77077">
        <ele>173</ele>
        <time>2016-11-26T10:32:04Z</time>
      </trkpt>
      <trkpt lat="46.06934" lon="4.77078">
        <ele>173</ele>
        <time>2016-11-26T10:32:05Z</time>
      </trkpt>
      <trkpt lat="46.06939" lon="4.77078">
        <ele>173</ele>
        <time>2016-11-26T10:32:06Z</time>
      </trkpt>
      <trkpt lat="46.06945" lon="4.77077">
        <ele>173</ele>
        <time>2016-11-26T10:32:07Z</time>
      </trkpt>
      <trkpt lat="46.06951" lon="4.77075">
        <ele>173</ele>
        <time>2016-11-26T10:32:08Z</time>
      </trkpt>
      <trkpt lat="46.06956" lon="4.77074">
        <ele>173</ele>
        <time>2016-11-26T10:32:09Z</time>
      </trkpt>
      <trkpt lat="46.06962" lon="4.77073">
        <ele>173</ele>
        <time>2016-11-26T10:32:10Z</time>
      </trkpt>
      <trkpt lat="46.06968" lon="4.77072">
        <ele>173</ele>
        <time>2016-11-26T10:32:11Z</time>
      </trkpt>
      <trkpt lat="46.06973" lon="4.77071">
        <ele>173</ele>
        <time>2016-11-26T10:32:12Z</time>
      </trkpt>
      <trkpt lat="46.06979" lon="4.7707">
        <ele>173</ele>
        <time>2016-11-26T10:32:13Z</time>
      </trkpt>
      <trkpt lat="46.06984" lon="4.77067">
        <ele>174</ele>
        <time>2016-11-26T10:32:14Z</time>
      </trkpt>
      <trkpt lat="46.06987" lon="4.77062">
        <ele>173</ele>
        <time>2016-11-26T10:32:15Z</time>
      </trkpt>
      <trkpt lat="46.0699" lon="4.77054">
        <ele>173</ele>
        <time>2016-11-26T10:32:16Z</time>
      </trkpt>
      <trkpt lat="46.06992" lon="4.77046">
        <ele>173</ele>
        <time>2016-11-26T10:32:17Z</time>
      </trkpt>
      <trkpt lat="46.06994" lon="4.77038">
        <ele>173</ele>
        <time>2016-11-26T10:32:18Z</time>
      </trkpt>
      <trkpt lat="46.06996" lon="4.7703">
        <ele>173</ele>
        <time>2016-11-26T10:32:19Z</time>
      </trkpt>
      <trkpt lat="46.07" lon="4.77023">
        <ele>173</ele>
        <time>2016-11-26T10:32:20Z</time>
      </trkpt>
      <trkpt lat="46.07004" lon="4.77016">
        <ele>174</ele>
        <time>2016-11-26T10:32:21Z</time>
      </trkpt>
      <trkpt lat="46.07008" lon="4.77009">
        <ele>173</ele>
        <time>2016-11-26T10:32:22Z</time>
      </trkpt>
      <trkpt lat="46.07011" lon="4.77002">
        <ele>173</ele>
        <time>2016-11-26T10:32:23Z</time>
      </trkpt>
      <trkpt lat="46.07015" lon="4.76995">
        <ele>173</ele>
        <time>2016-11-26T10:32:24Z</time>
      </trkpt>
      <trkpt lat="46.07019" lon="4.76988">
        <ele>173</ele>
        <time>2016-11-26T10:32:25Z</time>
      </trkpt>
      <trkpt lat="46.07022" lon="4.76981">
        <ele>173</ele>
        <time>2016-11-26T10:32:26Z</time>
      </trkpt>
      <trkpt lat="46.07026" lon="4.76973">
        <ele>173</ele>
        <time>2016-11-26T10:32:27Z</time>
      </trkpt>
      <trkpt lat="46.07029" lon="4.76966">
        <ele>173</ele>
        <time>2016-11-26T10:32:28Z</time>
      </trkpt>
      <trkpt lat="46.07033" lon="4.76958">
        <ele>173</ele>
        <time>2016-11-26T10:32:29Z</time>
      </trkpt>
      <trkpt lat="46.07036" lon="4.76951">
        <ele>173</ele>
        <time>2016-11-26T10:32:30Z</time>
      </trkpt>
      <trkpt lat="46.0704" lon="4.76943">
        <ele>173</ele>
        <time>2016-11-26T10:32:31Z</time>
      </trkpt>
      <trkpt lat="46.07044" lon="4.76936">
        <ele>173</ele>
        <time>2016-11-26T10:32:32Z</time>
      </trkpt>
      <trkpt lat="46.07048" lon="4.76928">
        <ele>173</ele>
        <time>2016-11-26T10:32:33Z</time>
      </trkpt>
      <trkpt lat="46.07052" lon="4.7692">
        <ele>173</ele>
        <time>2016-11-26T10:32:34Z</time>
      </trkpt>
      <trkpt lat="46.07056" lon="4.76912">
        <ele>172</ele>
        <time>2016-11-26T10:32:35Z</time>
      </trkpt>
      <trkpt lat="46.0706" lon="4.76905">
        <ele>172</ele>
        <time>2016-11-26T10:32:36Z</time>
      </trkpt>
      <trkpt lat="46.07064" lon="4.76897">
        <ele>172</ele>
        <time>2016-11-26T10:32:37Z</time>
      </trkpt>
      <trkpt lat="46.07068" lon="4.7689">
        <ele>172</ele>
        <time>2016-11-26T10:32:38Z</time>
      </trkpt>
      <trkpt lat="46.07071" lon="4.76883">
        <ele>172</ele>
        <time>2016-11-26T10:32:39Z</time>
      </trkpt>
      <trkpt lat="46.07075" lon="4.76876">
        <ele>172</ele>
        <time>2016-11-26T10:32:40Z</time>
      </trkpt>
      <trkpt lat="46.07078" lon="4.76869">
        <ele>172</ele>
        <time>2016-11-26T10:32:41Z</time>
      </trkpt>
      <trkpt lat="46.07081" lon="4.76863">
        <ele>172</ele>
        <time>2016-11-26T10:32:42Z</time>
      </trkpt>
      <trkpt lat="46.07084" lon="4.76857">
        <ele>173</ele>
        <time>2016-11-26T10:32:43Z</time>
      </trkpt>
      <trkpt lat="46.07088" lon="4.76851">
        <ele>172</ele>
        <time>2016-11-26T10:32:44Z</time>
      </trkpt>
      <trkpt lat="46.07091" lon="4.76844">
        <ele>172</ele>
        <time>2016-11-26T10:32:45Z</time>
      </trkpt>
      <trkpt lat="46.07094" lon="4.76838">
        <ele>172</ele>
        <time>2016-11-26T10:32:46Z</time>
      </trkpt>
      <trkpt lat="46.07097" lon="4.76832">
        <ele>172</ele>
        <time>2016-11-26T10:32:47Z</time>
      </trkpt>
      <trkpt lat="46.071" lon="4.76826">
        <ele>172</ele>
        <time>2016-11-26T10:32:48Z</time>
      </trkpt>
      <trkpt lat="46.07103" lon="4.76819">
        <ele>172</ele>
        <time>2016-11-26T10:32:49Z</time>
      </trkpt>
      <trkpt lat="46.07107" lon="4.76813">
        <ele>172</ele>
        <time>2016-11-26T10:32:50Z</time>
      </trkpt>
      <trkpt lat="46.0711" lon="4.76807">
        <ele>172</ele>
        <time>2016-11-26T10:32:51Z</time>
      </trkpt>
      <trkpt lat="46.07113" lon="4.76801">
        <ele>172</ele>
        <time>2016-11-26T10:32:52Z</time>
      </trkpt>
      <trkpt lat="46.07116" lon="4.76794">
        <ele>172</ele>
        <time>2016-11-26T10:32:53Z</time>
      </trkpt>
      <trkpt lat="46.0712" lon="4.76788">
        <ele>171</ele>
        <time>2016-11-26T10:32:54Z</time>
      </trkpt>
      <trkpt lat="46.07123" lon="4.76781">
        <ele>171</ele>
        <time>2016-11-26T10:32:55Z</time>
      </trkpt>
      <trkpt lat="46.07127" lon="4.76775">
        <ele>171</ele>
        <time>2016-11-26T10:32:56Z</time>
      </trkpt>
      <trkpt lat="46.0713" lon="4.76769">
        <ele>171</ele>
        <time>2016-11-26T10:32:57Z</time>
      </trkpt>
      <trkpt lat="46.07133" lon="4.76762">
        <ele>171</ele>
        <time>2016-11-26T10:32:58Z</time>
      </trkpt>
      <trkpt lat="46.07137" lon="4.76755">
        <ele>171</ele>
        <time>2016-11-26T10:32:59Z</time>
      </trkpt>
      <trkpt lat="46.0714" lon="4.76749">
        <ele>171</ele>
        <time>2016-11-26T10:33:00Z</time>
      </trkpt>
      <trkpt lat="46.07143" lon="4.76743">
        <ele>171</ele>
        <time>2016-11-26T10:33:01Z</time>
      </trkpt>
      <trkpt lat="46.07146" lon="4.76737">
        <ele>171</ele>
        <time>2016-11-26T10:33:02Z</time>
      </trkpt>
      <trkpt lat="46.07148" lon="4.76731">
        <ele>171</ele>
        <time>2016-11-26T10:33:03Z</time>
      </trkpt>
      <trkpt lat="46.07151" lon="4.76726">
        <ele>170</ele>
        <time>2016-11-26T10:33:04Z</time>
      </trkpt>
      <trkpt lat="46.07154" lon="4.7672">
        <ele>170</ele>
        <time>2016-11-26T10:33:05Z</time>
      </trkpt>
      <trkpt lat="46.07158" lon="4.76714">
        <ele>170</ele>
        <time>2016-11-26T10:33:06Z</time>
      </trkpt>
      <trkpt lat="46.07161" lon="4.76708">
        <ele>170</ele>
        <time>2016-11-26T10:33:07Z</time>
      </trkpt>
      <trkpt lat="46.07164" lon="4.76701">
        <ele>170</ele>
        <time>2016-11-26T10:33:08Z</time>
      </trkpt>
      <trkpt lat="46.07168" lon="4.76694">
        <ele>171</ele>
        <time>2016-11-26T10:33:09Z</time>
      </trkpt>
      <trkpt lat="46.07172" lon="4.76687">
        <ele>170</ele>
        <time>2016-11-26T10:33:10Z</time>
      </trkpt>
      <trkpt lat="46.07175" lon="4.7668">
        <ele>170</ele>
        <time>2016-11-26T10:33:11Z</time>
      </trkpt>
      <trkpt lat="46.07179" lon="4.76672">
        <ele>170</ele>
        <time>2016-11-26T10:33:12Z</time>
      </trkpt>
      <trkpt lat="46.07183" lon="4.76664">
        <ele>170</ele>
        <time>2016-11-26T10:33:13Z</time>
      </trkpt>
      <trkpt lat="46.07188" lon="4.76657">
        <ele>170</ele>
        <time>2016-11-26T10:33:14Z</time>
      </trkpt>
      <trkpt lat="46.07192" lon="4.76649">
        <ele>170</ele>
        <time>2016-11-26T10:33:15Z</time>
      </trkpt>
      <trkpt lat="46.07197" lon="4.76642">
        <ele>170</ele>
        <time>2016-11-26T10:33:16Z</time>
      </trkpt>
      <trkpt lat="46.07202" lon="4.76635">
        <ele>170</ele>
        <time>2016-11-26T10:33:17Z</time>
      </trkpt>
      <trkpt lat="46.07207" lon="4.76628">
        <ele>170</ele>
        <time>2016-11-26T10:33:18Z</time>
      </trkpt>
      <trkpt lat="46.07212" lon="4.76622">
        <ele>170</ele>
        <time>2016-11-26T10:33:19Z</time>
      </trkpt>
      <trkpt lat="46.07216" lon="4.76616">
        <ele>170</ele>
        <time>2016-11-26T10:33:20Z</time>
      </trkpt>
      <trkpt lat="46.07221" lon="4.7661">
        <ele>170</ele>
        <time>2016-11-26T10:33:21Z</time>
      </trkpt>
      <trkpt lat="46.07225" lon="4.76605">
        <ele>170</ele>
        <time>2016-11-26T10:33:22Z</time>
      </trkpt>
      <trkpt lat="46.07229" lon="4.76599">
        <ele>170</ele>
        <time>2016-11-26T10:33:23Z</time>
      </trkpt>
      <trkpt lat="46.07233" lon="4.76594">
        <ele>170</ele>
        <time>2016-11-26T10:33:24Z</time>
      </trkpt>
      <trkpt lat="46.07237" lon="4.7659">
        <ele>170</ele>
        <time>2016-11-26T10:33:25Z</time>
      </trkpt>
      <trkpt lat="46.07242" lon="4.76585">
        <ele>170</ele>
        <time>2016-11-26T10:33:26Z</time>
      </trkpt>
      <trkpt lat="46.07246" lon="4.76579">
        <ele>170</ele>
        <time>2016-11-26T10:33:27Z</time>
      </trkpt>
      <trkpt lat="46.0725" lon="4.76573">
        <ele>170</ele>
        <time>2016-11-26T10:33:28Z</time>
      </trkpt>
      <trkpt lat="46.07255" lon="4.76567">
        <ele>170</ele>
        <time>2016-11-26T10:33:29Z</time>
      </trkpt>
      <trkpt lat="46.0726" lon="4.76561">
        <ele>170</ele>
        <time>2016-11-26T10:33:30Z</time>
      </trkpt>
      <trkpt lat="46.07265" lon="4.76555">
        <ele>170</ele>
        <time>2016-11-26T10:33:31Z</time>
      </trkpt>
      <trkpt lat="46.0727" lon="4.76549">
        <ele>170</ele>
        <time>2016-11-26T10:33:32Z</time>
      </trkpt>
      <trkpt lat="46.07276" lon="4.76543">
        <ele>170</ele>
        <time>2016-11-26T10:33:33Z</time>
      </trkpt>
      <trkpt lat="46.07281" lon="4.76537">
        <ele>170</ele>
        <time>2016-11-26T10:33:34Z</time>
      </trkpt>
      <trkpt lat="46.07287" lon="4.76531">
        <ele>170</ele>
        <time>2016-11-26T10:33:35Z</time>
      </trkpt>
      <trkpt lat="46.07292" lon="4.76525">
        <ele>170</ele>
        <time>2016-11-26T10:33:36Z</time>
      </trkpt>
      <trkpt lat="46.07298" lon="4.7652">
        <ele>170</ele>
        <time>2016-11-26T10:33:37Z</time>
      </trkpt>
      <trkpt lat="46.07303" lon="4.76515">
        <ele>170</ele>
        <time>2016-11-26T10:33:38Z</time>
      </trkpt>
      <trkpt lat="46.07308" lon="4.76509">
        <ele>170</ele>
        <time>2016-11-26T10:33:39Z</time>
      </trkpt>
      <trkpt lat="46.07313" lon="4.76504">
        <ele>170</ele>
        <time>2016-11-26T10:33:40Z</time>
      </trkpt>
      <trkpt lat="46.07318" lon="4.76499">
        <ele>170</ele>
        <time>2016-11-26T10:33:41Z</time>
      </trkpt>
      <trkpt lat="46.07323" lon="4.76494">
        <ele>170</ele>
        <time>2016-11-26T10:33:42Z</time>
      </trkpt>
      <trkpt lat="46.07328" lon="4.76489">
        <ele>170</ele>
        <time>2016-11-26T10:33:43Z</time>
      </trkpt>
      <trkpt lat="46.07333" lon="4.76484">
        <ele>170</ele>
        <time>2016-11-26T10:33:44Z</time>
      </trkpt>
      <trkpt lat="46.07337" lon="4.76479">
        <ele>171</ele>
        <time>2016-11-26T10:33:45Z</time>
      </trkpt>
      <trkpt lat="46.07342" lon="4.76475">
        <ele>171</ele>
        <time>2016-11-26T10:33:46Z</time>
      </trkpt>
      <trkpt lat="46.07347" lon="4.7647">
        <ele>171</ele>
        <time>2016-11-26T10:33:47Z</time>
      </trkpt>
      <trkpt lat="46.07351" lon="4.76465">
        <ele>171</ele>
        <time>2016-11-26T10:33:48Z</time>
      </trkpt>
      <trkpt lat="46.07356" lon="4.76461">
        <ele>171</ele>
        <time>2016-11-26T10:33:49Z</time>
      </trkpt>
      <trkpt lat="46.07361" lon="4.76455">
        <ele>171</ele>
        <time>2016-11-26T10:33:50Z</time>
      </trkpt>
      <trkpt lat="46.07366" lon="4.7645">
        <ele>171</ele>
        <time>2016-11-26T10:33:51Z</time>
      </trkpt>
      <trkpt lat="46.07371" lon="4.76444">
        <ele>171</ele>
        <time>2016-11-26T10:33:52Z</time>
      </trkpt>
      <trkpt lat="46.07376" lon="4.76438">
        <ele>171</ele>
        <time>2016-11-26T10:33:53Z</time>
      </trkpt>
      <trkpt lat="46.07381" lon="4.76433">
        <ele>171</ele>
        <time>2016-11-26T10:33:54Z</time>
      </trkpt>
      <trkpt lat="46.07386" lon="4.76427">
        <ele>171</ele>
        <time>2016-11-26T10:33:55Z</time>
      </trkpt>
      <trkpt lat="46.07392" lon="4.76421">
        <ele>171</ele>
        <time>2016-11-26T10:33:56Z</time>
      </trkpt>
      <trkpt lat="46.07397" lon="4.76416">
        <ele>171</ele>
        <time>2016-11-26T10:33:57Z</time>
      </trkpt>
      <trkpt lat="46.07402" lon="4.7641">
        <ele>171</ele>
        <time>2016-11-26T10:33:58Z</time>
      </trkpt>
      <trkpt lat="46.07407" lon="4.76405">
        <ele>171</ele>
        <time>2016-11-26T10:33:59Z</time>
      </trkpt>
      <trkpt lat="46.07411" lon="4.764">
        <ele>171</ele>
        <time>2016-11-26T10:34:00Z</time>
      </trkpt>
      <trkpt lat="46.07416" lon="4.76395">
        <ele>170</ele>
        <time>2016-11-26T10:34:01Z</time>
      </trkpt>
      <trkpt lat="46.0742" lon="4.7639">
        <ele>171</ele>
        <time>2016-11-26T10:34:02Z</time>
      </trkpt>
      <trkpt lat="46.07425" lon="4.76386">
        <ele>171</ele>
        <time>2016-11-26T10:34:03Z</time>
      </trkpt>
      <trkpt lat="46.07429" lon="4.76381">
        <ele>171</ele>
        <time>2016-11-26T10:34:04Z</time>
      </trkpt>
      <trkpt lat="46.07433" lon="4.76377">
        <ele>171</ele>
        <time>2016-11-26T10:34:05Z</time>
      </trkpt>
      <trkpt lat="46.07437" lon="4.76372">
        <ele>171</ele>
        <time>2016-11-26T10:34:06Z</time>
      </trkpt>
      <trkpt lat="46.07441" lon="4.76368">
        <ele>171</ele>
        <time>2016-11-26T10:34:07Z</time>
      </trkpt>
      <trkpt lat="46.07445" lon="4.76364">
        <ele>172</ele>
        <time>2016-11-26T10:34:08Z</time>
      </trkpt>
      <trkpt lat="46.07449" lon="4.76359">
        <ele>172</ele>
        <time>2016-11-26T10:34:09Z</time>
      </trkpt>
      <trkpt lat="46.07453" lon="4.76355">
        <ele>172</ele>
        <time>2016-11-26T10:34:10Z</time>
      </trkpt>
      <trkpt lat="46.07456" lon="4.76351">
        <ele>172</ele>
        <time>2016-11-26T10:34:11Z</time>
      </trkpt>
      <trkpt lat="46.07462" lon="4.76345">
        <ele>172</ele>
        <time>2016-11-26T10:34:13Z</time>
      </trkpt>
      <trkpt lat="46.07464" lon="4.76344">
        <ele>172</ele>
        <time>2016-11-26T10:34:14Z</time>
      </trkpt>
      <trkpt lat="46.07471" lon="4.76343">
        <ele>172</ele>
        <time>2016-11-26T10:34:17Z</time>
      </trkpt>
      <trkpt lat="46.07474" lon="4.76343">
        <ele>172</ele>
        <time>2016-11-26T10:34:18Z</time>
      </trkpt>
      <trkpt lat="46.07481" lon="4.76341">
        <ele>173</ele>
        <time>2016-11-26T10:34:20Z</time>
      </trkpt>
      <trkpt lat="46.07484" lon="4.76339">
        <ele>173</ele>
        <time>2016-11-26T10:34:21Z</time>
      </trkpt>
      <trkpt lat="46.07488" lon="4.76335">
        <ele>173</ele>
        <time>2016-11-26T10:34:22Z</time>
      </trkpt>
      <trkpt lat="46.07491" lon="4.76329">
        <ele>173</ele>
        <time>2016-11-26T10:34:23Z</time>
      </trkpt>
      <trkpt lat="46.07493" lon="4.76322">
        <ele>173</ele>
        <time>2016-11-26T10:34:24Z</time>
      </trkpt>
      <trkpt lat="46.07495" lon="4.76315">
        <ele>173</ele>
        <time>2016-11-26T10:34:25Z</time>
      </trkpt>
      <trkpt lat="46.07497" lon="4.76308">
        <ele>173</ele>
        <time>2016-11-26T10:34:26Z</time>
      </trkpt>
      <trkpt lat="46.07501" lon="4.76303">
        <ele>174</ele>
        <time>2016-11-26T10:34:27Z</time>
      </trkpt>
      <trkpt lat="46.07505" lon="4.76298">
        <ele>174</ele>
        <time>2016-11-26T10:34:28Z</time>
      </trkpt>
      <trkpt lat="46.07509" lon="4.76294">
        <ele>174</ele>
        <time>2016-11-26T10:34:29Z</time>
      </trkpt>
      <trkpt lat="46.07514" lon="4.7629">
        <ele>174</ele>
        <time>2016-11-26T10:34:30Z</time>
      </trkpt>
      <trkpt lat="46.07519" lon="4.76285">
        <ele>174</ele>
        <time>2016-11-26T10:34:31Z</time>
      </trkpt>
      <trkpt lat="46.07524" lon="4.76281">
        <ele>174</ele>
        <time>2016-11-26T10:34:32Z</time>
      </trkpt>
      <trkpt lat="46.07529" lon="4.76275">
        <ele>174</ele>
        <time>2016-11-26T10:34:33Z</time>
      </trkpt>
      <trkpt lat="46.07534" lon="4.7627">
        <ele>174</ele>
        <time>2016-11-26T10:34:34Z</time>
      </trkpt>
      <trkpt lat="46.0754" lon="4.76264">
        <ele>174</ele>
        <time>2016-11-26T10:34:35Z</time>
      </trkpt>
      <trkpt lat="46.07545" lon="4.76259">
        <ele>174</ele>
        <time>2016-11-26T10:34:36Z</time>
      </trkpt>
      <trkpt lat="46.0755" lon="4.76253">
        <ele>174</ele>
        <time>2016-11-26T10:34:37Z</time>
      </trkpt>
      <trkpt lat="46.07555" lon="4.76247">
        <ele>173</ele>
        <time>2016-11-26T10:34:38Z</time>
      </trkpt>
      <trkpt lat="46.07559" lon="4.76241">
        <ele>173</ele>
        <time>2016-11-26T10:34:39Z</time>
      </trkpt>
      <trkpt lat="46.07564" lon="4.76236">
        <ele>173</ele>
        <time>2016-11-26T10:34:40Z</time>
      </trkpt>
      <trkpt lat="46.07569" lon="4.76231">
        <ele>173</ele>
        <time>2016-11-26T10:34:41Z</time>
      </trkpt>
      <trkpt lat="46.07573" lon="4.76226">
        <ele>173</ele>
        <time>2016-11-26T10:34:42Z</time>
      </trkpt>
      <trkpt lat="46.07578" lon="4.76222">
        <ele>173</ele>
        <time>2016-11-26T10:34:43Z</time>
      </trkpt>
      <trkpt lat="46.07583" lon="4.76217">
        <ele>173</ele>
        <time>2016-11-26T10:34:44Z</time>
      </trkpt>
      <trkpt lat="46.07588" lon="4.76213">
        <ele>173</ele>
        <time>2016-11-26T10:34:45Z</time>
      </trkpt>
      <trkpt lat="46.07593" lon="4.76208">
        <ele>173</ele>
        <time>2016-11-26T10:34:46Z</time>
      </trkpt>
      <trkpt lat="46.07597" lon="4.76203">
        <ele>173</ele>
        <time>2016-11-26T10:34:47Z</time>
      </trkpt>
      <trkpt lat="46.07602" lon="4.76199">
        <ele>173</ele>
        <time>2016-11-26T10:34:48Z</time>
      </trkpt>
      <trkpt lat="46.07607" lon="4.76194">
        <ele>173</ele>
        <time>2016-11-26T10:34:49Z</time>
      </trkpt>
      <trkpt lat="46.07612" lon="4.76188">
        <ele>173</ele>
        <time>2016-11-26T10:34:50Z</time>
      </trkpt>
      <trkpt lat="46.07616" lon="4.76183">
        <ele>173</ele>
        <time>2016-11-26T10:34:51Z</time>
      </trkpt>
      <trkpt lat="46.07621" lon="4.76178">
        <ele>173</ele>
        <time>2016-11-26T10:34:52Z</time>
      </trkpt>
      <trkpt lat="46.07625" lon="4.76173">
        <ele>173</ele>
        <time>2016-11-26T10:34:53Z</time>
      </trkpt>
      <trkpt lat="46.0763" lon="4.76168">
        <ele>173</ele>
        <time>2016-11-26T10:34:54Z</time>
      </trkpt>
      <trkpt lat="46.07634" lon="4.76163">
        <ele>172</ele>
        <time>2016-11-26T10:34:55Z</time>
      </trkpt>
      <trkpt lat="46.07638" lon="4.76158">
        <ele>172</ele>
        <time>2016-11-26T10:34:56Z</time>
      </trkpt>
      <trkpt lat="46.07643" lon="4.76153">
        <ele>172</ele>
        <time>2016-11-26T10:34:57Z</time>
      </trkpt>
      <trkpt lat="46.07648" lon="4.76148">
        <ele>172</ele>
        <time>2016-11-26T10:34:58Z</time>
      </trkpt>
      <trkpt lat="46.07654" lon="4.76143">
        <ele>172</ele>
        <time>2016-11-26T10:34:59Z</time>
      </trkpt>
      <trkpt lat="46.07659" lon="4.76138">
        <ele>172</ele>
        <time>2016-11-26T10:35:00Z</time>
      </trkpt>
      <trkpt lat="46.07665" lon="4.76133">
        <ele>172</ele>
        <time>2016-11-26T10:35:01Z</time>
      </trkpt>
      <trkpt lat="46.0767" lon="4.76128">
        <ele>173</ele>
        <time>2016-11-26T10:35:02Z</time>
      </trkpt>
      <trkpt lat="46.07675" lon="4.76123">
        <ele>173</ele>
        <time>2016-11-26T10:35:03Z</time>
      </trkpt>
      <trkpt lat="46.07679" lon="4.76118">
        <ele>173</ele>
        <time>2016-11-26T10:35:04Z</time>
      </trkpt>
      <trkpt lat="46.07684" lon="4.76113">
        <ele>173</ele>
        <time>2016-11-26T10:35:05Z</time>
      </trkpt>
      <trkpt lat="46.07688" lon="4.76108">
        <ele>173</ele>
        <time>2016-11-26T10:35:06Z</time>
      </trkpt>
      <trkpt lat="46.07692" lon="4.76104">
        <ele>173</ele>
        <time>2016-11-26T10:35:07Z</time>
      </trkpt>
      <trkpt lat="46.07697" lon="4.76099">
        <ele>174</ele>
        <time>2016-11-26T10:35:08Z</time>
      </trkpt>
      <trkpt lat="46.077" lon="4.76094">
        <ele>174</ele>
        <time>2016-11-26T10:35:09Z</time>
      </trkpt>
      <trkpt lat="46.07704" lon="4.76091">
        <ele>174</ele>
        <time>2016-11-26T10:35:10Z</time>
      </trkpt>
      <trkpt lat="46.07709" lon="4.76086">
        <ele>174</ele>
        <time>2016-11-26T10:35:11Z</time>
      </trkpt>
      <trkpt lat="46.07713" lon="4.76081">
        <ele>175</ele>
        <time>2016-11-26T10:35:12Z</time>
      </trkpt>
      <trkpt lat="46.07716" lon="4.76076">
        <ele>175</ele>
        <time>2016-11-26T10:35:13Z</time>
      </trkpt>
      <trkpt lat="46.0772" lon="4.7607">
        <ele>175</ele>
        <time>2016-11-26T10:35:14Z</time>
      </trkpt>
      <trkpt lat="46.07724" lon="4.76065">
        <ele>175</ele>
        <time>2016-11-26T10:35:15Z</time>
      </trkpt>
      <trkpt lat="46.07729" lon="4.7606">
        <ele>175</ele>
        <time>2016-11-26T10:35:16Z</time>
      </trkpt>
      <trkpt lat="46.07733" lon="4.76056">
        <ele>175</ele>
        <time>2016-11-26T10:35:17Z</time>
      </trkpt>
      <trkpt lat="46.07737" lon="4.76051">
        <ele>175</ele>
        <time>2016-11-26T10:35:18Z</time>
      </trkpt>
      <trkpt lat="46.07741" lon="4.76047">
        <ele>175</ele>
        <time>2016-11-26T10:35:19Z</time>
      </trkpt>
      <trkpt lat="46.07746" lon="4.76043">
        <ele>175</ele>
        <time>2016-11-26T10:35:20Z</time>
      </trkpt>
      <trkpt lat="46.0775" lon="4.76039">
        <ele>175</ele>
        <time>2016-11-26T10:35:21Z</time>
      </trkpt>
      <trkpt lat="46.07754" lon="4.76036">
        <ele>176</ele>
        <time>2016-11-26T10:35:22Z</time>
      </trkpt>
      <trkpt lat="46.07759" lon="4.76032">
        <ele>176</ele>
        <time>2016-11-26T10:35:23Z</time>
      </trkpt>
      <trkpt lat="46.07764" lon="4.76028">
        <ele>176</ele>
        <time>2016-11-26T10:35:24Z</time>
      </trkpt>
      <trkpt lat="46.07768" lon="4.76024">
        <ele>176</ele>
        <time>2016-11-26T10:35:25Z</time>
      </trkpt>
      <trkpt lat="46.07773" lon="4.7602">
        <ele>176</ele>
        <time>2016-11-26T10:35:26Z</time>
      </trkpt>
      <trkpt lat="46.07777" lon="4.76016">
        <ele>176</ele>
        <time>2016-11-26T10:35:27Z</time>
      </trkpt>
      <trkpt lat="46.07781" lon="4.76013">
        <ele>176</ele>
        <time>2016-11-26T10:35:28Z</time>
      </trkpt>
      <trkpt lat="46.07786" lon="4.7601">
        <ele>176</ele>
        <time>2016-11-26T10:35:29Z</time>
      </trkpt>
      <trkpt lat="46.0779" lon="4.76007">
        <ele>176</ele>
        <time>2016-11-26T10:35:30Z</time>
      </trkpt>
      <trkpt lat="46.07795" lon="4.76004">
        <ele>176</ele>
        <time>2016-11-26T10:35:31Z</time>
      </trkpt>
      <trkpt lat="46.07799" lon="4.76002">
        <ele>176</ele>
        <time>2016-11-26T10:35:32Z</time>
      </trkpt>
      <trkpt lat="46.07803" lon="4.75999">
        <ele>176</ele>
        <time>2016-11-26T10:35:33Z</time>
      </trkpt>
      <trkpt lat="46.0781" lon="4.75993">
        <ele>176</ele>
        <time>2016-11-26T10:35:35Z</time>
      </trkpt>
      <trkpt lat="46.07813" lon="4.7599">
        <ele>176</ele>
        <time>2016-11-26T10:35:36Z</time>
      </trkpt>
      <trkpt lat="46.0782" lon="4.75984">
        <ele>176</ele>
        <time>2016-11-26T10:35:38Z</time>
      </trkpt>
      <trkpt lat="46.07824" lon="4.75981">
        <ele>176</ele>
        <time>2016-11-26T10:35:39Z</time>
      </trkpt>
      <trkpt lat="46.07828" lon="4.75976">
        <ele>176</ele>
        <time>2016-11-26T10:35:40Z</time>
      </trkpt>
      <trkpt lat="46.07833" lon="4.75972">
        <ele>176</ele>
        <time>2016-11-26T10:35:41Z</time>
      </trkpt>
      <trkpt lat="46.07839" lon="4.75972">
        <ele>176</ele>
        <time>2016-11-26T10:35:42Z</time>
      </trkpt>
      <trkpt lat="46.07844" lon="4.75974">
        <ele>176</ele>
        <time>2016-11-26T10:35:43Z</time>
      </trkpt>
      <trkpt lat="46.07849" lon="4.75972">
        <ele>176</ele>
        <time>2016-11-26T10:35:44Z</time>
      </trkpt>
      <trkpt lat="46.07854" lon="4.75969">
        <ele>176</ele>
        <time>2016-11-26T10:35:45Z</time>
      </trkpt>
      <trkpt lat="46.07859" lon="4.75965">
        <ele>176</ele>
        <time>2016-11-26T10:35:46Z</time>
      </trkpt>
      <trkpt lat="46.07863" lon="4.75962">
        <ele>176</ele>
        <time>2016-11-26T10:35:47Z</time>
      </trkpt>
      <trkpt lat="46.07868" lon="4.75959">
        <ele>176</ele>
        <time>2016-11-26T10:35:48Z</time>
      </trkpt>
      <trkpt lat="46.07872" lon="4.75955">
        <ele>176</ele>
        <time>2016-11-26T10:35:49Z</time>
      </trkpt>
      <trkpt lat="46.0788" lon="4.7595">
        <ele>176</ele>
        <time>2016-11-26T10:35:51Z</time>
      </trkpt>
      <trkpt lat="46.07883" lon="4.75946">
        <ele>176</ele>
        <time>2016-11-26T10:35:52Z</time>
      </trkpt>
      <trkpt lat="46.0789" lon="4.75942">
        <ele>176</ele>
        <time>2016-11-26T10:35:54Z</time>
      </trkpt>
      <trkpt lat="46.07893" lon="4.7594">
        <ele>176</ele>
        <time>2016-11-26T10:35:55Z</time>
      </trkpt>
      <trkpt lat="46.07897" lon="4.75936">
        <ele>176</ele>
        <time>2016-11-26T10:35:56Z</time>
      </trkpt>
      <trkpt lat="46.07902" lon="4.75933">
        <ele>176</ele>
        <time>2016-11-26T10:35:57Z</time>
      </trkpt>
      <trkpt lat="46.07909" lon="4.75935">
        <ele>176</ele>
        <time>2016-11-26T10:35:58Z</time>
      </trkpt>
      <trkpt lat="46.07915" lon="4.75932">
        <ele>176</ele>
        <time>2016-11-26T10:35:59Z</time>
      </trkpt>
      <trkpt lat="46.0792" lon="4.75929">
        <ele>176</ele>
        <time>2016-11-26T10:36:00Z</time>
      </trkpt>
      <trkpt lat="46.07926" lon="4.75925">
        <ele>176</ele>
        <time>2016-11-26T10:36:01Z</time>
      </trkpt>
      <trkpt lat="46.0793" lon="4.75922">
        <ele>176</ele>
        <time>2016-11-26T10:36:02Z</time>
      </trkpt>
      <trkpt lat="46.07935" lon="4.75918">
        <ele>176</ele>
        <time>2016-11-26T10:36:03Z</time>
      </trkpt>
      <trkpt lat="46.07939" lon="4.75916">
        <ele>176</ele>
        <time>2016-11-26T10:36:04Z</time>
      </trkpt>
      <trkpt lat="46.07944" lon="4.75913">
        <ele>176</ele>
        <time>2016-11-26T10:36:05Z</time>
      </trkpt>
      <trkpt lat="46.07948" lon="4.75908">
        <ele>176</ele>
        <time>2016-11-26T10:36:06Z</time>
      </trkpt>
      <trkpt lat="46.07952" lon="4.75904">
        <ele>176</ele>
        <time>2016-11-26T10:36:07Z</time>
      </trkpt>
      <trkpt lat="46.07956" lon="4.759">
        <ele>176</ele>
        <time>2016-11-26T10:36:08Z</time>
      </trkpt>
      <trkpt lat="46.0796" lon="4.75897">
        <ele>175</ele>
        <time>2016-11-26T10:36:09Z</time>
      </trkpt>
      <trkpt lat="46.07964" lon="4.75894">
        <ele>175</ele>
        <time>2016-11-26T10:36:10Z</time>
      </trkpt>
      <trkpt lat="46.07968" lon="4.7589">
        <ele>175</ele>
        <time>2016-11-26T10:36:11Z</time>
      </trkpt>
      <trkpt lat="46.07973" lon="4.75886">
        <ele>176</ele>
        <time>2016-11-26T10:36:12Z</time>
      </trkpt>
      <trkpt lat="46.07977" lon="4.75882">
        <ele>176</ele>
        <time>2016-11-26T10:36:13Z</time>
      </trkpt>
      <trkpt lat="46.07981" lon="4.75878">
        <ele>176</ele>
        <time>2016-11-26T10:36:14Z</time>
      </trkpt>
      <trkpt lat="46.07986" lon="4.75875">
        <ele>176</ele>
        <time>2016-11-26T10:36:15Z</time>
      </trkpt>
      <trkpt lat="46.07991" lon="4.75873">
        <ele>176</ele>
        <time>2016-11-26T10:36:16Z</time>
      </trkpt>
      <trkpt lat="46.07996" lon="4.75871">
        <ele>176</ele>
        <time>2016-11-26T10:36:17Z</time>
      </trkpt>
      <trkpt lat="46.08001" lon="4.75869">
        <ele>177</ele>
        <time>2016-11-26T10:36:18Z</time>
      </trkpt>
      <trkpt lat="46.08006" lon="4.75868">
        <ele>177</ele>
        <time>2016-11-26T10:36:19Z</time>
      </trkpt>
      <trkpt lat="46.08014" lon="4.75866">
        <ele>177</ele>
        <time>2016-11-26T10:36:21Z</time>
      </trkpt>
      <trkpt lat="46.08019" lon="4.75866">
        <ele>177</ele>
        <time>2016-11-26T10:36:22Z</time>
      </trkpt>
      <trkpt lat="46.08027" lon="4.75868">
        <ele>178</ele>
        <time>2016-11-26T10:36:24Z</time>
      </trkpt>
      <trkpt lat="46.08032" lon="4.75868">
        <ele>178</ele>
        <time>2016-11-26T10:36:25Z</time>
      </trkpt>
      <trkpt lat="46.08036" lon="4.75868">
        <ele>178</ele>
        <time>2016-11-26T10:36:26Z</time>
      </trkpt>
      <trkpt lat="46.08041" lon="4.75867">
        <ele>178</ele>
        <time>2016-11-26T10:36:27Z</time>
      </trkpt>
      <trkpt lat="46.08049" lon="4.75867">
        <ele>178</ele>
        <time>2016-11-26T10:36:29Z</time>
      </trkpt>
      <trkpt lat="46.08053" lon="4.75867">
        <ele>178</ele>
        <time>2016-11-26T10:36:30Z</time>
      </trkpt>
      <trkpt lat="46.08062" lon="4.75865">
        <ele>178</ele>
        <time>2016-11-26T10:36:33Z</time>
      </trkpt>
      <trkpt lat="46.08064" lon="4.75865">
        <ele>178</ele>
        <time>2016-11-26T10:36:34Z</time>
      </trkpt>
      <trkpt lat="46.08069" lon="4.75872">
        <ele>178</ele>
        <time>2016-11-26T10:36:35Z</time>
      </trkpt>
      <trkpt lat="46.08072" lon="4.75874">
        <ele>178</ele>
        <time>2016-11-26T10:36:36Z</time>
      </trkpt>
      <trkpt lat="46.08077" lon="4.75864">
        <ele>178</ele>
        <time>2016-11-26T10:36:40Z</time>
      </trkpt>
      <trkpt lat="46.08076" lon="4.7586">
        <ele>178</ele>
        <time>2016-11-26T10:36:41Z</time>
      </trkpt>
      <trkpt lat="46.08076" lon="4.75853">
        <ele>178</ele>
        <time>2016-11-26T10:36:43Z</time>
      </trkpt>
      <trkpt lat="46.08074" lon="4.75844">
        <ele>179</ele>
        <time>2016-11-26T10:36:45Z</time>
      </trkpt>
      <trkpt lat="46.08074" lon="4.75834">
        <ele>179</ele>
        <time>2016-11-26T10:36:47Z</time>
      </trkpt>
      <trkpt lat="46.08074" lon="4.75827">
        <ele>178</ele>
        <time>2016-11-26T10:36:48Z</time>
      </trkpt>
      <trkpt lat="46.08074" lon="4.75816">
        <ele>178</ele>
        <time>2016-11-26T10:36:50Z</time>
      </trkpt>
      <trkpt lat="46.08075" lon="4.75811">
        <ele>178</ele>
        <time>2016-11-26T10:36:51Z</time>
      </trkpt>
      <trkpt lat="46.08081" lon="4.75801">
        <ele>178</ele>
        <time>2016-11-26T10:36:53Z</time>
      </trkpt>
      <trkpt lat="46.08084" lon="4.75797">
        <ele>179</ele>
        <time>2016-11-26T10:36:54Z</time>
      </trkpt>
      <trkpt lat="46.08089" lon="4.75788">
        <ele>179</ele>
        <time>2016-11-26T10:36:56Z</time>
      </trkpt>
      <trkpt lat="46.08091" lon="4.75784">
        <ele>178</ele>
        <time>2016-11-26T10:36:57Z</time>
      </trkpt>
      <trkpt lat="46.08096" lon="4.75775">
        <ele>178</ele>
        <time>2016-11-26T10:36:59Z</time>
      </trkpt>
      <trkpt lat="46.08098" lon="4.7577">
        <ele>178</ele>
        <time>2016-11-26T10:37:00Z</time>
      </trkpt>
      <trkpt lat="46.08102" lon="4.75759">
        <ele>178</ele>
        <time>2016-11-26T10:37:02Z</time>
      </trkpt>
      <trkpt lat="46.08105" lon="4.75754">
        <ele>178</ele>
        <time>2016-11-26T10:37:03Z</time>
      </trkpt>
      <trkpt lat="46.08109" lon="4.75744">
        <ele>177</ele>
        <time>2016-11-26T10:37:05Z</time>
      </trkpt>
      <trkpt lat="46.08112" lon="4.75739">
        <ele>177</ele>
        <time>2016-11-26T10:37:06Z</time>
      </trkpt>
      <trkpt lat="46.08115" lon="4.75734">
        <ele>177</ele>
        <time>2016-11-26T10:37:07Z</time>
      </trkpt>
      <trkpt lat="46.08118" lon="4.75728">
        <ele>177</ele>
        <time>2016-11-26T10:37:08Z</time>
      </trkpt>
      <trkpt lat="46.08121" lon="4.75723">
        <ele>177</ele>
        <time>2016-11-26T10:37:09Z</time>
      </trkpt>
      <trkpt lat="46.08124" lon="4.75718">
        <ele>177</ele>
        <time>2016-11-26T10:37:10Z</time>
      </trkpt>
      <trkpt lat="46.08131" lon="4.75709">
        <ele>177</ele>
        <time>2016-11-26T10:37:12Z</time>
      </trkpt>
      <trkpt lat="46.08135" lon="4.75705">
        <ele>177</ele>
        <time>2016-11-26T10:37:13Z</time>
      </trkpt>
      <trkpt lat="46.08139" lon="4.75701">
        <ele>177</ele>
        <time>2016-11-26T10:37:14Z</time>
      </trkpt>
      <trkpt lat="46.08141" lon="4.75696">
        <ele>177</ele>
        <time>2016-11-26T10:37:15Z</time>
      </trkpt>
      <trkpt lat="46.08146" lon="4.75686">
        <ele>177</ele>
        <time>2016-11-26T10:37:17Z</time>
      </trkpt>
      <trkpt lat="46.08147" lon="4.7568">
        <ele>176</ele>
        <time>2016-11-26T10:37:18Z</time>
      </trkpt>
      <trkpt lat="46.08145" lon="4.7567">
        <ele>176</ele>
        <time>2016-11-26T10:37:20Z</time>
      </trkpt>
      <trkpt lat="46.08143" lon="4.75665">
        <ele>176</ele>
        <time>2016-11-26T10:37:21Z</time>
      </trkpt>
      <trkpt lat="46.0814" lon="4.75658">
        <ele>176</ele>
        <time>2016-11-26T10:37:22Z</time>
      </trkpt>
      <trkpt lat="46.08138" lon="4.75653">
        <ele>176</ele>
        <time>2016-11-26T10:37:23Z</time>
      </trkpt>
      <trkpt lat="46.08134" lon="4.75644">
        <ele>175</ele>
        <time>2016-11-26T10:37:25Z</time>
      </trkpt>
      <trkpt lat="46.08132" lon="4.7564">
        <ele>175</ele>
        <time>2016-11-26T10:37:26Z</time>
      </trkpt>
      <trkpt lat="46.08128" lon="4.75633">
        <ele>175</ele>
        <time>2016-11-26T10:37:28Z</time>
      </trkpt>
      <trkpt lat="46.08125" lon="4.75628">
        <ele>175</ele>
        <time>2016-11-26T10:37:29Z</time>
      </trkpt>
      <trkpt lat="46.08121" lon="4.7562">
        <ele>175</ele>
        <time>2016-11-26T10:37:31Z</time>
      </trkpt>
      <trkpt lat="46.08118" lon="4.75616">
        <ele>175</ele>
        <time>2016-11-26T10:37:32Z</time>
      </trkpt>
      <trkpt lat="46.08112" lon="4.75608">
        <ele>175</ele>
        <time>2016-11-26T10:37:34Z</time>
      </trkpt>
      <trkpt lat="46.0811" lon="4.75604">
        <ele>175</ele>
        <time>2016-11-26T10:37:35Z</time>
      </trkpt>
      <trkpt lat="46.08105" lon="4.75596">
        <ele>175</ele>
        <time>2016-11-26T10:37:37Z</time>
      </trkpt>
      <trkpt lat="46.08102" lon="4.75593">
        <ele>175</ele>
        <time>2016-11-26T10:37:38Z</time>
      </trkpt>
      <trkpt lat="46.08096" lon="4.75593">
        <ele>175</ele>
        <time>2016-11-26T10:37:40Z</time>
      </trkpt>
      <trkpt lat="46.08093" lon="4.75595">
        <ele>175</ele>
        <time>2016-11-26T10:37:41Z</time>
      </trkpt>
      <trkpt lat="46.08087" lon="4.756">
        <ele>175</ele>
        <time>2016-11-26T10:37:43Z</time>
      </trkpt>
      <trkpt lat="46.08083" lon="4.75602">
        <ele>174</ele>
        <time>2016-11-26T10:37:44Z</time>
      </trkpt>
      <trkpt lat="46.08077" lon="4.75607">
        <ele>173</ele>
        <time>2016-11-26T10:37:46Z</time>
      </trkpt>
      <trkpt lat="46.08075" lon="4.75609">
        <ele>173</ele>
        <time>2016-11-26T10:37:47Z</time>
      </trkpt>
      <trkpt lat="46.08074" lon="4.7561">
        <ele>173</ele>
        <time>2016-11-26T10:37:48Z</time>
      </trkpt>
      <trkpt lat="46.08068" lon="4.75612">
        <ele>173</ele>
        <time>2016-11-26T10:37:58Z</time>
      </trkpt>
      <trkpt lat="46.08068" lon="4.75613">
        <ele>173</ele>
        <time>2016-11-26T10:37:59Z</time>
      </trkpt>
      <trkpt lat="46.08076" lon="4.75612">
        <ele>173</ele>
        <time>2016-11-26T10:45:05Z</time>
      </trkpt>
      <trkpt lat="46.08077" lon="4.75611">
        <ele>173</ele>
        <time>2016-11-26T10:45:06Z</time>
      </trkpt>
      <trkpt lat="46.08083" lon="4.75602">
        <ele>174</ele>
        <time>2016-11-26T10:45:12Z</time>
      </trkpt>
      <trkpt lat="46.08084" lon="4.756">
        <ele>175</ele>
        <time>2016-11-26T10:45:13Z</time>
      </trkpt>
      <trkpt lat="46.08088" lon="4.7559">
        <ele>174</ele>
        <time>2016-11-26T10:45:31Z</time>
      </trkpt>
      <trkpt lat="46.08088" lon="4.75589">
        <ele>174</ele>
        <time>2016-11-26T10:45:32Z</time>
      </trkpt>
      <trkpt lat="46.0809" lon="4.75577">
        <ele>173</ele>
        <time>2016-11-26T10:45:48Z</time>
      </trkpt>
      <trkpt lat="46.08089" lon="4.75575">
        <ele>173</ele>
        <time>2016-11-26T10:45:49Z</time>
      </trkpt>
      <trkpt lat="46.08085" lon="4.75566">
        <ele>173</ele>
        <time>2016-11-26T10:45:57Z</time>
      </trkpt>
      <trkpt lat="46.08084" lon="4.75564">
        <ele>173</ele>
        <time>2016-11-26T10:45:58Z</time>
      </trkpt>
      <trkpt lat="46.0808" lon="4.75553">
        <ele>170</ele>
        <time>2016-11-26T10:46:04Z</time>
      </trkpt>
      <trkpt lat="46.0808" lon="4.75551">
        <ele>169</ele>
        <time>2016-11-26T10:46:05Z</time>
      </trkpt>
      <trkpt lat="46.08076" lon="4.75541">
        <ele>169</ele>
        <time>2016-11-26T10:46:10Z</time>
      </trkpt>
      <trkpt lat="46.08075" lon="4.75539">
        <ele>168</ele>
        <time>2016-11-26T10:46:11Z</time>
      </trkpt>
      <trkpt lat="46.08071" lon="4.75529">
        <ele>168</ele>
        <time>2016-11-26T10:46:14Z</time>
      </trkpt>
      <trkpt lat="46.08069" lon="4.75526">
        <ele>168</ele>
        <time>2016-11-26T10:46:15Z</time>
      </trkpt>
      <trkpt lat="46.08065" lon="4.75518">
        <ele>167</ele>
        <time>2016-11-26T10:46:17Z</time>
      </trkpt>
      <trkpt lat="46.08064" lon="4.75514">
        <ele>167</ele>
        <time>2016-11-26T10:46:18Z</time>
      </trkpt>
      <trkpt lat="46.08059" lon="4.75504">
        <ele>167</ele>
        <time>2016-11-26T10:46:21Z</time>
      </trkpt>
      <trkpt lat="46.08058" lon="4.755">
        <ele>167</ele>
        <time>2016-11-26T10:46:22Z</time>
      </trkpt>
      <trkpt lat="46.08054" lon="4.75489">
        <ele>166</ele>
        <time>2016-11-26T10:46:25Z</time>
      </trkpt>
      <trkpt lat="46.08052" lon="4.75486">
        <ele>166</ele>
        <time>2016-11-26T10:46:26Z</time>
      </trkpt>
      <trkpt lat="46.08048" lon="4.75477">
        <ele>166</ele>
        <time>2016-11-26T10:46:28Z</time>
      </trkpt>
      <trkpt lat="46.08046" lon="4.75473">
        <ele>166</ele>
        <time>2016-11-26T10:46:29Z</time>
      </trkpt>
      <trkpt lat="46.08041" lon="4.75462">
        <ele>166</ele>
        <time>2016-11-26T10:46:31Z</time>
      </trkpt>
      <trkpt lat="46.08038" lon="4.75457">
        <ele>166</ele>
        <time>2016-11-26T10:46:32Z</time>
      </trkpt>
      <trkpt lat="46.08036" lon="4.75451">
        <ele>166</ele>
        <time>2016-11-26T10:46:33Z</time>
      </trkpt>
      <trkpt lat="46.08033" lon="4.75445">
        <ele>166</ele>
        <time>2016-11-26T10:46:34Z</time>
      </trkpt>
      <trkpt lat="46.08031" lon="4.75439">
        <ele>166</ele>
        <time>2016-11-26T10:46:35Z</time>
      </trkpt>
      <trkpt lat="46.08028" lon="4.75433">
        <ele>166</ele>
        <time>2016-11-26T10:46:36Z</time>
      </trkpt>
      <trkpt lat="46.08025" lon="4.75427">
        <ele>166</ele>
        <time>2016-11-26T10:46:37Z</time>
      </trkpt>
      <trkpt lat="46.08022" lon="4.75421">
        <ele>166</ele>
        <time>2016-11-26T10:46:38Z</time>
      </trkpt>
      <trkpt lat="46.08019" lon="4.75416">
        <ele>166</ele>
        <time>2016-11-26T10:46:39Z</time>
      </trkpt>
      <trkpt lat="46.08016" lon="4.75409">
        <ele>166</ele>
        <time>2016-11-26T10:46:40Z</time>
      </trkpt>
      <trkpt lat="46.08013" lon="4.75402">
        <ele>166</ele>
        <time>2016-11-26T10:46:41Z</time>
      </trkpt>
      <trkpt lat="46.08009" lon="4.75395">
        <ele>167</ele>
        <time>2016-11-26T10:46:42Z</time>
      </trkpt>
      <trkpt lat="46.08005" lon="4.75388">
        <ele>167</ele>
        <time>2016-11-26T10:46:43Z</time>
      </trkpt>
      <trkpt lat="46.08002" lon="4.7538">
        <ele>167</ele>
        <time>2016-11-26T10:46:44Z</time>
      </trkpt>
      <trkpt lat="46.07998" lon="4.75372">
        <ele>168</ele>
        <time>2016-11-26T10:46:45Z</time>
      </trkpt>
      <trkpt lat="46.07994" lon="4.75364">
        <ele>168</ele>
        <time>2016-11-26T10:46:46Z</time>
      </trkpt>
      <trkpt lat="46.0799" lon="4.75356">
        <ele>168</ele>
        <time>2016-11-26T10:46:47Z</time>
      </trkpt>
      <trkpt lat="46.07986" lon="4.75347">
        <ele>168</ele>
        <time>2016-11-26T10:46:48Z</time>
      </trkpt>
      <trkpt lat="46.07981" lon="4.75339">
        <ele>168</ele>
        <time>2016-11-26T10:46:49Z</time>
      </trkpt>
      <trkpt lat="46.07976" lon="4.75331">
        <ele>169</ele>
        <time>2016-11-26T10:46:50Z</time>
      </trkpt>
      <trkpt lat="46.07973" lon="4.75323">
        <ele>169</ele>
        <time>2016-11-26T10:46:51Z</time>
      </trkpt>
      <trkpt lat="46.07969" lon="4.75315">
        <ele>169</ele>
        <time>2016-11-26T10:46:52Z</time>
      </trkpt>
      <trkpt lat="46.07965" lon="4.75307">
        <ele>169</ele>
        <time>2016-11-26T10:46:53Z</time>
      </trkpt>
      <trkpt lat="46.07962" lon="4.753">
        <ele>169</ele>
        <time>2016-11-26T10:46:54Z</time>
      </trkpt>
      <trkpt lat="46.07958" lon="4.75292">
        <ele>169</ele>
        <time>2016-11-26T10:46:55Z</time>
      </trkpt>
      <trkpt lat="46.07955" lon="4.75285">
        <ele>169</ele>
        <time>2016-11-26T10:46:56Z</time>
      </trkpt>
      <trkpt lat="46.07951" lon="4.75278">
        <ele>169</ele>
        <time>2016-11-26T10:46:57Z</time>
      </trkpt>
      <trkpt lat="46.07948" lon="4.75271">
        <ele>169</ele>
        <time>2016-11-26T10:46:58Z</time>
      </trkpt>
      <trkpt lat="46.07945" lon="4.75264">
        <ele>169</ele>
        <time>2016-11-26T10:46:59Z</time>
      </trkpt>
      <trkpt lat="46.07941" lon="4.75257">
        <ele>170</ele>
        <time>2016-11-26T10:47:00Z</time>
      </trkpt>
      <trkpt lat="46.07938" lon="4.7525">
        <ele>170</ele>
        <time>2016-11-26T10:47:01Z</time>
      </trkpt>
      <trkpt lat="46.07935" lon="4.75242">
        <ele>170</ele>
        <time>2016-11-26T10:47:02Z</time>
      </trkpt>
      <trkpt lat="46.07932" lon="4.75235">
        <ele>170</ele>
        <time>2016-11-26T10:47:03Z</time>
      </trkpt>
      <trkpt lat="46.07928" lon="4.75228">
        <ele>171</ele>
        <time>2016-11-26T10:47:04Z</time>
      </trkpt>
      <trkpt lat="46.07925" lon="4.75221">
        <ele>171</ele>
        <time>2016-11-26T10:47:05Z</time>
      </trkpt>
      <trkpt lat="46.07921" lon="4.75214">
        <ele>171</ele>
        <time>2016-11-26T10:47:06Z</time>
      </trkpt>
      <trkpt lat="46.07918" lon="4.75208">
        <ele>171</ele>
        <time>2016-11-26T10:47:07Z</time>
      </trkpt>
      <trkpt lat="46.07916" lon="4.75202">
        <ele>171</ele>
        <time>2016-11-26T10:47:08Z</time>
      </trkpt>
      <trkpt lat="46.07913" lon="4.75195">
        <ele>171</ele>
        <time>2016-11-26T10:47:09Z</time>
      </trkpt>
      <trkpt lat="46.0791" lon="4.7519">
        <ele>171</ele>
        <time>2016-11-26T10:47:10Z</time>
      </trkpt>
      <trkpt lat="46.07907" lon="4.75185">
        <ele>171</ele>
        <time>2016-11-26T10:47:11Z</time>
      </trkpt>
      <trkpt lat="46.07904" lon="4.75179">
        <ele>171</ele>
        <time>2016-11-26T10:47:12Z</time>
      </trkpt>
      <trkpt lat="46.07901" lon="4.75173">
        <ele>171</ele>
        <time>2016-11-26T10:47:13Z</time>
      </trkpt>
      <trkpt lat="46.07897" lon="4.75167">
        <ele>171</ele>
        <time>2016-11-26T10:47:14Z</time>
      </trkpt>
      <trkpt lat="46.07894" lon="4.7516">
        <ele>171</ele>
        <time>2016-11-26T10:47:15Z</time>
      </trkpt>
      <trkpt lat="46.0789" lon="4.75154">
        <ele>171</ele>
        <time>2016-11-26T10:47:16Z</time>
      </trkpt>
      <trkpt lat="46.07886" lon="4.75148">
        <ele>171</ele>
        <time>2016-11-26T10:47:17Z</time>
      </trkpt>
      <trkpt lat="46.07883" lon="4.75142">
        <ele>171</ele>
        <time>2016-11-26T10:47:18Z</time>
      </trkpt>
      <trkpt lat="46.07879" lon="4.75136">
        <ele>171</ele>
        <time>2016-11-26T10:47:19Z</time>
      </trkpt>
      <trkpt lat="46.07875" lon="4.7513">
        <ele>171</ele>
        <time>2016-11-26T10:47:20Z</time>
      </trkpt>
      <trkpt lat="46.07872" lon="4.75124">
        <ele>171</ele>
        <time>2016-11-26T10:47:21Z</time>
      </trkpt>
      <trkpt lat="46.07869" lon="4.75117">
        <ele>171</ele>
        <time>2016-11-26T10:47:22Z</time>
      </trkpt>
      <trkpt lat="46.07866" lon="4.75112">
        <ele>171</ele>
        <time>2016-11-26T10:47:23Z</time>
      </trkpt>
      <trkpt lat="46.07862" lon="4.75106">
        <ele>171</ele>
        <time>2016-11-26T10:47:24Z</time>
      </trkpt>
      <trkpt lat="46.07859" lon="4.751">
        <ele>171</ele>
        <time>2016-11-26T10:47:25Z</time>
      </trkpt>
      <trkpt lat="46.07855" lon="4.75094">
        <ele>171</ele>
        <time>2016-11-26T10:47:26Z</time>
      </trkpt>
      <trkpt lat="46.07851" lon="4.75088">
        <ele>171</ele>
        <time>2016-11-26T10:47:27Z</time>
      </trkpt>
      <trkpt lat="46.07848" lon="4.75082">
        <ele>171</ele>
        <time>2016-11-26T10:47:28Z</time>
      </trkpt>
      <trkpt lat="46.07844" lon="4.75077">
        <ele>171</ele>
        <time>2016-11-26T10:47:29Z</time>
      </trkpt>
      <trkpt lat="46.0784" lon="4.75072">
        <ele>171</ele>
        <time>2016-11-26T10:47:30Z</time>
      </trkpt>
      <trkpt lat="46.07836" lon="4.75066">
        <ele>171</ele>
        <time>2016-11-26T10:47:31Z</time>
      </trkpt>
      <trkpt lat="46.07833" lon="4.75061">
        <ele>171</ele>
        <time>2016-11-26T10:47:32Z</time>
      </trkpt>
      <trkpt lat="46.07829" lon="4.75056">
        <ele>171</ele>
        <time>2016-11-26T10:47:33Z</time>
      </trkpt>
      <trkpt lat="46.07824" lon="4.75051">
        <ele>171</ele>
        <time>2016-11-26T10:47:34Z</time>
      </trkpt>
      <trkpt lat="46.0782" lon="4.75047">
        <ele>171</ele>
        <time>2016-11-26T10:47:35Z</time>
      </trkpt>
      <trkpt lat="46.07815" lon="4.75043">
        <ele>171</ele>
        <time>2016-11-26T10:47:36Z</time>
      </trkpt>
      <trkpt lat="46.07811" lon="4.75038">
        <ele>171</ele>
        <time>2016-11-26T10:47:37Z</time>
      </trkpt>
      <trkpt lat="46.07806" lon="4.75034">
        <ele>171</ele>
        <time>2016-11-26T10:47:38Z</time>
      </trkpt>
      <trkpt lat="46.07802" lon="4.7503">
        <ele>171</ele>
        <time>2016-11-26T10:47:39Z</time>
      </trkpt>
      <trkpt lat="46.07797" lon="4.75026">
        <ele>171</ele>
        <time>2016-11-26T10:47:40Z</time>
      </trkpt>
      <trkpt lat="46.07792" lon="4.75022">
        <ele>171</ele>
        <time>2016-11-26T10:47:41Z</time>
      </trkpt>
      <trkpt lat="46.07788" lon="4.75019">
        <ele>172</ele>
        <time>2016-11-26T10:47:42Z</time>
      </trkpt>
      <trkpt lat="46.07783" lon="4.75014">
        <ele>172</ele>
        <time>2016-11-26T10:47:43Z</time>
      </trkpt>
      <trkpt lat="46.07777" lon="4.7501">
        <ele>172</ele>
        <time>2016-11-26T10:47:44Z</time>
      </trkpt>
      <trkpt lat="46.07772" lon="4.75006">
        <ele>172</ele>
        <time>2016-11-26T10:47:45Z</time>
      </trkpt>
      <trkpt lat="46.07767" lon="4.75002">
        <ele>172</ele>
        <time>2016-11-26T10:47:46Z</time>
      </trkpt>
      <trkpt lat="46.07761" lon="4.74997">
        <ele>172</ele>
        <time>2016-11-26T10:47:47Z</time>
      </trkpt>
      <trkpt lat="46.07756" lon="4.74993">
        <ele>172</ele>
        <time>2016-11-26T10:47:48Z</time>
      </trkpt>
      <trkpt lat="46.07751" lon="4.74989">
        <ele>172</ele>
        <time>2016-11-26T10:47:49Z</time>
      </trkpt>
      <trkpt lat="46.07746" lon="4.74985">
        <ele>173</ele>
        <time>2016-11-26T10:47:50Z</time>
      </trkpt>
      <trkpt lat="46.07742" lon="4.74981">
        <ele>172</ele>
        <time>2016-11-26T10:47:51Z</time>
      </trkpt>
      <trkpt lat="46.07737" lon="4.74978">
        <ele>172</ele>
        <time>2016-11-26T10:47:52Z</time>
      </trkpt>
      <trkpt lat="46.07733" lon="4.74975">
        <ele>172</ele>
        <time>2016-11-26T10:47:53Z</time>
      </trkpt>
      <trkpt lat="46.07729" lon="4.74971">
        <ele>172</ele>
        <time>2016-11-26T10:47:54Z</time>
      </trkpt>
      <trkpt lat="46.07724" lon="4.74968">
        <ele>172</ele>
        <time>2016-11-26T10:47:55Z</time>
      </trkpt>
      <trkpt lat="46.0772" lon="4.74965">
        <ele>172</ele>
        <time>2016-11-26T10:47:56Z</time>
      </trkpt>
      <trkpt lat="46.07716" lon="4.74961">
        <ele>172</ele>
        <time>2016-11-26T10:47:57Z</time>
      </trkpt>
      <trkpt lat="46.07712" lon="4.74957">
        <ele>172</ele>
        <time>2016-11-26T10:47:58Z</time>
      </trkpt>
      <trkpt lat="46.07708" lon="4.74954">
        <ele>172</ele>
        <time>2016-11-26T10:47:59Z</time>
      </trkpt>
      <trkpt lat="46.07704" lon="4.7495">
        <ele>172</ele>
        <time>2016-11-26T10:48:00Z</time>
      </trkpt>
      <trkpt lat="46.07699" lon="4.74946">
        <ele>172</ele>
        <time>2016-11-26T10:48:01Z</time>
      </trkpt>
      <trkpt lat="46.07695" lon="4.74943">
        <ele>172</ele>
        <time>2016-11-26T10:48:02Z</time>
      </trkpt>
      <trkpt lat="46.0769" lon="4.74938">
        <ele>172</ele>
        <time>2016-11-26T10:48:03Z</time>
      </trkpt>
      <trkpt lat="46.07685" lon="4.74934">
        <ele>172</ele>
        <time>2016-11-26T10:48:04Z</time>
      </trkpt>
      <trkpt lat="46.0768" lon="4.7493">
        <ele>172</ele>
        <time>2016-11-26T10:48:05Z</time>
      </trkpt>
      <trkpt lat="46.07675" lon="4.74926">
        <ele>172</ele>
        <time>2016-11-26T10:48:06Z</time>
      </trkpt>
      <trkpt lat="46.0767" lon="4.74922">
        <ele>172</ele>
        <time>2016-11-26T10:48:07Z</time>
      </trkpt>
      <trkpt lat="46.07666" lon="4.74918">
        <ele>172</ele>
        <time>2016-11-26T10:48:08Z</time>
      </trkpt>
      <trkpt lat="46.07661" lon="4.74915">
        <ele>172</ele>
        <time>2016-11-26T10:48:09Z</time>
      </trkpt>
      <trkpt lat="46.07656" lon="4.74912">
        <ele>172</ele>
        <time>2016-11-26T10:48:10Z</time>
      </trkpt>
      <trkpt lat="46.07652" lon="4.74908">
        <ele>171</ele>
        <time>2016-11-26T10:48:11Z</time>
      </trkpt>
      <trkpt lat="46.07648" lon="4.74905">
        <ele>171</ele>
        <time>2016-11-26T10:48:12Z</time>
      </trkpt>
      <trkpt lat="46.07644" lon="4.74902">
        <ele>171</ele>
        <time>2016-11-26T10:48:13Z</time>
      </trkpt>
      <trkpt lat="46.07639" lon="4.74898">
        <ele>171</ele>
        <time>2016-11-26T10:48:14Z</time>
      </trkpt>
      <trkpt lat="46.07635" lon="4.74895">
        <ele>171</ele>
        <time>2016-11-26T10:48:15Z</time>
      </trkpt>
      <trkpt lat="46.07631" lon="4.74891">
        <ele>171</ele>
        <time>2016-11-26T10:48:16Z</time>
      </trkpt>
      <trkpt lat="46.07627" lon="4.74887">
        <ele>171</ele>
        <time>2016-11-26T10:48:17Z</time>
      </trkpt>
      <trkpt lat="46.07622" lon="4.74884">
        <ele>171</ele>
        <time>2016-11-26T10:48:18Z</time>
      </trkpt>
      <trkpt lat="46.07617" lon="4.7488">
        <ele>171</ele>
        <time>2016-11-26T10:48:19Z</time>
      </trkpt>
      <trkpt lat="46.07612" lon="4.74876">
        <ele>171</ele>
        <time>2016-11-26T10:48:20Z</time>
      </trkpt>
      <trkpt lat="46.07607" lon="4.74872">
        <ele>171</ele>
        <time>2016-11-26T10:48:21Z</time>
      </trkpt>
      <trkpt lat="46.07602" lon="4.74868">
        <ele>171</ele>
        <time>2016-11-26T10:48:22Z</time>
      </trkpt>
      <trkpt lat="46.07597" lon="4.74864">
        <ele>171</ele>
        <time>2016-11-26T10:48:23Z</time>
      </trkpt>
      <trkpt lat="46.07592" lon="4.74859">
        <ele>171</ele>
        <time>2016-11-26T10:48:24Z</time>
      </trkpt>
      <trkpt lat="46.07586" lon="4.74855">
        <ele>171</ele>
        <time>2016-11-26T10:48:25Z</time>
      </trkpt>
      <trkpt lat="46.07581" lon="4.74851">
        <ele>171</ele>
        <time>2016-11-26T10:48:26Z</time>
      </trkpt>
      <trkpt lat="46.07576" lon="4.74847">
        <ele>171</ele>
        <time>2016-11-26T10:48:27Z</time>
      </trkpt>
      <trkpt lat="46.07571" lon="4.74843">
        <ele>171</ele>
        <time>2016-11-26T10:48:28Z</time>
      </trkpt>
      <trkpt lat="46.07566" lon="4.74839">
        <ele>171</ele>
        <time>2016-11-26T10:48:29Z</time>
      </trkpt>
      <trkpt lat="46.07562" lon="4.74835">
        <ele>171</ele>
        <time>2016-11-26T10:48:30Z</time>
      </trkpt>
      <trkpt lat="46.07557" lon="4.74831">
        <ele>172</ele>
        <time>2016-11-26T10:48:31Z</time>
      </trkpt>
      <trkpt lat="46.07552" lon="4.74828">
        <ele>172</ele>
        <time>2016-11-26T10:48:32Z</time>
      </trkpt>
      <trkpt lat="46.07548" lon="4.74824">
        <ele>172</ele>
        <time>2016-11-26T10:48:33Z</time>
      </trkpt>
      <trkpt lat="46.07543" lon="4.74821">
        <ele>172</ele>
        <time>2016-11-26T10:48:34Z</time>
      </trkpt>
      <trkpt lat="46.07538" lon="4.74817">
        <ele>172</ele>
        <time>2016-11-26T10:48:35Z</time>
      </trkpt>
      <trkpt lat="46.07534" lon="4.74814">
        <ele>172</ele>
        <time>2016-11-26T10:48:36Z</time>
      </trkpt>
      <trkpt lat="46.07529" lon="4.7481">
        <ele>172</ele>
        <time>2016-11-26T10:48:37Z</time>
      </trkpt>
      <trkpt lat="46.07524" lon="4.74806">
        <ele>172</ele>
        <time>2016-11-26T10:48:38Z</time>
      </trkpt>
      <trkpt lat="46.07519" lon="4.74802">
        <ele>172</ele>
        <time>2016-11-26T10:48:39Z</time>
      </trkpt>
      <trkpt lat="46.07515" lon="4.74798">
        <ele>172</ele>
        <time>2016-11-26T10:48:40Z</time>
      </trkpt>
      <trkpt lat="46.0751" lon="4.74794">
        <ele>172</ele>
        <time>2016-11-26T10:48:41Z</time>
      </trkpt>
      <trkpt lat="46.07505" lon="4.74791">
        <ele>172</ele>
        <time>2016-11-26T10:48:42Z</time>
      </trkpt>
      <trkpt lat="46.07501" lon="4.74787">
        <ele>172</ele>
        <time>2016-11-26T10:48:43Z</time>
      </trkpt>
      <trkpt lat="46.07496" lon="4.74783">
        <ele>173</ele>
        <time>2016-11-26T10:48:44Z</time>
      </trkpt>
      <trkpt lat="46.07492" lon="4.74779">
        <ele>173</ele>
        <time>2016-11-26T10:48:45Z</time>
      </trkpt>
      <trkpt lat="46.07487" lon="4.74775">
        <ele>173</ele>
        <time>2016-11-26T10:48:46Z</time>
      </trkpt>
      <trkpt lat="46.07483" lon="4.7477">
        <ele>173</ele>
        <time>2016-11-26T10:48:47Z</time>
      </trkpt>
      <trkpt lat="46.07478" lon="4.74766">
        <ele>173</ele>
        <time>2016-11-26T10:48:48Z</time>
      </trkpt>
      <trkpt lat="46.07474" lon="4.74761">
        <ele>173</ele>
        <time>2016-11-26T10:48:49Z</time>
      </trkpt>
      <trkpt lat="46.07469" lon="4.74757">
        <ele>173</ele>
        <time>2016-11-26T10:48:50Z</time>
      </trkpt>
      <trkpt lat="46.07465" lon="4.74752">
        <ele>173</ele>
        <time>2016-11-26T10:48:51Z</time>
      </trkpt>
      <trkpt lat="46.07461" lon="4.74747">
        <ele>173</ele>
        <time>2016-11-26T10:48:52Z</time>
      </trkpt>
      <trkpt lat="46.07457" lon="4.74741">
        <ele>173</ele>
        <time>2016-11-26T10:48:53Z</time>
      </trkpt>
      <trkpt lat="46.07453" lon="4.74735">
        <ele>173</ele>
        <time>2016-11-26T10:48:54Z</time>
      </trkpt>
      <trkpt lat="46.07449" lon="4.74728">
        <ele>173</ele>
        <time>2016-11-26T10:48:55Z</time>
      </trkpt>
      <trkpt lat="46.07445" lon="4.74721">
        <ele>173</ele>
        <time>2016-11-26T10:48:56Z</time>
      </trkpt>
      <trkpt lat="46.07441" lon="4.74715">
        <ele>173</ele>
        <time>2016-11-26T10:48:57Z</time>
      </trkpt>
      <trkpt lat="46.07438" lon="4.74708">
        <ele>173</ele>
        <time>2016-11-26T10:48:58Z</time>
      </trkpt>
      <trkpt lat="46.07435" lon="4.74702">
        <ele>173</ele>
        <time>2016-11-26T10:48:59Z</time>
      </trkpt>
      <trkpt lat="46.07432" lon="4.74697">
        <ele>173</ele>
        <time>2016-11-26T10:49:00Z</time>
      </trkpt>
      <trkpt lat="46.07429" lon="4.74691">
        <ele>173</ele>
        <time>2016-11-26T10:49:01Z</time>
      </trkpt>
      <trkpt lat="46.07426" lon="4.74685">
        <ele>172</ele>
        <time>2016-11-26T10:49:02Z</time>
      </trkpt>
      <trkpt lat="46.07424" lon="4.7468">
        <ele>172</ele>
        <time>2016-11-26T10:49:03Z</time>
      </trkpt>
      <trkpt lat="46.07421" lon="4.74674">
        <ele>172</ele>
        <time>2016-11-26T10:49:04Z</time>
      </trkpt>
      <trkpt lat="46.07418" lon="4.74668">
        <ele>172</ele>
        <time>2016-11-26T10:49:05Z</time>
      </trkpt>
      <trkpt lat="46.07415" lon="4.74663">
        <ele>172</ele>
        <time>2016-11-26T10:49:06Z</time>
      </trkpt>
      <trkpt lat="46.07412" lon="4.74657">
        <ele>173</ele>
        <time>2016-11-26T10:49:07Z</time>
      </trkpt>
      <trkpt lat="46.07409" lon="4.74651">
        <ele>173</ele>
        <time>2016-11-26T10:49:08Z</time>
      </trkpt>
      <trkpt lat="46.07406" lon="4.74645">
        <ele>173</ele>
        <time>2016-11-26T10:49:09Z</time>
      </trkpt>
      <trkpt lat="46.07403" lon="4.74639">
        <ele>174</ele>
        <time>2016-11-26T10:49:10Z</time>
      </trkpt>
      <trkpt lat="46.074" lon="4.74633">
        <ele>174</ele>
        <time>2016-11-26T10:49:11Z</time>
      </trkpt>
      <trkpt lat="46.07397" lon="4.74627">
        <ele>174</ele>
        <time>2016-11-26T10:49:12Z</time>
      </trkpt>
      <trkpt lat="46.07394" lon="4.74621">
        <ele>174</ele>
        <time>2016-11-26T10:49:13Z</time>
      </trkpt>
      <trkpt lat="46.07391" lon="4.74615">
        <ele>174</ele>
        <time>2016-11-26T10:49:14Z</time>
      </trkpt>
      <trkpt lat="46.07388" lon="4.74608">
        <ele>174</ele>
        <time>2016-11-26T10:49:15Z</time>
      </trkpt>
      <trkpt lat="46.07386" lon="4.74602">
        <ele>174</ele>
        <time>2016-11-26T10:49:16Z</time>
      </trkpt>
      <trkpt lat="46.07383" lon="4.74596">
        <ele>174</ele>
        <time>2016-11-26T10:49:17Z</time>
      </trkpt>
      <trkpt lat="46.0738" lon="4.7459">
        <ele>174</ele>
        <time>2016-11-26T10:49:18Z</time>
      </trkpt>
      <trkpt lat="46.07377" lon="4.74584">
        <ele>174</ele>
        <time>2016-11-26T10:49:19Z</time>
      </trkpt>
      <trkpt lat="46.07374" lon="4.74579">
        <ele>175</ele>
        <time>2016-11-26T10:49:20Z</time>
      </trkpt>
      <trkpt lat="46.07371" lon="4.74573">
        <ele>175</ele>
        <time>2016-11-26T10:49:21Z</time>
      </trkpt>
      <trkpt lat="46.07368" lon="4.74568">
        <ele>175</ele>
        <time>2016-11-26T10:49:22Z</time>
      </trkpt>
      <trkpt lat="46.07365" lon="4.74563">
        <ele>175</ele>
        <time>2016-11-26T10:49:23Z</time>
      </trkpt>
      <trkpt lat="46.07361" lon="4.74557">
        <ele>175</ele>
        <time>2016-11-26T10:49:24Z</time>
      </trkpt>
      <trkpt lat="46.07358" lon="4.74552">
        <ele>175</ele>
        <time>2016-11-26T10:49:25Z</time>
      </trkpt>
      <trkpt lat="46.07355" lon="4.74546">
        <ele>175</ele>
        <time>2016-11-26T10:49:26Z</time>
      </trkpt>
      <trkpt lat="46.07351" lon="4.74541">
        <ele>175</ele>
        <time>2016-11-26T10:49:27Z</time>
      </trkpt>
      <trkpt lat="46.07348" lon="4.74536">
        <ele>175</ele>
        <time>2016-11-26T10:49:28Z</time>
      </trkpt>
      <trkpt lat="46.07345" lon="4.74531">
        <ele>175</ele>
        <time>2016-11-26T10:49:29Z</time>
      </trkpt>
      <trkpt lat="46.07342" lon="4.74525">
        <ele>175</ele>
        <time>2016-11-26T10:49:30Z</time>
      </trkpt>
      <trkpt lat="46.07339" lon="4.74519">
        <ele>175</ele>
        <time>2016-11-26T10:49:31Z</time>
      </trkpt>
      <trkpt lat="46.07336" lon="4.74513">
        <ele>175</ele>
        <time>2016-11-26T10:49:32Z</time>
      </trkpt>
      <trkpt lat="46.07333" lon="4.74507">
        <ele>176</ele>
        <time>2016-11-26T10:49:33Z</time>
      </trkpt>
      <trkpt lat="46.0733" lon="4.745">
        <ele>176</ele>
        <time>2016-11-26T10:49:34Z</time>
      </trkpt>
      <trkpt lat="46.07327" lon="4.74494">
        <ele>176</ele>
        <time>2016-11-26T10:49:35Z</time>
      </trkpt>
      <trkpt lat="46.07324" lon="4.74488">
        <ele>175</ele>
        <time>2016-11-26T10:49:36Z</time>
      </trkpt>
      <trkpt lat="46.07321" lon="4.74482">
        <ele>175</ele>
        <time>2016-11-26T10:49:37Z</time>
      </trkpt>
      <trkpt lat="46.07318" lon="4.74476">
        <ele>175</ele>
        <time>2016-11-26T10:49:38Z</time>
      </trkpt>
      <trkpt lat="46.07315" lon="4.74469">
        <ele>175</ele>
        <time>2016-11-26T10:49:39Z</time>
      </trkpt>
      <trkpt lat="46.07313" lon="4.74462">
        <ele>175</ele>
        <time>2016-11-26T10:49:40Z</time>
      </trkpt>
      <trkpt lat="46.07311" lon="4.74456">
        <ele>175</ele>
        <time>2016-11-26T10:49:41Z</time>
      </trkpt>
      <trkpt lat="46.07309" lon="4.74449">
        <ele>175</ele>
        <time>2016-11-26T10:49:42Z</time>
      </trkpt>
      <trkpt lat="46.07307" lon="4.74442">
        <ele>175</ele>
        <time>2016-11-26T10:49:43Z</time>
      </trkpt>
      <trkpt lat="46.07306" lon="4.74435">
        <ele>175</ele>
        <time>2016-11-26T10:49:44Z</time>
      </trkpt>
      <trkpt lat="46.07305" lon="4.74428">
        <ele>175</ele>
        <time>2016-11-26T10:49:45Z</time>
      </trkpt>
      <trkpt lat="46.07304" lon="4.74421">
        <ele>175</ele>
        <time>2016-11-26T10:49:46Z</time>
      </trkpt>
      <trkpt lat="46.07303" lon="4.74413">
        <ele>174</ele>
        <time>2016-11-26T10:49:47Z</time>
      </trkpt>
      <trkpt lat="46.07302" lon="4.74406">
        <ele>174</ele>
        <time>2016-11-26T10:49:48Z</time>
      </trkpt>
      <trkpt lat="46.07301" lon="4.74399">
        <ele>174</ele>
        <time>2016-11-26T10:49:49Z</time>
      </trkpt>
      <trkpt lat="46.073" lon="4.74392">
        <ele>174</ele>
        <time>2016-11-26T10:49:50Z</time>
      </trkpt>
      <trkpt lat="46.07299" lon="4.74385">
        <ele>174</ele>
        <time>2016-11-26T10:49:51Z</time>
      </trkpt>
      <trkpt lat="46.07299" lon="4.74378">
        <ele>174</ele>
        <time>2016-11-26T10:49:52Z</time>
      </trkpt>
      <trkpt lat="46.07298" lon="4.7437">
        <ele>174</ele>
        <time>2016-11-26T10:49:53Z</time>
      </trkpt>
      <trkpt lat="46.07297" lon="4.74363">
        <ele>174</ele>
        <time>2016-11-26T10:49:54Z</time>
      </trkpt>
      <trkpt lat="46.07296" lon="4.74356">
        <ele>174</ele>
        <time>2016-11-26T10:49:55Z</time>
      </trkpt>
      <trkpt lat="46.07296" lon="4.74349">
        <ele>174</ele>
        <time>2016-11-26T10:49:56Z</time>
      </trkpt>
      <trkpt lat="46.07295" lon="4.74341">
        <ele>174</ele>
        <time>2016-11-26T10:49:57Z</time>
      </trkpt>
      <trkpt lat="46.07294" lon="4.74334">
        <ele>174</ele>
        <time>2016-11-26T10:49:58Z</time>
      </trkpt>
      <trkpt lat="46.07292" lon="4.74326">
        <ele>174</ele>
        <time>2016-11-26T10:49:59Z</time>
      </trkpt>
      <trkpt lat="46.07291" lon="4.74319">
        <ele>174</ele>
        <time>2016-11-26T10:50:00Z</time>
      </trkpt>
      <trkpt lat="46.0729" lon="4.74312">
        <ele>174</ele>
        <time>2016-11-26T10:50:01Z</time>
      </trkpt>
      <trkpt lat="46.07289" lon="4.74305">
        <ele>174</ele>
        <time>2016-11-26T10:50:02Z</time>
      </trkpt>
      <trkpt lat="46.07288" lon="4.74299">
        <ele>174</ele>
        <time>2016-11-26T10:50:03Z</time>
      </trkpt>
      <trkpt lat="46.07287" lon="4.74292">
        <ele>174</ele>
        <time>2016-11-26T10:50:04Z</time>
      </trkpt>
      <trkpt lat="46.07285" lon="4.74286">
        <ele>175</ele>
        <time>2016-11-26T10:50:05Z</time>
      </trkpt>
      <trkpt lat="46.07283" lon="4.74279">
        <ele>175</ele>
        <time>2016-11-26T10:50:06Z</time>
      </trkpt>
      <trkpt lat="46.07281" lon="4.74272">
        <ele>175</ele>
        <time>2016-11-26T10:50:07Z</time>
      </trkpt>
      <trkpt lat="46.07279" lon="4.74266">
        <ele>175</ele>
        <time>2016-11-26T10:50:08Z</time>
      </trkpt>
      <trkpt lat="46.07277" lon="4.74259">
        <ele>175</ele>
        <time>2016-11-26T10:50:09Z</time>
      </trkpt>
      <trkpt lat="46.07274" lon="4.74253">
        <ele>175</ele>
        <time>2016-11-26T10:50:10Z</time>
      </trkpt>
      <trkpt lat="46.07272" lon="4.74247">
        <ele>175</ele>
        <time>2016-11-26T10:50:11Z</time>
      </trkpt>
      <trkpt lat="46.0727" lon="4.7424">
        <ele>175</ele>
        <time>2016-11-26T10:50:12Z</time>
      </trkpt>
      <trkpt lat="46.07268" lon="4.74234">
        <ele>175</ele>
        <time>2016-11-26T10:50:13Z</time>
      </trkpt>
      <trkpt lat="46.07266" lon="4.74228">
        <ele>176</ele>
        <time>2016-11-26T10:50:14Z</time>
      </trkpt>
      <trkpt lat="46.07263" lon="4.74222">
        <ele>176</ele>
        <time>2016-11-26T10:50:15Z</time>
      </trkpt>
      <trkpt lat="46.07261" lon="4.74216">
        <ele>176</ele>
        <time>2016-11-26T10:50:16Z</time>
      </trkpt>
      <trkpt lat="46.07258" lon="4.74205">
        <ele>176</ele>
        <time>2016-11-26T10:50:18Z</time>
      </trkpt>
      <trkpt lat="46.07256" lon="4.74199">
        <ele>176</ele>
        <time>2016-11-26T10:50:19Z</time>
      </trkpt>
      <trkpt lat="46.07252" lon="4.74188">
        <ele>176</ele>
        <time>2016-11-26T10:50:21Z</time>
      </trkpt>
      <trkpt lat="46.07251" lon="4.74182">
        <ele>176</ele>
        <time>2016-11-26T10:50:22Z</time>
      </trkpt>
      <trkpt lat="46.07248" lon="4.74176">
        <ele>177</ele>
        <time>2016-11-26T10:50:23Z</time>
      </trkpt>
      <trkpt lat="46.07246" lon="4.7417">
        <ele>177</ele>
        <time>2016-11-26T10:50:24Z</time>
      </trkpt>
      <trkpt lat="46.07244" lon="4.74165">
        <ele>177</ele>
        <time>2016-11-26T10:50:25Z</time>
      </trkpt>
      <trkpt lat="46.07242" lon="4.74158">
        <ele>177</ele>
        <time>2016-11-26T10:50:26Z</time>
      </trkpt>
      <trkpt lat="46.0724" lon="4.74152">
        <ele>177</ele>
        <time>2016-11-26T10:50:27Z</time>
      </trkpt>
      <trkpt lat="46.07238" lon="4.74146">
        <ele>177</ele>
        <time>2016-11-26T10:50:28Z</time>
      </trkpt>
      <trkpt lat="46.07234" lon="4.74134">
        <ele>177</ele>
        <time>2016-11-26T10:50:30Z</time>
      </trkpt>
      <trkpt lat="46.07232" lon="4.74128">
        <ele>177</ele>
        <time>2016-11-26T10:50:31Z</time>
      </trkpt>
      <trkpt lat="46.07229" lon="4.74117">
        <ele>177</ele>
        <time>2016-11-26T10:50:33Z</time>
      </trkpt>
      <trkpt lat="46.07227" lon="4.74111">
        <ele>177</ele>
        <time>2016-11-26T10:50:34Z</time>
      </trkpt>
      <trkpt lat="46.07225" lon="4.74105">
        <ele>177</ele>
        <time>2016-11-26T10:50:35Z</time>
      </trkpt>
      <trkpt lat="46.07223" lon="4.74098">
        <ele>177</ele>
        <time>2016-11-26T10:50:36Z</time>
      </trkpt>
      <trkpt lat="46.0722" lon="4.74092">
        <ele>177</ele>
        <time>2016-11-26T10:50:37Z</time>
      </trkpt>
      <trkpt lat="46.07218" lon="4.74085">
        <ele>177</ele>
        <time>2016-11-26T10:50:38Z</time>
      </trkpt>
      <trkpt lat="46.07216" lon="4.74079">
        <ele>177</ele>
        <time>2016-11-26T10:50:39Z</time>
      </trkpt>
      <trkpt lat="46.07214" lon="4.74072">
        <ele>177</ele>
        <time>2016-11-26T10:50:40Z</time>
      </trkpt>
      <trkpt lat="46.07212" lon="4.74066">
        <ele>177</ele>
        <time>2016-11-26T10:50:41Z</time>
      </trkpt>
      <trkpt lat="46.0721" lon="4.74059">
        <ele>177</ele>
        <time>2016-11-26T10:50:42Z</time>
      </trkpt>
      <trkpt lat="46.07207" lon="4.74052">
        <ele>178</ele>
        <time>2016-11-26T10:50:43Z</time>
      </trkpt>
      <trkpt lat="46.07205" lon="4.74045">
        <ele>178</ele>
        <time>2016-11-26T10:50:44Z</time>
      </trkpt>
      <trkpt lat="46.07202" lon="4.74038">
        <ele>178</ele>
        <time>2016-11-26T10:50:45Z</time>
      </trkpt>
      <trkpt lat="46.072" lon="4.7403">
        <ele>178</ele>
        <time>2016-11-26T10:50:46Z</time>
      </trkpt>
      <trkpt lat="46.07198" lon="4.74023">
        <ele>178</ele>
        <time>2016-11-26T10:50:47Z</time>
      </trkpt>
      <trkpt lat="46.07195" lon="4.74015">
        <ele>178</ele>
        <time>2016-11-26T10:50:48Z</time>
      </trkpt>
      <trkpt lat="46.07192" lon="4.74006">
        <ele>178</ele>
        <time>2016-11-26T10:50:49Z</time>
      </trkpt>
      <trkpt lat="46.07189" lon="4.73998">
        <ele>178</ele>
        <time>2016-11-26T10:50:50Z</time>
      </trkpt>
      <trkpt lat="46.07186" lon="4.73989">
        <ele>178</ele>
        <time>2016-11-26T10:50:51Z</time>
      </trkpt>
      <trkpt lat="46.07182" lon="4.7398">
        <ele>178</ele>
        <time>2016-11-26T10:50:52Z</time>
      </trkpt>
      <trkpt lat="46.07179" lon="4.73971">
        <ele>178</ele>
        <time>2016-11-26T10:50:53Z</time>
      </trkpt>
      <trkpt lat="46.07176" lon="4.73962">
        <ele>178</ele>
        <time>2016-11-26T10:50:54Z</time>
      </trkpt>
      <trkpt lat="46.07172" lon="4.73953">
        <ele>177</ele>
        <time>2016-11-26T10:50:55Z</time>
      </trkpt>
      <trkpt lat="46.07169" lon="4.73944">
        <ele>177</ele>
        <time>2016-11-26T10:50:56Z</time>
      </trkpt>
      <trkpt lat="46.07166" lon="4.73934">
        <ele>177</ele>
        <time>2016-11-26T10:50:57Z</time>
      </trkpt>
      <trkpt lat="46.07163" lon="4.73925">
        <ele>177</ele>
        <time>2016-11-26T10:50:58Z</time>
      </trkpt>
      <trkpt lat="46.0716" lon="4.73916">
        <ele>177</ele>
        <time>2016-11-26T10:50:59Z</time>
      </trkpt>
      <trkpt lat="46.07158" lon="4.73908">
        <ele>177</ele>
        <time>2016-11-26T10:51:00Z</time>
      </trkpt>
      <trkpt lat="46.07155" lon="4.739">
        <ele>177</ele>
        <time>2016-11-26T10:51:01Z</time>
      </trkpt>
      <trkpt lat="46.07152" lon="4.73893">
        <ele>177</ele>
        <time>2016-11-26T10:51:02Z</time>
      </trkpt>
      <trkpt lat="46.0715" lon="4.73887">
        <ele>176</ele>
        <time>2016-11-26T10:51:03Z</time>
      </trkpt>
      <trkpt lat="46.07147" lon="4.73881">
        <ele>176</ele>
        <time>2016-11-26T10:51:04Z</time>
      </trkpt>
      <trkpt lat="46.07144" lon="4.73875">
        <ele>176</ele>
        <time>2016-11-26T10:51:05Z</time>
      </trkpt>
      <trkpt lat="46.07141" lon="4.73869">
        <ele>176</ele>
        <time>2016-11-26T10:51:06Z</time>
      </trkpt>
      <trkpt lat="46.07138" lon="4.73864">
        <ele>176</ele>
        <time>2016-11-26T10:51:07Z</time>
      </trkpt>
      <trkpt lat="46.07135" lon="4.73859">
        <ele>176</ele>
        <time>2016-11-26T10:51:08Z</time>
      </trkpt>
      <trkpt lat="46.07129" lon="4.7385">
        <ele>176</ele>
        <time>2016-11-26T10:51:10Z</time>
      </trkpt>
      <trkpt lat="46.07125" lon="4.73845">
        <ele>176</ele>
        <time>2016-11-26T10:51:11Z</time>
      </trkpt>
      <trkpt lat="46.07121" lon="4.73841">
        <ele>177</ele>
        <time>2016-11-26T10:51:12Z</time>
      </trkpt>
      <trkpt lat="46.07117" lon="4.73836">
        <ele>177</ele>
        <time>2016-11-26T10:51:13Z</time>
      </trkpt>
      <trkpt lat="46.07113" lon="4.73832">
        <ele>177</ele>
        <time>2016-11-26T10:51:14Z</time>
      </trkpt>
      <trkpt lat="46.07109" lon="4.73827">
        <ele>178</ele>
        <time>2016-11-26T10:51:15Z</time>
      </trkpt>
      <trkpt lat="46.07104" lon="4.73823">
        <ele>178</ele>
        <time>2016-11-26T10:51:16Z</time>
      </trkpt>
      <trkpt lat="46.071" lon="4.73818">
        <ele>178</ele>
        <time>2016-11-26T10:51:17Z</time>
      </trkpt>
      <trkpt lat="46.07095" lon="4.73814">
        <ele>178</ele>
        <time>2016-11-26T10:51:18Z</time>
      </trkpt>
      <trkpt lat="46.0709" lon="4.73811">
        <ele>178</ele>
        <time>2016-11-26T10:51:19Z</time>
      </trkpt>
      <trkpt lat="46.07085" lon="4.73807">
        <ele>178</ele>
        <time>2016-11-26T10:51:20Z</time>
      </trkpt>
      <trkpt lat="46.0708" lon="4.73804">
        <ele>178</ele>
        <time>2016-11-26T10:51:21Z</time>
      </trkpt>
      <trkpt lat="46.07074" lon="4.73801">
        <ele>178</ele>
        <time>2016-11-26T10:51:22Z</time>
      </trkpt>
      <trkpt lat="46.07069" lon="4.73798">
        <ele>178</ele>
        <time>2016-11-26T10:51:23Z</time>
      </trkpt>
      <trkpt lat="46.07063" lon="4.73796">
        <ele>178</ele>
        <time>2016-11-26T10:51:24Z</time>
      </trkpt>
      <trkpt lat="46.07058" lon="4.73794">
        <ele>178</ele>
        <time>2016-11-26T10:51:25Z</time>
      </trkpt>
      <trkpt lat="46.07052" lon="4.73793">
        <ele>177</ele>
        <time>2016-11-26T10:51:26Z</time>
      </trkpt>
      <trkpt lat="46.07046" lon="4.73792">
        <ele>177</ele>
        <time>2016-11-26T10:51:27Z</time>
      </trkpt>
      <trkpt lat="46.0704" lon="4.73791">
        <ele>177</ele>
        <time>2016-11-26T10:51:28Z</time>
      </trkpt>
      <trkpt lat="46.07034" lon="4.7379">
        <ele>177</ele>
        <time>2016-11-26T10:51:29Z</time>
      </trkpt>
      <trkpt lat="46.07028" lon="4.73789">
        <ele>177</ele>
        <time>2016-11-26T10:51:30Z</time>
      </trkpt>
      <trkpt lat="46.07022" lon="4.73788">
        <ele>177</ele>
        <time>2016-11-26T10:51:31Z</time>
      </trkpt>
      <trkpt lat="46.07016" lon="4.73787">
        <ele>177</ele>
        <time>2016-11-26T10:51:32Z</time>
      </trkpt>
      <trkpt lat="46.0701" lon="4.73786">
        <ele>177</ele>
        <time>2016-11-26T10:51:33Z</time>
      </trkpt>
      <trkpt lat="46.07004" lon="4.73785">
        <ele>177</ele>
        <time>2016-11-26T10:51:34Z</time>
      </trkpt>
      <trkpt lat="46.06999" lon="4.73784">
        <ele>176</ele>
        <time>2016-11-26T10:51:35Z</time>
      </trkpt>
      <trkpt lat="46.06994" lon="4.73784">
        <ele>176</ele>
        <time>2016-11-26T10:51:36Z</time>
      </trkpt>
      <trkpt lat="46.06989" lon="4.73783">
        <ele>176</ele>
        <time>2016-11-26T10:51:37Z</time>
      </trkpt>
      <trkpt lat="46.06984" lon="4.73782">
        <ele>176</ele>
        <time>2016-11-26T10:51:38Z</time>
      </trkpt>
      <trkpt lat="46.06979" lon="4.73781">
        <ele>176</ele>
        <time>2016-11-26T10:51:39Z</time>
      </trkpt>
      <trkpt lat="46.06973" lon="4.7378">
        <ele>176</ele>
        <time>2016-11-26T10:51:40Z</time>
      </trkpt>
      <trkpt lat="46.06968" lon="4.73778">
        <ele>176</ele>
        <time>2016-11-26T10:51:41Z</time>
      </trkpt>
      <trkpt lat="46.06962" lon="4.73777">
        <ele>176</ele>
        <time>2016-11-26T10:51:42Z</time>
      </trkpt>
      <trkpt lat="46.06956" lon="4.73774">
        <ele>176</ele>
        <time>2016-11-26T10:51:43Z</time>
      </trkpt>
      <trkpt lat="46.0695" lon="4.73772">
        <ele>176</ele>
        <time>2016-11-26T10:51:44Z</time>
      </trkpt>
      <trkpt lat="46.06944" lon="4.73769">
        <ele>176</ele>
        <time>2016-11-26T10:51:45Z</time>
      </trkpt>
      <trkpt lat="46.06938" lon="4.73765">
        <ele>176</ele>
        <time>2016-11-26T10:51:46Z</time>
      </trkpt>
      <trkpt lat="46.06932" lon="4.73761">
        <ele>177</ele>
        <time>2016-11-26T10:51:47Z</time>
      </trkpt>
      <trkpt lat="46.06927" lon="4.73757">
        <ele>177</ele>
        <time>2016-11-26T10:51:48Z</time>
      </trkpt>
      <trkpt lat="46.06922" lon="4.73753">
        <ele>177</ele>
        <time>2016-11-26T10:51:49Z</time>
      </trkpt>
      <trkpt lat="46.06918" lon="4.73748">
        <ele>177</ele>
        <time>2016-11-26T10:51:50Z</time>
      </trkpt>
      <trkpt lat="46.06914" lon="4.73742">
        <ele>177</ele>
        <time>2016-11-26T10:51:51Z</time>
      </trkpt>
      <trkpt lat="46.06911" lon="4.73737">
        <ele>177</ele>
        <time>2016-11-26T10:51:52Z</time>
      </trkpt>
      <trkpt lat="46.06907" lon="4.73732">
        <ele>177</ele>
        <time>2016-11-26T10:51:53Z</time>
      </trkpt>
      <trkpt lat="46.06903" lon="4.73728">
        <ele>176</ele>
        <time>2016-11-26T10:51:54Z</time>
      </trkpt>
      <trkpt lat="46.06899" lon="4.73723">
        <ele>176</ele>
        <time>2016-11-26T10:51:55Z</time>
      </trkpt>
      <trkpt lat="46.06895" lon="4.73718">
        <ele>176</ele>
        <time>2016-11-26T10:51:56Z</time>
      </trkpt>
      <trkpt lat="46.06891" lon="4.73713">
        <ele>176</ele>
        <time>2016-11-26T10:51:57Z</time>
      </trkpt>
      <trkpt lat="46.06887" lon="4.73707">
        <ele>176</ele>
        <time>2016-11-26T10:51:58Z</time>
      </trkpt>
      <trkpt lat="46.06882" lon="4.73701">
        <ele>176</ele>
        <time>2016-11-26T10:51:59Z</time>
      </trkpt>
      <trkpt lat="46.06878" lon="4.73695">
        <ele>176</ele>
        <time>2016-11-26T10:52:00Z</time>
      </trkpt>
      <trkpt lat="46.06872" lon="4.73689">
        <ele>176</ele>
        <time>2016-11-26T10:52:01Z</time>
      </trkpt>
      <trkpt lat="46.06867" lon="4.73684">
        <ele>176</ele>
        <time>2016-11-26T10:52:02Z</time>
      </trkpt>
      <trkpt lat="46.06863" lon="4.73678">
        <ele>176</ele>
        <time>2016-11-26T10:52:03Z</time>
      </trkpt>
      <trkpt lat="46.06858" lon="4.73673">
        <ele>176</ele>
        <time>2016-11-26T10:52:04Z</time>
      </trkpt>
      <trkpt lat="46.06853" lon="4.73668">
        <ele>176</ele>
        <time>2016-11-26T10:52:05Z</time>
      </trkpt>
      <trkpt lat="46.06849" lon="4.73662">
        <ele>176</ele>
        <time>2016-11-26T10:52:06Z</time>
      </trkpt>
      <trkpt lat="46.06844" lon="4.73657">
        <ele>176</ele>
        <time>2016-11-26T10:52:07Z</time>
      </trkpt>
      <trkpt lat="46.0684" lon="4.73652">
        <ele>176</ele>
        <time>2016-11-26T10:52:08Z</time>
      </trkpt>
      <trkpt lat="46.06836" lon="4.73647">
        <ele>176</ele>
        <time>2016-11-26T10:52:09Z</time>
      </trkpt>
      <trkpt lat="46.06832" lon="4.73643">
        <ele>177</ele>
        <time>2016-11-26T10:52:10Z</time>
      </trkpt>
      <trkpt lat="46.06827" lon="4.73637">
        <ele>178</ele>
        <time>2016-11-26T10:52:11Z</time>
      </trkpt>
      <trkpt lat="46.06823" lon="4.73632">
        <ele>178</ele>
        <time>2016-11-26T10:52:12Z</time>
      </trkpt>
      <trkpt lat="46.06818" lon="4.73627">
        <ele>178</ele>
        <time>2016-11-26T10:52:13Z</time>
      </trkpt>
      <trkpt lat="46.06813" lon="4.73621">
        <ele>178</ele>
        <time>2016-11-26T10:52:14Z</time>
      </trkpt>
      <trkpt lat="46.06808" lon="4.73616">
        <ele>178</ele>
        <time>2016-11-26T10:52:15Z</time>
      </trkpt>
      <trkpt lat="46.06804" lon="4.7361">
        <ele>178</ele>
        <time>2016-11-26T10:52:16Z</time>
      </trkpt>
      <trkpt lat="46.068" lon="4.73604">
        <ele>178</ele>
        <time>2016-11-26T10:52:17Z</time>
      </trkpt>
      <trkpt lat="46.06796" lon="4.73599">
        <ele>179</ele>
        <time>2016-11-26T10:52:18Z</time>
      </trkpt>
      <trkpt lat="46.06792" lon="4.73594">
        <ele>179</ele>
        <time>2016-11-26T10:52:19Z</time>
      </trkpt>
      <trkpt lat="46.06788" lon="4.73589">
        <ele>179</ele>
        <time>2016-11-26T10:52:20Z</time>
      </trkpt>
      <trkpt lat="46.06785" lon="4.73583">
        <ele>179</ele>
        <time>2016-11-26T10:52:21Z</time>
      </trkpt>
      <trkpt lat="46.06781" lon="4.73578">
        <ele>179</ele>
        <time>2016-11-26T10:52:22Z</time>
      </trkpt>
      <trkpt lat="46.06778" lon="4.73573">
        <ele>180</ele>
        <time>2016-11-26T10:52:23Z</time>
      </trkpt>
      <trkpt lat="46.06775" lon="4.73567">
        <ele>180</ele>
        <time>2016-11-26T10:52:24Z</time>
      </trkpt>
      <trkpt lat="46.06772" lon="4.73561">
        <ele>180</ele>
        <time>2016-11-26T10:52:25Z</time>
      </trkpt>
      <trkpt lat="46.06769" lon="4.73555">
        <ele>179</ele>
        <time>2016-11-26T10:52:26Z</time>
      </trkpt>
      <trkpt lat="46.06767" lon="4.73548">
        <ele>179</ele>
        <time>2016-11-26T10:52:27Z</time>
      </trkpt>
      <trkpt lat="46.06765" lon="4.73541">
        <ele>179</ele>
        <time>2016-11-26T10:52:28Z</time>
      </trkpt>
      <trkpt lat="46.06763" lon="4.73534">
        <ele>179</ele>
        <time>2016-11-26T10:52:29Z</time>
      </trkpt>
      <trkpt lat="46.06761" lon="4.73528">
        <ele>179</ele>
        <time>2016-11-26T10:52:30Z</time>
      </trkpt>
      <trkpt lat="46.06758" lon="4.73522">
        <ele>179</ele>
        <time>2016-11-26T10:52:31Z</time>
      </trkpt>
      <trkpt lat="46.06755" lon="4.73516">
        <ele>179</ele>
        <time>2016-11-26T10:52:32Z</time>
      </trkpt>
      <trkpt lat="46.06751" lon="4.73511">
        <ele>179</ele>
        <time>2016-11-26T10:52:33Z</time>
      </trkpt>
      <trkpt lat="46.06747" lon="4.73506">
        <ele>179</ele>
        <time>2016-11-26T10:52:34Z</time>
      </trkpt>
      <trkpt lat="46.06743" lon="4.73501">
        <ele>179</ele>
        <time>2016-11-26T10:52:35Z</time>
      </trkpt>
      <trkpt lat="46.06738" lon="4.73496">
        <ele>179</ele>
        <time>2016-11-26T10:52:36Z</time>
      </trkpt>
      <trkpt lat="46.06734" lon="4.73492">
        <ele>180</ele>
        <time>2016-11-26T10:52:37Z</time>
      </trkpt>
      <trkpt lat="46.06729" lon="4.73487">
        <ele>180</ele>
        <time>2016-11-26T10:52:38Z</time>
      </trkpt>
      <trkpt lat="46.06725" lon="4.73481">
        <ele>180</ele>
        <time>2016-11-26T10:52:39Z</time>
      </trkpt>
      <trkpt lat="46.06721" lon="4.73476">
        <ele>180</ele>
        <time>2016-11-26T10:52:40Z</time>
      </trkpt>
      <trkpt lat="46.06717" lon="4.7347">
        <ele>180</ele>
        <time>2016-11-26T10:52:41Z</time>
      </trkpt>
      <trkpt lat="46.06713" lon="4.73464">
        <ele>180</ele>
        <time>2016-11-26T10:52:42Z</time>
      </trkpt>
      <trkpt lat="46.0671" lon="4.73459">
        <ele>180</ele>
        <time>2016-11-26T10:52:43Z</time>
      </trkpt>
      <trkpt lat="46.06706" lon="4.73453">
        <ele>180</ele>
        <time>2016-11-26T10:52:44Z</time>
      </trkpt>
      <trkpt lat="46.06702" lon="4.73448">
        <ele>180</ele>
        <time>2016-11-26T10:52:45Z</time>
      </trkpt>
      <trkpt lat="46.06698" lon="4.73442">
        <ele>180</ele>
        <time>2016-11-26T10:52:46Z</time>
      </trkpt>
      <trkpt lat="46.06694" lon="4.73436">
        <ele>181</ele>
        <time>2016-11-26T10:52:47Z</time>
      </trkpt>
      <trkpt lat="46.0669" lon="4.7343">
        <ele>181</ele>
        <time>2016-11-26T10:52:48Z</time>
      </trkpt>
      <trkpt lat="46.06686" lon="4.73424">
        <ele>181</ele>
        <time>2016-11-26T10:52:49Z</time>
      </trkpt>
      <trkpt lat="46.06683" lon="4.73418">
        <ele>181</ele>
        <time>2016-11-26T10:52:50Z</time>
      </trkpt>
      <trkpt lat="46.06679" lon="4.73412">
        <ele>181</ele>
        <time>2016-11-26T10:52:51Z</time>
      </trkpt>
      <trkpt lat="46.06675" lon="4.73406">
        <ele>181</ele>
        <time>2016-11-26T10:52:52Z</time>
      </trkpt>
      <trkpt lat="46.06671" lon="4.73401">
        <ele>181</ele>
        <time>2016-11-26T10:52:53Z</time>
      </trkpt>
      <trkpt lat="46.06667" lon="4.73395">
        <ele>181</ele>
        <time>2016-11-26T10:52:54Z</time>
      </trkpt>
      <trkpt lat="46.06663" lon="4.7339">
        <ele>182</ele>
        <time>2016-11-26T10:52:55Z</time>
      </trkpt>
      <trkpt lat="46.06659" lon="4.73384">
        <ele>182</ele>
        <time>2016-11-26T10:52:56Z</time>
      </trkpt>
      <trkpt lat="46.06655" lon="4.73379">
        <ele>182</ele>
        <time>2016-11-26T10:52:57Z</time>
      </trkpt>
      <trkpt lat="46.0665" lon="4.73373">
        <ele>182</ele>
        <time>2016-11-26T10:52:58Z</time>
      </trkpt>
      <trkpt lat="46.06646" lon="4.73368">
        <ele>182</ele>
        <time>2016-11-26T10:52:59Z</time>
      </trkpt>
      <trkpt lat="46.06641" lon="4.73363">
        <ele>182</ele>
        <time>2016-11-26T10:53:00Z</time>
      </trkpt>
      <trkpt lat="46.06635" lon="4.7336">
        <ele>182</ele>
        <time>2016-11-26T10:53:01Z</time>
      </trkpt>
      <trkpt lat="46.0663" lon="4.73357">
        <ele>182</ele>
        <time>2016-11-26T10:53:02Z</time>
      </trkpt>
      <trkpt lat="46.06624" lon="4.73354">
        <ele>182</ele>
        <time>2016-11-26T10:53:03Z</time>
      </trkpt>
      <trkpt lat="46.06618" lon="4.73352">
        <ele>182</ele>
        <time>2016-11-26T10:53:04Z</time>
      </trkpt>
      <trkpt lat="46.06613" lon="4.73349">
        <ele>182</ele>
        <time>2016-11-26T10:53:05Z</time>
      </trkpt>
      <trkpt lat="46.06608" lon="4.73346">
        <ele>182</ele>
        <time>2016-11-26T10:53:06Z</time>
      </trkpt>
      <trkpt lat="46.06604" lon="4.73342">
        <ele>182</ele>
        <time>2016-11-26T10:53:07Z</time>
      </trkpt>
      <trkpt lat="46.06599" lon="4.73332">
        <ele>182</ele>
        <time>2016-11-26T10:53:09Z</time>
      </trkpt>
      <trkpt lat="46.06597" lon="4.73327">
        <ele>182</ele>
        <time>2016-11-26T10:53:10Z</time>
      </trkpt>
      <trkpt lat="46.06592" lon="4.73317">
        <ele>182</ele>
        <time>2016-11-26T10:53:12Z</time>
      </trkpt>
      <trkpt lat="46.06588" lon="4.73311">
        <ele>182</ele>
        <time>2016-11-26T10:53:13Z</time>
      </trkpt>
      <trkpt lat="46.06585" lon="4.73306">
        <ele>183</ele>
        <time>2016-11-26T10:53:14Z</time>
      </trkpt>
      <trkpt lat="46.06582" lon="4.733">
        <ele>183</ele>
        <time>2016-11-26T10:53:15Z</time>
      </trkpt>
      <trkpt lat="46.06579" lon="4.73294">
        <ele>184</ele>
        <time>2016-11-26T10:53:16Z</time>
      </trkpt>
      <trkpt lat="46.06577" lon="4.73287">
        <ele>184</ele>
        <time>2016-11-26T10:53:17Z</time>
      </trkpt>
      <trkpt lat="46.06574" lon="4.7328">
        <ele>184</ele>
        <time>2016-11-26T10:53:18Z</time>
      </trkpt>
      <trkpt lat="46.06572" lon="4.73273">
        <ele>184</ele>
        <time>2016-11-26T10:53:19Z</time>
      </trkpt>
      <trkpt lat="46.06569" lon="4.73267">
        <ele>184</ele>
        <time>2016-11-26T10:53:20Z</time>
      </trkpt>
      <trkpt lat="46.06567" lon="4.7326">
        <ele>184</ele>
        <time>2016-11-26T10:53:21Z</time>
      </trkpt>
      <trkpt lat="46.06565" lon="4.73254">
        <ele>184</ele>
        <time>2016-11-26T10:53:22Z</time>
      </trkpt>
      <trkpt lat="46.06563" lon="4.73247">
        <ele>186</ele>
        <time>2016-11-26T10:53:23Z</time>
      </trkpt>
      <trkpt lat="46.06561" lon="4.73241">
        <ele>186</ele>
        <time>2016-11-26T10:53:24Z</time>
      </trkpt>
      <trkpt lat="46.06559" lon="4.73235">
        <ele>186</ele>
        <time>2016-11-26T10:53:25Z</time>
      </trkpt>
      <trkpt lat="46.06557" lon="4.73228">
        <ele>186</ele>
        <time>2016-11-26T10:53:26Z</time>
      </trkpt>
      <trkpt lat="46.06555" lon="4.73221">
        <ele>186</ele>
        <time>2016-11-26T10:53:27Z</time>
      </trkpt>
      <trkpt lat="46.06553" lon="4.73215">
        <ele>186</ele>
        <time>2016-11-26T10:53:28Z</time>
      </trkpt>
      <trkpt lat="46.06551" lon="4.73208">
        <ele>186</ele>
        <time>2016-11-26T10:53:29Z</time>
      </trkpt>
      <trkpt lat="46.0655" lon="4.73201">
        <ele>186</ele>
        <time>2016-11-26T10:53:30Z</time>
      </trkpt>
      <trkpt lat="46.0655" lon="4.73195">
        <ele>187</ele>
        <time>2016-11-26T10:53:31Z</time>
      </trkpt>
      <trkpt lat="46.06549" lon="4.73182">
        <ele>187</ele>
        <time>2016-11-26T10:53:33Z</time>
      </trkpt>
      <trkpt lat="46.06549" lon="4.73175">
        <ele>187</ele>
        <time>2016-11-26T10:53:34Z</time>
      </trkpt>
      <trkpt lat="46.06548" lon="4.73168">
        <ele>187</ele>
        <time>2016-11-26T10:53:35Z</time>
      </trkpt>
      <trkpt lat="46.06548" lon="4.73161">
        <ele>187</ele>
        <time>2016-11-26T10:53:36Z</time>
      </trkpt>
      <trkpt lat="46.06547" lon="4.73154">
        <ele>187</ele>
        <time>2016-11-26T10:53:37Z</time>
      </trkpt>
      <trkpt lat="46.06546" lon="4.73147">
        <ele>187</ele>
        <time>2016-11-26T10:53:38Z</time>
      </trkpt>
      <trkpt lat="46.06544" lon="4.73141">
        <ele>187</ele>
        <time>2016-11-26T10:53:39Z</time>
      </trkpt>
      <trkpt lat="46.06543" lon="4.73134">
        <ele>187</ele>
        <time>2016-11-26T10:53:40Z</time>
      </trkpt>
      <trkpt lat="46.06542" lon="4.73127">
        <ele>188</ele>
        <time>2016-11-26T10:53:41Z</time>
      </trkpt>
      <trkpt lat="46.0654" lon="4.7312">
        <ele>188</ele>
        <time>2016-11-26T10:53:42Z</time>
      </trkpt>
      <trkpt lat="46.06537" lon="4.73114">
        <ele>188</ele>
        <time>2016-11-26T10:53:43Z</time>
      </trkpt>
      <trkpt lat="46.06534" lon="4.73107">
        <ele>188</ele>
        <time>2016-11-26T10:53:44Z</time>
      </trkpt>
      <trkpt lat="46.06532" lon="4.731">
        <ele>188</ele>
        <time>2016-11-26T10:53:45Z</time>
      </trkpt>
      <trkpt lat="46.0653" lon="4.73094">
        <ele>188</ele>
        <time>2016-11-26T10:53:46Z</time>
      </trkpt>
      <trkpt lat="46.06527" lon="4.73087">
        <ele>188</ele>
        <time>2016-11-26T10:53:47Z</time>
      </trkpt>
      <trkpt lat="46.06525" lon="4.73081">
        <ele>188</ele>
        <time>2016-11-26T10:53:48Z</time>
      </trkpt>
      <trkpt lat="46.06522" lon="4.73075">
        <ele>188</ele>
        <time>2016-11-26T10:53:49Z</time>
      </trkpt>
      <trkpt lat="46.06519" lon="4.73068">
        <ele>188</ele>
        <time>2016-11-26T10:53:50Z</time>
      </trkpt>
      <trkpt lat="46.06517" lon="4.73062">
        <ele>188</ele>
        <time>2016-11-26T10:53:51Z</time>
      </trkpt>
      <trkpt lat="46.06515" lon="4.73055">
        <ele>188</ele>
        <time>2016-11-26T10:53:52Z</time>
      </trkpt>
      <trkpt lat="46.06513" lon="4.73049">
        <ele>188</ele>
        <time>2016-11-26T10:53:53Z</time>
      </trkpt>
      <trkpt lat="46.0651" lon="4.73043">
        <ele>188</ele>
        <time>2016-11-26T10:53:54Z</time>
      </trkpt>
      <trkpt lat="46.06508" lon="4.73037">
        <ele>189</ele>
        <time>2016-11-26T10:53:55Z</time>
      </trkpt>
      <trkpt lat="46.06505" lon="4.73031">
        <ele>189</ele>
        <time>2016-11-26T10:53:56Z</time>
      </trkpt>
      <trkpt lat="46.06502" lon="4.73026">
        <ele>189</ele>
        <time>2016-11-26T10:53:57Z</time>
      </trkpt>
      <trkpt lat="46.06499" lon="4.7302">
        <ele>189</ele>
        <time>2016-11-26T10:53:58Z</time>
      </trkpt>
      <trkpt lat="46.06495" lon="4.7301">
        <ele>189</ele>
        <time>2016-11-26T10:54:00Z</time>
      </trkpt>
      <trkpt lat="46.06492" lon="4.73004">
        <ele>189</ele>
        <time>2016-11-26T10:54:01Z</time>
      </trkpt>
      <trkpt lat="46.0649" lon="4.72998">
        <ele>189</ele>
        <time>2016-11-26T10:54:02Z</time>
      </trkpt>
      <trkpt lat="46.06487" lon="4.72992">
        <ele>189</ele>
        <time>2016-11-26T10:54:03Z</time>
      </trkpt>
      <trkpt lat="46.06485" lon="4.72986">
        <ele>189</ele>
        <time>2016-11-26T10:54:04Z</time>
      </trkpt>
      <trkpt lat="46.06484" lon="4.72979">
        <ele>189</ele>
        <time>2016-11-26T10:54:05Z</time>
      </trkpt>
      <trkpt lat="46.06483" lon="4.72973">
        <ele>188</ele>
        <time>2016-11-26T10:54:06Z</time>
      </trkpt>
      <trkpt lat="46.06482" lon="4.72966">
        <ele>188</ele>
        <time>2016-11-26T10:54:07Z</time>
      </trkpt>
      <trkpt lat="46.06481" lon="4.7296">
        <ele>188</ele>
        <time>2016-11-26T10:54:08Z</time>
      </trkpt>
      <trkpt lat="46.0648" lon="4.72953">
        <ele>188</ele>
        <time>2016-11-26T10:54:09Z</time>
      </trkpt>
      <trkpt lat="46.06479" lon="4.72947">
        <ele>188</ele>
        <time>2016-11-26T10:54:10Z</time>
      </trkpt>
      <trkpt lat="46.06478" lon="4.72939">
        <ele>188</ele>
        <time>2016-11-26T10:54:11Z</time>
      </trkpt>
      <trkpt lat="46.06477" lon="4.72932">
        <ele>188</ele>
        <time>2016-11-26T10:54:12Z</time>
      </trkpt>
      <trkpt lat="46.06475" lon="4.72925">
        <ele>188</ele>
        <time>2016-11-26T10:54:13Z</time>
      </trkpt>
      <trkpt lat="46.06474" lon="4.72918">
        <ele>188</ele>
        <time>2016-11-26T10:54:14Z</time>
      </trkpt>
      <trkpt lat="46.06473" lon="4.72911">
        <ele>188</ele>
        <time>2016-11-26T10:54:15Z</time>
      </trkpt>
      <trkpt lat="46.06472" lon="4.72904">
        <ele>188</ele>
        <time>2016-11-26T10:54:16Z</time>
      </trkpt>
      <trkpt lat="46.0647" lon="4.72898">
        <ele>188</ele>
        <time>2016-11-26T10:54:17Z</time>
      </trkpt>
      <trkpt lat="46.06469" lon="4.72891">
        <ele>188</ele>
        <time>2016-11-26T10:54:18Z</time>
      </trkpt>
      <trkpt lat="46.06468" lon="4.72884">
        <ele>188</ele>
        <time>2016-11-26T10:54:19Z</time>
      </trkpt>
      <trkpt lat="46.06467" lon="4.72878">
        <ele>188</ele>
        <time>2016-11-26T10:54:20Z</time>
      </trkpt>
      <trkpt lat="46.06466" lon="4.72871">
        <ele>188</ele>
        <time>2016-11-26T10:54:21Z</time>
      </trkpt>
      <trkpt lat="46.06465" lon="4.72864">
        <ele>188</ele>
        <time>2016-11-26T10:54:22Z</time>
      </trkpt>
      <trkpt lat="46.06464" lon="4.72855">
        <ele>188</ele>
        <time>2016-11-26T10:54:23Z</time>
      </trkpt>
      <trkpt lat="46.06463" lon="4.72847">
        <ele>188</ele>
        <time>2016-11-26T10:54:24Z</time>
      </trkpt>
      <trkpt lat="46.06462" lon="4.72839">
        <ele>188</ele>
        <time>2016-11-26T10:54:25Z</time>
      </trkpt>
      <trkpt lat="46.06461" lon="4.72831">
        <ele>188</ele>
        <time>2016-11-26T10:54:26Z</time>
      </trkpt>
      <trkpt lat="46.06459" lon="4.72823">
        <ele>188</ele>
        <time>2016-11-26T10:54:27Z</time>
      </trkpt>
      <trkpt lat="46.06459" lon="4.72815">
        <ele>188</ele>
        <time>2016-11-26T10:54:28Z</time>
      </trkpt>
      <trkpt lat="46.06458" lon="4.72808">
        <ele>188</ele>
        <time>2016-11-26T10:54:29Z</time>
      </trkpt>
      <trkpt lat="46.06457" lon="4.72801">
        <ele>188</ele>
        <time>2016-11-26T10:54:30Z</time>
      </trkpt>
      <trkpt lat="46.06456" lon="4.72795">
        <ele>188</ele>
        <time>2016-11-26T10:54:31Z</time>
      </trkpt>
      <trkpt lat="46.06455" lon="4.72788">
        <ele>188</ele>
        <time>2016-11-26T10:54:32Z</time>
      </trkpt>
      <trkpt lat="46.06454" lon="4.72782">
        <ele>188</ele>
        <time>2016-11-26T10:54:33Z</time>
      </trkpt>
      <trkpt lat="46.06454" lon="4.72775">
        <ele>188</ele>
        <time>2016-11-26T10:54:34Z</time>
      </trkpt>
      <trkpt lat="46.06452" lon="4.72768">
        <ele>188</ele>
        <time>2016-11-26T10:54:35Z</time>
      </trkpt>
      <trkpt lat="46.06451" lon="4.72762">
        <ele>188</ele>
        <time>2016-11-26T10:54:36Z</time>
      </trkpt>
      <trkpt lat="46.06449" lon="4.72755">
        <ele>188</ele>
        <time>2016-11-26T10:54:37Z</time>
      </trkpt>
      <trkpt lat="46.06448" lon="4.72747">
        <ele>189</ele>
        <time>2016-11-26T10:54:38Z</time>
      </trkpt>
      <trkpt lat="46.06446" lon="4.7274">
        <ele>189</ele>
        <time>2016-11-26T10:54:39Z</time>
      </trkpt>
      <trkpt lat="46.06444" lon="4.72733">
        <ele>189</ele>
        <time>2016-11-26T10:54:40Z</time>
      </trkpt>
      <trkpt lat="46.06443" lon="4.72725">
        <ele>190</ele>
        <time>2016-11-26T10:54:41Z</time>
      </trkpt>
      <trkpt lat="46.06442" lon="4.72717">
        <ele>190</ele>
        <time>2016-11-26T10:54:42Z</time>
      </trkpt>
      <trkpt lat="46.0644" lon="4.72709">
        <ele>190</ele>
        <time>2016-11-26T10:54:43Z</time>
      </trkpt>
      <trkpt lat="46.06439" lon="4.72702">
        <ele>190</ele>
        <time>2016-11-26T10:54:44Z</time>
      </trkpt>
      <trkpt lat="46.06438" lon="4.72694">
        <ele>190</ele>
        <time>2016-11-26T10:54:45Z</time>
      </trkpt>
      <trkpt lat="46.06437" lon="4.72687">
        <ele>190</ele>
        <time>2016-11-26T10:54:46Z</time>
      </trkpt>
      <trkpt lat="46.06435" lon="4.72681">
        <ele>191</ele>
        <time>2016-11-26T10:54:47Z</time>
      </trkpt>
      <trkpt lat="46.06434" lon="4.72669">
        <ele>191</ele>
        <time>2016-11-26T10:54:49Z</time>
      </trkpt>
      <trkpt lat="46.06434" lon="4.72664">
        <ele>192</ele>
        <time>2016-11-26T10:54:50Z</time>
      </trkpt>
      <trkpt lat="46.06432" lon="4.72653">
        <ele>192</ele>
        <time>2016-11-26T10:54:52Z</time>
      </trkpt>
      <trkpt lat="46.0643" lon="4.72648">
        <ele>192</ele>
        <time>2016-11-26T10:54:53Z</time>
      </trkpt>
      <trkpt lat="46.06428" lon="4.72636">
        <ele>192</ele>
        <time>2016-11-26T10:54:55Z</time>
      </trkpt>
      <trkpt lat="46.06427" lon="4.7263">
        <ele>193</ele>
        <time>2016-11-26T10:54:56Z</time>
      </trkpt>
      <trkpt lat="46.06425" lon="4.72617">
        <ele>193</ele>
        <time>2016-11-26T10:54:58Z</time>
      </trkpt>
      <trkpt lat="46.06424" lon="4.72611">
        <ele>193</ele>
        <time>2016-11-26T10:54:59Z</time>
      </trkpt>
      <trkpt lat="46.06422" lon="4.72599">
        <ele>194</ele>
        <time>2016-11-26T10:55:01Z</time>
      </trkpt>
      <trkpt lat="46.06421" lon="4.72593">
        <ele>194</ele>
        <time>2016-11-26T10:55:02Z</time>
      </trkpt>
      <trkpt lat="46.06419" lon="4.72581">
        <ele>195</ele>
        <time>2016-11-26T10:55:04Z</time>
      </trkpt>
      <trkpt lat="46.06418" lon="4.72576">
        <ele>195</ele>
        <time>2016-11-26T10:55:05Z</time>
      </trkpt>
      <trkpt lat="46.06415" lon="4.72564">
        <ele>196</ele>
        <time>2016-11-26T10:55:07Z</time>
      </trkpt>
      <trkpt lat="46.06414" lon="4.72559">
        <ele>196</ele>
        <time>2016-11-26T10:55:08Z</time>
      </trkpt>
      <trkpt lat="46.06412" lon="4.72546">
        <ele>196</ele>
        <time>2016-11-26T10:55:10Z</time>
      </trkpt>
      <trkpt lat="46.06411" lon="4.7254">
        <ele>197</ele>
        <time>2016-11-26T10:55:11Z</time>
      </trkpt>
      <trkpt lat="46.06411" lon="4.72533">
        <ele>197</ele>
        <time>2016-11-26T10:55:12Z</time>
      </trkpt>
      <trkpt lat="46.0641" lon="4.72527">
        <ele>197</ele>
        <time>2016-11-26T10:55:13Z</time>
      </trkpt>
      <trkpt lat="46.06408" lon="4.72514">
        <ele>198</ele>
        <time>2016-11-26T10:55:15Z</time>
      </trkpt>
      <trkpt lat="46.06407" lon="4.72508">
        <ele>198</ele>
        <time>2016-11-26T10:55:16Z</time>
      </trkpt>
      <trkpt lat="46.06405" lon="4.72497">
        <ele>199</ele>
        <time>2016-11-26T10:55:18Z</time>
      </trkpt>
      <trkpt lat="46.06403" lon="4.72491">
        <ele>198</ele>
        <time>2016-11-26T10:55:19Z</time>
      </trkpt>
      <trkpt lat="46.064" lon="4.7248">
        <ele>198</ele>
        <time>2016-11-26T10:55:21Z</time>
      </trkpt>
      <trkpt lat="46.06397" lon="4.72474">
        <ele>198</ele>
        <time>2016-11-26T10:55:22Z</time>
      </trkpt>
      <trkpt lat="46.06395" lon="4.72468">
        <ele>197</ele>
        <time>2016-11-26T10:55:23Z</time>
      </trkpt>
      <trkpt lat="46.06393" lon="4.72462">
        <ele>197</ele>
        <time>2016-11-26T10:55:24Z</time>
      </trkpt>
      <trkpt lat="46.06391" lon="4.72457">
        <ele>197</ele>
        <time>2016-11-26T10:55:25Z</time>
      </trkpt>
      <trkpt lat="46.06388" lon="4.72451">
        <ele>197</ele>
        <time>2016-11-26T10:55:26Z</time>
      </trkpt>
      <trkpt lat="46.06385" lon="4.72446">
        <ele>197</ele>
        <time>2016-11-26T10:55:27Z</time>
      </trkpt>
      <trkpt lat="46.06383" lon="4.72441">
        <ele>197</ele>
        <time>2016-11-26T10:55:28Z</time>
      </trkpt>
      <trkpt lat="46.06378" lon="4.72431">
        <ele>197</ele>
        <time>2016-11-26T10:55:30Z</time>
      </trkpt>
      <trkpt lat="46.06376" lon="4.72426">
        <ele>197</ele>
        <time>2016-11-26T10:55:31Z</time>
      </trkpt>
      <trkpt lat="46.06371" lon="4.72418">
        <ele>197</ele>
        <time>2016-11-26T10:55:33Z</time>
      </trkpt>
      <trkpt lat="46.06369" lon="4.72414">
        <ele>196</ele>
        <time>2016-11-26T10:55:34Z</time>
      </trkpt>
      <trkpt lat="46.06364" lon="4.72405">
        <ele>196</ele>
        <time>2016-11-26T10:55:36Z</time>
      </trkpt>
      <trkpt lat="46.06361" lon="4.72402">
        <ele>196</ele>
        <time>2016-11-26T10:55:37Z</time>
      </trkpt>
      <trkpt lat="46.06362" lon="4.7239">
        <ele>196</ele>
        <time>2016-11-26T10:55:39Z</time>
      </trkpt>
      <trkpt lat="46.06363" lon="4.72384">
        <ele>196</ele>
        <time>2016-11-26T10:55:40Z</time>
      </trkpt>
      <trkpt lat="46.06365" lon="4.72373">
        <ele>196</ele>
        <time>2016-11-26T10:55:42Z</time>
      </trkpt>
      <trkpt lat="46.06366" lon="4.72368">
        <ele>196</ele>
        <time>2016-11-26T10:55:43Z</time>
      </trkpt>
      <trkpt lat="46.06367" lon="4.72358">
        <ele>195</ele>
        <time>2016-11-26T10:55:45Z</time>
      </trkpt>
      <trkpt lat="46.06368" lon="4.72353">
        <ele>195</ele>
        <time>2016-11-26T10:55:46Z</time>
      </trkpt>
      <trkpt lat="46.06368" lon="4.72343">
        <ele>195</ele>
        <time>2016-11-26T10:55:48Z</time>
      </trkpt>
      <trkpt lat="46.06368" lon="4.72337">
        <ele>195</ele>
        <time>2016-11-26T10:55:49Z</time>
      </trkpt>
      <trkpt lat="46.06368" lon="4.72325">
        <ele>194</ele>
        <time>2016-11-26T10:55:51Z</time>
      </trkpt>
      <trkpt lat="46.06368" lon="4.7232">
        <ele>194</ele>
        <time>2016-11-26T10:55:52Z</time>
      </trkpt>
      <trkpt lat="46.06369" lon="4.7231">
        <ele>193</ele>
        <time>2016-11-26T10:55:54Z</time>
      </trkpt>
      <trkpt lat="46.0637" lon="4.72306">
        <ele>193</ele>
        <time>2016-11-26T10:55:55Z</time>
      </trkpt>
      <trkpt lat="46.06372" lon="4.72298">
        <ele>193</ele>
        <time>2016-11-26T10:55:57Z</time>
      </trkpt>
      <trkpt lat="46.06374" lon="4.72293">
        <ele>193</ele>
        <time>2016-11-26T10:55:58Z</time>
      </trkpt>
      <trkpt lat="46.0638" lon="4.72285">
        <ele>193</ele>
        <time>2016-11-26T10:56:01Z</time>
      </trkpt>
      <trkpt lat="46.06384" lon="4.72285">
        <ele>193</ele>
        <time>2016-11-26T10:56:02Z</time>
      </trkpt>
      <trkpt lat="46.06392" lon="4.72284">
        <ele>192</ele>
        <time>2016-11-26T10:56:04Z</time>
      </trkpt>
      <trkpt lat="46.06397" lon="4.72283">
        <ele>192</ele>
        <time>2016-11-26T10:56:05Z</time>
      </trkpt>
      <trkpt lat="46.06402" lon="4.72283">
        <ele>192</ele>
        <time>2016-11-26T10:56:06Z</time>
      </trkpt>
      <trkpt lat="46.06406" lon="4.72283">
        <ele>192</ele>
        <time>2016-11-26T10:56:07Z</time>
      </trkpt>
      <trkpt lat="46.06411" lon="4.72283">
        <ele>192</ele>
        <time>2016-11-26T10:56:08Z</time>
      </trkpt>
      <trkpt lat="46.06416" lon="4.72284">
        <ele>192</ele>
        <time>2016-11-26T10:56:09Z</time>
      </trkpt>
      <trkpt lat="46.06421" lon="4.72285">
        <ele>190</ele>
        <time>2016-11-26T10:56:10Z</time>
      </trkpt>
      <trkpt lat="46.06425" lon="4.72284">
        <ele>190</ele>
        <time>2016-11-26T10:56:11Z</time>
      </trkpt>
      <trkpt lat="46.06432" lon="4.72276">
        <ele>190</ele>
        <time>2016-11-26T10:56:13Z</time>
      </trkpt>
      <trkpt lat="46.06431" lon="4.7227">
        <ele>190</ele>
        <time>2016-11-26T10:56:14Z</time>
      </trkpt>
      <trkpt lat="46.06429" lon="4.72264">
        <ele>189</ele>
        <time>2016-11-26T10:56:15Z</time>
      </trkpt>
      <trkpt lat="46.06426" lon="4.72259">
        <ele>189</ele>
        <time>2016-11-26T10:56:16Z</time>
      </trkpt>
      <trkpt lat="46.06422" lon="4.72252">
        <ele>189</ele>
        <time>2016-11-26T10:56:17Z</time>
      </trkpt>
      <trkpt lat="46.06418" lon="4.72245">
        <ele>188</ele>
        <time>2016-11-26T10:56:18Z</time>
      </trkpt>
      <trkpt lat="46.06415" lon="4.72237">
        <ele>189</ele>
        <time>2016-11-26T10:56:19Z</time>
      </trkpt>
      <trkpt lat="46.06412" lon="4.7223">
        <ele>190</ele>
        <time>2016-11-26T10:56:20Z</time>
      </trkpt>
      <trkpt lat="46.06408" lon="4.72222">
        <ele>190</ele>
        <time>2016-11-26T10:56:21Z</time>
      </trkpt>
      <trkpt lat="46.06405" lon="4.72214">
        <ele>190</ele>
        <time>2016-11-26T10:56:22Z</time>
      </trkpt>
      <trkpt lat="46.06402" lon="4.72206">
        <ele>190</ele>
        <time>2016-11-26T10:56:23Z</time>
      </trkpt>
      <trkpt lat="46.06399" lon="4.72198">
        <ele>189</ele>
        <time>2016-11-26T10:56:24Z</time>
      </trkpt>
      <trkpt lat="46.06396" lon="4.72189">
        <ele>189</ele>
        <time>2016-11-26T10:56:25Z</time>
      </trkpt>
      <trkpt lat="46.06393" lon="4.7218">
        <ele>189</ele>
        <time>2016-11-26T10:56:26Z</time>
      </trkpt>
      <trkpt lat="46.0639" lon="4.7217">
        <ele>189</ele>
        <time>2016-11-26T10:56:27Z</time>
      </trkpt>
      <trkpt lat="46.06387" lon="4.72161">
        <ele>188</ele>
        <time>2016-11-26T10:56:28Z</time>
      </trkpt>
      <trkpt lat="46.06384" lon="4.72151">
        <ele>189</ele>
        <time>2016-11-26T10:56:29Z</time>
      </trkpt>
      <trkpt lat="46.06381" lon="4.72142">
        <ele>189</ele>
        <time>2016-11-26T10:56:30Z</time>
      </trkpt>
      <trkpt lat="46.06378" lon="4.72133">
        <ele>189</ele>
        <time>2016-11-26T10:56:31Z</time>
      </trkpt>
      <trkpt lat="46.06375" lon="4.72124">
        <ele>189</ele>
        <time>2016-11-26T10:56:32Z</time>
      </trkpt>
      <trkpt lat="46.06372" lon="4.72116">
        <ele>189</ele>
        <time>2016-11-26T10:56:33Z</time>
      </trkpt>
      <trkpt lat="46.0637" lon="4.72108">
        <ele>189</ele>
        <time>2016-11-26T10:56:34Z</time>
      </trkpt>
      <trkpt lat="46.06367" lon="4.721">
        <ele>189</ele>
        <time>2016-11-26T10:56:35Z</time>
      </trkpt>
      <trkpt lat="46.06364" lon="4.72092">
        <ele>189</ele>
        <time>2016-11-26T10:56:36Z</time>
      </trkpt>
      <trkpt lat="46.06362" lon="4.72084">
        <ele>189</ele>
        <time>2016-11-26T10:56:37Z</time>
      </trkpt>
      <trkpt lat="46.06359" lon="4.72076">
        <ele>189</ele>
        <time>2016-11-26T10:56:38Z</time>
      </trkpt>
      <trkpt lat="46.06356" lon="4.72069">
        <ele>189</ele>
        <time>2016-11-26T10:56:39Z</time>
      </trkpt>
      <trkpt lat="46.06354" lon="4.72062">
        <ele>189</ele>
        <time>2016-11-26T10:56:40Z</time>
      </trkpt>
      <trkpt lat="46.06351" lon="4.72055">
        <ele>189</ele>
        <time>2016-11-26T10:56:41Z</time>
      </trkpt>
      <trkpt lat="46.06349" lon="4.72049">
        <ele>189</ele>
        <time>2016-11-26T10:56:42Z</time>
      </trkpt>
      <trkpt lat="46.06347" lon="4.72042">
        <ele>189</ele>
        <time>2016-11-26T10:56:43Z</time>
      </trkpt>
      <trkpt lat="46.06345" lon="4.72035">
        <ele>189</ele>
        <time>2016-11-26T10:56:44Z</time>
      </trkpt>
      <trkpt lat="46.06342" lon="4.72028">
        <ele>189</ele>
        <time>2016-11-26T10:56:45Z</time>
      </trkpt>
      <trkpt lat="46.0634" lon="4.72021">
        <ele>189</ele>
        <time>2016-11-26T10:56:46Z</time>
      </trkpt>
      <trkpt lat="46.06337" lon="4.72013">
        <ele>189</ele>
        <time>2016-11-26T10:56:47Z</time>
      </trkpt>
      <trkpt lat="46.06335" lon="4.72005">
        <ele>189</ele>
        <time>2016-11-26T10:56:48Z</time>
      </trkpt>
      <trkpt lat="46.06332" lon="4.71997">
        <ele>189</ele>
        <time>2016-11-26T10:56:49Z</time>
      </trkpt>
      <trkpt lat="46.0633" lon="4.7199">
        <ele>189</ele>
        <time>2016-11-26T10:56:50Z</time>
      </trkpt>
      <trkpt lat="46.06328" lon="4.71982">
        <ele>190</ele>
        <time>2016-11-26T10:56:51Z</time>
      </trkpt>
      <trkpt lat="46.06325" lon="4.71975">
        <ele>190</ele>
        <time>2016-11-26T10:56:52Z</time>
      </trkpt>
      <trkpt lat="46.06323" lon="4.71968">
        <ele>190</ele>
        <time>2016-11-26T10:56:53Z</time>
      </trkpt>
      <trkpt lat="46.06321" lon="4.71961">
        <ele>190</ele>
        <time>2016-11-26T10:56:54Z</time>
      </trkpt>
      <trkpt lat="46.06319" lon="4.71954">
        <ele>190</ele>
        <time>2016-11-26T10:56:55Z</time>
      </trkpt>
      <trkpt lat="46.06317" lon="4.71947">
        <ele>190</ele>
        <time>2016-11-26T10:56:56Z</time>
      </trkpt>
      <trkpt lat="46.06315" lon="4.71939">
        <ele>190</ele>
        <time>2016-11-26T10:56:57Z</time>
      </trkpt>
      <trkpt lat="46.06313" lon="4.7193">
        <ele>190</ele>
        <time>2016-11-26T10:56:58Z</time>
      </trkpt>
      <trkpt lat="46.06311" lon="4.71921">
        <ele>190</ele>
        <time>2016-11-26T10:56:59Z</time>
      </trkpt>
      <trkpt lat="46.06308" lon="4.71912">
        <ele>189</ele>
        <time>2016-11-26T10:57:00Z</time>
      </trkpt>
      <trkpt lat="46.06306" lon="4.71902">
        <ele>189</ele>
        <time>2016-11-26T10:57:01Z</time>
      </trkpt>
      <trkpt lat="46.06303" lon="4.71893">
        <ele>189</ele>
        <time>2016-11-26T10:57:02Z</time>
      </trkpt>
      <trkpt lat="46.06301" lon="4.71884">
        <ele>189</ele>
        <time>2016-11-26T10:57:03Z</time>
      </trkpt>
      <trkpt lat="46.06299" lon="4.71874">
        <ele>189</ele>
        <time>2016-11-26T10:57:04Z</time>
      </trkpt>
      <trkpt lat="46.06297" lon="4.71866">
        <ele>189</ele>
        <time>2016-11-26T10:57:05Z</time>
      </trkpt>
      <trkpt lat="46.06296" lon="4.71859">
        <ele>189</ele>
        <time>2016-11-26T10:57:06Z</time>
      </trkpt>
      <trkpt lat="46.06294" lon="4.71851">
        <ele>189</ele>
        <time>2016-11-26T10:57:07Z</time>
      </trkpt>
      <trkpt lat="46.06293" lon="4.71845">
        <ele>189</ele>
        <time>2016-11-26T10:57:08Z</time>
      </trkpt>
      <trkpt lat="46.06292" lon="4.71839">
        <ele>189</ele>
        <time>2016-11-26T10:57:09Z</time>
      </trkpt>
      <trkpt lat="46.06291" lon="4.71831">
        <ele>189</ele>
        <time>2016-11-26T10:57:10Z</time>
      </trkpt>
      <trkpt lat="46.06289" lon="4.71824">
        <ele>189</ele>
        <time>2016-11-26T10:57:11Z</time>
      </trkpt>
      <trkpt lat="46.06288" lon="4.71817">
        <ele>189</ele>
        <time>2016-11-26T10:57:12Z</time>
      </trkpt>
      <trkpt lat="46.06284" lon="4.71806">
        <ele>190</ele>
        <time>2016-11-26T10:57:14Z</time>
      </trkpt>
      <trkpt lat="46.06281" lon="4.71801">
        <ele>190</ele>
        <time>2016-11-26T10:57:15Z</time>
      </trkpt>
      <trkpt lat="46.0628" lon="4.71795">
        <ele>190</ele>
        <time>2016-11-26T10:57:16Z</time>
      </trkpt>
      <trkpt lat="46.06278" lon="4.71788">
        <ele>190</ele>
        <time>2016-11-26T10:57:17Z</time>
      </trkpt>
      <trkpt lat="46.06277" lon="4.71782">
        <ele>190</ele>
        <time>2016-11-26T10:57:18Z</time>
      </trkpt>
      <trkpt lat="46.06275" lon="4.71776">
        <ele>190</ele>
        <time>2016-11-26T10:57:19Z</time>
      </trkpt>
      <trkpt lat="46.06273" lon="4.71769">
        <ele>190</ele>
        <time>2016-11-26T10:57:20Z</time>
      </trkpt>
      <trkpt lat="46.06271" lon="4.71763">
        <ele>190</ele>
        <time>2016-11-26T10:57:21Z</time>
      </trkpt>
      <trkpt lat="46.06269" lon="4.71756">
        <ele>190</ele>
        <time>2016-11-26T10:57:22Z</time>
      </trkpt>
      <trkpt lat="46.06267" lon="4.7175">
        <ele>190</ele>
        <time>2016-11-26T10:57:23Z</time>
      </trkpt>
      <trkpt lat="46.06264" lon="4.71743">
        <ele>190</ele>
        <time>2016-11-26T10:57:24Z</time>
      </trkpt>
      <trkpt lat="46.06262" lon="4.71735">
        <ele>190</ele>
        <time>2016-11-26T10:57:25Z</time>
      </trkpt>
      <trkpt lat="46.0626" lon="4.71728">
        <ele>190</ele>
        <time>2016-11-26T10:57:26Z</time>
      </trkpt>
      <trkpt lat="46.06257" lon="4.71721">
        <ele>190</ele>
        <time>2016-11-26T10:57:27Z</time>
      </trkpt>
      <trkpt lat="46.06255" lon="4.71715">
        <ele>190</ele>
        <time>2016-11-26T10:57:28Z</time>
      </trkpt>
      <trkpt lat="46.06253" lon="4.71709">
        <ele>190</ele>
        <time>2016-11-26T10:57:29Z</time>
      </trkpt>
      <trkpt lat="46.06251" lon="4.71703">
        <ele>190</ele>
        <time>2016-11-26T10:57:30Z</time>
      </trkpt>
      <trkpt lat="46.06249" lon="4.71697">
        <ele>191</ele>
        <time>2016-11-26T10:57:31Z</time>
      </trkpt>
      <trkpt lat="46.06246" lon="4.7169">
        <ele>191</ele>
        <time>2016-11-26T10:57:32Z</time>
      </trkpt>
      <trkpt lat="46.06244" lon="4.71684">
        <ele>191</ele>
        <time>2016-11-26T10:57:33Z</time>
      </trkpt>
      <trkpt lat="46.06241" lon="4.71677">
        <ele>191</ele>
        <time>2016-11-26T10:57:34Z</time>
      </trkpt>
      <trkpt lat="46.06238" lon="4.7167">
        <ele>191</ele>
        <time>2016-11-26T10:57:35Z</time>
      </trkpt>
      <trkpt lat="46.06235" lon="4.71663">
        <ele>191</ele>
        <time>2016-11-26T10:57:36Z</time>
      </trkpt>
      <trkpt lat="46.06232" lon="4.71656">
        <ele>191</ele>
        <time>2016-11-26T10:57:37Z</time>
      </trkpt>
      <trkpt lat="46.06229" lon="4.71649">
        <ele>191</ele>
        <time>2016-11-26T10:57:38Z</time>
      </trkpt>
      <trkpt lat="46.06225" lon="4.71642">
        <ele>191</ele>
        <time>2016-11-26T10:57:39Z</time>
      </trkpt>
      <trkpt lat="46.06222" lon="4.71635">
        <ele>191</ele>
        <time>2016-11-26T10:57:40Z</time>
      </trkpt>
      <trkpt lat="46.06219" lon="4.71629">
        <ele>191</ele>
        <time>2016-11-26T10:57:41Z</time>
      </trkpt>
      <trkpt lat="46.06215" lon="4.71624">
        <ele>191</ele>
        <time>2016-11-26T10:57:42Z</time>
      </trkpt>
      <trkpt lat="46.06212" lon="4.71618">
        <ele>191</ele>
        <time>2016-11-26T10:57:43Z</time>
      </trkpt>
      <trkpt lat="46.06208" lon="4.71613">
        <ele>191</ele>
        <time>2016-11-26T10:57:44Z</time>
      </trkpt>
      <trkpt lat="46.06205" lon="4.71609">
        <ele>191</ele>
        <time>2016-11-26T10:57:45Z</time>
      </trkpt>
      <trkpt lat="46.06202" lon="4.71604">
        <ele>191</ele>
        <time>2016-11-26T10:57:46Z</time>
      </trkpt>
      <trkpt lat="46.06199" lon="4.71599">
        <ele>191</ele>
        <time>2016-11-26T10:57:47Z</time>
      </trkpt>
      <trkpt lat="46.06196" lon="4.71594">
        <ele>191</ele>
        <time>2016-11-26T10:57:48Z</time>
      </trkpt>
      <trkpt lat="46.06193" lon="4.71589">
        <ele>191</ele>
        <time>2016-11-26T10:57:49Z</time>
      </trkpt>
      <trkpt lat="46.0619" lon="4.71584">
        <ele>191</ele>
        <time>2016-11-26T10:57:50Z</time>
      </trkpt>
      <trkpt lat="46.06186" lon="4.71579">
        <ele>191</ele>
        <time>2016-11-26T10:57:51Z</time>
      </trkpt>
      <trkpt lat="46.06183" lon="4.71574">
        <ele>191</ele>
        <time>2016-11-26T10:57:52Z</time>
      </trkpt>
      <trkpt lat="46.06179" lon="4.71569">
        <ele>191</ele>
        <time>2016-11-26T10:57:53Z</time>
      </trkpt>
      <trkpt lat="46.06176" lon="4.71564">
        <ele>191</ele>
        <time>2016-11-26T10:57:54Z</time>
      </trkpt>
      <trkpt lat="46.06172" lon="4.7156">
        <ele>191</ele>
        <time>2016-11-26T10:57:55Z</time>
      </trkpt>
      <trkpt lat="46.06166" lon="4.71551">
        <ele>192</ele>
        <time>2016-11-26T10:57:57Z</time>
      </trkpt>
      <trkpt lat="46.06163" lon="4.71546">
        <ele>192</ele>
        <time>2016-11-26T10:57:58Z</time>
      </trkpt>
      <trkpt lat="46.0616" lon="4.71541">
        <ele>192</ele>
        <time>2016-11-26T10:57:59Z</time>
      </trkpt>
      <trkpt lat="46.06156" lon="4.71536">
        <ele>192</ele>
        <time>2016-11-26T10:58:00Z</time>
      </trkpt>
      <trkpt lat="46.06152" lon="4.71531">
        <ele>192</ele>
        <time>2016-11-26T10:58:01Z</time>
      </trkpt>
      <trkpt lat="46.06149" lon="4.71525">
        <ele>192</ele>
        <time>2016-11-26T10:58:02Z</time>
      </trkpt>
      <trkpt lat="46.06145" lon="4.7152">
        <ele>192</ele>
        <time>2016-11-26T10:58:03Z</time>
      </trkpt>
      <trkpt lat="46.06142" lon="4.71515">
        <ele>192</ele>
        <time>2016-11-26T10:58:04Z</time>
      </trkpt>
      <trkpt lat="46.06139" lon="4.71509">
        <ele>192</ele>
        <time>2016-11-26T10:58:05Z</time>
      </trkpt>
      <trkpt lat="46.06136" lon="4.71503">
        <ele>192</ele>
        <time>2016-11-26T10:58:06Z</time>
      </trkpt>
      <trkpt lat="46.06134" lon="4.71496">
        <ele>192</ele>
        <time>2016-11-26T10:58:07Z</time>
      </trkpt>
      <trkpt lat="46.06131" lon="4.7149">
        <ele>192</ele>
        <time>2016-11-26T10:58:08Z</time>
      </trkpt>
      <trkpt lat="46.06129" lon="4.71483">
        <ele>192</ele>
        <time>2016-11-26T10:58:09Z</time>
      </trkpt>
      <trkpt lat="46.06127" lon="4.71477">
        <ele>192</ele>
        <time>2016-11-26T10:58:10Z</time>
      </trkpt>
      <trkpt lat="46.06124" lon="4.7147">
        <ele>193</ele>
        <time>2016-11-26T10:58:11Z</time>
      </trkpt>
      <trkpt lat="46.06122" lon="4.71463">
        <ele>193</ele>
        <time>2016-11-26T10:58:12Z</time>
      </trkpt>
      <trkpt lat="46.06119" lon="4.71456">
        <ele>193</ele>
        <time>2016-11-26T10:58:13Z</time>
      </trkpt>
      <trkpt lat="46.06117" lon="4.7145">
        <ele>193</ele>
        <time>2016-11-26T10:58:14Z</time>
      </trkpt>
      <trkpt lat="46.06115" lon="4.71444">
        <ele>193</ele>
        <time>2016-11-26T10:58:15Z</time>
      </trkpt>
      <trkpt lat="46.06113" lon="4.71437">
        <ele>193</ele>
        <time>2016-11-26T10:58:16Z</time>
      </trkpt>
      <trkpt lat="46.06111" lon="4.7143">
        <ele>193</ele>
        <time>2016-11-26T10:58:17Z</time>
      </trkpt>
      <trkpt lat="46.06109" lon="4.71423">
        <ele>193</ele>
        <time>2016-11-26T10:58:18Z</time>
      </trkpt>
      <trkpt lat="46.06108" lon="4.71415">
        <ele>193</ele>
        <time>2016-11-26T10:58:19Z</time>
      </trkpt>
      <trkpt lat="46.06106" lon="4.71407">
        <ele>193</ele>
        <time>2016-11-26T10:58:20Z</time>
      </trkpt>
      <trkpt lat="46.06104" lon="4.714">
        <ele>193</ele>
        <time>2016-11-26T10:58:21Z</time>
      </trkpt>
      <trkpt lat="46.06101" lon="4.71392">
        <ele>193</ele>
        <time>2016-11-26T10:58:22Z</time>
      </trkpt>
      <trkpt lat="46.06099" lon="4.71384">
        <ele>193</ele>
        <time>2016-11-26T10:58:23Z</time>
      </trkpt>
      <trkpt lat="46.06097" lon="4.71376">
        <ele>193</ele>
        <time>2016-11-26T10:58:24Z</time>
      </trkpt>
      <trkpt lat="46.06095" lon="4.71369">
        <ele>193</ele>
        <time>2016-11-26T10:58:25Z</time>
      </trkpt>
      <trkpt lat="46.06093" lon="4.71362">
        <ele>193</ele>
        <time>2016-11-26T10:58:26Z</time>
      </trkpt>
      <trkpt lat="46.06091" lon="4.71355">
        <ele>193</ele>
        <time>2016-11-26T10:58:27Z</time>
      </trkpt>
      <trkpt lat="46.06088" lon="4.71348">
        <ele>193</ele>
        <time>2016-11-26T10:58:28Z</time>
      </trkpt>
      <trkpt lat="46.06086" lon="4.71342">
        <ele>193</ele>
        <time>2016-11-26T10:58:29Z</time>
      </trkpt>
      <trkpt lat="46.06084" lon="4.71336">
        <ele>193</ele>
        <time>2016-11-26T10:58:30Z</time>
      </trkpt>
      <trkpt lat="46.06082" lon="4.71329">
        <ele>193</ele>
        <time>2016-11-26T10:58:31Z</time>
      </trkpt>
      <trkpt lat="46.0608" lon="4.71323">
        <ele>193</ele>
        <time>2016-11-26T10:58:32Z</time>
      </trkpt>
      <trkpt lat="46.06078" lon="4.71316">
        <ele>193</ele>
        <time>2016-11-26T10:58:33Z</time>
      </trkpt>
      <trkpt lat="46.06075" lon="4.71309">
        <ele>193</ele>
        <time>2016-11-26T10:58:34Z</time>
      </trkpt>
      <trkpt lat="46.06073" lon="4.71302">
        <ele>193</ele>
        <time>2016-11-26T10:58:35Z</time>
      </trkpt>
      <trkpt lat="46.06071" lon="4.71296">
        <ele>193</ele>
        <time>2016-11-26T10:58:36Z</time>
      </trkpt>
      <trkpt lat="46.06068" lon="4.71289">
        <ele>193</ele>
        <time>2016-11-26T10:58:37Z</time>
      </trkpt>
      <trkpt lat="46.06066" lon="4.71283">
        <ele>193</ele>
        <time>2016-11-26T10:58:38Z</time>
      </trkpt>
      <trkpt lat="46.06062" lon="4.71272">
        <ele>193</ele>
        <time>2016-11-26T10:58:40Z</time>
      </trkpt>
      <trkpt lat="46.0606" lon="4.71266">
        <ele>193</ele>
        <time>2016-11-26T10:58:41Z</time>
      </trkpt>
      <trkpt lat="46.06058" lon="4.71261">
        <ele>193</ele>
        <time>2016-11-26T10:58:42Z</time>
      </trkpt>
      <trkpt lat="46.06056" lon="4.71254">
        <ele>193</ele>
        <time>2016-11-26T10:58:43Z</time>
      </trkpt>
      <trkpt lat="46.06054" lon="4.71248">
        <ele>193</ele>
        <time>2016-11-26T10:58:44Z</time>
      </trkpt>
      <trkpt lat="46.06052" lon="4.71242">
        <ele>193</ele>
        <time>2016-11-26T10:58:45Z</time>
      </trkpt>
      <trkpt lat="46.0605" lon="4.71236">
        <ele>193</ele>
        <time>2016-11-26T10:58:46Z</time>
      </trkpt>
      <trkpt lat="46.06047" lon="4.7123">
        <ele>193</ele>
        <time>2016-11-26T10:58:47Z</time>
      </trkpt>
      <trkpt lat="46.06045" lon="4.71224">
        <ele>193</ele>
        <time>2016-11-26T10:58:48Z</time>
      </trkpt>
      <trkpt lat="46.06043" lon="4.71218">
        <ele>193</ele>
        <time>2016-11-26T10:58:49Z</time>
      </trkpt>
      <trkpt lat="46.06041" lon="4.71212">
        <ele>193</ele>
        <time>2016-11-26T10:58:50Z</time>
      </trkpt>
      <trkpt lat="46.06039" lon="4.71206">
        <ele>193</ele>
        <time>2016-11-26T10:58:51Z</time>
      </trkpt>
      <trkpt lat="46.06037" lon="4.712">
        <ele>193</ele>
        <time>2016-11-26T10:58:52Z</time>
      </trkpt>
      <trkpt lat="46.06034" lon="4.71193">
        <ele>193</ele>
        <time>2016-11-26T10:58:53Z</time>
      </trkpt>
      <trkpt lat="46.06032" lon="4.71187">
        <ele>193</ele>
        <time>2016-11-26T10:58:54Z</time>
      </trkpt>
      <trkpt lat="46.0603" lon="4.7118">
        <ele>193</ele>
        <time>2016-11-26T10:58:55Z</time>
      </trkpt>
      <trkpt lat="46.06028" lon="4.71174">
        <ele>193</ele>
        <time>2016-11-26T10:58:56Z</time>
      </trkpt>
      <trkpt lat="46.06025" lon="4.71167">
        <ele>194</ele>
        <time>2016-11-26T10:58:57Z</time>
      </trkpt>
      <trkpt lat="46.06022" lon="4.7116">
        <ele>194</ele>
        <time>2016-11-26T10:58:58Z</time>
      </trkpt>
      <trkpt lat="46.0602" lon="4.71153">
        <ele>194</ele>
        <time>2016-11-26T10:58:59Z</time>
      </trkpt>
      <trkpt lat="46.06017" lon="4.71146">
        <ele>193</ele>
        <time>2016-11-26T10:59:00Z</time>
      </trkpt>
      <trkpt lat="46.06014" lon="4.71139">
        <ele>193</ele>
        <time>2016-11-26T10:59:01Z</time>
      </trkpt>
      <trkpt lat="46.06012" lon="4.71132">
        <ele>193</ele>
        <time>2016-11-26T10:59:02Z</time>
      </trkpt>
      <trkpt lat="46.06009" lon="4.71124">
        <ele>193</ele>
        <time>2016-11-26T10:59:03Z</time>
      </trkpt>
      <trkpt lat="46.06006" lon="4.71117">
        <ele>193</ele>
        <time>2016-11-26T10:59:04Z</time>
      </trkpt>
      <trkpt lat="46.06003" lon="4.7111">
        <ele>193</ele>
        <time>2016-11-26T10:59:05Z</time>
      </trkpt>
      <trkpt lat="46.06" lon="4.71103">
        <ele>193</ele>
        <time>2016-11-26T10:59:06Z</time>
      </trkpt>
      <trkpt lat="46.05997" lon="4.71096">
        <ele>193</ele>
        <time>2016-11-26T10:59:07Z</time>
      </trkpt>
      <trkpt lat="46.05995" lon="4.71089">
        <ele>193</ele>
        <time>2016-11-26T10:59:08Z</time>
      </trkpt>
      <trkpt lat="46.05992" lon="4.71083">
        <ele>193</ele>
        <time>2016-11-26T10:59:09Z</time>
      </trkpt>
      <trkpt lat="46.0599" lon="4.71076">
        <ele>193</ele>
        <time>2016-11-26T10:59:10Z</time>
      </trkpt>
      <trkpt lat="46.05987" lon="4.7107">
        <ele>193</ele>
        <time>2016-11-26T10:59:11Z</time>
      </trkpt>
      <trkpt lat="46.05984" lon="4.71064">
        <ele>193</ele>
        <time>2016-11-26T10:59:12Z</time>
      </trkpt>
      <trkpt lat="46.05981" lon="4.71058">
        <ele>193</ele>
        <time>2016-11-26T10:59:13Z</time>
      </trkpt>
      <trkpt lat="46.05979" lon="4.71051">
        <ele>193</ele>
        <time>2016-11-26T10:59:14Z</time>
      </trkpt>
      <trkpt lat="46.05976" lon="4.71044">
        <ele>193</ele>
        <time>2016-11-26T10:59:15Z</time>
      </trkpt>
      <trkpt lat="46.05973" lon="4.71037">
        <ele>193</ele>
        <time>2016-11-26T10:59:16Z</time>
      </trkpt>
      <trkpt lat="46.0597" lon="4.71029">
        <ele>193</ele>
        <time>2016-11-26T10:59:17Z</time>
      </trkpt>
      <trkpt lat="46.05967" lon="4.71021">
        <ele>193</ele>
        <time>2016-11-26T10:59:18Z</time>
      </trkpt>
      <trkpt lat="46.05964" lon="4.71013">
        <ele>193</ele>
        <time>2016-11-26T10:59:19Z</time>
      </trkpt>
      <trkpt lat="46.05961" lon="4.71005">
        <ele>193</ele>
        <time>2016-11-26T10:59:20Z</time>
      </trkpt>
      <trkpt lat="46.05958" lon="4.70998">
        <ele>193</ele>
        <time>2016-11-26T10:59:21Z</time>
      </trkpt>
      <trkpt lat="46.05956" lon="4.7099">
        <ele>193</ele>
        <time>2016-11-26T10:59:22Z</time>
      </trkpt>
      <trkpt lat="46.05953" lon="4.70983">
        <ele>193</ele>
        <time>2016-11-26T10:59:23Z</time>
      </trkpt>
      <trkpt lat="46.05951" lon="4.70976">
        <ele>193</ele>
        <time>2016-11-26T10:59:24Z</time>
      </trkpt>
      <trkpt lat="46.05949" lon="4.70969">
        <ele>193</ele>
        <time>2016-11-26T10:59:25Z</time>
      </trkpt>
      <trkpt lat="46.05947" lon="4.70962">
        <ele>193</ele>
        <time>2016-11-26T10:59:26Z</time>
      </trkpt>
      <trkpt lat="46.05946" lon="4.70956">
        <ele>193</ele>
        <time>2016-11-26T10:59:27Z</time>
      </trkpt>
      <trkpt lat="46.05944" lon="4.70949">
        <ele>193</ele>
        <time>2016-11-26T10:59:28Z</time>
      </trkpt>
      <trkpt lat="46.05943" lon="4.70943">
        <ele>193</ele>
        <time>2016-11-26T10:59:29Z</time>
      </trkpt>
      <trkpt lat="46.05941" lon="4.70936">
        <ele>193</ele>
        <time>2016-11-26T10:59:30Z</time>
      </trkpt>
      <trkpt lat="46.05939" lon="4.70929">
        <ele>194</ele>
        <time>2016-11-26T10:59:31Z</time>
      </trkpt>
      <trkpt lat="46.05938" lon="4.70922">
        <ele>194</ele>
        <time>2016-11-26T10:59:32Z</time>
      </trkpt>
      <trkpt lat="46.05936" lon="4.70914">
        <ele>194</ele>
        <time>2016-11-26T10:59:33Z</time>
      </trkpt>
      <trkpt lat="46.05935" lon="4.70907">
        <ele>194</ele>
        <time>2016-11-26T10:59:34Z</time>
      </trkpt>
      <trkpt lat="46.05934" lon="4.70899">
        <ele>194</ele>
        <time>2016-11-26T10:59:35Z</time>
      </trkpt>
      <trkpt lat="46.05933" lon="4.70891">
        <ele>194</ele>
        <time>2016-11-26T10:59:36Z</time>
      </trkpt>
      <trkpt lat="46.05932" lon="4.70884">
        <ele>194</ele>
        <time>2016-11-26T10:59:37Z</time>
      </trkpt>
      <trkpt lat="46.05932" lon="4.70876">
        <ele>194</ele>
        <time>2016-11-26T10:59:38Z</time>
      </trkpt>
      <trkpt lat="46.05931" lon="4.70869">
        <ele>194</ele>
        <time>2016-11-26T10:59:39Z</time>
      </trkpt>
      <trkpt lat="46.05931" lon="4.70862">
        <ele>194</ele>
        <time>2016-11-26T10:59:40Z</time>
      </trkpt>
      <trkpt lat="46.0593" lon="4.70854">
        <ele>194</ele>
        <time>2016-11-26T10:59:41Z</time>
      </trkpt>
      <trkpt lat="46.0593" lon="4.70847">
        <ele>194</ele>
        <time>2016-11-26T10:59:42Z</time>
      </trkpt>
      <trkpt lat="46.0593" lon="4.70839">
        <ele>194</ele>
        <time>2016-11-26T10:59:43Z</time>
      </trkpt>
      <trkpt lat="46.05929" lon="4.70831">
        <ele>195</ele>
        <time>2016-11-26T10:59:44Z</time>
      </trkpt>
      <trkpt lat="46.05929" lon="4.70823">
        <ele>194</ele>
        <time>2016-11-26T10:59:45Z</time>
      </trkpt>
      <trkpt lat="46.05928" lon="4.70816">
        <ele>194</ele>
        <time>2016-11-26T10:59:46Z</time>
      </trkpt>
      <trkpt lat="46.05927" lon="4.70808">
        <ele>194</ele>
        <time>2016-11-26T10:59:47Z</time>
      </trkpt>
      <trkpt lat="46.05926" lon="4.708">
        <ele>194</ele>
        <time>2016-11-26T10:59:48Z</time>
      </trkpt>
      <trkpt lat="46.05925" lon="4.70793">
        <ele>194</ele>
        <time>2016-11-26T10:59:49Z</time>
      </trkpt>
      <trkpt lat="46.05924" lon="4.70785">
        <ele>194</ele>
        <time>2016-11-26T10:59:50Z</time>
      </trkpt>
      <trkpt lat="46.05922" lon="4.70776">
        <ele>194</ele>
        <time>2016-11-26T10:59:51Z</time>
      </trkpt>
      <trkpt lat="46.05921" lon="4.70768">
        <ele>194</ele>
        <time>2016-11-26T10:59:52Z</time>
      </trkpt>
      <trkpt lat="46.05919" lon="4.7076">
        <ele>194</ele>
        <time>2016-11-26T10:59:53Z</time>
      </trkpt>
      <trkpt lat="46.05917" lon="4.70753">
        <ele>194</ele>
        <time>2016-11-26T10:59:54Z</time>
      </trkpt>
      <trkpt lat="46.05916" lon="4.70746">
        <ele>194</ele>
        <time>2016-11-26T10:59:55Z</time>
      </trkpt>
      <trkpt lat="46.05915" lon="4.70738">
        <ele>194</ele>
        <time>2016-11-26T10:59:56Z</time>
      </trkpt>
      <trkpt lat="46.05914" lon="4.70731">
        <ele>194</ele>
        <time>2016-11-26T10:59:57Z</time>
      </trkpt>
      <trkpt lat="46.05913" lon="4.70724">
        <ele>194</ele>
        <time>2016-11-26T10:59:58Z</time>
      </trkpt>
      <trkpt lat="46.05912" lon="4.70717">
        <ele>194</ele>
        <time>2016-11-26T10:59:59Z</time>
      </trkpt>
      <trkpt lat="46.0591" lon="4.7071">
        <ele>194</ele>
        <time>2016-11-26T11:00:00Z</time>
      </trkpt>
      <trkpt lat="46.05909" lon="4.70703">
        <ele>194</ele>
        <time>2016-11-26T11:00:01Z</time>
      </trkpt>
      <trkpt lat="46.05908" lon="4.70696">
        <ele>194</ele>
        <time>2016-11-26T11:00:02Z</time>
      </trkpt>
      <trkpt lat="46.05907" lon="4.70689">
        <ele>194</ele>
        <time>2016-11-26T11:00:03Z</time>
      </trkpt>
      <trkpt lat="46.05906" lon="4.70681">
        <ele>194</ele>
        <time>2016-11-26T11:00:04Z</time>
      </trkpt>
      <trkpt lat="46.05906" lon="4.70673">
        <ele>194</ele>
        <time>2016-11-26T11:00:05Z</time>
      </trkpt>
      <trkpt lat="46.05905" lon="4.70666">
        <ele>194</ele>
        <time>2016-11-26T11:00:06Z</time>
      </trkpt>
      <trkpt lat="46.05905" lon="4.70658">
        <ele>194</ele>
        <time>2016-11-26T11:00:07Z</time>
      </trkpt>
      <trkpt lat="46.05905" lon="4.7065">
        <ele>194</ele>
        <time>2016-11-26T11:00:08Z</time>
      </trkpt>
      <trkpt lat="46.05906" lon="4.70643">
        <ele>194</ele>
        <time>2016-11-26T11:00:09Z</time>
      </trkpt>
      <trkpt lat="46.05906" lon="4.70635">
        <ele>194</ele>
        <time>2016-11-26T11:00:10Z</time>
      </trkpt>
      <trkpt lat="46.05907" lon="4.70628">
        <ele>194</ele>
        <time>2016-11-26T11:00:11Z</time>
      </trkpt>
      <trkpt lat="46.05907" lon="4.7062">
        <ele>194</ele>
        <time>2016-11-26T11:00:12Z</time>
      </trkpt>
      <trkpt lat="46.05908" lon="4.70612">
        <ele>194</ele>
        <time>2016-11-26T11:00:13Z</time>
      </trkpt>
      <trkpt lat="46.05909" lon="4.70605">
        <ele>194</ele>
        <time>2016-11-26T11:00:14Z</time>
      </trkpt>
      <trkpt lat="46.05911" lon="4.70598">
        <ele>194</ele>
        <time>2016-11-26T11:00:15Z</time>
      </trkpt>
      <trkpt lat="46.05912" lon="4.7059">
        <ele>195</ele>
        <time>2016-11-26T11:00:16Z</time>
      </trkpt>
      <trkpt lat="46.05914" lon="4.70583">
        <ele>195</ele>
        <time>2016-11-26T11:00:17Z</time>
      </trkpt>
      <trkpt lat="46.05915" lon="4.70575">
        <ele>195</ele>
        <time>2016-11-26T11:00:18Z</time>
      </trkpt>
      <trkpt lat="46.05917" lon="4.70568">
        <ele>195</ele>
        <time>2016-11-26T11:00:19Z</time>
      </trkpt>
      <trkpt lat="46.0592" lon="4.70561">
        <ele>195</ele>
        <time>2016-11-26T11:00:20Z</time>
      </trkpt>
      <trkpt lat="46.05922" lon="4.70555">
        <ele>195</ele>
        <time>2016-11-26T11:00:21Z</time>
      </trkpt>
      <trkpt lat="46.05924" lon="4.70548">
        <ele>195</ele>
        <time>2016-11-26T11:00:22Z</time>
      </trkpt>
      <trkpt lat="46.05926" lon="4.70542">
        <ele>195</ele>
        <time>2016-11-26T11:00:23Z</time>
      </trkpt>
      <trkpt lat="46.05928" lon="4.70535">
        <ele>195</ele>
        <time>2016-11-26T11:00:24Z</time>
      </trkpt>
      <trkpt lat="46.0593" lon="4.70528">
        <ele>195</ele>
        <time>2016-11-26T11:00:25Z</time>
      </trkpt>
      <trkpt lat="46.05932" lon="4.7052">
        <ele>195</ele>
        <time>2016-11-26T11:00:26Z</time>
      </trkpt>
      <trkpt lat="46.05934" lon="4.70513">
        <ele>195</ele>
        <time>2016-11-26T11:00:27Z</time>
      </trkpt>
      <trkpt lat="46.05934" lon="4.70505">
        <ele>195</ele>
        <time>2016-11-26T11:00:28Z</time>
      </trkpt>
      <trkpt lat="46.05934" lon="4.70497">
        <ele>195</ele>
        <time>2016-11-26T11:00:29Z</time>
      </trkpt>
      <trkpt lat="46.05932" lon="4.70489">
        <ele>195</ele>
        <time>2016-11-26T11:00:30Z</time>
      </trkpt>
      <trkpt lat="46.05929" lon="4.70481">
        <ele>195</ele>
        <time>2016-11-26T11:00:31Z</time>
      </trkpt>
      <trkpt lat="46.05926" lon="4.70473">
        <ele>195</ele>
        <time>2016-11-26T11:00:32Z</time>
      </trkpt>
      <trkpt lat="46.05923" lon="4.70466">
        <ele>195</ele>
        <time>2016-11-26T11:00:33Z</time>
      </trkpt>
      <trkpt lat="46.05919" lon="4.70459">
        <ele>195</ele>
        <time>2016-11-26T11:00:34Z</time>
      </trkpt>
      <trkpt lat="46.05915" lon="4.70453">
        <ele>195</ele>
        <time>2016-11-26T11:00:35Z</time>
      </trkpt>
      <trkpt lat="46.05911" lon="4.70446">
        <ele>195</ele>
        <time>2016-11-26T11:00:36Z</time>
      </trkpt>
      <trkpt lat="46.05908" lon="4.7044">
        <ele>195</ele>
        <time>2016-11-26T11:00:37Z</time>
      </trkpt>
      <trkpt lat="46.05904" lon="4.70434">
        <ele>195</ele>
        <time>2016-11-26T11:00:38Z</time>
      </trkpt>
      <trkpt lat="46.05901" lon="4.70428">
        <ele>195</ele>
        <time>2016-11-26T11:00:39Z</time>
      </trkpt>
      <trkpt lat="46.05897" lon="4.70423">
        <ele>195</ele>
        <time>2016-11-26T11:00:40Z</time>
      </trkpt>
      <trkpt lat="46.05893" lon="4.70418">
        <ele>195</ele>
        <time>2016-11-26T11:00:41Z</time>
      </trkpt>
      <trkpt lat="46.0589" lon="4.70412">
        <ele>196</ele>
        <time>2016-11-26T11:00:42Z</time>
      </trkpt>
      <trkpt lat="46.05886" lon="4.70407">
        <ele>196</ele>
        <time>2016-11-26T11:00:43Z</time>
      </trkpt>
      <trkpt lat="46.05883" lon="4.70401">
        <ele>196</ele>
        <time>2016-11-26T11:00:44Z</time>
      </trkpt>
      <trkpt lat="46.0588" lon="4.70395">
        <ele>196</ele>
        <time>2016-11-26T11:00:45Z</time>
      </trkpt>
      <trkpt lat="46.05877" lon="4.70389">
        <ele>196</ele>
        <time>2016-11-26T11:00:46Z</time>
      </trkpt>
      <trkpt lat="46.05873" lon="4.70384">
        <ele>196</ele>
        <time>2016-11-26T11:00:47Z</time>
      </trkpt>
      <trkpt lat="46.05869" lon="4.70377">
        <ele>196</ele>
        <time>2016-11-26T11:00:48Z</time>
      </trkpt>
      <trkpt lat="46.05865" lon="4.70371">
        <ele>196</ele>
        <time>2016-11-26T11:00:49Z</time>
      </trkpt>
      <trkpt lat="46.05861" lon="4.70364">
        <ele>196</ele>
        <time>2016-11-26T11:00:50Z</time>
      </trkpt>
      <trkpt lat="46.05857" lon="4.70358">
        <ele>196</ele>
        <time>2016-11-26T11:00:51Z</time>
      </trkpt>
      <trkpt lat="46.05853" lon="4.70351">
        <ele>196</ele>
        <time>2016-11-26T11:00:52Z</time>
      </trkpt>
      <trkpt lat="46.05849" lon="4.70346">
        <ele>196</ele>
        <time>2016-11-26T11:00:53Z</time>
      </trkpt>
      <trkpt lat="46.05845" lon="4.7034">
        <ele>197</ele>
        <time>2016-11-26T11:00:54Z</time>
      </trkpt>
      <trkpt lat="46.0584" lon="4.70334">
        <ele>197</ele>
        <time>2016-11-26T11:00:55Z</time>
      </trkpt>
      <trkpt lat="46.05836" lon="4.70329">
        <ele>197</ele>
        <time>2016-11-26T11:00:56Z</time>
      </trkpt>
      <trkpt lat="46.05832" lon="4.70325">
        <ele>197</ele>
        <time>2016-11-26T11:00:57Z</time>
      </trkpt>
      <trkpt lat="46.05828" lon="4.7032">
        <ele>197</ele>
        <time>2016-11-26T11:00:58Z</time>
      </trkpt>
      <trkpt lat="46.05825" lon="4.70316">
        <ele>197</ele>
        <time>2016-11-26T11:00:59Z</time>
      </trkpt>
      <trkpt lat="46.05822" lon="4.70311">
        <ele>197</ele>
        <time>2016-11-26T11:01:00Z</time>
      </trkpt>
      <trkpt lat="46.05818" lon="4.70306">
        <ele>197</ele>
        <time>2016-11-26T11:01:01Z</time>
      </trkpt>
      <trkpt lat="46.05812" lon="4.70297">
        <ele>197</ele>
        <time>2016-11-26T11:01:03Z</time>
      </trkpt>
      <trkpt lat="46.05809" lon="4.70293">
        <ele>197</ele>
        <time>2016-11-26T11:01:04Z</time>
      </trkpt>
      <trkpt lat="46.05805" lon="4.70288">
        <ele>197</ele>
        <time>2016-11-26T11:01:05Z</time>
      </trkpt>
      <trkpt lat="46.05802" lon="4.70282">
        <ele>197</ele>
        <time>2016-11-26T11:01:06Z</time>
      </trkpt>
      <trkpt lat="46.05799" lon="4.70277">
        <ele>197</ele>
        <time>2016-11-26T11:01:07Z</time>
      </trkpt>
      <trkpt lat="46.05795" lon="4.7027">
        <ele>197</ele>
        <time>2016-11-26T11:01:08Z</time>
      </trkpt>
      <trkpt lat="46.05792" lon="4.70264">
        <ele>198</ele>
        <time>2016-11-26T11:01:09Z</time>
      </trkpt>
      <trkpt lat="46.05788" lon="4.70258">
        <ele>198</ele>
        <time>2016-11-26T11:01:10Z</time>
      </trkpt>
      <trkpt lat="46.05785" lon="4.70252">
        <ele>198</ele>
        <time>2016-11-26T11:01:11Z</time>
      </trkpt>
      <trkpt lat="46.05781" lon="4.70246">
        <ele>198</ele>
        <time>2016-11-26T11:01:12Z</time>
      </trkpt>
      <trkpt lat="46.05778" lon="4.7024">
        <ele>198</ele>
        <time>2016-11-26T11:01:13Z</time>
      </trkpt>
      <trkpt lat="46.05774" lon="4.70235">
        <ele>198</ele>
        <time>2016-11-26T11:01:14Z</time>
      </trkpt>
      <trkpt lat="46.05771" lon="4.7023">
        <ele>198</ele>
        <time>2016-11-26T11:01:15Z</time>
      </trkpt>
      <trkpt lat="46.05768" lon="4.70225">
        <ele>198</ele>
        <time>2016-11-26T11:01:16Z</time>
      </trkpt>
      <trkpt lat="46.05762" lon="4.70216">
        <ele>198</ele>
        <time>2016-11-26T11:01:18Z</time>
      </trkpt>
      <trkpt lat="46.05759" lon="4.70211">
        <ele>198</ele>
        <time>2016-11-26T11:01:19Z</time>
      </trkpt>
      <trkpt lat="46.05756" lon="4.70205">
        <ele>198</ele>
        <time>2016-11-26T11:01:20Z</time>
      </trkpt>
      <trkpt lat="46.05754" lon="4.70199">
        <ele>198</ele>
        <time>2016-11-26T11:01:21Z</time>
      </trkpt>
      <trkpt lat="46.0575" lon="4.70193">
        <ele>198</ele>
        <time>2016-11-26T11:01:22Z</time>
      </trkpt>
      <trkpt lat="46.05747" lon="4.70187">
        <ele>198</ele>
        <time>2016-11-26T11:01:23Z</time>
      </trkpt>
      <trkpt lat="46.05745" lon="4.70181">
        <ele>198</ele>
        <time>2016-11-26T11:01:24Z</time>
      </trkpt>
      <trkpt lat="46.05742" lon="4.70176">
        <ele>198</ele>
        <time>2016-11-26T11:01:25Z</time>
      </trkpt>
      <trkpt lat="46.05739" lon="4.7017">
        <ele>198</ele>
        <time>2016-11-26T11:01:26Z</time>
      </trkpt>
      <trkpt lat="46.05736" lon="4.70165">
        <ele>199</ele>
        <time>2016-11-26T11:01:27Z</time>
      </trkpt>
      <trkpt lat="46.05733" lon="4.70159">
        <ele>199</ele>
        <time>2016-11-26T11:01:28Z</time>
      </trkpt>
      <trkpt lat="46.0573" lon="4.70153">
        <ele>198</ele>
        <time>2016-11-26T11:01:29Z</time>
      </trkpt>
      <trkpt lat="46.05727" lon="4.70148">
        <ele>198</ele>
        <time>2016-11-26T11:01:30Z</time>
      </trkpt>
      <trkpt lat="46.05724" lon="4.70142">
        <ele>198</ele>
        <time>2016-11-26T11:01:31Z</time>
      </trkpt>
      <trkpt lat="46.05719" lon="4.70132">
        <ele>198</ele>
        <time>2016-11-26T11:01:33Z</time>
      </trkpt>
      <trkpt lat="46.05716" lon="4.70127">
        <ele>198</ele>
        <time>2016-11-26T11:01:34Z</time>
      </trkpt>
      <trkpt lat="46.05711" lon="4.70117">
        <ele>198</ele>
        <time>2016-11-26T11:01:36Z</time>
      </trkpt>
      <trkpt lat="46.05708" lon="4.70112">
        <ele>198</ele>
        <time>2016-11-26T11:01:37Z</time>
      </trkpt>
      <trkpt lat="46.05705" lon="4.70106">
        <ele>198</ele>
        <time>2016-11-26T11:01:38Z</time>
      </trkpt>
      <trkpt lat="46.05702" lon="4.70101">
        <ele>198</ele>
        <time>2016-11-26T11:01:39Z</time>
      </trkpt>
      <trkpt lat="46.05699" lon="4.70095">
        <ele>198</ele>
        <time>2016-11-26T11:01:40Z</time>
      </trkpt>
      <trkpt lat="46.05696" lon="4.7009">
        <ele>198</ele>
        <time>2016-11-26T11:01:41Z</time>
      </trkpt>
      <trkpt lat="46.05693" lon="4.70085">
        <ele>198</ele>
        <time>2016-11-26T11:01:42Z</time>
      </trkpt>
      <trkpt lat="46.0569" lon="4.70079">
        <ele>199</ele>
        <time>2016-11-26T11:01:43Z</time>
      </trkpt>
      <trkpt lat="46.05687" lon="4.70074">
        <ele>199</ele>
        <time>2016-11-26T11:01:44Z</time>
      </trkpt>
      <trkpt lat="46.05684" lon="4.70068">
        <ele>199</ele>
        <time>2016-11-26T11:01:45Z</time>
      </trkpt>
      <trkpt lat="46.05681" lon="4.70062">
        <ele>199</ele>
        <time>2016-11-26T11:01:46Z</time>
      </trkpt>
      <trkpt lat="46.05679" lon="4.70056">
        <ele>199</ele>
        <time>2016-11-26T11:01:47Z</time>
      </trkpt>
      <trkpt lat="46.05677" lon="4.7005">
        <ele>199</ele>
        <time>2016-11-26T11:01:48Z</time>
      </trkpt>
      <trkpt lat="46.05674" lon="4.70044">
        <ele>199</ele>
        <time>2016-11-26T11:01:49Z</time>
      </trkpt>
      <trkpt lat="46.05671" lon="4.70038">
        <ele>199</ele>
        <time>2016-11-26T11:01:50Z</time>
      </trkpt>
      <trkpt lat="46.05668" lon="4.70032">
        <ele>199</ele>
        <time>2016-11-26T11:01:51Z</time>
      </trkpt>
      <trkpt lat="46.05665" lon="4.70026">
        <ele>200</ele>
        <time>2016-11-26T11:01:52Z</time>
      </trkpt>
      <trkpt lat="46.05661" lon="4.70021">
        <ele>200</ele>
        <time>2016-11-26T11:01:53Z</time>
      </trkpt>
      <trkpt lat="46.05658" lon="4.70015">
        <ele>200</ele>
        <time>2016-11-26T11:01:54Z</time>
      </trkpt>
      <trkpt lat="46.05655" lon="4.70009">
        <ele>200</ele>
        <time>2016-11-26T11:01:55Z</time>
      </trkpt>
      <trkpt lat="46.05652" lon="4.70003">
        <ele>200</ele>
        <time>2016-11-26T11:01:56Z</time>
      </trkpt>
      <trkpt lat="46.05648" lon="4.69998">
        <ele>200</ele>
        <time>2016-11-26T11:01:57Z</time>
      </trkpt>
      <trkpt lat="46.05645" lon="4.69992">
        <ele>200</ele>
        <time>2016-11-26T11:01:58Z</time>
      </trkpt>
      <trkpt lat="46.05642" lon="4.69987">
        <ele>200</ele>
        <time>2016-11-26T11:01:59Z</time>
      </trkpt>
      <trkpt lat="46.05639" lon="4.69981">
        <ele>200</ele>
        <time>2016-11-26T11:02:00Z</time>
      </trkpt>
      <trkpt lat="46.05636" lon="4.69975">
        <ele>200</ele>
        <time>2016-11-26T11:02:01Z</time>
      </trkpt>
      <trkpt lat="46.05633" lon="4.69969">
        <ele>200</ele>
        <time>2016-11-26T11:02:02Z</time>
      </trkpt>
      <trkpt lat="46.0563" lon="4.69964">
        <ele>200</ele>
        <time>2016-11-26T11:02:03Z</time>
      </trkpt>
      <trkpt lat="46.05626" lon="4.69958">
        <ele>200</ele>
        <time>2016-11-26T11:02:04Z</time>
      </trkpt>
      <trkpt lat="46.05623" lon="4.69952">
        <ele>200</ele>
        <time>2016-11-26T11:02:05Z</time>
      </trkpt>
      <trkpt lat="46.05619" lon="4.69946">
        <ele>201</ele>
        <time>2016-11-26T11:02:06Z</time>
      </trkpt>
      <trkpt lat="46.05616" lon="4.69939">
        <ele>201</ele>
        <time>2016-11-26T11:02:07Z</time>
      </trkpt>
      <trkpt lat="46.05612" lon="4.69932">
        <ele>201</ele>
        <time>2016-11-26T11:02:08Z</time>
      </trkpt>
      <trkpt lat="46.05609" lon="4.69925">
        <ele>201</ele>
        <time>2016-11-26T11:02:09Z</time>
      </trkpt>
      <trkpt lat="46.05605" lon="4.69919">
        <ele>201</ele>
        <time>2016-11-26T11:02:10Z</time>
      </trkpt>
      <trkpt lat="46.05602" lon="4.69913">
        <ele>201</ele>
        <time>2016-11-26T11:02:11Z</time>
      </trkpt>
      <trkpt lat="46.05598" lon="4.69907">
        <ele>201</ele>
        <time>2016-11-26T11:02:12Z</time>
      </trkpt>
      <trkpt lat="46.05595" lon="4.69901">
        <ele>201</ele>
        <time>2016-11-26T11:02:13Z</time>
      </trkpt>
      <trkpt lat="46.05593" lon="4.69895">
        <ele>201</ele>
        <time>2016-11-26T11:02:14Z</time>
      </trkpt>
      <trkpt lat="46.0559" lon="4.69889">
        <ele>201</ele>
        <time>2016-11-26T11:02:15Z</time>
      </trkpt>
      <trkpt lat="46.05587" lon="4.69884">
        <ele>201</ele>
        <time>2016-11-26T11:02:16Z</time>
      </trkpt>
      <trkpt lat="46.05584" lon="4.69879">
        <ele>201</ele>
        <time>2016-11-26T11:02:17Z</time>
      </trkpt>
      <trkpt lat="46.05581" lon="4.69873">
        <ele>200</ele>
        <time>2016-11-26T11:02:18Z</time>
      </trkpt>
      <trkpt lat="46.05577" lon="4.69868">
        <ele>200</ele>
        <time>2016-11-26T11:02:19Z</time>
      </trkpt>
      <trkpt lat="46.05574" lon="4.69862">
        <ele>200</ele>
        <time>2016-11-26T11:02:20Z</time>
      </trkpt>
      <trkpt lat="46.0557" lon="4.69857">
        <ele>200</ele>
        <time>2016-11-26T11:02:21Z</time>
      </trkpt>
      <trkpt lat="46.05566" lon="4.69852">
        <ele>200</ele>
        <time>2016-11-26T11:02:22Z</time>
      </trkpt>
      <trkpt lat="46.05562" lon="4.6985">
        <ele>200</ele>
        <time>2016-11-26T11:02:23Z</time>
      </trkpt>
      <trkpt lat="46.05557" lon="4.6985">
        <ele>200</ele>
        <time>2016-11-26T11:02:24Z</time>
      </trkpt>
      <trkpt lat="46.05552" lon="4.69852">
        <ele>200</ele>
        <time>2016-11-26T11:02:25Z</time>
      </trkpt>
      <trkpt lat="46.05548" lon="4.69855">
        <ele>200</ele>
        <time>2016-11-26T11:02:26Z</time>
      </trkpt>
      <trkpt lat="46.05543" lon="4.69858">
        <ele>200</ele>
        <time>2016-11-26T11:02:27Z</time>
      </trkpt>
      <trkpt lat="46.05538" lon="4.69861">
        <ele>200</ele>
        <time>2016-11-26T11:02:28Z</time>
      </trkpt>
      <trkpt lat="46.05533" lon="4.69863">
        <ele>200</ele>
        <time>2016-11-26T11:02:29Z</time>
      </trkpt>
      <trkpt lat="46.05527" lon="4.69865">
        <ele>200</ele>
        <time>2016-11-26T11:02:30Z</time>
      </trkpt>
      <trkpt lat="46.05522" lon="4.69866">
        <ele>200</ele>
        <time>2016-11-26T11:02:31Z</time>
      </trkpt>
      <trkpt lat="46.05516" lon="4.69868">
        <ele>199</ele>
        <time>2016-11-26T11:02:32Z</time>
      </trkpt>
      <trkpt lat="46.05511" lon="4.6987">
        <ele>199</ele>
        <time>2016-11-26T11:02:33Z</time>
      </trkpt>
      <trkpt lat="46.05506" lon="4.69872">
        <ele>199</ele>
        <time>2016-11-26T11:02:34Z</time>
      </trkpt>
      <trkpt lat="46.05501" lon="4.69874">
        <ele>199</ele>
        <time>2016-11-26T11:02:35Z</time>
      </trkpt>
      <trkpt lat="46.05496" lon="4.69875">
        <ele>199</ele>
        <time>2016-11-26T11:02:36Z</time>
      </trkpt>
      <trkpt lat="46.05491" lon="4.69876">
        <ele>199</ele>
        <time>2016-11-26T11:02:37Z</time>
      </trkpt>
      <trkpt lat="46.05486" lon="4.69878">
        <ele>199</ele>
        <time>2016-11-26T11:02:38Z</time>
      </trkpt>
      <trkpt lat="46.05482" lon="4.6988">
        <ele>199</ele>
        <time>2016-11-26T11:02:39Z</time>
      </trkpt>
      <trkpt lat="46.05477" lon="4.69882">
        <ele>199</ele>
        <time>2016-11-26T11:02:40Z</time>
      </trkpt>
      <trkpt lat="46.05472" lon="4.69884">
        <ele>199</ele>
        <time>2016-11-26T11:02:41Z</time>
      </trkpt>
      <trkpt lat="46.05467" lon="4.69886">
        <ele>199</ele>
        <time>2016-11-26T11:02:42Z</time>
      </trkpt>
      <trkpt lat="46.05462" lon="4.69888">
        <ele>199</ele>
        <time>2016-11-26T11:02:43Z</time>
      </trkpt>
      <trkpt lat="46.05457" lon="4.6989">
        <ele>199</ele>
        <time>2016-11-26T11:02:44Z</time>
      </trkpt>
      <trkpt lat="46.05452" lon="4.69892">
        <ele>199</ele>
        <time>2016-11-26T11:02:45Z</time>
      </trkpt>
      <trkpt lat="46.05447" lon="4.69894">
        <ele>199</ele>
        <time>2016-11-26T11:02:46Z</time>
      </trkpt>
      <trkpt lat="46.05441" lon="4.69897">
        <ele>199</ele>
        <time>2016-11-26T11:02:47Z</time>
      </trkpt>
      <trkpt lat="46.05435" lon="4.69899">
        <ele>199</ele>
        <time>2016-11-26T11:02:48Z</time>
      </trkpt>
      <trkpt lat="46.05429" lon="4.69901">
        <ele>199</ele>
        <time>2016-11-26T11:02:49Z</time>
      </trkpt>
      <trkpt lat="46.05423" lon="4.69902">
        <ele>199</ele>
        <time>2016-11-26T11:02:50Z</time>
      </trkpt>
      <trkpt lat="46.05417" lon="4.69903">
        <ele>199</ele>
        <time>2016-11-26T11:02:51Z</time>
      </trkpt>
      <trkpt lat="46.05411" lon="4.69903">
        <ele>199</ele>
        <time>2016-11-26T11:02:52Z</time>
      </trkpt>
      <trkpt lat="46.05405" lon="4.69903">
        <ele>199</ele>
        <time>2016-11-26T11:02:53Z</time>
      </trkpt>
      <trkpt lat="46.05399" lon="4.69903">
        <ele>199</ele>
        <time>2016-11-26T11:02:54Z</time>
      </trkpt>
      <trkpt lat="46.05393" lon="4.69902">
        <ele>199</ele>
        <time>2016-11-26T11:02:55Z</time>
      </trkpt>
      <trkpt lat="46.05388" lon="4.699">
        <ele>199</ele>
        <time>2016-11-26T11:02:56Z</time>
      </trkpt>
      <trkpt lat="46.05382" lon="4.69898">
        <ele>199</ele>
        <time>2016-11-26T11:02:57Z</time>
      </trkpt>
      <trkpt lat="46.05377" lon="4.69897">
        <ele>199</ele>
        <time>2016-11-26T11:02:58Z</time>
      </trkpt>
      <trkpt lat="46.05372" lon="4.69896">
        <ele>199</ele>
        <time>2016-11-26T11:02:59Z</time>
      </trkpt>
      <trkpt lat="46.05368" lon="4.69893">
        <ele>199</ele>
        <time>2016-11-26T11:03:00Z</time>
      </trkpt>
      <trkpt lat="46.05363" lon="4.69891">
        <ele>199</ele>
        <time>2016-11-26T11:03:01Z</time>
      </trkpt>
      <trkpt lat="46.05358" lon="4.69889">
        <ele>199</ele>
        <time>2016-11-26T11:03:02Z</time>
      </trkpt>
      <trkpt lat="46.05353" lon="4.69887">
        <ele>199</ele>
        <time>2016-11-26T11:03:03Z</time>
      </trkpt>
      <trkpt lat="46.05348" lon="4.69885">
        <ele>199</ele>
        <time>2016-11-26T11:03:04Z</time>
      </trkpt>
      <trkpt lat="46.05343" lon="4.69883">
        <ele>199</ele>
        <time>2016-11-26T11:03:05Z</time>
      </trkpt>
      <trkpt lat="46.05337" lon="4.69882">
        <ele>199</ele>
        <time>2016-11-26T11:03:06Z</time>
      </trkpt>
      <trkpt lat="46.05332" lon="4.69881">
        <ele>199</ele>
        <time>2016-11-26T11:03:07Z</time>
      </trkpt>
      <trkpt lat="46.05327" lon="4.6988">
        <ele>199</ele>
        <time>2016-11-26T11:03:08Z</time>
      </trkpt>
      <trkpt lat="46.05321" lon="4.69879">
        <ele>199</ele>
        <time>2016-11-26T11:03:09Z</time>
      </trkpt>
      <trkpt lat="46.05315" lon="4.69878">
        <ele>199</ele>
        <time>2016-11-26T11:03:10Z</time>
      </trkpt>
      <trkpt lat="46.05309" lon="4.69876">
        <ele>199</ele>
        <time>2016-11-26T11:03:11Z</time>
      </trkpt>
      <trkpt lat="46.05303" lon="4.69875">
        <ele>199</ele>
        <time>2016-11-26T11:03:12Z</time>
      </trkpt>
      <trkpt lat="46.05297" lon="4.69874">
        <ele>199</ele>
        <time>2016-11-26T11:03:13Z</time>
      </trkpt>
      <trkpt lat="46.05292" lon="4.69873">
        <ele>199</ele>
        <time>2016-11-26T11:03:14Z</time>
      </trkpt>
      <trkpt lat="46.05286" lon="4.69872">
        <ele>199</ele>
        <time>2016-11-26T11:03:15Z</time>
      </trkpt>
      <trkpt lat="46.05281" lon="4.69871">
        <ele>199</ele>
        <time>2016-11-26T11:03:16Z</time>
      </trkpt>
      <trkpt lat="46.05277" lon="4.6987">
        <ele>199</ele>
        <time>2016-11-26T11:03:17Z</time>
      </trkpt>
      <trkpt lat="46.05272" lon="4.69868">
        <ele>199</ele>
        <time>2016-11-26T11:03:18Z</time>
      </trkpt>
      <trkpt lat="46.05267" lon="4.69866">
        <ele>199</ele>
        <time>2016-11-26T11:03:19Z</time>
      </trkpt>
      <trkpt lat="46.05259" lon="4.69863">
        <ele>199</ele>
        <time>2016-11-26T11:03:21Z</time>
      </trkpt>
      <trkpt lat="46.05254" lon="4.69861">
        <ele>199</ele>
        <time>2016-11-26T11:03:22Z</time>
      </trkpt>
      <trkpt lat="46.05246" lon="4.69859">
        <ele>201</ele>
        <time>2016-11-26T11:03:24Z</time>
      </trkpt>
      <trkpt lat="46.05241" lon="4.69858">
        <ele>201</ele>
        <time>2016-11-26T11:03:25Z</time>
      </trkpt>
      <trkpt lat="46.05236" lon="4.69857">
        <ele>201</ele>
        <time>2016-11-26T11:03:26Z</time>
      </trkpt>
      <trkpt lat="46.05232" lon="4.69855">
        <ele>201</ele>
        <time>2016-11-26T11:03:27Z</time>
      </trkpt>
      <trkpt lat="46.05227" lon="4.69854">
        <ele>201</ele>
        <time>2016-11-26T11:03:28Z</time>
      </trkpt>
      <trkpt lat="46.05222" lon="4.69852">
        <ele>201</ele>
        <time>2016-11-26T11:03:29Z</time>
      </trkpt>
      <trkpt lat="46.05217" lon="4.6985">
        <ele>201</ele>
        <time>2016-11-26T11:03:30Z</time>
      </trkpt>
      <trkpt lat="46.05212" lon="4.69849">
        <ele>201</ele>
        <time>2016-11-26T11:03:31Z</time>
      </trkpt>
      <trkpt lat="46.05206" lon="4.69847">
        <ele>201</ele>
        <time>2016-11-26T11:03:32Z</time>
      </trkpt>
      <trkpt lat="46.05201" lon="4.69845">
        <ele>201</ele>
        <time>2016-11-26T11:03:33Z</time>
      </trkpt>
      <trkpt lat="46.05196" lon="4.69843">
        <ele>201</ele>
        <time>2016-11-26T11:03:34Z</time>
      </trkpt>
      <trkpt lat="46.05192" lon="4.69842">
        <ele>202</ele>
        <time>2016-11-26T11:03:35Z</time>
      </trkpt>
      <trkpt lat="46.05183" lon="4.6984">
        <ele>202</ele>
        <time>2016-11-26T11:03:37Z</time>
      </trkpt>
      <trkpt lat="46.05179" lon="4.69838">
        <ele>202</ele>
        <time>2016-11-26T11:03:38Z</time>
      </trkpt>
      <trkpt lat="46.05172" lon="4.69836">
        <ele>203</ele>
        <time>2016-11-26T11:03:40Z</time>
      </trkpt>
      <trkpt lat="46.05168" lon="4.69836">
        <ele>203</ele>
        <time>2016-11-26T11:03:41Z</time>
      </trkpt>
      <trkpt lat="46.05161" lon="4.69833">
        <ele>203</ele>
        <time>2016-11-26T11:03:43Z</time>
      </trkpt>
      <trkpt lat="46.05157" lon="4.69832">
        <ele>203</ele>
        <time>2016-11-26T11:03:44Z</time>
      </trkpt>
      <trkpt lat="46.0515" lon="4.69828">
        <ele>204</ele>
        <time>2016-11-26T11:03:46Z</time>
      </trkpt>
      <trkpt lat="46.05146" lon="4.69827">
        <ele>204</ele>
        <time>2016-11-26T11:03:47Z</time>
      </trkpt>
      <trkpt lat="46.05139" lon="4.69824">
        <ele>204</ele>
        <time>2016-11-26T11:03:49Z</time>
      </trkpt>
      <trkpt lat="46.05136" lon="4.69823">
        <ele>204</ele>
        <time>2016-11-26T11:03:50Z</time>
      </trkpt>
      <trkpt lat="46.05129" lon="4.69825">
        <ele>204</ele>
        <time>2016-11-26T11:03:52Z</time>
      </trkpt>
      <trkpt lat="46.05126" lon="4.69828">
        <ele>204</ele>
        <time>2016-11-26T11:03:53Z</time>
      </trkpt>
      <trkpt lat="46.05123" lon="4.69839">
        <ele>204</ele>
        <time>2016-11-26T11:03:55Z</time>
      </trkpt>
      <trkpt lat="46.05122" lon="4.69845">
        <ele>204</ele>
        <time>2016-11-26T11:03:56Z</time>
      </trkpt>
      <trkpt lat="46.05121" lon="4.69852">
        <ele>204</ele>
        <time>2016-11-26T11:03:57Z</time>
      </trkpt>
      <trkpt lat="46.0512" lon="4.69859">
        <ele>204</ele>
        <time>2016-11-26T11:03:58Z</time>
      </trkpt>
      <trkpt lat="46.0512" lon="4.69865">
        <ele>204</ele>
        <time>2016-11-26T11:03:59Z</time>
      </trkpt>
      <trkpt lat="46.05119" lon="4.69872">
        <ele>204</ele>
        <time>2016-11-26T11:04:00Z</time>
      </trkpt>
      <trkpt lat="46.05117" lon="4.69879">
        <ele>204</ele>
        <time>2016-11-26T11:04:01Z</time>
      </trkpt>
      <trkpt lat="46.05116" lon="4.69886">
        <ele>204</ele>
        <time>2016-11-26T11:04:02Z</time>
      </trkpt>
      <trkpt lat="46.05115" lon="4.69893">
        <ele>204</ele>
        <time>2016-11-26T11:04:03Z</time>
      </trkpt>
      <trkpt lat="46.05113" lon="4.69901">
        <ele>204</ele>
        <time>2016-11-26T11:04:04Z</time>
      </trkpt>
      <trkpt lat="46.05112" lon="4.69908">
        <ele>204</ele>
        <time>2016-11-26T11:04:05Z</time>
      </trkpt>
      <trkpt lat="46.05111" lon="4.69916">
        <ele>204</ele>
        <time>2016-11-26T11:04:06Z</time>
      </trkpt>
      <trkpt lat="46.0511" lon="4.69923">
        <ele>203</ele>
        <time>2016-11-26T11:04:07Z</time>
      </trkpt>
      <trkpt lat="46.05109" lon="4.69931">
        <ele>203</ele>
        <time>2016-11-26T11:04:08Z</time>
      </trkpt>
      <trkpt lat="46.05108" lon="4.69938">
        <ele>203</ele>
        <time>2016-11-26T11:04:09Z</time>
      </trkpt>
      <trkpt lat="46.05107" lon="4.69945">
        <ele>203</ele>
        <time>2016-11-26T11:04:10Z</time>
      </trkpt>
      <trkpt lat="46.05105" lon="4.69952">
        <ele>203</ele>
        <time>2016-11-26T11:04:11Z</time>
      </trkpt>
      <trkpt lat="46.05104" lon="4.69958">
        <ele>203</ele>
        <time>2016-11-26T11:04:12Z</time>
      </trkpt>
      <trkpt lat="46.05102" lon="4.69965">
        <ele>203</ele>
        <time>2016-11-26T11:04:13Z</time>
      </trkpt>
      <trkpt lat="46.05101" lon="4.69972">
        <ele>203</ele>
        <time>2016-11-26T11:04:14Z</time>
      </trkpt>
      <trkpt lat="46.05099" lon="4.69978">
        <ele>203</ele>
        <time>2016-11-26T11:04:15Z</time>
      </trkpt>
      <trkpt lat="46.05098" lon="4.69985">
        <ele>204</ele>
        <time>2016-11-26T11:04:16Z</time>
      </trkpt>
      <trkpt lat="46.05097" lon="4.69992">
        <ele>204</ele>
        <time>2016-11-26T11:04:17Z</time>
      </trkpt>
      <trkpt lat="46.05096" lon="4.7">
        <ele>204</ele>
        <time>2016-11-26T11:04:18Z</time>
      </trkpt>
      <trkpt lat="46.05094" lon="4.70007">
        <ele>204</ele>
        <time>2016-11-26T11:04:19Z</time>
      </trkpt>
      <trkpt lat="46.05091" lon="4.70013">
        <ele>204</ele>
        <time>2016-11-26T11:04:20Z</time>
      </trkpt>
      <trkpt lat="46.05088" lon="4.70019">
        <ele>203</ele>
        <time>2016-11-26T11:04:21Z</time>
      </trkpt>
      <trkpt lat="46.05084" lon="4.70024">
        <ele>203</ele>
        <time>2016-11-26T11:04:22Z</time>
      </trkpt>
      <trkpt lat="46.0508" lon="4.7003">
        <ele>204</ele>
        <time>2016-11-26T11:04:23Z</time>
      </trkpt>
      <trkpt lat="46.05076" lon="4.70034">
        <ele>204</ele>
        <time>2016-11-26T11:04:24Z</time>
      </trkpt>
      <trkpt lat="46.05071" lon="4.70036">
        <ele>204</ele>
        <time>2016-11-26T11:04:25Z</time>
      </trkpt>
      <trkpt lat="46.05065" lon="4.70035">
        <ele>204</ele>
        <time>2016-11-26T11:04:26Z</time>
      </trkpt>
      <trkpt lat="46.0506" lon="4.70033">
        <ele>204</ele>
        <time>2016-11-26T11:04:27Z</time>
      </trkpt>
      <trkpt lat="46.05055" lon="4.70029">
        <ele>204</ele>
        <time>2016-11-26T11:04:28Z</time>
      </trkpt>
      <trkpt lat="46.0505" lon="4.70026">
        <ele>204</ele>
        <time>2016-11-26T11:04:29Z</time>
      </trkpt>
      <trkpt lat="46.05045" lon="4.70023">
        <ele>204</ele>
        <time>2016-11-26T11:04:30Z</time>
      </trkpt>
      <trkpt lat="46.0504" lon="4.7002">
        <ele>204</ele>
        <time>2016-11-26T11:04:31Z</time>
      </trkpt>
      <trkpt lat="46.05036" lon="4.70017">
        <ele>204</ele>
        <time>2016-11-26T11:04:32Z</time>
      </trkpt>
      <trkpt lat="46.05029" lon="4.7001">
        <ele>204</ele>
        <time>2016-11-26T11:04:34Z</time>
      </trkpt>
      <trkpt lat="46.05025" lon="4.70006">
        <ele>204</ele>
        <time>2016-11-26T11:04:35Z</time>
      </trkpt>
      <trkpt lat="46.05021" lon="4.70002">
        <ele>204</ele>
        <time>2016-11-26T11:04:36Z</time>
      </trkpt>
      <trkpt lat="46.05017" lon="4.69997">
        <ele>205</ele>
        <time>2016-11-26T11:04:37Z</time>
      </trkpt>
      <trkpt lat="46.05013" lon="4.69993">
        <ele>205</ele>
        <time>2016-11-26T11:04:38Z</time>
      </trkpt>
      <trkpt lat="46.05009" lon="4.69988">
        <ele>205</ele>
        <time>2016-11-26T11:04:39Z</time>
      </trkpt>
      <trkpt lat="46.05005" lon="4.69983">
        <ele>205</ele>
        <time>2016-11-26T11:04:40Z</time>
      </trkpt>
      <trkpt lat="46.05002" lon="4.69978">
        <ele>205</ele>
        <time>2016-11-26T11:04:41Z</time>
      </trkpt>
      <trkpt lat="46.04998" lon="4.69973">
        <ele>205</ele>
        <time>2016-11-26T11:04:42Z</time>
      </trkpt>
      <trkpt lat="46.04995" lon="4.69966">
        <ele>205</ele>
        <time>2016-11-26T11:04:43Z</time>
      </trkpt>
      <trkpt lat="46.04991" lon="4.69961">
        <ele>205</ele>
        <time>2016-11-26T11:04:44Z</time>
      </trkpt>
      <trkpt lat="46.04987" lon="4.69955">
        <ele>206</ele>
        <time>2016-11-26T11:04:45Z</time>
      </trkpt>
      <trkpt lat="46.04984" lon="4.6995">
        <ele>206</ele>
        <time>2016-11-26T11:04:46Z</time>
      </trkpt>
      <trkpt lat="46.04981" lon="4.69945">
        <ele>206</ele>
        <time>2016-11-26T11:04:47Z</time>
      </trkpt>
      <trkpt lat="46.04975" lon="4.69935">
        <ele>206</ele>
        <time>2016-11-26T11:04:49Z</time>
      </trkpt>
      <trkpt lat="46.04972" lon="4.69931">
        <ele>206</ele>
        <time>2016-11-26T11:04:50Z</time>
      </trkpt>
      <trkpt lat="46.04967" lon="4.69923">
        <ele>206</ele>
        <time>2016-11-26T11:04:52Z</time>
      </trkpt>
      <trkpt lat="46.04964" lon="4.69919">
        <ele>206</ele>
        <time>2016-11-26T11:04:53Z</time>
      </trkpt>
      <trkpt lat="46.04959" lon="4.6991">
        <ele>206</ele>
        <time>2016-11-26T11:04:55Z</time>
      </trkpt>
      <trkpt lat="46.04956" lon="4.69906">
        <ele>207</ele>
        <time>2016-11-26T11:04:56Z</time>
      </trkpt>
      <trkpt lat="46.0495" lon="4.69897">
        <ele>207</ele>
        <time>2016-11-26T11:04:58Z</time>
      </trkpt>
      <trkpt lat="46.04947" lon="4.69893">
        <ele>207</ele>
        <time>2016-11-26T11:04:59Z</time>
      </trkpt>
      <trkpt lat="46.0494" lon="4.69885">
        <ele>207</ele>
        <time>2016-11-26T11:05:01Z</time>
      </trkpt>
      <trkpt lat="46.04937" lon="4.69881">
        <ele>207</ele>
        <time>2016-11-26T11:05:02Z</time>
      </trkpt>
      <trkpt lat="46.04929" lon="4.69875">
        <ele>207</ele>
        <time>2016-11-26T11:05:04Z</time>
      </trkpt>
      <trkpt lat="46.04925" lon="4.69872">
        <ele>207</ele>
        <time>2016-11-26T11:05:05Z</time>
      </trkpt>
      <trkpt lat="46.04917" lon="4.69868">
        <ele>207</ele>
        <time>2016-11-26T11:05:07Z</time>
      </trkpt>
      <trkpt lat="46.04913" lon="4.69865">
        <ele>206</ele>
        <time>2016-11-26T11:05:08Z</time>
      </trkpt>
      <trkpt lat="46.04905" lon="4.69862">
        <ele>206</ele>
        <time>2016-11-26T11:05:10Z</time>
      </trkpt>
      <trkpt lat="46.04901" lon="4.6986">
        <ele>206</ele>
        <time>2016-11-26T11:05:11Z</time>
      </trkpt>
      <trkpt lat="46.04893" lon="4.69855">
        <ele>206</ele>
        <time>2016-11-26T11:05:13Z</time>
      </trkpt>
      <trkpt lat="46.04889" lon="4.69853">
        <ele>206</ele>
        <time>2016-11-26T11:05:14Z</time>
      </trkpt>
      <trkpt lat="46.04881" lon="4.69848">
        <ele>206</ele>
        <time>2016-11-26T11:05:16Z</time>
      </trkpt>
      <trkpt lat="46.04877" lon="4.69845">
        <ele>206</ele>
        <time>2016-11-26T11:05:17Z</time>
      </trkpt>
      <trkpt lat="46.04873" lon="4.69843">
        <ele>206</ele>
        <time>2016-11-26T11:05:18Z</time>
      </trkpt>
      <trkpt lat="46.04869" lon="4.6984">
        <ele>206</ele>
        <time>2016-11-26T11:05:19Z</time>
      </trkpt>
      <trkpt lat="46.04864" lon="4.69837">
        <ele>206</ele>
        <time>2016-11-26T11:05:20Z</time>
      </trkpt>
      <trkpt lat="46.0486" lon="4.69835">
        <ele>206</ele>
        <time>2016-11-26T11:05:21Z</time>
      </trkpt>
      <trkpt lat="46.04855" lon="4.69833">
        <ele>207</ele>
        <time>2016-11-26T11:05:22Z</time>
      </trkpt>
      <trkpt lat="46.04851" lon="4.69831">
        <ele>207</ele>
        <time>2016-11-26T11:05:23Z</time>
      </trkpt>
      <trkpt lat="46.04846" lon="4.69828">
        <ele>207</ele>
        <time>2016-11-26T11:05:24Z</time>
      </trkpt>
      <trkpt lat="46.04841" lon="4.69826">
        <ele>207</ele>
        <time>2016-11-26T11:05:25Z</time>
      </trkpt>
      <trkpt lat="46.04833" lon="4.69821">
        <ele>207</ele>
        <time>2016-11-26T11:05:27Z</time>
      </trkpt>
      <trkpt lat="46.04829" lon="4.69819">
        <ele>207</ele>
        <time>2016-11-26T11:05:28Z</time>
      </trkpt>
      <trkpt lat="46.04822" lon="4.69814">
        <ele>207</ele>
        <time>2016-11-26T11:05:30Z</time>
      </trkpt>
      <trkpt lat="46.04818" lon="4.69811">
        <ele>207</ele>
        <time>2016-11-26T11:05:31Z</time>
      </trkpt>
      <trkpt lat="46.0481" lon="4.69808">
        <ele>206</ele>
        <time>2016-11-26T11:05:33Z</time>
      </trkpt>
      <trkpt lat="46.04806" lon="4.69807">
        <ele>206</ele>
        <time>2016-11-26T11:05:34Z</time>
      </trkpt>
      <trkpt lat="46.04797" lon="4.69807">
        <ele>206</ele>
        <time>2016-11-26T11:05:37Z</time>
      </trkpt>
      <trkpt lat="46.04794" lon="4.6981">
        <ele>206</ele>
        <time>2016-11-26T11:05:38Z</time>
      </trkpt>
      <trkpt lat="46.0479" lon="4.6982">
        <ele>206</ele>
        <time>2016-11-26T11:05:40Z</time>
      </trkpt>
      <trkpt lat="46.04788" lon="4.69826">
        <ele>206</ele>
        <time>2016-11-26T11:05:41Z</time>
      </trkpt>
      <trkpt lat="46.04784" lon="4.6983">
        <ele>206</ele>
        <time>2016-11-26T11:05:42Z</time>
      </trkpt>
      <trkpt lat="46.0478" lon="4.69834">
        <ele>205</ele>
        <time>2016-11-26T11:05:43Z</time>
      </trkpt>
      <trkpt lat="46.04775" lon="4.69836">
        <ele>205</ele>
        <time>2016-11-26T11:05:44Z</time>
      </trkpt>
      <trkpt lat="46.04769" lon="4.69838">
        <ele>205</ele>
        <time>2016-11-26T11:05:45Z</time>
      </trkpt>
      <trkpt lat="46.04764" lon="4.69839">
        <ele>205</ele>
        <time>2016-11-26T11:05:46Z</time>
      </trkpt>
      <trkpt lat="46.04759" lon="4.69838">
        <ele>205</ele>
        <time>2016-11-26T11:05:47Z</time>
      </trkpt>
      <trkpt lat="46.04753" lon="4.69838">
        <ele>205</ele>
        <time>2016-11-26T11:05:48Z</time>
      </trkpt>
      <trkpt lat="46.04748" lon="4.69838">
        <ele>204</ele>
        <time>2016-11-26T11:05:49Z</time>
      </trkpt>
      <trkpt lat="46.04743" lon="4.69838">
        <ele>204</ele>
        <time>2016-11-26T11:05:50Z</time>
      </trkpt>
      <trkpt lat="46.04738" lon="4.69838">
        <ele>204</ele>
        <time>2016-11-26T11:05:51Z</time>
      </trkpt>
      <trkpt lat="46.04733" lon="4.69839">
        <ele>203</ele>
        <time>2016-11-26T11:05:52Z</time>
      </trkpt>
      <trkpt lat="46.04728" lon="4.69839">
        <ele>203</ele>
        <time>2016-11-26T11:05:53Z</time>
      </trkpt>
      <trkpt lat="46.04723" lon="4.6984">
        <ele>203</ele>
        <time>2016-11-26T11:05:54Z</time>
      </trkpt>
      <trkpt lat="46.04718" lon="4.6984">
        <ele>203</ele>
        <time>2016-11-26T11:05:55Z</time>
      </trkpt>
      <trkpt lat="46.04712" lon="4.69841">
        <ele>203</ele>
        <time>2016-11-26T11:05:56Z</time>
      </trkpt>
      <trkpt lat="46.04705" lon="4.69841">
        <ele>202</ele>
        <time>2016-11-26T11:05:57Z</time>
      </trkpt>
      <trkpt lat="46.04699" lon="4.6984">
        <ele>202</ele>
        <time>2016-11-26T11:05:58Z</time>
      </trkpt>
      <trkpt lat="46.04693" lon="4.69839">
        <ele>202</ele>
        <time>2016-11-26T11:05:59Z</time>
      </trkpt>
      <trkpt lat="46.04687" lon="4.69838">
        <ele>202</ele>
        <time>2016-11-26T11:06:00Z</time>
      </trkpt>
      <trkpt lat="46.04682" lon="4.69836">
        <ele>203</ele>
        <time>2016-11-26T11:06:01Z</time>
      </trkpt>
      <trkpt lat="46.04677" lon="4.69836">
        <ele>203</ele>
        <time>2016-11-26T11:06:02Z</time>
      </trkpt>
      <trkpt lat="46.04672" lon="4.69835">
        <ele>203</ele>
        <time>2016-11-26T11:06:03Z</time>
      </trkpt>
      <trkpt lat="46.04667" lon="4.69834">
        <ele>203</ele>
        <time>2016-11-26T11:06:04Z</time>
      </trkpt>
      <trkpt lat="46.04662" lon="4.69832">
        <ele>203</ele>
        <time>2016-11-26T11:06:05Z</time>
      </trkpt>
      <trkpt lat="46.04656" lon="4.69829">
        <ele>203</ele>
        <time>2016-11-26T11:06:06Z</time>
      </trkpt>
      <trkpt lat="46.04651" lon="4.69827">
        <ele>202</ele>
        <time>2016-11-26T11:06:07Z</time>
      </trkpt>
      <trkpt lat="46.04646" lon="4.69826">
        <ele>202</ele>
        <time>2016-11-26T11:06:08Z</time>
      </trkpt>
      <trkpt lat="46.04641" lon="4.69824">
        <ele>202</ele>
        <time>2016-11-26T11:06:09Z</time>
      </trkpt>
      <trkpt lat="46.04637" lon="4.69822">
        <ele>202</ele>
        <time>2016-11-26T11:06:10Z</time>
      </trkpt>
      <trkpt lat="46.04632" lon="4.6982">
        <ele>202</ele>
        <time>2016-11-26T11:06:11Z</time>
      </trkpt>
      <trkpt lat="46.04626" lon="4.69818">
        <ele>202</ele>
        <time>2016-11-26T11:06:12Z</time>
      </trkpt>
      <trkpt lat="46.04621" lon="4.69815">
        <ele>202</ele>
        <time>2016-11-26T11:06:13Z</time>
      </trkpt>
      <trkpt lat="46.04615" lon="4.69813">
        <ele>201</ele>
        <time>2016-11-26T11:06:14Z</time>
      </trkpt>
      <trkpt lat="46.04609" lon="4.69811">
        <ele>201</ele>
        <time>2016-11-26T11:06:15Z</time>
      </trkpt>
      <trkpt lat="46.04602" lon="4.69808">
        <ele>201</ele>
        <time>2016-11-26T11:06:16Z</time>
      </trkpt>
      <trkpt lat="46.04596" lon="4.69806">
        <ele>201</ele>
        <time>2016-11-26T11:06:17Z</time>
      </trkpt>
      <trkpt lat="46.0459" lon="4.69803">
        <ele>201</ele>
        <time>2016-11-26T11:06:18Z</time>
      </trkpt>
      <trkpt lat="46.04583" lon="4.69801">
        <ele>200</ele>
        <time>2016-11-26T11:06:19Z</time>
      </trkpt>
      <trkpt lat="46.04577" lon="4.69799">
        <ele>200</ele>
        <time>2016-11-26T11:06:20Z</time>
      </trkpt>
      <trkpt lat="46.04571" lon="4.69797">
        <ele>200</ele>
        <time>2016-11-26T11:06:21Z</time>
      </trkpt>
      <trkpt lat="46.04565" lon="4.69795">
        <ele>200</ele>
        <time>2016-11-26T11:06:22Z</time>
      </trkpt>
      <trkpt lat="46.04559" lon="4.69793">
        <ele>199</ele>
        <time>2016-11-26T11:06:23Z</time>
      </trkpt>
      <trkpt lat="46.04552" lon="4.69792">
        <ele>199</ele>
        <time>2016-11-26T11:06:24Z</time>
      </trkpt>
      <trkpt lat="46.04546" lon="4.69791">
        <ele>199</ele>
        <time>2016-11-26T11:06:25Z</time>
      </trkpt>
      <trkpt lat="46.04541" lon="4.6979">
        <ele>199</ele>
        <time>2016-11-26T11:06:26Z</time>
      </trkpt>
      <trkpt lat="46.04535" lon="4.69789">
        <ele>199</ele>
        <time>2016-11-26T11:06:27Z</time>
      </trkpt>
      <trkpt lat="46.04529" lon="4.69788">
        <ele>199</ele>
        <time>2016-11-26T11:06:28Z</time>
      </trkpt>
      <trkpt lat="46.04523" lon="4.69787">
        <ele>199</ele>
        <time>2016-11-26T11:06:29Z</time>
      </trkpt>
      <trkpt lat="46.04517" lon="4.69787">
        <ele>199</ele>
        <time>2016-11-26T11:06:30Z</time>
      </trkpt>
      <trkpt lat="46.0451" lon="4.69786">
        <ele>199</ele>
        <time>2016-11-26T11:06:31Z</time>
      </trkpt>
      <trkpt lat="46.04504" lon="4.69787">
        <ele>199</ele>
        <time>2016-11-26T11:06:32Z</time>
      </trkpt>
      <trkpt lat="46.04497" lon="4.69787">
        <ele>197</ele>
        <time>2016-11-26T11:06:33Z</time>
      </trkpt>
      <trkpt lat="46.04489" lon="4.69789">
        <ele>197</ele>
        <time>2016-11-26T11:06:34Z</time>
      </trkpt>
      <trkpt lat="46.04482" lon="4.69791">
        <ele>197</ele>
        <time>2016-11-26T11:06:35Z</time>
      </trkpt>
      <trkpt lat="46.04474" lon="4.69793">
        <ele>197</ele>
        <time>2016-11-26T11:06:36Z</time>
      </trkpt>
      <trkpt lat="46.04467" lon="4.69795">
        <ele>197</ele>
        <time>2016-11-26T11:06:37Z</time>
      </trkpt>
      <trkpt lat="46.04459" lon="4.69797">
        <ele>197</ele>
        <time>2016-11-26T11:06:38Z</time>
      </trkpt>
      <trkpt lat="46.04452" lon="4.69799">
        <ele>196</ele>
        <time>2016-11-26T11:06:39Z</time>
      </trkpt>
      <trkpt lat="46.04444" lon="4.698">
        <ele>196</ele>
        <time>2016-11-26T11:06:40Z</time>
      </trkpt>
      <trkpt lat="46.04436" lon="4.69802">
        <ele>196</ele>
        <time>2016-11-26T11:06:41Z</time>
      </trkpt>
      <trkpt lat="46.04429" lon="4.69804">
        <ele>196</ele>
        <time>2016-11-26T11:06:42Z</time>
      </trkpt>
      <trkpt lat="46.04421" lon="4.69806">
        <ele>196</ele>
        <time>2016-11-26T11:06:43Z</time>
      </trkpt>
      <trkpt lat="46.04414" lon="4.69807">
        <ele>194</ele>
        <time>2016-11-26T11:06:44Z</time>
      </trkpt>
      <trkpt lat="46.04407" lon="4.6981">
        <ele>194</ele>
        <time>2016-11-26T11:06:45Z</time>
      </trkpt>
      <trkpt lat="46.04399" lon="4.69812">
        <ele>194</ele>
        <time>2016-11-26T11:06:46Z</time>
      </trkpt>
      <trkpt lat="46.04392" lon="4.69814">
        <ele>194</ele>
        <time>2016-11-26T11:06:47Z</time>
      </trkpt>
      <trkpt lat="46.04384" lon="4.69817">
        <ele>194</ele>
        <time>2016-11-26T11:06:48Z</time>
      </trkpt>
      <trkpt lat="46.04377" lon="4.69821">
        <ele>194</ele>
        <time>2016-11-26T11:06:49Z</time>
      </trkpt>
      <trkpt lat="46.04369" lon="4.69825">
        <ele>194</ele>
        <time>2016-11-26T11:06:50Z</time>
      </trkpt>
      <trkpt lat="46.04362" lon="4.69829">
        <ele>193</ele>
        <time>2016-11-26T11:06:51Z</time>
      </trkpt>
      <trkpt lat="46.04354" lon="4.69833">
        <ele>193</ele>
        <time>2016-11-26T11:06:52Z</time>
      </trkpt>
      <trkpt lat="46.04347" lon="4.69838">
        <ele>192</ele>
        <time>2016-11-26T11:06:53Z</time>
      </trkpt>
      <trkpt lat="46.0434" lon="4.69844">
        <ele>192</ele>
        <time>2016-11-26T11:06:54Z</time>
      </trkpt>
      <trkpt lat="46.04334" lon="4.69851">
        <ele>192</ele>
        <time>2016-11-26T11:06:55Z</time>
      </trkpt>
      <trkpt lat="46.04329" lon="4.6986">
        <ele>191</ele>
        <time>2016-11-26T11:06:56Z</time>
      </trkpt>
      <trkpt lat="46.04324" lon="4.69869">
        <ele>191</ele>
        <time>2016-11-26T11:06:57Z</time>
      </trkpt>
      <trkpt lat="46.04319" lon="4.69879">
        <ele>190</ele>
        <time>2016-11-26T11:06:58Z</time>
      </trkpt>
      <trkpt lat="46.04314" lon="4.69888">
        <ele>190</ele>
        <time>2016-11-26T11:06:59Z</time>
      </trkpt>
      <trkpt lat="46.04309" lon="4.69897">
        <ele>190</ele>
        <time>2016-11-26T11:07:00Z</time>
      </trkpt>
      <trkpt lat="46.04303" lon="4.69905">
        <ele>190</ele>
        <time>2016-11-26T11:07:01Z</time>
      </trkpt>
      <trkpt lat="46.04297" lon="4.69912">
        <ele>190</ele>
        <time>2016-11-26T11:07:02Z</time>
      </trkpt>
      <trkpt lat="46.04291" lon="4.69919">
        <ele>189</ele>
        <time>2016-11-26T11:07:03Z</time>
      </trkpt>
      <trkpt lat="46.04285" lon="4.69925">
        <ele>189</ele>
        <time>2016-11-26T11:07:04Z</time>
      </trkpt>
      <trkpt lat="46.04278" lon="4.69931">
        <ele>189</ele>
        <time>2016-11-26T11:07:05Z</time>
      </trkpt>
      <trkpt lat="46.04272" lon="4.69937">
        <ele>189</ele>
        <time>2016-11-26T11:07:06Z</time>
      </trkpt>
      <trkpt lat="46.04266" lon="4.69943">
        <ele>188</ele>
        <time>2016-11-26T11:07:07Z</time>
      </trkpt>
      <trkpt lat="46.04261" lon="4.6995">
        <ele>188</ele>
        <time>2016-11-26T11:07:08Z</time>
      </trkpt>
      <trkpt lat="46.04255" lon="4.69956">
        <ele>188</ele>
        <time>2016-11-26T11:07:09Z</time>
      </trkpt>
      <trkpt lat="46.04249" lon="4.69961">
        <ele>188</ele>
        <time>2016-11-26T11:07:10Z</time>
      </trkpt>
      <trkpt lat="46.04244" lon="4.69967">
        <ele>188</ele>
        <time>2016-11-26T11:07:11Z</time>
      </trkpt>
      <trkpt lat="46.04238" lon="4.69971">
        <ele>188</ele>
        <time>2016-11-26T11:07:12Z</time>
      </trkpt>
      <trkpt lat="46.04233" lon="4.69976">
        <ele>188</ele>
        <time>2016-11-26T11:07:13Z</time>
      </trkpt>
      <trkpt lat="46.04227" lon="4.69982">
        <ele>188</ele>
        <time>2016-11-26T11:07:14Z</time>
      </trkpt>
      <trkpt lat="46.04222" lon="4.69987">
        <ele>188</ele>
        <time>2016-11-26T11:07:15Z</time>
      </trkpt>
      <trkpt lat="46.04217" lon="4.69992">
        <ele>188</ele>
        <time>2016-11-26T11:07:16Z</time>
      </trkpt>
      <trkpt lat="46.04212" lon="4.69998">
        <ele>188</ele>
        <time>2016-11-26T11:07:17Z</time>
      </trkpt>
      <trkpt lat="46.04207" lon="4.70003">
        <ele>188</ele>
        <time>2016-11-26T11:07:18Z</time>
      </trkpt>
      <trkpt lat="46.04201" lon="4.70007">
        <ele>188</ele>
        <time>2016-11-26T11:07:19Z</time>
      </trkpt>
      <trkpt lat="46.04195" lon="4.70012">
        <ele>188</ele>
        <time>2016-11-26T11:07:20Z</time>
      </trkpt>
      <trkpt lat="46.04189" lon="4.70017">
        <ele>188</ele>
        <time>2016-11-26T11:07:21Z</time>
      </trkpt>
      <trkpt lat="46.04183" lon="4.70022">
        <ele>189</ele>
        <time>2016-11-26T11:07:22Z</time>
      </trkpt>
      <trkpt lat="46.04177" lon="4.70026">
        <ele>189</ele>
        <time>2016-11-26T11:07:23Z</time>
      </trkpt>
      <trkpt lat="46.04171" lon="4.7003">
        <ele>189</ele>
        <time>2016-11-26T11:07:24Z</time>
      </trkpt>
      <trkpt lat="46.04165" lon="4.70034">
        <ele>191</ele>
        <time>2016-11-26T11:07:25Z</time>
      </trkpt>
      <trkpt lat="46.04159" lon="4.70038">
        <ele>191</ele>
        <time>2016-11-26T11:07:26Z</time>
      </trkpt>
      <trkpt lat="46.04152" lon="4.70041">
        <ele>191</ele>
        <time>2016-11-26T11:07:27Z</time>
      </trkpt>
      <trkpt lat="46.04146" lon="4.70044">
        <ele>191</ele>
        <time>2016-11-26T11:07:28Z</time>
      </trkpt>
      <trkpt lat="46.0414" lon="4.70049">
        <ele>192</ele>
        <time>2016-11-26T11:07:29Z</time>
      </trkpt>
      <trkpt lat="46.04135" lon="4.70052">
        <ele>192</ele>
        <time>2016-11-26T11:07:30Z</time>
      </trkpt>
      <trkpt lat="46.04129" lon="4.70057">
        <ele>192</ele>
        <time>2016-11-26T11:07:31Z</time>
      </trkpt>
      <trkpt lat="46.04123" lon="4.70061">
        <ele>192</ele>
        <time>2016-11-26T11:07:32Z</time>
      </trkpt>
      <trkpt lat="46.04117" lon="4.70064">
        <ele>192</ele>
        <time>2016-11-26T11:07:33Z</time>
      </trkpt>
      <trkpt lat="46.04111" lon="4.70067">
        <ele>192</ele>
        <time>2016-11-26T11:07:34Z</time>
      </trkpt>
      <trkpt lat="46.04106" lon="4.7007">
        <ele>193</ele>
        <time>2016-11-26T11:07:35Z</time>
      </trkpt>
      <trkpt lat="46.04101" lon="4.70074">
        <ele>193</ele>
        <time>2016-11-26T11:07:36Z</time>
      </trkpt>
      <trkpt lat="46.04096" lon="4.70076">
        <ele>193</ele>
        <time>2016-11-26T11:07:37Z</time>
      </trkpt>
      <trkpt lat="46.0409" lon="4.70078">
        <ele>193</ele>
        <time>2016-11-26T11:07:38Z</time>
      </trkpt>
      <trkpt lat="46.04084" lon="4.70078">
        <ele>194</ele>
        <time>2016-11-26T11:07:39Z</time>
      </trkpt>
      <trkpt lat="46.04078" lon="4.70079">
        <ele>194</ele>
        <time>2016-11-26T11:07:40Z</time>
      </trkpt>
      <trkpt lat="46.04072" lon="4.70078">
        <ele>194</ele>
        <time>2016-11-26T11:07:41Z</time>
      </trkpt>
      <trkpt lat="46.04067" lon="4.70078">
        <ele>194</ele>
        <time>2016-11-26T11:07:42Z</time>
      </trkpt>
      <trkpt lat="46.04062" lon="4.70078">
        <ele>194</ele>
        <time>2016-11-26T11:07:43Z</time>
      </trkpt>
      <trkpt lat="46.04057" lon="4.70077">
        <ele>194</ele>
        <time>2016-11-26T11:07:44Z</time>
      </trkpt>
      <trkpt lat="46.04051" lon="4.70078">
        <ele>194</ele>
        <time>2016-11-26T11:07:45Z</time>
      </trkpt>
      <trkpt lat="46.04047" lon="4.70078">
        <ele>194</ele>
        <time>2016-11-26T11:07:46Z</time>
      </trkpt>
      <trkpt lat="46.04042" lon="4.70078">
        <ele>195</ele>
        <time>2016-11-26T11:07:47Z</time>
      </trkpt>
      <trkpt lat="46.04036" lon="4.70078">
        <ele>195</ele>
        <time>2016-11-26T11:07:48Z</time>
      </trkpt>
      <trkpt lat="46.04031" lon="4.70079">
        <ele>195</ele>
        <time>2016-11-26T11:07:49Z</time>
      </trkpt>
      <trkpt lat="46.04025" lon="4.70078">
        <ele>195</ele>
        <time>2016-11-26T11:07:50Z</time>
      </trkpt>
      <trkpt lat="46.0402" lon="4.70079">
        <ele>195</ele>
        <time>2016-11-26T11:07:51Z</time>
      </trkpt>
      <trkpt lat="46.04014" lon="4.70079">
        <ele>195</ele>
        <time>2016-11-26T11:07:52Z</time>
      </trkpt>
      <trkpt lat="46.04008" lon="4.7008">
        <ele>195</ele>
        <time>2016-11-26T11:07:53Z</time>
      </trkpt>
      <trkpt lat="46.04002" lon="4.70081">
        <ele>196</ele>
        <time>2016-11-26T11:07:54Z</time>
      </trkpt>
      <trkpt lat="46.03995" lon="4.70082">
        <ele>196</ele>
        <time>2016-11-26T11:07:55Z</time>
      </trkpt>
      <trkpt lat="46.03989" lon="4.70082">
        <ele>195</ele>
        <time>2016-11-26T11:07:56Z</time>
      </trkpt>
      <trkpt lat="46.03984" lon="4.70083">
        <ele>195</ele>
        <time>2016-11-26T11:07:57Z</time>
      </trkpt>
      <trkpt lat="46.03978" lon="4.70085">
        <ele>196</ele>
        <time>2016-11-26T11:07:58Z</time>
      </trkpt>
      <trkpt lat="46.03973" lon="4.70087">
        <ele>196</ele>
        <time>2016-11-26T11:07:59Z</time>
      </trkpt>
      <trkpt lat="46.03967" lon="4.7009">
        <ele>196</ele>
        <time>2016-11-26T11:08:00Z</time>
      </trkpt>
      <trkpt lat="46.03962" lon="4.70093">
        <ele>196</ele>
        <time>2016-11-26T11:08:01Z</time>
      </trkpt>
      <trkpt lat="46.03957" lon="4.70096">
        <ele>196</ele>
        <time>2016-11-26T11:08:02Z</time>
      </trkpt>
      <trkpt lat="46.0395" lon="4.70098">
        <ele>196</ele>
        <time>2016-11-26T11:08:03Z</time>
      </trkpt>
      <trkpt lat="46.03945" lon="4.701">
        <ele>196</ele>
        <time>2016-11-26T11:08:04Z</time>
      </trkpt>
      <trkpt lat="46.03939" lon="4.70103">
        <ele>196</ele>
        <time>2016-11-26T11:08:05Z</time>
      </trkpt>
      <trkpt lat="46.03933" lon="4.70105">
        <ele>196</ele>
        <time>2016-11-26T11:08:06Z</time>
      </trkpt>
      <trkpt lat="46.03928" lon="4.70108">
        <ele>196</ele>
        <time>2016-11-26T11:08:07Z</time>
      </trkpt>
      <trkpt lat="46.03921" lon="4.7011">
        <ele>196</ele>
        <time>2016-11-26T11:08:08Z</time>
      </trkpt>
      <trkpt lat="46.03914" lon="4.70112">
        <ele>194</ele>
        <time>2016-11-26T11:08:09Z</time>
      </trkpt>
      <trkpt lat="46.03908" lon="4.70115">
        <ele>194</ele>
        <time>2016-11-26T11:08:10Z</time>
      </trkpt>
      <trkpt lat="46.03902" lon="4.70118">
        <ele>194</ele>
        <time>2016-11-26T11:08:11Z</time>
      </trkpt>
      <trkpt lat="46.03894" lon="4.7012">
        <ele>193</ele>
        <time>2016-11-26T11:08:12Z</time>
      </trkpt>
      <trkpt lat="46.03887" lon="4.70121">
        <ele>193</ele>
        <time>2016-11-26T11:08:13Z</time>
      </trkpt>
      <trkpt lat="46.0388" lon="4.70123">
        <ele>193</ele>
        <time>2016-11-26T11:08:14Z</time>
      </trkpt>
      <trkpt lat="46.03873" lon="4.70124">
        <ele>193</ele>
        <time>2016-11-26T11:08:15Z</time>
      </trkpt>
      <trkpt lat="46.03867" lon="4.70126">
        <ele>193</ele>
        <time>2016-11-26T11:08:16Z</time>
      </trkpt>
      <trkpt lat="46.0386" lon="4.70128">
        <ele>193</ele>
        <time>2016-11-26T11:08:17Z</time>
      </trkpt>
      <trkpt lat="46.03853" lon="4.70129">
        <ele>192</ele>
        <time>2016-11-26T11:08:18Z</time>
      </trkpt>
      <trkpt lat="46.03846" lon="4.70132">
        <ele>192</ele>
        <time>2016-11-26T11:08:19Z</time>
      </trkpt>
      <trkpt lat="46.0384" lon="4.70133">
        <ele>192</ele>
        <time>2016-11-26T11:08:20Z</time>
      </trkpt>
      <trkpt lat="46.03833" lon="4.70135">
        <ele>190</ele>
        <time>2016-11-26T11:08:21Z</time>
      </trkpt>
      <trkpt lat="46.03827" lon="4.70137">
        <ele>190</ele>
        <time>2016-11-26T11:08:22Z</time>
      </trkpt>
      <trkpt lat="46.03821" lon="4.7014">
        <ele>190</ele>
        <time>2016-11-26T11:08:23Z</time>
      </trkpt>
      <trkpt lat="46.03815" lon="4.70143">
        <ele>190</ele>
        <time>2016-11-26T11:08:24Z</time>
      </trkpt>
      <trkpt lat="46.03808" lon="4.70145">
        <ele>190</ele>
        <time>2016-11-26T11:08:25Z</time>
      </trkpt>
      <trkpt lat="46.03802" lon="4.70147">
        <ele>189</ele>
        <time>2016-11-26T11:08:26Z</time>
      </trkpt>
      <trkpt lat="46.03797" lon="4.70149">
        <ele>189</ele>
        <time>2016-11-26T11:08:27Z</time>
      </trkpt>
      <trkpt lat="46.03791" lon="4.70151">
        <ele>189</ele>
        <time>2016-11-26T11:08:28Z</time>
      </trkpt>
      <trkpt lat="46.03785" lon="4.70153">
        <ele>189</ele>
        <time>2016-11-26T11:08:29Z</time>
      </trkpt>
      <trkpt lat="46.03779" lon="4.70155">
        <ele>189</ele>
        <time>2016-11-26T11:08:30Z</time>
      </trkpt>
      <trkpt lat="46.03773" lon="4.70157">
        <ele>188</ele>
        <time>2016-11-26T11:08:31Z</time>
      </trkpt>
      <trkpt lat="46.03767" lon="4.70159">
        <ele>188</ele>
        <time>2016-11-26T11:08:32Z</time>
      </trkpt>
      <trkpt lat="46.03761" lon="4.7016">
        <ele>188</ele>
        <time>2016-11-26T11:08:33Z</time>
      </trkpt>
      <trkpt lat="46.03755" lon="4.70162">
        <ele>187</ele>
        <time>2016-11-26T11:08:34Z</time>
      </trkpt>
      <trkpt lat="46.03749" lon="4.70164">
        <ele>187</ele>
        <time>2016-11-26T11:08:35Z</time>
      </trkpt>
      <trkpt lat="46.03743" lon="4.70166">
        <ele>188</ele>
        <time>2016-11-26T11:08:36Z</time>
      </trkpt>
      <trkpt lat="46.03738" lon="4.70167">
        <ele>188</ele>
        <time>2016-11-26T11:08:37Z</time>
      </trkpt>
      <trkpt lat="46.03733" lon="4.70169">
        <ele>188</ele>
        <time>2016-11-26T11:08:38Z</time>
      </trkpt>
      <trkpt lat="46.03727" lon="4.70172">
        <ele>188</ele>
        <time>2016-11-26T11:08:39Z</time>
      </trkpt>
      <trkpt lat="46.03722" lon="4.70174">
        <ele>188</ele>
        <time>2016-11-26T11:08:40Z</time>
      </trkpt>
      <trkpt lat="46.03716" lon="4.70176">
        <ele>188</ele>
        <time>2016-11-26T11:08:41Z</time>
      </trkpt>
      <trkpt lat="46.0371" lon="4.70178">
        <ele>189</ele>
        <time>2016-11-26T11:08:42Z</time>
      </trkpt>
      <trkpt lat="46.03705" lon="4.7018">
        <ele>189</ele>
        <time>2016-11-26T11:08:43Z</time>
      </trkpt>
      <trkpt lat="46.037" lon="4.70182">
        <ele>189</ele>
        <time>2016-11-26T11:08:44Z</time>
      </trkpt>
      <trkpt lat="46.03695" lon="4.70184">
        <ele>189</ele>
        <time>2016-11-26T11:08:45Z</time>
      </trkpt>
      <trkpt lat="46.0369" lon="4.70186">
        <ele>189</ele>
        <time>2016-11-26T11:08:46Z</time>
      </trkpt>
      <trkpt lat="46.03685" lon="4.70188">
        <ele>189</ele>
        <time>2016-11-26T11:08:47Z</time>
      </trkpt>
      <trkpt lat="46.0368" lon="4.70191">
        <ele>189</ele>
        <time>2016-11-26T11:08:48Z</time>
      </trkpt>
      <trkpt lat="46.03676" lon="4.70193">
        <ele>189</ele>
        <time>2016-11-26T11:08:49Z</time>
      </trkpt>
      <trkpt lat="46.03671" lon="4.70195">
        <ele>189</ele>
        <time>2016-11-26T11:08:50Z</time>
      </trkpt>
      <trkpt lat="46.03666" lon="4.70197">
        <ele>191</ele>
        <time>2016-11-26T11:08:51Z</time>
      </trkpt>
      <trkpt lat="46.03662" lon="4.70199">
        <ele>191</ele>
        <time>2016-11-26T11:08:52Z</time>
      </trkpt>
      <trkpt lat="46.03657" lon="4.702">
        <ele>191</ele>
        <time>2016-11-26T11:08:53Z</time>
      </trkpt>
      <trkpt lat="46.03652" lon="4.70203">
        <ele>190</ele>
        <time>2016-11-26T11:08:54Z</time>
      </trkpt>
      <trkpt lat="46.03648" lon="4.70205">
        <ele>190</ele>
        <time>2016-11-26T11:08:55Z</time>
      </trkpt>
      <trkpt lat="46.0364" lon="4.70209">
        <ele>190</ele>
        <time>2016-11-26T11:08:57Z</time>
      </trkpt>
      <trkpt lat="46.03635" lon="4.70211">
        <ele>190</ele>
        <time>2016-11-26T11:08:58Z</time>
      </trkpt>
      <trkpt lat="46.0363" lon="4.70213">
        <ele>190</ele>
        <time>2016-11-26T11:08:59Z</time>
      </trkpt>
      <trkpt lat="46.03626" lon="4.70215">
        <ele>190</ele>
        <time>2016-11-26T11:09:00Z</time>
      </trkpt>
      <trkpt lat="46.03622" lon="4.70216">
        <ele>190</ele>
        <time>2016-11-26T11:09:01Z</time>
      </trkpt>
      <trkpt lat="46.03617" lon="4.70219">
        <ele>190</ele>
        <time>2016-11-26T11:09:02Z</time>
      </trkpt>
      <trkpt lat="46.03611" lon="4.70221">
        <ele>190</ele>
        <time>2016-11-26T11:09:03Z</time>
      </trkpt>
      <trkpt lat="46.03606" lon="4.70223">
        <ele>190</ele>
        <time>2016-11-26T11:09:04Z</time>
      </trkpt>
      <trkpt lat="46.03601" lon="4.70224">
        <ele>190</ele>
        <time>2016-11-26T11:09:05Z</time>
      </trkpt>
      <trkpt lat="46.03596" lon="4.70226">
        <ele>190</ele>
        <time>2016-11-26T11:09:06Z</time>
      </trkpt>
      <trkpt lat="46.03591" lon="4.70228">
        <ele>190</ele>
        <time>2016-11-26T11:09:07Z</time>
      </trkpt>
      <trkpt lat="46.03585" lon="4.7023">
        <ele>190</ele>
        <time>2016-11-26T11:09:08Z</time>
      </trkpt>
      <trkpt lat="46.0358" lon="4.70232">
        <ele>190</ele>
        <time>2016-11-26T11:09:09Z</time>
      </trkpt>
      <trkpt lat="46.03575" lon="4.70234">
        <ele>190</ele>
        <time>2016-11-26T11:09:10Z</time>
      </trkpt>
      <trkpt lat="46.03569" lon="4.70235">
        <ele>190</ele>
        <time>2016-11-26T11:09:11Z</time>
      </trkpt>
      <trkpt lat="46.03564" lon="4.70237">
        <ele>190</ele>
        <time>2016-11-26T11:09:12Z</time>
      </trkpt>
      <trkpt lat="46.0356" lon="4.70238">
        <ele>190</ele>
        <time>2016-11-26T11:09:13Z</time>
      </trkpt>
      <trkpt lat="46.03555" lon="4.7024">
        <ele>190</ele>
        <time>2016-11-26T11:09:14Z</time>
      </trkpt>
      <trkpt lat="46.0355" lon="4.70242">
        <ele>190</ele>
        <time>2016-11-26T11:09:15Z</time>
      </trkpt>
      <trkpt lat="46.03545" lon="4.70244">
        <ele>189</ele>
        <time>2016-11-26T11:09:16Z</time>
      </trkpt>
      <trkpt lat="46.03539" lon="4.70246">
        <ele>189</ele>
        <time>2016-11-26T11:09:17Z</time>
      </trkpt>
      <trkpt lat="46.03534" lon="4.70248">
        <ele>189</ele>
        <time>2016-11-26T11:09:18Z</time>
      </trkpt>
      <trkpt lat="46.03528" lon="4.7025">
        <ele>187</ele>
        <time>2016-11-26T11:09:19Z</time>
      </trkpt>
      <trkpt lat="46.03522" lon="4.70253">
        <ele>187</ele>
        <time>2016-11-26T11:09:20Z</time>
      </trkpt>
      <trkpt lat="46.03517" lon="4.70255">
        <ele>187</ele>
        <time>2016-11-26T11:09:21Z</time>
      </trkpt>
      <trkpt lat="46.03511" lon="4.70258">
        <ele>187</ele>
        <time>2016-11-26T11:09:22Z</time>
      </trkpt>
      <trkpt lat="46.03505" lon="4.7026">
        <ele>187</ele>
        <time>2016-11-26T11:09:23Z</time>
      </trkpt>
      <trkpt lat="46.03499" lon="4.70262">
        <ele>187</ele>
        <time>2016-11-26T11:09:24Z</time>
      </trkpt>
      <trkpt lat="46.03494" lon="4.70265">
        <ele>187</ele>
        <time>2016-11-26T11:09:25Z</time>
      </trkpt>
      <trkpt lat="46.03489" lon="4.70267">
        <ele>188</ele>
        <time>2016-11-26T11:09:26Z</time>
      </trkpt>
      <trkpt lat="46.03484" lon="4.7027">
        <ele>188</ele>
        <time>2016-11-26T11:09:27Z</time>
      </trkpt>
      <trkpt lat="46.03479" lon="4.70271">
        <ele>188</ele>
        <time>2016-11-26T11:09:28Z</time>
      </trkpt>
      <trkpt lat="46.03471" lon="4.70273">
        <ele>188</ele>
        <time>2016-11-26T11:09:30Z</time>
      </trkpt>
      <trkpt lat="46.03466" lon="4.70275">
        <ele>188</ele>
        <time>2016-11-26T11:09:31Z</time>
      </trkpt>
      <trkpt lat="46.03462" lon="4.70277">
        <ele>188</ele>
        <time>2016-11-26T11:09:32Z</time>
      </trkpt>
      <trkpt lat="46.03456" lon="4.7028">
        <ele>188</ele>
        <time>2016-11-26T11:09:33Z</time>
      </trkpt>
      <trkpt lat="46.03451" lon="4.70282">
        <ele>188</ele>
        <time>2016-11-26T11:09:34Z</time>
      </trkpt>
      <trkpt lat="46.03446" lon="4.70284">
        <ele>188</ele>
        <time>2016-11-26T11:09:35Z</time>
      </trkpt>
      <trkpt lat="46.03441" lon="4.70287">
        <ele>188</ele>
        <time>2016-11-26T11:09:36Z</time>
      </trkpt>
      <trkpt lat="46.03436" lon="4.70289">
        <ele>188</ele>
        <time>2016-11-26T11:09:37Z</time>
      </trkpt>
      <trkpt lat="46.03431" lon="4.70291">
        <ele>188</ele>
        <time>2016-11-26T11:09:38Z</time>
      </trkpt>
      <trkpt lat="46.03425" lon="4.70292">
        <ele>188</ele>
        <time>2016-11-26T11:09:39Z</time>
      </trkpt>
      <trkpt lat="46.0342" lon="4.70294">
        <ele>189</ele>
        <time>2016-11-26T11:09:40Z</time>
      </trkpt>
      <trkpt lat="46.03414" lon="4.70296">
        <ele>190</ele>
        <time>2016-11-26T11:09:41Z</time>
      </trkpt>
      <trkpt lat="46.0341" lon="4.70298">
        <ele>190</ele>
        <time>2016-11-26T11:09:42Z</time>
      </trkpt>
      <trkpt lat="46.03406" lon="4.703">
        <ele>190</ele>
        <time>2016-11-26T11:09:43Z</time>
      </trkpt>
      <trkpt lat="46.03398" lon="4.70303">
        <ele>190</ele>
        <time>2016-11-26T11:09:45Z</time>
      </trkpt>
      <trkpt lat="46.03394" lon="4.70305">
        <ele>191</ele>
        <time>2016-11-26T11:09:46Z</time>
      </trkpt>
      <trkpt lat="46.0339" lon="4.70306">
        <ele>191</ele>
        <time>2016-11-26T11:09:47Z</time>
      </trkpt>
      <trkpt lat="46.03385" lon="4.70307">
        <ele>191</ele>
        <time>2016-11-26T11:09:48Z</time>
      </trkpt>
      <trkpt lat="46.0338" lon="4.70308">
        <ele>191</ele>
        <time>2016-11-26T11:09:49Z</time>
      </trkpt>
      <trkpt lat="46.03375" lon="4.7031">
        <ele>191</ele>
        <time>2016-11-26T11:09:50Z</time>
      </trkpt>
      <trkpt lat="46.03371" lon="4.70312">
        <ele>191</ele>
        <time>2016-11-26T11:09:51Z</time>
      </trkpt>
      <trkpt lat="46.03366" lon="4.70313">
        <ele>191</ele>
        <time>2016-11-26T11:09:52Z</time>
      </trkpt>
      <trkpt lat="46.03361" lon="4.70315">
        <ele>191</ele>
        <time>2016-11-26T11:09:53Z</time>
      </trkpt>
      <trkpt lat="46.03356" lon="4.70316">
        <ele>191</ele>
        <time>2016-11-26T11:09:54Z</time>
      </trkpt>
      <trkpt lat="46.03351" lon="4.70318">
        <ele>191</ele>
        <time>2016-11-26T11:09:55Z</time>
      </trkpt>
      <trkpt lat="46.03346" lon="4.7032">
        <ele>191</ele>
        <time>2016-11-26T11:09:56Z</time>
      </trkpt>
      <trkpt lat="46.03341" lon="4.70321">
        <ele>191</ele>
        <time>2016-11-26T11:09:57Z</time>
      </trkpt>
      <trkpt lat="46.03336" lon="4.70323">
        <ele>191</ele>
        <time>2016-11-26T11:09:58Z</time>
      </trkpt>
      <trkpt lat="46.03331" lon="4.70325">
        <ele>192</ele>
        <time>2016-11-26T11:09:59Z</time>
      </trkpt>
      <trkpt lat="46.03326" lon="4.70327">
        <ele>192</ele>
        <time>2016-11-26T11:10:00Z</time>
      </trkpt>
      <trkpt lat="46.03321" lon="4.70328">
        <ele>192</ele>
        <time>2016-11-26T11:10:01Z</time>
      </trkpt>
      <trkpt lat="46.03317" lon="4.70329">
        <ele>192</ele>
        <time>2016-11-26T11:10:02Z</time>
      </trkpt>
      <trkpt lat="46.03308" lon="4.70332">
        <ele>192</ele>
        <time>2016-11-26T11:10:04Z</time>
      </trkpt>
      <trkpt lat="46.03304" lon="4.70334">
        <ele>191</ele>
        <time>2016-11-26T11:10:05Z</time>
      </trkpt>
      <trkpt lat="46.03297" lon="4.70338">
        <ele>191</ele>
        <time>2016-11-26T11:10:07Z</time>
      </trkpt>
      <trkpt lat="46.03293" lon="4.70339">
        <ele>191</ele>
        <time>2016-11-26T11:10:08Z</time>
      </trkpt>
      <trkpt lat="46.03285" lon="4.70343">
        <ele>191</ele>
        <time>2016-11-26T11:10:10Z</time>
      </trkpt>
      <trkpt lat="46.03281" lon="4.70344">
        <ele>191</ele>
        <time>2016-11-26T11:10:11Z</time>
      </trkpt>
      <trkpt lat="46.03272" lon="4.70348">
        <ele>191</ele>
        <time>2016-11-26T11:10:13Z</time>
      </trkpt>
      <trkpt lat="46.03268" lon="4.7035">
        <ele>191</ele>
        <time>2016-11-26T11:10:14Z</time>
      </trkpt>
      <trkpt lat="46.0326" lon="4.70353">
        <ele>191</ele>
        <time>2016-11-26T11:10:16Z</time>
      </trkpt>
      <trkpt lat="46.03256" lon="4.70355">
        <ele>191</ele>
        <time>2016-11-26T11:10:17Z</time>
      </trkpt>
      <trkpt lat="46.03248" lon="4.7036">
        <ele>192</ele>
        <time>2016-11-26T11:10:19Z</time>
      </trkpt>
      <trkpt lat="46.03244" lon="4.70362">
        <ele>192</ele>
        <time>2016-11-26T11:10:20Z</time>
      </trkpt>
      <trkpt lat="46.03236" lon="4.70366">
        <ele>192</ele>
        <time>2016-11-26T11:10:22Z</time>
      </trkpt>
      <trkpt lat="46.03232" lon="4.70367">
        <ele>192</ele>
        <time>2016-11-26T11:10:23Z</time>
      </trkpt>
      <trkpt lat="46.03224" lon="4.7037">
        <ele>192</ele>
        <time>2016-11-26T11:10:25Z</time>
      </trkpt>
      <trkpt lat="46.03221" lon="4.70372">
        <ele>192</ele>
        <time>2016-11-26T11:10:26Z</time>
      </trkpt>
      <trkpt lat="46.03214" lon="4.70376">
        <ele>192</ele>
        <time>2016-11-26T11:10:28Z</time>
      </trkpt>
      <trkpt lat="46.0321" lon="4.70379">
        <ele>192</ele>
        <time>2016-11-26T11:10:29Z</time>
      </trkpt>
      <trkpt lat="46.03203" lon="4.70384">
        <ele>192</ele>
        <time>2016-11-26T11:10:31Z</time>
      </trkpt>
      <trkpt lat="46.03199" lon="4.70386">
        <ele>192</ele>
        <time>2016-11-26T11:10:32Z</time>
      </trkpt>
      <trkpt lat="46.03191" lon="4.7039">
        <ele>192</ele>
        <time>2016-11-26T11:10:34Z</time>
      </trkpt>
      <trkpt lat="46.03186" lon="4.70392">
        <ele>192</ele>
        <time>2016-11-26T11:10:35Z</time>
      </trkpt>
      <trkpt lat="46.03178" lon="4.70396">
        <ele>192</ele>
        <time>2016-11-26T11:10:37Z</time>
      </trkpt>
      <trkpt lat="46.03174" lon="4.70398">
        <ele>192</ele>
        <time>2016-11-26T11:10:38Z</time>
      </trkpt>
      <trkpt lat="46.0317" lon="4.704">
        <ele>192</ele>
        <time>2016-11-26T11:10:39Z</time>
      </trkpt>
      <trkpt lat="46.03165" lon="4.70402">
        <ele>192</ele>
        <time>2016-11-26T11:10:40Z</time>
      </trkpt>
      <trkpt lat="46.0316" lon="4.70403">
        <ele>192</ele>
        <time>2016-11-26T11:10:41Z</time>
      </trkpt>
      <trkpt lat="46.03156" lon="4.70405">
        <ele>192</ele>
        <time>2016-11-26T11:10:42Z</time>
      </trkpt>
      <trkpt lat="46.03151" lon="4.70408">
        <ele>192</ele>
        <time>2016-11-26T11:10:43Z</time>
      </trkpt>
      <trkpt lat="46.03147" lon="4.7041">
        <ele>192</ele>
        <time>2016-11-26T11:10:44Z</time>
      </trkpt>
      <trkpt lat="46.03143" lon="4.70413">
        <ele>192</ele>
        <time>2016-11-26T11:10:45Z</time>
      </trkpt>
      <trkpt lat="46.03138" lon="4.70416">
        <ele>192</ele>
        <time>2016-11-26T11:10:46Z</time>
      </trkpt>
      <trkpt lat="46.03134" lon="4.70418">
        <ele>192</ele>
        <time>2016-11-26T11:10:47Z</time>
      </trkpt>
      <trkpt lat="46.03129" lon="4.7042">
        <ele>192</ele>
        <time>2016-11-26T11:10:48Z</time>
      </trkpt>
      <trkpt lat="46.03124" lon="4.70422">
        <ele>192</ele>
        <time>2016-11-26T11:10:49Z</time>
      </trkpt>
      <trkpt lat="46.0312" lon="4.70424">
        <ele>192</ele>
        <time>2016-11-26T11:10:50Z</time>
      </trkpt>
      <trkpt lat="46.03115" lon="4.70426">
        <ele>192</ele>
        <time>2016-11-26T11:10:51Z</time>
      </trkpt>
      <trkpt lat="46.0311" lon="4.70428">
        <ele>192</ele>
        <time>2016-11-26T11:10:52Z</time>
      </trkpt>
      <trkpt lat="46.03105" lon="4.70431">
        <ele>192</ele>
        <time>2016-11-26T11:10:53Z</time>
      </trkpt>
      <trkpt lat="46.031" lon="4.70433">
        <ele>192</ele>
        <time>2016-11-26T11:10:54Z</time>
      </trkpt>
      <trkpt lat="46.03095" lon="4.70436">
        <ele>192</ele>
        <time>2016-11-26T11:10:55Z</time>
      </trkpt>
      <trkpt lat="46.0309" lon="4.70438">
        <ele>192</ele>
        <time>2016-11-26T11:10:56Z</time>
      </trkpt>
      <trkpt lat="46.03084" lon="4.7044">
        <ele>192</ele>
        <time>2016-11-26T11:10:57Z</time>
      </trkpt>
      <trkpt lat="46.03079" lon="4.70443">
        <ele>191</ele>
        <time>2016-11-26T11:10:58Z</time>
      </trkpt>
      <trkpt lat="46.03073" lon="4.70445">
        <ele>191</ele>
        <time>2016-11-26T11:10:59Z</time>
      </trkpt>
      <trkpt lat="46.03068" lon="4.70449">
        <ele>191</ele>
        <time>2016-11-26T11:11:00Z</time>
      </trkpt>
      <trkpt lat="46.03063" lon="4.70452">
        <ele>191</ele>
        <time>2016-11-26T11:11:01Z</time>
      </trkpt>
      <trkpt lat="46.03058" lon="4.70456">
        <ele>191</ele>
        <time>2016-11-26T11:11:02Z</time>
      </trkpt>
      <trkpt lat="46.03053" lon="4.7046">
        <ele>191</ele>
        <time>2016-11-26T11:11:03Z</time>
      </trkpt>
      <trkpt lat="46.03048" lon="4.70463">
        <ele>191</ele>
        <time>2016-11-26T11:11:04Z</time>
      </trkpt>
      <trkpt lat="46.03044" lon="4.70467">
        <ele>191</ele>
        <time>2016-11-26T11:11:05Z</time>
      </trkpt>
      <trkpt lat="46.03039" lon="4.70472">
        <ele>191</ele>
        <time>2016-11-26T11:11:06Z</time>
      </trkpt>
      <trkpt lat="46.03035" lon="4.70476">
        <ele>191</ele>
        <time>2016-11-26T11:11:07Z</time>
      </trkpt>
      <trkpt lat="46.03031" lon="4.70481">
        <ele>191</ele>
        <time>2016-11-26T11:11:08Z</time>
      </trkpt>
      <trkpt lat="46.03027" lon="4.70485">
        <ele>191</ele>
        <time>2016-11-26T11:11:09Z</time>
      </trkpt>
      <trkpt lat="46.03022" lon="4.70489">
        <ele>191</ele>
        <time>2016-11-26T11:11:10Z</time>
      </trkpt>
      <trkpt lat="46.03018" lon="4.70493">
        <ele>191</ele>
        <time>2016-11-26T11:11:11Z</time>
      </trkpt>
      <trkpt lat="46.03014" lon="4.70497">
        <ele>191</ele>
        <time>2016-11-26T11:11:12Z</time>
      </trkpt>
      <trkpt lat="46.03009" lon="4.70502">
        <ele>191</ele>
        <time>2016-11-26T11:11:13Z</time>
      </trkpt>
      <trkpt lat="46.03005" lon="4.70506">
        <ele>191</ele>
        <time>2016-11-26T11:11:14Z</time>
      </trkpt>
      <trkpt lat="46.03001" lon="4.70511">
        <ele>191</ele>
        <time>2016-11-26T11:11:15Z</time>
      </trkpt>
      <trkpt lat="46.02997" lon="4.70515">
        <ele>191</ele>
        <time>2016-11-26T11:11:16Z</time>
      </trkpt>
      <trkpt lat="46.02993" lon="4.70519">
        <ele>191</ele>
        <time>2016-11-26T11:11:17Z</time>
      </trkpt>
      <trkpt lat="46.02988" lon="4.70523">
        <ele>191</ele>
        <time>2016-11-26T11:11:18Z</time>
      </trkpt>
      <trkpt lat="46.02984" lon="4.70527">
        <ele>191</ele>
        <time>2016-11-26T11:11:19Z</time>
      </trkpt>
      <trkpt lat="46.02979" lon="4.70532">
        <ele>191</ele>
        <time>2016-11-26T11:11:20Z</time>
      </trkpt>
      <trkpt lat="46.02973" lon="4.70536">
        <ele>191</ele>
        <time>2016-11-26T11:11:21Z</time>
      </trkpt>
      <trkpt lat="46.02968" lon="4.70541">
        <ele>191</ele>
        <time>2016-11-26T11:11:22Z</time>
      </trkpt>
      <trkpt lat="46.02964" lon="4.70545">
        <ele>191</ele>
        <time>2016-11-26T11:11:23Z</time>
      </trkpt>
      <trkpt lat="46.02959" lon="4.7055">
        <ele>191</ele>
        <time>2016-11-26T11:11:24Z</time>
      </trkpt>
      <trkpt lat="46.02954" lon="4.70555">
        <ele>191</ele>
        <time>2016-11-26T11:11:25Z</time>
      </trkpt>
      <trkpt lat="46.02951" lon="4.70562">
        <ele>191</ele>
        <time>2016-11-26T11:11:26Z</time>
      </trkpt>
      <trkpt lat="46.02947" lon="4.70568">
        <ele>191</ele>
        <time>2016-11-26T11:11:27Z</time>
      </trkpt>
      <trkpt lat="46.02944" lon="4.70575">
        <ele>191</ele>
        <time>2016-11-26T11:11:28Z</time>
      </trkpt>
      <trkpt lat="46.02941" lon="4.70582">
        <ele>191</ele>
        <time>2016-11-26T11:11:29Z</time>
      </trkpt>
      <trkpt lat="46.02938" lon="4.70589">
        <ele>192</ele>
        <time>2016-11-26T11:11:30Z</time>
      </trkpt>
      <trkpt lat="46.02936" lon="4.70596">
        <ele>192</ele>
        <time>2016-11-26T11:11:31Z</time>
      </trkpt>
      <trkpt lat="46.02933" lon="4.70604">
        <ele>192</ele>
        <time>2016-11-26T11:11:32Z</time>
      </trkpt>
      <trkpt lat="46.02931" lon="4.70611">
        <ele>192</ele>
        <time>2016-11-26T11:11:33Z</time>
      </trkpt>
      <trkpt lat="46.02929" lon="4.70619">
        <ele>192</ele>
        <time>2016-11-26T11:11:34Z</time>
      </trkpt>
      <trkpt lat="46.02927" lon="4.70627">
        <ele>192</ele>
        <time>2016-11-26T11:11:35Z</time>
      </trkpt>
      <trkpt lat="46.02925" lon="4.70635">
        <ele>192</ele>
        <time>2016-11-26T11:11:36Z</time>
      </trkpt>
      <trkpt lat="46.02923" lon="4.70642">
        <ele>192</ele>
        <time>2016-11-26T11:11:37Z</time>
      </trkpt>
      <trkpt lat="46.0292" lon="4.70649">
        <ele>191</ele>
        <time>2016-11-26T11:11:38Z</time>
      </trkpt>
      <trkpt lat="46.02917" lon="4.70655">
        <ele>191</ele>
        <time>2016-11-26T11:11:39Z</time>
      </trkpt>
      <trkpt lat="46.02912" lon="4.70658">
        <ele>191</ele>
        <time>2016-11-26T11:11:40Z</time>
      </trkpt>
      <trkpt lat="46.02906" lon="4.7066">
        <ele>191</ele>
        <time>2016-11-26T11:11:41Z</time>
      </trkpt>
      <trkpt lat="46.02901" lon="4.70661">
        <ele>191</ele>
        <time>2016-11-26T11:11:42Z</time>
      </trkpt>
      <trkpt lat="46.02895" lon="4.70661">
        <ele>190</ele>
        <time>2016-11-26T11:11:43Z</time>
      </trkpt>
      <trkpt lat="46.0289" lon="4.7066">
        <ele>190</ele>
        <time>2016-11-26T11:11:44Z</time>
      </trkpt>
      <trkpt lat="46.02884" lon="4.7066">
        <ele>190</ele>
        <time>2016-11-26T11:11:45Z</time>
      </trkpt>
      <trkpt lat="46.02878" lon="4.7066">
        <ele>190</ele>
        <time>2016-11-26T11:11:46Z</time>
      </trkpt>
      <trkpt lat="46.02872" lon="4.7066">
        <ele>190</ele>
        <time>2016-11-26T11:11:47Z</time>
      </trkpt>
      <trkpt lat="46.02867" lon="4.70661">
        <ele>190</ele>
        <time>2016-11-26T11:11:48Z</time>
      </trkpt>
      <trkpt lat="46.02861" lon="4.70662">
        <ele>190</ele>
        <time>2016-11-26T11:11:49Z</time>
      </trkpt>
      <trkpt lat="46.02854" lon="4.70663">
        <ele>190</ele>
        <time>2016-11-26T11:11:50Z</time>
      </trkpt>
      <trkpt lat="46.02848" lon="4.70663">
        <ele>190</ele>
        <time>2016-11-26T11:11:51Z</time>
      </trkpt>
      <trkpt lat="46.02842" lon="4.70664">
        <ele>189</ele>
        <time>2016-11-26T11:11:52Z</time>
      </trkpt>
      <trkpt lat="46.02835" lon="4.70665">
        <ele>189</ele>
        <time>2016-11-26T11:11:53Z</time>
      </trkpt>
      <trkpt lat="46.02829" lon="4.70667">
        <ele>189</ele>
        <time>2016-11-26T11:11:54Z</time>
      </trkpt>
      <trkpt lat="46.02823" lon="4.70668">
        <ele>189</ele>
        <time>2016-11-26T11:11:55Z</time>
      </trkpt>
      <trkpt lat="46.02817" lon="4.70669">
        <ele>189</ele>
        <time>2016-11-26T11:11:56Z</time>
      </trkpt>
      <trkpt lat="46.02811" lon="4.7067">
        <ele>189</ele>
        <time>2016-11-26T11:11:57Z</time>
      </trkpt>
      <trkpt lat="46.02805" lon="4.7067">
        <ele>189</ele>
        <time>2016-11-26T11:11:58Z</time>
      </trkpt>
      <trkpt lat="46.02799" lon="4.70671">
        <ele>189</ele>
        <time>2016-11-26T11:11:59Z</time>
      </trkpt>
      <trkpt lat="46.02793" lon="4.70671">
        <ele>189</ele>
        <time>2016-11-26T11:12:00Z</time>
      </trkpt>
      <trkpt lat="46.02788" lon="4.70671">
        <ele>189</ele>
        <time>2016-11-26T11:12:01Z</time>
      </trkpt>
      <trkpt lat="46.02782" lon="4.70671">
        <ele>189</ele>
        <time>2016-11-26T11:12:02Z</time>
      </trkpt>
      <trkpt lat="46.02776" lon="4.7067">
        <ele>189</ele>
        <time>2016-11-26T11:12:03Z</time>
      </trkpt>
      <trkpt lat="46.0277" lon="4.7067">
        <ele>189</ele>
        <time>2016-11-26T11:12:04Z</time>
      </trkpt>
      <trkpt lat="46.02764" lon="4.70669">
        <ele>189</ele>
        <time>2016-11-26T11:12:05Z</time>
      </trkpt>
      <trkpt lat="46.02758" lon="4.70669">
        <ele>189</ele>
        <time>2016-11-26T11:12:06Z</time>
      </trkpt>
      <trkpt lat="46.02752" lon="4.70668">
        <ele>189</ele>
        <time>2016-11-26T11:12:07Z</time>
      </trkpt>
      <trkpt lat="46.02745" lon="4.70667">
        <ele>189</ele>
        <time>2016-11-26T11:12:08Z</time>
      </trkpt>
      <trkpt lat="46.02739" lon="4.70667">
        <ele>189</ele>
        <time>2016-11-26T11:12:09Z</time>
      </trkpt>
      <trkpt lat="46.02733" lon="4.70666">
        <ele>189</ele>
        <time>2016-11-26T11:12:10Z</time>
      </trkpt>
      <trkpt lat="46.02727" lon="4.70664">
        <ele>189</ele>
        <time>2016-11-26T11:12:11Z</time>
      </trkpt>
      <trkpt lat="46.02721" lon="4.70663">
        <ele>189</ele>
        <time>2016-11-26T11:12:12Z</time>
      </trkpt>
      <trkpt lat="46.02715" lon="4.70662">
        <ele>189</ele>
        <time>2016-11-26T11:12:13Z</time>
      </trkpt>
      <trkpt lat="46.02709" lon="4.70661">
        <ele>189</ele>
        <time>2016-11-26T11:12:14Z</time>
      </trkpt>
      <trkpt lat="46.02704" lon="4.70661">
        <ele>189</ele>
        <time>2016-11-26T11:12:15Z</time>
      </trkpt>
      <trkpt lat="46.02698" lon="4.7066">
        <ele>189</ele>
        <time>2016-11-26T11:12:16Z</time>
      </trkpt>
      <trkpt lat="46.02692" lon="4.70659">
        <ele>189</ele>
        <time>2016-11-26T11:12:17Z</time>
      </trkpt>
      <trkpt lat="46.02687" lon="4.70658">
        <ele>190</ele>
        <time>2016-11-26T11:12:18Z</time>
      </trkpt>
      <trkpt lat="46.02682" lon="4.70658">
        <ele>190</ele>
        <time>2016-11-26T11:12:19Z</time>
      </trkpt>
      <trkpt lat="46.02677" lon="4.70657">
        <ele>190</ele>
        <time>2016-11-26T11:12:20Z</time>
      </trkpt>
      <trkpt lat="46.02672" lon="4.70657">
        <ele>190</ele>
        <time>2016-11-26T11:12:21Z</time>
      </trkpt>
      <trkpt lat="46.02667" lon="4.70656">
        <ele>190</ele>
        <time>2016-11-26T11:12:22Z</time>
      </trkpt>
      <trkpt lat="46.02661" lon="4.70656">
        <ele>190</ele>
        <time>2016-11-26T11:12:23Z</time>
      </trkpt>
      <trkpt lat="46.02656" lon="4.70655">
        <ele>190</ele>
        <time>2016-11-26T11:12:24Z</time>
      </trkpt>
      <trkpt lat="46.0265" lon="4.70654">
        <ele>190</ele>
        <time>2016-11-26T11:12:25Z</time>
      </trkpt>
      <trkpt lat="46.02644" lon="4.70653">
        <ele>190</ele>
        <time>2016-11-26T11:12:26Z</time>
      </trkpt>
      <trkpt lat="46.02639" lon="4.70652">
        <ele>190</ele>
        <time>2016-11-26T11:12:27Z</time>
      </trkpt>
      <trkpt lat="46.02633" lon="4.70651">
        <ele>190</ele>
        <time>2016-11-26T11:12:28Z</time>
      </trkpt>
      <trkpt lat="46.02627" lon="4.7065">
        <ele>190</ele>
        <time>2016-11-26T11:12:29Z</time>
      </trkpt>
      <trkpt lat="46.0262" lon="4.7065">
        <ele>190</ele>
        <time>2016-11-26T11:12:30Z</time>
      </trkpt>
      <trkpt lat="46.02614" lon="4.70649">
        <ele>190</ele>
        <time>2016-11-26T11:12:31Z</time>
      </trkpt>
      <trkpt lat="46.02608" lon="4.70648">
        <ele>190</ele>
        <time>2016-11-26T11:12:32Z</time>
      </trkpt>
      <trkpt lat="46.02602" lon="4.70647">
        <ele>190</ele>
        <time>2016-11-26T11:12:33Z</time>
      </trkpt>
      <trkpt lat="46.02596" lon="4.70645">
        <ele>190</ele>
        <time>2016-11-26T11:12:34Z</time>
      </trkpt>
      <trkpt lat="46.02589" lon="4.70644">
        <ele>190</ele>
        <time>2016-11-26T11:12:35Z</time>
      </trkpt>
      <trkpt lat="46.02583" lon="4.70642">
        <ele>190</ele>
        <time>2016-11-26T11:12:36Z</time>
      </trkpt>
      <trkpt lat="46.02577" lon="4.7064">
        <ele>189</ele>
        <time>2016-11-26T11:12:37Z</time>
      </trkpt>
      <trkpt lat="46.0257" lon="4.70639">
        <ele>189</ele>
        <time>2016-11-26T11:12:38Z</time>
      </trkpt>
      <trkpt lat="46.02565" lon="4.70638">
        <ele>189</ele>
        <time>2016-11-26T11:12:39Z</time>
      </trkpt>
      <trkpt lat="46.02559" lon="4.70637">
        <ele>189</ele>
        <time>2016-11-26T11:12:40Z</time>
      </trkpt>
      <trkpt lat="46.02552" lon="4.70635">
        <ele>189</ele>
        <time>2016-11-26T11:12:41Z</time>
      </trkpt>
      <trkpt lat="46.02547" lon="4.70634">
        <ele>189</ele>
        <time>2016-11-26T11:12:42Z</time>
      </trkpt>
      <trkpt lat="46.02541" lon="4.70633">
        <ele>189</ele>
        <time>2016-11-26T11:12:43Z</time>
      </trkpt>
      <trkpt lat="46.02535" lon="4.70631">
        <ele>189</ele>
        <time>2016-11-26T11:12:44Z</time>
      </trkpt>
      <trkpt lat="46.02529" lon="4.70629">
        <ele>189</ele>
        <time>2016-11-26T11:12:45Z</time>
      </trkpt>
      <trkpt lat="46.02524" lon="4.70628">
        <ele>189</ele>
        <time>2016-11-26T11:12:46Z</time>
      </trkpt>
      <trkpt lat="46.02518" lon="4.70626">
        <ele>189</ele>
        <time>2016-11-26T11:12:47Z</time>
      </trkpt>
      <trkpt lat="46.02513" lon="4.70624">
        <ele>189</ele>
        <time>2016-11-26T11:12:48Z</time>
      </trkpt>
      <trkpt lat="46.02507" lon="4.70622">
        <ele>189</ele>
        <time>2016-11-26T11:12:49Z</time>
      </trkpt>
      <trkpt lat="46.02502" lon="4.70621">
        <ele>189</ele>
        <time>2016-11-26T11:12:50Z</time>
      </trkpt>
      <trkpt lat="46.02498" lon="4.70619">
        <ele>188</ele>
        <time>2016-11-26T11:12:51Z</time>
      </trkpt>
      <trkpt lat="46.02493" lon="4.70618">
        <ele>188</ele>
        <time>2016-11-26T11:12:52Z</time>
      </trkpt>
      <trkpt lat="46.02484" lon="4.70617">
        <ele>188</ele>
        <time>2016-11-26T11:12:54Z</time>
      </trkpt>
      <trkpt lat="46.02481" lon="4.70617">
        <ele>188</ele>
        <time>2016-11-26T11:12:55Z</time>
      </trkpt>
      <trkpt lat="46.02475" lon="4.70621">
        <ele>188</ele>
        <time>2016-11-26T11:12:57Z</time>
      </trkpt>
      <trkpt lat="46.02473" lon="4.70625">
        <ele>188</ele>
        <time>2016-11-26T11:12:58Z</time>
      </trkpt>
      <trkpt lat="46.02469" lon="4.70636">
        <ele>188</ele>
        <time>2016-11-26T11:13:00Z</time>
      </trkpt>
      <trkpt lat="46.02468" lon="4.70642">
        <ele>188</ele>
        <time>2016-11-26T11:13:01Z</time>
      </trkpt>
      <trkpt lat="46.02466" lon="4.70649">
        <ele>188</ele>
        <time>2016-11-26T11:13:02Z</time>
      </trkpt>
      <trkpt lat="46.02464" lon="4.70656">
        <ele>189</ele>
        <time>2016-11-26T11:13:03Z</time>
      </trkpt>
      <trkpt lat="46.02463" lon="4.70663">
        <ele>189</ele>
        <time>2016-11-26T11:13:04Z</time>
      </trkpt>
      <trkpt lat="46.02461" lon="4.7067">
        <ele>190</ele>
        <time>2016-11-26T11:13:05Z</time>
      </trkpt>
      <trkpt lat="46.02459" lon="4.70677">
        <ele>190</ele>
        <time>2016-11-26T11:13:06Z</time>
      </trkpt>
      <trkpt lat="46.02457" lon="4.70684">
        <ele>190</ele>
        <time>2016-11-26T11:13:07Z</time>
      </trkpt>
      <trkpt lat="46.02456" lon="4.70692">
        <ele>190</ele>
        <time>2016-11-26T11:13:08Z</time>
      </trkpt>
      <trkpt lat="46.02455" lon="4.707">
        <ele>190</ele>
        <time>2016-11-26T11:13:09Z</time>
      </trkpt>
      <trkpt lat="46.02453" lon="4.70708">
        <ele>190</ele>
        <time>2016-11-26T11:13:10Z</time>
      </trkpt>
      <trkpt lat="46.02451" lon="4.70715">
        <ele>190</ele>
        <time>2016-11-26T11:13:11Z</time>
      </trkpt>
      <trkpt lat="46.02449" lon="4.70722">
        <ele>190</ele>
        <time>2016-11-26T11:13:12Z</time>
      </trkpt>
      <trkpt lat="46.02447" lon="4.70729">
        <ele>190</ele>
        <time>2016-11-26T11:13:13Z</time>
      </trkpt>
      <trkpt lat="46.02444" lon="4.70735">
        <ele>190</ele>
        <time>2016-11-26T11:13:14Z</time>
      </trkpt>
      <trkpt lat="46.02441" lon="4.70741">
        <ele>189</ele>
        <time>2016-11-26T11:13:15Z</time>
      </trkpt>
      <trkpt lat="46.02437" lon="4.70747">
        <ele>189</ele>
        <time>2016-11-26T11:13:16Z</time>
      </trkpt>
      <trkpt lat="46.02433" lon="4.70752">
        <ele>189</ele>
        <time>2016-11-26T11:13:17Z</time>
      </trkpt>
      <trkpt lat="46.02429" lon="4.70756">
        <ele>189</ele>
        <time>2016-11-26T11:13:18Z</time>
      </trkpt>
      <trkpt lat="46.02424" lon="4.7076">
        <ele>189</ele>
        <time>2016-11-26T11:13:19Z</time>
      </trkpt>
      <trkpt lat="46.02419" lon="4.70764">
        <ele>189</ele>
        <time>2016-11-26T11:13:20Z</time>
      </trkpt>
      <trkpt lat="46.02414" lon="4.70769">
        <ele>186</ele>
        <time>2016-11-26T11:13:21Z</time>
      </trkpt>
      <trkpt lat="46.02409" lon="4.70773">
        <ele>185</ele>
        <time>2016-11-26T11:13:22Z</time>
      </trkpt>
      <trkpt lat="46.02404" lon="4.70776">
        <ele>185</ele>
        <time>2016-11-26T11:13:23Z</time>
      </trkpt>
      <trkpt lat="46.02399" lon="4.70778">
        <ele>185</ele>
        <time>2016-11-26T11:13:24Z</time>
      </trkpt>
      <trkpt lat="46.02393" lon="4.70778">
        <ele>185</ele>
        <time>2016-11-26T11:13:25Z</time>
      </trkpt>
      <trkpt lat="46.02387" lon="4.70778">
        <ele>184</ele>
        <time>2016-11-26T11:13:26Z</time>
      </trkpt>
      <trkpt lat="46.0238" lon="4.70778">
        <ele>184</ele>
        <time>2016-11-26T11:13:27Z</time>
      </trkpt>
      <trkpt lat="46.02374" lon="4.70777">
        <ele>184</ele>
        <time>2016-11-26T11:13:28Z</time>
      </trkpt>
      <trkpt lat="46.02367" lon="4.70776">
        <ele>183</ele>
        <time>2016-11-26T11:13:29Z</time>
      </trkpt>
      <trkpt lat="46.0236" lon="4.70775">
        <ele>183</ele>
        <time>2016-11-26T11:13:30Z</time>
      </trkpt>
      <trkpt lat="46.02354" lon="4.70773">
        <ele>183</ele>
        <time>2016-11-26T11:13:31Z</time>
      </trkpt>
      <trkpt lat="46.02347" lon="4.70772">
        <ele>182</ele>
        <time>2016-11-26T11:13:32Z</time>
      </trkpt>
      <trkpt lat="46.0234" lon="4.7077">
        <ele>182</ele>
        <time>2016-11-26T11:13:33Z</time>
      </trkpt>
      <trkpt lat="46.02332" lon="4.70769">
        <ele>180</ele>
        <time>2016-11-26T11:13:34Z</time>
      </trkpt>
      <trkpt lat="46.02325" lon="4.70768">
        <ele>180</ele>
        <time>2016-11-26T11:13:35Z</time>
      </trkpt>
      <trkpt lat="46.02318" lon="4.70766">
        <ele>180</ele>
        <time>2016-11-26T11:13:36Z</time>
      </trkpt>
      <trkpt lat="46.02311" lon="4.70765">
        <ele>180</ele>
        <time>2016-11-26T11:13:37Z</time>
      </trkpt>
      <trkpt lat="46.02304" lon="4.70764">
        <ele>180</ele>
        <time>2016-11-26T11:13:38Z</time>
      </trkpt>
      <trkpt lat="46.02297" lon="4.70764">
        <ele>180</ele>
        <time>2016-11-26T11:13:39Z</time>
      </trkpt>
      <trkpt lat="46.02289" lon="4.70763">
        <ele>181</ele>
        <time>2016-11-26T11:13:40Z</time>
      </trkpt>
      <trkpt lat="46.02282" lon="4.70761">
        <ele>181</ele>
        <time>2016-11-26T11:13:41Z</time>
      </trkpt>
      <trkpt lat="46.02274" lon="4.7076">
        <ele>181</ele>
        <time>2016-11-26T11:13:42Z</time>
      </trkpt>
      <trkpt lat="46.02267" lon="4.70758">
        <ele>181</ele>
        <time>2016-11-26T11:13:43Z</time>
      </trkpt>
      <trkpt lat="46.0226" lon="4.70756">
        <ele>181</ele>
        <time>2016-11-26T11:13:44Z</time>
      </trkpt>
      <trkpt lat="46.02252" lon="4.70754">
        <ele>181</ele>
        <time>2016-11-26T11:13:45Z</time>
      </trkpt>
      <trkpt lat="46.02245" lon="4.70753">
        <ele>181</ele>
        <time>2016-11-26T11:13:46Z</time>
      </trkpt>
      <trkpt lat="46.02237" lon="4.70752">
        <ele>180</ele>
        <time>2016-11-26T11:13:47Z</time>
      </trkpt>
      <trkpt lat="46.0223" lon="4.70751">
        <ele>180</ele>
        <time>2016-11-26T11:13:48Z</time>
      </trkpt>
      <trkpt lat="46.02222" lon="4.70749">
        <ele>181</ele>
        <time>2016-11-26T11:13:49Z</time>
      </trkpt>
      <trkpt lat="46.02215" lon="4.70748">
        <ele>180</ele>
        <time>2016-11-26T11:13:50Z</time>
      </trkpt>
      <trkpt lat="46.02207" lon="4.70746">
        <ele>180</ele>
        <time>2016-11-26T11:13:51Z</time>
      </trkpt>
      <trkpt lat="46.02199" lon="4.70744">
        <ele>180</ele>
        <time>2016-11-26T11:13:52Z</time>
      </trkpt>
      <trkpt lat="46.02191" lon="4.70742">
        <ele>180</ele>
        <time>2016-11-26T11:13:53Z</time>
      </trkpt>
      <trkpt lat="46.02184" lon="4.70741">
        <ele>180</ele>
        <time>2016-11-26T11:13:54Z</time>
      </trkpt>
      <trkpt lat="46.02176" lon="4.70739">
        <ele>180</ele>
        <time>2016-11-26T11:13:55Z</time>
      </trkpt>
      <trkpt lat="46.02169" lon="4.70737">
        <ele>180</ele>
        <time>2016-11-26T11:13:56Z</time>
      </trkpt>
      <trkpt lat="46.02162" lon="4.70735">
        <ele>179</ele>
        <time>2016-11-26T11:13:57Z</time>
      </trkpt>
      <trkpt lat="46.02156" lon="4.70733">
        <ele>179</ele>
        <time>2016-11-26T11:13:58Z</time>
      </trkpt>
      <trkpt lat="46.02149" lon="4.70732">
        <ele>179</ele>
        <time>2016-11-26T11:13:59Z</time>
      </trkpt>
      <trkpt lat="46.02143" lon="4.70731">
        <ele>179</ele>
        <time>2016-11-26T11:14:00Z</time>
      </trkpt>
      <trkpt lat="46.02137" lon="4.7073">
        <ele>179</ele>
        <time>2016-11-26T11:14:01Z</time>
      </trkpt>
      <trkpt lat="46.02131" lon="4.70728">
        <ele>179</ele>
        <time>2016-11-26T11:14:02Z</time>
      </trkpt>
      <trkpt lat="46.02125" lon="4.70727">
        <ele>179</ele>
        <time>2016-11-26T11:14:03Z</time>
      </trkpt>
      <trkpt lat="46.0212" lon="4.70726">
        <ele>179</ele>
        <time>2016-11-26T11:14:04Z</time>
      </trkpt>
      <trkpt lat="46.02114" lon="4.70725">
        <ele>179</ele>
        <time>2016-11-26T11:14:05Z</time>
      </trkpt>
      <trkpt lat="46.02108" lon="4.70724">
        <ele>179</ele>
        <time>2016-11-26T11:14:06Z</time>
      </trkpt>
      <trkpt lat="46.02102" lon="4.70723">
        <ele>179</ele>
        <time>2016-11-26T11:14:07Z</time>
      </trkpt>
      <trkpt lat="46.02096" lon="4.70722">
        <ele>179</ele>
        <time>2016-11-26T11:14:08Z</time>
      </trkpt>
      <trkpt lat="46.0209" lon="4.70721">
        <ele>178</ele>
        <time>2016-11-26T11:14:09Z</time>
      </trkpt>
      <trkpt lat="46.02083" lon="4.7072">
        <ele>178</ele>
        <time>2016-11-26T11:14:10Z</time>
      </trkpt>
      <trkpt lat="46.02077" lon="4.70719">
        <ele>179</ele>
        <time>2016-11-26T11:14:11Z</time>
      </trkpt>
      <trkpt lat="46.0207" lon="4.70718">
        <ele>179</ele>
        <time>2016-11-26T11:14:12Z</time>
      </trkpt>
      <trkpt lat="46.02064" lon="4.70716">
        <ele>179</ele>
        <time>2016-11-26T11:14:13Z</time>
      </trkpt>
      <trkpt lat="46.02058" lon="4.70715">
        <ele>179</ele>
        <time>2016-11-26T11:14:14Z</time>
      </trkpt>
      <trkpt lat="46.02052" lon="4.70714">
        <ele>179</ele>
        <time>2016-11-26T11:14:15Z</time>
      </trkpt>
      <trkpt lat="46.02047" lon="4.70714">
        <ele>179</ele>
        <time>2016-11-26T11:14:16Z</time>
      </trkpt>
      <trkpt lat="46.02042" lon="4.70713">
        <ele>179</ele>
        <time>2016-11-26T11:14:17Z</time>
      </trkpt>
      <trkpt lat="46.02037" lon="4.70712">
        <ele>179</ele>
        <time>2016-11-26T11:14:18Z</time>
      </trkpt>
      <trkpt lat="46.02032" lon="4.70711">
        <ele>179</ele>
        <time>2016-11-26T11:14:19Z</time>
      </trkpt>
      <trkpt lat="46.02027" lon="4.70711">
        <ele>179</ele>
        <time>2016-11-26T11:14:20Z</time>
      </trkpt>
      <trkpt lat="46.02021" lon="4.7071">
        <ele>179</ele>
        <time>2016-11-26T11:14:21Z</time>
      </trkpt>
      <trkpt lat="46.02016" lon="4.70708">
        <ele>179</ele>
        <time>2016-11-26T11:14:22Z</time>
      </trkpt>
      <trkpt lat="46.0201" lon="4.70707">
        <ele>179</ele>
        <time>2016-11-26T11:14:23Z</time>
      </trkpt>
      <trkpt lat="46.02004" lon="4.70705">
        <ele>179</ele>
        <time>2016-11-26T11:14:24Z</time>
      </trkpt>
      <trkpt lat="46.01998" lon="4.70704">
        <ele>181</ele>
        <time>2016-11-26T11:14:25Z</time>
      </trkpt>
      <trkpt lat="46.01992" lon="4.70703">
        <ele>181</ele>
        <time>2016-11-26T11:14:26Z</time>
      </trkpt>
      <trkpt lat="46.01986" lon="4.70702">
        <ele>181</ele>
        <time>2016-11-26T11:14:27Z</time>
      </trkpt>
      <trkpt lat="46.01981" lon="4.70701">
        <ele>181</ele>
        <time>2016-11-26T11:14:28Z</time>
      </trkpt>
      <trkpt lat="46.01975" lon="4.707">
        <ele>181</ele>
        <time>2016-11-26T11:14:29Z</time>
      </trkpt>
      <trkpt lat="46.0197" lon="4.70699">
        <ele>181</ele>
        <time>2016-11-26T11:14:30Z</time>
      </trkpt>
      <trkpt lat="46.01965" lon="4.70698">
        <ele>181</ele>
        <time>2016-11-26T11:14:31Z</time>
      </trkpt>
      <trkpt lat="46.0196" lon="4.70697">
        <ele>181</ele>
        <time>2016-11-26T11:14:32Z</time>
      </trkpt>
      <trkpt lat="46.01955" lon="4.70696">
        <ele>181</ele>
        <time>2016-11-26T11:14:33Z</time>
      </trkpt>
      <trkpt lat="46.0195" lon="4.70695">
        <ele>182</ele>
        <time>2016-11-26T11:14:34Z</time>
      </trkpt>
      <trkpt lat="46.01945" lon="4.70694">
        <ele>182</ele>
        <time>2016-11-26T11:14:35Z</time>
      </trkpt>
      <trkpt lat="46.01941" lon="4.70693">
        <ele>182</ele>
        <time>2016-11-26T11:14:36Z</time>
      </trkpt>
      <trkpt lat="46.01936" lon="4.70692">
        <ele>182</ele>
        <time>2016-11-26T11:14:37Z</time>
      </trkpt>
      <trkpt lat="46.01931" lon="4.70691">
        <ele>182</ele>
        <time>2016-11-26T11:14:38Z</time>
      </trkpt>
      <trkpt lat="46.01927" lon="4.70691">
        <ele>182</ele>
        <time>2016-11-26T11:14:39Z</time>
      </trkpt>
      <trkpt lat="46.01922" lon="4.7069">
        <ele>182</ele>
        <time>2016-11-26T11:14:40Z</time>
      </trkpt>
      <trkpt lat="46.01917" lon="4.7069">
        <ele>182</ele>
        <time>2016-11-26T11:14:41Z</time>
      </trkpt>
      <trkpt lat="46.01912" lon="4.70689">
        <ele>184</ele>
        <time>2016-11-26T11:14:42Z</time>
      </trkpt>
      <trkpt lat="46.01907" lon="4.70689">
        <ele>184</ele>
        <time>2016-11-26T11:14:43Z</time>
      </trkpt>
      <trkpt lat="46.01903" lon="4.70689">
        <ele>184</ele>
        <time>2016-11-26T11:14:44Z</time>
      </trkpt>
      <trkpt lat="46.01898" lon="4.70688">
        <ele>184</ele>
        <time>2016-11-26T11:14:45Z</time>
      </trkpt>
      <trkpt lat="46.01893" lon="4.70687">
        <ele>184</ele>
        <time>2016-11-26T11:14:46Z</time>
      </trkpt>
      <trkpt lat="46.01888" lon="4.70687">
        <ele>184</ele>
        <time>2016-11-26T11:14:47Z</time>
      </trkpt>
      <trkpt lat="46.01882" lon="4.70687">
        <ele>185</ele>
        <time>2016-11-26T11:14:48Z</time>
      </trkpt>
      <trkpt lat="46.01877" lon="4.70687">
        <ele>185</ele>
        <time>2016-11-26T11:14:49Z</time>
      </trkpt>
      <trkpt lat="46.01872" lon="4.70686">
        <ele>185</ele>
        <time>2016-11-26T11:14:50Z</time>
      </trkpt>
      <trkpt lat="46.01867" lon="4.70686">
        <ele>185</ele>
        <time>2016-11-26T11:14:51Z</time>
      </trkpt>
      <trkpt lat="46.01862" lon="4.70686">
        <ele>185</ele>
        <time>2016-11-26T11:14:52Z</time>
      </trkpt>
      <trkpt lat="46.01857" lon="4.70687">
        <ele>185</ele>
        <time>2016-11-26T11:14:53Z</time>
      </trkpt>
      <trkpt lat="46.01852" lon="4.70687">
        <ele>185</ele>
        <time>2016-11-26T11:14:54Z</time>
      </trkpt>
      <trkpt lat="46.01847" lon="4.70688">
        <ele>185</ele>
        <time>2016-11-26T11:14:55Z</time>
      </trkpt>
      <trkpt lat="46.01842" lon="4.70689">
        <ele>185</ele>
        <time>2016-11-26T11:14:56Z</time>
      </trkpt>
      <trkpt lat="46.01837" lon="4.70689">
        <ele>186</ele>
        <time>2016-11-26T11:14:57Z</time>
      </trkpt>
      <trkpt lat="46.01833" lon="4.70689">
        <ele>187</ele>
        <time>2016-11-26T11:14:58Z</time>
      </trkpt>
      <trkpt lat="46.01828" lon="4.7069">
        <ele>187</ele>
        <time>2016-11-26T11:14:59Z</time>
      </trkpt>
      <trkpt lat="46.01823" lon="4.7069">
        <ele>187</ele>
        <time>2016-11-26T11:15:00Z</time>
      </trkpt>
      <trkpt lat="46.01818" lon="4.70691">
        <ele>187</ele>
        <time>2016-11-26T11:15:01Z</time>
      </trkpt>
      <trkpt lat="46.01813" lon="4.70692">
        <ele>187</ele>
        <time>2016-11-26T11:15:02Z</time>
      </trkpt>
      <trkpt lat="46.01808" lon="4.70692">
        <ele>187</ele>
        <time>2016-11-26T11:15:03Z</time>
      </trkpt>
      <trkpt lat="46.01803" lon="4.70693">
        <ele>187</ele>
        <time>2016-11-26T11:15:04Z</time>
      </trkpt>
      <trkpt lat="46.01798" lon="4.70693">
        <ele>187</ele>
        <time>2016-11-26T11:15:05Z</time>
      </trkpt>
      <trkpt lat="46.01793" lon="4.70694">
        <ele>187</ele>
        <time>2016-11-26T11:15:06Z</time>
      </trkpt>
      <trkpt lat="46.01788" lon="4.70695">
        <ele>187</ele>
        <time>2016-11-26T11:15:07Z</time>
      </trkpt>
      <trkpt lat="46.01783" lon="4.70695">
        <ele>187</ele>
        <time>2016-11-26T11:15:08Z</time>
      </trkpt>
      <trkpt lat="46.01778" lon="4.70696">
        <ele>187</ele>
        <time>2016-11-26T11:15:09Z</time>
      </trkpt>
      <trkpt lat="46.01773" lon="4.70696">
        <ele>187</ele>
        <time>2016-11-26T11:15:10Z</time>
      </trkpt>
      <trkpt lat="46.01768" lon="4.70697">
        <ele>187</ele>
        <time>2016-11-26T11:15:11Z</time>
      </trkpt>
      <trkpt lat="46.01764" lon="4.70697">
        <ele>187</ele>
        <time>2016-11-26T11:15:12Z</time>
      </trkpt>
      <trkpt lat="46.01759" lon="4.70698">
        <ele>187</ele>
        <time>2016-11-26T11:15:13Z</time>
      </trkpt>
      <trkpt lat="46.0175" lon="4.70699">
        <ele>188</ele>
        <time>2016-11-26T11:15:15Z</time>
      </trkpt>
      <trkpt lat="46.01745" lon="4.70699">
        <ele>188</ele>
        <time>2016-11-26T11:15:16Z</time>
      </trkpt>
      <trkpt lat="46.0174" lon="4.70699">
        <ele>188</ele>
        <time>2016-11-26T11:15:17Z</time>
      </trkpt>
      <trkpt lat="46.01735" lon="4.70699">
        <ele>188</ele>
        <time>2016-11-26T11:15:18Z</time>
      </trkpt>
      <trkpt lat="46.01731" lon="4.707">
        <ele>188</ele>
        <time>2016-11-26T11:15:19Z</time>
      </trkpt>
      <trkpt lat="46.01726" lon="4.707">
        <ele>188</ele>
        <time>2016-11-26T11:15:20Z</time>
      </trkpt>
      <trkpt lat="46.01721" lon="4.70701">
        <ele>188</ele>
        <time>2016-11-26T11:15:21Z</time>
      </trkpt>
      <trkpt lat="46.01716" lon="4.70702">
        <ele>188</ele>
        <time>2016-11-26T11:15:22Z</time>
      </trkpt>
      <trkpt lat="46.01712" lon="4.70703">
        <ele>188</ele>
        <time>2016-11-26T11:15:23Z</time>
      </trkpt>
      <trkpt lat="46.01707" lon="4.70703">
        <ele>189</ele>
        <time>2016-11-26T11:15:24Z</time>
      </trkpt>
      <trkpt lat="46.01702" lon="4.70704">
        <ele>189</ele>
        <time>2016-11-26T11:15:25Z</time>
      </trkpt>
      <trkpt lat="46.01697" lon="4.70704">
        <ele>189</ele>
        <time>2016-11-26T11:15:26Z</time>
      </trkpt>
      <trkpt lat="46.01693" lon="4.70704">
        <ele>189</ele>
        <time>2016-11-26T11:15:27Z</time>
      </trkpt>
      <trkpt lat="46.01688" lon="4.70704">
        <ele>189</ele>
        <time>2016-11-26T11:15:28Z</time>
      </trkpt>
      <trkpt lat="46.01683" lon="4.70705">
        <ele>189</ele>
        <time>2016-11-26T11:15:29Z</time>
      </trkpt>
      <trkpt lat="46.01678" lon="4.70706">
        <ele>189</ele>
        <time>2016-11-26T11:15:30Z</time>
      </trkpt>
      <trkpt lat="46.01674" lon="4.70707">
        <ele>189</ele>
        <time>2016-11-26T11:15:31Z</time>
      </trkpt>
      <trkpt lat="46.01669" lon="4.70707">
        <ele>189</ele>
        <time>2016-11-26T11:15:32Z</time>
      </trkpt>
      <trkpt lat="46.01664" lon="4.70708">
        <ele>189</ele>
        <time>2016-11-26T11:15:33Z</time>
      </trkpt>
      <trkpt lat="46.0166" lon="4.70708">
        <ele>189</ele>
        <time>2016-11-26T11:15:34Z</time>
      </trkpt>
      <trkpt lat="46.01655" lon="4.70709">
        <ele>190</ele>
        <time>2016-11-26T11:15:35Z</time>
      </trkpt>
      <trkpt lat="46.0165" lon="4.70709">
        <ele>190</ele>
        <time>2016-11-26T11:15:36Z</time>
      </trkpt>
      <trkpt lat="46.01645" lon="4.70709">
        <ele>190</ele>
        <time>2016-11-26T11:15:37Z</time>
      </trkpt>
      <trkpt lat="46.0164" lon="4.7071">
        <ele>190</ele>
        <time>2016-11-26T11:15:38Z</time>
      </trkpt>
      <trkpt lat="46.01636" lon="4.7071">
        <ele>190</ele>
        <time>2016-11-26T11:15:39Z</time>
      </trkpt>
      <trkpt lat="46.01631" lon="4.70711">
        <ele>190</ele>
        <time>2016-11-26T11:15:40Z</time>
      </trkpt>
      <trkpt lat="46.01626" lon="4.70711">
        <ele>190</ele>
        <time>2016-11-26T11:15:41Z</time>
      </trkpt>
      <trkpt lat="46.01621" lon="4.70712">
        <ele>190</ele>
        <time>2016-11-26T11:15:42Z</time>
      </trkpt>
      <trkpt lat="46.01616" lon="4.70713">
        <ele>190</ele>
        <time>2016-11-26T11:15:43Z</time>
      </trkpt>
      <trkpt lat="46.01611" lon="4.70713">
        <ele>190</ele>
        <time>2016-11-26T11:15:44Z</time>
      </trkpt>
      <trkpt lat="46.01607" lon="4.70714">
        <ele>190</ele>
        <time>2016-11-26T11:15:45Z</time>
      </trkpt>
      <trkpt lat="46.01602" lon="4.70715">
        <ele>190</ele>
        <time>2016-11-26T11:15:46Z</time>
      </trkpt>
      <trkpt lat="46.01597" lon="4.70716">
        <ele>190</ele>
        <time>2016-11-26T11:15:47Z</time>
      </trkpt>
      <trkpt lat="46.01592" lon="4.70716">
        <ele>190</ele>
        <time>2016-11-26T11:15:48Z</time>
      </trkpt>
      <trkpt lat="46.01587" lon="4.70717">
        <ele>190</ele>
        <time>2016-11-26T11:15:49Z</time>
      </trkpt>
      <trkpt lat="46.01583" lon="4.70718">
        <ele>190</ele>
        <time>2016-11-26T11:15:50Z</time>
      </trkpt>
      <trkpt lat="46.01578" lon="4.70718">
        <ele>190</ele>
        <time>2016-11-26T11:15:51Z</time>
      </trkpt>
      <trkpt lat="46.01573" lon="4.70719">
        <ele>190</ele>
        <time>2016-11-26T11:15:52Z</time>
      </trkpt>
      <trkpt lat="46.01569" lon="4.7072">
        <ele>190</ele>
        <time>2016-11-26T11:15:53Z</time>
      </trkpt>
      <trkpt lat="46.01564" lon="4.7072">
        <ele>190</ele>
        <time>2016-11-26T11:15:54Z</time>
      </trkpt>
      <trkpt lat="46.01559" lon="4.70721">
        <ele>190</ele>
        <time>2016-11-26T11:15:55Z</time>
      </trkpt>
      <trkpt lat="46.01554" lon="4.70721">
        <ele>190</ele>
        <time>2016-11-26T11:15:56Z</time>
      </trkpt>
      <trkpt lat="46.01549" lon="4.70721">
        <ele>190</ele>
        <time>2016-11-26T11:15:57Z</time>
      </trkpt>
      <trkpt lat="46.01544" lon="4.70721">
        <ele>190</ele>
        <time>2016-11-26T11:15:58Z</time>
      </trkpt>
      <trkpt lat="46.01539" lon="4.70722">
        <ele>190</ele>
        <time>2016-11-26T11:15:59Z</time>
      </trkpt>
      <trkpt lat="46.01534" lon="4.70722">
        <ele>190</ele>
        <time>2016-11-26T11:16:00Z</time>
      </trkpt>
      <trkpt lat="46.01529" lon="4.70722">
        <ele>190</ele>
        <time>2016-11-26T11:16:01Z</time>
      </trkpt>
      <trkpt lat="46.01524" lon="4.70723">
        <ele>190</ele>
        <time>2016-11-26T11:16:02Z</time>
      </trkpt>
      <trkpt lat="46.01519" lon="4.70723">
        <ele>190</ele>
        <time>2016-11-26T11:16:03Z</time>
      </trkpt>
      <trkpt lat="46.01514" lon="4.70724">
        <ele>190</ele>
        <time>2016-11-26T11:16:04Z</time>
      </trkpt>
      <trkpt lat="46.01509" lon="4.70724">
        <ele>190</ele>
        <time>2016-11-26T11:16:05Z</time>
      </trkpt>
      <trkpt lat="46.01504" lon="4.70725">
        <ele>190</ele>
        <time>2016-11-26T11:16:06Z</time>
      </trkpt>
      <trkpt lat="46.01499" lon="4.70725">
        <ele>190</ele>
        <time>2016-11-26T11:16:07Z</time>
      </trkpt>
      <trkpt lat="46.01494" lon="4.70725">
        <ele>190</ele>
        <time>2016-11-26T11:16:08Z</time>
      </trkpt>
      <trkpt lat="46.01489" lon="4.70725">
        <ele>190</ele>
        <time>2016-11-26T11:16:09Z</time>
      </trkpt>
      <trkpt lat="46.01484" lon="4.70725">
        <ele>190</ele>
        <time>2016-11-26T11:16:10Z</time>
      </trkpt>
      <trkpt lat="46.01479" lon="4.70726">
        <ele>190</ele>
        <time>2016-11-26T11:16:11Z</time>
      </trkpt>
      <trkpt lat="46.01474" lon="4.70726">
        <ele>190</ele>
        <time>2016-11-26T11:16:12Z</time>
      </trkpt>
      <trkpt lat="46.0147" lon="4.70727">
        <ele>190</ele>
        <time>2016-11-26T11:16:13Z</time>
      </trkpt>
      <trkpt lat="46.01465" lon="4.70727">
        <ele>189</ele>
        <time>2016-11-26T11:16:14Z</time>
      </trkpt>
      <trkpt lat="46.0146" lon="4.70727">
        <ele>189</ele>
        <time>2016-11-26T11:16:15Z</time>
      </trkpt>
      <trkpt lat="46.01455" lon="4.70728">
        <ele>189</ele>
        <time>2016-11-26T11:16:16Z</time>
      </trkpt>
      <trkpt lat="46.0145" lon="4.70728">
        <ele>189</ele>
        <time>2016-11-26T11:16:17Z</time>
      </trkpt>
      <trkpt lat="46.01445" lon="4.70728">
        <ele>189</ele>
        <time>2016-11-26T11:16:18Z</time>
      </trkpt>
      <trkpt lat="46.0144" lon="4.70729">
        <ele>189</ele>
        <time>2016-11-26T11:16:19Z</time>
      </trkpt>
      <trkpt lat="46.01435" lon="4.70729">
        <ele>189</ele>
        <time>2016-11-26T11:16:20Z</time>
      </trkpt>
      <trkpt lat="46.01431" lon="4.7073">
        <ele>189</ele>
        <time>2016-11-26T11:16:21Z</time>
      </trkpt>
      <trkpt lat="46.01426" lon="4.70731">
        <ele>189</ele>
        <time>2016-11-26T11:16:22Z</time>
      </trkpt>
      <trkpt lat="46.01421" lon="4.70732">
        <ele>189</ele>
        <time>2016-11-26T11:16:23Z</time>
      </trkpt>
      <trkpt lat="46.01416" lon="4.70732">
        <ele>189</ele>
        <time>2016-11-26T11:16:24Z</time>
      </trkpt>
      <trkpt lat="46.01411" lon="4.70733">
        <ele>189</ele>
        <time>2016-11-26T11:16:25Z</time>
      </trkpt>
      <trkpt lat="46.01406" lon="4.70733">
        <ele>189</ele>
        <time>2016-11-26T11:16:26Z</time>
      </trkpt>
      <trkpt lat="46.01401" lon="4.70734">
        <ele>189</ele>
        <time>2016-11-26T11:16:27Z</time>
      </trkpt>
      <trkpt lat="46.01396" lon="4.70734">
        <ele>189</ele>
        <time>2016-11-26T11:16:28Z</time>
      </trkpt>
      <trkpt lat="46.01391" lon="4.70735">
        <ele>189</ele>
        <time>2016-11-26T11:16:29Z</time>
      </trkpt>
      <trkpt lat="46.01386" lon="4.70735">
        <ele>189</ele>
        <time>2016-11-26T11:16:30Z</time>
      </trkpt>
      <trkpt lat="46.01381" lon="4.70736">
        <ele>189</ele>
        <time>2016-11-26T11:16:31Z</time>
      </trkpt>
      <trkpt lat="46.01376" lon="4.70736">
        <ele>189</ele>
        <time>2016-11-26T11:16:32Z</time>
      </trkpt>
      <trkpt lat="46.01371" lon="4.70737">
        <ele>189</ele>
        <time>2016-11-26T11:16:33Z</time>
      </trkpt>
      <trkpt lat="46.01365" lon="4.70737">
        <ele>189</ele>
        <time>2016-11-26T11:16:34Z</time>
      </trkpt>
      <trkpt lat="46.0136" lon="4.70737">
        <ele>189</ele>
        <time>2016-11-26T11:16:35Z</time>
      </trkpt>
      <trkpt lat="46.01355" lon="4.70737">
        <ele>189</ele>
        <time>2016-11-26T11:16:36Z</time>
      </trkpt>
      <trkpt lat="46.0135" lon="4.70736">
        <ele>189</ele>
        <time>2016-11-26T11:16:37Z</time>
      </trkpt>
      <trkpt lat="46.01345" lon="4.70736">
        <ele>189</ele>
        <time>2016-11-26T11:16:38Z</time>
      </trkpt>
      <trkpt lat="46.0134" lon="4.70736">
        <ele>189</ele>
        <time>2016-11-26T11:16:39Z</time>
      </trkpt>
      <trkpt lat="46.01336" lon="4.70735">
        <ele>189</ele>
        <time>2016-11-26T11:16:40Z</time>
      </trkpt>
      <trkpt lat="46.01331" lon="4.70735">
        <ele>190</ele>
        <time>2016-11-26T11:16:41Z</time>
      </trkpt>
      <trkpt lat="46.01326" lon="4.70735">
        <ele>190</ele>
        <time>2016-11-26T11:16:42Z</time>
      </trkpt>
      <trkpt lat="46.01322" lon="4.70735">
        <ele>190</ele>
        <time>2016-11-26T11:16:43Z</time>
      </trkpt>
      <trkpt lat="46.01317" lon="4.70734">
        <ele>190</ele>
        <time>2016-11-26T11:16:44Z</time>
      </trkpt>
      <trkpt lat="46.01312" lon="4.70734">
        <ele>191</ele>
        <time>2016-11-26T11:16:45Z</time>
      </trkpt>
      <trkpt lat="46.01307" lon="4.70733">
        <ele>191</ele>
        <time>2016-11-26T11:16:46Z</time>
      </trkpt>
      <trkpt lat="46.01302" lon="4.70733">
        <ele>191</ele>
        <time>2016-11-26T11:16:47Z</time>
      </trkpt>
      <trkpt lat="46.01298" lon="4.70732">
        <ele>191</ele>
        <time>2016-11-26T11:16:48Z</time>
      </trkpt>
      <trkpt lat="46.01293" lon="4.70731">
        <ele>191</ele>
        <time>2016-11-26T11:16:49Z</time>
      </trkpt>
      <trkpt lat="46.01288" lon="4.70731">
        <ele>191</ele>
        <time>2016-11-26T11:16:50Z</time>
      </trkpt>
      <trkpt lat="46.01283" lon="4.7073">
        <ele>191</ele>
        <time>2016-11-26T11:16:51Z</time>
      </trkpt>
      <trkpt lat="46.01278" lon="4.70729">
        <ele>192</ele>
        <time>2016-11-26T11:16:52Z</time>
      </trkpt>
      <trkpt lat="46.01273" lon="4.70729">
        <ele>192</ele>
        <time>2016-11-26T11:16:53Z</time>
      </trkpt>
      <trkpt lat="46.01269" lon="4.70728">
        <ele>192</ele>
        <time>2016-11-26T11:16:54Z</time>
      </trkpt>
      <trkpt lat="46.01264" lon="4.70727">
        <ele>192</ele>
        <time>2016-11-26T11:16:55Z</time>
      </trkpt>
      <trkpt lat="46.01259" lon="4.70726">
        <ele>192</ele>
        <time>2016-11-26T11:16:56Z</time>
      </trkpt>
      <trkpt lat="46.01255" lon="4.70724">
        <ele>192</ele>
        <time>2016-11-26T11:16:57Z</time>
      </trkpt>
      <trkpt lat="46.0125" lon="4.70723">
        <ele>193</ele>
        <time>2016-11-26T11:16:58Z</time>
      </trkpt>
      <trkpt lat="46.01244" lon="4.70721">
        <ele>193</ele>
        <time>2016-11-26T11:16:59Z</time>
      </trkpt>
      <trkpt lat="46.01239" lon="4.70719">
        <ele>193</ele>
        <time>2016-11-26T11:17:00Z</time>
      </trkpt>
      <trkpt lat="46.01235" lon="4.70717">
        <ele>194</ele>
        <time>2016-11-26T11:17:01Z</time>
      </trkpt>
      <trkpt lat="46.0123" lon="4.70715">
        <ele>194</ele>
        <time>2016-11-26T11:17:02Z</time>
      </trkpt>
      <trkpt lat="46.01225" lon="4.70714">
        <ele>194</ele>
        <time>2016-11-26T11:17:03Z</time>
      </trkpt>
      <trkpt lat="46.0122" lon="4.70712">
        <ele>194</ele>
        <time>2016-11-26T11:17:04Z</time>
      </trkpt>
      <trkpt lat="46.01216" lon="4.7071">
        <ele>194</ele>
        <time>2016-11-26T11:17:05Z</time>
      </trkpt>
      <trkpt lat="46.01211" lon="4.70709">
        <ele>194</ele>
        <time>2016-11-26T11:17:06Z</time>
      </trkpt>
      <trkpt lat="46.01206" lon="4.70706">
        <ele>194</ele>
        <time>2016-11-26T11:17:07Z</time>
      </trkpt>
      <trkpt lat="46.01202" lon="4.70704">
        <ele>194</ele>
        <time>2016-11-26T11:17:08Z</time>
      </trkpt>
      <trkpt lat="46.01197" lon="4.70702">
        <ele>194</ele>
        <time>2016-11-26T11:17:09Z</time>
      </trkpt>
      <trkpt lat="46.01192" lon="4.70699">
        <ele>194</ele>
        <time>2016-11-26T11:17:10Z</time>
      </trkpt>
      <trkpt lat="46.01188" lon="4.70697">
        <ele>194</ele>
        <time>2016-11-26T11:17:11Z</time>
      </trkpt>
      <trkpt lat="46.01183" lon="4.70695">
        <ele>194</ele>
        <time>2016-11-26T11:17:12Z</time>
      </trkpt>
      <trkpt lat="46.01178" lon="4.70693">
        <ele>194</ele>
        <time>2016-11-26T11:17:13Z</time>
      </trkpt>
      <trkpt lat="46.01174" lon="4.70691">
        <ele>194</ele>
        <time>2016-11-26T11:17:14Z</time>
      </trkpt>
      <trkpt lat="46.01169" lon="4.70689">
        <ele>194</ele>
        <time>2016-11-26T11:17:15Z</time>
      </trkpt>
      <trkpt lat="46.01164" lon="4.70687">
        <ele>194</ele>
        <time>2016-11-26T11:17:16Z</time>
      </trkpt>
      <trkpt lat="46.0116" lon="4.70685">
        <ele>194</ele>
        <time>2016-11-26T11:17:17Z</time>
      </trkpt>
      <trkpt lat="46.01155" lon="4.70683">
        <ele>194</ele>
        <time>2016-11-26T11:17:18Z</time>
      </trkpt>
      <trkpt lat="46.0115" lon="4.7068">
        <ele>194</ele>
        <time>2016-11-26T11:17:19Z</time>
      </trkpt>
      <trkpt lat="46.01145" lon="4.70678">
        <ele>194</ele>
        <time>2016-11-26T11:17:20Z</time>
      </trkpt>
      <trkpt lat="46.01141" lon="4.70676">
        <ele>194</ele>
        <time>2016-11-26T11:17:21Z</time>
      </trkpt>
      <trkpt lat="46.01136" lon="4.70675">
        <ele>194</ele>
        <time>2016-11-26T11:17:22Z</time>
      </trkpt>
      <trkpt lat="46.01131" lon="4.70673">
        <ele>194</ele>
        <time>2016-11-26T11:17:23Z</time>
      </trkpt>
      <trkpt lat="46.01127" lon="4.70671">
        <ele>194</ele>
        <time>2016-11-26T11:17:24Z</time>
      </trkpt>
      <trkpt lat="46.01122" lon="4.70669">
        <ele>195</ele>
        <time>2016-11-26T11:17:25Z</time>
      </trkpt>
      <trkpt lat="46.01118" lon="4.70666">
        <ele>194</ele>
        <time>2016-11-26T11:17:26Z</time>
      </trkpt>
      <trkpt lat="46.01113" lon="4.70664">
        <ele>194</ele>
        <time>2016-11-26T11:17:27Z</time>
      </trkpt>
      <trkpt lat="46.01109" lon="4.70662">
        <ele>194</ele>
        <time>2016-11-26T11:17:28Z</time>
      </trkpt>
      <trkpt lat="46.01104" lon="4.7066">
        <ele>195</ele>
        <time>2016-11-26T11:17:29Z</time>
      </trkpt>
      <trkpt lat="46.01099" lon="4.70658">
        <ele>195</ele>
        <time>2016-11-26T11:17:30Z</time>
      </trkpt>
      <trkpt lat="46.01094" lon="4.70656">
        <ele>195</ele>
        <time>2016-11-26T11:17:31Z</time>
      </trkpt>
      <trkpt lat="46.01089" lon="4.70654">
        <ele>195</ele>
        <time>2016-11-26T11:17:32Z</time>
      </trkpt>
      <trkpt lat="46.01084" lon="4.70652">
        <ele>195</ele>
        <time>2016-11-26T11:17:33Z</time>
      </trkpt>
      <trkpt lat="46.01079" lon="4.70649">
        <ele>195</ele>
        <time>2016-11-26T11:17:34Z</time>
      </trkpt>
      <trkpt lat="46.01075" lon="4.70647">
        <ele>195</ele>
        <time>2016-11-26T11:17:35Z</time>
      </trkpt>
      <trkpt lat="46.0107" lon="4.70645">
        <ele>195</ele>
        <time>2016-11-26T11:17:36Z</time>
      </trkpt>
      <trkpt lat="46.01065" lon="4.70643">
        <ele>195</ele>
        <time>2016-11-26T11:17:37Z</time>
      </trkpt>
      <trkpt lat="46.0106" lon="4.7064">
        <ele>195</ele>
        <time>2016-11-26T11:17:38Z</time>
      </trkpt>
      <trkpt lat="46.01055" lon="4.70638">
        <ele>195</ele>
        <time>2016-11-26T11:17:39Z</time>
      </trkpt>
      <trkpt lat="46.01051" lon="4.70636">
        <ele>195</ele>
        <time>2016-11-26T11:17:40Z</time>
      </trkpt>
      <trkpt lat="46.01046" lon="4.70634">
        <ele>195</ele>
        <time>2016-11-26T11:17:41Z</time>
      </trkpt>
      <trkpt lat="46.01041" lon="4.70632">
        <ele>196</ele>
        <time>2016-11-26T11:17:42Z</time>
      </trkpt>
      <trkpt lat="46.01036" lon="4.7063">
        <ele>196</ele>
        <time>2016-11-26T11:17:43Z</time>
      </trkpt>
      <trkpt lat="46.01031" lon="4.70627">
        <ele>196</ele>
        <time>2016-11-26T11:17:44Z</time>
      </trkpt>
      <trkpt lat="46.01027" lon="4.70625">
        <ele>196</ele>
        <time>2016-11-26T11:17:45Z</time>
      </trkpt>
      <trkpt lat="46.01022" lon="4.70623">
        <ele>196</ele>
        <time>2016-11-26T11:17:46Z</time>
      </trkpt>
      <trkpt lat="46.01017" lon="4.70621">
        <ele>196</ele>
        <time>2016-11-26T11:17:47Z</time>
      </trkpt>
      <trkpt lat="46.01012" lon="4.70619">
        <ele>196</ele>
        <time>2016-11-26T11:17:48Z</time>
      </trkpt>
      <trkpt lat="46.01007" lon="4.70616">
        <ele>196</ele>
        <time>2016-11-26T11:17:49Z</time>
      </trkpt>
      <trkpt lat="46.01002" lon="4.70614">
        <ele>196</ele>
        <time>2016-11-26T11:17:50Z</time>
      </trkpt>
      <trkpt lat="46.00997" lon="4.70611">
        <ele>197</ele>
        <time>2016-11-26T11:17:51Z</time>
      </trkpt>
      <trkpt lat="46.00992" lon="4.70609">
        <ele>197</ele>
        <time>2016-11-26T11:17:52Z</time>
      </trkpt>
      <trkpt lat="46.00987" lon="4.70607">
        <ele>197</ele>
        <time>2016-11-26T11:17:53Z</time>
      </trkpt>
      <trkpt lat="46.00982" lon="4.70605">
        <ele>197</ele>
        <time>2016-11-26T11:17:54Z</time>
      </trkpt>
      <trkpt lat="46.00977" lon="4.70603">
        <ele>197</ele>
        <time>2016-11-26T11:17:55Z</time>
      </trkpt>
      <trkpt lat="46.00973" lon="4.70601">
        <ele>197</ele>
        <time>2016-11-26T11:17:56Z</time>
      </trkpt>
      <trkpt lat="46.00968" lon="4.70599">
        <ele>197</ele>
        <time>2016-11-26T11:17:57Z</time>
      </trkpt>
      <trkpt lat="46.00964" lon="4.70597">
        <ele>197</ele>
        <time>2016-11-26T11:17:58Z</time>
      </trkpt>
      <trkpt lat="46.00959" lon="4.70595">
        <ele>197</ele>
        <time>2016-11-26T11:17:59Z</time>
      </trkpt>
      <trkpt lat="46.00955" lon="4.70593">
        <ele>197</ele>
        <time>2016-11-26T11:18:00Z</time>
      </trkpt>
      <trkpt lat="46.0095" lon="4.70591">
        <ele>197</ele>
        <time>2016-11-26T11:18:01Z</time>
      </trkpt>
      <trkpt lat="46.00946" lon="4.70589">
        <ele>197</ele>
        <time>2016-11-26T11:18:02Z</time>
      </trkpt>
      <trkpt lat="46.00941" lon="4.70587">
        <ele>198</ele>
        <time>2016-11-26T11:18:03Z</time>
      </trkpt>
      <trkpt lat="46.00937" lon="4.70585">
        <ele>198</ele>
        <time>2016-11-26T11:18:04Z</time>
      </trkpt>
      <trkpt lat="46.00933" lon="4.70583">
        <ele>198</ele>
        <time>2016-11-26T11:18:05Z</time>
      </trkpt>
      <trkpt lat="46.00928" lon="4.70581">
        <ele>198</ele>
        <time>2016-11-26T11:18:06Z</time>
      </trkpt>
      <trkpt lat="46.00924" lon="4.70579">
        <ele>198</ele>
        <time>2016-11-26T11:18:07Z</time>
      </trkpt>
      <trkpt lat="46.00919" lon="4.70577">
        <ele>198</ele>
        <time>2016-11-26T11:18:08Z</time>
      </trkpt>
      <trkpt lat="46.00915" lon="4.70574">
        <ele>199</ele>
        <time>2016-11-26T11:18:09Z</time>
      </trkpt>
      <trkpt lat="46.00911" lon="4.70572">
        <ele>199</ele>
        <time>2016-11-26T11:18:10Z</time>
      </trkpt>
      <trkpt lat="46.00906" lon="4.7057">
        <ele>199</ele>
        <time>2016-11-26T11:18:11Z</time>
      </trkpt>
      <trkpt lat="46.00902" lon="4.70568">
        <ele>200</ele>
        <time>2016-11-26T11:18:12Z</time>
      </trkpt>
      <trkpt lat="46.00897" lon="4.70566">
        <ele>200</ele>
        <time>2016-11-26T11:18:13Z</time>
      </trkpt>
      <trkpt lat="46.00893" lon="4.70564">
        <ele>200</ele>
        <time>2016-11-26T11:18:14Z</time>
      </trkpt>
      <trkpt lat="46.00888" lon="4.70562">
        <ele>200</ele>
        <time>2016-11-26T11:18:15Z</time>
      </trkpt>
      <trkpt lat="46.00882" lon="4.70559">
        <ele>200</ele>
        <time>2016-11-26T11:18:16Z</time>
      </trkpt>
      <trkpt lat="46.00877" lon="4.70557">
        <ele>201</ele>
        <time>2016-11-26T11:18:17Z</time>
      </trkpt>
      <trkpt lat="46.00872" lon="4.70555">
        <ele>201</ele>
        <time>2016-11-26T11:18:18Z</time>
      </trkpt>
      <trkpt lat="46.00867" lon="4.70553">
        <ele>201</ele>
        <time>2016-11-26T11:18:19Z</time>
      </trkpt>
      <trkpt lat="46.00863" lon="4.70551">
        <ele>201</ele>
        <time>2016-11-26T11:18:20Z</time>
      </trkpt>
      <trkpt lat="46.00858" lon="4.70548">
        <ele>201</ele>
        <time>2016-11-26T11:18:21Z</time>
      </trkpt>
      <trkpt lat="46.00853" lon="4.70547">
        <ele>201</ele>
        <time>2016-11-26T11:18:22Z</time>
      </trkpt>
      <trkpt lat="46.00847" lon="4.70544">
        <ele>201</ele>
        <time>2016-11-26T11:18:23Z</time>
      </trkpt>
      <trkpt lat="46.00842" lon="4.70542">
        <ele>201</ele>
        <time>2016-11-26T11:18:24Z</time>
      </trkpt>
      <trkpt lat="46.00838" lon="4.7054">
        <ele>202</ele>
        <time>2016-11-26T11:18:25Z</time>
      </trkpt>
      <trkpt lat="46.00833" lon="4.70538">
        <ele>203</ele>
        <time>2016-11-26T11:18:26Z</time>
      </trkpt>
      <trkpt lat="46.00829" lon="4.70535">
        <ele>203</ele>
        <time>2016-11-26T11:18:27Z</time>
      </trkpt>
      <trkpt lat="46.00824" lon="4.70533">
        <ele>204</ele>
        <time>2016-11-26T11:18:28Z</time>
      </trkpt>
      <trkpt lat="46.00819" lon="4.70531">
        <ele>204</ele>
        <time>2016-11-26T11:18:29Z</time>
      </trkpt>
      <trkpt lat="46.00815" lon="4.70528">
        <ele>204</ele>
        <time>2016-11-26T11:18:30Z</time>
      </trkpt>
      <trkpt lat="46.00811" lon="4.70526">
        <ele>204</ele>
        <time>2016-11-26T11:18:31Z</time>
      </trkpt>
      <trkpt lat="46.00807" lon="4.70523">
        <ele>204</ele>
        <time>2016-11-26T11:18:32Z</time>
      </trkpt>
      <trkpt lat="46.00802" lon="4.70521">
        <ele>204</ele>
        <time>2016-11-26T11:18:33Z</time>
      </trkpt>
      <trkpt lat="46.00798" lon="4.70519">
        <ele>204</ele>
        <time>2016-11-26T11:18:34Z</time>
      </trkpt>
      <trkpt lat="46.00793" lon="4.70517">
        <ele>204</ele>
        <time>2016-11-26T11:18:35Z</time>
      </trkpt>
      <trkpt lat="46.00789" lon="4.70515">
        <ele>204</ele>
        <time>2016-11-26T11:18:36Z</time>
      </trkpt>
      <trkpt lat="46.00781" lon="4.70511">
        <ele>205</ele>
        <time>2016-11-26T11:18:38Z</time>
      </trkpt>
      <trkpt lat="46.00776" lon="4.70509">
        <ele>205</ele>
        <time>2016-11-26T11:18:39Z</time>
      </trkpt>
      <trkpt lat="46.00768" lon="4.70506">
        <ele>206</ele>
        <time>2016-11-26T11:18:41Z</time>
      </trkpt>
      <trkpt lat="46.00764" lon="4.70504">
        <ele>206</ele>
        <time>2016-11-26T11:18:42Z</time>
      </trkpt>
      <trkpt lat="46.00756" lon="4.705">
        <ele>207</ele>
        <time>2016-11-26T11:18:44Z</time>
      </trkpt>
      <trkpt lat="46.00751" lon="4.70499">
        <ele>208</ele>
        <time>2016-11-26T11:18:45Z</time>
      </trkpt>
      <trkpt lat="46.00743" lon="4.70496">
        <ele>209</ele>
        <time>2016-11-26T11:18:47Z</time>
      </trkpt>
      <trkpt lat="46.00739" lon="4.70495">
        <ele>209</ele>
        <time>2016-11-26T11:18:48Z</time>
      </trkpt>
      <trkpt lat="46.00731" lon="4.70493">
        <ele>210</ele>
        <time>2016-11-26T11:18:50Z</time>
      </trkpt>
      <trkpt lat="46.00726" lon="4.70492">
        <ele>210</ele>
        <time>2016-11-26T11:18:51Z</time>
      </trkpt>
      <trkpt lat="46.00722" lon="4.70492">
        <ele>210</ele>
        <time>2016-11-26T11:18:52Z</time>
      </trkpt>
      <trkpt lat="46.00717" lon="4.70491">
        <ele>210</ele>
        <time>2016-11-26T11:18:53Z</time>
      </trkpt>
      <trkpt lat="46.00712" lon="4.70491">
        <ele>210</ele>
        <time>2016-11-26T11:18:54Z</time>
      </trkpt>
      <trkpt lat="46.00708" lon="4.70491">
        <ele>211</ele>
        <time>2016-11-26T11:18:55Z</time>
      </trkpt>
      <trkpt lat="46.00703" lon="4.7049">
        <ele>211</ele>
        <time>2016-11-26T11:18:56Z</time>
      </trkpt>
      <trkpt lat="46.00699" lon="4.70489">
        <ele>211</ele>
        <time>2016-11-26T11:18:57Z</time>
      </trkpt>
      <trkpt lat="46.00694" lon="4.70489">
        <ele>211</ele>
        <time>2016-11-26T11:18:58Z</time>
      </trkpt>
      <trkpt lat="46.0069" lon="4.70489">
        <ele>211</ele>
        <time>2016-11-26T11:18:59Z</time>
      </trkpt>
      <trkpt lat="46.00685" lon="4.70489">
        <ele>211</ele>
        <time>2016-11-26T11:19:00Z</time>
      </trkpt>
      <trkpt lat="46.0068" lon="4.70489">
        <ele>211</ele>
        <time>2016-11-26T11:19:01Z</time>
      </trkpt>
      <trkpt lat="46.00675" lon="4.70489">
        <ele>212</ele>
        <time>2016-11-26T11:19:02Z</time>
      </trkpt>
      <trkpt lat="46.0067" lon="4.7049">
        <ele>212</ele>
        <time>2016-11-26T11:19:03Z</time>
      </trkpt>
      <trkpt lat="46.00666" lon="4.70491">
        <ele>212</ele>
        <time>2016-11-26T11:19:04Z</time>
      </trkpt>
      <trkpt lat="46.00661" lon="4.70491">
        <ele>212</ele>
        <time>2016-11-26T11:19:05Z</time>
      </trkpt>
      <trkpt lat="46.00655" lon="4.70492">
        <ele>212</ele>
        <time>2016-11-26T11:19:06Z</time>
      </trkpt>
      <trkpt lat="46.0065" lon="4.70492">
        <ele>211</ele>
        <time>2016-11-26T11:19:07Z</time>
      </trkpt>
      <trkpt lat="46.00645" lon="4.70493">
        <ele>211</ele>
        <time>2016-11-26T11:19:08Z</time>
      </trkpt>
      <trkpt lat="46.00639" lon="4.70493">
        <ele>211</ele>
        <time>2016-11-26T11:19:09Z</time>
      </trkpt>
      <trkpt lat="46.00634" lon="4.70493">
        <ele>211</ele>
        <time>2016-11-26T11:19:10Z</time>
      </trkpt>
      <trkpt lat="46.00628" lon="4.70494">
        <ele>211</ele>
        <time>2016-11-26T11:19:11Z</time>
      </trkpt>
      <trkpt lat="46.00623" lon="4.70495">
        <ele>211</ele>
        <time>2016-11-26T11:19:12Z</time>
      </trkpt>
      <trkpt lat="46.00617" lon="4.70495">
        <ele>210</ele>
        <time>2016-11-26T11:19:13Z</time>
      </trkpt>
      <trkpt lat="46.00611" lon="4.70496">
        <ele>210</ele>
        <time>2016-11-26T11:19:14Z</time>
      </trkpt>
      <trkpt lat="46.00606" lon="4.70496">
        <ele>210</ele>
        <time>2016-11-26T11:19:15Z</time>
      </trkpt>
      <trkpt lat="46.006" lon="4.70497">
        <ele>209</ele>
        <time>2016-11-26T11:19:16Z</time>
      </trkpt>
      <trkpt lat="46.00594" lon="4.70498">
        <ele>208</ele>
        <time>2016-11-26T11:19:17Z</time>
      </trkpt>
      <trkpt lat="46.00587" lon="4.70499">
        <ele>208</ele>
        <time>2016-11-26T11:19:18Z</time>
      </trkpt>
      <trkpt lat="46.00581" lon="4.705">
        <ele>207</ele>
        <time>2016-11-26T11:19:19Z</time>
      </trkpt>
      <trkpt lat="46.00575" lon="4.70502">
        <ele>206</ele>
        <time>2016-11-26T11:19:20Z</time>
      </trkpt>
      <trkpt lat="46.00569" lon="4.70503">
        <ele>205</ele>
        <time>2016-11-26T11:19:21Z</time>
      </trkpt>
      <trkpt lat="46.00563" lon="4.70503">
        <ele>205</ele>
        <time>2016-11-26T11:19:22Z</time>
      </trkpt>
      <trkpt lat="46.00556" lon="4.70505">
        <ele>205</ele>
        <time>2016-11-26T11:19:23Z</time>
      </trkpt>
      <trkpt lat="46.00548" lon="4.70507">
        <ele>204</ele>
        <time>2016-11-26T11:19:24Z</time>
      </trkpt>
      <trkpt lat="46.00541" lon="4.70508">
        <ele>204</ele>
        <time>2016-11-26T11:19:25Z</time>
      </trkpt>
      <trkpt lat="46.00535" lon="4.70508">
        <ele>204</ele>
        <time>2016-11-26T11:19:26Z</time>
      </trkpt>
      <trkpt lat="46.00528" lon="4.70507">
        <ele>204</ele>
        <time>2016-11-26T11:19:27Z</time>
      </trkpt>
      <trkpt lat="46.00522" lon="4.70508">
        <ele>204</ele>
        <time>2016-11-26T11:19:28Z</time>
      </trkpt>
      <trkpt lat="46.00516" lon="4.70507">
        <ele>204</ele>
        <time>2016-11-26T11:19:29Z</time>
      </trkpt>
      <trkpt lat="46.00509" lon="4.70507">
        <ele>204</ele>
        <time>2016-11-26T11:19:30Z</time>
      </trkpt>
      <trkpt lat="46.00502" lon="4.70507">
        <ele>204</ele>
        <time>2016-11-26T11:19:31Z</time>
      </trkpt>
      <trkpt lat="46.00496" lon="4.70507">
        <ele>203</ele>
        <time>2016-11-26T11:19:32Z</time>
      </trkpt>
      <trkpt lat="46.0049" lon="4.70506">
        <ele>203</ele>
        <time>2016-11-26T11:19:33Z</time>
      </trkpt>
      <trkpt lat="46.00484" lon="4.70504">
        <ele>202</ele>
        <time>2016-11-26T11:19:34Z</time>
      </trkpt>
      <trkpt lat="46.00477" lon="4.70503">
        <ele>202</ele>
        <time>2016-11-26T11:19:35Z</time>
      </trkpt>
      <trkpt lat="46.00471" lon="4.70503">
        <ele>201</ele>
        <time>2016-11-26T11:19:36Z</time>
      </trkpt>
      <trkpt lat="46.00464" lon="4.70502">
        <ele>201</ele>
        <time>2016-11-26T11:19:37Z</time>
      </trkpt>
      <trkpt lat="46.00458" lon="4.705">
        <ele>201</ele>
        <time>2016-11-26T11:19:38Z</time>
      </trkpt>
      <trkpt lat="46.00451" lon="4.70497">
        <ele>203</ele>
        <time>2016-11-26T11:19:39Z</time>
      </trkpt>
      <trkpt lat="46.00444" lon="4.70494">
        <ele>202</ele>
        <time>2016-11-26T11:19:40Z</time>
      </trkpt>
      <trkpt lat="46.00438" lon="4.70491">
        <ele>202</ele>
        <time>2016-11-26T11:19:41Z</time>
      </trkpt>
      <trkpt lat="46.00431" lon="4.7049">
        <ele>202</ele>
        <time>2016-11-26T11:19:42Z</time>
      </trkpt>
      <trkpt lat="46.00424" lon="4.70489">
        <ele>201</ele>
        <time>2016-11-26T11:19:43Z</time>
      </trkpt>
      <trkpt lat="46.00418" lon="4.70489">
        <ele>201</ele>
        <time>2016-11-26T11:19:44Z</time>
      </trkpt>
      <trkpt lat="46.00411" lon="4.70488">
        <ele>200</ele>
        <time>2016-11-26T11:19:45Z</time>
      </trkpt>
      <trkpt lat="46.00405" lon="4.70488">
        <ele>200</ele>
        <time>2016-11-26T11:19:46Z</time>
      </trkpt>
      <trkpt lat="46.00398" lon="4.70487">
        <ele>200</ele>
        <time>2016-11-26T11:19:47Z</time>
      </trkpt>
      <trkpt lat="46.00391" lon="4.70488">
        <ele>200</ele>
        <time>2016-11-26T11:19:48Z</time>
      </trkpt>
      <trkpt lat="46.00385" lon="4.70488">
        <ele>200</ele>
        <time>2016-11-26T11:19:49Z</time>
      </trkpt>
      <trkpt lat="46.00378" lon="4.70489">
        <ele>200</ele>
        <time>2016-11-26T11:19:50Z</time>
      </trkpt>
      <trkpt lat="46.00371" lon="4.7049">
        <ele>200</ele>
        <time>2016-11-26T11:19:51Z</time>
      </trkpt>
      <trkpt lat="46.00364" lon="4.70491">
        <ele>200</ele>
        <time>2016-11-26T11:19:52Z</time>
      </trkpt>
      <trkpt lat="46.00357" lon="4.70493">
        <ele>200</ele>
        <time>2016-11-26T11:19:53Z</time>
      </trkpt>
      <trkpt lat="46.0035" lon="4.70495">
        <ele>199</ele>
        <time>2016-11-26T11:19:54Z</time>
      </trkpt>
      <trkpt lat="46.00343" lon="4.70496">
        <ele>199</ele>
        <time>2016-11-26T11:19:55Z</time>
      </trkpt>
      <trkpt lat="46.00336" lon="4.70498">
        <ele>198</ele>
        <time>2016-11-26T11:19:56Z</time>
      </trkpt>
      <trkpt lat="46.00329" lon="4.705">
        <ele>198</ele>
        <time>2016-11-26T11:19:57Z</time>
      </trkpt>
      <trkpt lat="46.00322" lon="4.70502">
        <ele>198</ele>
        <time>2016-11-26T11:19:58Z</time>
      </trkpt>
      <trkpt lat="46.00316" lon="4.70503">
        <ele>198</ele>
        <time>2016-11-26T11:19:59Z</time>
      </trkpt>
      <trkpt lat="46.0031" lon="4.70504">
        <ele>197</ele>
        <time>2016-11-26T11:20:00Z</time>
      </trkpt>
      <trkpt lat="46.00303" lon="4.70505">
        <ele>197</ele>
        <time>2016-11-26T11:20:01Z</time>
      </trkpt>
      <trkpt lat="46.00296" lon="4.70506">
        <ele>197</ele>
        <time>2016-11-26T11:20:02Z</time>
      </trkpt>
      <trkpt lat="46.0029" lon="4.70507">
        <ele>197</ele>
        <time>2016-11-26T11:20:03Z</time>
      </trkpt>
      <trkpt lat="46.00283" lon="4.70509">
        <ele>197</ele>
        <time>2016-11-26T11:20:04Z</time>
      </trkpt>
      <trkpt lat="46.00276" lon="4.7051">
        <ele>197</ele>
        <time>2016-11-26T11:20:05Z</time>
      </trkpt>
      <trkpt lat="46.00269" lon="4.70511">
        <ele>197</ele>
        <time>2016-11-26T11:20:06Z</time>
      </trkpt>
      <trkpt lat="46.00262" lon="4.70512">
        <ele>198</ele>
        <time>2016-11-26T11:20:07Z</time>
      </trkpt>
      <trkpt lat="46.00256" lon="4.70513">
        <ele>198</ele>
        <time>2016-11-26T11:20:08Z</time>
      </trkpt>
      <trkpt lat="46.00249" lon="4.70515">
        <ele>198</ele>
        <time>2016-11-26T11:20:09Z</time>
      </trkpt>
      <trkpt lat="46.00242" lon="4.70516">
        <ele>198</ele>
        <time>2016-11-26T11:20:10Z</time>
      </trkpt>
      <trkpt lat="46.00236" lon="4.70518">
        <ele>198</ele>
        <time>2016-11-26T11:20:11Z</time>
      </trkpt>
      <trkpt lat="46.0023" lon="4.7052">
        <ele>198</ele>
        <time>2016-11-26T11:20:12Z</time>
      </trkpt>
      <trkpt lat="46.00223" lon="4.70522">
        <ele>198</ele>
        <time>2016-11-26T11:20:13Z</time>
      </trkpt>
      <trkpt lat="46.00217" lon="4.70524">
        <ele>198</ele>
        <time>2016-11-26T11:20:14Z</time>
      </trkpt>
      <trkpt lat="46.00211" lon="4.70526">
        <ele>198</ele>
        <time>2016-11-26T11:20:15Z</time>
      </trkpt>
      <trkpt lat="46.00205" lon="4.70527">
        <ele>198</ele>
        <time>2016-11-26T11:20:16Z</time>
      </trkpt>
      <trkpt lat="46.00199" lon="4.70528">
        <ele>198</ele>
        <time>2016-11-26T11:20:17Z</time>
      </trkpt>
      <trkpt lat="46.00193" lon="4.70529">
        <ele>198</ele>
        <time>2016-11-26T11:20:18Z</time>
      </trkpt>
      <trkpt lat="46.00187" lon="4.70529">
        <ele>198</ele>
        <time>2016-11-26T11:20:19Z</time>
      </trkpt>
      <trkpt lat="46.00181" lon="4.7053">
        <ele>198</ele>
        <time>2016-11-26T11:20:20Z</time>
      </trkpt>
      <trkpt lat="46.00175" lon="4.7053">
        <ele>198</ele>
        <time>2016-11-26T11:20:21Z</time>
      </trkpt>
      <trkpt lat="46.00169" lon="4.70528">
        <ele>198</ele>
        <time>2016-11-26T11:20:22Z</time>
      </trkpt>
      <trkpt lat="46.00164" lon="4.70525">
        <ele>198</ele>
        <time>2016-11-26T11:20:23Z</time>
      </trkpt>
      <trkpt lat="46.00159" lon="4.70521">
        <ele>198</ele>
        <time>2016-11-26T11:20:24Z</time>
      </trkpt>
      <trkpt lat="46.00154" lon="4.70517">
        <ele>198</ele>
        <time>2016-11-26T11:20:25Z</time>
      </trkpt>
      <trkpt lat="46.00149" lon="4.70515">
        <ele>198</ele>
        <time>2016-11-26T11:20:26Z</time>
      </trkpt>
      <trkpt lat="46.00144" lon="4.70517">
        <ele>198</ele>
        <time>2016-11-26T11:20:27Z</time>
      </trkpt>
      <trkpt lat="46.00139" lon="4.70521">
        <ele>198</ele>
        <time>2016-11-26T11:20:28Z</time>
      </trkpt>
      <trkpt lat="46.00136" lon="4.70528">
        <ele>198</ele>
        <time>2016-11-26T11:20:29Z</time>
      </trkpt>
      <trkpt lat="46.00134" lon="4.70535">
        <ele>198</ele>
        <time>2016-11-26T11:20:30Z</time>
      </trkpt>
      <trkpt lat="46.00132" lon="4.70543">
        <ele>198</ele>
        <time>2016-11-26T11:20:31Z</time>
      </trkpt>
      <trkpt lat="46.0013" lon="4.70551">
        <ele>198</ele>
        <time>2016-11-26T11:20:32Z</time>
      </trkpt>
      <trkpt lat="46.00127" lon="4.70558">
        <ele>198</ele>
        <time>2016-11-26T11:20:33Z</time>
      </trkpt>
      <trkpt lat="46.00123" lon="4.70565">
        <ele>198</ele>
        <time>2016-11-26T11:20:34Z</time>
      </trkpt>
      <trkpt lat="46.00117" lon="4.70569">
        <ele>198</ele>
        <time>2016-11-26T11:20:35Z</time>
      </trkpt>
      <trkpt lat="46.00111" lon="4.70572">
        <ele>198</ele>
        <time>2016-11-26T11:20:36Z</time>
      </trkpt>
      <trkpt lat="46.00104" lon="4.70575">
        <ele>198</ele>
        <time>2016-11-26T11:20:37Z</time>
      </trkpt>
      <trkpt lat="46.00098" lon="4.70579">
        <ele>198</ele>
        <time>2016-11-26T11:20:38Z</time>
      </trkpt>
      <trkpt lat="46.00093" lon="4.70583">
        <ele>198</ele>
        <time>2016-11-26T11:20:39Z</time>
      </trkpt>
      <trkpt lat="46.00087" lon="4.70586">
        <ele>198</ele>
        <time>2016-11-26T11:20:40Z</time>
      </trkpt>
      <trkpt lat="46.00082" lon="4.70589">
        <ele>198</ele>
        <time>2016-11-26T11:20:41Z</time>
      </trkpt>
      <trkpt lat="46.00076" lon="4.70592">
        <ele>198</ele>
        <time>2016-11-26T11:20:42Z</time>
      </trkpt>
      <trkpt lat="46.0007" lon="4.70595">
        <ele>198</ele>
        <time>2016-11-26T11:20:43Z</time>
      </trkpt>
      <trkpt lat="46.00065" lon="4.70598">
        <ele>198</ele>
        <time>2016-11-26T11:20:44Z</time>
      </trkpt>
      <trkpt lat="46.00059" lon="4.70599">
        <ele>198</ele>
        <time>2016-11-26T11:20:45Z</time>
      </trkpt>
      <trkpt lat="46.00053" lon="4.70601">
        <ele>198</ele>
        <time>2016-11-26T11:20:46Z</time>
      </trkpt>
      <trkpt lat="46.00047" lon="4.70602">
        <ele>198</ele>
        <time>2016-11-26T11:20:47Z</time>
      </trkpt>
      <trkpt lat="46.0004" lon="4.70603">
        <ele>199</ele>
        <time>2016-11-26T11:20:48Z</time>
      </trkpt>
      <trkpt lat="46.00034" lon="4.70604">
        <ele>199</ele>
        <time>2016-11-26T11:20:49Z</time>
      </trkpt>
      <trkpt lat="46.00028" lon="4.70605">
        <ele>199</ele>
        <time>2016-11-26T11:20:50Z</time>
      </trkpt>
      <trkpt lat="46.00021" lon="4.70606">
        <ele>199</ele>
        <time>2016-11-26T11:20:51Z</time>
      </trkpt>
      <trkpt lat="46.00015" lon="4.70607">
        <ele>199</ele>
        <time>2016-11-26T11:20:52Z</time>
      </trkpt>
      <trkpt lat="46.00009" lon="4.70609">
        <ele>199</ele>
        <time>2016-11-26T11:20:53Z</time>
      </trkpt>
      <trkpt lat="46.00003" lon="4.7061">
        <ele>199</ele>
        <time>2016-11-26T11:20:54Z</time>
      </trkpt>
      <trkpt lat="45.99997" lon="4.70611">
        <ele>199</ele>
        <time>2016-11-26T11:20:55Z</time>
      </trkpt>
      <trkpt lat="45.99991" lon="4.70613">
        <ele>199</ele>
        <time>2016-11-26T11:20:56Z</time>
      </trkpt>
      <trkpt lat="45.99985" lon="4.70614">
        <ele>199</ele>
        <time>2016-11-26T11:20:57Z</time>
      </trkpt>
      <trkpt lat="45.99979" lon="4.70616">
        <ele>199</ele>
        <time>2016-11-26T11:20:58Z</time>
      </trkpt>
      <trkpt lat="45.99973" lon="4.70617">
        <ele>199</ele>
        <time>2016-11-26T11:20:59Z</time>
      </trkpt>
      <trkpt lat="45.99967" lon="4.70619">
        <ele>199</ele>
        <time>2016-11-26T11:21:00Z</time>
      </trkpt>
      <trkpt lat="45.99961" lon="4.7062">
        <ele>199</ele>
        <time>2016-11-26T11:21:01Z</time>
      </trkpt>
      <trkpt lat="45.99954" lon="4.70621">
        <ele>199</ele>
        <time>2016-11-26T11:21:02Z</time>
      </trkpt>
      <trkpt lat="45.99947" lon="4.70623">
        <ele>199</ele>
        <time>2016-11-26T11:21:03Z</time>
      </trkpt>
      <trkpt lat="45.9994" lon="4.70623">
        <ele>199</ele>
        <time>2016-11-26T11:21:04Z</time>
      </trkpt>
      <trkpt lat="45.99933" lon="4.70623">
        <ele>199</ele>
        <time>2016-11-26T11:21:05Z</time>
      </trkpt>
      <trkpt lat="45.99926" lon="4.70623">
        <ele>199</ele>
        <time>2016-11-26T11:21:06Z</time>
      </trkpt>
      <trkpt lat="45.99919" lon="4.70624">
        <ele>199</ele>
        <time>2016-11-26T11:21:07Z</time>
      </trkpt>
      <trkpt lat="45.99911" lon="4.70625">
        <ele>200</ele>
        <time>2016-11-26T11:21:08Z</time>
      </trkpt>
      <trkpt lat="45.99904" lon="4.70627">
        <ele>200</ele>
        <time>2016-11-26T11:21:09Z</time>
      </trkpt>
      <trkpt lat="45.99897" lon="4.70628">
        <ele>200</ele>
        <time>2016-11-26T11:21:10Z</time>
      </trkpt>
      <trkpt lat="45.9989" lon="4.70629">
        <ele>200</ele>
        <time>2016-11-26T11:21:11Z</time>
      </trkpt>
      <trkpt lat="45.99883" lon="4.70631">
        <ele>201</ele>
        <time>2016-11-26T11:21:12Z</time>
      </trkpt>
      <trkpt lat="45.99876" lon="4.70632">
        <ele>201</ele>
        <time>2016-11-26T11:21:13Z</time>
      </trkpt>
      <trkpt lat="45.9987" lon="4.70634">
        <ele>201</ele>
        <time>2016-11-26T11:21:14Z</time>
      </trkpt>
      <trkpt lat="45.99864" lon="4.70635">
        <ele>201</ele>
        <time>2016-11-26T11:21:15Z</time>
      </trkpt>
      <trkpt lat="45.99858" lon="4.70637">
        <ele>201</ele>
        <time>2016-11-26T11:21:16Z</time>
      </trkpt>
      <trkpt lat="45.99852" lon="4.70639">
        <ele>201</ele>
        <time>2016-11-26T11:21:17Z</time>
      </trkpt>
      <trkpt lat="45.99846" lon="4.7064">
        <ele>201</ele>
        <time>2016-11-26T11:21:18Z</time>
      </trkpt>
      <trkpt lat="45.9984" lon="4.70641">
        <ele>201</ele>
        <time>2016-11-26T11:21:19Z</time>
      </trkpt>
      <trkpt lat="45.99834" lon="4.70642">
        <ele>201</ele>
        <time>2016-11-26T11:21:20Z</time>
      </trkpt>
      <trkpt lat="45.99829" lon="4.70643">
        <ele>202</ele>
        <time>2016-11-26T11:21:21Z</time>
      </trkpt>
      <trkpt lat="45.99823" lon="4.70644">
        <ele>202</ele>
        <time>2016-11-26T11:21:22Z</time>
      </trkpt>
      <trkpt lat="45.99817" lon="4.70646">
        <ele>202</ele>
        <time>2016-11-26T11:21:23Z</time>
      </trkpt>
      <trkpt lat="45.99812" lon="4.70647">
        <ele>202</ele>
        <time>2016-11-26T11:21:24Z</time>
      </trkpt>
      <trkpt lat="45.99806" lon="4.70648">
        <ele>202</ele>
        <time>2016-11-26T11:21:25Z</time>
      </trkpt>
      <trkpt lat="45.99801" lon="4.70648">
        <ele>202</ele>
        <time>2016-11-26T11:21:26Z</time>
      </trkpt>
      <trkpt lat="45.99795" lon="4.70649">
        <ele>202</ele>
        <time>2016-11-26T11:21:27Z</time>
      </trkpt>
      <trkpt lat="45.99789" lon="4.7065">
        <ele>202</ele>
        <time>2016-11-26T11:21:28Z</time>
      </trkpt>
      <trkpt lat="45.99783" lon="4.70652">
        <ele>202</ele>
        <time>2016-11-26T11:21:29Z</time>
      </trkpt>
      <trkpt lat="45.99778" lon="4.70653">
        <ele>202</ele>
        <time>2016-11-26T11:21:30Z</time>
      </trkpt>
      <trkpt lat="45.99772" lon="4.70654">
        <ele>202</ele>
        <time>2016-11-26T11:21:31Z</time>
      </trkpt>
      <trkpt lat="45.99766" lon="4.70656">
        <ele>202</ele>
        <time>2016-11-26T11:21:32Z</time>
      </trkpt>
      <trkpt lat="45.9976" lon="4.70657">
        <ele>202</ele>
        <time>2016-11-26T11:21:33Z</time>
      </trkpt>
      <trkpt lat="45.99753" lon="4.70659">
        <ele>202</ele>
        <time>2016-11-26T11:21:34Z</time>
      </trkpt>
      <trkpt lat="45.99747" lon="4.70661">
        <ele>202</ele>
        <time>2016-11-26T11:21:35Z</time>
      </trkpt>
      <trkpt lat="45.99741" lon="4.70662">
        <ele>202</ele>
        <time>2016-11-26T11:21:36Z</time>
      </trkpt>
      <trkpt lat="45.99735" lon="4.70663">
        <ele>202</ele>
        <time>2016-11-26T11:21:37Z</time>
      </trkpt>
      <trkpt lat="45.99729" lon="4.70664">
        <ele>202</ele>
        <time>2016-11-26T11:21:38Z</time>
      </trkpt>
      <trkpt lat="45.99723" lon="4.70666">
        <ele>202</ele>
        <time>2016-11-26T11:21:39Z</time>
      </trkpt>
      <trkpt lat="45.99718" lon="4.70667">
        <ele>202</ele>
        <time>2016-11-26T11:21:40Z</time>
      </trkpt>
      <trkpt lat="45.99713" lon="4.70668">
        <ele>201</ele>
        <time>2016-11-26T11:21:41Z</time>
      </trkpt>
      <trkpt lat="45.99707" lon="4.70669">
        <ele>201</ele>
        <time>2016-11-26T11:21:42Z</time>
      </trkpt>
      <trkpt lat="45.99702" lon="4.70671">
        <ele>201</ele>
        <time>2016-11-26T11:21:43Z</time>
      </trkpt>
      <trkpt lat="45.99696" lon="4.70672">
        <ele>201</ele>
        <time>2016-11-26T11:21:44Z</time>
      </trkpt>
      <trkpt lat="45.99691" lon="4.70673">
        <ele>201</ele>
        <time>2016-11-26T11:21:45Z</time>
      </trkpt>
      <trkpt lat="45.99685" lon="4.70673">
        <ele>201</ele>
        <time>2016-11-26T11:21:46Z</time>
      </trkpt>
      <trkpt lat="45.99679" lon="4.70675">
        <ele>201</ele>
        <time>2016-11-26T11:21:47Z</time>
      </trkpt>
      <trkpt lat="45.99673" lon="4.70676">
        <ele>201</ele>
        <time>2016-11-26T11:21:48Z</time>
      </trkpt>
      <trkpt lat="45.99667" lon="4.70677">
        <ele>201</ele>
        <time>2016-11-26T11:21:49Z</time>
      </trkpt>
      <trkpt lat="45.99661" lon="4.70679">
        <ele>201</ele>
        <time>2016-11-26T11:21:50Z</time>
      </trkpt>
      <trkpt lat="45.99655" lon="4.70681">
        <ele>201</ele>
        <time>2016-11-26T11:21:51Z</time>
      </trkpt>
      <trkpt lat="45.9965" lon="4.70682">
        <ele>201</ele>
        <time>2016-11-26T11:21:52Z</time>
      </trkpt>
      <trkpt lat="45.99644" lon="4.70683">
        <ele>201</ele>
        <time>2016-11-26T11:21:53Z</time>
      </trkpt>
      <trkpt lat="45.99638" lon="4.70685">
        <ele>200</ele>
        <time>2016-11-26T11:21:54Z</time>
      </trkpt>
      <trkpt lat="45.99631" lon="4.70686">
        <ele>200</ele>
        <time>2016-11-26T11:21:55Z</time>
      </trkpt>
      <trkpt lat="45.99625" lon="4.70687">
        <ele>200</ele>
        <time>2016-11-26T11:21:56Z</time>
      </trkpt>
      <trkpt lat="45.9962" lon="4.70687">
        <ele>200</ele>
        <time>2016-11-26T11:21:57Z</time>
      </trkpt>
      <trkpt lat="45.99614" lon="4.70688">
        <ele>200</ele>
        <time>2016-11-26T11:21:58Z</time>
      </trkpt>
      <trkpt lat="45.99609" lon="4.70689">
        <ele>200</ele>
        <time>2016-11-26T11:21:59Z</time>
      </trkpt>
      <trkpt lat="45.99603" lon="4.70691">
        <ele>200</ele>
        <time>2016-11-26T11:22:00Z</time>
      </trkpt>
      <trkpt lat="45.99598" lon="4.70694">
        <ele>200</ele>
        <time>2016-11-26T11:22:01Z</time>
      </trkpt>
      <trkpt lat="45.99592" lon="4.70696">
        <ele>200</ele>
        <time>2016-11-26T11:22:02Z</time>
      </trkpt>
      <trkpt lat="45.99586" lon="4.70697">
        <ele>200</ele>
        <time>2016-11-26T11:22:03Z</time>
      </trkpt>
      <trkpt lat="45.9958" lon="4.70698">
        <ele>200</ele>
        <time>2016-11-26T11:22:04Z</time>
      </trkpt>
      <trkpt lat="45.99575" lon="4.70699">
        <ele>200</ele>
        <time>2016-11-26T11:22:05Z</time>
      </trkpt>
      <trkpt lat="45.9957" lon="4.707">
        <ele>200</ele>
        <time>2016-11-26T11:22:06Z</time>
      </trkpt>
      <trkpt lat="45.99564" lon="4.70702">
        <ele>200</ele>
        <time>2016-11-26T11:22:07Z</time>
      </trkpt>
      <trkpt lat="45.99559" lon="4.70703">
        <ele>200</ele>
        <time>2016-11-26T11:22:08Z</time>
      </trkpt>
      <trkpt lat="45.99553" lon="4.70705">
        <ele>200</ele>
        <time>2016-11-26T11:22:09Z</time>
      </trkpt>
      <trkpt lat="45.99547" lon="4.70705">
        <ele>200</ele>
        <time>2016-11-26T11:22:10Z</time>
      </trkpt>
      <trkpt lat="45.99542" lon="4.70707">
        <ele>200</ele>
        <time>2016-11-26T11:22:11Z</time>
      </trkpt>
      <trkpt lat="45.99536" lon="4.70708">
        <ele>199</ele>
        <time>2016-11-26T11:22:12Z</time>
      </trkpt>
      <trkpt lat="45.99531" lon="4.70709">
        <ele>199</ele>
        <time>2016-11-26T11:22:13Z</time>
      </trkpt>
      <trkpt lat="45.99525" lon="4.7071">
        <ele>199</ele>
        <time>2016-11-26T11:22:14Z</time>
      </trkpt>
      <trkpt lat="45.9952" lon="4.70712">
        <ele>199</ele>
        <time>2016-11-26T11:22:15Z</time>
      </trkpt>
      <trkpt lat="45.99514" lon="4.70713">
        <ele>199</ele>
        <time>2016-11-26T11:22:16Z</time>
      </trkpt>
      <trkpt lat="45.99509" lon="4.70714">
        <ele>199</ele>
        <time>2016-11-26T11:22:17Z</time>
      </trkpt>
      <trkpt lat="45.99503" lon="4.70715">
        <ele>199</ele>
        <time>2016-11-26T11:22:18Z</time>
      </trkpt>
      <trkpt lat="45.99498" lon="4.70716">
        <ele>199</ele>
        <time>2016-11-26T11:22:19Z</time>
      </trkpt>
      <trkpt lat="45.99492" lon="4.70718">
        <ele>199</ele>
        <time>2016-11-26T11:22:20Z</time>
      </trkpt>
      <trkpt lat="45.99487" lon="4.7072">
        <ele>199</ele>
        <time>2016-11-26T11:22:21Z</time>
      </trkpt>
      <trkpt lat="45.99482" lon="4.70721">
        <ele>199</ele>
        <time>2016-11-26T11:22:22Z</time>
      </trkpt>
      <trkpt lat="45.99477" lon="4.70721">
        <ele>199</ele>
        <time>2016-11-26T11:22:23Z</time>
      </trkpt>
      <trkpt lat="45.99472" lon="4.7072">
        <ele>200</ele>
        <time>2016-11-26T11:22:24Z</time>
      </trkpt>
      <trkpt lat="45.99467" lon="4.70719">
        <ele>200</ele>
        <time>2016-11-26T11:22:25Z</time>
      </trkpt>
      <trkpt lat="45.99461" lon="4.7072">
        <ele>200</ele>
        <time>2016-11-26T11:22:26Z</time>
      </trkpt>
      <trkpt lat="45.99456" lon="4.70721">
        <ele>200</ele>
        <time>2016-11-26T11:22:27Z</time>
      </trkpt>
      <trkpt lat="45.99451" lon="4.70721">
        <ele>200</ele>
        <time>2016-11-26T11:22:28Z</time>
      </trkpt>
      <trkpt lat="45.99446" lon="4.7072">
        <ele>200</ele>
        <time>2016-11-26T11:22:29Z</time>
      </trkpt>
      <trkpt lat="45.99442" lon="4.70719">
        <ele>200</ele>
        <time>2016-11-26T11:22:30Z</time>
      </trkpt>
      <trkpt lat="45.99437" lon="4.70718">
        <ele>200</ele>
        <time>2016-11-26T11:22:31Z</time>
      </trkpt>
      <trkpt lat="45.99429" lon="4.70717">
        <ele>200</ele>
        <time>2016-11-26T11:22:33Z</time>
      </trkpt>
      <trkpt lat="45.99426" lon="4.70716">
        <ele>200</ele>
        <time>2016-11-26T11:22:34Z</time>
      </trkpt>
      <trkpt lat="45.99422" lon="4.70716">
        <ele>200</ele>
        <time>2016-11-26T11:22:36Z</time>
      </trkpt>
      <trkpt lat="45.99421" lon="4.70716">
        <ele>200</ele>
        <time>2016-11-26T11:22:37Z</time>
      </trkpt>
      <trkpt lat="45.99419" lon="4.70715">
        <ele>200</ele>
        <time>2016-11-26T11:22:50Z</time>
      </trkpt>
      <trkpt lat="45.99418" lon="4.70714">
        <ele>200</ele>
        <time>2016-11-26T11:22:51Z</time>
      </trkpt>
      <trkpt lat="45.99409" lon="4.70714">
        <ele>199</ele>
        <time>2016-11-26T11:24:39Z</time>
      </trkpt>
      <trkpt lat="45.99407" lon="4.70714">
        <ele>199</ele>
        <time>2016-11-26T11:24:40Z</time>
      </trkpt>
      <trkpt lat="45.994" lon="4.70714">
        <ele>199</ele>
        <time>2016-11-26T11:24:43Z</time>
      </trkpt>
      <trkpt lat="45.99397" lon="4.70714">
        <ele>199</ele>
        <time>2016-11-26T11:24:44Z</time>
      </trkpt>
      <trkpt lat="45.99389" lon="4.70717">
        <ele>199</ele>
        <time>2016-11-26T11:24:47Z</time>
      </trkpt>
      <trkpt lat="45.99386" lon="4.70717">
        <ele>199</ele>
        <time>2016-11-26T11:24:48Z</time>
      </trkpt>
      <trkpt lat="45.99377" lon="4.70716">
        <ele>198</ele>
        <time>2016-11-26T11:24:51Z</time>
      </trkpt>
      <trkpt lat="45.99373" lon="4.70714">
        <ele>198</ele>
        <time>2016-11-26T11:24:52Z</time>
      </trkpt>
      <trkpt lat="45.99364" lon="4.70713">
        <ele>198</ele>
        <time>2016-11-26T11:24:54Z</time>
      </trkpt>
      <trkpt lat="45.9936" lon="4.70711">
        <ele>198</ele>
        <time>2016-11-26T11:24:55Z</time>
      </trkpt>
      <trkpt lat="45.99355" lon="4.70711">
        <ele>198</ele>
        <time>2016-11-26T11:24:56Z</time>
      </trkpt>
      <trkpt lat="45.9935" lon="4.70711">
        <ele>198</ele>
        <time>2016-11-26T11:24:57Z</time>
      </trkpt>
      <trkpt lat="45.99346" lon="4.70711">
        <ele>198</ele>
        <time>2016-11-26T11:24:58Z</time>
      </trkpt>
      <trkpt lat="45.99341" lon="4.70711">
        <ele>197</ele>
        <time>2016-11-26T11:24:59Z</time>
      </trkpt>
      <trkpt lat="45.99336" lon="4.7071">
        <ele>197</ele>
        <time>2016-11-26T11:25:00Z</time>
      </trkpt>
      <trkpt lat="45.99331" lon="4.70711">
        <ele>196</ele>
        <time>2016-11-26T11:25:01Z</time>
      </trkpt>
      <trkpt lat="45.99326" lon="4.70711">
        <ele>196</ele>
        <time>2016-11-26T11:25:02Z</time>
      </trkpt>
      <trkpt lat="45.9932" lon="4.70711">
        <ele>196</ele>
        <time>2016-11-26T11:25:03Z</time>
      </trkpt>
      <trkpt lat="45.99315" lon="4.7071">
        <ele>196</ele>
        <time>2016-11-26T11:25:04Z</time>
      </trkpt>
      <trkpt lat="45.99311" lon="4.7071">
        <ele>196</ele>
        <time>2016-11-26T11:25:05Z</time>
      </trkpt>
      <trkpt lat="45.99306" lon="4.70711">
        <ele>196</ele>
        <time>2016-11-26T11:25:06Z</time>
      </trkpt>
      <trkpt lat="45.99301" lon="4.70711">
        <ele>196</ele>
        <time>2016-11-26T11:25:07Z</time>
      </trkpt>
      <trkpt lat="45.99297" lon="4.70711">
        <ele>196</ele>
        <time>2016-11-26T11:25:08Z</time>
      </trkpt>
      <trkpt lat="45.99292" lon="4.70711">
        <ele>196</ele>
        <time>2016-11-26T11:25:09Z</time>
      </trkpt>
      <trkpt lat="45.99287" lon="4.70711">
        <ele>196</ele>
        <time>2016-11-26T11:25:10Z</time>
      </trkpt>
      <trkpt lat="45.99281" lon="4.70712">
        <ele>196</ele>
        <time>2016-11-26T11:25:11Z</time>
      </trkpt>
      <trkpt lat="45.99276" lon="4.70711">
        <ele>196</ele>
        <time>2016-11-26T11:25:12Z</time>
      </trkpt>
      <trkpt lat="45.99271" lon="4.70711">
        <ele>196</ele>
        <time>2016-11-26T11:25:13Z</time>
      </trkpt>
      <trkpt lat="45.99266" lon="4.70712">
        <ele>196</ele>
        <time>2016-11-26T11:25:14Z</time>
      </trkpt>
      <trkpt lat="45.99261" lon="4.70712">
        <ele>196</ele>
        <time>2016-11-26T11:25:15Z</time>
      </trkpt>
      <trkpt lat="45.99256" lon="4.70713">
        <ele>196</ele>
        <time>2016-11-26T11:25:16Z</time>
      </trkpt>
      <trkpt lat="45.99251" lon="4.70713">
        <ele>196</ele>
        <time>2016-11-26T11:25:17Z</time>
      </trkpt>
      <trkpt lat="45.99246" lon="4.70713">
        <ele>196</ele>
        <time>2016-11-26T11:25:18Z</time>
      </trkpt>
      <trkpt lat="45.99241" lon="4.70712">
        <ele>196</ele>
        <time>2016-11-26T11:25:19Z</time>
      </trkpt>
      <trkpt lat="45.99236" lon="4.70712">
        <ele>196</ele>
        <time>2016-11-26T11:25:20Z</time>
      </trkpt>
      <trkpt lat="45.9923" lon="4.70712">
        <ele>196</ele>
        <time>2016-11-26T11:25:21Z</time>
      </trkpt>
      <trkpt lat="45.99224" lon="4.70711">
        <ele>196</ele>
        <time>2016-11-26T11:25:22Z</time>
      </trkpt>
      <trkpt lat="45.99218" lon="4.70711">
        <ele>196</ele>
        <time>2016-11-26T11:25:23Z</time>
      </trkpt>
      <trkpt lat="45.99212" lon="4.70711">
        <ele>196</ele>
        <time>2016-11-26T11:25:24Z</time>
      </trkpt>
      <trkpt lat="45.99206" lon="4.70711">
        <ele>196</ele>
        <time>2016-11-26T11:25:25Z</time>
      </trkpt>
      <trkpt lat="45.992" lon="4.7071">
        <ele>196</ele>
        <time>2016-11-26T11:25:26Z</time>
      </trkpt>
      <trkpt lat="45.99193" lon="4.7071">
        <ele>196</ele>
        <time>2016-11-26T11:25:27Z</time>
      </trkpt>
      <trkpt lat="45.99187" lon="4.7071">
        <ele>196</ele>
        <time>2016-11-26T11:25:28Z</time>
      </trkpt>
      <trkpt lat="45.9918" lon="4.70709">
        <ele>196</ele>
        <time>2016-11-26T11:25:29Z</time>
      </trkpt>
      <trkpt lat="45.99174" lon="4.70708">
        <ele>196</ele>
        <time>2016-11-26T11:25:30Z</time>
      </trkpt>
      <trkpt lat="45.99167" lon="4.70708">
        <ele>196</ele>
        <time>2016-11-26T11:25:31Z</time>
      </trkpt>
      <trkpt lat="45.99161" lon="4.70707">
        <ele>195</ele>
        <time>2016-11-26T11:25:32Z</time>
      </trkpt>
      <trkpt lat="45.99155" lon="4.70707">
        <ele>195</ele>
        <time>2016-11-26T11:25:33Z</time>
      </trkpt>
      <trkpt lat="45.99148" lon="4.70707">
        <ele>195</ele>
        <time>2016-11-26T11:25:34Z</time>
      </trkpt>
      <trkpt lat="45.99142" lon="4.70706">
        <ele>195</ele>
        <time>2016-11-26T11:25:35Z</time>
      </trkpt>
      <trkpt lat="45.99136" lon="4.70706">
        <ele>195</ele>
        <time>2016-11-26T11:25:36Z</time>
      </trkpt>
      <trkpt lat="45.9913" lon="4.70707">
        <ele>195</ele>
        <time>2016-11-26T11:25:37Z</time>
      </trkpt>
      <trkpt lat="45.99125" lon="4.70707">
        <ele>195</ele>
        <time>2016-11-26T11:25:38Z</time>
      </trkpt>
      <trkpt lat="45.9912" lon="4.70707">
        <ele>195</ele>
        <time>2016-11-26T11:25:39Z</time>
      </trkpt>
      <trkpt lat="45.99112" lon="4.70707">
        <ele>195</ele>
        <time>2016-11-26T11:25:41Z</time>
      </trkpt>
      <trkpt lat="45.99107" lon="4.70707">
        <ele>195</ele>
        <time>2016-11-26T11:25:42Z</time>
      </trkpt>
      <trkpt lat="45.99102" lon="4.70707">
        <ele>195</ele>
        <time>2016-11-26T11:25:43Z</time>
      </trkpt>
      <trkpt lat="45.99097" lon="4.70707">
        <ele>195</ele>
        <time>2016-11-26T11:25:44Z</time>
      </trkpt>
      <trkpt lat="45.99092" lon="4.70707">
        <ele>195</ele>
        <time>2016-11-26T11:25:45Z</time>
      </trkpt>
      <trkpt lat="45.99086" lon="4.70706">
        <ele>195</ele>
        <time>2016-11-26T11:25:46Z</time>
      </trkpt>
      <trkpt lat="45.99079" lon="4.70706">
        <ele>193</ele>
        <time>2016-11-26T11:25:47Z</time>
      </trkpt>
      <trkpt lat="45.99072" lon="4.70705">
        <ele>193</ele>
        <time>2016-11-26T11:25:48Z</time>
      </trkpt>
      <trkpt lat="45.99065" lon="4.70704">
        <ele>193</ele>
        <time>2016-11-26T11:25:49Z</time>
      </trkpt>
      <trkpt lat="45.99058" lon="4.70703">
        <ele>193</ele>
        <time>2016-11-26T11:25:50Z</time>
      </trkpt>
      <trkpt lat="45.9905" lon="4.70703">
        <ele>193</ele>
        <time>2016-11-26T11:25:51Z</time>
      </trkpt>
      <trkpt lat="45.99043" lon="4.70702">
        <ele>193</ele>
        <time>2016-11-26T11:25:52Z</time>
      </trkpt>
      <trkpt lat="45.99035" lon="4.70703">
        <ele>192</ele>
        <time>2016-11-26T11:25:53Z</time>
      </trkpt>
      <trkpt lat="45.99028" lon="4.70703">
        <ele>192</ele>
        <time>2016-11-26T11:25:54Z</time>
      </trkpt>
      <trkpt lat="45.9902" lon="4.70703">
        <ele>192</ele>
        <time>2016-11-26T11:25:55Z</time>
      </trkpt>
      <trkpt lat="45.99013" lon="4.70704">
        <ele>192</ele>
        <time>2016-11-26T11:25:56Z</time>
      </trkpt>
      <trkpt lat="45.99006" lon="4.70705">
        <ele>192</ele>
        <time>2016-11-26T11:25:57Z</time>
      </trkpt>
      <trkpt lat="45.98999" lon="4.70706">
        <ele>191</ele>
        <time>2016-11-26T11:25:58Z</time>
      </trkpt>
      <trkpt lat="45.98993" lon="4.70709">
        <ele>191</ele>
        <time>2016-11-26T11:25:59Z</time>
      </trkpt>
      <trkpt lat="45.98986" lon="4.70712">
        <ele>191</ele>
        <time>2016-11-26T11:26:00Z</time>
      </trkpt>
      <trkpt lat="45.9898" lon="4.70715">
        <ele>191</ele>
        <time>2016-11-26T11:26:01Z</time>
      </trkpt>
      <trkpt lat="45.98974" lon="4.7072">
        <ele>191</ele>
        <time>2016-11-26T11:26:02Z</time>
      </trkpt>
      <trkpt lat="45.98968" lon="4.70726">
        <ele>191</ele>
        <time>2016-11-26T11:26:03Z</time>
      </trkpt>
      <trkpt lat="45.98964" lon="4.70734">
        <ele>191</ele>
        <time>2016-11-26T11:26:04Z</time>
      </trkpt>
      <trkpt lat="45.98959" lon="4.70741">
        <ele>191</ele>
        <time>2016-11-26T11:26:05Z</time>
      </trkpt>
      <trkpt lat="45.98955" lon="4.70748">
        <ele>190</ele>
        <time>2016-11-26T11:26:06Z</time>
      </trkpt>
      <trkpt lat="45.98951" lon="4.70755">
        <ele>189</ele>
        <time>2016-11-26T11:26:07Z</time>
      </trkpt>
      <trkpt lat="45.98948" lon="4.70762">
        <ele>189</ele>
        <time>2016-11-26T11:26:08Z</time>
      </trkpt>
      <trkpt lat="45.98945" lon="4.70769">
        <ele>189</ele>
        <time>2016-11-26T11:26:09Z</time>
      </trkpt>
      <trkpt lat="45.98942" lon="4.70775">
        <ele>189</ele>
        <time>2016-11-26T11:26:10Z</time>
      </trkpt>
      <trkpt lat="45.98939" lon="4.7078">
        <ele>189</ele>
        <time>2016-11-26T11:26:11Z</time>
      </trkpt>
      <trkpt lat="45.98936" lon="4.70785">
        <ele>189</ele>
        <time>2016-11-26T11:26:12Z</time>
      </trkpt>
      <trkpt lat="45.98933" lon="4.70791">
        <ele>189</ele>
        <time>2016-11-26T11:26:13Z</time>
      </trkpt>
      <trkpt lat="45.98929" lon="4.70797">
        <ele>189</ele>
        <time>2016-11-26T11:26:14Z</time>
      </trkpt>
      <trkpt lat="45.98926" lon="4.70804">
        <ele>188</ele>
        <time>2016-11-26T11:26:15Z</time>
      </trkpt>
      <trkpt lat="45.98922" lon="4.7081">
        <ele>188</ele>
        <time>2016-11-26T11:26:16Z</time>
      </trkpt>
      <trkpt lat="45.98918" lon="4.70817">
        <ele>188</ele>
        <time>2016-11-26T11:26:17Z</time>
      </trkpt>
      <trkpt lat="45.98914" lon="4.70824">
        <ele>187</ele>
        <time>2016-11-26T11:26:18Z</time>
      </trkpt>
      <trkpt lat="45.9891" lon="4.70831">
        <ele>187</ele>
        <time>2016-11-26T11:26:19Z</time>
      </trkpt>
      <trkpt lat="45.98906" lon="4.70838">
        <ele>187</ele>
        <time>2016-11-26T11:26:20Z</time>
      </trkpt>
      <trkpt lat="45.98903" lon="4.70845">
        <ele>186</ele>
        <time>2016-11-26T11:26:21Z</time>
      </trkpt>
      <trkpt lat="45.98899" lon="4.70851">
        <ele>186</ele>
        <time>2016-11-26T11:26:22Z</time>
      </trkpt>
      <trkpt lat="45.98895" lon="4.70858">
        <ele>186</ele>
        <time>2016-11-26T11:26:23Z</time>
      </trkpt>
      <trkpt lat="45.98892" lon="4.70865">
        <ele>186</ele>
        <time>2016-11-26T11:26:24Z</time>
      </trkpt>
      <trkpt lat="45.98888" lon="4.70872">
        <ele>186</ele>
        <time>2016-11-26T11:26:25Z</time>
      </trkpt>
      <trkpt lat="45.98884" lon="4.70879">
        <ele>186</ele>
        <time>2016-11-26T11:26:26Z</time>
      </trkpt>
      <trkpt lat="45.9888" lon="4.70886">
        <ele>186</ele>
        <time>2016-11-26T11:26:27Z</time>
      </trkpt>
      <trkpt lat="45.98876" lon="4.70894">
        <ele>186</ele>
        <time>2016-11-26T11:26:28Z</time>
      </trkpt>
      <trkpt lat="45.98872" lon="4.70901">
        <ele>186</ele>
        <time>2016-11-26T11:26:29Z</time>
      </trkpt>
      <trkpt lat="45.98868" lon="4.70908">
        <ele>186</ele>
        <time>2016-11-26T11:26:30Z</time>
      </trkpt>
      <trkpt lat="45.98864" lon="4.70915">
        <ele>186</ele>
        <time>2016-11-26T11:26:31Z</time>
      </trkpt>
      <trkpt lat="45.98861" lon="4.70922">
        <ele>185</ele>
        <time>2016-11-26T11:26:32Z</time>
      </trkpt>
      <trkpt lat="45.98857" lon="4.7093">
        <ele>185</ele>
        <time>2016-11-26T11:26:33Z</time>
      </trkpt>
      <trkpt lat="45.98854" lon="4.70938">
        <ele>185</ele>
        <time>2016-11-26T11:26:34Z</time>
      </trkpt>
      <trkpt lat="45.98851" lon="4.70946">
        <ele>185</ele>
        <time>2016-11-26T11:26:35Z</time>
      </trkpt>
      <trkpt lat="45.98848" lon="4.70954">
        <ele>185</ele>
        <time>2016-11-26T11:26:36Z</time>
      </trkpt>
      <trkpt lat="45.98845" lon="4.70962">
        <ele>185</ele>
        <time>2016-11-26T11:26:37Z</time>
      </trkpt>
      <trkpt lat="45.98842" lon="4.70971">
        <ele>185</ele>
        <time>2016-11-26T11:26:38Z</time>
      </trkpt>
      <trkpt lat="45.9884" lon="4.7098">
        <ele>185</ele>
        <time>2016-11-26T11:26:39Z</time>
      </trkpt>
      <trkpt lat="45.98838" lon="4.70989">
        <ele>185</ele>
        <time>2016-11-26T11:26:40Z</time>
      </trkpt>
      <trkpt lat="45.98836" lon="4.70998">
        <ele>185</ele>
        <time>2016-11-26T11:26:41Z</time>
      </trkpt>
      <trkpt lat="45.98834" lon="4.71006">
        <ele>185</ele>
        <time>2016-11-26T11:26:42Z</time>
      </trkpt>
      <trkpt lat="45.98832" lon="4.71015">
        <ele>186</ele>
        <time>2016-11-26T11:26:43Z</time>
      </trkpt>
      <trkpt lat="45.9883" lon="4.71024">
        <ele>186</ele>
        <time>2016-11-26T11:26:44Z</time>
      </trkpt>
      <trkpt lat="45.98828" lon="4.71032">
        <ele>186</ele>
        <time>2016-11-26T11:26:45Z</time>
      </trkpt>
      <trkpt lat="45.98825" lon="4.71039">
        <ele>187</ele>
        <time>2016-11-26T11:26:46Z</time>
      </trkpt>
      <trkpt lat="45.98822" lon="4.71046">
        <ele>187</ele>
        <time>2016-11-26T11:26:47Z</time>
      </trkpt>
      <trkpt lat="45.9882" lon="4.71054">
        <ele>187</ele>
        <time>2016-11-26T11:26:48Z</time>
      </trkpt>
      <trkpt lat="45.98818" lon="4.71062">
        <ele>187</ele>
        <time>2016-11-26T11:26:49Z</time>
      </trkpt>
      <trkpt lat="45.98816" lon="4.71071">
        <ele>187</ele>
        <time>2016-11-26T11:26:50Z</time>
      </trkpt>
      <trkpt lat="45.98814" lon="4.7108">
        <ele>187</ele>
        <time>2016-11-26T11:26:51Z</time>
      </trkpt>
      <trkpt lat="45.98811" lon="4.71088">
        <ele>188</ele>
        <time>2016-11-26T11:26:52Z</time>
      </trkpt>
      <trkpt lat="45.98809" lon="4.71097">
        <ele>188</ele>
        <time>2016-11-26T11:26:53Z</time>
      </trkpt>
      <trkpt lat="45.98807" lon="4.71105">
        <ele>187</ele>
        <time>2016-11-26T11:26:54Z</time>
      </trkpt>
      <trkpt lat="45.98804" lon="4.71113">
        <ele>187</ele>
        <time>2016-11-26T11:26:55Z</time>
      </trkpt>
      <trkpt lat="45.98802" lon="4.7112">
        <ele>187</ele>
        <time>2016-11-26T11:26:56Z</time>
      </trkpt>
      <trkpt lat="45.988" lon="4.71128">
        <ele>187</ele>
        <time>2016-11-26T11:26:57Z</time>
      </trkpt>
      <trkpt lat="45.98798" lon="4.71135">
        <ele>187</ele>
        <time>2016-11-26T11:26:58Z</time>
      </trkpt>
      <trkpt lat="45.98796" lon="4.71142">
        <ele>187</ele>
        <time>2016-11-26T11:26:59Z</time>
      </trkpt>
      <trkpt lat="45.98794" lon="4.71149">
        <ele>187</ele>
        <time>2016-11-26T11:27:00Z</time>
      </trkpt>
      <trkpt lat="45.98792" lon="4.71156">
        <ele>187</ele>
        <time>2016-11-26T11:27:01Z</time>
      </trkpt>
      <trkpt lat="45.9879" lon="4.71164">
        <ele>187</ele>
        <time>2016-11-26T11:27:02Z</time>
      </trkpt>
      <trkpt lat="45.98788" lon="4.71171">
        <ele>186</ele>
        <time>2016-11-26T11:27:03Z</time>
      </trkpt>
      <trkpt lat="45.98786" lon="4.71179">
        <ele>186</ele>
        <time>2016-11-26T11:27:04Z</time>
      </trkpt>
      <trkpt lat="45.98784" lon="4.71186">
        <ele>186</ele>
        <time>2016-11-26T11:27:05Z</time>
      </trkpt>
      <trkpt lat="45.98781" lon="4.71194">
        <ele>186</ele>
        <time>2016-11-26T11:27:06Z</time>
      </trkpt>
      <trkpt lat="45.98779" lon="4.71203">
        <ele>186</ele>
        <time>2016-11-26T11:27:07Z</time>
      </trkpt>
      <trkpt lat="45.98775" lon="4.7121">
        <ele>186</ele>
        <time>2016-11-26T11:27:08Z</time>
      </trkpt>
      <trkpt lat="45.98772" lon="4.71218">
        <ele>186</ele>
        <time>2016-11-26T11:27:09Z</time>
      </trkpt>
      <trkpt lat="45.98769" lon="4.71226">
        <ele>186</ele>
        <time>2016-11-26T11:27:10Z</time>
      </trkpt>
      <trkpt lat="45.98766" lon="4.71234">
        <ele>186</ele>
        <time>2016-11-26T11:27:11Z</time>
      </trkpt>
      <trkpt lat="45.98764" lon="4.71243">
        <ele>186</ele>
        <time>2016-11-26T11:27:12Z</time>
      </trkpt>
      <trkpt lat="45.98762" lon="4.71251">
        <ele>186</ele>
        <time>2016-11-26T11:27:13Z</time>
      </trkpt>
      <trkpt lat="45.98759" lon="4.71258">
        <ele>186</ele>
        <time>2016-11-26T11:27:14Z</time>
      </trkpt>
      <trkpt lat="45.98757" lon="4.71266">
        <ele>186</ele>
        <time>2016-11-26T11:27:15Z</time>
      </trkpt>
      <trkpt lat="45.98754" lon="4.71273">
        <ele>186</ele>
        <time>2016-11-26T11:27:16Z</time>
      </trkpt>
      <trkpt lat="45.98751" lon="4.7128">
        <ele>186</ele>
        <time>2016-11-26T11:27:17Z</time>
      </trkpt>
      <trkpt lat="45.98748" lon="4.71287">
        <ele>188</ele>
        <time>2016-11-26T11:27:18Z</time>
      </trkpt>
      <trkpt lat="45.98746" lon="4.71294">
        <ele>188</ele>
        <time>2016-11-26T11:27:19Z</time>
      </trkpt>
      <trkpt lat="45.98743" lon="4.71301">
        <ele>188</ele>
        <time>2016-11-26T11:27:20Z</time>
      </trkpt>
      <trkpt lat="45.98741" lon="4.71308">
        <ele>188</ele>
        <time>2016-11-26T11:27:21Z</time>
      </trkpt>
      <trkpt lat="45.9874" lon="4.71316">
        <ele>188</ele>
        <time>2016-11-26T11:27:22Z</time>
      </trkpt>
      <trkpt lat="45.98738" lon="4.71323">
        <ele>187</ele>
        <time>2016-11-26T11:27:23Z</time>
      </trkpt>
      <trkpt lat="45.98737" lon="4.7133">
        <ele>187</ele>
        <time>2016-11-26T11:27:24Z</time>
      </trkpt>
      <trkpt lat="45.98735" lon="4.71337">
        <ele>187</ele>
        <time>2016-11-26T11:27:25Z</time>
      </trkpt>
      <trkpt lat="45.98733" lon="4.71344">
        <ele>187</ele>
        <time>2016-11-26T11:27:26Z</time>
      </trkpt>
      <trkpt lat="45.98731" lon="4.71351">
        <ele>187</ele>
        <time>2016-11-26T11:27:27Z</time>
      </trkpt>
      <trkpt lat="45.98729" lon="4.71357">
        <ele>187</ele>
        <time>2016-11-26T11:27:28Z</time>
      </trkpt>
      <trkpt lat="45.98727" lon="4.71364">
        <ele>187</ele>
        <time>2016-11-26T11:27:29Z</time>
      </trkpt>
      <trkpt lat="45.98724" lon="4.71371">
        <ele>187</ele>
        <time>2016-11-26T11:27:30Z</time>
      </trkpt>
      <trkpt lat="45.98722" lon="4.71378">
        <ele>187</ele>
        <time>2016-11-26T11:27:31Z</time>
      </trkpt>
      <trkpt lat="45.98719" lon="4.71385">
        <ele>187</ele>
        <time>2016-11-26T11:27:32Z</time>
      </trkpt>
      <trkpt lat="45.98717" lon="4.71392">
        <ele>187</ele>
        <time>2016-11-26T11:27:33Z</time>
      </trkpt>
      <trkpt lat="45.98714" lon="4.71399">
        <ele>187</ele>
        <time>2016-11-26T11:27:34Z</time>
      </trkpt>
      <trkpt lat="45.98711" lon="4.71405">
        <ele>187</ele>
        <time>2016-11-26T11:27:35Z</time>
      </trkpt>
      <trkpt lat="45.9871" lon="4.71411">
        <ele>187</ele>
        <time>2016-11-26T11:27:36Z</time>
      </trkpt>
      <trkpt lat="45.98707" lon="4.7142">
        <ele>187</ele>
        <time>2016-11-26T11:27:38Z</time>
      </trkpt>
      <trkpt lat="45.98706" lon="4.71424">
        <ele>187</ele>
        <time>2016-11-26T11:27:39Z</time>
      </trkpt>
      <trkpt lat="45.98705" lon="4.71429">
        <ele>187</ele>
        <time>2016-11-26T11:27:49Z</time>
      </trkpt>
      <trkpt lat="45.98704" lon="4.71429">
        <ele>187</ele>
        <time>2016-11-26T11:27:50Z</time>
      </trkpt>
      <trkpt lat="45.98703" lon="4.71432">
        <ele>187</ele>
        <time>2016-11-26T11:27:51Z</time>
      </trkpt>
      <trkpt lat="45.98702" lon="4.71444">
        <ele>187</ele>
        <time>2016-11-26T11:27:56Z</time>
      </trkpt>
      <trkpt lat="45.98703" lon="4.71445">
        <ele>187</ele>
        <time>2016-11-26T11:27:57Z</time>
      </trkpt>
      <trkpt lat="45.98703" lon="4.71457">
        <ele>187</ele>
        <time>2016-11-26T11:28:02Z</time>
      </trkpt>
      <trkpt lat="45.98704" lon="4.71461">
        <ele>187</ele>
        <time>2016-11-26T11:28:03Z</time>
      </trkpt>
      <trkpt lat="45.98703" lon="4.71471">
        <ele>187</ele>
        <time>2016-11-26T11:28:06Z</time>
      </trkpt>
      <trkpt lat="45.98702" lon="4.71475">
        <ele>187</ele>
        <time>2016-11-26T11:28:07Z</time>
      </trkpt>
      <trkpt lat="45.98695" lon="4.71477">
        <ele>187</ele>
        <time>2016-11-26T11:28:10Z</time>
      </trkpt>
      <trkpt lat="45.98693" lon="4.71477">
        <ele>187</ele>
        <time>2016-11-26T11:28:11Z</time>
      </trkpt>
      <trkpt lat="45.98685" lon="4.71476">
        <ele>187</ele>
        <time>2016-11-26T11:28:14Z</time>
      </trkpt>
      <trkpt lat="45.98683" lon="4.71476">
        <ele>187</ele>
        <time>2016-11-26T11:28:15Z</time>
      </trkpt>
      <trkpt lat="45.98676" lon="4.71476">
        <ele>188</ele>
        <time>2016-11-26T11:28:17Z</time>
      </trkpt>
      <trkpt lat="45.98672" lon="4.71477">
        <ele>188</ele>
        <time>2016-11-26T11:28:18Z</time>
      </trkpt>
      <trkpt lat="45.98664" lon="4.71479">
        <ele>190</ele>
        <time>2016-11-26T11:28:20Z</time>
      </trkpt>
      <trkpt lat="45.9866" lon="4.71479">
        <ele>190</ele>
        <time>2016-11-26T11:28:21Z</time>
      </trkpt>
      <trkpt lat="45.98655" lon="4.71481">
        <ele>190</ele>
        <time>2016-11-26T11:28:22Z</time>
      </trkpt>
      <trkpt lat="45.9865" lon="4.71482">
        <ele>190</ele>
        <time>2016-11-26T11:28:23Z</time>
      </trkpt>
      <trkpt lat="45.98645" lon="4.71484">
        <ele>190</ele>
        <time>2016-11-26T11:28:24Z</time>
      </trkpt>
      <trkpt lat="45.98641" lon="4.71484">
        <ele>190</ele>
        <time>2016-11-26T11:28:25Z</time>
      </trkpt>
      <trkpt lat="45.98636" lon="4.71483">
        <ele>190</ele>
        <time>2016-11-26T11:28:26Z</time>
      </trkpt>
      <trkpt lat="45.98631" lon="4.71484">
        <ele>190</ele>
        <time>2016-11-26T11:28:27Z</time>
      </trkpt>
      <trkpt lat="45.98626" lon="4.71485">
        <ele>190</ele>
        <time>2016-11-26T11:28:28Z</time>
      </trkpt>
      <trkpt lat="45.98621" lon="4.71486">
        <ele>190</ele>
        <time>2016-11-26T11:28:29Z</time>
      </trkpt>
      <trkpt lat="45.98616" lon="4.71488">
        <ele>191</ele>
        <time>2016-11-26T11:28:30Z</time>
      </trkpt>
      <trkpt lat="45.9861" lon="4.71489">
        <ele>191</ele>
        <time>2016-11-26T11:28:31Z</time>
      </trkpt>
      <trkpt lat="45.98605" lon="4.7149">
        <ele>191</ele>
        <time>2016-11-26T11:28:32Z</time>
      </trkpt>
      <trkpt lat="45.986" lon="4.71491">
        <ele>191</ele>
        <time>2016-11-26T11:28:33Z</time>
      </trkpt>
      <trkpt lat="45.98595" lon="4.71492">
        <ele>191</ele>
        <time>2016-11-26T11:28:34Z</time>
      </trkpt>
      <trkpt lat="45.98589" lon="4.71494">
        <ele>191</ele>
        <time>2016-11-26T11:28:35Z</time>
      </trkpt>
      <trkpt lat="45.98584" lon="4.71495">
        <ele>192</ele>
        <time>2016-11-26T11:28:36Z</time>
      </trkpt>
      <trkpt lat="45.98579" lon="4.71496">
        <ele>192</ele>
        <time>2016-11-26T11:28:37Z</time>
      </trkpt>
      <trkpt lat="45.98574" lon="4.71496">
        <ele>192</ele>
        <time>2016-11-26T11:28:38Z</time>
      </trkpt>
      <trkpt lat="45.98569" lon="4.71498">
        <ele>193</ele>
        <time>2016-11-26T11:28:39Z</time>
      </trkpt>
      <trkpt lat="45.98564" lon="4.71499">
        <ele>193</ele>
        <time>2016-11-26T11:28:40Z</time>
      </trkpt>
      <trkpt lat="45.98559" lon="4.715">
        <ele>193</ele>
        <time>2016-11-26T11:28:41Z</time>
      </trkpt>
      <trkpt lat="45.98553" lon="4.715">
        <ele>194</ele>
        <time>2016-11-26T11:28:42Z</time>
      </trkpt>
      <trkpt lat="45.98549" lon="4.71501">
        <ele>194</ele>
        <time>2016-11-26T11:28:43Z</time>
      </trkpt>
      <trkpt lat="45.98544" lon="4.71501">
        <ele>194</ele>
        <time>2016-11-26T11:28:44Z</time>
      </trkpt>
      <trkpt lat="45.98539" lon="4.71502">
        <ele>194</ele>
        <time>2016-11-26T11:28:45Z</time>
      </trkpt>
      <trkpt lat="45.98534" lon="4.71502">
        <ele>194</ele>
        <time>2016-11-26T11:28:46Z</time>
      </trkpt>
      <trkpt lat="45.98529" lon="4.71503">
        <ele>194</ele>
        <time>2016-11-26T11:28:47Z</time>
      </trkpt>
      <trkpt lat="45.98524" lon="4.71503">
        <ele>194</ele>
        <time>2016-11-26T11:28:48Z</time>
      </trkpt>
      <trkpt lat="45.98519" lon="4.71504">
        <ele>195</ele>
        <time>2016-11-26T11:28:49Z</time>
      </trkpt>
      <trkpt lat="45.98514" lon="4.71505">
        <ele>195</ele>
        <time>2016-11-26T11:28:50Z</time>
      </trkpt>
      <trkpt lat="45.98509" lon="4.71506">
        <ele>195</ele>
        <time>2016-11-26T11:28:51Z</time>
      </trkpt>
      <trkpt lat="45.98505" lon="4.71506">
        <ele>195</ele>
        <time>2016-11-26T11:28:52Z</time>
      </trkpt>
      <trkpt lat="45.985" lon="4.71508">
        <ele>195</ele>
        <time>2016-11-26T11:28:53Z</time>
      </trkpt>
      <trkpt lat="45.98492" lon="4.7151">
        <ele>196</ele>
        <time>2016-11-26T11:28:55Z</time>
      </trkpt>
      <trkpt lat="45.98488" lon="4.71511">
        <ele>196</ele>
        <time>2016-11-26T11:28:56Z</time>
      </trkpt>
      <trkpt lat="45.98483" lon="4.71512">
        <ele>196</ele>
        <time>2016-11-26T11:28:57Z</time>
      </trkpt>
      <trkpt lat="45.98479" lon="4.71513">
        <ele>196</ele>
        <time>2016-11-26T11:28:58Z</time>
      </trkpt>
      <trkpt lat="45.98471" lon="4.71516">
        <ele>196</ele>
        <time>2016-11-26T11:29:00Z</time>
      </trkpt>
      <trkpt lat="45.98468" lon="4.71518">
        <ele>197</ele>
        <time>2016-11-26T11:29:01Z</time>
      </trkpt>
      <trkpt lat="45.9846" lon="4.7152">
        <ele>197</ele>
        <time>2016-11-26T11:29:03Z</time>
      </trkpt>
      <trkpt lat="45.98455" lon="4.71521">
        <ele>197</ele>
        <time>2016-11-26T11:29:04Z</time>
      </trkpt>
      <trkpt lat="45.98447" lon="4.71523">
        <ele>197</ele>
        <time>2016-11-26T11:29:06Z</time>
      </trkpt>
      <trkpt lat="45.98443" lon="4.71524">
        <ele>197</ele>
        <time>2016-11-26T11:29:07Z</time>
      </trkpt>
      <trkpt lat="45.98437" lon="4.71526">
        <ele>197</ele>
        <time>2016-11-26T11:29:09Z</time>
      </trkpt>
      <trkpt lat="45.98434" lon="4.71527">
        <ele>197</ele>
        <time>2016-11-26T11:29:10Z</time>
      </trkpt>
      <trkpt lat="45.98427" lon="4.71532">
        <ele>197</ele>
        <time>2016-11-26T11:29:13Z</time>
      </trkpt>
      <trkpt lat="45.98425" lon="4.71533">
        <ele>197</ele>
        <time>2016-11-26T11:29:14Z</time>
      </trkpt>
      <trkpt lat="45.9842" lon="4.71537">
        <ele>197</ele>
        <time>2016-11-26T11:29:28Z</time>
      </trkpt>
      <trkpt lat="45.98416" lon="4.71544">
        <ele>198</ele>
        <time>2016-11-26T11:29:29Z</time>
      </trkpt>
      <trkpt lat="45.98411" lon="4.71549">
        <ele>198</ele>
        <time>2016-11-26T11:29:31Z</time>
      </trkpt>
      <trkpt lat="45.98408" lon="4.71552">
        <ele>198</ele>
        <time>2016-11-26T11:29:32Z</time>
      </trkpt>
      <trkpt lat="45.98403" lon="4.71557">
        <ele>198</ele>
        <time>2016-11-26T11:29:34Z</time>
      </trkpt>
      <trkpt lat="45.984" lon="4.71559">
        <ele>198</ele>
        <time>2016-11-26T11:29:35Z</time>
      </trkpt>
      <trkpt lat="45.98393" lon="4.71566">
        <ele>198</ele>
        <time>2016-11-26T11:29:37Z</time>
      </trkpt>
      <trkpt lat="45.98389" lon="4.71569">
        <ele>198</ele>
        <time>2016-11-26T11:29:38Z</time>
      </trkpt>
      <trkpt lat="45.98385" lon="4.71573">
        <ele>198</ele>
        <time>2016-11-26T11:29:39Z</time>
      </trkpt>
      <trkpt lat="45.98381" lon="4.71577">
        <ele>198</ele>
        <time>2016-11-26T11:29:40Z</time>
      </trkpt>
      <trkpt lat="45.98376" lon="4.71581">
        <ele>198</ele>
        <time>2016-11-26T11:29:41Z</time>
      </trkpt>
      <trkpt lat="45.98371" lon="4.71584">
        <ele>198</ele>
        <time>2016-11-26T11:29:42Z</time>
      </trkpt>
      <trkpt lat="45.98366" lon="4.71585">
        <ele>198</ele>
        <time>2016-11-26T11:29:43Z</time>
      </trkpt>
      <trkpt lat="45.98361" lon="4.71584">
        <ele>198</ele>
        <time>2016-11-26T11:29:44Z</time>
      </trkpt>
      <trkpt lat="45.98356" lon="4.71582">
        <ele>199</ele>
        <time>2016-11-26T11:29:45Z</time>
      </trkpt>
      <trkpt lat="45.98351" lon="4.71579">
        <ele>199</ele>
        <time>2016-11-26T11:29:46Z</time>
      </trkpt>
      <trkpt lat="45.98346" lon="4.71577">
        <ele>199</ele>
        <time>2016-11-26T11:29:47Z</time>
      </trkpt>
      <trkpt lat="45.9834" lon="4.71573">
        <ele>199</ele>
        <time>2016-11-26T11:29:48Z</time>
      </trkpt>
      <trkpt lat="45.98335" lon="4.7157">
        <ele>199</ele>
        <time>2016-11-26T11:29:49Z</time>
      </trkpt>
      <trkpt lat="45.9833" lon="4.71567">
        <ele>198</ele>
        <time>2016-11-26T11:29:50Z</time>
      </trkpt>
      <trkpt lat="45.98325" lon="4.71564">
        <ele>198</ele>
        <time>2016-11-26T11:29:51Z</time>
      </trkpt>
      <trkpt lat="45.9832" lon="4.71561">
        <ele>198</ele>
        <time>2016-11-26T11:29:52Z</time>
      </trkpt>
      <trkpt lat="45.98316" lon="4.71558">
        <ele>198</ele>
        <time>2016-11-26T11:29:53Z</time>
      </trkpt>
      <trkpt lat="45.98311" lon="4.71555">
        <ele>198</ele>
        <time>2016-11-26T11:29:54Z</time>
      </trkpt>
      <trkpt lat="45.98307" lon="4.71552">
        <ele>198</ele>
        <time>2016-11-26T11:29:55Z</time>
      </trkpt>
      <trkpt lat="45.98302" lon="4.7155">
        <ele>198</ele>
        <time>2016-11-26T11:29:56Z</time>
      </trkpt>
      <trkpt lat="45.98298" lon="4.71547">
        <ele>198</ele>
        <time>2016-11-26T11:29:57Z</time>
      </trkpt>
      <trkpt lat="45.98293" lon="4.71544">
        <ele>198</ele>
        <time>2016-11-26T11:29:58Z</time>
      </trkpt>
      <trkpt lat="45.98288" lon="4.71542">
        <ele>198</ele>
        <time>2016-11-26T11:29:59Z</time>
      </trkpt>
      <trkpt lat="45.98282" lon="4.71539">
        <ele>198</ele>
        <time>2016-11-26T11:30:00Z</time>
      </trkpt>
      <trkpt lat="45.98277" lon="4.71537">
        <ele>198</ele>
        <time>2016-11-26T11:30:01Z</time>
      </trkpt>
      <trkpt lat="45.98272" lon="4.71534">
        <ele>197</ele>
        <time>2016-11-26T11:30:02Z</time>
      </trkpt>
      <trkpt lat="45.98267" lon="4.71531">
        <ele>197</ele>
        <time>2016-11-26T11:30:03Z</time>
      </trkpt>
      <trkpt lat="45.98261" lon="4.71528">
        <ele>197</ele>
        <time>2016-11-26T11:30:04Z</time>
      </trkpt>
      <trkpt lat="45.98256" lon="4.71525">
        <ele>197</ele>
        <time>2016-11-26T11:30:05Z</time>
      </trkpt>
      <trkpt lat="45.98251" lon="4.71522">
        <ele>197</ele>
        <time>2016-11-26T11:30:06Z</time>
      </trkpt>
      <trkpt lat="45.98245" lon="4.71519">
        <ele>196</ele>
        <time>2016-11-26T11:30:07Z</time>
      </trkpt>
      <trkpt lat="45.9824" lon="4.71516">
        <ele>196</ele>
        <time>2016-11-26T11:30:08Z</time>
      </trkpt>
      <trkpt lat="45.98234" lon="4.71513">
        <ele>196</ele>
        <time>2016-11-26T11:30:09Z</time>
      </trkpt>
      <trkpt lat="45.98228" lon="4.71509">
        <ele>196</ele>
        <time>2016-11-26T11:30:10Z</time>
      </trkpt>
      <trkpt lat="45.98222" lon="4.71506">
        <ele>196</ele>
        <time>2016-11-26T11:30:11Z</time>
      </trkpt>
      <trkpt lat="45.98217" lon="4.71502">
        <ele>196</ele>
        <time>2016-11-26T11:30:12Z</time>
      </trkpt>
      <trkpt lat="45.98211" lon="4.71498">
        <ele>197</ele>
        <time>2016-11-26T11:30:13Z</time>
      </trkpt>
      <trkpt lat="45.98206" lon="4.71496">
        <ele>197</ele>
        <time>2016-11-26T11:30:14Z</time>
      </trkpt>
      <trkpt lat="45.982" lon="4.71493">
        <ele>197</ele>
        <time>2016-11-26T11:30:15Z</time>
      </trkpt>
      <trkpt lat="45.98195" lon="4.71492">
        <ele>197</ele>
        <time>2016-11-26T11:30:16Z</time>
      </trkpt>
      <trkpt lat="45.98191" lon="4.71492">
        <ele>197</ele>
        <time>2016-11-26T11:30:17Z</time>
      </trkpt>
      <trkpt lat="45.98186" lon="4.71492">
        <ele>197</ele>
        <time>2016-11-26T11:30:18Z</time>
      </trkpt>
      <trkpt lat="45.98181" lon="4.71492">
        <ele>197</ele>
        <time>2016-11-26T11:30:19Z</time>
      </trkpt>
      <trkpt lat="45.98176" lon="4.71493">
        <ele>197</ele>
        <time>2016-11-26T11:30:20Z</time>
      </trkpt>
      <trkpt lat="45.98171" lon="4.71494">
        <ele>197</ele>
        <time>2016-11-26T11:30:21Z</time>
      </trkpt>
      <trkpt lat="45.98166" lon="4.71496">
        <ele>197</ele>
        <time>2016-11-26T11:30:22Z</time>
      </trkpt>
      <trkpt lat="45.98161" lon="4.71498">
        <ele>197</ele>
        <time>2016-11-26T11:30:23Z</time>
      </trkpt>
      <trkpt lat="45.98157" lon="4.71502">
        <ele>197</ele>
        <time>2016-11-26T11:30:24Z</time>
      </trkpt>
      <trkpt lat="45.98152" lon="4.71505">
        <ele>197</ele>
        <time>2016-11-26T11:30:25Z</time>
      </trkpt>
      <trkpt lat="45.98148" lon="4.71507">
        <ele>197</ele>
        <time>2016-11-26T11:30:26Z</time>
      </trkpt>
      <trkpt lat="45.98143" lon="4.7151">
        <ele>197</ele>
        <time>2016-11-26T11:30:27Z</time>
      </trkpt>
      <trkpt lat="45.98138" lon="4.71513">
        <ele>197</ele>
        <time>2016-11-26T11:30:28Z</time>
      </trkpt>
      <trkpt lat="45.98133" lon="4.71516">
        <ele>197</ele>
        <time>2016-11-26T11:30:29Z</time>
      </trkpt>
      <trkpt lat="45.98128" lon="4.71519">
        <ele>197</ele>
        <time>2016-11-26T11:30:30Z</time>
      </trkpt>
      <trkpt lat="45.98123" lon="4.71522">
        <ele>197</ele>
        <time>2016-11-26T11:30:31Z</time>
      </trkpt>
      <trkpt lat="45.98119" lon="4.71525">
        <ele>197</ele>
        <time>2016-11-26T11:30:32Z</time>
      </trkpt>
      <trkpt lat="45.98113" lon="4.71527">
        <ele>197</ele>
        <time>2016-11-26T11:30:33Z</time>
      </trkpt>
      <trkpt lat="45.9811" lon="4.71531">
        <ele>197</ele>
        <time>2016-11-26T11:30:34Z</time>
      </trkpt>
      <trkpt lat="45.98104" lon="4.71533">
        <ele>197</ele>
        <time>2016-11-26T11:30:35Z</time>
      </trkpt>
      <trkpt lat="45.98099" lon="4.71536">
        <ele>197</ele>
        <time>2016-11-26T11:30:36Z</time>
      </trkpt>
      <trkpt lat="45.98094" lon="4.71539">
        <ele>197</ele>
        <time>2016-11-26T11:30:37Z</time>
      </trkpt>
      <trkpt lat="45.98089" lon="4.71542">
        <ele>198</ele>
        <time>2016-11-26T11:30:38Z</time>
      </trkpt>
      <trkpt lat="45.98084" lon="4.71545">
        <ele>198</ele>
        <time>2016-11-26T11:30:39Z</time>
      </trkpt>
      <trkpt lat="45.98079" lon="4.71548">
        <ele>198</ele>
        <time>2016-11-26T11:30:40Z</time>
      </trkpt>
      <trkpt lat="45.98074" lon="4.71552">
        <ele>198</ele>
        <time>2016-11-26T11:30:41Z</time>
      </trkpt>
      <trkpt lat="45.98069" lon="4.71555">
        <ele>198</ele>
        <time>2016-11-26T11:30:42Z</time>
      </trkpt>
      <trkpt lat="45.98064" lon="4.71558">
        <ele>198</ele>
        <time>2016-11-26T11:30:43Z</time>
      </trkpt>
      <trkpt lat="45.98058" lon="4.71562">
        <ele>198</ele>
        <time>2016-11-26T11:30:44Z</time>
      </trkpt>
      <trkpt lat="45.98053" lon="4.71567">
        <ele>198</ele>
        <time>2016-11-26T11:30:45Z</time>
      </trkpt>
      <trkpt lat="45.98047" lon="4.71571">
        <ele>198</ele>
        <time>2016-11-26T11:30:46Z</time>
      </trkpt>
      <trkpt lat="45.98041" lon="4.71575">
        <ele>198</ele>
        <time>2016-11-26T11:30:47Z</time>
      </trkpt>
      <trkpt lat="45.98036" lon="4.71579">
        <ele>198</ele>
        <time>2016-11-26T11:30:48Z</time>
      </trkpt>
      <trkpt lat="45.98031" lon="4.71583">
        <ele>198</ele>
        <time>2016-11-26T11:30:49Z</time>
      </trkpt>
      <trkpt lat="45.98025" lon="4.71587">
        <ele>198</ele>
        <time>2016-11-26T11:30:50Z</time>
      </trkpt>
      <trkpt lat="45.9802" lon="4.71591">
        <ele>198</ele>
        <time>2016-11-26T11:30:51Z</time>
      </trkpt>
      <trkpt lat="45.98015" lon="4.71595">
        <ele>198</ele>
        <time>2016-11-26T11:30:52Z</time>
      </trkpt>
      <trkpt lat="45.98009" lon="4.71599">
        <ele>198</ele>
        <time>2016-11-26T11:30:53Z</time>
      </trkpt>
      <trkpt lat="45.98004" lon="4.71604">
        <ele>198</ele>
        <time>2016-11-26T11:30:54Z</time>
      </trkpt>
      <trkpt lat="45.97999" lon="4.71608">
        <ele>198</ele>
        <time>2016-11-26T11:30:55Z</time>
      </trkpt>
      <trkpt lat="45.97994" lon="4.71613">
        <ele>198</ele>
        <time>2016-11-26T11:30:56Z</time>
      </trkpt>
      <trkpt lat="45.97988" lon="4.71617">
        <ele>197</ele>
        <time>2016-11-26T11:30:57Z</time>
      </trkpt>
      <trkpt lat="45.97982" lon="4.71622">
        <ele>197</ele>
        <time>2016-11-26T11:30:58Z</time>
      </trkpt>
      <trkpt lat="45.97977" lon="4.71626">
        <ele>197</ele>
        <time>2016-11-26T11:30:59Z</time>
      </trkpt>
      <trkpt lat="45.97971" lon="4.71631">
        <ele>197</ele>
        <time>2016-11-26T11:31:00Z</time>
      </trkpt>
      <trkpt lat="45.97966" lon="4.71635">
        <ele>197</ele>
        <time>2016-11-26T11:31:01Z</time>
      </trkpt>
      <trkpt lat="45.9796" lon="4.7164">
        <ele>197</ele>
        <time>2016-11-26T11:31:02Z</time>
      </trkpt>
      <trkpt lat="45.97955" lon="4.71645">
        <ele>197</ele>
        <time>2016-11-26T11:31:03Z</time>
      </trkpt>
      <trkpt lat="45.9795" lon="4.71648">
        <ele>197</ele>
        <time>2016-11-26T11:31:04Z</time>
      </trkpt>
      <trkpt lat="45.97945" lon="4.71651">
        <ele>197</ele>
        <time>2016-11-26T11:31:05Z</time>
      </trkpt>
      <trkpt lat="45.9794" lon="4.71655">
        <ele>197</ele>
        <time>2016-11-26T11:31:06Z</time>
      </trkpt>
      <trkpt lat="45.97935" lon="4.71659">
        <ele>197</ele>
        <time>2016-11-26T11:31:07Z</time>
      </trkpt>
      <trkpt lat="45.9793" lon="4.71663">
        <ele>197</ele>
        <time>2016-11-26T11:31:08Z</time>
      </trkpt>
      <trkpt lat="45.97925" lon="4.71666">
        <ele>197</ele>
        <time>2016-11-26T11:31:09Z</time>
      </trkpt>
      <trkpt lat="45.97921" lon="4.71671">
        <ele>197</ele>
        <time>2016-11-26T11:31:10Z</time>
      </trkpt>
      <trkpt lat="45.97916" lon="4.71674">
        <ele>197</ele>
        <time>2016-11-26T11:31:11Z</time>
      </trkpt>
      <trkpt lat="45.97911" lon="4.71678">
        <ele>197</ele>
        <time>2016-11-26T11:31:12Z</time>
      </trkpt>
      <trkpt lat="45.97907" lon="4.71682">
        <ele>196</ele>
        <time>2016-11-26T11:31:13Z</time>
      </trkpt>
      <trkpt lat="45.97903" lon="4.71687">
        <ele>196</ele>
        <time>2016-11-26T11:31:14Z</time>
      </trkpt>
      <trkpt lat="45.979" lon="4.71692">
        <ele>196</ele>
        <time>2016-11-26T11:31:15Z</time>
      </trkpt>
      <trkpt lat="45.97896" lon="4.71697">
        <ele>196</ele>
        <time>2016-11-26T11:31:16Z</time>
      </trkpt>
      <trkpt lat="45.97892" lon="4.71702">
        <ele>196</ele>
        <time>2016-11-26T11:31:17Z</time>
      </trkpt>
      <trkpt lat="45.97887" lon="4.71705">
        <ele>196</ele>
        <time>2016-11-26T11:31:18Z</time>
      </trkpt>
      <trkpt lat="45.97882" lon="4.71707">
        <ele>196</ele>
        <time>2016-11-26T11:31:19Z</time>
      </trkpt>
      <trkpt lat="45.97876" lon="4.71707">
        <ele>196</ele>
        <time>2016-11-26T11:31:20Z</time>
      </trkpt>
      <trkpt lat="45.97871" lon="4.71708">
        <ele>196</ele>
        <time>2016-11-26T11:31:21Z</time>
      </trkpt>
      <trkpt lat="45.97865" lon="4.7171">
        <ele>196</ele>
        <time>2016-11-26T11:31:22Z</time>
      </trkpt>
      <trkpt lat="45.97859" lon="4.71714">
        <ele>196</ele>
        <time>2016-11-26T11:31:23Z</time>
      </trkpt>
      <trkpt lat="45.97854" lon="4.7172">
        <ele>196</ele>
        <time>2016-11-26T11:31:24Z</time>
      </trkpt>
      <trkpt lat="45.9785" lon="4.71726">
        <ele>196</ele>
        <time>2016-11-26T11:31:25Z</time>
      </trkpt>
      <trkpt lat="45.97846" lon="4.71732">
        <ele>196</ele>
        <time>2016-11-26T11:31:26Z</time>
      </trkpt>
      <trkpt lat="45.97841" lon="4.71738">
        <ele>195</ele>
        <time>2016-11-26T11:31:27Z</time>
      </trkpt>
      <trkpt lat="45.97835" lon="4.71741">
        <ele>195</ele>
        <time>2016-11-26T11:31:28Z</time>
      </trkpt>
      <trkpt lat="45.97829" lon="4.71742">
        <ele>195</ele>
        <time>2016-11-26T11:31:29Z</time>
      </trkpt>
      <trkpt lat="45.97823" lon="4.71742">
        <ele>196</ele>
        <time>2016-11-26T11:31:30Z</time>
      </trkpt>
      <trkpt lat="45.97818" lon="4.71741">
        <ele>196</ele>
        <time>2016-11-26T11:31:31Z</time>
      </trkpt>
      <trkpt lat="45.97812" lon="4.7174">
        <ele>196</ele>
        <time>2016-11-26T11:31:32Z</time>
      </trkpt>
      <trkpt lat="45.97808" lon="4.71739">
        <ele>196</ele>
        <time>2016-11-26T11:31:33Z</time>
      </trkpt>
      <trkpt lat="45.97802" lon="4.71739">
        <ele>196</ele>
        <time>2016-11-26T11:31:34Z</time>
      </trkpt>
      <trkpt lat="45.97796" lon="4.71739">
        <ele>196</ele>
        <time>2016-11-26T11:31:35Z</time>
      </trkpt>
      <trkpt lat="45.9779" lon="4.71739">
        <ele>196</ele>
        <time>2016-11-26T11:31:36Z</time>
      </trkpt>
      <trkpt lat="45.97784" lon="4.71739">
        <ele>196</ele>
        <time>2016-11-26T11:31:37Z</time>
      </trkpt>
      <trkpt lat="45.97778" lon="4.71739">
        <ele>196</ele>
        <time>2016-11-26T11:31:38Z</time>
      </trkpt>
      <trkpt lat="45.97772" lon="4.71738">
        <ele>196</ele>
        <time>2016-11-26T11:31:39Z</time>
      </trkpt>
      <trkpt lat="45.97765" lon="4.71737">
        <ele>196</ele>
        <time>2016-11-26T11:31:40Z</time>
      </trkpt>
      <trkpt lat="45.97758" lon="4.71737">
        <ele>196</ele>
        <time>2016-11-26T11:31:41Z</time>
      </trkpt>
      <trkpt lat="45.97752" lon="4.71736">
        <ele>196</ele>
        <time>2016-11-26T11:31:42Z</time>
      </trkpt>
      <trkpt lat="45.97745" lon="4.71735">
        <ele>196</ele>
        <time>2016-11-26T11:31:43Z</time>
      </trkpt>
      <trkpt lat="45.97739" lon="4.71735">
        <ele>196</ele>
        <time>2016-11-26T11:31:44Z</time>
      </trkpt>
      <trkpt lat="45.97732" lon="4.71734">
        <ele>196</ele>
        <time>2016-11-26T11:31:45Z</time>
      </trkpt>
      <trkpt lat="45.97726" lon="4.71734">
        <ele>196</ele>
        <time>2016-11-26T11:31:46Z</time>
      </trkpt>
      <trkpt lat="45.97721" lon="4.71733">
        <ele>196</ele>
        <time>2016-11-26T11:31:47Z</time>
      </trkpt>
      <trkpt lat="45.97715" lon="4.71733">
        <ele>196</ele>
        <time>2016-11-26T11:31:48Z</time>
      </trkpt>
      <trkpt lat="45.9771" lon="4.71732">
        <ele>196</ele>
        <time>2016-11-26T11:31:49Z</time>
      </trkpt>
      <trkpt lat="45.97704" lon="4.71731">
        <ele>196</ele>
        <time>2016-11-26T11:31:50Z</time>
      </trkpt>
      <trkpt lat="45.97698" lon="4.71731">
        <ele>196</ele>
        <time>2016-11-26T11:31:51Z</time>
      </trkpt>
      <trkpt lat="45.97692" lon="4.7173">
        <ele>196</ele>
        <time>2016-11-26T11:31:52Z</time>
      </trkpt>
      <trkpt lat="45.97686" lon="4.7173">
        <ele>196</ele>
        <time>2016-11-26T11:31:53Z</time>
      </trkpt>
      <trkpt lat="45.97679" lon="4.7173">
        <ele>196</ele>
        <time>2016-11-26T11:31:54Z</time>
      </trkpt>
      <trkpt lat="45.97673" lon="4.7173">
        <ele>196</ele>
        <time>2016-11-26T11:31:55Z</time>
      </trkpt>
      <trkpt lat="45.97667" lon="4.71729">
        <ele>196</ele>
        <time>2016-11-26T11:31:56Z</time>
      </trkpt>
      <trkpt lat="45.97661" lon="4.71729">
        <ele>196</ele>
        <time>2016-11-26T11:31:57Z</time>
      </trkpt>
      <trkpt lat="45.97655" lon="4.71728">
        <ele>196</ele>
        <time>2016-11-26T11:31:58Z</time>
      </trkpt>
      <trkpt lat="45.9765" lon="4.71727">
        <ele>196</ele>
        <time>2016-11-26T11:31:59Z</time>
      </trkpt>
      <trkpt lat="45.97645" lon="4.71726">
        <ele>196</ele>
        <time>2016-11-26T11:32:00Z</time>
      </trkpt>
      <trkpt lat="45.9764" lon="4.71725">
        <ele>196</ele>
        <time>2016-11-26T11:32:01Z</time>
      </trkpt>
      <trkpt lat="45.97635" lon="4.71723">
        <ele>196</ele>
        <time>2016-11-26T11:32:02Z</time>
      </trkpt>
      <trkpt lat="45.9763" lon="4.71719">
        <ele>197</ele>
        <time>2016-11-26T11:32:03Z</time>
      </trkpt>
      <trkpt lat="45.97626" lon="4.71715">
        <ele>197</ele>
        <time>2016-11-26T11:32:04Z</time>
      </trkpt>
      <trkpt lat="45.97621" lon="4.71712">
        <ele>197</ele>
        <time>2016-11-26T11:32:05Z</time>
      </trkpt>
      <trkpt lat="45.97615" lon="4.71712">
        <ele>197</ele>
        <time>2016-11-26T11:32:06Z</time>
      </trkpt>
      <trkpt lat="45.97609" lon="4.71713">
        <ele>197</ele>
        <time>2016-11-26T11:32:07Z</time>
      </trkpt>
      <trkpt lat="45.97604" lon="4.71716">
        <ele>197</ele>
        <time>2016-11-26T11:32:08Z</time>
      </trkpt>
      <trkpt lat="45.97598" lon="4.71718">
        <ele>197</ele>
        <time>2016-11-26T11:32:09Z</time>
      </trkpt>
      <trkpt lat="45.97592" lon="4.71721">
        <ele>197</ele>
        <time>2016-11-26T11:32:10Z</time>
      </trkpt>
      <trkpt lat="45.97586" lon="4.71722">
        <ele>197</ele>
        <time>2016-11-26T11:32:11Z</time>
      </trkpt>
      <trkpt lat="45.9758" lon="4.71721">
        <ele>197</ele>
        <time>2016-11-26T11:32:12Z</time>
      </trkpt>
      <trkpt lat="45.97575" lon="4.71721">
        <ele>198</ele>
        <time>2016-11-26T11:32:13Z</time>
      </trkpt>
      <trkpt lat="45.97569" lon="4.7172">
        <ele>198</ele>
        <time>2016-11-26T11:32:14Z</time>
      </trkpt>
      <trkpt lat="45.97564" lon="4.7172">
        <ele>198</ele>
        <time>2016-11-26T11:32:15Z</time>
      </trkpt>
      <trkpt lat="45.97558" lon="4.71719">
        <ele>198</ele>
        <time>2016-11-26T11:32:16Z</time>
      </trkpt>
      <trkpt lat="45.97553" lon="4.71718">
        <ele>198</ele>
        <time>2016-11-26T11:32:17Z</time>
      </trkpt>
      <trkpt lat="45.97547" lon="4.71718">
        <ele>198</ele>
        <time>2016-11-26T11:32:18Z</time>
      </trkpt>
      <trkpt lat="45.97542" lon="4.71718">
        <ele>198</ele>
        <time>2016-11-26T11:32:19Z</time>
      </trkpt>
      <trkpt lat="45.97536" lon="4.71717">
        <ele>198</ele>
        <time>2016-11-26T11:32:20Z</time>
      </trkpt>
      <trkpt lat="45.9753" lon="4.71716">
        <ele>198</ele>
        <time>2016-11-26T11:32:21Z</time>
      </trkpt>
      <trkpt lat="45.97524" lon="4.71716">
        <ele>198</ele>
        <time>2016-11-26T11:32:22Z</time>
      </trkpt>
      <trkpt lat="45.97519" lon="4.71715">
        <ele>198</ele>
        <time>2016-11-26T11:32:23Z</time>
      </trkpt>
      <trkpt lat="45.97513" lon="4.71714">
        <ele>198</ele>
        <time>2016-11-26T11:32:24Z</time>
      </trkpt>
      <trkpt lat="45.97507" lon="4.71714">
        <ele>199</ele>
        <time>2016-11-26T11:32:25Z</time>
      </trkpt>
      <trkpt lat="45.97501" lon="4.71713">
        <ele>199</ele>
        <time>2016-11-26T11:32:26Z</time>
      </trkpt>
      <trkpt lat="45.97496" lon="4.71713">
        <ele>198</ele>
        <time>2016-11-26T11:32:27Z</time>
      </trkpt>
      <trkpt lat="45.9749" lon="4.71713">
        <ele>198</ele>
        <time>2016-11-26T11:32:28Z</time>
      </trkpt>
      <trkpt lat="45.97485" lon="4.71712">
        <ele>198</ele>
        <time>2016-11-26T11:32:29Z</time>
      </trkpt>
      <trkpt lat="45.97479" lon="4.71712">
        <ele>198</ele>
        <time>2016-11-26T11:32:30Z</time>
      </trkpt>
      <trkpt lat="45.97473" lon="4.71712">
        <ele>197</ele>
        <time>2016-11-26T11:32:31Z</time>
      </trkpt>
      <trkpt lat="45.97467" lon="4.71711">
        <ele>197</ele>
        <time>2016-11-26T11:32:32Z</time>
      </trkpt>
      <trkpt lat="45.97461" lon="4.71711">
        <ele>197</ele>
        <time>2016-11-26T11:32:33Z</time>
      </trkpt>
      <trkpt lat="45.97455" lon="4.71711">
        <ele>197</ele>
        <time>2016-11-26T11:32:34Z</time>
      </trkpt>
      <trkpt lat="45.97448" lon="4.71711">
        <ele>197</ele>
        <time>2016-11-26T11:32:35Z</time>
      </trkpt>
      <trkpt lat="45.97442" lon="4.71711">
        <ele>197</ele>
        <time>2016-11-26T11:32:36Z</time>
      </trkpt>
      <trkpt lat="45.97435" lon="4.7171">
        <ele>197</ele>
        <time>2016-11-26T11:32:37Z</time>
      </trkpt>
      <trkpt lat="45.97429" lon="4.7171">
        <ele>197</ele>
        <time>2016-11-26T11:32:38Z</time>
      </trkpt>
      <trkpt lat="45.97423" lon="4.71709">
        <ele>196</ele>
        <time>2016-11-26T11:32:39Z</time>
      </trkpt>
      <trkpt lat="45.97417" lon="4.71708">
        <ele>195</ele>
        <time>2016-11-26T11:32:40Z</time>
      </trkpt>
      <trkpt lat="45.9741" lon="4.71707">
        <ele>195</ele>
        <time>2016-11-26T11:32:41Z</time>
      </trkpt>
      <trkpt lat="45.97404" lon="4.71707">
        <ele>195</ele>
        <time>2016-11-26T11:32:42Z</time>
      </trkpt>
      <trkpt lat="45.97398" lon="4.71707">
        <ele>195</ele>
        <time>2016-11-26T11:32:43Z</time>
      </trkpt>
      <trkpt lat="45.97392" lon="4.71706">
        <ele>195</ele>
        <time>2016-11-26T11:32:44Z</time>
      </trkpt>
      <trkpt lat="45.97386" lon="4.71706">
        <ele>195</ele>
        <time>2016-11-26T11:32:45Z</time>
      </trkpt>
      <trkpt lat="45.97381" lon="4.71706">
        <ele>195</ele>
        <time>2016-11-26T11:32:46Z</time>
      </trkpt>
      <trkpt lat="45.97375" lon="4.71705">
        <ele>195</ele>
        <time>2016-11-26T11:32:47Z</time>
      </trkpt>
      <trkpt lat="45.97369" lon="4.71705">
        <ele>195</ele>
        <time>2016-11-26T11:32:48Z</time>
      </trkpt>
      <trkpt lat="45.97363" lon="4.71705">
        <ele>195</ele>
        <time>2016-11-26T11:32:49Z</time>
      </trkpt>
      <trkpt lat="45.97358" lon="4.71705">
        <ele>195</ele>
        <time>2016-11-26T11:32:50Z</time>
      </trkpt>
      <trkpt lat="45.97352" lon="4.71705">
        <ele>195</ele>
        <time>2016-11-26T11:32:51Z</time>
      </trkpt>
      <trkpt lat="45.97346" lon="4.71704">
        <ele>195</ele>
        <time>2016-11-26T11:32:52Z</time>
      </trkpt>
      <trkpt lat="45.97341" lon="4.71704">
        <ele>195</ele>
        <time>2016-11-26T11:32:53Z</time>
      </trkpt>
      <trkpt lat="45.97335" lon="4.71704">
        <ele>195</ele>
        <time>2016-11-26T11:32:54Z</time>
      </trkpt>
      <trkpt lat="45.9733" lon="4.71703">
        <ele>196</ele>
        <time>2016-11-26T11:32:55Z</time>
      </trkpt>
      <trkpt lat="45.97325" lon="4.71702">
        <ele>196</ele>
        <time>2016-11-26T11:32:56Z</time>
      </trkpt>
      <trkpt lat="45.9732" lon="4.717">
        <ele>196</ele>
        <time>2016-11-26T11:32:57Z</time>
      </trkpt>
      <trkpt lat="45.97315" lon="4.71696">
        <ele>196</ele>
        <time>2016-11-26T11:32:58Z</time>
      </trkpt>
      <trkpt lat="45.9731" lon="4.71693">
        <ele>196</ele>
        <time>2016-11-26T11:32:59Z</time>
      </trkpt>
      <trkpt lat="45.97304" lon="4.71691">
        <ele>196</ele>
        <time>2016-11-26T11:33:00Z</time>
      </trkpt>
      <trkpt lat="45.97298" lon="4.71692">
        <ele>197</ele>
        <time>2016-11-26T11:33:01Z</time>
      </trkpt>
      <trkpt lat="45.97292" lon="4.71694">
        <ele>197</ele>
        <time>2016-11-26T11:33:02Z</time>
      </trkpt>
      <trkpt lat="45.97285" lon="4.71697">
        <ele>197</ele>
        <time>2016-11-26T11:33:03Z</time>
      </trkpt>
      <trkpt lat="45.97279" lon="4.71699">
        <ele>197</ele>
        <time>2016-11-26T11:33:04Z</time>
      </trkpt>
      <trkpt lat="45.97272" lon="4.717">
        <ele>197</ele>
        <time>2016-11-26T11:33:05Z</time>
      </trkpt>
      <trkpt lat="45.97266" lon="4.71698">
        <ele>197</ele>
        <time>2016-11-26T11:33:06Z</time>
      </trkpt>
      <trkpt lat="45.9726" lon="4.71697">
        <ele>197</ele>
        <time>2016-11-26T11:33:07Z</time>
      </trkpt>
      <trkpt lat="45.97254" lon="4.71696">
        <ele>197</ele>
        <time>2016-11-26T11:33:08Z</time>
      </trkpt>
      <trkpt lat="45.97248" lon="4.71695">
        <ele>197</ele>
        <time>2016-11-26T11:33:09Z</time>
      </trkpt>
      <trkpt lat="45.97242" lon="4.71694">
        <ele>197</ele>
        <time>2016-11-26T11:33:10Z</time>
      </trkpt>
      <trkpt lat="45.97236" lon="4.71693">
        <ele>197</ele>
        <time>2016-11-26T11:33:11Z</time>
      </trkpt>
      <trkpt lat="45.97231" lon="4.71692">
        <ele>197</ele>
        <time>2016-11-26T11:33:12Z</time>
      </trkpt>
      <trkpt lat="45.97225" lon="4.71692">
        <ele>197</ele>
        <time>2016-11-26T11:33:13Z</time>
      </trkpt>
      <trkpt lat="45.97219" lon="4.71691">
        <ele>197</ele>
        <time>2016-11-26T11:33:14Z</time>
      </trkpt>
      <trkpt lat="45.97213" lon="4.71691">
        <ele>197</ele>
        <time>2016-11-26T11:33:15Z</time>
      </trkpt>
      <trkpt lat="45.97207" lon="4.7169">
        <ele>197</ele>
        <time>2016-11-26T11:33:16Z</time>
      </trkpt>
      <trkpt lat="45.97201" lon="4.7169">
        <ele>197</ele>
        <time>2016-11-26T11:33:17Z</time>
      </trkpt>
      <trkpt lat="45.97195" lon="4.71689">
        <ele>197</ele>
        <time>2016-11-26T11:33:18Z</time>
      </trkpt>
      <trkpt lat="45.97188" lon="4.71689">
        <ele>197</ele>
        <time>2016-11-26T11:33:19Z</time>
      </trkpt>
      <trkpt lat="45.97182" lon="4.71688">
        <ele>197</ele>
        <time>2016-11-26T11:33:20Z</time>
      </trkpt>
      <trkpt lat="45.97175" lon="4.71687">
        <ele>197</ele>
        <time>2016-11-26T11:33:21Z</time>
      </trkpt>
      <trkpt lat="45.97168" lon="4.71687">
        <ele>197</ele>
        <time>2016-11-26T11:33:22Z</time>
      </trkpt>
      <trkpt lat="45.97161" lon="4.71686">
        <ele>196</ele>
        <time>2016-11-26T11:33:23Z</time>
      </trkpt>
      <trkpt lat="45.97153" lon="4.71686">
        <ele>196</ele>
        <time>2016-11-26T11:33:24Z</time>
      </trkpt>
      <trkpt lat="45.97146" lon="4.71685">
        <ele>195</ele>
        <time>2016-11-26T11:33:25Z</time>
      </trkpt>
      <trkpt lat="45.97138" lon="4.71685">
        <ele>195</ele>
        <time>2016-11-26T11:33:26Z</time>
      </trkpt>
      <trkpt lat="45.9713" lon="4.71684">
        <ele>195</ele>
        <time>2016-11-26T11:33:27Z</time>
      </trkpt>
      <trkpt lat="45.97123" lon="4.71684">
        <ele>195</ele>
        <time>2016-11-26T11:33:28Z</time>
      </trkpt>
      <trkpt lat="45.97115" lon="4.71684">
        <ele>194</ele>
        <time>2016-11-26T11:33:29Z</time>
      </trkpt>
      <trkpt lat="45.97108" lon="4.71684">
        <ele>194</ele>
        <time>2016-11-26T11:33:30Z</time>
      </trkpt>
      <trkpt lat="45.97102" lon="4.71684">
        <ele>194</ele>
        <time>2016-11-26T11:33:31Z</time>
      </trkpt>
      <trkpt lat="45.97094" lon="4.71683">
        <ele>194</ele>
        <time>2016-11-26T11:33:32Z</time>
      </trkpt>
      <trkpt lat="45.97087" lon="4.71682">
        <ele>194</ele>
        <time>2016-11-26T11:33:33Z</time>
      </trkpt>
      <trkpt lat="45.97079" lon="4.71681">
        <ele>194</ele>
        <time>2016-11-26T11:33:34Z</time>
      </trkpt>
      <trkpt lat="45.97072" lon="4.7168">
        <ele>193</ele>
        <time>2016-11-26T11:33:35Z</time>
      </trkpt>
      <trkpt lat="45.97065" lon="4.71678">
        <ele>193</ele>
        <time>2016-11-26T11:33:36Z</time>
      </trkpt>
      <trkpt lat="45.97057" lon="4.71677">
        <ele>193</ele>
        <time>2016-11-26T11:33:37Z</time>
      </trkpt>
      <trkpt lat="45.97049" lon="4.71675">
        <ele>193</ele>
        <time>2016-11-26T11:33:38Z</time>
      </trkpt>
      <trkpt lat="45.97042" lon="4.71674">
        <ele>193</ele>
        <time>2016-11-26T11:33:39Z</time>
      </trkpt>
      <trkpt lat="45.97035" lon="4.71673">
        <ele>193</ele>
        <time>2016-11-26T11:33:40Z</time>
      </trkpt>
      <trkpt lat="45.97028" lon="4.71673">
        <ele>193</ele>
        <time>2016-11-26T11:33:41Z</time>
      </trkpt>
      <trkpt lat="45.97021" lon="4.71673">
        <ele>193</ele>
        <time>2016-11-26T11:33:42Z</time>
      </trkpt>
      <trkpt lat="45.97014" lon="4.71672">
        <ele>193</ele>
        <time>2016-11-26T11:33:43Z</time>
      </trkpt>
      <trkpt lat="45.97008" lon="4.71672">
        <ele>193</ele>
        <time>2016-11-26T11:33:44Z</time>
      </trkpt>
      <trkpt lat="45.97001" lon="4.71672">
        <ele>194</ele>
        <time>2016-11-26T11:33:45Z</time>
      </trkpt>
      <trkpt lat="45.96994" lon="4.71672">
        <ele>193</ele>
        <time>2016-11-26T11:33:46Z</time>
      </trkpt>
      <trkpt lat="45.96988" lon="4.71672">
        <ele>193</ele>
        <time>2016-11-26T11:33:47Z</time>
      </trkpt>
      <trkpt lat="45.96982" lon="4.71672">
        <ele>192</ele>
        <time>2016-11-26T11:33:48Z</time>
      </trkpt>
      <trkpt lat="45.96975" lon="4.71672">
        <ele>192</ele>
        <time>2016-11-26T11:33:49Z</time>
      </trkpt>
      <trkpt lat="45.96969" lon="4.71671">
        <ele>192</ele>
        <time>2016-11-26T11:33:50Z</time>
      </trkpt>
      <trkpt lat="45.96962" lon="4.7167">
        <ele>192</ele>
        <time>2016-11-26T11:33:51Z</time>
      </trkpt>
      <trkpt lat="45.96956" lon="4.7167">
        <ele>192</ele>
        <time>2016-11-26T11:33:52Z</time>
      </trkpt>
      <trkpt lat="45.96949" lon="4.7167">
        <ele>192</ele>
        <time>2016-11-26T11:33:53Z</time>
      </trkpt>
      <trkpt lat="45.96942" lon="4.71669">
        <ele>192</ele>
        <time>2016-11-26T11:33:54Z</time>
      </trkpt>
      <trkpt lat="45.96935" lon="4.71668">
        <ele>193</ele>
        <time>2016-11-26T11:33:55Z</time>
      </trkpt>
      <trkpt lat="45.96928" lon="4.71668">
        <ele>193</ele>
        <time>2016-11-26T11:33:56Z</time>
      </trkpt>
      <trkpt lat="45.96921" lon="4.71667">
        <ele>194</ele>
        <time>2016-11-26T11:33:57Z</time>
      </trkpt>
      <trkpt lat="45.96914" lon="4.71667">
        <ele>195</ele>
        <time>2016-11-26T11:33:58Z</time>
      </trkpt>
      <trkpt lat="45.96907" lon="4.71666">
        <ele>195</ele>
        <time>2016-11-26T11:33:59Z</time>
      </trkpt>
      <trkpt lat="45.969" lon="4.71665">
        <ele>195</ele>
        <time>2016-11-26T11:34:00Z</time>
      </trkpt>
      <trkpt lat="45.96892" lon="4.71665">
        <ele>195</ele>
        <time>2016-11-26T11:34:01Z</time>
      </trkpt>
      <trkpt lat="45.96884" lon="4.71664">
        <ele>195</ele>
        <time>2016-11-26T11:34:02Z</time>
      </trkpt>
      <trkpt lat="45.96877" lon="4.71663">
        <ele>195</ele>
        <time>2016-11-26T11:34:03Z</time>
      </trkpt>
      <trkpt lat="45.96869" lon="4.71662">
        <ele>195</ele>
        <time>2016-11-26T11:34:04Z</time>
      </trkpt>
      <trkpt lat="45.96861" lon="4.71661">
        <ele>195</ele>
        <time>2016-11-26T11:34:05Z</time>
      </trkpt>
      <trkpt lat="45.96854" lon="4.7166">
        <ele>194</ele>
        <time>2016-11-26T11:34:06Z</time>
      </trkpt>
      <trkpt lat="45.96846" lon="4.71659">
        <ele>194</ele>
        <time>2016-11-26T11:34:07Z</time>
      </trkpt>
      <trkpt lat="45.96838" lon="4.71658">
        <ele>193</ele>
        <time>2016-11-26T11:34:08Z</time>
      </trkpt>
      <trkpt lat="45.9683" lon="4.71657">
        <ele>192</ele>
        <time>2016-11-26T11:34:09Z</time>
      </trkpt>
      <trkpt lat="45.96823" lon="4.71655">
        <ele>193</ele>
        <time>2016-11-26T11:34:10Z</time>
      </trkpt>
      <trkpt lat="45.96816" lon="4.71654">
        <ele>193</ele>
        <time>2016-11-26T11:34:11Z</time>
      </trkpt>
      <trkpt lat="45.96809" lon="4.71653">
        <ele>193</ele>
        <time>2016-11-26T11:34:12Z</time>
      </trkpt>
      <trkpt lat="45.96802" lon="4.71651">
        <ele>193</ele>
        <time>2016-11-26T11:34:13Z</time>
      </trkpt>
      <trkpt lat="45.96795" lon="4.7165">
        <ele>193</ele>
        <time>2016-11-26T11:34:14Z</time>
      </trkpt>
      <trkpt lat="45.96788" lon="4.71649">
        <ele>192</ele>
        <time>2016-11-26T11:34:15Z</time>
      </trkpt>
      <trkpt lat="45.96781" lon="4.71648">
        <ele>192</ele>
        <time>2016-11-26T11:34:16Z</time>
      </trkpt>
      <trkpt lat="45.96774" lon="4.71647">
        <ele>192</ele>
        <time>2016-11-26T11:34:17Z</time>
      </trkpt>
      <trkpt lat="45.96767" lon="4.71647">
        <ele>192</ele>
        <time>2016-11-26T11:34:18Z</time>
      </trkpt>
      <trkpt lat="45.9676" lon="4.71646">
        <ele>192</ele>
        <time>2016-11-26T11:34:19Z</time>
      </trkpt>
      <trkpt lat="45.96754" lon="4.71645">
        <ele>191</ele>
        <time>2016-11-26T11:34:20Z</time>
      </trkpt>
      <trkpt lat="45.96747" lon="4.71644">
        <ele>190</ele>
        <time>2016-11-26T11:34:21Z</time>
      </trkpt>
      <trkpt lat="45.96739" lon="4.71643">
        <ele>190</ele>
        <time>2016-11-26T11:34:22Z</time>
      </trkpt>
      <trkpt lat="45.96732" lon="4.71642">
        <ele>190</ele>
        <time>2016-11-26T11:34:23Z</time>
      </trkpt>
      <trkpt lat="45.96725" lon="4.71641">
        <ele>190</ele>
        <time>2016-11-26T11:34:24Z</time>
      </trkpt>
      <trkpt lat="45.96717" lon="4.7164">
        <ele>190</ele>
        <time>2016-11-26T11:34:25Z</time>
      </trkpt>
      <trkpt lat="45.9671" lon="4.71639">
        <ele>190</ele>
        <time>2016-11-26T11:34:26Z</time>
      </trkpt>
      <trkpt lat="45.96702" lon="4.71638">
        <ele>190</ele>
        <time>2016-11-26T11:34:27Z</time>
      </trkpt>
      <trkpt lat="45.96695" lon="4.71636">
        <ele>190</ele>
        <time>2016-11-26T11:34:28Z</time>
      </trkpt>
      <trkpt lat="45.96688" lon="4.71635">
        <ele>190</ele>
        <time>2016-11-26T11:34:29Z</time>
      </trkpt>
      <trkpt lat="45.96681" lon="4.71634">
        <ele>190</ele>
        <time>2016-11-26T11:34:30Z</time>
      </trkpt>
      <trkpt lat="45.96674" lon="4.71633">
        <ele>190</ele>
        <time>2016-11-26T11:34:31Z</time>
      </trkpt>
      <trkpt lat="45.96667" lon="4.71632">
        <ele>190</ele>
        <time>2016-11-26T11:34:32Z</time>
      </trkpt>
      <trkpt lat="45.9666" lon="4.71631">
        <ele>188</ele>
        <time>2016-11-26T11:34:33Z</time>
      </trkpt>
      <trkpt lat="45.96653" lon="4.7163">
        <ele>188</ele>
        <time>2016-11-26T11:34:34Z</time>
      </trkpt>
      <trkpt lat="45.96647" lon="4.71629">
        <ele>188</ele>
        <time>2016-11-26T11:34:35Z</time>
      </trkpt>
      <trkpt lat="45.9664" lon="4.71627">
        <ele>188</ele>
        <time>2016-11-26T11:34:36Z</time>
      </trkpt>
      <trkpt lat="45.96634" lon="4.71626">
        <ele>188</ele>
        <time>2016-11-26T11:34:37Z</time>
      </trkpt>
      <trkpt lat="45.96627" lon="4.71625">
        <ele>188</ele>
        <time>2016-11-26T11:34:38Z</time>
      </trkpt>
      <trkpt lat="45.9662" lon="4.71624">
        <ele>188</ele>
        <time>2016-11-26T11:34:39Z</time>
      </trkpt>
      <trkpt lat="45.96614" lon="4.71623">
        <ele>188</ele>
        <time>2016-11-26T11:34:40Z</time>
      </trkpt>
      <trkpt lat="45.96608" lon="4.71623">
        <ele>188</ele>
        <time>2016-11-26T11:34:41Z</time>
      </trkpt>
      <trkpt lat="45.96601" lon="4.71622">
        <ele>187</ele>
        <time>2016-11-26T11:34:42Z</time>
      </trkpt>
      <trkpt lat="45.96594" lon="4.71621">
        <ele>187</ele>
        <time>2016-11-26T11:34:43Z</time>
      </trkpt>
      <trkpt lat="45.96586" lon="4.7162">
        <ele>187</ele>
        <time>2016-11-26T11:34:44Z</time>
      </trkpt>
      <trkpt lat="45.96579" lon="4.71618">
        <ele>185</ele>
        <time>2016-11-26T11:34:45Z</time>
      </trkpt>
      <trkpt lat="45.96571" lon="4.71617">
        <ele>185</ele>
        <time>2016-11-26T11:34:46Z</time>
      </trkpt>
      <trkpt lat="45.96564" lon="4.71616">
        <ele>185</ele>
        <time>2016-11-26T11:34:47Z</time>
      </trkpt>
      <trkpt lat="45.96557" lon="4.71615">
        <ele>185</ele>
        <time>2016-11-26T11:34:48Z</time>
      </trkpt>
      <trkpt lat="45.9655" lon="4.71614">
        <ele>185</ele>
        <time>2016-11-26T11:34:49Z</time>
      </trkpt>
      <trkpt lat="45.96544" lon="4.7161">
        <ele>185</ele>
        <time>2016-11-26T11:34:50Z</time>
      </trkpt>
      <trkpt lat="45.96538" lon="4.71606">
        <ele>185</ele>
        <time>2016-11-26T11:34:51Z</time>
      </trkpt>
      <trkpt lat="45.96533" lon="4.71603">
        <ele>185</ele>
        <time>2016-11-26T11:34:52Z</time>
      </trkpt>
      <trkpt lat="45.96526" lon="4.71601">
        <ele>185</ele>
        <time>2016-11-26T11:34:53Z</time>
      </trkpt>
      <trkpt lat="45.9652" lon="4.71602">
        <ele>185</ele>
        <time>2016-11-26T11:34:54Z</time>
      </trkpt>
      <trkpt lat="45.96513" lon="4.71604">
        <ele>184</ele>
        <time>2016-11-26T11:34:55Z</time>
      </trkpt>
      <trkpt lat="45.96507" lon="4.71605">
        <ele>184</ele>
        <time>2016-11-26T11:34:56Z</time>
      </trkpt>
      <trkpt lat="45.965" lon="4.71605">
        <ele>184</ele>
        <time>2016-11-26T11:34:57Z</time>
      </trkpt>
      <trkpt lat="45.96494" lon="4.71604">
        <ele>183</ele>
        <time>2016-11-26T11:34:58Z</time>
      </trkpt>
      <trkpt lat="45.96486" lon="4.71603">
        <ele>183</ele>
        <time>2016-11-26T11:34:59Z</time>
      </trkpt>
      <trkpt lat="45.96479" lon="4.71602">
        <ele>183</ele>
        <time>2016-11-26T11:35:00Z</time>
      </trkpt>
      <trkpt lat="45.96472" lon="4.71601">
        <ele>183</ele>
        <time>2016-11-26T11:35:01Z</time>
      </trkpt>
      <trkpt lat="45.96465" lon="4.716">
        <ele>183</ele>
        <time>2016-11-26T11:35:02Z</time>
      </trkpt>
      <trkpt lat="45.96458" lon="4.71599">
        <ele>183</ele>
        <time>2016-11-26T11:35:03Z</time>
      </trkpt>
      <trkpt lat="45.96451" lon="4.71598">
        <ele>183</ele>
        <time>2016-11-26T11:35:04Z</time>
      </trkpt>
      <trkpt lat="45.96444" lon="4.71597">
        <ele>183</ele>
        <time>2016-11-26T11:35:05Z</time>
      </trkpt>
      <trkpt lat="45.96437" lon="4.71596">
        <ele>184</ele>
        <time>2016-11-26T11:35:06Z</time>
      </trkpt>
      <trkpt lat="45.9643" lon="4.71595">
        <ele>184</ele>
        <time>2016-11-26T11:35:07Z</time>
      </trkpt>
      <trkpt lat="45.96424" lon="4.71594">
        <ele>184</ele>
        <time>2016-11-26T11:35:08Z</time>
      </trkpt>
      <trkpt lat="45.96418" lon="4.71592">
        <ele>184</ele>
        <time>2016-11-26T11:35:09Z</time>
      </trkpt>
      <trkpt lat="45.96411" lon="4.71591">
        <ele>184</ele>
        <time>2016-11-26T11:35:10Z</time>
      </trkpt>
      <trkpt lat="45.96405" lon="4.7159">
        <ele>184</ele>
        <time>2016-11-26T11:35:11Z</time>
      </trkpt>
      <trkpt lat="45.96399" lon="4.71589">
        <ele>183</ele>
        <time>2016-11-26T11:35:12Z</time>
      </trkpt>
      <trkpt lat="45.96392" lon="4.71588">
        <ele>183</ele>
        <time>2016-11-26T11:35:13Z</time>
      </trkpt>
      <trkpt lat="45.96386" lon="4.71587">
        <ele>183</ele>
        <time>2016-11-26T11:35:14Z</time>
      </trkpt>
      <trkpt lat="45.9638" lon="4.71586">
        <ele>183</ele>
        <time>2016-11-26T11:35:15Z</time>
      </trkpt>
      <trkpt lat="45.96374" lon="4.71586">
        <ele>182</ele>
        <time>2016-11-26T11:35:16Z</time>
      </trkpt>
      <trkpt lat="45.96367" lon="4.71585">
        <ele>182</ele>
        <time>2016-11-26T11:35:17Z</time>
      </trkpt>
      <trkpt lat="45.96361" lon="4.71584">
        <ele>182</ele>
        <time>2016-11-26T11:35:18Z</time>
      </trkpt>
      <trkpt lat="45.96354" lon="4.71583">
        <ele>185</ele>
        <time>2016-11-26T11:35:19Z</time>
      </trkpt>
      <trkpt lat="45.96347" lon="4.71582">
        <ele>185</ele>
        <time>2016-11-26T11:35:20Z</time>
      </trkpt>
      <trkpt lat="45.9634" lon="4.71581">
        <ele>184</ele>
        <time>2016-11-26T11:35:21Z</time>
      </trkpt>
      <trkpt lat="45.96333" lon="4.7158">
        <ele>183</ele>
        <time>2016-11-26T11:35:22Z</time>
      </trkpt>
      <trkpt lat="45.96326" lon="4.71579">
        <ele>184</ele>
        <time>2016-11-26T11:35:23Z</time>
      </trkpt>
      <trkpt lat="45.96319" lon="4.71578">
        <ele>184</ele>
        <time>2016-11-26T11:35:24Z</time>
      </trkpt>
      <trkpt lat="45.96312" lon="4.71576">
        <ele>184</ele>
        <time>2016-11-26T11:35:25Z</time>
      </trkpt>
      <trkpt lat="45.96305" lon="4.71575">
        <ele>184</ele>
        <time>2016-11-26T11:35:26Z</time>
      </trkpt>
      <trkpt lat="45.96298" lon="4.71574">
        <ele>184</ele>
        <time>2016-11-26T11:35:27Z</time>
      </trkpt>
      <trkpt lat="45.96291" lon="4.71573">
        <ele>184</ele>
        <time>2016-11-26T11:35:28Z</time>
      </trkpt>
      <trkpt lat="45.96284" lon="4.71572">
        <ele>184</ele>
        <time>2016-11-26T11:35:29Z</time>
      </trkpt>
      <trkpt lat="45.96278" lon="4.71571">
        <ele>184</ele>
        <time>2016-11-26T11:35:30Z</time>
      </trkpt>
      <trkpt lat="45.96271" lon="4.7157">
        <ele>184</ele>
        <time>2016-11-26T11:35:31Z</time>
      </trkpt>
      <trkpt lat="45.96265" lon="4.71569">
        <ele>183</ele>
        <time>2016-11-26T11:35:32Z</time>
      </trkpt>
      <trkpt lat="45.96259" lon="4.71568">
        <ele>183</ele>
        <time>2016-11-26T11:35:33Z</time>
      </trkpt>
      <trkpt lat="45.96254" lon="4.71567">
        <ele>183</ele>
        <time>2016-11-26T11:35:34Z</time>
      </trkpt>
      <trkpt lat="45.96248" lon="4.71566">
        <ele>183</ele>
        <time>2016-11-26T11:35:35Z</time>
      </trkpt>
      <trkpt lat="45.96242" lon="4.71565">
        <ele>183</ele>
        <time>2016-11-26T11:35:36Z</time>
      </trkpt>
      <trkpt lat="45.96236" lon="4.71564">
        <ele>183</ele>
        <time>2016-11-26T11:35:37Z</time>
      </trkpt>
      <trkpt lat="45.9623" lon="4.71563">
        <ele>183</ele>
        <time>2016-11-26T11:35:38Z</time>
      </trkpt>
      <trkpt lat="45.96223" lon="4.71562">
        <ele>183</ele>
        <time>2016-11-26T11:35:39Z</time>
      </trkpt>
      <trkpt lat="45.96217" lon="4.7156">
        <ele>183</ele>
        <time>2016-11-26T11:35:40Z</time>
      </trkpt>
      <trkpt lat="45.9621" lon="4.71559">
        <ele>184</ele>
        <time>2016-11-26T11:35:41Z</time>
      </trkpt>
      <trkpt lat="45.96203" lon="4.71558">
        <ele>184</ele>
        <time>2016-11-26T11:35:42Z</time>
      </trkpt>
      <trkpt lat="45.96197" lon="4.71556">
        <ele>184</ele>
        <time>2016-11-26T11:35:43Z</time>
      </trkpt>
      <trkpt lat="45.9619" lon="4.71555">
        <ele>183</ele>
        <time>2016-11-26T11:35:44Z</time>
      </trkpt>
      <trkpt lat="45.96184" lon="4.71554">
        <ele>183</ele>
        <time>2016-11-26T11:35:45Z</time>
      </trkpt>
      <trkpt lat="45.96177" lon="4.71553">
        <ele>183</ele>
        <time>2016-11-26T11:35:46Z</time>
      </trkpt>
      <trkpt lat="45.96171" lon="4.71551">
        <ele>183</ele>
        <time>2016-11-26T11:35:47Z</time>
      </trkpt>
      <trkpt lat="45.96165" lon="4.7155">
        <ele>184</ele>
        <time>2016-11-26T11:35:48Z</time>
      </trkpt>
      <trkpt lat="45.96159" lon="4.71549">
        <ele>184</ele>
        <time>2016-11-26T11:35:49Z</time>
      </trkpt>
      <trkpt lat="45.96153" lon="4.71548">
        <ele>184</ele>
        <time>2016-11-26T11:35:50Z</time>
      </trkpt>
      <trkpt lat="45.96147" lon="4.71547">
        <ele>184</ele>
        <time>2016-11-26T11:35:51Z</time>
      </trkpt>
      <trkpt lat="45.96142" lon="4.71546">
        <ele>184</ele>
        <time>2016-11-26T11:35:52Z</time>
      </trkpt>
      <trkpt lat="45.96137" lon="4.71546">
        <ele>184</ele>
        <time>2016-11-26T11:35:53Z</time>
      </trkpt>
      <trkpt lat="45.96132" lon="4.71545">
        <ele>185</ele>
        <time>2016-11-26T11:35:54Z</time>
      </trkpt>
      <trkpt lat="45.96127" lon="4.71544">
        <ele>185</ele>
        <time>2016-11-26T11:35:55Z</time>
      </trkpt>
      <trkpt lat="45.96122" lon="4.71543">
        <ele>185</ele>
        <time>2016-11-26T11:35:56Z</time>
      </trkpt>
      <trkpt lat="45.96116" lon="4.71542">
        <ele>185</ele>
        <time>2016-11-26T11:35:57Z</time>
      </trkpt>
      <trkpt lat="45.96111" lon="4.71541">
        <ele>185</ele>
        <time>2016-11-26T11:35:58Z</time>
      </trkpt>
      <trkpt lat="45.96105" lon="4.7154">
        <ele>185</ele>
        <time>2016-11-26T11:35:59Z</time>
      </trkpt>
      <trkpt lat="45.961" lon="4.71539">
        <ele>185</ele>
        <time>2016-11-26T11:36:00Z</time>
      </trkpt>
      <trkpt lat="45.96095" lon="4.71539">
        <ele>185</ele>
        <time>2016-11-26T11:36:01Z</time>
      </trkpt>
      <trkpt lat="45.96089" lon="4.71538">
        <ele>185</ele>
        <time>2016-11-26T11:36:02Z</time>
      </trkpt>
      <trkpt lat="45.96084" lon="4.71537">
        <ele>185</ele>
        <time>2016-11-26T11:36:03Z</time>
      </trkpt>
      <trkpt lat="45.96079" lon="4.71536">
        <ele>186</ele>
        <time>2016-11-26T11:36:04Z</time>
      </trkpt>
      <trkpt lat="45.96074" lon="4.71535">
        <ele>186</ele>
        <time>2016-11-26T11:36:05Z</time>
      </trkpt>
      <trkpt lat="45.96069" lon="4.71533">
        <ele>186</ele>
        <time>2016-11-26T11:36:06Z</time>
      </trkpt>
      <trkpt lat="45.96063" lon="4.71532">
        <ele>186</ele>
        <time>2016-11-26T11:36:07Z</time>
      </trkpt>
      <trkpt lat="45.96058" lon="4.71531">
        <ele>186</ele>
        <time>2016-11-26T11:36:08Z</time>
      </trkpt>
      <trkpt lat="45.96052" lon="4.7153">
        <ele>186</ele>
        <time>2016-11-26T11:36:09Z</time>
      </trkpt>
      <trkpt lat="45.96046" lon="4.71529">
        <ele>186</ele>
        <time>2016-11-26T11:36:10Z</time>
      </trkpt>
      <trkpt lat="45.9604" lon="4.71528">
        <ele>186</ele>
        <time>2016-11-26T11:36:11Z</time>
      </trkpt>
      <trkpt lat="45.96034" lon="4.71527">
        <ele>186</ele>
        <time>2016-11-26T11:36:12Z</time>
      </trkpt>
      <trkpt lat="45.96028" lon="4.71526">
        <ele>186</ele>
        <time>2016-11-26T11:36:13Z</time>
      </trkpt>
      <trkpt lat="45.96022" lon="4.71525">
        <ele>186</ele>
        <time>2016-11-26T11:36:14Z</time>
      </trkpt>
      <trkpt lat="45.96016" lon="4.71523">
        <ele>186</ele>
        <time>2016-11-26T11:36:15Z</time>
      </trkpt>
      <trkpt lat="45.9601" lon="4.71522">
        <ele>186</ele>
        <time>2016-11-26T11:36:16Z</time>
      </trkpt>
      <trkpt lat="45.96005" lon="4.7152">
        <ele>186</ele>
        <time>2016-11-26T11:36:17Z</time>
      </trkpt>
      <trkpt lat="45.95999" lon="4.71516">
        <ele>186</ele>
        <time>2016-11-26T11:36:18Z</time>
      </trkpt>
      <trkpt lat="45.95995" lon="4.71512">
        <ele>186</ele>
        <time>2016-11-26T11:36:19Z</time>
      </trkpt>
      <trkpt lat="45.9599" lon="4.71508">
        <ele>186</ele>
        <time>2016-11-26T11:36:20Z</time>
      </trkpt>
      <trkpt lat="45.95984" lon="4.71506">
        <ele>186</ele>
        <time>2016-11-26T11:36:21Z</time>
      </trkpt>
      <trkpt lat="45.95977" lon="4.71507">
        <ele>185</ele>
        <time>2016-11-26T11:36:22Z</time>
      </trkpt>
      <trkpt lat="45.95971" lon="4.7151">
        <ele>185</ele>
        <time>2016-11-26T11:36:23Z</time>
      </trkpt>
      <trkpt lat="45.95965" lon="4.71514">
        <ele>184</ele>
        <time>2016-11-26T11:36:24Z</time>
      </trkpt>
      <trkpt lat="45.95958" lon="4.71518">
        <ele>184</ele>
        <time>2016-11-26T11:36:25Z</time>
      </trkpt>
      <trkpt lat="45.95951" lon="4.71519">
        <ele>184</ele>
        <time>2016-11-26T11:36:26Z</time>
      </trkpt>
      <trkpt lat="45.95944" lon="4.7152">
        <ele>184</ele>
        <time>2016-11-26T11:36:27Z</time>
      </trkpt>
      <trkpt lat="45.95936" lon="4.7152">
        <ele>184</ele>
        <time>2016-11-26T11:36:28Z</time>
      </trkpt>
      <trkpt lat="45.95928" lon="4.7152">
        <ele>184</ele>
        <time>2016-11-26T11:36:29Z</time>
      </trkpt>
      <trkpt lat="45.9592" lon="4.71519">
        <ele>184</ele>
        <time>2016-11-26T11:36:30Z</time>
      </trkpt>
      <trkpt lat="45.95912" lon="4.71519">
        <ele>183</ele>
        <time>2016-11-26T11:36:31Z</time>
      </trkpt>
      <trkpt lat="45.95905" lon="4.71518">
        <ele>183</ele>
        <time>2016-11-26T11:36:32Z</time>
      </trkpt>
      <trkpt lat="45.95897" lon="4.71518">
        <ele>183</ele>
        <time>2016-11-26T11:36:33Z</time>
      </trkpt>
      <trkpt lat="45.9589" lon="4.71518">
        <ele>182</ele>
        <time>2016-11-26T11:36:34Z</time>
      </trkpt>
      <trkpt lat="45.95883" lon="4.71518">
        <ele>182</ele>
        <time>2016-11-26T11:36:35Z</time>
      </trkpt>
      <trkpt lat="45.95875" lon="4.71518">
        <ele>182</ele>
        <time>2016-11-26T11:36:36Z</time>
      </trkpt>
      <trkpt lat="45.95868" lon="4.71518">
        <ele>182</ele>
        <time>2016-11-26T11:36:37Z</time>
      </trkpt>
      <trkpt lat="45.9586" lon="4.71519">
        <ele>182</ele>
        <time>2016-11-26T11:36:38Z</time>
      </trkpt>
      <trkpt lat="45.95853" lon="4.71518">
        <ele>182</ele>
        <time>2016-11-26T11:36:39Z</time>
      </trkpt>
      <trkpt lat="45.95846" lon="4.71518">
        <ele>182</ele>
        <time>2016-11-26T11:36:40Z</time>
      </trkpt>
      <trkpt lat="45.95838" lon="4.71518">
        <ele>182</ele>
        <time>2016-11-26T11:36:41Z</time>
      </trkpt>
      <trkpt lat="45.95831" lon="4.71518">
        <ele>182</ele>
        <time>2016-11-26T11:36:42Z</time>
      </trkpt>
      <trkpt lat="45.95824" lon="4.71517">
        <ele>182</ele>
        <time>2016-11-26T11:36:43Z</time>
      </trkpt>
      <trkpt lat="45.95816" lon="4.71516">
        <ele>182</ele>
        <time>2016-11-26T11:36:44Z</time>
      </trkpt>
      <trkpt lat="45.95809" lon="4.71516">
        <ele>181</ele>
        <time>2016-11-26T11:36:45Z</time>
      </trkpt>
      <trkpt lat="45.95802" lon="4.71515">
        <ele>181</ele>
        <time>2016-11-26T11:36:46Z</time>
      </trkpt>
      <trkpt lat="45.95794" lon="4.71515">
        <ele>181</ele>
        <time>2016-11-26T11:36:47Z</time>
      </trkpt>
      <trkpt lat="45.95787" lon="4.71514">
        <ele>181</ele>
        <time>2016-11-26T11:36:48Z</time>
      </trkpt>
      <trkpt lat="45.9578" lon="4.71514">
        <ele>181</ele>
        <time>2016-11-26T11:36:49Z</time>
      </trkpt>
      <trkpt lat="45.95772" lon="4.71513">
        <ele>181</ele>
        <time>2016-11-26T11:36:50Z</time>
      </trkpt>
      <trkpt lat="45.95765" lon="4.71513">
        <ele>181</ele>
        <time>2016-11-26T11:36:51Z</time>
      </trkpt>
      <trkpt lat="45.95757" lon="4.71512">
        <ele>181</ele>
        <time>2016-11-26T11:36:52Z</time>
      </trkpt>
      <trkpt lat="45.95749" lon="4.71512">
        <ele>181</ele>
        <time>2016-11-26T11:36:53Z</time>
      </trkpt>
      <trkpt lat="45.95741" lon="4.71511">
        <ele>181</ele>
        <time>2016-11-26T11:36:54Z</time>
      </trkpt>
      <trkpt lat="45.95733" lon="4.71511">
        <ele>181</ele>
        <time>2016-11-26T11:36:55Z</time>
      </trkpt>
      <trkpt lat="45.95725" lon="4.7151">
        <ele>180</ele>
        <time>2016-11-26T11:36:56Z</time>
      </trkpt>
      <trkpt lat="45.95717" lon="4.71509">
        <ele>180</ele>
        <time>2016-11-26T11:36:57Z</time>
      </trkpt>
      <trkpt lat="45.95709" lon="4.71509">
        <ele>180</ele>
        <time>2016-11-26T11:36:58Z</time>
      </trkpt>
      <trkpt lat="45.95701" lon="4.71508">
        <ele>180</ele>
        <time>2016-11-26T11:36:59Z</time>
      </trkpt>
      <trkpt lat="45.95692" lon="4.71507">
        <ele>181</ele>
        <time>2016-11-26T11:37:00Z</time>
      </trkpt>
      <trkpt lat="45.95684" lon="4.71507">
        <ele>181</ele>
        <time>2016-11-26T11:37:01Z</time>
      </trkpt>
      <trkpt lat="45.95675" lon="4.71506">
        <ele>181</ele>
        <time>2016-11-26T11:37:02Z</time>
      </trkpt>
      <trkpt lat="45.95667" lon="4.71506">
        <ele>181</ele>
        <time>2016-11-26T11:37:03Z</time>
      </trkpt>
      <trkpt lat="45.95658" lon="4.71505">
        <ele>181</ele>
        <time>2016-11-26T11:37:04Z</time>
      </trkpt>
      <trkpt lat="45.9565" lon="4.71504">
        <ele>180</ele>
        <time>2016-11-26T11:37:05Z</time>
      </trkpt>
      <trkpt lat="45.95641" lon="4.71504">
        <ele>180</ele>
        <time>2016-11-26T11:37:06Z</time>
      </trkpt>
      <trkpt lat="45.95633" lon="4.71503">
        <ele>180</ele>
        <time>2016-11-26T11:37:07Z</time>
      </trkpt>
      <trkpt lat="45.95625" lon="4.71502">
        <ele>180</ele>
        <time>2016-11-26T11:37:08Z</time>
      </trkpt>
      <trkpt lat="45.95617" lon="4.71502">
        <ele>179</ele>
        <time>2016-11-26T11:37:09Z</time>
      </trkpt>
      <trkpt lat="45.95608" lon="4.71501">
        <ele>179</ele>
        <time>2016-11-26T11:37:10Z</time>
      </trkpt>
      <trkpt lat="45.956" lon="4.71501">
        <ele>180</ele>
        <time>2016-11-26T11:37:11Z</time>
      </trkpt>
      <trkpt lat="45.95592" lon="4.715">
        <ele>181</ele>
        <time>2016-11-26T11:37:12Z</time>
      </trkpt>
      <trkpt lat="45.95584" lon="4.715">
        <ele>180</ele>
        <time>2016-11-26T11:37:13Z</time>
      </trkpt>
      <trkpt lat="45.95576" lon="4.71499">
        <ele>180</ele>
        <time>2016-11-26T11:37:14Z</time>
      </trkpt>
      <trkpt lat="45.95567" lon="4.71498">
        <ele>180</ele>
        <time>2016-11-26T11:37:15Z</time>
      </trkpt>
      <trkpt lat="45.95559" lon="4.71498">
        <ele>179</ele>
        <time>2016-11-26T11:37:16Z</time>
      </trkpt>
      <trkpt lat="45.95551" lon="4.71497">
        <ele>179</ele>
        <time>2016-11-26T11:37:17Z</time>
      </trkpt>
      <trkpt lat="45.95543" lon="4.71497">
        <ele>179</ele>
        <time>2016-11-26T11:37:18Z</time>
      </trkpt>
      <trkpt lat="45.95535" lon="4.71496">
        <ele>179</ele>
        <time>2016-11-26T11:37:19Z</time>
      </trkpt>
      <trkpt lat="45.95526" lon="4.71496">
        <ele>178</ele>
        <time>2016-11-26T11:37:20Z</time>
      </trkpt>
      <trkpt lat="45.95518" lon="4.71495">
        <ele>178</ele>
        <time>2016-11-26T11:37:21Z</time>
      </trkpt>
      <trkpt lat="45.9551" lon="4.71494">
        <ele>178</ele>
        <time>2016-11-26T11:37:22Z</time>
      </trkpt>
      <trkpt lat="45.95502" lon="4.71494">
        <ele>177</ele>
        <time>2016-11-26T11:37:23Z</time>
      </trkpt>
      <trkpt lat="45.95494" lon="4.71493">
        <ele>177</ele>
        <time>2016-11-26T11:37:24Z</time>
      </trkpt>
      <trkpt lat="45.95485" lon="4.71493">
        <ele>177</ele>
        <time>2016-11-26T11:37:25Z</time>
      </trkpt>
      <trkpt lat="45.95477" lon="4.71493">
        <ele>176</ele>
        <time>2016-11-26T11:37:26Z</time>
      </trkpt>
      <trkpt lat="45.95469" lon="4.71492">
        <ele>176</ele>
        <time>2016-11-26T11:37:27Z</time>
      </trkpt>
      <trkpt lat="45.95461" lon="4.71491">
        <ele>176</ele>
        <time>2016-11-26T11:37:28Z</time>
      </trkpt>
      <trkpt lat="45.95453" lon="4.7149">
        <ele>176</ele>
        <time>2016-11-26T11:37:29Z</time>
      </trkpt>
      <trkpt lat="45.95445" lon="4.7149">
        <ele>176</ele>
        <time>2016-11-26T11:37:30Z</time>
      </trkpt>
      <trkpt lat="45.95437" lon="4.71489">
        <ele>175</ele>
        <time>2016-11-26T11:37:31Z</time>
      </trkpt>
      <trkpt lat="45.95429" lon="4.71489">
        <ele>175</ele>
        <time>2016-11-26T11:37:32Z</time>
      </trkpt>
      <trkpt lat="45.95422" lon="4.71488">
        <ele>175</ele>
        <time>2016-11-26T11:37:33Z</time>
      </trkpt>
      <trkpt lat="45.95414" lon="4.71488">
        <ele>175</ele>
        <time>2016-11-26T11:37:34Z</time>
      </trkpt>
      <trkpt lat="45.95406" lon="4.71487">
        <ele>175</ele>
        <time>2016-11-26T11:37:35Z</time>
      </trkpt>
      <trkpt lat="45.95398" lon="4.71487">
        <ele>175</ele>
        <time>2016-11-26T11:37:36Z</time>
      </trkpt>
      <trkpt lat="45.95391" lon="4.71486">
        <ele>175</ele>
        <time>2016-11-26T11:37:37Z</time>
      </trkpt>
      <trkpt lat="45.95383" lon="4.71486">
        <ele>175</ele>
        <time>2016-11-26T11:37:38Z</time>
      </trkpt>
      <trkpt lat="45.95376" lon="4.71485">
        <ele>175</ele>
        <time>2016-11-26T11:37:39Z</time>
      </trkpt>
      <trkpt lat="45.95369" lon="4.71485">
        <ele>175</ele>
        <time>2016-11-26T11:37:40Z</time>
      </trkpt>
      <trkpt lat="45.95362" lon="4.71484">
        <ele>175</ele>
        <time>2016-11-26T11:37:41Z</time>
      </trkpt>
      <trkpt lat="45.95354" lon="4.71483">
        <ele>175</ele>
        <time>2016-11-26T11:37:42Z</time>
      </trkpt>
      <trkpt lat="45.95347" lon="4.71483">
        <ele>175</ele>
        <time>2016-11-26T11:37:43Z</time>
      </trkpt>
      <trkpt lat="45.9534" lon="4.71482">
        <ele>175</ele>
        <time>2016-11-26T11:37:44Z</time>
      </trkpt>
      <trkpt lat="45.95333" lon="4.71482">
        <ele>175</ele>
        <time>2016-11-26T11:37:45Z</time>
      </trkpt>
      <trkpt lat="45.95326" lon="4.71481">
        <ele>175</ele>
        <time>2016-11-26T11:37:46Z</time>
      </trkpt>
      <trkpt lat="45.95319" lon="4.71481">
        <ele>175</ele>
        <time>2016-11-26T11:37:47Z</time>
      </trkpt>
      <trkpt lat="45.95312" lon="4.71481">
        <ele>175</ele>
        <time>2016-11-26T11:37:48Z</time>
      </trkpt>
      <trkpt lat="45.95306" lon="4.7148">
        <ele>175</ele>
        <time>2016-11-26T11:37:49Z</time>
      </trkpt>
      <trkpt lat="45.95299" lon="4.7148">
        <ele>176</ele>
        <time>2016-11-26T11:37:50Z</time>
      </trkpt>
      <trkpt lat="45.95292" lon="4.71479">
        <ele>176</ele>
        <time>2016-11-26T11:37:51Z</time>
      </trkpt>
      <trkpt lat="45.95286" lon="4.71479">
        <ele>176</ele>
        <time>2016-11-26T11:37:52Z</time>
      </trkpt>
      <trkpt lat="45.95279" lon="4.71478">
        <ele>176</ele>
        <time>2016-11-26T11:37:53Z</time>
      </trkpt>
      <trkpt lat="45.95273" lon="4.71478">
        <ele>176</ele>
        <time>2016-11-26T11:37:54Z</time>
      </trkpt>
      <trkpt lat="45.95267" lon="4.71478">
        <ele>176</ele>
        <time>2016-11-26T11:37:55Z</time>
      </trkpt>
      <trkpt lat="45.9526" lon="4.71477">
        <ele>176</ele>
        <time>2016-11-26T11:37:56Z</time>
      </trkpt>
      <trkpt lat="45.95254" lon="4.71477">
        <ele>176</ele>
        <time>2016-11-26T11:37:57Z</time>
      </trkpt>
      <trkpt lat="45.95247" lon="4.71476">
        <ele>177</ele>
        <time>2016-11-26T11:37:58Z</time>
      </trkpt>
      <trkpt lat="45.9524" lon="4.71475">
        <ele>177</ele>
        <time>2016-11-26T11:37:59Z</time>
      </trkpt>
      <trkpt lat="45.95234" lon="4.71475">
        <ele>177</ele>
        <time>2016-11-26T11:38:00Z</time>
      </trkpt>
      <trkpt lat="45.95227" lon="4.71475">
        <ele>177</ele>
        <time>2016-11-26T11:38:01Z</time>
      </trkpt>
      <trkpt lat="45.9522" lon="4.71475">
        <ele>177</ele>
        <time>2016-11-26T11:38:02Z</time>
      </trkpt>
      <trkpt lat="45.95213" lon="4.71474">
        <ele>177</ele>
        <time>2016-11-26T11:38:03Z</time>
      </trkpt>
      <trkpt lat="45.95206" lon="4.71474">
        <ele>177</ele>
        <time>2016-11-26T11:38:04Z</time>
      </trkpt>
      <trkpt lat="45.952" lon="4.71474">
        <ele>177</ele>
        <time>2016-11-26T11:38:05Z</time>
      </trkpt>
      <trkpt lat="45.95193" lon="4.71474">
        <ele>177</ele>
        <time>2016-11-26T11:38:06Z</time>
      </trkpt>
      <trkpt lat="45.95187" lon="4.71473">
        <ele>177</ele>
        <time>2016-11-26T11:38:07Z</time>
      </trkpt>
      <trkpt lat="45.95181" lon="4.71472">
        <ele>177</ele>
        <time>2016-11-26T11:38:08Z</time>
      </trkpt>
      <trkpt lat="45.95175" lon="4.71472">
        <ele>177</ele>
        <time>2016-11-26T11:38:09Z</time>
      </trkpt>
      <trkpt lat="45.95169" lon="4.71472">
        <ele>177</ele>
        <time>2016-11-26T11:38:10Z</time>
      </trkpt>
      <trkpt lat="45.95163" lon="4.71471">
        <ele>178</ele>
        <time>2016-11-26T11:38:11Z</time>
      </trkpt>
      <trkpt lat="45.95157" lon="4.71471">
        <ele>178</ele>
        <time>2016-11-26T11:38:12Z</time>
      </trkpt>
      <trkpt lat="45.95152" lon="4.7147">
        <ele>178</ele>
        <time>2016-11-26T11:38:13Z</time>
      </trkpt>
      <trkpt lat="45.95146" lon="4.7147">
        <ele>178</ele>
        <time>2016-11-26T11:38:14Z</time>
      </trkpt>
      <trkpt lat="45.9514" lon="4.7147">
        <ele>178</ele>
        <time>2016-11-26T11:38:15Z</time>
      </trkpt>
      <trkpt lat="45.95135" lon="4.71469">
        <ele>178</ele>
        <time>2016-11-26T11:38:16Z</time>
      </trkpt>
      <trkpt lat="45.95129" lon="4.71469">
        <ele>178</ele>
        <time>2016-11-26T11:38:17Z</time>
      </trkpt>
      <trkpt lat="45.95124" lon="4.71469">
        <ele>178</ele>
        <time>2016-11-26T11:38:18Z</time>
      </trkpt>
      <trkpt lat="45.95119" lon="4.71468">
        <ele>179</ele>
        <time>2016-11-26T11:38:19Z</time>
      </trkpt>
      <trkpt lat="45.95113" lon="4.71468">
        <ele>179</ele>
        <time>2016-11-26T11:38:20Z</time>
      </trkpt>
      <trkpt lat="45.95107" lon="4.71467">
        <ele>179</ele>
        <time>2016-11-26T11:38:21Z</time>
      </trkpt>
      <trkpt lat="45.95101" lon="4.71466">
        <ele>179</ele>
        <time>2016-11-26T11:38:22Z</time>
      </trkpt>
      <trkpt lat="45.95096" lon="4.71466">
        <ele>179</ele>
        <time>2016-11-26T11:38:23Z</time>
      </trkpt>
      <trkpt lat="45.9509" lon="4.71465">
        <ele>179</ele>
        <time>2016-11-26T11:38:24Z</time>
      </trkpt>
      <trkpt lat="45.95084" lon="4.71465">
        <ele>179</ele>
        <time>2016-11-26T11:38:25Z</time>
      </trkpt>
      <trkpt lat="45.95079" lon="4.71464">
        <ele>181</ele>
        <time>2016-11-26T11:38:26Z</time>
      </trkpt>
      <trkpt lat="45.95073" lon="4.71464">
        <ele>181</ele>
        <time>2016-11-26T11:38:27Z</time>
      </trkpt>
      <trkpt lat="45.95067" lon="4.71464">
        <ele>181</ele>
        <time>2016-11-26T11:38:28Z</time>
      </trkpt>
      <trkpt lat="45.95062" lon="4.71463">
        <ele>181</ele>
        <time>2016-11-26T11:38:29Z</time>
      </trkpt>
      <trkpt lat="45.95056" lon="4.71463">
        <ele>181</ele>
        <time>2016-11-26T11:38:30Z</time>
      </trkpt>
      <trkpt lat="45.95051" lon="4.71463">
        <ele>181</ele>
        <time>2016-11-26T11:38:31Z</time>
      </trkpt>
      <trkpt lat="45.95046" lon="4.71462">
        <ele>182</ele>
        <time>2016-11-26T11:38:32Z</time>
      </trkpt>
      <trkpt lat="45.95042" lon="4.71461">
        <ele>182</ele>
        <time>2016-11-26T11:38:33Z</time>
      </trkpt>
      <trkpt lat="45.95037" lon="4.71461">
        <ele>182</ele>
        <time>2016-11-26T11:38:34Z</time>
      </trkpt>
      <trkpt lat="45.95029" lon="4.7146">
        <ele>182</ele>
        <time>2016-11-26T11:38:36Z</time>
      </trkpt>
      <trkpt lat="45.95024" lon="4.7146">
        <ele>182</ele>
        <time>2016-11-26T11:38:37Z</time>
      </trkpt>
      <trkpt lat="45.95019" lon="4.7146">
        <ele>182</ele>
        <time>2016-11-26T11:38:38Z</time>
      </trkpt>
      <trkpt lat="45.95015" lon="4.7146">
        <ele>182</ele>
        <time>2016-11-26T11:38:39Z</time>
      </trkpt>
      <trkpt lat="45.95006" lon="4.71458">
        <ele>182</ele>
        <time>2016-11-26T11:38:41Z</time>
      </trkpt>
      <trkpt lat="45.95002" lon="4.71458">
        <ele>182</ele>
        <time>2016-11-26T11:38:42Z</time>
      </trkpt>
      <trkpt lat="45.94994" lon="4.71454">
        <ele>184</ele>
        <time>2016-11-26T11:38:44Z</time>
      </trkpt>
      <trkpt lat="45.94991" lon="4.7145">
        <ele>184</ele>
        <time>2016-11-26T11:38:45Z</time>
      </trkpt>
      <trkpt lat="45.94988" lon="4.71445">
        <ele>184</ele>
        <time>2016-11-26T11:38:46Z</time>
      </trkpt>
      <trkpt lat="45.94984" lon="4.71439">
        <ele>185</ele>
        <time>2016-11-26T11:38:47Z</time>
      </trkpt>
      <trkpt lat="45.94981" lon="4.71435">
        <ele>185</ele>
        <time>2016-11-26T11:38:48Z</time>
      </trkpt>
      <trkpt lat="45.94976" lon="4.71431">
        <ele>185</ele>
        <time>2016-11-26T11:38:49Z</time>
      </trkpt>
      <trkpt lat="45.94971" lon="4.71429">
        <ele>185</ele>
        <time>2016-11-26T11:38:50Z</time>
      </trkpt>
      <trkpt lat="45.94966" lon="4.71429">
        <ele>185</ele>
        <time>2016-11-26T11:38:51Z</time>
      </trkpt>
      <trkpt lat="45.9496" lon="4.71432">
        <ele>185</ele>
        <time>2016-11-26T11:38:52Z</time>
      </trkpt>
      <trkpt lat="45.94955" lon="4.71437">
        <ele>184</ele>
        <time>2016-11-26T11:38:53Z</time>
      </trkpt>
      <trkpt lat="45.9495" lon="4.71442">
        <ele>184</ele>
        <time>2016-11-26T11:38:54Z</time>
      </trkpt>
      <trkpt lat="45.94945" lon="4.71448">
        <ele>184</ele>
        <time>2016-11-26T11:38:55Z</time>
      </trkpt>
      <trkpt lat="45.9494" lon="4.71452">
        <ele>184</ele>
        <time>2016-11-26T11:38:56Z</time>
      </trkpt>
      <trkpt lat="45.94934" lon="4.71455">
        <ele>184</ele>
        <time>2016-11-26T11:38:57Z</time>
      </trkpt>
      <trkpt lat="45.94928" lon="4.71455">
        <ele>184</ele>
        <time>2016-11-26T11:38:58Z</time>
      </trkpt>
      <trkpt lat="45.94923" lon="4.71456">
        <ele>184</ele>
        <time>2016-11-26T11:38:59Z</time>
      </trkpt>
      <trkpt lat="45.94917" lon="4.71456">
        <ele>184</ele>
        <time>2016-11-26T11:39:00Z</time>
      </trkpt>
      <trkpt lat="45.94911" lon="4.71456">
        <ele>184</ele>
        <time>2016-11-26T11:39:01Z</time>
      </trkpt>
      <trkpt lat="45.94905" lon="4.71455">
        <ele>184</ele>
        <time>2016-11-26T11:39:02Z</time>
      </trkpt>
      <trkpt lat="45.94899" lon="4.71454">
        <ele>184</ele>
        <time>2016-11-26T11:39:03Z</time>
      </trkpt>
      <trkpt lat="45.94894" lon="4.71454">
        <ele>184</ele>
        <time>2016-11-26T11:39:04Z</time>
      </trkpt>
      <trkpt lat="45.94888" lon="4.71454">
        <ele>184</ele>
        <time>2016-11-26T11:39:05Z</time>
      </trkpt>
      <trkpt lat="45.94883" lon="4.71453">
        <ele>184</ele>
        <time>2016-11-26T11:39:06Z</time>
      </trkpt>
      <trkpt lat="45.94877" lon="4.71453">
        <ele>184</ele>
        <time>2016-11-26T11:39:07Z</time>
      </trkpt>
      <trkpt lat="45.94871" lon="4.71452">
        <ele>184</ele>
        <time>2016-11-26T11:39:08Z</time>
      </trkpt>
      <trkpt lat="45.94864" lon="4.71452">
        <ele>184</ele>
        <time>2016-11-26T11:39:09Z</time>
      </trkpt>
      <trkpt lat="45.94858" lon="4.71451">
        <ele>184</ele>
        <time>2016-11-26T11:39:10Z</time>
      </trkpt>
      <trkpt lat="45.94852" lon="4.7145">
        <ele>184</ele>
        <time>2016-11-26T11:39:11Z</time>
      </trkpt>
      <trkpt lat="45.94846" lon="4.7145">
        <ele>184</ele>
        <time>2016-11-26T11:39:12Z</time>
      </trkpt>
      <trkpt lat="45.94839" lon="4.71449">
        <ele>184</ele>
        <time>2016-11-26T11:39:13Z</time>
      </trkpt>
      <trkpt lat="45.94833" lon="4.71448">
        <ele>184</ele>
        <time>2016-11-26T11:39:14Z</time>
      </trkpt>
      <trkpt lat="45.94828" lon="4.71448">
        <ele>184</ele>
        <time>2016-11-26T11:39:15Z</time>
      </trkpt>
      <trkpt lat="45.94822" lon="4.71448">
        <ele>184</ele>
        <time>2016-11-26T11:39:16Z</time>
      </trkpt>
      <trkpt lat="45.94817" lon="4.71447">
        <ele>184</ele>
        <time>2016-11-26T11:39:17Z</time>
      </trkpt>
      <trkpt lat="45.94811" lon="4.71447">
        <ele>184</ele>
        <time>2016-11-26T11:39:18Z</time>
      </trkpt>
      <trkpt lat="45.94806" lon="4.71446">
        <ele>184</ele>
        <time>2016-11-26T11:39:19Z</time>
      </trkpt>
      <trkpt lat="45.948" lon="4.71445">
        <ele>184</ele>
        <time>2016-11-26T11:39:20Z</time>
      </trkpt>
      <trkpt lat="45.94794" lon="4.71445">
        <ele>183</ele>
        <time>2016-11-26T11:39:21Z</time>
      </trkpt>
      <trkpt lat="45.94788" lon="4.71445">
        <ele>183</ele>
        <time>2016-11-26T11:39:22Z</time>
      </trkpt>
      <trkpt lat="45.94782" lon="4.71444">
        <ele>183</ele>
        <time>2016-11-26T11:39:23Z</time>
      </trkpt>
      <trkpt lat="45.94776" lon="4.71444">
        <ele>184</ele>
        <time>2016-11-26T11:39:24Z</time>
      </trkpt>
      <trkpt lat="45.9477" lon="4.71444">
        <ele>184</ele>
        <time>2016-11-26T11:39:25Z</time>
      </trkpt>
      <trkpt lat="45.94764" lon="4.71444">
        <ele>184</ele>
        <time>2016-11-26T11:39:26Z</time>
      </trkpt>
      <trkpt lat="45.94758" lon="4.71443">
        <ele>184</ele>
        <time>2016-11-26T11:39:27Z</time>
      </trkpt>
      <trkpt lat="45.94752" lon="4.71443">
        <ele>184</ele>
        <time>2016-11-26T11:39:28Z</time>
      </trkpt>
      <trkpt lat="45.94746" lon="4.71443">
        <ele>183</ele>
        <time>2016-11-26T11:39:29Z</time>
      </trkpt>
      <trkpt lat="45.9474" lon="4.71442">
        <ele>183</ele>
        <time>2016-11-26T11:39:30Z</time>
      </trkpt>
      <trkpt lat="45.94734" lon="4.71442">
        <ele>183</ele>
        <time>2016-11-26T11:39:31Z</time>
      </trkpt>
      <trkpt lat="45.94729" lon="4.71442">
        <ele>183</ele>
        <time>2016-11-26T11:39:32Z</time>
      </trkpt>
      <trkpt lat="45.94723" lon="4.71442">
        <ele>182</ele>
        <time>2016-11-26T11:39:33Z</time>
      </trkpt>
      <trkpt lat="45.94716" lon="4.71441">
        <ele>182</ele>
        <time>2016-11-26T11:39:34Z</time>
      </trkpt>
      <trkpt lat="45.9471" lon="4.71441">
        <ele>182</ele>
        <time>2016-11-26T11:39:35Z</time>
      </trkpt>
      <trkpt lat="45.94704" lon="4.7144">
        <ele>182</ele>
        <time>2016-11-26T11:39:36Z</time>
      </trkpt>
      <trkpt lat="45.94698" lon="4.7144">
        <ele>182</ele>
        <time>2016-11-26T11:39:37Z</time>
      </trkpt>
      <trkpt lat="45.94691" lon="4.71439">
        <ele>182</ele>
        <time>2016-11-26T11:39:38Z</time>
      </trkpt>
      <trkpt lat="45.94685" lon="4.71439">
        <ele>182</ele>
        <time>2016-11-26T11:39:39Z</time>
      </trkpt>
      <trkpt lat="45.94679" lon="4.71439">
        <ele>182</ele>
        <time>2016-11-26T11:39:40Z</time>
      </trkpt>
      <trkpt lat="45.94673" lon="4.71439">
        <ele>182</ele>
        <time>2016-11-26T11:39:41Z</time>
      </trkpt>
      <trkpt lat="45.94666" lon="4.71438">
        <ele>182</ele>
        <time>2016-11-26T11:39:42Z</time>
      </trkpt>
      <trkpt lat="45.9466" lon="4.71438">
        <ele>182</ele>
        <time>2016-11-26T11:39:43Z</time>
      </trkpt>
      <trkpt lat="45.94654" lon="4.71438">
        <ele>182</ele>
        <time>2016-11-26T11:39:44Z</time>
      </trkpt>
      <trkpt lat="45.94648" lon="4.71437">
        <ele>182</ele>
        <time>2016-11-26T11:39:45Z</time>
      </trkpt>
      <trkpt lat="45.94642" lon="4.71437">
        <ele>182</ele>
        <time>2016-11-26T11:39:46Z</time>
      </trkpt>
      <trkpt lat="45.94636" lon="4.71436">
        <ele>182</ele>
        <time>2016-11-26T11:39:47Z</time>
      </trkpt>
      <trkpt lat="45.94631" lon="4.71436">
        <ele>182</ele>
        <time>2016-11-26T11:39:48Z</time>
      </trkpt>
      <trkpt lat="45.94625" lon="4.71435">
        <ele>182</ele>
        <time>2016-11-26T11:39:49Z</time>
      </trkpt>
      <trkpt lat="45.94619" lon="4.71435">
        <ele>182</ele>
        <time>2016-11-26T11:39:50Z</time>
      </trkpt>
      <trkpt lat="45.94614" lon="4.71434">
        <ele>182</ele>
        <time>2016-11-26T11:39:51Z</time>
      </trkpt>
      <trkpt lat="45.94608" lon="4.71434">
        <ele>182</ele>
        <time>2016-11-26T11:39:52Z</time>
      </trkpt>
      <trkpt lat="45.94602" lon="4.71434">
        <ele>182</ele>
        <time>2016-11-26T11:39:53Z</time>
      </trkpt>
      <trkpt lat="45.94596" lon="4.71433">
        <ele>182</ele>
        <time>2016-11-26T11:39:54Z</time>
      </trkpt>
      <trkpt lat="45.9459" lon="4.71432">
        <ele>183</ele>
        <time>2016-11-26T11:39:55Z</time>
      </trkpt>
      <trkpt lat="45.94584" lon="4.71432">
        <ele>183</ele>
        <time>2016-11-26T11:39:56Z</time>
      </trkpt>
      <trkpt lat="45.94578" lon="4.71432">
        <ele>182</ele>
        <time>2016-11-26T11:39:57Z</time>
      </trkpt>
      <trkpt lat="45.94572" lon="4.71433">
        <ele>182</ele>
        <time>2016-11-26T11:39:58Z</time>
      </trkpt>
      <trkpt lat="45.94566" lon="4.71434">
        <ele>182</ele>
        <time>2016-11-26T11:39:59Z</time>
      </trkpt>
      <trkpt lat="45.94559" lon="4.71435">
        <ele>181</ele>
        <time>2016-11-26T11:40:00Z</time>
      </trkpt>
      <trkpt lat="45.94552" lon="4.71438">
        <ele>181</ele>
        <time>2016-11-26T11:40:01Z</time>
      </trkpt>
      <trkpt lat="45.94545" lon="4.7144">
        <ele>181</ele>
        <time>2016-11-26T11:40:02Z</time>
      </trkpt>
      <trkpt lat="45.94537" lon="4.71442">
        <ele>181</ele>
        <time>2016-11-26T11:40:03Z</time>
      </trkpt>
      <trkpt lat="45.9453" lon="4.71444">
        <ele>180</ele>
        <time>2016-11-26T11:40:04Z</time>
      </trkpt>
      <trkpt lat="45.94522" lon="4.71448">
        <ele>180</ele>
        <time>2016-11-26T11:40:05Z</time>
      </trkpt>
      <trkpt lat="45.94514" lon="4.71451">
        <ele>180</ele>
        <time>2016-11-26T11:40:06Z</time>
      </trkpt>
      <trkpt lat="45.94506" lon="4.71454">
        <ele>180</ele>
        <time>2016-11-26T11:40:07Z</time>
      </trkpt>
      <trkpt lat="45.94498" lon="4.71457">
        <ele>179</ele>
        <time>2016-11-26T11:40:08Z</time>
      </trkpt>
      <trkpt lat="45.9449" lon="4.71461">
        <ele>179</ele>
        <time>2016-11-26T11:40:09Z</time>
      </trkpt>
      <trkpt lat="45.94482" lon="4.71464">
        <ele>179</ele>
        <time>2016-11-26T11:40:10Z</time>
      </trkpt>
      <trkpt lat="45.94474" lon="4.71467">
        <ele>179</ele>
        <time>2016-11-26T11:40:11Z</time>
      </trkpt>
      <trkpt lat="45.94466" lon="4.7147">
        <ele>179</ele>
        <time>2016-11-26T11:40:12Z</time>
      </trkpt>
      <trkpt lat="45.94458" lon="4.71473">
        <ele>179</ele>
        <time>2016-11-26T11:40:13Z</time>
      </trkpt>
      <trkpt lat="45.9445" lon="4.71475">
        <ele>179</ele>
        <time>2016-11-26T11:40:14Z</time>
      </trkpt>
      <trkpt lat="45.94442" lon="4.71478">
        <ele>179</ele>
        <time>2016-11-26T11:40:15Z</time>
      </trkpt>
      <trkpt lat="45.94434" lon="4.71481">
        <ele>179</ele>
        <time>2016-11-26T11:40:16Z</time>
      </trkpt>
      <trkpt lat="45.94426" lon="4.71483">
        <ele>178</ele>
        <time>2016-11-26T11:40:17Z</time>
      </trkpt>
      <trkpt lat="45.94418" lon="4.71486">
        <ele>178</ele>
        <time>2016-11-26T11:40:18Z</time>
      </trkpt>
      <trkpt lat="45.9441" lon="4.71489">
        <ele>178</ele>
        <time>2016-11-26T11:40:19Z</time>
      </trkpt>
      <trkpt lat="45.94402" lon="4.71492">
        <ele>178</ele>
        <time>2016-11-26T11:40:20Z</time>
      </trkpt>
      <trkpt lat="45.94395" lon="4.71495">
        <ele>178</ele>
        <time>2016-11-26T11:40:21Z</time>
      </trkpt>
      <trkpt lat="45.94387" lon="4.71497">
        <ele>177</ele>
        <time>2016-11-26T11:40:22Z</time>
      </trkpt>
      <trkpt lat="45.9438" lon="4.71501">
        <ele>177</ele>
        <time>2016-11-26T11:40:23Z</time>
      </trkpt>
      <trkpt lat="45.94372" lon="4.71504">
        <ele>176</ele>
        <time>2016-11-26T11:40:24Z</time>
      </trkpt>
      <trkpt lat="45.94364" lon="4.71507">
        <ele>176</ele>
        <time>2016-11-26T11:40:25Z</time>
      </trkpt>
      <trkpt lat="45.94356" lon="4.7151">
        <ele>176</ele>
        <time>2016-11-26T11:40:26Z</time>
      </trkpt>
      <trkpt lat="45.94348" lon="4.71513">
        <ele>176</ele>
        <time>2016-11-26T11:40:27Z</time>
      </trkpt>
      <trkpt lat="45.9434" lon="4.71516">
        <ele>176</ele>
        <time>2016-11-26T11:40:28Z</time>
      </trkpt>
      <trkpt lat="45.94333" lon="4.71519">
        <ele>176</ele>
        <time>2016-11-26T11:40:29Z</time>
      </trkpt>
      <trkpt lat="45.94326" lon="4.71522">
        <ele>176</ele>
        <time>2016-11-26T11:40:30Z</time>
      </trkpt>
      <trkpt lat="45.94318" lon="4.71524">
        <ele>176</ele>
        <time>2016-11-26T11:40:31Z</time>
      </trkpt>
      <trkpt lat="45.9431" lon="4.71527">
        <ele>175</ele>
        <time>2016-11-26T11:40:32Z</time>
      </trkpt>
      <trkpt lat="45.94303" lon="4.7153">
        <ele>175</ele>
        <time>2016-11-26T11:40:33Z</time>
      </trkpt>
      <trkpt lat="45.94295" lon="4.71533">
        <ele>175</ele>
        <time>2016-11-26T11:40:34Z</time>
      </trkpt>
      <trkpt lat="45.94288" lon="4.71536">
        <ele>175</ele>
        <time>2016-11-26T11:40:35Z</time>
      </trkpt>
      <trkpt lat="45.9428" lon="4.71539">
        <ele>175</ele>
        <time>2016-11-26T11:40:36Z</time>
      </trkpt>
      <trkpt lat="45.94271" lon="4.71542">
        <ele>175</ele>
        <time>2016-11-26T11:40:37Z</time>
      </trkpt>
      <trkpt lat="45.94263" lon="4.71545">
        <ele>175</ele>
        <time>2016-11-26T11:40:38Z</time>
      </trkpt>
      <trkpt lat="45.94255" lon="4.71548">
        <ele>175</ele>
        <time>2016-11-26T11:40:39Z</time>
      </trkpt>
      <trkpt lat="45.94247" lon="4.71551">
        <ele>174</ele>
        <time>2016-11-26T11:40:40Z</time>
      </trkpt>
      <trkpt lat="45.94239" lon="4.71555">
        <ele>174</ele>
        <time>2016-11-26T11:40:41Z</time>
      </trkpt>
      <trkpt lat="45.94231" lon="4.71558">
        <ele>174</ele>
        <time>2016-11-26T11:40:42Z</time>
      </trkpt>
      <trkpt lat="45.94223" lon="4.71561">
        <ele>174</ele>
        <time>2016-11-26T11:40:43Z</time>
      </trkpt>
      <trkpt lat="45.94216" lon="4.71564">
        <ele>174</ele>
        <time>2016-11-26T11:40:44Z</time>
      </trkpt>
      <trkpt lat="45.94208" lon="4.71567">
        <ele>174</ele>
        <time>2016-11-26T11:40:45Z</time>
      </trkpt>
      <trkpt lat="45.94201" lon="4.7157">
        <ele>174</ele>
        <time>2016-11-26T11:40:46Z</time>
      </trkpt>
      <trkpt lat="45.94193" lon="4.71573">
        <ele>174</ele>
        <time>2016-11-26T11:40:47Z</time>
      </trkpt>
      <trkpt lat="45.94185" lon="4.71576">
        <ele>174</ele>
        <time>2016-11-26T11:40:48Z</time>
      </trkpt>
      <trkpt lat="45.94177" lon="4.71579">
        <ele>174</ele>
        <time>2016-11-26T11:40:49Z</time>
      </trkpt>
      <trkpt lat="45.9417" lon="4.71582">
        <ele>174</ele>
        <time>2016-11-26T11:40:50Z</time>
      </trkpt>
      <trkpt lat="45.94163" lon="4.71585">
        <ele>174</ele>
        <time>2016-11-26T11:40:51Z</time>
      </trkpt>
      <trkpt lat="45.94155" lon="4.71588">
        <ele>173</ele>
        <time>2016-11-26T11:40:52Z</time>
      </trkpt>
      <trkpt lat="45.94147" lon="4.71591">
        <ele>173</ele>
        <time>2016-11-26T11:40:53Z</time>
      </trkpt>
      <trkpt lat="45.9414" lon="4.71593">
        <ele>173</ele>
        <time>2016-11-26T11:40:54Z</time>
      </trkpt>
      <trkpt lat="45.94132" lon="4.71595">
        <ele>173</ele>
        <time>2016-11-26T11:40:55Z</time>
      </trkpt>
      <trkpt lat="45.94124" lon="4.71598">
        <ele>173</ele>
        <time>2016-11-26T11:40:56Z</time>
      </trkpt>
      <trkpt lat="45.94117" lon="4.71601">
        <ele>173</ele>
        <time>2016-11-26T11:40:57Z</time>
      </trkpt>
      <trkpt lat="45.9411" lon="4.71604">
        <ele>173</ele>
        <time>2016-11-26T11:40:58Z</time>
      </trkpt>
      <trkpt lat="45.94103" lon="4.71607">
        <ele>173</ele>
        <time>2016-11-26T11:40:59Z</time>
      </trkpt>
      <trkpt lat="45.94096" lon="4.7161">
        <ele>173</ele>
        <time>2016-11-26T11:41:00Z</time>
      </trkpt>
      <trkpt lat="45.94089" lon="4.71613">
        <ele>173</ele>
        <time>2016-11-26T11:41:01Z</time>
      </trkpt>
      <trkpt lat="45.94081" lon="4.71615">
        <ele>174</ele>
        <time>2016-11-26T11:41:02Z</time>
      </trkpt>
      <trkpt lat="45.94074" lon="4.71618">
        <ele>174</ele>
        <time>2016-11-26T11:41:03Z</time>
      </trkpt>
      <trkpt lat="45.94066" lon="4.71621">
        <ele>174</ele>
        <time>2016-11-26T11:41:04Z</time>
      </trkpt>
      <trkpt lat="45.94059" lon="4.71623">
        <ele>174</ele>
        <time>2016-11-26T11:41:05Z</time>
      </trkpt>
      <trkpt lat="45.94054" lon="4.71628">
        <ele>175</ele>
        <time>2016-11-26T11:41:06Z</time>
      </trkpt>
      <trkpt lat="45.94047" lon="4.71631">
        <ele>175</ele>
        <time>2016-11-26T11:41:07Z</time>
      </trkpt>
      <trkpt lat="45.94042" lon="4.71633">
        <ele>175</ele>
        <time>2016-11-26T11:41:08Z</time>
      </trkpt>
      <trkpt lat="45.94037" lon="4.71634">
        <ele>175</ele>
        <time>2016-11-26T11:41:09Z</time>
      </trkpt>
      <trkpt lat="45.94029" lon="4.71638">
        <ele>175</ele>
        <time>2016-11-26T11:41:11Z</time>
      </trkpt>
      <trkpt lat="45.94025" lon="4.71639">
        <ele>175</ele>
        <time>2016-11-26T11:41:12Z</time>
      </trkpt>
      <trkpt lat="45.94018" lon="4.71643">
        <ele>175</ele>
        <time>2016-11-26T11:41:14Z</time>
      </trkpt>
      <trkpt lat="45.94015" lon="4.71646">
        <ele>176</ele>
        <time>2016-11-26T11:41:15Z</time>
      </trkpt>
      <trkpt lat="45.94007" lon="4.71652">
        <ele>176</ele>
        <time>2016-11-26T11:41:17Z</time>
      </trkpt>
      <trkpt lat="45.94002" lon="4.71655">
        <ele>176</ele>
        <time>2016-11-26T11:41:18Z</time>
      </trkpt>
      <trkpt lat="45.93997" lon="4.71656">
        <ele>177</ele>
        <time>2016-11-26T11:41:19Z</time>
      </trkpt>
      <trkpt lat="45.93992" lon="4.71658">
        <ele>177</ele>
        <time>2016-11-26T11:41:20Z</time>
      </trkpt>
      <trkpt lat="45.93987" lon="4.71659">
        <ele>177</ele>
        <time>2016-11-26T11:41:21Z</time>
      </trkpt>
      <trkpt lat="45.93982" lon="4.7166">
        <ele>177</ele>
        <time>2016-11-26T11:41:22Z</time>
      </trkpt>
      <trkpt lat="45.93976" lon="4.71662">
        <ele>177</ele>
        <time>2016-11-26T11:41:23Z</time>
      </trkpt>
      <trkpt lat="45.9397" lon="4.71664">
        <ele>177</ele>
        <time>2016-11-26T11:41:24Z</time>
      </trkpt>
      <trkpt lat="45.93963" lon="4.71666">
        <ele>177</ele>
        <time>2016-11-26T11:41:25Z</time>
      </trkpt>
      <trkpt lat="45.93957" lon="4.71668">
        <ele>175</ele>
        <time>2016-11-26T11:41:26Z</time>
      </trkpt>
      <trkpt lat="45.9395" lon="4.7167">
        <ele>175</ele>
        <time>2016-11-26T11:41:27Z</time>
      </trkpt>
      <trkpt lat="45.93945" lon="4.71671">
        <ele>175</ele>
        <time>2016-11-26T11:41:28Z</time>
      </trkpt>
      <trkpt lat="45.93938" lon="4.71674">
        <ele>175</ele>
        <time>2016-11-26T11:41:29Z</time>
      </trkpt>
      <trkpt lat="45.93931" lon="4.71678">
        <ele>175</ele>
        <time>2016-11-26T11:41:30Z</time>
      </trkpt>
      <trkpt lat="45.93925" lon="4.71681">
        <ele>175</ele>
        <time>2016-11-26T11:41:31Z</time>
      </trkpt>
      <trkpt lat="45.93918" lon="4.71683">
        <ele>175</ele>
        <time>2016-11-26T11:41:32Z</time>
      </trkpt>
      <trkpt lat="45.93912" lon="4.71685">
        <ele>175</ele>
        <time>2016-11-26T11:41:33Z</time>
      </trkpt>
      <trkpt lat="45.93906" lon="4.71687">
        <ele>174</ele>
        <time>2016-11-26T11:41:34Z</time>
      </trkpt>
      <trkpt lat="45.939" lon="4.71689">
        <ele>174</ele>
        <time>2016-11-26T11:41:35Z</time>
      </trkpt>
      <trkpt lat="45.93894" lon="4.71691">
        <ele>174</ele>
        <time>2016-11-26T11:41:36Z</time>
      </trkpt>
      <trkpt lat="45.93888" lon="4.71693">
        <ele>174</ele>
        <time>2016-11-26T11:41:37Z</time>
      </trkpt>
      <trkpt lat="45.93882" lon="4.71695">
        <ele>174</ele>
        <time>2016-11-26T11:41:38Z</time>
      </trkpt>
      <trkpt lat="45.93877" lon="4.71697">
        <ele>174</ele>
        <time>2016-11-26T11:41:39Z</time>
      </trkpt>
      <trkpt lat="45.93871" lon="4.71699">
        <ele>174</ele>
        <time>2016-11-26T11:41:40Z</time>
      </trkpt>
      <trkpt lat="45.93865" lon="4.71701">
        <ele>174</ele>
        <time>2016-11-26T11:41:41Z</time>
      </trkpt>
      <trkpt lat="45.93859" lon="4.71704">
        <ele>174</ele>
        <time>2016-11-26T11:41:42Z</time>
      </trkpt>
      <trkpt lat="45.93854" lon="4.71706">
        <ele>174</ele>
        <time>2016-11-26T11:41:43Z</time>
      </trkpt>
      <trkpt lat="45.93848" lon="4.71709">
        <ele>174</ele>
        <time>2016-11-26T11:41:44Z</time>
      </trkpt>
      <trkpt lat="45.93842" lon="4.71712">
        <ele>174</ele>
        <time>2016-11-26T11:41:45Z</time>
      </trkpt>
      <trkpt lat="45.93835" lon="4.71714">
        <ele>175</ele>
        <time>2016-11-26T11:41:46Z</time>
      </trkpt>
      <trkpt lat="45.93829" lon="4.71717">
        <ele>175</ele>
        <time>2016-11-26T11:41:47Z</time>
      </trkpt>
      <trkpt lat="45.93823" lon="4.7172">
        <ele>175</ele>
        <time>2016-11-26T11:41:48Z</time>
      </trkpt>
      <trkpt lat="45.93816" lon="4.71723">
        <ele>175</ele>
        <time>2016-11-26T11:41:49Z</time>
      </trkpt>
      <trkpt lat="45.9381" lon="4.71726">
        <ele>175</ele>
        <time>2016-11-26T11:41:50Z</time>
      </trkpt>
      <trkpt lat="45.93803" lon="4.71728">
        <ele>175</ele>
        <time>2016-11-26T11:41:51Z</time>
      </trkpt>
      <trkpt lat="45.93797" lon="4.71731">
        <ele>175</ele>
        <time>2016-11-26T11:41:52Z</time>
      </trkpt>
      <trkpt lat="45.9379" lon="4.71734">
        <ele>175</ele>
        <time>2016-11-26T11:41:53Z</time>
      </trkpt>
      <trkpt lat="45.93784" lon="4.71737">
        <ele>175</ele>
        <time>2016-11-26T11:41:54Z</time>
      </trkpt>
      <trkpt lat="45.93777" lon="4.71739">
        <ele>175</ele>
        <time>2016-11-26T11:41:55Z</time>
      </trkpt>
      <trkpt lat="45.93771" lon="4.71742">
        <ele>175</ele>
        <time>2016-11-26T11:41:56Z</time>
      </trkpt>
      <trkpt lat="45.93766" lon="4.71744">
        <ele>175</ele>
        <time>2016-11-26T11:41:57Z</time>
      </trkpt>
      <trkpt lat="45.9376" lon="4.71746">
        <ele>175</ele>
        <time>2016-11-26T11:41:58Z</time>
      </trkpt>
      <trkpt lat="45.93754" lon="4.71748">
        <ele>175</ele>
        <time>2016-11-26T11:41:59Z</time>
      </trkpt>
      <trkpt lat="45.93749" lon="4.71751">
        <ele>175</ele>
        <time>2016-11-26T11:42:00Z</time>
      </trkpt>
      <trkpt lat="45.93744" lon="4.71752">
        <ele>175</ele>
        <time>2016-11-26T11:42:01Z</time>
      </trkpt>
      <trkpt lat="45.93739" lon="4.71754">
        <ele>175</ele>
        <time>2016-11-26T11:42:02Z</time>
      </trkpt>
      <trkpt lat="45.93732" lon="4.71756">
        <ele>176</ele>
        <time>2016-11-26T11:42:04Z</time>
      </trkpt>
      <trkpt lat="45.93729" lon="4.71758">
        <ele>176</ele>
        <time>2016-11-26T11:42:05Z</time>
      </trkpt>
      <trkpt lat="45.93723" lon="4.71762">
        <ele>176</ele>
        <time>2016-11-26T11:42:07Z</time>
      </trkpt>
      <trkpt lat="45.9372" lon="4.71766">
        <ele>176</ele>
        <time>2016-11-26T11:42:08Z</time>
      </trkpt>
      <trkpt lat="45.93717" lon="4.71771">
        <ele>176</ele>
        <time>2016-11-26T11:42:09Z</time>
      </trkpt>
      <trkpt lat="45.93714" lon="4.71777">
        <ele>176</ele>
        <time>2016-11-26T11:42:10Z</time>
      </trkpt>
      <trkpt lat="45.93712" lon="4.71783">
        <ele>176</ele>
        <time>2016-11-26T11:42:11Z</time>
      </trkpt>
      <trkpt lat="45.93709" lon="4.7179">
        <ele>176</ele>
        <time>2016-11-26T11:42:12Z</time>
      </trkpt>
      <trkpt lat="45.93707" lon="4.71798">
        <ele>176</ele>
        <time>2016-11-26T11:42:13Z</time>
      </trkpt>
      <trkpt lat="45.93705" lon="4.71805">
        <ele>176</ele>
        <time>2016-11-26T11:42:14Z</time>
      </trkpt>
      <trkpt lat="45.93702" lon="4.71813">
        <ele>176</ele>
        <time>2016-11-26T11:42:15Z</time>
      </trkpt>
      <trkpt lat="45.937" lon="4.71821">
        <ele>176</ele>
        <time>2016-11-26T11:42:16Z</time>
      </trkpt>
      <trkpt lat="45.93697" lon="4.71828">
        <ele>176</ele>
        <time>2016-11-26T11:42:17Z</time>
      </trkpt>
      <trkpt lat="45.93695" lon="4.71835">
        <ele>175</ele>
        <time>2016-11-26T11:42:18Z</time>
      </trkpt>
      <trkpt lat="45.93692" lon="4.71843">
        <ele>175</ele>
        <time>2016-11-26T11:42:19Z</time>
      </trkpt>
      <trkpt lat="45.93689" lon="4.71851">
        <ele>175</ele>
        <time>2016-11-26T11:42:20Z</time>
      </trkpt>
      <trkpt lat="45.93686" lon="4.71859">
        <ele>175</ele>
        <time>2016-11-26T11:42:21Z</time>
      </trkpt>
      <trkpt lat="45.93682" lon="4.71867">
        <ele>175</ele>
        <time>2016-11-26T11:42:22Z</time>
      </trkpt>
      <trkpt lat="45.9368" lon="4.71877">
        <ele>175</ele>
        <time>2016-11-26T11:42:23Z</time>
      </trkpt>
      <trkpt lat="45.93677" lon="4.71886">
        <ele>175</ele>
        <time>2016-11-26T11:42:24Z</time>
      </trkpt>
      <trkpt lat="45.93673" lon="4.71895">
        <ele>175</ele>
        <time>2016-11-26T11:42:25Z</time>
      </trkpt>
      <trkpt lat="45.9367" lon="4.71905">
        <ele>175</ele>
        <time>2016-11-26T11:42:26Z</time>
      </trkpt>
      <trkpt lat="45.93667" lon="4.71914">
        <ele>175</ele>
        <time>2016-11-26T11:42:27Z</time>
      </trkpt>
      <trkpt lat="45.93664" lon="4.71922">
        <ele>175</ele>
        <time>2016-11-26T11:42:28Z</time>
      </trkpt>
      <trkpt lat="45.93659" lon="4.7193">
        <ele>175</ele>
        <time>2016-11-26T11:42:29Z</time>
      </trkpt>
      <trkpt lat="45.93655" lon="4.71939">
        <ele>175</ele>
        <time>2016-11-26T11:42:30Z</time>
      </trkpt>
      <trkpt lat="45.93652" lon="4.71947">
        <ele>175</ele>
        <time>2016-11-26T11:42:31Z</time>
      </trkpt>
      <trkpt lat="45.93649" lon="4.71955">
        <ele>175</ele>
        <time>2016-11-26T11:42:32Z</time>
      </trkpt>
      <trkpt lat="45.93646" lon="4.71963">
        <ele>175</ele>
        <time>2016-11-26T11:42:33Z</time>
      </trkpt>
      <trkpt lat="45.93642" lon="4.71971">
        <ele>175</ele>
        <time>2016-11-26T11:42:34Z</time>
      </trkpt>
      <trkpt lat="45.93639" lon="4.71979">
        <ele>175</ele>
        <time>2016-11-26T11:42:35Z</time>
      </trkpt>
      <trkpt lat="45.93636" lon="4.71988">
        <ele>175</ele>
        <time>2016-11-26T11:42:36Z</time>
      </trkpt>
      <trkpt lat="45.93633" lon="4.71995">
        <ele>175</ele>
        <time>2016-11-26T11:42:37Z</time>
      </trkpt>
      <trkpt lat="45.9363" lon="4.72003">
        <ele>175</ele>
        <time>2016-11-26T11:42:38Z</time>
      </trkpt>
      <trkpt lat="45.93628" lon="4.7201">
        <ele>175</ele>
        <time>2016-11-26T11:42:39Z</time>
      </trkpt>
      <trkpt lat="45.93625" lon="4.72018">
        <ele>175</ele>
        <time>2016-11-26T11:42:40Z</time>
      </trkpt>
      <trkpt lat="45.93622" lon="4.72025">
        <ele>175</ele>
        <time>2016-11-26T11:42:41Z</time>
      </trkpt>
      <trkpt lat="45.93619" lon="4.72033">
        <ele>175</ele>
        <time>2016-11-26T11:42:42Z</time>
      </trkpt>
      <trkpt lat="45.93615" lon="4.72041">
        <ele>175</ele>
        <time>2016-11-26T11:42:43Z</time>
      </trkpt>
      <trkpt lat="45.93612" lon="4.72049">
        <ele>175</ele>
        <time>2016-11-26T11:42:44Z</time>
      </trkpt>
      <trkpt lat="45.9361" lon="4.72057">
        <ele>175</ele>
        <time>2016-11-26T11:42:45Z</time>
      </trkpt>
      <trkpt lat="45.93607" lon="4.72064">
        <ele>175</ele>
        <time>2016-11-26T11:42:46Z</time>
      </trkpt>
      <trkpt lat="45.93605" lon="4.72072">
        <ele>175</ele>
        <time>2016-11-26T11:42:47Z</time>
      </trkpt>
      <trkpt lat="45.93602" lon="4.7208">
        <ele>175</ele>
        <time>2016-11-26T11:42:48Z</time>
      </trkpt>
      <trkpt lat="45.93599" lon="4.72088">
        <ele>175</ele>
        <time>2016-11-26T11:42:49Z</time>
      </trkpt>
      <trkpt lat="45.93596" lon="4.72096">
        <ele>175</ele>
        <time>2016-11-26T11:42:50Z</time>
      </trkpt>
      <trkpt lat="45.93593" lon="4.72104">
        <ele>174</ele>
        <time>2016-11-26T11:42:51Z</time>
      </trkpt>
      <trkpt lat="45.9359" lon="4.72111">
        <ele>174</ele>
        <time>2016-11-26T11:42:52Z</time>
      </trkpt>
      <trkpt lat="45.93588" lon="4.72119">
        <ele>174</ele>
        <time>2016-11-26T11:42:53Z</time>
      </trkpt>
      <trkpt lat="45.93585" lon="4.72126">
        <ele>174</ele>
        <time>2016-11-26T11:42:54Z</time>
      </trkpt>
      <trkpt lat="45.93583" lon="4.72132">
        <ele>174</ele>
        <time>2016-11-26T11:42:55Z</time>
      </trkpt>
      <trkpt lat="45.9358" lon="4.72138">
        <ele>174</ele>
        <time>2016-11-26T11:42:56Z</time>
      </trkpt>
      <trkpt lat="45.93578" lon="4.72144">
        <ele>174</ele>
        <time>2016-11-26T11:42:57Z</time>
      </trkpt>
      <trkpt lat="45.93576" lon="4.72151">
        <ele>174</ele>
        <time>2016-11-26T11:42:58Z</time>
      </trkpt>
      <trkpt lat="45.93573" lon="4.72158">
        <ele>174</ele>
        <time>2016-11-26T11:42:59Z</time>
      </trkpt>
      <trkpt lat="45.9357" lon="4.72168">
        <ele>173</ele>
        <time>2016-11-26T11:43:00Z</time>
      </trkpt>
      <trkpt lat="45.93567" lon="4.72176">
        <ele>173</ele>
        <time>2016-11-26T11:43:01Z</time>
      </trkpt>
      <trkpt lat="45.93563" lon="4.72184">
        <ele>173</ele>
        <time>2016-11-26T11:43:02Z</time>
      </trkpt>
      <trkpt lat="45.93559" lon="4.72191">
        <ele>173</ele>
        <time>2016-11-26T11:43:03Z</time>
      </trkpt>
      <trkpt lat="45.93555" lon="4.72199">
        <ele>173</ele>
        <time>2016-11-26T11:43:04Z</time>
      </trkpt>
      <trkpt lat="45.93552" lon="4.72207">
        <ele>173</ele>
        <time>2016-11-26T11:43:05Z</time>
      </trkpt>
      <trkpt lat="45.93548" lon="4.72216">
        <ele>173</ele>
        <time>2016-11-26T11:43:06Z</time>
      </trkpt>
      <trkpt lat="45.93545" lon="4.72224">
        <ele>172</ele>
        <time>2016-11-26T11:43:07Z</time>
      </trkpt>
      <trkpt lat="45.93542" lon="4.72231">
        <ele>172</ele>
        <time>2016-11-26T11:43:08Z</time>
      </trkpt>
      <trkpt lat="45.93539" lon="4.72239">
        <ele>172</ele>
        <time>2016-11-26T11:43:09Z</time>
      </trkpt>
      <trkpt lat="45.93536" lon="4.72247">
        <ele>172</ele>
        <time>2016-11-26T11:43:10Z</time>
      </trkpt>
      <trkpt lat="45.93532" lon="4.72255">
        <ele>172</ele>
        <time>2016-11-26T11:43:11Z</time>
      </trkpt>
      <trkpt lat="45.93529" lon="4.72263">
        <ele>172</ele>
        <time>2016-11-26T11:43:12Z</time>
      </trkpt>
      <trkpt lat="45.93527" lon="4.72271">
        <ele>172</ele>
        <time>2016-11-26T11:43:13Z</time>
      </trkpt>
      <trkpt lat="45.93524" lon="4.72279">
        <ele>172</ele>
        <time>2016-11-26T11:43:14Z</time>
      </trkpt>
      <trkpt lat="45.93521" lon="4.72287">
        <ele>172</ele>
        <time>2016-11-26T11:43:15Z</time>
      </trkpt>
      <trkpt lat="45.93517" lon="4.72295">
        <ele>172</ele>
        <time>2016-11-26T11:43:16Z</time>
      </trkpt>
      <trkpt lat="45.93513" lon="4.72302">
        <ele>172</ele>
        <time>2016-11-26T11:43:17Z</time>
      </trkpt>
      <trkpt lat="45.93509" lon="4.72309">
        <ele>173</ele>
        <time>2016-11-26T11:43:18Z</time>
      </trkpt>
      <trkpt lat="45.93504" lon="4.72316">
        <ele>173</ele>
        <time>2016-11-26T11:43:19Z</time>
      </trkpt>
      <trkpt lat="45.93499" lon="4.72323">
        <ele>173</ele>
        <time>2016-11-26T11:43:20Z</time>
      </trkpt>
      <trkpt lat="45.93494" lon="4.72329">
        <ele>173</ele>
        <time>2016-11-26T11:43:21Z</time>
      </trkpt>
      <trkpt lat="45.93489" lon="4.72336">
        <ele>173</ele>
        <time>2016-11-26T11:43:22Z</time>
      </trkpt>
      <trkpt lat="45.93485" lon="4.72343">
        <ele>173</ele>
        <time>2016-11-26T11:43:23Z</time>
      </trkpt>
      <trkpt lat="45.9348" lon="4.7235">
        <ele>173</ele>
        <time>2016-11-26T11:43:24Z</time>
      </trkpt>
      <trkpt lat="45.93475" lon="4.72357">
        <ele>173</ele>
        <time>2016-11-26T11:43:25Z</time>
      </trkpt>
      <trkpt lat="45.9347" lon="4.72364">
        <ele>173</ele>
        <time>2016-11-26T11:43:26Z</time>
      </trkpt>
      <trkpt lat="45.93465" lon="4.7237">
        <ele>173</ele>
        <time>2016-11-26T11:43:27Z</time>
      </trkpt>
      <trkpt lat="45.93461" lon="4.72377">
        <ele>173</ele>
        <time>2016-11-26T11:43:28Z</time>
      </trkpt>
      <trkpt lat="45.93456" lon="4.72382">
        <ele>173</ele>
        <time>2016-11-26T11:43:29Z</time>
      </trkpt>
      <trkpt lat="45.93451" lon="4.72387">
        <ele>173</ele>
        <time>2016-11-26T11:43:30Z</time>
      </trkpt>
      <trkpt lat="45.93446" lon="4.72392">
        <ele>173</ele>
        <time>2016-11-26T11:43:31Z</time>
      </trkpt>
      <trkpt lat="45.9344" lon="4.72396">
        <ele>173</ele>
        <time>2016-11-26T11:43:32Z</time>
      </trkpt>
      <trkpt lat="45.93435" lon="4.724">
        <ele>174</ele>
        <time>2016-11-26T11:43:33Z</time>
      </trkpt>
      <trkpt lat="45.93429" lon="4.72403">
        <ele>174</ele>
        <time>2016-11-26T11:43:34Z</time>
      </trkpt>
      <trkpt lat="45.93423" lon="4.72405">
        <ele>174</ele>
        <time>2016-11-26T11:43:35Z</time>
      </trkpt>
      <trkpt lat="45.93418" lon="4.72408">
        <ele>174</ele>
        <time>2016-11-26T11:43:36Z</time>
      </trkpt>
      <trkpt lat="45.93413" lon="4.72409">
        <ele>174</ele>
        <time>2016-11-26T11:43:37Z</time>
      </trkpt>
      <trkpt lat="45.93408" lon="4.72409">
        <ele>174</ele>
        <time>2016-11-26T11:43:38Z</time>
      </trkpt>
      <trkpt lat="45.93403" lon="4.72409">
        <ele>174</ele>
        <time>2016-11-26T11:43:39Z</time>
      </trkpt>
      <trkpt lat="45.93398" lon="4.72408">
        <ele>174</ele>
        <time>2016-11-26T11:43:40Z</time>
      </trkpt>
      <trkpt lat="45.93393" lon="4.7241">
        <ele>174</ele>
        <time>2016-11-26T11:43:41Z</time>
      </trkpt>
      <trkpt lat="45.93389" lon="4.72414">
        <ele>174</ele>
        <time>2016-11-26T11:43:42Z</time>
      </trkpt>
      <trkpt lat="45.93386" lon="4.7242">
        <ele>173</ele>
        <time>2016-11-26T11:43:43Z</time>
      </trkpt>
      <trkpt lat="45.93386" lon="4.72427">
        <ele>173</ele>
        <time>2016-11-26T11:43:44Z</time>
      </trkpt>
      <trkpt lat="45.93387" lon="4.72434">
        <ele>173</ele>
        <time>2016-11-26T11:43:45Z</time>
      </trkpt>
      <trkpt lat="45.93389" lon="4.72441">
        <ele>173</ele>
        <time>2016-11-26T11:43:46Z</time>
      </trkpt>
      <trkpt lat="45.93392" lon="4.72448">
        <ele>173</ele>
        <time>2016-11-26T11:43:47Z</time>
      </trkpt>
      <trkpt lat="45.93392" lon="4.72455">
        <ele>173</ele>
        <time>2016-11-26T11:43:48Z</time>
      </trkpt>
      <trkpt lat="45.93391" lon="4.72462">
        <ele>173</ele>
        <time>2016-11-26T11:43:49Z</time>
      </trkpt>
      <trkpt lat="45.93388" lon="4.72468">
        <ele>173</ele>
        <time>2016-11-26T11:43:50Z</time>
      </trkpt>
      <trkpt lat="45.93383" lon="4.72474">
        <ele>173</ele>
        <time>2016-11-26T11:43:51Z</time>
      </trkpt>
      <trkpt lat="45.93379" lon="4.72479">
        <ele>173</ele>
        <time>2016-11-26T11:43:52Z</time>
      </trkpt>
      <trkpt lat="45.93374" lon="4.72485">
        <ele>173</ele>
        <time>2016-11-26T11:43:53Z</time>
      </trkpt>
      <trkpt lat="45.93368" lon="4.72491">
        <ele>173</ele>
        <time>2016-11-26T11:43:54Z</time>
      </trkpt>
      <trkpt lat="45.93363" lon="4.72497">
        <ele>173</ele>
        <time>2016-11-26T11:43:55Z</time>
      </trkpt>
      <trkpt lat="45.93358" lon="4.72503">
        <ele>172</ele>
        <time>2016-11-26T11:43:56Z</time>
      </trkpt>
      <trkpt lat="45.93353" lon="4.72509">
        <ele>172</ele>
        <time>2016-11-26T11:43:57Z</time>
      </trkpt>
      <trkpt lat="45.93348" lon="4.72516">
        <ele>172</ele>
        <time>2016-11-26T11:43:58Z</time>
      </trkpt>
      <trkpt lat="45.93342" lon="4.72522">
        <ele>172</ele>
        <time>2016-11-26T11:43:59Z</time>
      </trkpt>
      <trkpt lat="45.93337" lon="4.72527">
        <ele>172</ele>
        <time>2016-11-26T11:44:00Z</time>
      </trkpt>
      <trkpt lat="45.93332" lon="4.72532">
        <ele>172</ele>
        <time>2016-11-26T11:44:01Z</time>
      </trkpt>
      <trkpt lat="45.93327" lon="4.72537">
        <ele>172</ele>
        <time>2016-11-26T11:44:02Z</time>
      </trkpt>
      <trkpt lat="45.93323" lon="4.72542">
        <ele>172</ele>
        <time>2016-11-26T11:44:03Z</time>
      </trkpt>
      <trkpt lat="45.93319" lon="4.72547">
        <ele>172</ele>
        <time>2016-11-26T11:44:04Z</time>
      </trkpt>
      <trkpt lat="45.93314" lon="4.72552">
        <ele>172</ele>
        <time>2016-11-26T11:44:05Z</time>
      </trkpt>
      <trkpt lat="45.93309" lon="4.72557">
        <ele>172</ele>
        <time>2016-11-26T11:44:06Z</time>
      </trkpt>
      <trkpt lat="45.93305" lon="4.72562">
        <ele>172</ele>
        <time>2016-11-26T11:44:07Z</time>
      </trkpt>
      <trkpt lat="45.933" lon="4.72567">
        <ele>172</ele>
        <time>2016-11-26T11:44:08Z</time>
      </trkpt>
      <trkpt lat="45.93296" lon="4.72572">
        <ele>171</ele>
        <time>2016-11-26T11:44:09Z</time>
      </trkpt>
      <trkpt lat="45.93291" lon="4.72577">
        <ele>171</ele>
        <time>2016-11-26T11:44:10Z</time>
      </trkpt>
      <trkpt lat="45.93286" lon="4.72582">
        <ele>171</ele>
        <time>2016-11-26T11:44:11Z</time>
      </trkpt>
      <trkpt lat="45.93281" lon="4.72588">
        <ele>170</ele>
        <time>2016-11-26T11:44:12Z</time>
      </trkpt>
      <trkpt lat="45.93277" lon="4.72593">
        <ele>170</ele>
        <time>2016-11-26T11:44:13Z</time>
      </trkpt>
      <trkpt lat="45.93272" lon="4.72599">
        <ele>170</ele>
        <time>2016-11-26T11:44:14Z</time>
      </trkpt>
      <trkpt lat="45.93267" lon="4.72605">
        <ele>170</ele>
        <time>2016-11-26T11:44:15Z</time>
      </trkpt>
      <trkpt lat="45.93262" lon="4.7261">
        <ele>170</ele>
        <time>2016-11-26T11:44:16Z</time>
      </trkpt>
      <trkpt lat="45.93257" lon="4.72616">
        <ele>170</ele>
        <time>2016-11-26T11:44:17Z</time>
      </trkpt>
      <trkpt lat="45.93252" lon="4.72622">
        <ele>170</ele>
        <time>2016-11-26T11:44:18Z</time>
      </trkpt>
      <trkpt lat="45.93247" lon="4.72628">
        <ele>170</ele>
        <time>2016-11-26T11:44:19Z</time>
      </trkpt>
      <trkpt lat="45.93242" lon="4.72633">
        <ele>170</ele>
        <time>2016-11-26T11:44:20Z</time>
      </trkpt>
      <trkpt lat="45.93238" lon="4.72639">
        <ele>170</ele>
        <time>2016-11-26T11:44:21Z</time>
      </trkpt>
      <trkpt lat="45.93233" lon="4.72645">
        <ele>170</ele>
        <time>2016-11-26T11:44:22Z</time>
      </trkpt>
      <trkpt lat="45.93228" lon="4.72651">
        <ele>170</ele>
        <time>2016-11-26T11:44:23Z</time>
      </trkpt>
      <trkpt lat="45.93223" lon="4.72657">
        <ele>170</ele>
        <time>2016-11-26T11:44:24Z</time>
      </trkpt>
      <trkpt lat="45.93219" lon="4.72662">
        <ele>170</ele>
        <time>2016-11-26T11:44:25Z</time>
      </trkpt>
      <trkpt lat="45.93214" lon="4.72667">
        <ele>169</ele>
        <time>2016-11-26T11:44:26Z</time>
      </trkpt>
      <trkpt lat="45.93209" lon="4.72672">
        <ele>169</ele>
        <time>2016-11-26T11:44:27Z</time>
      </trkpt>
      <trkpt lat="45.93205" lon="4.72678">
        <ele>169</ele>
        <time>2016-11-26T11:44:28Z</time>
      </trkpt>
      <trkpt lat="45.932" lon="4.72683">
        <ele>169</ele>
        <time>2016-11-26T11:44:29Z</time>
      </trkpt>
      <trkpt lat="45.93196" lon="4.72688">
        <ele>169</ele>
        <time>2016-11-26T11:44:30Z</time>
      </trkpt>
      <trkpt lat="45.93192" lon="4.72692">
        <ele>169</ele>
        <time>2016-11-26T11:44:31Z</time>
      </trkpt>
      <trkpt lat="45.93187" lon="4.72698">
        <ele>169</ele>
        <time>2016-11-26T11:44:32Z</time>
      </trkpt>
      <trkpt lat="45.93183" lon="4.72703">
        <ele>169</ele>
        <time>2016-11-26T11:44:33Z</time>
      </trkpt>
      <trkpt lat="45.93179" lon="4.72708">
        <ele>169</ele>
        <time>2016-11-26T11:44:34Z</time>
      </trkpt>
      <trkpt lat="45.93174" lon="4.72714">
        <ele>170</ele>
        <time>2016-11-26T11:44:35Z</time>
      </trkpt>
      <trkpt lat="45.93169" lon="4.7272">
        <ele>170</ele>
        <time>2016-11-26T11:44:36Z</time>
      </trkpt>
      <trkpt lat="45.93164" lon="4.72726">
        <ele>170</ele>
        <time>2016-11-26T11:44:37Z</time>
      </trkpt>
      <trkpt lat="45.93158" lon="4.72732">
        <ele>170</ele>
        <time>2016-11-26T11:44:38Z</time>
      </trkpt>
      <trkpt lat="45.93152" lon="4.72738">
        <ele>170</ele>
        <time>2016-11-26T11:44:39Z</time>
      </trkpt>
      <trkpt lat="45.93147" lon="4.72744">
        <ele>170</ele>
        <time>2016-11-26T11:44:40Z</time>
      </trkpt>
      <trkpt lat="45.93142" lon="4.7275">
        <ele>171</ele>
        <time>2016-11-26T11:44:41Z</time>
      </trkpt>
      <trkpt lat="45.93137" lon="4.72756">
        <ele>171</ele>
        <time>2016-11-26T11:44:42Z</time>
      </trkpt>
      <trkpt lat="45.93132" lon="4.72762">
        <ele>171</ele>
        <time>2016-11-26T11:44:43Z</time>
      </trkpt>
      <trkpt lat="45.93127" lon="4.72768">
        <ele>171</ele>
        <time>2016-11-26T11:44:44Z</time>
      </trkpt>
      <trkpt lat="45.93122" lon="4.72774">
        <ele>171</ele>
        <time>2016-11-26T11:44:45Z</time>
      </trkpt>
      <trkpt lat="45.93118" lon="4.7278">
        <ele>171</ele>
        <time>2016-11-26T11:44:46Z</time>
      </trkpt>
      <trkpt lat="45.93113" lon="4.72786">
        <ele>171</ele>
        <time>2016-11-26T11:44:47Z</time>
      </trkpt>
      <trkpt lat="45.93109" lon="4.72792">
        <ele>171</ele>
        <time>2016-11-26T11:44:48Z</time>
      </trkpt>
      <trkpt lat="45.93104" lon="4.72797">
        <ele>171</ele>
        <time>2016-11-26T11:44:49Z</time>
      </trkpt>
      <trkpt lat="45.931" lon="4.72803">
        <ele>171</ele>
        <time>2016-11-26T11:44:50Z</time>
      </trkpt>
      <trkpt lat="45.93096" lon="4.72808">
        <ele>172</ele>
        <time>2016-11-26T11:44:51Z</time>
      </trkpt>
      <trkpt lat="45.93091" lon="4.72813">
        <ele>172</ele>
        <time>2016-11-26T11:44:52Z</time>
      </trkpt>
      <trkpt lat="45.93087" lon="4.72818">
        <ele>172</ele>
        <time>2016-11-26T11:44:53Z</time>
      </trkpt>
      <trkpt lat="45.93083" lon="4.72821">
        <ele>173</ele>
        <time>2016-11-26T11:44:54Z</time>
      </trkpt>
      <trkpt lat="45.9308" lon="4.72825">
        <ele>173</ele>
        <time>2016-11-26T11:44:55Z</time>
      </trkpt>
      <trkpt lat="45.93075" lon="4.72828">
        <ele>173</ele>
        <time>2016-11-26T11:44:56Z</time>
      </trkpt>
      <trkpt lat="45.93071" lon="4.72832">
        <ele>173</ele>
        <time>2016-11-26T11:44:57Z</time>
      </trkpt>
      <trkpt lat="45.93067" lon="4.72835">
        <ele>173</ele>
        <time>2016-11-26T11:44:58Z</time>
      </trkpt>
      <trkpt lat="45.93064" lon="4.72838">
        <ele>173</ele>
        <time>2016-11-26T11:44:59Z</time>
      </trkpt>
      <trkpt lat="45.93058" lon="4.72845">
        <ele>172</ele>
        <time>2016-11-26T11:45:00Z</time>
      </trkpt>
      <trkpt lat="45.93047" lon="4.72855">
        <ele>172</ele>
        <time>2016-11-26T11:45:01Z</time>
      </trkpt>
      <trkpt lat="45.9304" lon="4.72864">
        <ele>172</ele>
        <time>2016-11-26T11:45:02Z</time>
      </trkpt>
      <trkpt lat="45.93036" lon="4.72869">
        <ele>172</ele>
        <time>2016-11-26T11:45:03Z</time>
      </trkpt>
      <trkpt lat="45.93032" lon="4.72875">
        <ele>172</ele>
        <time>2016-11-26T11:45:04Z</time>
      </trkpt>
      <trkpt lat="45.93027" lon="4.72881">
        <ele>172</ele>
        <time>2016-11-26T11:45:05Z</time>
      </trkpt>
      <trkpt lat="45.93022" lon="4.72887">
        <ele>172</ele>
        <time>2016-11-26T11:45:06Z</time>
      </trkpt>
      <trkpt lat="45.93018" lon="4.72894">
        <ele>172</ele>
        <time>2016-11-26T11:45:07Z</time>
      </trkpt>
      <trkpt lat="45.93013" lon="4.72901">
        <ele>172</ele>
        <time>2016-11-26T11:45:08Z</time>
      </trkpt>
      <trkpt lat="45.93008" lon="4.72907">
        <ele>171</ele>
        <time>2016-11-26T11:45:09Z</time>
      </trkpt>
      <trkpt lat="45.93004" lon="4.72913">
        <ele>171</ele>
        <time>2016-11-26T11:45:10Z</time>
      </trkpt>
      <trkpt lat="45.92999" lon="4.72919">
        <ele>171</ele>
        <time>2016-11-26T11:45:11Z</time>
      </trkpt>
      <trkpt lat="45.92994" lon="4.72924">
        <ele>171</ele>
        <time>2016-11-26T11:45:12Z</time>
      </trkpt>
      <trkpt lat="45.9299" lon="4.72929">
        <ele>171</ele>
        <time>2016-11-26T11:45:13Z</time>
      </trkpt>
      <trkpt lat="45.92985" lon="4.72934">
        <ele>171</ele>
        <time>2016-11-26T11:45:14Z</time>
      </trkpt>
      <trkpt lat="45.92981" lon="4.7294">
        <ele>171</ele>
        <time>2016-11-26T11:45:15Z</time>
      </trkpt>
      <trkpt lat="45.92977" lon="4.72945">
        <ele>171</ele>
        <time>2016-11-26T11:45:16Z</time>
      </trkpt>
      <trkpt lat="45.92972" lon="4.7295">
        <ele>171</ele>
        <time>2016-11-26T11:45:17Z</time>
      </trkpt>
      <trkpt lat="45.92967" lon="4.72956">
        <ele>171</ele>
        <time>2016-11-26T11:45:18Z</time>
      </trkpt>
      <trkpt lat="45.92963" lon="4.72961">
        <ele>171</ele>
        <time>2016-11-26T11:45:19Z</time>
      </trkpt>
      <trkpt lat="45.92958" lon="4.72967">
        <ele>171</ele>
        <time>2016-11-26T11:45:20Z</time>
      </trkpt>
      <trkpt lat="45.92953" lon="4.72973">
        <ele>171</ele>
        <time>2016-11-26T11:45:21Z</time>
      </trkpt>
      <trkpt lat="45.92949" lon="4.72979">
        <ele>171</ele>
        <time>2016-11-26T11:45:22Z</time>
      </trkpt>
      <trkpt lat="45.92944" lon="4.72984">
        <ele>171</ele>
        <time>2016-11-26T11:45:23Z</time>
      </trkpt>
      <trkpt lat="45.92939" lon="4.7299">
        <ele>171</ele>
        <time>2016-11-26T11:45:24Z</time>
      </trkpt>
      <trkpt lat="45.92935" lon="4.72996">
        <ele>172</ele>
        <time>2016-11-26T11:45:25Z</time>
      </trkpt>
      <trkpt lat="45.9293" lon="4.73001">
        <ele>172</ele>
        <time>2016-11-26T11:45:26Z</time>
      </trkpt>
      <trkpt lat="45.92925" lon="4.73007">
        <ele>172</ele>
        <time>2016-11-26T11:45:27Z</time>
      </trkpt>
      <trkpt lat="45.92921" lon="4.73012">
        <ele>172</ele>
        <time>2016-11-26T11:45:28Z</time>
      </trkpt>
      <trkpt lat="45.92916" lon="4.73018">
        <ele>172</ele>
        <time>2016-11-26T11:45:29Z</time>
      </trkpt>
      <trkpt lat="45.92912" lon="4.73024">
        <ele>172</ele>
        <time>2016-11-26T11:45:30Z</time>
      </trkpt>
      <trkpt lat="45.92907" lon="4.7303">
        <ele>172</ele>
        <time>2016-11-26T11:45:31Z</time>
      </trkpt>
      <trkpt lat="45.92902" lon="4.73036">
        <ele>172</ele>
        <time>2016-11-26T11:45:32Z</time>
      </trkpt>
      <trkpt lat="45.92898" lon="4.73042">
        <ele>172</ele>
        <time>2016-11-26T11:45:33Z</time>
      </trkpt>
      <trkpt lat="45.92894" lon="4.73049">
        <ele>172</ele>
        <time>2016-11-26T11:45:34Z</time>
      </trkpt>
      <trkpt lat="45.9289" lon="4.73055">
        <ele>172</ele>
        <time>2016-11-26T11:45:35Z</time>
      </trkpt>
      <trkpt lat="45.92886" lon="4.73062">
        <ele>172</ele>
        <time>2016-11-26T11:45:36Z</time>
      </trkpt>
      <trkpt lat="45.92882" lon="4.7307">
        <ele>172</ele>
        <time>2016-11-26T11:45:37Z</time>
      </trkpt>
      <trkpt lat="45.92879" lon="4.73077">
        <ele>172</ele>
        <time>2016-11-26T11:45:38Z</time>
      </trkpt>
      <trkpt lat="45.92875" lon="4.73086">
        <ele>172</ele>
        <time>2016-11-26T11:45:39Z</time>
      </trkpt>
      <trkpt lat="45.92872" lon="4.73094">
        <ele>172</ele>
        <time>2016-11-26T11:45:40Z</time>
      </trkpt>
      <trkpt lat="45.92869" lon="4.73103">
        <ele>172</ele>
        <time>2016-11-26T11:45:41Z</time>
      </trkpt>
      <trkpt lat="45.92867" lon="4.73112">
        <ele>171</ele>
        <time>2016-11-26T11:45:42Z</time>
      </trkpt>
      <trkpt lat="45.92865" lon="4.73122">
        <ele>171</ele>
        <time>2016-11-26T11:45:43Z</time>
      </trkpt>
      <trkpt lat="45.92864" lon="4.73132">
        <ele>171</ele>
        <time>2016-11-26T11:45:44Z</time>
      </trkpt>
      <trkpt lat="45.92862" lon="4.73141">
        <ele>171</ele>
        <time>2016-11-26T11:45:45Z</time>
      </trkpt>
      <trkpt lat="45.92861" lon="4.73151">
        <ele>171</ele>
        <time>2016-11-26T11:45:46Z</time>
      </trkpt>
      <trkpt lat="45.9286" lon="4.7316">
        <ele>171</ele>
        <time>2016-11-26T11:45:47Z</time>
      </trkpt>
      <trkpt lat="45.92859" lon="4.73169">
        <ele>171</ele>
        <time>2016-11-26T11:45:48Z</time>
      </trkpt>
      <trkpt lat="45.92858" lon="4.73177">
        <ele>171</ele>
        <time>2016-11-26T11:45:49Z</time>
      </trkpt>
      <trkpt lat="45.92858" lon="4.73185">
        <ele>171</ele>
        <time>2016-11-26T11:45:50Z</time>
      </trkpt>
      <trkpt lat="45.92857" lon="4.73193">
        <ele>171</ele>
        <time>2016-11-26T11:45:51Z</time>
      </trkpt>
      <trkpt lat="45.92856" lon="4.73201">
        <ele>171</ele>
        <time>2016-11-26T11:45:52Z</time>
      </trkpt>
      <trkpt lat="45.92855" lon="4.73209">
        <ele>171</ele>
        <time>2016-11-26T11:45:53Z</time>
      </trkpt>
      <trkpt lat="45.92854" lon="4.73217">
        <ele>171</ele>
        <time>2016-11-26T11:45:54Z</time>
      </trkpt>
      <trkpt lat="45.92854" lon="4.73225">
        <ele>171</ele>
        <time>2016-11-26T11:45:55Z</time>
      </trkpt>
      <trkpt lat="45.92852" lon="4.73233">
        <ele>171</ele>
        <time>2016-11-26T11:45:56Z</time>
      </trkpt>
      <trkpt lat="45.92851" lon="4.73242">
        <ele>171</ele>
        <time>2016-11-26T11:45:57Z</time>
      </trkpt>
      <trkpt lat="45.9285" lon="4.73251">
        <ele>171</ele>
        <time>2016-11-26T11:45:58Z</time>
      </trkpt>
      <trkpt lat="45.92849" lon="4.7326">
        <ele>171</ele>
        <time>2016-11-26T11:45:59Z</time>
      </trkpt>
      <trkpt lat="45.92849" lon="4.7327">
        <ele>171</ele>
        <time>2016-11-26T11:46:00Z</time>
      </trkpt>
      <trkpt lat="45.92848" lon="4.7328">
        <ele>171</ele>
        <time>2016-11-26T11:46:01Z</time>
      </trkpt>
      <trkpt lat="45.92847" lon="4.7329">
        <ele>171</ele>
        <time>2016-11-26T11:46:02Z</time>
      </trkpt>
      <trkpt lat="45.92846" lon="4.73299">
        <ele>171</ele>
        <time>2016-11-26T11:46:03Z</time>
      </trkpt>
      <trkpt lat="45.92845" lon="4.73309">
        <ele>171</ele>
        <time>2016-11-26T11:46:04Z</time>
      </trkpt>
      <trkpt lat="45.92844" lon="4.73319">
        <ele>171</ele>
        <time>2016-11-26T11:46:05Z</time>
      </trkpt>
      <trkpt lat="45.92843" lon="4.73328">
        <ele>171</ele>
        <time>2016-11-26T11:46:06Z</time>
      </trkpt>
      <trkpt lat="45.92841" lon="4.73337">
        <ele>171</ele>
        <time>2016-11-26T11:46:07Z</time>
      </trkpt>
      <trkpt lat="45.9284" lon="4.73345">
        <ele>171</ele>
        <time>2016-11-26T11:46:08Z</time>
      </trkpt>
      <trkpt lat="45.92839" lon="4.73353">
        <ele>171</ele>
        <time>2016-11-26T11:46:09Z</time>
      </trkpt>
      <trkpt lat="45.92839" lon="4.73361">
        <ele>171</ele>
        <time>2016-11-26T11:46:10Z</time>
      </trkpt>
      <trkpt lat="45.92838" lon="4.7337">
        <ele>171</ele>
        <time>2016-11-26T11:46:11Z</time>
      </trkpt>
      <trkpt lat="45.92837" lon="4.73378">
        <ele>172</ele>
        <time>2016-11-26T11:46:12Z</time>
      </trkpt>
      <trkpt lat="45.92835" lon="4.73386">
        <ele>172</ele>
        <time>2016-11-26T11:46:13Z</time>
      </trkpt>
      <trkpt lat="45.92834" lon="4.73394">
        <ele>172</ele>
        <time>2016-11-26T11:46:14Z</time>
      </trkpt>
      <trkpt lat="45.92833" lon="4.73402">
        <ele>172</ele>
        <time>2016-11-26T11:46:15Z</time>
      </trkpt>
      <trkpt lat="45.92832" lon="4.7341">
        <ele>172</ele>
        <time>2016-11-26T11:46:16Z</time>
      </trkpt>
      <trkpt lat="45.92831" lon="4.73418">
        <ele>172</ele>
        <time>2016-11-26T11:46:17Z</time>
      </trkpt>
      <trkpt lat="45.9283" lon="4.73426">
        <ele>172</ele>
        <time>2016-11-26T11:46:18Z</time>
      </trkpt>
      <trkpt lat="45.92829" lon="4.73434">
        <ele>172</ele>
        <time>2016-11-26T11:46:19Z</time>
      </trkpt>
      <trkpt lat="45.92828" lon="4.73443">
        <ele>172</ele>
        <time>2016-11-26T11:46:20Z</time>
      </trkpt>
      <trkpt lat="45.92827" lon="4.7345">
        <ele>172</ele>
        <time>2016-11-26T11:46:21Z</time>
      </trkpt>
      <trkpt lat="45.92825" lon="4.73458">
        <ele>172</ele>
        <time>2016-11-26T11:46:22Z</time>
      </trkpt>
      <trkpt lat="45.92824" lon="4.73466">
        <ele>172</ele>
        <time>2016-11-26T11:46:23Z</time>
      </trkpt>
      <trkpt lat="45.92823" lon="4.73474">
        <ele>172</ele>
        <time>2016-11-26T11:46:24Z</time>
      </trkpt>
      <trkpt lat="45.92822" lon="4.73482">
        <ele>172</ele>
        <time>2016-11-26T11:46:25Z</time>
      </trkpt>
      <trkpt lat="45.92821" lon="4.7349">
        <ele>172</ele>
        <time>2016-11-26T11:46:26Z</time>
      </trkpt>
      <trkpt lat="45.9282" lon="4.73498">
        <ele>172</ele>
        <time>2016-11-26T11:46:27Z</time>
      </trkpt>
      <trkpt lat="45.92819" lon="4.73506">
        <ele>172</ele>
        <time>2016-11-26T11:46:28Z</time>
      </trkpt>
      <trkpt lat="45.92818" lon="4.73514">
        <ele>172</ele>
        <time>2016-11-26T11:46:29Z</time>
      </trkpt>
      <trkpt lat="45.92817" lon="4.73522">
        <ele>172</ele>
        <time>2016-11-26T11:46:30Z</time>
      </trkpt>
      <trkpt lat="45.92816" lon="4.7353">
        <ele>172</ele>
        <time>2016-11-26T11:46:31Z</time>
      </trkpt>
      <trkpt lat="45.92815" lon="4.73538">
        <ele>172</ele>
        <time>2016-11-26T11:46:32Z</time>
      </trkpt>
      <trkpt lat="45.92815" lon="4.73545">
        <ele>171</ele>
        <time>2016-11-26T11:46:33Z</time>
      </trkpt>
      <trkpt lat="45.92814" lon="4.73553">
        <ele>171</ele>
        <time>2016-11-26T11:46:34Z</time>
      </trkpt>
      <trkpt lat="45.92814" lon="4.73561">
        <ele>171</ele>
        <time>2016-11-26T11:46:35Z</time>
      </trkpt>
      <trkpt lat="45.92813" lon="4.73569">
        <ele>171</ele>
        <time>2016-11-26T11:46:36Z</time>
      </trkpt>
      <trkpt lat="45.92813" lon="4.73577">
        <ele>171</ele>
        <time>2016-11-26T11:46:37Z</time>
      </trkpt>
      <trkpt lat="45.92813" lon="4.73585">
        <ele>171</ele>
        <time>2016-11-26T11:46:38Z</time>
      </trkpt>
      <trkpt lat="45.92813" lon="4.73594">
        <ele>171</ele>
        <time>2016-11-26T11:46:39Z</time>
      </trkpt>
      <trkpt lat="45.92813" lon="4.73602">
        <ele>172</ele>
        <time>2016-11-26T11:46:40Z</time>
      </trkpt>
      <trkpt lat="45.92813" lon="4.73611">
        <ele>172</ele>
        <time>2016-11-26T11:46:41Z</time>
      </trkpt>
      <trkpt lat="45.92812" lon="4.73619">
        <ele>172</ele>
        <time>2016-11-26T11:46:42Z</time>
      </trkpt>
      <trkpt lat="45.9281" lon="4.73626">
        <ele>172</ele>
        <time>2016-11-26T11:46:43Z</time>
      </trkpt>
      <trkpt lat="45.92806" lon="4.73632">
        <ele>172</ele>
        <time>2016-11-26T11:46:44Z</time>
      </trkpt>
      <trkpt lat="45.92803" lon="4.73638">
        <ele>172</ele>
        <time>2016-11-26T11:46:45Z</time>
      </trkpt>
      <trkpt lat="45.928" lon="4.73643">
        <ele>172</ele>
        <time>2016-11-26T11:46:46Z</time>
      </trkpt>
      <trkpt lat="45.92797" lon="4.73649">
        <ele>172</ele>
        <time>2016-11-26T11:46:47Z</time>
      </trkpt>
      <trkpt lat="45.92795" lon="4.73655">
        <ele>172</ele>
        <time>2016-11-26T11:46:48Z</time>
      </trkpt>
      <trkpt lat="45.92794" lon="4.73662">
        <ele>172</ele>
        <time>2016-11-26T11:46:49Z</time>
      </trkpt>
      <trkpt lat="45.92793" lon="4.73669">
        <ele>172</ele>
        <time>2016-11-26T11:46:50Z</time>
      </trkpt>
      <trkpt lat="45.92791" lon="4.73676">
        <ele>172</ele>
        <time>2016-11-26T11:46:51Z</time>
      </trkpt>
      <trkpt lat="45.9279" lon="4.73683">
        <ele>172</ele>
        <time>2016-11-26T11:46:52Z</time>
      </trkpt>
      <trkpt lat="45.92788" lon="4.7369">
        <ele>172</ele>
        <time>2016-11-26T11:46:53Z</time>
      </trkpt>
      <trkpt lat="45.92786" lon="4.73697">
        <ele>172</ele>
        <time>2016-11-26T11:46:54Z</time>
      </trkpt>
      <trkpt lat="45.92784" lon="4.73703">
        <ele>172</ele>
        <time>2016-11-26T11:46:55Z</time>
      </trkpt>
      <trkpt lat="45.92783" lon="4.7371">
        <ele>172</ele>
        <time>2016-11-26T11:46:56Z</time>
      </trkpt>
      <trkpt lat="45.92781" lon="4.73722">
        <ele>172</ele>
        <time>2016-11-26T11:46:58Z</time>
      </trkpt>
      <trkpt lat="45.92779" lon="4.73727">
        <ele>172</ele>
        <time>2016-11-26T11:46:59Z</time>
      </trkpt>
      <trkpt lat="45.92772" lon="4.73731">
        <ele>172</ele>
        <time>2016-11-26T11:47:01Z</time>
      </trkpt>
      <trkpt lat="45.92768" lon="4.7373">
        <ele>172</ele>
        <time>2016-11-26T11:47:02Z</time>
      </trkpt>
      <trkpt lat="45.92764" lon="4.73728">
        <ele>172</ele>
        <time>2016-11-26T11:47:03Z</time>
      </trkpt>
      <trkpt lat="45.9276" lon="4.73725">
        <ele>172</ele>
        <time>2016-11-26T11:47:04Z</time>
      </trkpt>
      <trkpt lat="45.92755" lon="4.73722">
        <ele>172</ele>
        <time>2016-11-26T11:47:05Z</time>
      </trkpt>
      <trkpt lat="45.9275" lon="4.7372">
        <ele>173</ele>
        <time>2016-11-26T11:47:06Z</time>
      </trkpt>
      <trkpt lat="45.92744" lon="4.73718">
        <ele>173</ele>
        <time>2016-11-26T11:47:07Z</time>
      </trkpt>
      <trkpt lat="45.92738" lon="4.73716">
        <ele>173</ele>
        <time>2016-11-26T11:47:08Z</time>
      </trkpt>
      <trkpt lat="45.92733" lon="4.73714">
        <ele>173</ele>
        <time>2016-11-26T11:47:09Z</time>
      </trkpt>
      <trkpt lat="45.92728" lon="4.73713">
        <ele>173</ele>
        <time>2016-11-26T11:47:10Z</time>
      </trkpt>
      <trkpt lat="45.92722" lon="4.73712">
        <ele>173</ele>
        <time>2016-11-26T11:47:11Z</time>
      </trkpt>
      <trkpt lat="45.92717" lon="4.7371">
        <ele>173</ele>
        <time>2016-11-26T11:47:12Z</time>
      </trkpt>
      <trkpt lat="45.92711" lon="4.73709">
        <ele>173</ele>
        <time>2016-11-26T11:47:13Z</time>
      </trkpt>
      <trkpt lat="45.92706" lon="4.73708">
        <ele>173</ele>
        <time>2016-11-26T11:47:14Z</time>
      </trkpt>
      <trkpt lat="45.92701" lon="4.73706">
        <ele>173</ele>
        <time>2016-11-26T11:47:15Z</time>
      </trkpt>
      <trkpt lat="45.92695" lon="4.73705">
        <ele>173</ele>
        <time>2016-11-26T11:47:16Z</time>
      </trkpt>
      <trkpt lat="45.9269" lon="4.73703">
        <ele>173</ele>
        <time>2016-11-26T11:47:17Z</time>
      </trkpt>
      <trkpt lat="45.92685" lon="4.73702">
        <ele>173</ele>
        <time>2016-11-26T11:47:18Z</time>
      </trkpt>
      <trkpt lat="45.9268" lon="4.73701">
        <ele>173</ele>
        <time>2016-11-26T11:47:19Z</time>
      </trkpt>
      <trkpt lat="45.92675" lon="4.73699">
        <ele>174</ele>
        <time>2016-11-26T11:47:20Z</time>
      </trkpt>
      <trkpt lat="45.9267" lon="4.73698">
        <ele>174</ele>
        <time>2016-11-26T11:47:21Z</time>
      </trkpt>
      <trkpt lat="45.92665" lon="4.73695">
        <ele>173</ele>
        <time>2016-11-26T11:47:22Z</time>
      </trkpt>
      <trkpt lat="45.9266" lon="4.73692">
        <ele>173</ele>
        <time>2016-11-26T11:47:23Z</time>
      </trkpt>
      <trkpt lat="45.92656" lon="4.73689">
        <ele>173</ele>
        <time>2016-11-26T11:47:24Z</time>
      </trkpt>
      <trkpt lat="45.92652" lon="4.73685">
        <ele>173</ele>
        <time>2016-11-26T11:47:25Z</time>
      </trkpt>
      <trkpt lat="45.92647" lon="4.7368">
        <ele>173</ele>
        <time>2016-11-26T11:47:26Z</time>
      </trkpt>
      <trkpt lat="45.92643" lon="4.73676">
        <ele>173</ele>
        <time>2016-11-26T11:47:27Z</time>
      </trkpt>
      <trkpt lat="45.92639" lon="4.7367">
        <ele>173</ele>
        <time>2016-11-26T11:47:28Z</time>
      </trkpt>
      <trkpt lat="45.92636" lon="4.73664">
        <ele>173</ele>
        <time>2016-11-26T11:47:29Z</time>
      </trkpt>
      <trkpt lat="45.92634" lon="4.73658">
        <ele>173</ele>
        <time>2016-11-26T11:47:30Z</time>
      </trkpt>
      <trkpt lat="45.92631" lon="4.7365">
        <ele>173</ele>
        <time>2016-11-26T11:47:31Z</time>
      </trkpt>
      <trkpt lat="45.92628" lon="4.73643">
        <ele>173</ele>
        <time>2016-11-26T11:47:32Z</time>
      </trkpt>
      <trkpt lat="45.92625" lon="4.73636">
        <ele>173</ele>
        <time>2016-11-26T11:47:33Z</time>
      </trkpt>
      <trkpt lat="45.9262" lon="4.7363">
        <ele>173</ele>
        <time>2016-11-26T11:47:34Z</time>
      </trkpt>
      <trkpt lat="45.92615" lon="4.73626">
        <ele>173</ele>
        <time>2016-11-26T11:47:35Z</time>
      </trkpt>
      <trkpt lat="45.92608" lon="4.73622">
        <ele>173</ele>
        <time>2016-11-26T11:47:36Z</time>
      </trkpt>
      <trkpt lat="45.92602" lon="4.73621">
        <ele>173</ele>
        <time>2016-11-26T11:47:37Z</time>
      </trkpt>
      <trkpt lat="45.92595" lon="4.7362">
        <ele>173</ele>
        <time>2016-11-26T11:47:38Z</time>
      </trkpt>
      <trkpt lat="45.92589" lon="4.7362">
        <ele>173</ele>
        <time>2016-11-26T11:47:39Z</time>
      </trkpt>
      <trkpt lat="45.92583" lon="4.73621">
        <ele>173</ele>
        <time>2016-11-26T11:47:40Z</time>
      </trkpt>
      <trkpt lat="45.92577" lon="4.73623">
        <ele>173</ele>
        <time>2016-11-26T11:47:41Z</time>
      </trkpt>
      <trkpt lat="45.92572" lon="4.73625">
        <ele>173</ele>
        <time>2016-11-26T11:47:42Z</time>
      </trkpt>
      <trkpt lat="45.92566" lon="4.73626">
        <ele>173</ele>
        <time>2016-11-26T11:47:43Z</time>
      </trkpt>
      <trkpt lat="45.92561" lon="4.73628">
        <ele>173</ele>
        <time>2016-11-26T11:47:44Z</time>
      </trkpt>
      <trkpt lat="45.92555" lon="4.7363">
        <ele>173</ele>
        <time>2016-11-26T11:47:45Z</time>
      </trkpt>
      <trkpt lat="45.9255" lon="4.73631">
        <ele>173</ele>
        <time>2016-11-26T11:47:46Z</time>
      </trkpt>
      <trkpt lat="45.92544" lon="4.73632">
        <ele>173</ele>
        <time>2016-11-26T11:47:47Z</time>
      </trkpt>
      <trkpt lat="45.9254" lon="4.73633">
        <ele>173</ele>
        <time>2016-11-26T11:47:48Z</time>
      </trkpt>
      <trkpt lat="45.92535" lon="4.73633">
        <ele>173</ele>
        <time>2016-11-26T11:47:49Z</time>
      </trkpt>
      <trkpt lat="45.9253" lon="4.73635">
        <ele>173</ele>
        <time>2016-11-26T11:47:50Z</time>
      </trkpt>
      <trkpt lat="45.92525" lon="4.73636">
        <ele>173</ele>
        <time>2016-11-26T11:47:51Z</time>
      </trkpt>
      <trkpt lat="45.9252" lon="4.73636">
        <ele>173</ele>
        <time>2016-11-26T11:47:52Z</time>
      </trkpt>
      <trkpt lat="45.92515" lon="4.73636">
        <ele>173</ele>
        <time>2016-11-26T11:47:53Z</time>
      </trkpt>
      <trkpt lat="45.92509" lon="4.73636">
        <ele>174</ele>
        <time>2016-11-26T11:47:54Z</time>
      </trkpt>
      <trkpt lat="45.92504" lon="4.73636">
        <ele>174</ele>
        <time>2016-11-26T11:47:55Z</time>
      </trkpt>
      <trkpt lat="45.92499" lon="4.73636">
        <ele>174</ele>
        <time>2016-11-26T11:47:56Z</time>
      </trkpt>
      <trkpt lat="45.92494" lon="4.73637">
        <ele>174</ele>
        <time>2016-11-26T11:47:57Z</time>
      </trkpt>
      <trkpt lat="45.92489" lon="4.73637">
        <ele>174</ele>
        <time>2016-11-26T11:47:58Z</time>
      </trkpt>
      <trkpt lat="45.92484" lon="4.73638">
        <ele>174</ele>
        <time>2016-11-26T11:47:59Z</time>
      </trkpt>
      <trkpt lat="45.92479" lon="4.73638">
        <ele>174</ele>
        <time>2016-11-26T11:48:00Z</time>
      </trkpt>
      <trkpt lat="45.92475" lon="4.73639">
        <ele>174</ele>
        <time>2016-11-26T11:48:01Z</time>
      </trkpt>
      <trkpt lat="45.92471" lon="4.73643">
        <ele>174</ele>
        <time>2016-11-26T11:48:02Z</time>
      </trkpt>
      <trkpt lat="45.92467" lon="4.73648">
        <ele>174</ele>
        <time>2016-11-26T11:48:03Z</time>
      </trkpt>
      <trkpt lat="45.92466" lon="4.73654">
        <ele>174</ele>
        <time>2016-11-26T11:48:04Z</time>
      </trkpt>
      <trkpt lat="45.92466" lon="4.73666">
        <ele>174</ele>
        <time>2016-11-26T11:48:06Z</time>
      </trkpt>
      <trkpt lat="45.92466" lon="4.73673">
        <ele>174</ele>
        <time>2016-11-26T11:48:07Z</time>
      </trkpt>
      <trkpt lat="45.92465" lon="4.73684">
        <ele>174</ele>
        <time>2016-11-26T11:48:09Z</time>
      </trkpt>
      <trkpt lat="45.92465" lon="4.7369">
        <ele>174</ele>
        <time>2016-11-26T11:48:10Z</time>
      </trkpt>
      <trkpt lat="45.92463" lon="4.73701">
        <ele>174</ele>
        <time>2016-11-26T11:48:12Z</time>
      </trkpt>
      <trkpt lat="45.92462" lon="4.73704">
        <ele>174</ele>
        <time>2016-11-26T11:48:13Z</time>
      </trkpt>
      <trkpt lat="45.92462" lon="4.73707">
        <ele>174</ele>
        <time>2016-11-26T11:48:14Z</time>
      </trkpt>
      <trkpt lat="45.92462" lon="4.73709">
        <ele>174</ele>
        <time>2016-11-26T11:48:15Z</time>
      </trkpt>
      <trkpt lat="45.92462" lon="4.73709">
        <ele>174</ele>
        <time>2016-11-26T11:48:26Z</time>
      </trkpt>
      <trkpt lat="45.92461" lon="4.7371">
        <ele>174</ele>
        <time>2016-11-26T11:48:27Z</time>
      </trkpt>
      <trkpt lat="45.92458" lon="4.7371">
        <ele>174</ele>
        <time>2016-11-26T11:48:53.421Z</time>
      </trkpt>
    </trkseg>
  </trk>
</gpx>